<?xml version="1.0" encoding="UTF-8" standalone="no" ?>
<gpx xmlns="http://www.topografix.com/GPX/1/1" xmlns:xsi="http://www.w3.org/2001/XMLSchema-instance" xsi:schemaLocation="http://www.topografix.com/GPX/1/1 http://www.topografix.com/GPX/1/1/gpx.xsd" version="1.1" creator="VisuGPX - https://www.visugpx.com">
  <metadata>
    <name>Chartreuse Maratour - 3 Jours de Chartreuse</name>
    <desc><![CDATA[[b]Chartreuse Maratour - 3 Jours de Chartreuse[/b]
Samedi 4 juin 2011]]></desc>
  </metadata>
  <trk>
    <name><![CDATA[Chartreuse Maratour - 3 Jours de Chartreuse_1]]></name>
    <trkseg>
      <trkpt lat="45.34133" lon="5.81706">
        <ele>887.43408203125</ele>
        <time>2011-06-04T06:01:18Z</time>
      </trkpt>
      <trkpt lat="45.34133" lon="5.81706">
        <ele>887.43408203125</ele>
        <time>2011-06-04T06:01:19Z</time>
      </trkpt>
      <trkpt lat="45.34132" lon="5.8171">
        <ele>888.3955078125</ele>
        <time>2011-06-04T06:01:23Z</time>
      </trkpt>
      <trkpt lat="45.3413" lon="5.81717">
        <ele>888.87622070312</ele>
        <time>2011-06-04T06:01:26Z</time>
      </trkpt>
      <trkpt lat="45.34127" lon="5.81726">
        <ele>889.35668945312</ele>
        <time>2011-06-04T06:01:29Z</time>
      </trkpt>
      <trkpt lat="45.34126" lon="5.81729">
        <ele>889.83740234375</ele>
        <time>2011-06-04T06:01:30Z</time>
      </trkpt>
      <trkpt lat="45.34119" lon="5.81751">
        <ele>891.76000976562</ele>
        <time>2011-06-04T06:01:36Z</time>
      </trkpt>
      <trkpt lat="45.34112" lon="5.81772">
        <ele>891.76000976562</ele>
        <time>2011-06-04T06:01:42Z</time>
      </trkpt>
      <trkpt lat="45.34109" lon="5.81783">
        <ele>891.76000976562</ele>
        <time>2011-06-04T06:01:45Z</time>
      </trkpt>
      <trkpt lat="45.34106" lon="5.8179">
        <ele>891.76000976562</ele>
        <time>2011-06-04T06:01:47Z</time>
      </trkpt>
      <trkpt lat="45.34105" lon="5.81793">
        <ele>891.76000976562</ele>
        <time>2011-06-04T06:01:48Z</time>
      </trkpt>
      <trkpt lat="45.34104" lon="5.81797">
        <ele>891.76000976562</ele>
        <time>2011-06-04T06:01:49Z</time>
      </trkpt>
      <trkpt lat="45.341" lon="5.81808">
        <ele>892.24096679688</ele>
        <time>2011-06-04T06:01:52Z</time>
      </trkpt>
      <trkpt lat="45.34098" lon="5.81812">
        <ele>892.24096679688</ele>
        <time>2011-06-04T06:01:53Z</time>
      </trkpt>
      <trkpt lat="45.34097" lon="5.8182">
        <ele>891.76000976562</ele>
        <time>2011-06-04T06:01:55Z</time>
      </trkpt>
      <trkpt lat="45.34095" lon="5.81833">
        <ele>890.79858398438</ele>
        <time>2011-06-04T06:01:58Z</time>
      </trkpt>
      <trkpt lat="45.34095" lon="5.81837">
        <ele>890.31811523438</ele>
        <time>2011-06-04T06:01:59Z</time>
      </trkpt>
      <trkpt lat="45.34094" lon="5.81842">
        <ele>890.31811523438</ele>
        <time>2011-06-04T06:02:00Z</time>
      </trkpt>
      <trkpt lat="45.34093" lon="5.8187">
        <ele>889.35668945312</ele>
        <time>2011-06-04T06:02:07Z</time>
      </trkpt>
      <trkpt lat="45.34092" lon="5.81882">
        <ele>889.35668945312</ele>
        <time>2011-06-04T06:02:10Z</time>
      </trkpt>
      <trkpt lat="45.34092" lon="5.81886">
        <ele>889.35668945312</ele>
        <time>2011-06-04T06:02:11Z</time>
      </trkpt>
      <trkpt lat="45.34091" lon="5.81895">
        <ele>889.35668945312</ele>
        <time>2011-06-04T06:02:13Z</time>
      </trkpt>
      <trkpt lat="45.34091" lon="5.81899">
        <ele>889.35668945312</ele>
        <time>2011-06-04T06:02:14Z</time>
      </trkpt>
      <trkpt lat="45.34087" lon="5.81924">
        <ele>889.35668945312</ele>
        <time>2011-06-04T06:02:20Z</time>
      </trkpt>
      <trkpt lat="45.34084" lon="5.81935">
        <ele>888.87622070312</ele>
        <time>2011-06-04T06:02:23Z</time>
      </trkpt>
      <trkpt lat="45.34082" lon="5.81946">
        <ele>888.3955078125</ele>
        <time>2011-06-04T06:02:26Z</time>
      </trkpt>
      <trkpt lat="45.34081" lon="5.8195">
        <ele>888.87622070312</ele>
        <time>2011-06-04T06:02:27Z</time>
      </trkpt>
      <trkpt lat="45.34079" lon="5.81953">
        <ele>888.3955078125</ele>
        <time>2011-06-04T06:02:28Z</time>
      </trkpt>
      <trkpt lat="45.34078" lon="5.81957">
        <ele>887.91479492188</ele>
        <time>2011-06-04T06:02:29Z</time>
      </trkpt>
      <trkpt lat="45.34069" lon="5.81982">
        <ele>887.91479492188</ele>
        <time>2011-06-04T06:02:36Z</time>
      </trkpt>
      <trkpt lat="45.34065" lon="5.81991">
        <ele>888.3955078125</ele>
        <time>2011-06-04T06:02:39Z</time>
      </trkpt>
      <trkpt lat="45.34056" lon="5.82009">
        <ele>888.87622070312</ele>
        <time>2011-06-04T06:02:45Z</time>
      </trkpt>
      <trkpt lat="45.34045" lon="5.82023">
        <ele>886.95336914062</ele>
        <time>2011-06-04T06:02:50Z</time>
      </trkpt>
      <trkpt lat="45.34028" lon="5.82042">
        <ele>885.9921875</ele>
        <time>2011-06-04T06:02:57Z</time>
      </trkpt>
      <trkpt lat="45.34018" lon="5.82058">
        <ele>885.9921875</ele>
        <time>2011-06-04T06:03:02Z</time>
      </trkpt>
      <trkpt lat="45.34014" lon="5.82065">
        <ele>885.03100585938</ele>
        <time>2011-06-04T06:03:04Z</time>
      </trkpt>
      <trkpt lat="45.34011" lon="5.82072">
        <ele>885.03100585938</ele>
        <time>2011-06-04T06:03:06Z</time>
      </trkpt>
      <trkpt lat="45.3401" lon="5.82075">
        <ele>885.03100585938</ele>
        <time>2011-06-04T06:03:07Z</time>
      </trkpt>
      <trkpt lat="45.34009" lon="5.82079">
        <ele>884.55029296875</ele>
        <time>2011-06-04T06:03:08Z</time>
      </trkpt>
      <trkpt lat="45.34008" lon="5.82082">
        <ele>885.03100585938</ele>
        <time>2011-06-04T06:03:09Z</time>
      </trkpt>
      <trkpt lat="45.34005" lon="5.82092">
        <ele>885.51147460938</ele>
        <time>2011-06-04T06:03:12Z</time>
      </trkpt>
      <trkpt lat="45.34003" lon="5.82099">
        <ele>885.9921875</ele>
        <time>2011-06-04T06:03:14Z</time>
      </trkpt>
      <trkpt lat="45.34001" lon="5.82103">
        <ele>886.95336914062</ele>
        <time>2011-06-04T06:03:15Z</time>
      </trkpt>
      <trkpt lat="45.33996" lon="5.82117">
        <ele>888.87622070312</ele>
        <time>2011-06-04T06:03:19Z</time>
      </trkpt>
      <trkpt lat="45.33993" lon="5.82123">
        <ele>890.31811523438</ele>
        <time>2011-06-04T06:03:21Z</time>
      </trkpt>
      <trkpt lat="45.3399" lon="5.82126">
        <ele>890.79858398438</ele>
        <time>2011-06-04T06:03:22Z</time>
      </trkpt>
      <trkpt lat="45.3398" lon="5.8214">
        <ele>893.68286132812</ele>
        <time>2011-06-04T06:03:27Z</time>
      </trkpt>
      <trkpt lat="45.33971" lon="5.82151">
        <ele>893.2021484375</ele>
        <time>2011-06-04T06:03:32Z</time>
      </trkpt>
      <trkpt lat="45.33964" lon="5.82165">
        <ele>892.7216796875</ele>
        <time>2011-06-04T06:03:36Z</time>
      </trkpt>
      <trkpt lat="45.33955" lon="5.82184">
        <ele>890.31811523438</ele>
        <time>2011-06-04T06:03:41Z</time>
      </trkpt>
      <trkpt lat="45.33952" lon="5.82191">
        <ele>888.3955078125</ele>
        <time>2011-06-04T06:03:43Z</time>
      </trkpt>
      <trkpt lat="45.33949" lon="5.82198">
        <ele>887.91479492188</ele>
        <time>2011-06-04T06:03:45Z</time>
      </trkpt>
      <trkpt lat="45.33936" lon="5.82216">
        <ele>888.3955078125</ele>
        <time>2011-06-04T06:03:51Z</time>
      </trkpt>
      <trkpt lat="45.33929" lon="5.82224">
        <ele>887.43408203125</ele>
        <time>2011-06-04T06:03:54Z</time>
      </trkpt>
      <trkpt lat="45.33922" lon="5.82231">
        <ele>886.47290039062</ele>
        <time>2011-06-04T06:03:57Z</time>
      </trkpt>
      <trkpt lat="45.3391" lon="5.82241">
        <ele>885.51147460938</ele>
        <time>2011-06-04T06:04:02Z</time>
      </trkpt>
      <trkpt lat="45.33905" lon="5.82246">
        <ele>885.9921875</ele>
        <time>2011-06-04T06:04:04Z</time>
      </trkpt>
      <trkpt lat="45.33904" lon="5.82248">
        <ele>887.91479492188</ele>
        <time>2011-06-04T06:04:05Z</time>
      </trkpt>
      <trkpt lat="45.33897" lon="5.82255">
        <ele>888.87622070312</ele>
        <time>2011-06-04T06:04:08Z</time>
      </trkpt>
      <trkpt lat="45.33892" lon="5.82265">
        <ele>892.7216796875</ele>
        <time>2011-06-04T06:04:12Z</time>
      </trkpt>
      <trkpt lat="45.33881" lon="5.82285">
        <ele>897.52807617188</ele>
        <time>2011-06-04T06:04:19Z</time>
      </trkpt>
      <trkpt lat="45.33873" lon="5.823">
        <ele>898.96997070312</ele>
        <time>2011-06-04T06:04:24Z</time>
      </trkpt>
      <trkpt lat="45.33866" lon="5.82312">
        <ele>901.85400390625</ele>
        <time>2011-06-04T06:04:28Z</time>
      </trkpt>
      <trkpt lat="45.33862" lon="5.82332">
        <ele>910.98657226562</ele>
        <time>2011-06-04T06:04:34Z</time>
      </trkpt>
      <trkpt lat="45.33859" lon="5.82343">
        <ele>917.71557617188</ele>
        <time>2011-06-04T06:04:37Z</time>
      </trkpt>
      <trkpt lat="45.33858" lon="5.82346">
        <ele>918.1962890625</ele>
        <time>2011-06-04T06:04:38Z</time>
      </trkpt>
      <trkpt lat="45.33858" lon="5.8235">
        <ele>918.67700195312</ele>
        <time>2011-06-04T06:04:39Z</time>
      </trkpt>
      <trkpt lat="45.33853" lon="5.82368">
        <ele>916.75439453125</ele>
        <time>2011-06-04T06:04:45Z</time>
      </trkpt>
      <trkpt lat="45.33847" lon="5.82382">
        <ele>914.35107421875</ele>
        <time>2011-06-04T06:04:50Z</time>
      </trkpt>
      <trkpt lat="45.33841" lon="5.82393">
        <ele>913.38989257812</ele>
        <time>2011-06-04T06:04:54Z</time>
      </trkpt>
      <trkpt lat="45.33838" lon="5.82407">
        <ele>911.94799804688</ele>
        <time>2011-06-04T06:04:59Z</time>
      </trkpt>
      <trkpt lat="45.33839" lon="5.82425">
        <ele>910.02514648438</ele>
        <time>2011-06-04T06:05:05Z</time>
      </trkpt>
      <trkpt lat="45.33841" lon="5.82431">
        <ele>910.98657226562</ele>
        <time>2011-06-04T06:05:07Z</time>
      </trkpt>
      <trkpt lat="45.33846" lon="5.82446">
        <ele>914.35107421875</ele>
        <time>2011-06-04T06:05:12Z</time>
      </trkpt>
      <trkpt lat="45.33845" lon="5.82448">
        <ele>914.83178710938</ele>
        <time>2011-06-04T06:05:13Z</time>
      </trkpt>
      <trkpt lat="45.33846" lon="5.82458">
        <ele>917.23510742188</ele>
        <time>2011-06-04T06:05:17Z</time>
      </trkpt>
      <trkpt lat="45.33841" lon="5.8247">
        <ele>920.599609375</ele>
        <time>2011-06-04T06:05:22Z</time>
      </trkpt>
      <trkpt lat="45.33836" lon="5.82482">
        <ele>923.0029296875</ele>
        <time>2011-06-04T06:05:27Z</time>
      </trkpt>
      <trkpt lat="45.33829" lon="5.82493">
        <ele>925.40625</ele>
        <time>2011-06-04T06:05:32Z</time>
      </trkpt>
      <trkpt lat="45.33823" lon="5.82506">
        <ele>926.36767578125</ele>
        <time>2011-06-04T06:05:38Z</time>
      </trkpt>
      <trkpt lat="45.33821" lon="5.82516">
        <ele>928.29028320312</ele>
        <time>2011-06-04T06:05:42Z</time>
      </trkpt>
      <trkpt lat="45.33818" lon="5.82534">
        <ele>929.25146484375</ele>
        <time>2011-06-04T06:05:50Z</time>
      </trkpt>
      <trkpt lat="45.33812" lon="5.82548">
        <ele>925.40625</ele>
        <time>2011-06-04T06:05:56Z</time>
      </trkpt>
      <trkpt lat="45.3381" lon="5.82565">
        <ele>923.48364257812</ele>
        <time>2011-06-04T06:06:04Z</time>
      </trkpt>
      <trkpt lat="45.33807" lon="5.82579">
        <ele>922.52221679688</ele>
        <time>2011-06-04T06:06:11Z</time>
      </trkpt>
      <trkpt lat="45.33807" lon="5.82589">
        <ele>922.04150390625</ele>
        <time>2011-06-04T06:06:16Z</time>
      </trkpt>
      <trkpt lat="45.33803" lon="5.82601">
        <ele>919.63842773438</ele>
        <time>2011-06-04T06:06:21Z</time>
      </trkpt>
      <trkpt lat="45.33799" lon="5.82617">
        <ele>916.75439453125</ele>
        <time>2011-06-04T06:06:28Z</time>
      </trkpt>
      <trkpt lat="45.33797" lon="5.82632">
        <ele>916.27368164062</ele>
        <time>2011-06-04T06:06:33Z</time>
      </trkpt>
      <trkpt lat="45.33796" lon="5.82639">
        <ele>916.27368164062</ele>
        <time>2011-06-04T06:06:35Z</time>
      </trkpt>
      <trkpt lat="45.33799" lon="5.82654">
        <ele>915.79321289062</ele>
        <time>2011-06-04T06:06:40Z</time>
      </trkpt>
      <trkpt lat="45.33795" lon="5.82673">
        <ele>917.23510742188</ele>
        <time>2011-06-04T06:06:46Z</time>
      </trkpt>
      <trkpt lat="45.33799" lon="5.82691">
        <ele>919.15771484375</ele>
        <time>2011-06-04T06:06:51Z</time>
      </trkpt>
      <trkpt lat="45.33802" lon="5.82712">
        <ele>919.63842773438</ele>
        <time>2011-06-04T06:06:57Z</time>
      </trkpt>
      <trkpt lat="45.338" lon="5.82735">
        <ele>923.96411132812</ele>
        <time>2011-06-04T06:07:03Z</time>
      </trkpt>
      <trkpt lat="45.33798" lon="5.82747">
        <ele>925.40625</ele>
        <time>2011-06-04T06:07:06Z</time>
      </trkpt>
      <trkpt lat="45.33797" lon="5.8275">
        <ele>926.36767578125</ele>
        <time>2011-06-04T06:07:07Z</time>
      </trkpt>
      <trkpt lat="45.33796" lon="5.82754">
        <ele>926.84838867188</ele>
        <time>2011-06-04T06:07:08Z</time>
      </trkpt>
      <trkpt lat="45.33789" lon="5.82774">
        <ele>923.48364257812</ele>
        <time>2011-06-04T06:07:14Z</time>
      </trkpt>
      <trkpt lat="45.33786" lon="5.82792">
        <ele>922.52221679688</ele>
        <time>2011-06-04T06:07:19Z</time>
      </trkpt>
      <trkpt lat="45.33776" lon="5.82814">
        <ele>927.8095703125</ele>
        <time>2011-06-04T06:07:25Z</time>
      </trkpt>
      <trkpt lat="45.33768" lon="5.82831">
        <ele>931.65478515625</ele>
        <time>2011-06-04T06:07:30Z</time>
      </trkpt>
      <trkpt lat="45.33758" lon="5.82845">
        <ele>935.98071289062</ele>
        <time>2011-06-04T06:07:35Z</time>
      </trkpt>
      <trkpt lat="45.33746" lon="5.82851">
        <ele>941.26806640625</ele>
        <time>2011-06-04T06:07:39Z</time>
      </trkpt>
      <trkpt lat="45.33735" lon="5.82852">
        <ele>937.42260742188</ele>
        <time>2011-06-04T06:07:44Z</time>
      </trkpt>
      <trkpt lat="45.33722" lon="5.82856">
        <ele>936.46142578125</ele>
        <time>2011-06-04T06:07:49Z</time>
      </trkpt>
      <trkpt lat="45.33715" lon="5.82866">
        <ele>936.46142578125</ele>
        <time>2011-06-04T06:07:53Z</time>
      </trkpt>
      <trkpt lat="45.33703" lon="5.82884">
        <ele>942.2294921875</ele>
        <time>2011-06-04T06:07:59Z</time>
      </trkpt>
      <trkpt lat="45.33699" lon="5.8289">
        <ele>944.63256835938</ele>
        <time>2011-06-04T06:08:01Z</time>
      </trkpt>
      <trkpt lat="45.33694" lon="5.8291">
        <ele>942.71020507812</ele>
        <time>2011-06-04T06:08:07Z</time>
      </trkpt>
      <trkpt lat="45.3369" lon="5.82919">
        <ele>938.86474609375</ele>
        <time>2011-06-04T06:08:10Z</time>
      </trkpt>
      <trkpt lat="45.33683" lon="5.82939">
        <ele>934.53881835938</ele>
        <time>2011-06-04T06:08:16Z</time>
      </trkpt>
      <trkpt lat="45.33679" lon="5.82952">
        <ele>932.6162109375</ele>
        <time>2011-06-04T06:08:20Z</time>
      </trkpt>
      <trkpt lat="45.33675" lon="5.82969">
        <ele>930.69360351562</ele>
        <time>2011-06-04T06:08:25Z</time>
      </trkpt>
      <trkpt lat="45.33675" lon="5.82988">
        <ele>929.25146484375</ele>
        <time>2011-06-04T06:08:30Z</time>
      </trkpt>
      <trkpt lat="45.33665" lon="5.83005">
        <ele>931.17431640625</ele>
        <time>2011-06-04T06:08:35Z</time>
      </trkpt>
      <trkpt lat="45.33663" lon="5.83024">
        <ele>931.65478515625</ele>
        <time>2011-06-04T06:08:40Z</time>
      </trkpt>
      <trkpt lat="45.33659" lon="5.83046">
        <ele>930.69360351562</ele>
        <time>2011-06-04T06:08:46Z</time>
      </trkpt>
      <trkpt lat="45.33659" lon="5.8305">
        <ele>930.212890625</ele>
        <time>2011-06-04T06:08:47Z</time>
      </trkpt>
      <trkpt lat="45.33658" lon="5.83072">
        <ele>929.25146484375</ele>
        <time>2011-06-04T06:08:53Z</time>
      </trkpt>
      <trkpt lat="45.33657" lon="5.83078">
        <ele>928.77099609375</ele>
        <time>2011-06-04T06:08:55Z</time>
      </trkpt>
      <trkpt lat="45.33659" lon="5.83093">
        <ele>929.25146484375</ele>
        <time>2011-06-04T06:09:00Z</time>
      </trkpt>
      <trkpt lat="45.33659" lon="5.83106">
        <ele>929.73217773438</ele>
        <time>2011-06-04T06:09:04Z</time>
      </trkpt>
      <trkpt lat="45.33657" lon="5.83117">
        <ele>930.69360351562</ele>
        <time>2011-06-04T06:09:08Z</time>
      </trkpt>
      <trkpt lat="45.33656" lon="5.8313">
        <ele>932.6162109375</ele>
        <time>2011-06-04T06:09:12Z</time>
      </trkpt>
      <trkpt lat="45.33653" lon="5.83146">
        <ele>934.53881835938</ele>
        <time>2011-06-04T06:09:17Z</time>
      </trkpt>
      <trkpt lat="45.3365" lon="5.83171">
        <ele>937.42260742188</ele>
        <time>2011-06-04T06:09:24Z</time>
      </trkpt>
      <trkpt lat="45.33646" lon="5.83193">
        <ele>938.86474609375</ele>
        <time>2011-06-04T06:09:30Z</time>
      </trkpt>
      <trkpt lat="45.33643" lon="5.83215">
        <ele>937.9033203125</ele>
        <time>2011-06-04T06:09:36Z</time>
      </trkpt>
      <trkpt lat="45.3364" lon="5.83232">
        <ele>937.42260742188</ele>
        <time>2011-06-04T06:09:41Z</time>
      </trkpt>
      <trkpt lat="45.33635" lon="5.83249">
        <ele>937.9033203125</ele>
        <time>2011-06-04T06:09:46Z</time>
      </trkpt>
      <trkpt lat="45.33628" lon="5.83268">
        <ele>938.86474609375</ele>
        <time>2011-06-04T06:09:52Z</time>
      </trkpt>
      <trkpt lat="45.33619" lon="5.83284">
        <ele>939.34521484375</ele>
        <time>2011-06-04T06:09:57Z</time>
      </trkpt>
      <trkpt lat="45.33615" lon="5.83297">
        <ele>940.30688476562</ele>
        <time>2011-06-04T06:10:01Z</time>
      </trkpt>
      <trkpt lat="45.33614" lon="5.833">
        <ele>940.78735351562</ele>
        <time>2011-06-04T06:10:02Z</time>
      </trkpt>
      <trkpt lat="45.33611" lon="5.83319">
        <ele>942.71020507812</ele>
        <time>2011-06-04T06:10:07Z</time>
      </trkpt>
      <trkpt lat="45.33606" lon="5.83338">
        <ele>943.67138671875</ele>
        <time>2011-06-04T06:10:12Z</time>
      </trkpt>
      <trkpt lat="45.33603" lon="5.83349">
        <ele>944.15209960938</ele>
        <time>2011-06-04T06:10:15Z</time>
      </trkpt>
      <trkpt lat="45.33603" lon="5.83369">
        <ele>944.15209960938</ele>
        <time>2011-06-04T06:10:20Z</time>
      </trkpt>
      <trkpt lat="45.33599" lon="5.83396">
        <ele>944.63256835938</ele>
        <time>2011-06-04T06:10:27Z</time>
      </trkpt>
      <trkpt lat="45.33599" lon="5.834">
        <ele>944.63256835938</ele>
        <time>2011-06-04T06:10:28Z</time>
      </trkpt>
      <trkpt lat="45.33597" lon="5.83422">
        <ele>944.15209960938</ele>
        <time>2011-06-04T06:10:34Z</time>
      </trkpt>
      <trkpt lat="45.33598" lon="5.83442">
        <ele>946.55541992188</ele>
        <time>2011-06-04T06:10:39Z</time>
      </trkpt>
      <trkpt lat="45.33593" lon="5.8346">
        <ele>949.919921875</ele>
        <time>2011-06-04T06:10:44Z</time>
      </trkpt>
      <trkpt lat="45.3359" lon="5.83479">
        <ele>950.40063476562</ele>
        <time>2011-06-04T06:10:49Z</time>
      </trkpt>
      <trkpt lat="45.33587" lon="5.83494">
        <ele>951.36181640625</ele>
        <time>2011-06-04T06:10:53Z</time>
      </trkpt>
      <trkpt lat="45.33583" lon="5.83514">
        <ele>950.88110351562</ele>
        <time>2011-06-04T06:10:58Z</time>
      </trkpt>
      <trkpt lat="45.3358" lon="5.83537">
        <ele>948.95849609375</ele>
        <time>2011-06-04T06:11:04Z</time>
      </trkpt>
      <trkpt lat="45.33576" lon="5.83552">
        <ele>949.919921875</ele>
        <time>2011-06-04T06:11:08Z</time>
      </trkpt>
      <trkpt lat="45.33571" lon="5.83567">
        <ele>948.95849609375</ele>
        <time>2011-06-04T06:11:12Z</time>
      </trkpt>
      <trkpt lat="45.33566" lon="5.83591">
        <ele>946.07470703125</ele>
        <time>2011-06-04T06:11:18Z</time>
      </trkpt>
      <trkpt lat="45.33558" lon="5.83613">
        <ele>945.11328125</ele>
        <time>2011-06-04T06:11:24Z</time>
      </trkpt>
      <trkpt lat="45.33546" lon="5.83639">
        <ele>944.15209960938</ele>
        <time>2011-06-04T06:11:31Z</time>
      </trkpt>
      <trkpt lat="45.33539" lon="5.83652">
        <ele>944.15209960938</ele>
        <time>2011-06-04T06:11:35Z</time>
      </trkpt>
      <trkpt lat="45.33537" lon="5.83655">
        <ele>944.15209960938</ele>
        <time>2011-06-04T06:11:36Z</time>
      </trkpt>
      <trkpt lat="45.33529" lon="5.83667">
        <ele>944.63256835938</ele>
        <time>2011-06-04T06:11:41Z</time>
      </trkpt>
      <trkpt lat="45.33522" lon="5.83676">
        <ele>945.59399414062</ele>
        <time>2011-06-04T06:11:45Z</time>
      </trkpt>
      <trkpt lat="45.33508" lon="5.8369">
        <ele>949.43920898438</ele>
        <time>2011-06-04T06:11:50Z</time>
      </trkpt>
      <trkpt lat="45.33492" lon="5.83708">
        <ele>956.64916992188</ele>
        <time>2011-06-04T06:11:56Z</time>
      </trkpt>
      <trkpt lat="45.33478" lon="5.83718">
        <ele>961.9365234375</ele>
        <time>2011-06-04T06:12:00Z</time>
      </trkpt>
      <trkpt lat="45.33464" lon="5.83726">
        <ele>964.33959960938</ele>
        <time>2011-06-04T06:12:05Z</time>
      </trkpt>
      <trkpt lat="45.33451" lon="5.83733">
        <ele>966.74291992188</ele>
        <time>2011-06-04T06:12:09Z</time>
      </trkpt>
      <trkpt lat="45.33438" lon="5.83744">
        <ele>969.14624023438</ele>
        <time>2011-06-04T06:12:14Z</time>
      </trkpt>
      <trkpt lat="45.33427" lon="5.83759">
        <ele>973.95288085938</ele>
        <time>2011-06-04T06:12:19Z</time>
      </trkpt>
      <trkpt lat="45.33423" lon="5.8377">
        <ele>975.39477539062</ele>
        <time>2011-06-04T06:12:23Z</time>
      </trkpt>
      <trkpt lat="45.33421" lon="5.83785">
        <ele>973.47241210938</ele>
        <time>2011-06-04T06:12:28Z</time>
      </trkpt>
      <trkpt lat="45.33413" lon="5.83802">
        <ele>972.51098632812</ele>
        <time>2011-06-04T06:12:34Z</time>
      </trkpt>
      <trkpt lat="45.33407" lon="5.83815">
        <ele>971.54931640625</ele>
        <time>2011-06-04T06:12:38Z</time>
      </trkpt>
      <trkpt lat="45.33399" lon="5.83831">
        <ele>973.47241210938</ele>
        <time>2011-06-04T06:12:43Z</time>
      </trkpt>
      <trkpt lat="45.33396" lon="5.83843">
        <ele>972.51098632812</ele>
        <time>2011-06-04T06:12:47Z</time>
      </trkpt>
      <trkpt lat="45.3339" lon="5.83857">
        <ele>969.626953125</ele>
        <time>2011-06-04T06:12:52Z</time>
      </trkpt>
      <trkpt lat="45.33386" lon="5.83868">
        <ele>968.18481445312</ele>
        <time>2011-06-04T06:12:55Z</time>
      </trkpt>
      <trkpt lat="45.33372" lon="5.83896">
        <ele>964.8203125</ele>
        <time>2011-06-04T06:13:03Z</time>
      </trkpt>
      <trkpt lat="45.33369" lon="5.83909">
        <ele>961.45581054688</ele>
        <time>2011-06-04T06:13:07Z</time>
      </trkpt>
      <trkpt lat="45.33364" lon="5.8392">
        <ele>960.49438476562</ele>
        <time>2011-06-04T06:13:11Z</time>
      </trkpt>
      <trkpt lat="45.3336" lon="5.83933">
        <ele>961.9365234375</ele>
        <time>2011-06-04T06:13:15Z</time>
      </trkpt>
      <trkpt lat="45.3336" lon="5.83948">
        <ele>960.97509765625</ele>
        <time>2011-06-04T06:13:19Z</time>
      </trkpt>
      <trkpt lat="45.33355" lon="5.83962">
        <ele>960.49438476562</ele>
        <time>2011-06-04T06:13:23Z</time>
      </trkpt>
      <trkpt lat="45.3335" lon="5.83977">
        <ele>961.9365234375</ele>
        <time>2011-06-04T06:13:27Z</time>
      </trkpt>
      <trkpt lat="45.33347" lon="5.83981">
        <ele>962.89770507812</ele>
        <time>2011-06-04T06:13:28Z</time>
      </trkpt>
      <trkpt lat="45.33343" lon="5.83996">
        <ele>964.33959960938</ele>
        <time>2011-06-04T06:13:33Z</time>
      </trkpt>
      <trkpt lat="45.33337" lon="5.84006">
        <ele>964.8203125</ele>
        <time>2011-06-04T06:13:36Z</time>
      </trkpt>
      <trkpt lat="45.33328" lon="5.84028">
        <ele>961.9365234375</ele>
        <time>2011-06-04T06:13:43Z</time>
      </trkpt>
      <trkpt lat="45.33316" lon="5.84048">
        <ele>963.37841796875</ele>
        <time>2011-06-04T06:13:49Z</time>
      </trkpt>
      <trkpt lat="45.33302" lon="5.84062">
        <ele>965.78173828125</ele>
        <time>2011-06-04T06:13:54Z</time>
      </trkpt>
      <trkpt lat="45.33299" lon="5.84076">
        <ele>964.33959960938</ele>
        <time>2011-06-04T06:13:58Z</time>
      </trkpt>
      <trkpt lat="45.33296" lon="5.84095">
        <ele>964.33959960938</ele>
        <time>2011-06-04T06:14:03Z</time>
      </trkpt>
      <trkpt lat="45.333" lon="5.84113">
        <ele>962.4169921875</ele>
        <time>2011-06-04T06:14:08Z</time>
      </trkpt>
      <trkpt lat="45.33302" lon="5.84123">
        <ele>963.85888671875</ele>
        <time>2011-06-04T06:14:11Z</time>
      </trkpt>
      <trkpt lat="45.33307" lon="5.84141">
        <ele>968.18481445312</ele>
        <time>2011-06-04T06:14:17Z</time>
      </trkpt>
      <trkpt lat="45.33308" lon="5.84163">
        <ele>972.0302734375</ele>
        <time>2011-06-04T06:14:23Z</time>
      </trkpt>
      <trkpt lat="45.33307" lon="5.84179">
        <ele>970.58813476562</ele>
        <time>2011-06-04T06:14:28Z</time>
      </trkpt>
      <trkpt lat="45.33304" lon="5.84193">
        <ele>969.14624023438</ele>
        <time>2011-06-04T06:14:33Z</time>
      </trkpt>
      <trkpt lat="45.33294" lon="5.84206">
        <ele>969.14624023438</ele>
        <time>2011-06-04T06:14:38Z</time>
      </trkpt>
      <trkpt lat="45.33284" lon="5.84217">
        <ele>969.14624023438</ele>
        <time>2011-06-04T06:14:43Z</time>
      </trkpt>
      <trkpt lat="45.33276" lon="5.8423">
        <ele>968.66552734375</ele>
        <time>2011-06-04T06:14:48Z</time>
      </trkpt>
      <trkpt lat="45.33272" lon="5.84235">
        <ele>969.14624023438</ele>
        <time>2011-06-04T06:14:52Z</time>
      </trkpt>
      <trkpt lat="45.33269" lon="5.8424">
        <ele>972.51098632812</ele>
        <time>2011-06-04T06:14:58Z</time>
      </trkpt>
      <trkpt lat="45.33265" lon="5.84242">
        <ele>975.39477539062</ele>
        <time>2011-06-04T06:15:02Z</time>
      </trkpt>
      <trkpt lat="45.33258" lon="5.84246">
        <ele>976.8369140625</ele>
        <time>2011-06-04T06:15:06Z</time>
      </trkpt>
      <trkpt lat="45.33252" lon="5.84248">
        <ele>975.87548828125</ele>
        <time>2011-06-04T06:15:10Z</time>
      </trkpt>
      <trkpt lat="45.33242" lon="5.8425">
        <ele>977.79809570312</ele>
        <time>2011-06-04T06:15:16Z</time>
      </trkpt>
      <trkpt lat="45.33233" lon="5.84249">
        <ele>982.1240234375</ele>
        <time>2011-06-04T06:15:22Z</time>
      </trkpt>
      <trkpt lat="45.33224" lon="5.84247">
        <ele>987.89184570312</ele>
        <time>2011-06-04T06:15:29Z</time>
      </trkpt>
      <trkpt lat="45.33216" lon="5.84246">
        <ele>984.04663085938</ele>
        <time>2011-06-04T06:15:35Z</time>
      </trkpt>
      <trkpt lat="45.33207" lon="5.84247">
        <ele>978.27880859375</ele>
        <time>2011-06-04T06:15:43Z</time>
      </trkpt>
      <trkpt lat="45.33201" lon="5.84249">
        <ele>976.8369140625</ele>
        <time>2011-06-04T06:15:48Z</time>
      </trkpt>
      <trkpt lat="45.3319" lon="5.84253">
        <ele>985.00805664062</ele>
        <time>2011-06-04T06:15:54Z</time>
      </trkpt>
      <trkpt lat="45.33181" lon="5.84257">
        <ele>991.7373046875</ele>
        <time>2011-06-04T06:15:59Z</time>
      </trkpt>
      <trkpt lat="45.33176" lon="5.84257">
        <ele>992.21801757812</ele>
        <time>2011-06-04T06:16:03Z</time>
      </trkpt>
      <trkpt lat="45.33168" lon="5.84259">
        <ele>994.62109375</ele>
        <time>2011-06-04T06:16:10Z</time>
      </trkpt>
      <trkpt lat="45.33162" lon="5.84263">
        <ele>997.50512695312</ele>
        <time>2011-06-04T06:16:15Z</time>
      </trkpt>
      <trkpt lat="45.33158" lon="5.84263">
        <ele>993.65991210938</ele>
        <time>2011-06-04T06:16:20Z</time>
      </trkpt>
      <trkpt lat="45.33154" lon="5.84267">
        <ele>995.10180664062</ele>
        <time>2011-06-04T06:16:25Z</time>
      </trkpt>
      <trkpt lat="45.33143" lon="5.84274">
        <ele>997.50512695312</ele>
        <time>2011-06-04T06:16:34Z</time>
      </trkpt>
      <trkpt lat="45.33131" lon="5.84284">
        <ele>1007.1184082031</ele>
        <time>2011-06-04T06:16:43Z</time>
      </trkpt>
      <trkpt lat="45.33125" lon="5.84292">
        <ele>1016.2507324219</ele>
        <time>2011-06-04T06:16:48Z</time>
      </trkpt>
      <trkpt lat="45.33121" lon="5.84297">
        <ele>1015.2895507812</ele>
        <time>2011-06-04T06:16:52Z</time>
      </trkpt>
      <trkpt lat="45.33115" lon="5.84308">
        <ele>1009.041015625</ele>
        <time>2011-06-04T06:17:00Z</time>
      </trkpt>
      <trkpt lat="45.3311" lon="5.8432">
        <ele>1004.7150878906</ele>
        <time>2011-06-04T06:17:08Z</time>
      </trkpt>
      <trkpt lat="45.33109" lon="5.84322">
        <ele>1004.7150878906</ele>
        <time>2011-06-04T06:17:09Z</time>
      </trkpt>
      <trkpt lat="45.33109" lon="5.84329">
        <ele>1001.8310546875</ele>
        <time>2011-06-04T06:17:13Z</time>
      </trkpt>
      <trkpt lat="45.33104" lon="5.84342">
        <ele>1002.3115234375</ele>
        <time>2011-06-04T06:17:20Z</time>
      </trkpt>
      <trkpt lat="45.33102" lon="5.84347">
        <ele>1002.3115234375</ele>
        <time>2011-06-04T06:17:23Z</time>
      </trkpt>
      <trkpt lat="45.331" lon="5.84354">
        <ele>1000.8696289062</ele>
        <time>2011-06-04T06:17:27Z</time>
      </trkpt>
      <trkpt lat="45.33097" lon="5.84359">
        <ele>1000.8696289062</ele>
        <time>2011-06-04T06:17:30Z</time>
      </trkpt>
      <trkpt lat="45.33091" lon="5.84372">
        <ele>1000.3891601562</ele>
        <time>2011-06-04T06:17:38Z</time>
      </trkpt>
      <trkpt lat="45.33089" lon="5.84381">
        <ele>999.427734375</ele>
        <time>2011-06-04T06:17:43Z</time>
      </trkpt>
      <trkpt lat="45.33088" lon="5.84385">
        <ele>998.94702148438</ele>
        <time>2011-06-04T06:17:46Z</time>
      </trkpt>
      <trkpt lat="45.33086" lon="5.84392">
        <ele>999.90844726562</ele>
        <time>2011-06-04T06:17:50Z</time>
      </trkpt>
      <trkpt lat="45.33086" lon="5.84394">
        <ele>999.90844726562</ele>
        <time>2011-06-04T06:17:51Z</time>
      </trkpt>
      <trkpt lat="45.33083" lon="5.84399">
        <ele>1000.8696289062</ele>
        <time>2011-06-04T06:17:54Z</time>
      </trkpt>
      <trkpt lat="45.33081" lon="5.84405">
        <ele>1002.7922363281</ele>
        <time>2011-06-04T06:17:58Z</time>
      </trkpt>
      <trkpt lat="45.33076" lon="5.84411">
        <ele>1005.1958007812</ele>
        <time>2011-06-04T06:18:03Z</time>
      </trkpt>
      <trkpt lat="45.33073" lon="5.84416">
        <ele>1004.7150878906</ele>
        <time>2011-06-04T06:18:07Z</time>
      </trkpt>
      <trkpt lat="45.33068" lon="5.84421">
        <ele>1005.1958007812</ele>
        <time>2011-06-04T06:18:12Z</time>
      </trkpt>
      <trkpt lat="45.33067" lon="5.84423">
        <ele>1006.6376953125</ele>
        <time>2011-06-04T06:18:14Z</time>
      </trkpt>
      <trkpt lat="45.33058" lon="5.8443">
        <ele>1010.4829101562</ele>
        <time>2011-06-04T06:18:22Z</time>
      </trkpt>
      <trkpt lat="45.3305" lon="5.84435">
        <ele>1013.3669433594</ele>
        <time>2011-06-04T06:18:28Z</time>
      </trkpt>
      <trkpt lat="45.33043" lon="5.84439">
        <ele>1013.3669433594</ele>
        <time>2011-06-04T06:18:35Z</time>
      </trkpt>
      <trkpt lat="45.33035" lon="5.84441">
        <ele>1014.8088378906</ele>
        <time>2011-06-04T06:18:41Z</time>
      </trkpt>
      <trkpt lat="45.33026" lon="5.84447">
        <ele>1022.0187988281</ele>
        <time>2011-06-04T06:18:48Z</time>
      </trkpt>
      <trkpt lat="45.33023" lon="5.8445">
        <ele>1024.9028320312</ele>
        <time>2011-06-04T06:18:51Z</time>
      </trkpt>
      <trkpt lat="45.33018" lon="5.84455">
        <ele>1024.9028320312</ele>
        <time>2011-06-04T06:18:57Z</time>
      </trkpt>
      <trkpt lat="45.33014" lon="5.84465">
        <ele>1024.9028320312</ele>
        <time>2011-06-04T06:19:04Z</time>
      </trkpt>
      <trkpt lat="45.3301" lon="5.84474">
        <ele>1025.3833007812</ele>
        <time>2011-06-04T06:19:11Z</time>
      </trkpt>
      <trkpt lat="45.33006" lon="5.84487">
        <ele>1024.9028320312</ele>
        <time>2011-06-04T06:19:19Z</time>
      </trkpt>
      <trkpt lat="45.32998" lon="5.845">
        <ele>1029.7092285156</ele>
        <time>2011-06-04T06:19:28Z</time>
      </trkpt>
      <trkpt lat="45.32993" lon="5.84505">
        <ele>1035.4770507812</ele>
        <time>2011-06-04T06:19:31Z</time>
      </trkpt>
      <trkpt lat="45.32991" lon="5.84511">
        <ele>1035.9577636719</ele>
        <time>2011-06-04T06:19:35Z</time>
      </trkpt>
      <trkpt lat="45.32989" lon="5.84514">
        <ele>1037.3999023438</ele>
        <time>2011-06-04T06:19:37Z</time>
      </trkpt>
      <trkpt lat="45.32986" lon="5.84525">
        <ele>1038.8420410156</ele>
        <time>2011-06-04T06:19:44Z</time>
      </trkpt>
      <trkpt lat="45.32981" lon="5.84532">
        <ele>1040.7644042969</ele>
        <time>2011-06-04T06:19:49Z</time>
      </trkpt>
      <trkpt lat="45.32977" lon="5.84541">
        <ele>1045.5710449219</ele>
        <time>2011-06-04T06:19:55Z</time>
      </trkpt>
      <trkpt lat="45.32973" lon="5.84545">
        <ele>1053.7424316406</ele>
        <time>2011-06-04T06:19:59Z</time>
      </trkpt>
      <trkpt lat="45.32965" lon="5.84544">
        <ele>1065.7587890625</ele>
        <time>2011-06-04T06:20:05Z</time>
      </trkpt>
      <trkpt lat="45.32963" lon="5.84541">
        <ele>1067.2006835938</ele>
        <time>2011-06-04T06:20:08Z</time>
      </trkpt>
      <trkpt lat="45.32963" lon="5.84532">
        <ele>1068.6428222656</ele>
        <time>2011-06-04T06:20:12Z</time>
      </trkpt>
      <trkpt lat="45.32966" lon="5.84515">
        <ele>1078.7365722656</ele>
        <time>2011-06-04T06:20:20Z</time>
      </trkpt>
      <trkpt lat="45.32964" lon="5.84506">
        <ele>1069.1235351562</ele>
        <time>2011-06-04T06:20:25Z</time>
      </trkpt>
      <trkpt lat="45.32962" lon="5.84495">
        <ele>1059.0295410156</ele>
        <time>2011-06-04T06:20:31Z</time>
      </trkpt>
      <trkpt lat="45.32961" lon="5.84488">
        <ele>1053.7424316406</ele>
        <time>2011-06-04T06:20:35Z</time>
      </trkpt>
      <trkpt lat="45.32956" lon="5.84477">
        <ele>1051.8195800781</ele>
        <time>2011-06-04T06:20:41Z</time>
      </trkpt>
      <trkpt lat="45.32954" lon="5.84464">
        <ele>1049.4162597656</ele>
        <time>2011-06-04T06:20:48Z</time>
      </trkpt>
      <trkpt lat="45.32953" lon="5.84449">
        <ele>1047.0129394531</ele>
        <time>2011-06-04T06:20:56Z</time>
      </trkpt>
      <trkpt lat="45.32955" lon="5.84438">
        <ele>1046.0517578125</ele>
        <time>2011-06-04T06:21:02Z</time>
      </trkpt>
      <trkpt lat="45.32955" lon="5.84427">
        <ele>1049.4162597656</ele>
        <time>2011-06-04T06:21:09Z</time>
      </trkpt>
      <trkpt lat="45.32954" lon="5.8442">
        <ele>1050.8581542969</ele>
        <time>2011-06-04T06:21:14Z</time>
      </trkpt>
      <trkpt lat="45.32954" lon="5.84409">
        <ele>1049.4162597656</ele>
        <time>2011-06-04T06:21:20Z</time>
      </trkpt>
      <trkpt lat="45.32951" lon="5.84395">
        <ele>1048.935546875</ele>
        <time>2011-06-04T06:21:28Z</time>
      </trkpt>
      <trkpt lat="45.32951" lon="5.84384">
        <ele>1053.7424316406</ele>
        <time>2011-06-04T06:21:35Z</time>
      </trkpt>
      <trkpt lat="45.32949" lon="5.84377">
        <ele>1056.1455078125</ele>
        <time>2011-06-04T06:21:39Z</time>
      </trkpt>
      <trkpt lat="45.32949" lon="5.84366">
        <ele>1056.1455078125</ele>
        <time>2011-06-04T06:21:45Z</time>
      </trkpt>
      <trkpt lat="45.32952" lon="5.84355">
        <ele>1056.1455078125</ele>
        <time>2011-06-04T06:21:51Z</time>
      </trkpt>
      <trkpt lat="45.32956" lon="5.84351">
        <ele>1057.1069335938</ele>
        <time>2011-06-04T06:21:54Z</time>
      </trkpt>
      <trkpt lat="45.32961" lon="5.84343">
        <ele>1057.1069335938</ele>
        <time>2011-06-04T06:21:59Z</time>
      </trkpt>
      <trkpt lat="45.32964" lon="5.84335">
        <ele>1056.6262207031</ele>
        <time>2011-06-04T06:22:04Z</time>
      </trkpt>
      <trkpt lat="45.32967" lon="5.84327">
        <ele>1058.068359375</ele>
        <time>2011-06-04T06:22:09Z</time>
      </trkpt>
      <trkpt lat="45.32968" lon="5.8432">
        <ele>1060.4714355469</ele>
        <time>2011-06-04T06:22:14Z</time>
      </trkpt>
      <trkpt lat="45.32964" lon="5.84309">
        <ele>1062.8747558594</ele>
        <time>2011-06-04T06:22:20Z</time>
      </trkpt>
      <trkpt lat="45.32965" lon="5.84301">
        <ele>1066.2392578125</ele>
        <time>2011-06-04T06:22:25Z</time>
      </trkpt>
      <trkpt lat="45.32964" lon="5.8429">
        <ele>1066.7199707031</ele>
        <time>2011-06-04T06:22:31Z</time>
      </trkpt>
      <trkpt lat="45.32963" lon="5.84281">
        <ele>1065.7587890625</ele>
        <time>2011-06-04T06:22:36Z</time>
      </trkpt>
      <trkpt lat="45.32964" lon="5.8428">
        <ele>1065.7587890625</ele>
        <time>2011-06-04T06:22:37Z</time>
      </trkpt>
      <trkpt lat="45.32968" lon="5.8427">
        <ele>1067.2006835938</ele>
        <time>2011-06-04T06:22:44Z</time>
      </trkpt>
      <trkpt lat="45.32972" lon="5.8426">
        <ele>1069.6042480469</ele>
        <time>2011-06-04T06:22:50Z</time>
      </trkpt>
      <trkpt lat="45.32974" lon="5.84252">
        <ele>1070.5654296875</ele>
        <time>2011-06-04T06:22:56Z</time>
      </trkpt>
      <trkpt lat="45.32975" lon="5.84242">
        <ele>1072.0073242188</ele>
        <time>2011-06-04T06:23:02Z</time>
      </trkpt>
      <trkpt lat="45.32978" lon="5.84233">
        <ele>1074.4106445312</ele>
        <time>2011-06-04T06:23:09Z</time>
      </trkpt>
      <trkpt lat="45.3298" lon="5.84221">
        <ele>1076.3332519531</ele>
        <time>2011-06-04T06:23:16Z</time>
      </trkpt>
      <trkpt lat="45.32982" lon="5.84215">
        <ele>1077.7751464844</ele>
        <time>2011-06-04T06:23:20Z</time>
      </trkpt>
      <trkpt lat="45.32983" lon="5.84213">
        <ele>1078.255859375</ele>
        <time>2011-06-04T06:23:21Z</time>
      </trkpt>
      <trkpt lat="45.32985" lon="5.84206">
        <ele>1079.2170410156</ele>
        <time>2011-06-04T06:23:26Z</time>
      </trkpt>
      <trkpt lat="45.32988" lon="5.84204">
        <ele>1081.6203613281</ele>
        <time>2011-06-04T06:23:28Z</time>
      </trkpt>
      <trkpt lat="45.32987" lon="5.84194">
        <ele>1084.0239257812</ele>
        <time>2011-06-04T06:23:34Z</time>
      </trkpt>
      <trkpt lat="45.32984" lon="5.84192">
        <ele>1085.4658203125</ele>
        <time>2011-06-04T06:23:38Z</time>
      </trkpt>
      <trkpt lat="45.32977" lon="5.84198">
        <ele>1086.4272460938</ele>
        <time>2011-06-04T06:23:43Z</time>
      </trkpt>
      <trkpt lat="45.32976" lon="5.84199">
        <ele>1086.9077148438</ele>
        <time>2011-06-04T06:23:44Z</time>
      </trkpt>
      <trkpt lat="45.32969" lon="5.8421">
        <ele>1087.869140625</ele>
        <time>2011-06-04T06:23:52Z</time>
      </trkpt>
      <trkpt lat="45.32964" lon="5.84219">
        <ele>1087.869140625</ele>
        <time>2011-06-04T06:23:58Z</time>
      </trkpt>
      <trkpt lat="45.32963" lon="5.84222">
        <ele>1087.869140625</ele>
        <time>2011-06-04T06:24:00Z</time>
      </trkpt>
      <trkpt lat="45.32957" lon="5.84229">
        <ele>1090.2724609375</ele>
        <time>2011-06-04T06:24:05Z</time>
      </trkpt>
      <trkpt lat="45.32951" lon="5.84237">
        <ele>1097.4821777344</ele>
        <time>2011-06-04T06:24:12Z</time>
      </trkpt>
      <trkpt lat="45.32947" lon="5.84243">
        <ele>1099.4047851562</ele>
        <time>2011-06-04T06:24:17Z</time>
      </trkpt>
      <trkpt lat="45.32942" lon="5.8425">
        <ele>1101.3276367188</ele>
        <time>2011-06-04T06:24:23Z</time>
      </trkpt>
      <trkpt lat="45.32936" lon="5.8426">
        <ele>1104.2116699219</ele>
        <time>2011-06-04T06:24:30Z</time>
      </trkpt>
      <trkpt lat="45.32936" lon="5.84263">
        <ele>1103.7309570312</ele>
        <time>2011-06-04T06:24:32Z</time>
      </trkpt>
      <trkpt lat="45.3293" lon="5.84269">
        <ele>1109.9792480469</ele>
        <time>2011-06-04T06:24:36Z</time>
      </trkpt>
      <trkpt lat="45.32925" lon="5.84278">
        <ele>1112.86328125</ele>
        <time>2011-06-04T06:24:42Z</time>
      </trkpt>
      <trkpt lat="45.32924" lon="5.8428">
        <ele>1113.8244628906</ele>
        <time>2011-06-04T06:24:43Z</time>
      </trkpt>
      <trkpt lat="45.32915" lon="5.8429">
        <ele>1119.1120605469</ele>
        <time>2011-06-04T06:24:50Z</time>
      </trkpt>
      <trkpt lat="45.32914" lon="5.84291">
        <ele>1121.0346679688</ele>
        <time>2011-06-04T06:24:51Z</time>
      </trkpt>
      <trkpt lat="45.32907" lon="5.843">
        <ele>1125.3603515625</ele>
        <time>2011-06-04T06:24:58Z</time>
      </trkpt>
      <trkpt lat="45.32903" lon="5.84305">
        <ele>1127.283203125</ele>
        <time>2011-06-04T06:25:03Z</time>
      </trkpt>
      <trkpt lat="45.32903" lon="5.84308">
        <ele>1122.4765625</ele>
        <time>2011-06-04T06:25:07Z</time>
      </trkpt>
      <trkpt lat="45.32902" lon="5.8431">
        <ele>1118.6313476562</ele>
        <time>2011-06-04T06:25:11Z</time>
      </trkpt>
      <trkpt lat="45.32898" lon="5.84315">
        <ele>1119.5927734375</ele>
        <time>2011-06-04T06:25:17Z</time>
      </trkpt>
      <trkpt lat="45.32889" lon="5.84323">
        <ele>1120.0732421875</ele>
        <time>2011-06-04T06:25:24Z</time>
      </trkpt>
      <trkpt lat="45.32886" lon="5.84328">
        <ele>1119.1120605469</ele>
        <time>2011-06-04T06:25:29Z</time>
      </trkpt>
      <trkpt lat="45.32882" lon="5.84333">
        <ele>1122.4765625</ele>
        <time>2011-06-04T06:25:33Z</time>
      </trkpt>
      <trkpt lat="45.32879" lon="5.84337">
        <ele>1120.5539550781</ele>
        <time>2011-06-04T06:25:37Z</time>
      </trkpt>
      <trkpt lat="45.32875" lon="5.84345">
        <ele>1121.5151367188</ele>
        <time>2011-06-04T06:25:42Z</time>
      </trkpt>
      <trkpt lat="45.32873" lon="5.84351">
        <ele>1119.5927734375</ele>
        <time>2011-06-04T06:25:48Z</time>
      </trkpt>
      <trkpt lat="45.32871" lon="5.84355">
        <ele>1119.5927734375</ele>
        <time>2011-06-04T06:25:51Z</time>
      </trkpt>
      <trkpt lat="45.32866" lon="5.84362">
        <ele>1125.8410644531</ele>
        <time>2011-06-04T06:25:55Z</time>
      </trkpt>
      <trkpt lat="45.3286" lon="5.8437">
        <ele>1134.0124511719</ele>
        <time>2011-06-04T06:26:00Z</time>
      </trkpt>
      <trkpt lat="45.32853" lon="5.84376">
        <ele>1140.2609863281</ele>
        <time>2011-06-04T06:26:06Z</time>
      </trkpt>
      <trkpt lat="45.32849" lon="5.84382">
        <ele>1141.7028808594</ele>
        <time>2011-06-04T06:26:11Z</time>
      </trkpt>
      <trkpt lat="45.32842" lon="5.84386">
        <ele>1142.6643066406</ele>
        <time>2011-06-04T06:26:16Z</time>
      </trkpt>
      <trkpt lat="45.32838" lon="5.84393">
        <ele>1143.1447753906</ele>
        <time>2011-06-04T06:26:23Z</time>
      </trkpt>
      <trkpt lat="45.32836" lon="5.84394">
        <ele>1137.8576660156</ele>
        <time>2011-06-04T06:26:27Z</time>
      </trkpt>
      <trkpt lat="45.32832" lon="5.84395">
        <ele>1137.376953125</ele>
        <time>2011-06-04T06:26:32Z</time>
      </trkpt>
      <trkpt lat="45.32823" lon="5.844">
        <ele>1141.7028808594</ele>
        <time>2011-06-04T06:26:37Z</time>
      </trkpt>
      <trkpt lat="45.32818" lon="5.84403">
        <ele>1142.6643066406</ele>
        <time>2011-06-04T06:26:41Z</time>
      </trkpt>
      <trkpt lat="45.32808" lon="5.84407">
        <ele>1151.3161621094</ele>
        <time>2011-06-04T06:26:48Z</time>
      </trkpt>
      <trkpt lat="45.32798" lon="5.84411">
        <ele>1158.5258789062</ele>
        <time>2011-06-04T06:26:56Z</time>
      </trkpt>
      <trkpt lat="45.32789" lon="5.84417">
        <ele>1169.5812988281</ele>
        <time>2011-06-04T06:27:02Z</time>
      </trkpt>
      <trkpt lat="45.32783" lon="5.8442">
        <ele>1170.0617675781</ele>
        <time>2011-06-04T06:27:09Z</time>
      </trkpt>
      <trkpt lat="45.32779" lon="5.84423">
        <ele>1171.984375</ele>
        <time>2011-06-04T06:27:14Z</time>
      </trkpt>
      <trkpt lat="45.32777" lon="5.84427">
        <ele>1173.4265136719</ele>
        <time>2011-06-04T06:27:17Z</time>
      </trkpt>
      <trkpt lat="45.32774" lon="5.84432">
        <ele>1174.3876953125</ele>
        <time>2011-06-04T06:27:21Z</time>
      </trkpt>
      <trkpt lat="45.32771" lon="5.84439">
        <ele>1169.5812988281</ele>
        <time>2011-06-04T06:27:27Z</time>
      </trkpt>
      <trkpt lat="45.32768" lon="5.84441">
        <ele>1164.7746582031</ele>
        <time>2011-06-04T06:27:31Z</time>
      </trkpt>
      <trkpt lat="45.32764" lon="5.84444">
        <ele>1159.9677734375</ele>
        <time>2011-06-04T06:27:35Z</time>
      </trkpt>
      <trkpt lat="45.32761" lon="5.84447">
        <ele>1159.9677734375</ele>
        <time>2011-06-04T06:27:39Z</time>
      </trkpt>
      <trkpt lat="45.32755" lon="5.84451">
        <ele>1161.890625</ele>
        <time>2011-06-04T06:27:44Z</time>
      </trkpt>
      <trkpt lat="45.3275" lon="5.84459">
        <ele>1162.8518066406</ele>
        <time>2011-06-04T06:27:49Z</time>
      </trkpt>
      <trkpt lat="45.32739" lon="5.84475">
        <ele>1179.1940917969</ele>
        <time>2011-06-04T06:27:57Z</time>
      </trkpt>
      <trkpt lat="45.32733" lon="5.84481">
        <ele>1179.1940917969</ele>
        <time>2011-06-04T06:28:02Z</time>
      </trkpt>
      <trkpt lat="45.32727" lon="5.84485">
        <ele>1175.3488769531</ele>
        <time>2011-06-04T06:28:09Z</time>
      </trkpt>
      <trkpt lat="45.32723" lon="5.84486">
        <ele>1177.2717285156</ele>
        <time>2011-06-04T06:28:12Z</time>
      </trkpt>
      <trkpt lat="45.32718" lon="5.84483">
        <ele>1173.9069824219</ele>
        <time>2011-06-04T06:28:17Z</time>
      </trkpt>
      <trkpt lat="45.32711" lon="5.84476">
        <ele>1171.5036621094</ele>
        <time>2011-06-04T06:28:23Z</time>
      </trkpt>
      <trkpt lat="45.32707" lon="5.84471">
        <ele>1174.8684082031</ele>
        <time>2011-06-04T06:28:28Z</time>
      </trkpt>
      <trkpt lat="45.32705" lon="5.84466">
        <ele>1177.2717285156</ele>
        <time>2011-06-04T06:28:35Z</time>
      </trkpt>
      <trkpt lat="45.32702" lon="5.8446">
        <ele>1175.8295898438</ele>
        <time>2011-06-04T06:28:42Z</time>
      </trkpt>
      <trkpt lat="45.327" lon="5.84453">
        <ele>1173.9069824219</ele>
        <time>2011-06-04T06:28:50Z</time>
      </trkpt>
      <trkpt lat="45.32699" lon="5.8445">
        <ele>1173.9069824219</ele>
        <time>2011-06-04T06:28:53Z</time>
      </trkpt>
      <trkpt lat="45.32697" lon="5.84442">
        <ele>1174.8684082031</ele>
        <time>2011-06-04T06:28:59Z</time>
      </trkpt>
      <trkpt lat="45.32697" lon="5.8444">
        <ele>1174.8684082031</ele>
        <time>2011-06-04T06:29:00Z</time>
      </trkpt>
      <trkpt lat="45.32691" lon="5.84429">
        <ele>1175.8295898438</ele>
        <time>2011-06-04T06:29:07Z</time>
      </trkpt>
      <trkpt lat="45.32681" lon="5.84427">
        <ele>1181.59765625</ele>
        <time>2011-06-04T06:29:13Z</time>
      </trkpt>
      <trkpt lat="45.32675" lon="5.84424">
        <ele>1184.4816894531</ele>
        <time>2011-06-04T06:29:18Z</time>
      </trkpt>
      <trkpt lat="45.32668" lon="5.84424">
        <ele>1190.7299804688</ele>
        <time>2011-06-04T06:29:24Z</time>
      </trkpt>
      <trkpt lat="45.32664" lon="5.84424">
        <ele>1196.4982910156</ele>
        <time>2011-06-04T06:29:27Z</time>
      </trkpt>
      <trkpt lat="45.32658" lon="5.84424">
        <ele>1203.7080078125</ele>
        <time>2011-06-04T06:29:33Z</time>
      </trkpt>
      <trkpt lat="45.32652" lon="5.84424">
        <ele>1210.9177246094</ele>
        <time>2011-06-04T06:29:39Z</time>
      </trkpt>
      <trkpt lat="45.3265" lon="5.84422">
        <ele>1208.9951171875</ele>
        <time>2011-06-04T06:29:41Z</time>
      </trkpt>
      <trkpt lat="45.32644" lon="5.84419">
        <ele>1206.591796875</ele>
        <time>2011-06-04T06:29:47Z</time>
      </trkpt>
      <trkpt lat="45.32638" lon="5.84413">
        <ele>1198.9013671875</ele>
        <time>2011-06-04T06:29:53Z</time>
      </trkpt>
      <trkpt lat="45.32636" lon="5.84409">
        <ele>1195.0559082031</ele>
        <time>2011-06-04T06:29:56Z</time>
      </trkpt>
      <trkpt lat="45.32629" lon="5.84405">
        <ele>1187.3654785156</ele>
        <time>2011-06-04T06:30:03Z</time>
      </trkpt>
      <trkpt lat="45.32623" lon="5.84403">
        <ele>1183.5202636719</ele>
        <time>2011-06-04T06:30:09Z</time>
      </trkpt>
      <trkpt lat="45.32615" lon="5.84405">
        <ele>1186.404296875</ele>
        <time>2011-06-04T06:30:14Z</time>
      </trkpt>
      <trkpt lat="45.32607" lon="5.84405">
        <ele>1187.3654785156</ele>
        <time>2011-06-04T06:30:21Z</time>
      </trkpt>
      <trkpt lat="45.326" lon="5.84405">
        <ele>1189.7687988281</ele>
        <time>2011-06-04T06:30:27Z</time>
      </trkpt>
      <trkpt lat="45.32594" lon="5.84402">
        <ele>1190.2495117188</ele>
        <time>2011-06-04T06:30:33Z</time>
      </trkpt>
      <trkpt lat="45.32588" lon="5.84401">
        <ele>1190.7299804688</ele>
        <time>2011-06-04T06:30:38Z</time>
      </trkpt>
      <trkpt lat="45.32583" lon="5.84402">
        <ele>1194.0947265625</ele>
        <time>2011-06-04T06:30:43Z</time>
      </trkpt>
      <trkpt lat="45.32577" lon="5.84401">
        <ele>1196.4982910156</ele>
        <time>2011-06-04T06:30:49Z</time>
      </trkpt>
      <trkpt lat="45.32572" lon="5.84399">
        <ele>1194.5751953125</ele>
        <time>2011-06-04T06:30:53Z</time>
      </trkpt>
      <trkpt lat="45.32565" lon="5.84399">
        <ele>1199.3820800781</ele>
        <time>2011-06-04T06:30:59Z</time>
      </trkpt>
      <trkpt lat="45.3256" lon="5.84397">
        <ele>1200.3435058594</ele>
        <time>2011-06-04T06:31:03Z</time>
      </trkpt>
      <trkpt lat="45.32555" lon="5.84394">
        <ele>1199.3820800781</ele>
        <time>2011-06-04T06:31:07Z</time>
      </trkpt>
      <trkpt lat="45.3255" lon="5.84394">
        <ele>1202.7465820312</ele>
        <time>2011-06-04T06:31:12Z</time>
      </trkpt>
      <trkpt lat="45.32546" lon="5.84394">
        <ele>1205.1499023438</ele>
        <time>2011-06-04T06:31:17Z</time>
      </trkpt>
      <trkpt lat="45.32538" lon="5.84394">
        <ele>1203.7080078125</ele>
        <time>2011-06-04T06:31:25Z</time>
      </trkpt>
      <trkpt lat="45.32532" lon="5.84399">
        <ele>1211.3984375</ele>
        <time>2011-06-04T06:31:30Z</time>
      </trkpt>
      <trkpt lat="45.32529" lon="5.844">
        <ele>1208.9951171875</ele>
        <time>2011-06-04T06:31:34Z</time>
      </trkpt>
      <trkpt lat="45.32523" lon="5.84398">
        <ele>1205.1499023438</ele>
        <time>2011-06-04T06:31:41Z</time>
      </trkpt>
      <trkpt lat="45.32517" lon="5.844">
        <ele>1207.0725097656</ele>
        <time>2011-06-04T06:31:46Z</time>
      </trkpt>
      <trkpt lat="45.3251" lon="5.84404">
        <ele>1208.0339355469</ele>
        <time>2011-06-04T06:31:52Z</time>
      </trkpt>
      <trkpt lat="45.32507" lon="5.84404">
        <ele>1206.1110839844</ele>
        <time>2011-06-04T06:31:55Z</time>
      </trkpt>
      <trkpt lat="45.32495" lon="5.84411">
        <ele>1206.591796875</ele>
        <time>2011-06-04T06:32:03Z</time>
      </trkpt>
      <trkpt lat="45.3249" lon="5.84417">
        <ele>1217.6469726562</ele>
        <time>2011-06-04T06:32:08Z</time>
      </trkpt>
      <trkpt lat="45.32487" lon="5.8442">
        <ele>1224.3762207031</ele>
        <time>2011-06-04T06:32:11Z</time>
      </trkpt>
      <trkpt lat="45.32479" lon="5.84426">
        <ele>1231.1057128906</ele>
        <time>2011-06-04T06:32:17Z</time>
      </trkpt>
      <trkpt lat="45.32475" lon="5.84431">
        <ele>1234.4702148438</ele>
        <time>2011-06-04T06:32:22Z</time>
      </trkpt>
      <trkpt lat="45.3247" lon="5.84437">
        <ele>1237.3540039062</ele>
        <time>2011-06-04T06:32:27Z</time>
      </trkpt>
      <trkpt lat="45.32467" lon="5.84438">
        <ele>1236.8732910156</ele>
        <time>2011-06-04T06:32:29Z</time>
      </trkpt>
      <trkpt lat="45.32462" lon="5.84442">
        <ele>1231.5861816406</ele>
        <time>2011-06-04T06:32:34Z</time>
      </trkpt>
      <trkpt lat="45.32454" lon="5.84447">
        <ele>1233.0280761719</ele>
        <time>2011-06-04T06:32:38Z</time>
      </trkpt>
      <trkpt lat="45.3245" lon="5.84453">
        <ele>1234.9509277344</ele>
        <time>2011-06-04T06:32:42Z</time>
      </trkpt>
      <trkpt lat="45.32442" lon="5.84461">
        <ele>1236.3928222656</ele>
        <time>2011-06-04T06:32:48Z</time>
      </trkpt>
      <trkpt lat="45.32438" lon="5.84466">
        <ele>1233.9895019531</ele>
        <time>2011-06-04T06:32:53Z</time>
      </trkpt>
      <trkpt lat="45.32434" lon="5.84469">
        <ele>1233.0280761719</ele>
        <time>2011-06-04T06:32:57Z</time>
      </trkpt>
      <trkpt lat="45.32425" lon="5.84478">
        <ele>1231.5861816406</ele>
        <time>2011-06-04T06:33:04Z</time>
      </trkpt>
      <trkpt lat="45.32415" lon="5.84487">
        <ele>1241.19921875</ele>
        <time>2011-06-04T06:33:11Z</time>
      </trkpt>
      <trkpt lat="45.3241" lon="5.84489">
        <ele>1247.4479980469</ele>
        <time>2011-06-04T06:33:15Z</time>
      </trkpt>
      <trkpt lat="45.32406" lon="5.84491">
        <ele>1245.0446777344</ele>
        <time>2011-06-04T06:33:19Z</time>
      </trkpt>
      <trkpt lat="45.32402" lon="5.84491">
        <ele>1239.2766113281</ele>
        <time>2011-06-04T06:33:24Z</time>
      </trkpt>
      <trkpt lat="45.32397" lon="5.84493">
        <ele>1239.7573242188</ele>
        <time>2011-06-04T06:33:29Z</time>
      </trkpt>
      <trkpt lat="45.32393" lon="5.845">
        <ele>1248.4091796875</ele>
        <time>2011-06-04T06:33:38Z</time>
      </trkpt>
      <trkpt lat="45.32389" lon="5.84502">
        <ele>1248.4091796875</ele>
        <time>2011-06-04T06:33:42Z</time>
      </trkpt>
      <trkpt lat="45.32383" lon="5.84505">
        <ele>1250.33203125</ele>
        <time>2011-06-04T06:33:48Z</time>
      </trkpt>
      <trkpt lat="45.32378" lon="5.84507">
        <ele>1252.2543945312</ele>
        <time>2011-06-04T06:33:53Z</time>
      </trkpt>
      <trkpt lat="45.32373" lon="5.84507">
        <ele>1255.1384277344</ele>
        <time>2011-06-04T06:33:56Z</time>
      </trkpt>
      <trkpt lat="45.3237" lon="5.84509">
        <ele>1256.099609375</ele>
        <time>2011-06-04T06:33:59Z</time>
      </trkpt>
      <trkpt lat="45.32367" lon="5.8451">
        <ele>1258.5029296875</ele>
        <time>2011-06-04T06:34:03Z</time>
      </trkpt>
      <trkpt lat="45.32359" lon="5.84512">
        <ele>1266.6743164062</ele>
        <time>2011-06-04T06:34:10Z</time>
      </trkpt>
      <trkpt lat="45.32357" lon="5.8451">
        <ele>1264.7517089844</ele>
        <time>2011-06-04T06:34:14Z</time>
      </trkpt>
      <trkpt lat="45.32354" lon="5.84511">
        <ele>1269.0776367188</ele>
        <time>2011-06-04T06:34:18Z</time>
      </trkpt>
      <trkpt lat="45.32347" lon="5.84512">
        <ele>1274.8454589844</ele>
        <time>2011-06-04T06:34:24Z</time>
      </trkpt>
      <trkpt lat="45.32344" lon="5.84509">
        <ele>1273.8840332031</ele>
        <time>2011-06-04T06:34:28Z</time>
      </trkpt>
      <trkpt lat="45.32341" lon="5.84505">
        <ele>1268.5969238281</ele>
        <time>2011-06-04T06:34:33Z</time>
      </trkpt>
      <trkpt lat="45.32338" lon="5.845">
        <ele>1264.7517089844</ele>
        <time>2011-06-04T06:34:39Z</time>
      </trkpt>
      <trkpt lat="45.32336" lon="5.84498">
        <ele>1263.3098144531</ele>
        <time>2011-06-04T06:34:44Z</time>
      </trkpt>
      <trkpt lat="45.32335" lon="5.84496">
        <ele>1260.9064941406</ele>
        <time>2011-06-04T06:34:48Z</time>
      </trkpt>
      <trkpt lat="45.32318" lon="5.84496">
        <ele>1268.5969238281</ele>
        <time>2011-06-04T06:35:04Z</time>
      </trkpt>
      <trkpt lat="45.32315" lon="5.84497">
        <ele>1271.4807128906</ele>
        <time>2011-06-04T06:35:09Z</time>
      </trkpt>
      <trkpt lat="45.32311" lon="5.84496">
        <ele>1270.51953125</ele>
        <time>2011-06-04T06:35:13Z</time>
      </trkpt>
      <trkpt lat="45.32306" lon="5.84497">
        <ele>1271.4807128906</ele>
        <time>2011-06-04T06:35:17Z</time>
      </trkpt>
      <trkpt lat="45.32301" lon="5.84497">
        <ele>1270.51953125</ele>
        <time>2011-06-04T06:35:23Z</time>
      </trkpt>
      <trkpt lat="45.32295" lon="5.84498">
        <ele>1273.8840332031</ele>
        <time>2011-06-04T06:35:27Z</time>
      </trkpt>
      <trkpt lat="45.32283" lon="5.84501">
        <ele>1278.6909179688</ele>
        <time>2011-06-04T06:35:34Z</time>
      </trkpt>
      <trkpt lat="45.32273" lon="5.84503">
        <ele>1281.5747070312</ele>
        <time>2011-06-04T06:35:40Z</time>
      </trkpt>
      <trkpt lat="45.32269" lon="5.84504">
        <ele>1281.5747070312</ele>
        <time>2011-06-04T06:35:44Z</time>
      </trkpt>
      <trkpt lat="45.32263" lon="5.84504">
        <ele>1280.1328125</ele>
        <time>2011-06-04T06:35:48Z</time>
      </trkpt>
      <trkpt lat="45.3226" lon="5.84504">
        <ele>1281.0942382812</ele>
        <time>2011-06-04T06:35:50Z</time>
      </trkpt>
      <trkpt lat="45.32252" lon="5.845">
        <ele>1279.6520996094</ele>
        <time>2011-06-04T06:35:58Z</time>
      </trkpt>
      <trkpt lat="45.32248" lon="5.845">
        <ele>1280.1328125</ele>
        <time>2011-06-04T06:36:02Z</time>
      </trkpt>
      <trkpt lat="45.32241" lon="5.845">
        <ele>1283.4973144531</ele>
        <time>2011-06-04T06:36:08Z</time>
      </trkpt>
      <trkpt lat="45.32237" lon="5.84499">
        <ele>1283.9780273438</ele>
        <time>2011-06-04T06:36:13Z</time>
      </trkpt>
      <trkpt lat="45.32233" lon="5.84498">
        <ele>1284.4587402344</ele>
        <time>2011-06-04T06:36:17Z</time>
      </trkpt>
      <trkpt lat="45.32227" lon="5.84496">
        <ele>1285.419921875</ele>
        <time>2011-06-04T06:36:21Z</time>
      </trkpt>
      <trkpt lat="45.32225" lon="5.84493">
        <ele>1283.9780273438</ele>
        <time>2011-06-04T06:36:25Z</time>
      </trkpt>
      <trkpt lat="45.32215" lon="5.84492">
        <ele>1289.2651367188</ele>
        <time>2011-06-04T06:36:36Z</time>
      </trkpt>
      <trkpt lat="45.32212" lon="5.84492">
        <ele>1288.7846679688</ele>
        <time>2011-06-04T06:36:40Z</time>
      </trkpt>
      <trkpt lat="45.3221" lon="5.84493">
        <ele>1287.3425292969</ele>
        <time>2011-06-04T06:36:45Z</time>
      </trkpt>
      <trkpt lat="45.32207" lon="5.84495">
        <ele>1286.3813476562</ele>
        <time>2011-06-04T06:36:50Z</time>
      </trkpt>
      <trkpt lat="45.32199" lon="5.84499">
        <ele>1294.5524902344</ele>
        <time>2011-06-04T06:36:55Z</time>
      </trkpt>
      <trkpt lat="45.32196" lon="5.845">
        <ele>1296.9558105469</ele>
        <time>2011-06-04T06:36:58Z</time>
      </trkpt>
      <trkpt lat="45.3219" lon="5.84502">
        <ele>1298.8784179688</ele>
        <time>2011-06-04T06:37:06Z</time>
      </trkpt>
      <trkpt lat="45.32183" lon="5.84504">
        <ele>1295.5139160156</ele>
        <time>2011-06-04T06:37:15Z</time>
      </trkpt>
      <trkpt lat="45.32184" lon="5.84505">
        <ele>1298.8784179688</ele>
        <time>2011-06-04T06:37:24Z</time>
      </trkpt>
      <trkpt lat="45.32177" lon="5.84506">
        <ele>1298.3977050781</ele>
        <time>2011-06-04T06:37:28Z</time>
      </trkpt>
      <trkpt lat="45.32171" lon="5.84507">
        <ele>1295.9946289062</ele>
        <time>2011-06-04T06:37:34Z</time>
      </trkpt>
      <trkpt lat="45.32164" lon="5.84507">
        <ele>1294.0720214844</ele>
        <time>2011-06-04T06:37:41Z</time>
      </trkpt>
      <trkpt lat="45.32163" lon="5.84508">
        <ele>1298.3977050781</ele>
        <time>2011-06-04T06:37:45Z</time>
      </trkpt>
      <trkpt lat="45.32157" lon="5.84508">
        <ele>1308.4916992188</ele>
        <time>2011-06-04T06:37:53Z</time>
      </trkpt>
      <trkpt lat="45.32154" lon="5.84509">
        <ele>1312.8176269531</ele>
        <time>2011-06-04T06:37:57Z</time>
      </trkpt>
      <trkpt lat="45.32151" lon="5.84508">
        <ele>1317.1435546875</ele>
        <time>2011-06-04T06:38:02Z</time>
      </trkpt>
      <trkpt lat="45.32148" lon="5.84508">
        <ele>1313.7788085938</ele>
        <time>2011-06-04T06:38:06Z</time>
      </trkpt>
      <trkpt lat="45.32137" lon="5.84509">
        <ele>1309.453125</ele>
        <time>2011-06-04T06:38:11Z</time>
      </trkpt>
      <trkpt lat="45.32133" lon="5.84508">
        <ele>1312.3369140625</ele>
        <time>2011-06-04T06:38:16Z</time>
      </trkpt>
      <trkpt lat="45.32128" lon="5.84509">
        <ele>1309.93359375</ele>
        <time>2011-06-04T06:38:21Z</time>
      </trkpt>
      <trkpt lat="45.32121" lon="5.84508">
        <ele>1303.2043457031</ele>
        <time>2011-06-04T06:38:26Z</time>
      </trkpt>
      <trkpt lat="45.32119" lon="5.84508">
        <ele>1303.2043457031</ele>
        <time>2011-06-04T06:38:29Z</time>
      </trkpt>
      <trkpt lat="45.3211" lon="5.84509">
        <ele>1307.5302734375</ele>
        <time>2011-06-04T06:38:35Z</time>
      </trkpt>
      <trkpt lat="45.32105" lon="5.8451">
        <ele>1311.8564453125</ele>
        <time>2011-06-04T06:38:39Z</time>
      </trkpt>
      <trkpt lat="45.32098" lon="5.8451">
        <ele>1314.2595214844</ele>
        <time>2011-06-04T06:38:44Z</time>
      </trkpt>
      <trkpt lat="45.32095" lon="5.84509">
        <ele>1314.740234375</ele>
        <time>2011-06-04T06:38:49Z</time>
      </trkpt>
      <trkpt lat="45.32092" lon="5.84505">
        <ele>1313.7788085938</ele>
        <time>2011-06-04T06:38:54Z</time>
      </trkpt>
      <trkpt lat="45.32089" lon="5.84498">
        <ele>1310.4143066406</ele>
        <time>2011-06-04T06:39:00Z</time>
      </trkpt>
      <trkpt lat="45.32086" lon="5.84494">
        <ele>1313.7788085938</ele>
        <time>2011-06-04T06:39:04Z</time>
      </trkpt>
      <trkpt lat="45.32083" lon="5.84493">
        <ele>1316.6628417969</ele>
        <time>2011-06-04T06:39:06Z</time>
      </trkpt>
      <trkpt lat="45.32078" lon="5.8449">
        <ele>1320.02734375</ele>
        <time>2011-06-04T06:39:11Z</time>
      </trkpt>
      <trkpt lat="45.32076" lon="5.84487">
        <ele>1325.7954101562</ele>
        <time>2011-06-04T06:39:15Z</time>
      </trkpt>
      <trkpt lat="45.32073" lon="5.84485">
        <ele>1327.7180175781</ele>
        <time>2011-06-04T06:39:20Z</time>
      </trkpt>
      <trkpt lat="45.32067" lon="5.84484">
        <ele>1334.447265625</ele>
        <time>2011-06-04T06:39:25Z</time>
      </trkpt>
      <trkpt lat="45.32058" lon="5.84482">
        <ele>1335.8891601562</ele>
        <time>2011-06-04T06:39:30Z</time>
      </trkpt>
      <trkpt lat="45.32053" lon="5.84481">
        <ele>1338.2924804688</ele>
        <time>2011-06-04T06:39:34Z</time>
      </trkpt>
      <trkpt lat="45.32046" lon="5.8448">
        <ele>1345.0217285156</ele>
        <time>2011-06-04T06:39:41Z</time>
      </trkpt>
      <trkpt lat="45.3204" lon="5.84478">
        <ele>1348.8669433594</ele>
        <time>2011-06-04T06:39:46Z</time>
      </trkpt>
      <trkpt lat="45.32033" lon="5.84476">
        <ele>1349.34765625</ele>
        <time>2011-06-04T06:39:52Z</time>
      </trkpt>
      <trkpt lat="45.32031" lon="5.84475">
        <ele>1346.4638671875</ele>
        <time>2011-06-04T06:39:54Z</time>
      </trkpt>
      <trkpt lat="45.32025" lon="5.84474">
        <ele>1344.060546875</ele>
        <time>2011-06-04T06:40:01Z</time>
      </trkpt>
      <trkpt lat="45.32018" lon="5.84479">
        <ele>1348.3862304688</ele>
        <time>2011-06-04T06:40:06Z</time>
      </trkpt>
      <trkpt lat="45.32016" lon="5.84479">
        <ele>1347.4250488281</ele>
        <time>2011-06-04T06:40:08Z</time>
      </trkpt>
      <trkpt lat="45.3201" lon="5.84475">
        <ele>1347.9057617188</ele>
        <time>2011-06-04T06:40:15Z</time>
      </trkpt>
      <trkpt lat="45.32005" lon="5.84475">
        <ele>1353.1928710938</ele>
        <time>2011-06-04T06:40:20Z</time>
      </trkpt>
      <trkpt lat="45.32001" lon="5.84474">
        <ele>1358.9609375</ele>
        <time>2011-06-04T06:40:24Z</time>
      </trkpt>
      <trkpt lat="45.31993" lon="5.8447">
        <ele>1358.9609375</ele>
        <time>2011-06-04T06:40:30Z</time>
      </trkpt>
      <trkpt lat="45.31988" lon="5.8447">
        <ele>1359.4416503906</ele>
        <time>2011-06-04T06:40:34Z</time>
      </trkpt>
      <trkpt lat="45.31977" lon="5.84467">
        <ele>1359.9221191406</ele>
        <time>2011-06-04T06:40:41Z</time>
      </trkpt>
      <trkpt lat="45.31976" lon="5.84466">
        <ele>1357.9997558594</ele>
        <time>2011-06-04T06:40:42Z</time>
      </trkpt>
      <trkpt lat="45.31965" lon="5.84463">
        <ele>1356.5576171875</ele>
        <time>2011-06-04T06:40:49Z</time>
      </trkpt>
      <trkpt lat="45.31958" lon="5.8446">
        <ele>1353.6735839844</ele>
        <time>2011-06-04T06:40:54Z</time>
      </trkpt>
      <trkpt lat="45.31949" lon="5.84459">
        <ele>1354.154296875</ele>
        <time>2011-06-04T06:41:00Z</time>
      </trkpt>
      <trkpt lat="45.3194" lon="5.84461">
        <ele>1357.9997558594</ele>
        <time>2011-06-04T06:41:05Z</time>
      </trkpt>
      <trkpt lat="45.31935" lon="5.84462">
        <ele>1361.3642578125</ele>
        <time>2011-06-04T06:41:09Z</time>
      </trkpt>
      <trkpt lat="45.31933" lon="5.84463">
        <ele>1362.8061523438</ele>
        <time>2011-06-04T06:41:10Z</time>
      </trkpt>
      <trkpt lat="45.31925" lon="5.84463">
        <ele>1368.5739746094</ele>
        <time>2011-06-04T06:41:14Z</time>
      </trkpt>
      <trkpt lat="45.31919" lon="5.84463">
        <ele>1370.9772949219</ele>
        <time>2011-06-04T06:41:19Z</time>
      </trkpt>
      <trkpt lat="45.31908" lon="5.84457">
        <ele>1371.9384765625</ele>
        <time>2011-06-04T06:41:27Z</time>
      </trkpt>
      <trkpt lat="45.31905" lon="5.84454">
        <ele>1370.4965820312</ele>
        <time>2011-06-04T06:41:33Z</time>
      </trkpt>
      <trkpt lat="45.319" lon="5.84448">
        <ele>1361.8449707031</ele>
        <time>2011-06-04T06:41:39Z</time>
      </trkpt>
      <trkpt lat="45.31893" lon="5.84447">
        <ele>1361.3642578125</ele>
        <time>2011-06-04T06:41:45Z</time>
      </trkpt>
      <trkpt lat="45.31892" lon="5.84445">
        <ele>1358.9609375</ele>
        <time>2011-06-04T06:41:47Z</time>
      </trkpt>
      <trkpt lat="45.31887" lon="5.84444">
        <ele>1359.4416503906</ele>
        <time>2011-06-04T06:41:53Z</time>
      </trkpt>
      <trkpt lat="45.31884" lon="5.84442">
        <ele>1357.5190429688</ele>
        <time>2011-06-04T06:41:56Z</time>
      </trkpt>
      <trkpt lat="45.31879" lon="5.8444">
        <ele>1357.9997558594</ele>
        <time>2011-06-04T06:42:00Z</time>
      </trkpt>
      <trkpt lat="45.31876" lon="5.84441">
        <ele>1359.9221191406</ele>
        <time>2011-06-04T06:42:04Z</time>
      </trkpt>
      <trkpt lat="45.31874" lon="5.84438">
        <ele>1361.8449707031</ele>
        <time>2011-06-04T06:42:09Z</time>
      </trkpt>
      <trkpt lat="45.31871" lon="5.84437">
        <ele>1362.8061523438</ele>
        <time>2011-06-04T06:42:13Z</time>
      </trkpt>
      <trkpt lat="45.31865" lon="5.84436">
        <ele>1367.1320800781</ele>
        <time>2011-06-04T06:42:18Z</time>
      </trkpt>
      <trkpt lat="45.31862" lon="5.84432">
        <ele>1368.0932617188</ele>
        <time>2011-06-04T06:42:23Z</time>
      </trkpt>
      <trkpt lat="45.31857" lon="5.84426">
        <ele>1367.6125488281</ele>
        <time>2011-06-04T06:42:28Z</time>
      </trkpt>
      <trkpt lat="45.31852" lon="5.84421">
        <ele>1370.0158691406</ele>
        <time>2011-06-04T06:42:33Z</time>
      </trkpt>
      <trkpt lat="45.31848" lon="5.84418">
        <ele>1372.4194335938</ele>
        <time>2011-06-04T06:42:37Z</time>
      </trkpt>
      <trkpt lat="45.31842" lon="5.8441">
        <ele>1371.9384765625</ele>
        <time>2011-06-04T06:42:44Z</time>
      </trkpt>
      <trkpt lat="45.31831" lon="5.84407">
        <ele>1376.2646484375</ele>
        <time>2011-06-04T06:42:49Z</time>
      </trkpt>
      <trkpt lat="45.31819" lon="5.84397">
        <ele>1380.5905761719</ele>
        <time>2011-06-04T06:42:55Z</time>
      </trkpt>
      <trkpt lat="45.31811" lon="5.84388">
        <ele>1386.3583984375</ele>
        <time>2011-06-04T06:43:01Z</time>
      </trkpt>
      <trkpt lat="45.318" lon="5.84383">
        <ele>1385.3969726562</ele>
        <time>2011-06-04T06:43:05Z</time>
      </trkpt>
      <trkpt lat="45.31789" lon="5.84383">
        <ele>1386.8388671875</ele>
        <time>2011-06-04T06:43:10Z</time>
      </trkpt>
      <trkpt lat="45.3178" lon="5.84384">
        <ele>1387.3195800781</ele>
        <time>2011-06-04T06:43:15Z</time>
      </trkpt>
      <trkpt lat="45.31779" lon="5.84379">
        <ele>1390.6843261719</ele>
        <time>2011-06-04T06:43:20Z</time>
      </trkpt>
      <trkpt lat="45.31773" lon="5.84372">
        <ele>1389.7231445312</ele>
        <time>2011-06-04T06:43:26Z</time>
      </trkpt>
      <trkpt lat="45.31771" lon="5.8437">
        <ele>1390.6843261719</ele>
        <time>2011-06-04T06:43:30Z</time>
      </trkpt>
      <trkpt lat="45.31767" lon="5.84367">
        <ele>1388.7619628906</ele>
        <time>2011-06-04T06:43:34Z</time>
      </trkpt>
      <trkpt lat="45.31761" lon="5.84367">
        <ele>1388.28125</ele>
        <time>2011-06-04T06:43:36Z</time>
      </trkpt>
      <trkpt lat="45.31747" lon="5.84368">
        <ele>1392.1264648438</ele>
        <time>2011-06-04T06:43:43Z</time>
      </trkpt>
      <trkpt lat="45.31743" lon="5.84367">
        <ele>1402.7006835938</ele>
        <time>2011-06-04T06:43:49Z</time>
      </trkpt>
      <trkpt lat="45.31742" lon="5.84361">
        <ele>1405.1042480469</ele>
        <time>2011-06-04T06:43:53Z</time>
      </trkpt>
      <trkpt lat="45.31739" lon="5.84358">
        <ele>1405.1042480469</ele>
        <time>2011-06-04T06:43:57Z</time>
      </trkpt>
      <trkpt lat="45.31718" lon="5.8436">
        <ele>1390.2038574219</ele>
        <time>2011-06-04T06:44:04Z</time>
      </trkpt>
      <trkpt lat="45.31709" lon="5.84361">
        <ele>1387.8002929688</ele>
        <time>2011-06-04T06:44:11Z</time>
      </trkpt>
      <trkpt lat="45.31705" lon="5.84363">
        <ele>1395.0102539062</ele>
        <time>2011-06-04T06:44:15Z</time>
      </trkpt>
      <trkpt lat="45.31701" lon="5.84365">
        <ele>1399.3361816406</ele>
        <time>2011-06-04T06:44:18Z</time>
      </trkpt>
      <trkpt lat="45.31693" lon="5.84368">
        <ele>1406.0654296875</ele>
        <time>2011-06-04T06:44:24Z</time>
      </trkpt>
      <trkpt lat="45.31686" lon="5.84369">
        <ele>1407.5075683594</ele>
        <time>2011-06-04T06:44:30Z</time>
      </trkpt>
      <trkpt lat="45.31684" lon="5.84364">
        <ele>1402.7006835938</ele>
        <time>2011-06-04T06:44:36Z</time>
      </trkpt>
      <trkpt lat="45.31681" lon="5.84359">
        <ele>1400.2976074219</ele>
        <time>2011-06-04T06:44:41Z</time>
      </trkpt>
      <trkpt lat="45.31675" lon="5.8436">
        <ele>1401.7395019531</ele>
        <time>2011-06-04T06:44:46Z</time>
      </trkpt>
      <trkpt lat="45.31668" lon="5.84361">
        <ele>1405.1042480469</ele>
        <time>2011-06-04T06:44:53Z</time>
      </trkpt>
      <trkpt lat="45.31661" lon="5.84362">
        <ele>1406.5461425781</ele>
        <time>2011-06-04T06:45:00Z</time>
      </trkpt>
      <trkpt lat="45.31655" lon="5.84363">
        <ele>1411.3527832031</ele>
        <time>2011-06-04T06:45:09Z</time>
      </trkpt>
      <trkpt lat="45.3165" lon="5.84365">
        <ele>1411.8334960938</ele>
        <time>2011-06-04T06:45:15Z</time>
      </trkpt>
      <trkpt lat="45.31644" lon="5.84364">
        <ele>1411.3527832031</ele>
        <time>2011-06-04T06:45:22Z</time>
      </trkpt>
      <trkpt lat="45.31641" lon="5.84364">
        <ele>1408.46875</ele>
        <time>2011-06-04T06:45:28Z</time>
      </trkpt>
      <trkpt lat="45.31637" lon="5.84363">
        <ele>1409.4301757812</ele>
        <time>2011-06-04T06:45:37Z</time>
      </trkpt>
      <trkpt lat="45.31634" lon="5.84362">
        <ele>1413.275390625</ele>
        <time>2011-06-04T06:45:41Z</time>
      </trkpt>
      <trkpt lat="45.3163" lon="5.84361">
        <ele>1414.7172851562</ele>
        <time>2011-06-04T06:45:46Z</time>
      </trkpt>
      <trkpt lat="45.31626" lon="5.84361">
        <ele>1416.6398925781</ele>
        <time>2011-06-04T06:45:50Z</time>
      </trkpt>
      <trkpt lat="45.31622" lon="5.8436">
        <ele>1419.5239257812</ele>
        <time>2011-06-04T06:45:56Z</time>
      </trkpt>
      <trkpt lat="45.31618" lon="5.8436">
        <ele>1423.3693847656</ele>
        <time>2011-06-04T06:46:00Z</time>
      </trkpt>
      <trkpt lat="45.31614" lon="5.84359">
        <ele>1426.2531738281</ele>
        <time>2011-06-04T06:46:05Z</time>
      </trkpt>
      <trkpt lat="45.31612" lon="5.84358">
        <ele>1428.6564941406</ele>
        <time>2011-06-04T06:46:09Z</time>
      </trkpt>
      <trkpt lat="45.31609" lon="5.84358">
        <ele>1429.1369628906</ele>
        <time>2011-06-04T06:46:15Z</time>
      </trkpt>
      <trkpt lat="45.31608" lon="5.84352">
        <ele>1421.9272460938</ele>
        <time>2011-06-04T06:46:21Z</time>
      </trkpt>
      <trkpt lat="45.31607" lon="5.84346">
        <ele>1417.1206054688</ele>
        <time>2011-06-04T06:46:26Z</time>
      </trkpt>
      <trkpt lat="45.31605" lon="5.84342">
        <ele>1413.755859375</ele>
        <time>2011-06-04T06:46:33Z</time>
      </trkpt>
      <trkpt lat="45.31604" lon="5.84337">
        <ele>1413.755859375</ele>
        <time>2011-06-04T06:46:38Z</time>
      </trkpt>
      <trkpt lat="45.31607" lon="5.8433">
        <ele>1414.7172851562</ele>
        <time>2011-06-04T06:46:44Z</time>
      </trkpt>
      <trkpt lat="45.31609" lon="5.84329">
        <ele>1417.1206054688</ele>
        <time>2011-06-04T06:46:48Z</time>
      </trkpt>
      <trkpt lat="45.31616" lon="5.84326">
        <ele>1415.1979980469</ele>
        <time>2011-06-04T06:46:54Z</time>
      </trkpt>
      <trkpt lat="45.31618" lon="5.84325">
        <ele>1415.1979980469</ele>
        <time>2011-06-04T06:46:56Z</time>
      </trkpt>
      <trkpt lat="45.31619" lon="5.84322">
        <ele>1415.1979980469</ele>
        <time>2011-06-04T06:46:58Z</time>
      </trkpt>
      <trkpt lat="45.31624" lon="5.84317">
        <ele>1414.7172851562</ele>
        <time>2011-06-04T06:47:04Z</time>
      </trkpt>
      <trkpt lat="45.31626" lon="5.84313">
        <ele>1414.2365722656</ele>
        <time>2011-06-04T06:47:08Z</time>
      </trkpt>
      <trkpt lat="45.31628" lon="5.84308">
        <ele>1416.1591796875</ele>
        <time>2011-06-04T06:47:13Z</time>
      </trkpt>
      <trkpt lat="45.31626" lon="5.84306">
        <ele>1420.0046386719</ele>
        <time>2011-06-04T06:47:18Z</time>
      </trkpt>
      <trkpt lat="45.3162" lon="5.84305">
        <ele>1423.8498535156</ele>
        <time>2011-06-04T06:47:24Z</time>
      </trkpt>
      <trkpt lat="45.31618" lon="5.84301">
        <ele>1425.7724609375</ele>
        <time>2011-06-04T06:47:29Z</time>
      </trkpt>
      <trkpt lat="45.31611" lon="5.84301">
        <ele>1432.5017089844</ele>
        <time>2011-06-04T06:47:39Z</time>
      </trkpt>
      <trkpt lat="45.31609" lon="5.84299">
        <ele>1434.9050292969</ele>
        <time>2011-06-04T06:47:45Z</time>
      </trkpt>
      <trkpt lat="45.31609" lon="5.84294">
        <ele>1431.5402832031</ele>
        <time>2011-06-04T06:47:52Z</time>
      </trkpt>
      <trkpt lat="45.31607" lon="5.84292">
        <ele>1431.0598144531</ele>
        <time>2011-06-04T06:47:54Z</time>
      </trkpt>
      <trkpt lat="45.31601" lon="5.84293">
        <ele>1437.7890625</ele>
        <time>2011-06-04T06:47:59Z</time>
      </trkpt>
      <trkpt lat="45.31597" lon="5.84289">
        <ele>1441.6342773438</ele>
        <time>2011-06-04T06:48:06Z</time>
      </trkpt>
      <trkpt lat="45.31593" lon="5.84283">
        <ele>1441.6342773438</ele>
        <time>2011-06-04T06:48:13Z</time>
      </trkpt>
      <trkpt lat="45.31588" lon="5.84282">
        <ele>1444.0375976562</ele>
        <time>2011-06-04T06:48:19Z</time>
      </trkpt>
      <trkpt lat="45.31585" lon="5.8428">
        <ele>1445.9602050781</ele>
        <time>2011-06-04T06:48:23Z</time>
      </trkpt>
      <trkpt lat="45.3158" lon="5.84275">
        <ele>1443.076171875</ele>
        <time>2011-06-04T06:48:30Z</time>
      </trkpt>
      <trkpt lat="45.31577" lon="5.84273">
        <ele>1442.1149902344</ele>
        <time>2011-06-04T06:48:34Z</time>
      </trkpt>
      <trkpt lat="45.31575" lon="5.84273">
        <ele>1442.1149902344</ele>
        <time>2011-06-04T06:48:35Z</time>
      </trkpt>
      <trkpt lat="45.31572" lon="5.8427">
        <ele>1446.4409179688</ele>
        <time>2011-06-04T06:48:39Z</time>
      </trkpt>
      <trkpt lat="45.31571" lon="5.84262">
        <ele>1445.4794921875</ele>
        <time>2011-06-04T06:48:44Z</time>
      </trkpt>
      <trkpt lat="45.31567" lon="5.84261">
        <ele>1449.8054199219</ele>
        <time>2011-06-04T06:48:49Z</time>
      </trkpt>
      <trkpt lat="45.31566" lon="5.84258">
        <ele>1450.2861328125</ele>
        <time>2011-06-04T06:48:53Z</time>
      </trkpt>
      <trkpt lat="45.31565" lon="5.84249">
        <ele>1448.8439941406</ele>
        <time>2011-06-04T06:49:01Z</time>
      </trkpt>
      <trkpt lat="45.31561" lon="5.84244">
        <ele>1450.7666015625</ele>
        <time>2011-06-04T06:49:08Z</time>
      </trkpt>
      <trkpt lat="45.31562" lon="5.84239">
        <ele>1449.8054199219</ele>
        <time>2011-06-04T06:49:12Z</time>
      </trkpt>
      <trkpt lat="45.3156" lon="5.84235">
        <ele>1452.2087402344</ele>
        <time>2011-06-04T06:49:17Z</time>
      </trkpt>
      <trkpt lat="45.31559" lon="5.8423">
        <ele>1451.7280273438</ele>
        <time>2011-06-04T06:49:21Z</time>
      </trkpt>
      <trkpt lat="45.31557" lon="5.84224">
        <ele>1452.2087402344</ele>
        <time>2011-06-04T06:49:26Z</time>
      </trkpt>
      <trkpt lat="45.31556" lon="5.84219">
        <ele>1453.1701660156</ele>
        <time>2011-06-04T06:49:31Z</time>
      </trkpt>
      <trkpt lat="45.31552" lon="5.84212">
        <ele>1455.5734863281</ele>
        <time>2011-06-04T06:49:38Z</time>
      </trkpt>
      <trkpt lat="45.31546" lon="5.84211">
        <ele>1461.3413085938</ele>
        <time>2011-06-04T06:49:43Z</time>
      </trkpt>
      <trkpt lat="45.3154" lon="5.84207">
        <ele>1463.2639160156</ele>
        <time>2011-06-04T06:49:50Z</time>
      </trkpt>
      <trkpt lat="45.31536" lon="5.84206">
        <ele>1463.7443847656</ele>
        <time>2011-06-04T06:49:54Z</time>
      </trkpt>
      <trkpt lat="45.31532" lon="5.84202">
        <ele>1466.1477050781</ele>
        <time>2011-06-04T06:50:00Z</time>
      </trkpt>
      <trkpt lat="45.31528" lon="5.84195">
        <ele>1471.4350585938</ele>
        <time>2011-06-04T06:50:06Z</time>
      </trkpt>
      <trkpt lat="45.31526" lon="5.84192">
        <ele>1471.9157714844</ele>
        <time>2011-06-04T06:50:09Z</time>
      </trkpt>
      <trkpt lat="45.31521" lon="5.84191">
        <ele>1473.3579101562</ele>
        <time>2011-06-04T06:50:13Z</time>
      </trkpt>
      <trkpt lat="45.31514" lon="5.84193">
        <ele>1477.68359375</ele>
        <time>2011-06-04T06:50:18Z</time>
      </trkpt>
      <trkpt lat="45.31506" lon="5.84191">
        <ele>1480.5676269531</ele>
        <time>2011-06-04T06:50:26Z</time>
      </trkpt>
      <trkpt lat="45.31499" lon="5.84189">
        <ele>1481.0483398438</ele>
        <time>2011-06-04T06:50:34Z</time>
      </trkpt>
      <trkpt lat="45.31497" lon="5.84187">
        <ele>1481.5288085938</ele>
        <time>2011-06-04T06:50:39Z</time>
      </trkpt>
      <trkpt lat="45.3149" lon="5.84184">
        <ele>1480.0869140625</ele>
        <time>2011-06-04T06:50:46Z</time>
      </trkpt>
      <trkpt lat="45.31488" lon="5.84184">
        <ele>1479.1254882812</ele>
        <time>2011-06-04T06:50:48Z</time>
      </trkpt>
      <trkpt lat="45.31483" lon="5.84183">
        <ele>1476.7224121094</ele>
        <time>2011-06-04T06:50:54Z</time>
      </trkpt>
      <trkpt lat="45.31477" lon="5.84184">
        <ele>1473.8383789062</ele>
        <time>2011-06-04T06:51:00Z</time>
      </trkpt>
      <trkpt lat="45.31476" lon="5.84185">
        <ele>1473.3579101562</ele>
        <time>2011-06-04T06:51:02Z</time>
      </trkpt>
      <trkpt lat="45.31467" lon="5.84186">
        <ele>1475.2802734375</ele>
        <time>2011-06-04T06:51:10Z</time>
      </trkpt>
      <trkpt lat="45.31466" lon="5.84186">
        <ele>1475.7609863281</ele>
        <time>2011-06-04T06:51:11Z</time>
      </trkpt>
      <trkpt lat="45.31459" lon="5.84187">
        <ele>1477.203125</ele>
        <time>2011-06-04T06:51:18Z</time>
      </trkpt>
      <trkpt lat="45.31458" lon="5.84187">
        <ele>1477.203125</ele>
        <time>2011-06-04T06:51:19Z</time>
      </trkpt>
      <trkpt lat="45.31452" lon="5.84187">
        <ele>1482.0095214844</ele>
        <time>2011-06-04T06:51:25Z</time>
      </trkpt>
      <trkpt lat="45.31446" lon="5.84185">
        <ele>1482.0095214844</ele>
        <time>2011-06-04T06:51:30Z</time>
      </trkpt>
      <trkpt lat="45.31437" lon="5.84184">
        <ele>1481.5288085938</ele>
        <time>2011-06-04T06:51:37Z</time>
      </trkpt>
      <trkpt lat="45.31429" lon="5.84179">
        <ele>1482.0095214844</ele>
        <time>2011-06-04T06:51:44Z</time>
      </trkpt>
      <trkpt lat="45.31421" lon="5.84175">
        <ele>1486.8161621094</ele>
        <time>2011-06-04T06:51:51Z</time>
      </trkpt>
      <trkpt lat="45.31414" lon="5.84172">
        <ele>1488.2583007812</ele>
        <time>2011-06-04T06:51:57Z</time>
      </trkpt>
      <trkpt lat="45.3141" lon="5.84169">
        <ele>1488.7390136719</ele>
        <time>2011-06-04T06:52:01Z</time>
      </trkpt>
      <trkpt lat="45.31403" lon="5.84173">
        <ele>1491.6228027344</ele>
        <time>2011-06-04T06:52:06Z</time>
      </trkpt>
      <trkpt lat="45.31397" lon="5.84171">
        <ele>1492.5842285156</ele>
        <time>2011-06-04T06:52:10Z</time>
      </trkpt>
      <trkpt lat="45.31384" lon="5.84168">
        <ele>1499.3132324219</ele>
        <time>2011-06-04T06:52:20Z</time>
      </trkpt>
      <trkpt lat="45.31379" lon="5.84168">
        <ele>1499.3132324219</ele>
        <time>2011-06-04T06:52:24Z</time>
      </trkpt>
      <trkpt lat="45.31373" lon="5.84169">
        <ele>1503.6394042969</ele>
        <time>2011-06-04T06:52:28Z</time>
      </trkpt>
      <trkpt lat="45.31367" lon="5.84169">
        <ele>1505.5620117188</ele>
        <time>2011-06-04T06:52:32Z</time>
      </trkpt>
      <trkpt lat="45.31361" lon="5.84166">
        <ele>1503.1586914062</ele>
        <time>2011-06-04T06:52:38Z</time>
      </trkpt>
      <trkpt lat="45.31356" lon="5.84168">
        <ele>1502.197265625</ele>
        <time>2011-06-04T06:52:43Z</time>
      </trkpt>
      <trkpt lat="45.31344" lon="5.84167">
        <ele>1505.0812988281</ele>
        <time>2011-06-04T06:52:51Z</time>
      </trkpt>
      <trkpt lat="45.31338" lon="5.84165">
        <ele>1505.0812988281</ele>
        <time>2011-06-04T06:52:58Z</time>
      </trkpt>
      <trkpt lat="45.31329" lon="5.84166">
        <ele>1509.4072265625</ele>
        <time>2011-06-04T06:53:05Z</time>
      </trkpt>
      <trkpt lat="45.3132" lon="5.84164">
        <ele>1513.7329101562</ele>
        <time>2011-06-04T06:53:11Z</time>
      </trkpt>
      <trkpt lat="45.31314" lon="5.84154">
        <ele>1510.8491210938</ele>
        <time>2011-06-04T06:53:20Z</time>
      </trkpt>
      <trkpt lat="45.31312" lon="5.8415">
        <ele>1511.3298339844</ele>
        <time>2011-06-04T06:53:24Z</time>
      </trkpt>
      <trkpt lat="45.31306" lon="5.84138">
        <ele>1508.9265136719</ele>
        <time>2011-06-04T06:53:35Z</time>
      </trkpt>
      <trkpt lat="45.31298" lon="5.84134">
        <ele>1509.8876953125</ele>
        <time>2011-06-04T06:53:43Z</time>
      </trkpt>
      <trkpt lat="45.31287" lon="5.84135">
        <ele>1518.0590820312</ele>
        <time>2011-06-04T06:53:52Z</time>
      </trkpt>
      <trkpt lat="45.31281" lon="5.84131">
        <ele>1517.5783691406</ele>
        <time>2011-06-04T06:53:59Z</time>
      </trkpt>
      <trkpt lat="45.31273" lon="5.84128">
        <ele>1518.0590820312</ele>
        <time>2011-06-04T06:54:05Z</time>
      </trkpt>
      <trkpt lat="45.31266" lon="5.84128">
        <ele>1518.5397949219</ele>
        <time>2011-06-04T06:54:11Z</time>
      </trkpt>
      <trkpt lat="45.31255" lon="5.84132">
        <ele>1520.4624023438</ele>
        <time>2011-06-04T06:54:18Z</time>
      </trkpt>
      <trkpt lat="45.31251" lon="5.84133">
        <ele>1525.2687988281</ele>
        <time>2011-06-04T06:54:21Z</time>
      </trkpt>
      <trkpt lat="45.3124" lon="5.84131">
        <ele>1529.1140136719</ele>
        <time>2011-06-04T06:54:28Z</time>
      </trkpt>
      <trkpt lat="45.31235" lon="5.84129">
        <ele>1531.998046875</ele>
        <time>2011-06-04T06:54:31Z</time>
      </trkpt>
      <trkpt lat="45.31227" lon="5.84126">
        <ele>1535.8435058594</ele>
        <time>2011-06-04T06:54:37Z</time>
      </trkpt>
      <trkpt lat="45.3122" lon="5.84116">
        <ele>1530.0754394531</ele>
        <time>2011-06-04T06:54:44Z</time>
      </trkpt>
      <trkpt lat="45.3121" lon="5.84111">
        <ele>1530.5561523438</ele>
        <time>2011-06-04T06:54:51Z</time>
      </trkpt>
      <trkpt lat="45.31203" lon="5.84108">
        <ele>1535.3627929688</ele>
        <time>2011-06-04T06:54:56Z</time>
      </trkpt>
      <trkpt lat="45.31192" lon="5.84103">
        <ele>1539.6887207031</ele>
        <time>2011-06-04T06:55:03Z</time>
      </trkpt>
      <trkpt lat="45.31181" lon="5.84099">
        <ele>1545.9372558594</ele>
        <time>2011-06-04T06:55:10Z</time>
      </trkpt>
      <trkpt lat="45.31174" lon="5.84093">
        <ele>1545.9372558594</ele>
        <time>2011-06-04T06:55:17Z</time>
      </trkpt>
      <trkpt lat="45.3117" lon="5.8409">
        <ele>1539.6887207031</ele>
        <time>2011-06-04T06:55:23Z</time>
      </trkpt>
      <trkpt lat="45.31165" lon="5.84088">
        <ele>1535.8435058594</ele>
        <time>2011-06-04T06:55:29Z</time>
      </trkpt>
      <trkpt lat="45.31162" lon="5.84086">
        <ele>1534.4016113281</ele>
        <time>2011-06-04T06:55:34Z</time>
      </trkpt>
      <trkpt lat="45.31155" lon="5.84087">
        <ele>1535.3627929688</ele>
        <time>2011-06-04T06:55:41Z</time>
      </trkpt>
      <trkpt lat="45.31152" lon="5.84091">
        <ele>1536.32421875</ele>
        <time>2011-06-04T06:55:46Z</time>
      </trkpt>
      <trkpt lat="45.31146" lon="5.84094">
        <ele>1537.7661132812</ele>
        <time>2011-06-04T06:55:51Z</time>
      </trkpt>
      <trkpt lat="45.31141" lon="5.84096">
        <ele>1539.2080078125</ele>
        <time>2011-06-04T06:55:56Z</time>
      </trkpt>
      <trkpt lat="45.31136" lon="5.84099">
        <ele>1541.611328125</ele>
        <time>2011-06-04T06:56:01Z</time>
      </trkpt>
      <trkpt lat="45.31134" lon="5.84101">
        <ele>1542.0920410156</ele>
        <time>2011-06-04T06:56:04Z</time>
      </trkpt>
      <trkpt lat="45.31129" lon="5.84101">
        <ele>1542.0920410156</ele>
        <time>2011-06-04T06:56:08Z</time>
      </trkpt>
      <trkpt lat="45.31127" lon="5.84101">
        <ele>1543.0532226562</ele>
        <time>2011-06-04T06:56:10Z</time>
      </trkpt>
      <trkpt lat="45.31124" lon="5.84105">
        <ele>1544.9758300781</ele>
        <time>2011-06-04T06:56:17Z</time>
      </trkpt>
      <trkpt lat="45.31119" lon="5.84111">
        <ele>1549.3020019531</ele>
        <time>2011-06-04T06:56:21Z</time>
      </trkpt>
      <trkpt lat="45.31117" lon="5.84116">
        <ele>1552.1857910156</ele>
        <time>2011-06-04T06:56:23Z</time>
      </trkpt>
      <trkpt lat="45.31115" lon="5.84123">
        <ele>1551.224609375</ele>
        <time>2011-06-04T06:56:29Z</time>
      </trkpt>
      <trkpt lat="45.31113" lon="5.84126">
        <ele>1551.224609375</ele>
        <time>2011-06-04T06:56:32Z</time>
      </trkpt>
      <trkpt lat="45.3111" lon="5.84135">
        <ele>1550.2634277344</ele>
        <time>2011-06-04T06:56:39Z</time>
      </trkpt>
      <trkpt lat="45.31104" lon="5.84144">
        <ele>1549.3020019531</ele>
        <time>2011-06-04T06:56:45Z</time>
      </trkpt>
      <trkpt lat="45.31094" lon="5.8415">
        <ele>1549.3020019531</ele>
        <time>2011-06-04T06:56:51Z</time>
      </trkpt>
      <trkpt lat="45.31087" lon="5.84156">
        <ele>1551.224609375</ele>
        <time>2011-06-04T06:56:57Z</time>
      </trkpt>
      <trkpt lat="45.31085" lon="5.84161">
        <ele>1550.7438964844</ele>
        <time>2011-06-04T06:57:00Z</time>
      </trkpt>
      <trkpt lat="45.31082" lon="5.84173">
        <ele>1549.7827148438</ele>
        <time>2011-06-04T06:57:05Z</time>
      </trkpt>
      <trkpt lat="45.31073" lon="5.84183">
        <ele>1550.7438964844</ele>
        <time>2011-06-04T06:57:11Z</time>
      </trkpt>
      <trkpt lat="45.31065" lon="5.84193">
        <ele>1549.7827148438</ele>
        <time>2011-06-04T06:57:18Z</time>
      </trkpt>
      <trkpt lat="45.31056" lon="5.84201">
        <ele>1550.2634277344</ele>
        <time>2011-06-04T06:57:24Z</time>
      </trkpt>
      <trkpt lat="45.31044" lon="5.84211">
        <ele>1548.8212890625</ele>
        <time>2011-06-04T06:57:31Z</time>
      </trkpt>
      <trkpt lat="45.31032" lon="5.8422">
        <ele>1549.7827148438</ele>
        <time>2011-06-04T06:57:37Z</time>
      </trkpt>
      <trkpt lat="45.31025" lon="5.84225">
        <ele>1550.2634277344</ele>
        <time>2011-06-04T06:57:41Z</time>
      </trkpt>
      <trkpt lat="45.31023" lon="5.84226">
        <ele>1550.7438964844</ele>
        <time>2011-06-04T06:57:42Z</time>
      </trkpt>
      <trkpt lat="45.31017" lon="5.84228">
        <ele>1548.8212890625</ele>
        <time>2011-06-04T06:57:47Z</time>
      </trkpt>
      <trkpt lat="45.31001" lon="5.84224">
        <ele>1546.8984375</ele>
        <time>2011-06-04T06:57:55Z</time>
      </trkpt>
      <trkpt lat="45.30991" lon="5.84222">
        <ele>1544.4951171875</ele>
        <time>2011-06-04T06:58:00Z</time>
      </trkpt>
      <trkpt lat="45.30981" lon="5.84222">
        <ele>1542.5727539062</ele>
        <time>2011-06-04T06:58:05Z</time>
      </trkpt>
      <trkpt lat="45.30969" lon="5.84224">
        <ele>1535.8435058594</ele>
        <time>2011-06-04T06:58:12Z</time>
      </trkpt>
      <trkpt lat="45.30955" lon="5.84219">
        <ele>1531.5173339844</ele>
        <time>2011-06-04T06:58:18Z</time>
      </trkpt>
      <trkpt lat="45.30941" lon="5.84215">
        <ele>1528.1528320312</ele>
        <time>2011-06-04T06:58:24Z</time>
      </trkpt>
      <trkpt lat="45.30927" lon="5.84211">
        <ele>1524.7883300781</ele>
        <time>2011-06-04T06:58:30Z</time>
      </trkpt>
      <trkpt lat="45.30914" lon="5.84208">
        <ele>1521.4235839844</ele>
        <time>2011-06-04T06:58:36Z</time>
      </trkpt>
      <trkpt lat="45.309" lon="5.8421">
        <ele>1519.0205078125</ele>
        <time>2011-06-04T06:58:42Z</time>
      </trkpt>
      <trkpt lat="45.30885" lon="5.84208">
        <ele>1514.6943359375</ele>
        <time>2011-06-04T06:58:48Z</time>
      </trkpt>
      <trkpt lat="45.30877" lon="5.8421">
        <ele>1512.291015625</ele>
        <time>2011-06-04T06:58:52Z</time>
      </trkpt>
      <trkpt lat="45.30864" lon="5.84209">
        <ele>1510.8491210938</ele>
        <time>2011-06-04T06:58:57Z</time>
      </trkpt>
      <trkpt lat="45.30853" lon="5.84208">
        <ele>1507.9653320312</ele>
        <time>2011-06-04T06:59:02Z</time>
      </trkpt>
      <trkpt lat="45.30845" lon="5.84208">
        <ele>1505.5620117188</ele>
        <time>2011-06-04T06:59:06Z</time>
      </trkpt>
      <trkpt lat="45.30844" lon="5.84207">
        <ele>1504.1201171875</ele>
        <time>2011-06-04T06:59:07Z</time>
      </trkpt>
      <trkpt lat="45.30834" lon="5.84198">
        <ele>1499.3132324219</ele>
        <time>2011-06-04T06:59:13Z</time>
      </trkpt>
      <trkpt lat="45.30829" lon="5.84197">
        <ele>1497.8713378906</ele>
        <time>2011-06-04T06:59:15Z</time>
      </trkpt>
      <trkpt lat="45.3082" lon="5.84181">
        <ele>1493.5454101562</ele>
        <time>2011-06-04T06:59:21Z</time>
      </trkpt>
      <trkpt lat="45.30808" lon="5.84171">
        <ele>1489.7001953125</ele>
        <time>2011-06-04T06:59:27Z</time>
      </trkpt>
      <trkpt lat="45.30796" lon="5.84164">
        <ele>1486.8161621094</ele>
        <time>2011-06-04T06:59:33Z</time>
      </trkpt>
      <trkpt lat="45.30788" lon="5.84161">
        <ele>1482.970703125</ele>
        <time>2011-06-04T06:59:38Z</time>
      </trkpt>
      <trkpt lat="45.30782" lon="5.84159">
        <ele>1480.0869140625</ele>
        <time>2011-06-04T06:59:42Z</time>
      </trkpt>
      <trkpt lat="45.30773" lon="5.84153">
        <ele>1477.203125</ele>
        <time>2011-06-04T06:59:47Z</time>
      </trkpt>
      <trkpt lat="45.30762" lon="5.84145">
        <ele>1474.3190917969</ele>
        <time>2011-06-04T06:59:52Z</time>
      </trkpt>
      <trkpt lat="45.30754" lon="5.84137">
        <ele>1471.4350585938</ele>
        <time>2011-06-04T06:59:56Z</time>
      </trkpt>
      <trkpt lat="45.30743" lon="5.84132">
        <ele>1468.0705566406</ele>
        <time>2011-06-04T07:00:02Z</time>
      </trkpt>
      <trkpt lat="45.30733" lon="5.84127">
        <ele>1463.7443847656</ele>
        <time>2011-06-04T07:00:08Z</time>
      </trkpt>
      <trkpt lat="45.30727" lon="5.84123">
        <ele>1462.3024902344</ele>
        <time>2011-06-04T07:00:11Z</time>
      </trkpt>
      <trkpt lat="45.30717" lon="5.84124">
        <ele>1459.8991699219</ele>
        <time>2011-06-04T07:00:15Z</time>
      </trkpt>
      <trkpt lat="45.30702" lon="5.84131">
        <ele>1457.9768066406</ele>
        <time>2011-06-04T07:00:21Z</time>
      </trkpt>
      <trkpt lat="45.30689" lon="5.84135">
        <ele>1456.5346679688</ele>
        <time>2011-06-04T07:00:26Z</time>
      </trkpt>
      <trkpt lat="45.30676" lon="5.84143">
        <ele>1454.1315917969</ele>
        <time>2011-06-04T07:00:32Z</time>
      </trkpt>
      <trkpt lat="45.30674" lon="5.84145">
        <ele>1453.6508789062</ele>
        <time>2011-06-04T07:00:33Z</time>
      </trkpt>
      <trkpt lat="45.30669" lon="5.84151">
        <ele>1450.7666015625</ele>
        <time>2011-06-04T07:00:36Z</time>
      </trkpt>
      <trkpt lat="45.3066" lon="5.84157">
        <ele>1446.9213867188</ele>
        <time>2011-06-04T07:00:40Z</time>
      </trkpt>
      <trkpt lat="45.30644" lon="5.84161">
        <ele>1443.5568847656</ele>
        <time>2011-06-04T07:00:46Z</time>
      </trkpt>
      <trkpt lat="45.30634" lon="5.84163">
        <ele>1441.6342773438</ele>
        <time>2011-06-04T07:00:50Z</time>
      </trkpt>
      <trkpt lat="45.3062" lon="5.84168">
        <ele>1438.2697753906</ele>
        <time>2011-06-04T07:00:55Z</time>
      </trkpt>
      <trkpt lat="45.30609" lon="5.84173">
        <ele>1434.9050292969</ele>
        <time>2011-06-04T07:00:59Z</time>
      </trkpt>
      <trkpt lat="45.30595" lon="5.84179">
        <ele>1432.9821777344</ele>
        <time>2011-06-04T07:01:05Z</time>
      </trkpt>
      <trkpt lat="45.30593" lon="5.84166">
        <ele>1429.6176757812</ele>
        <time>2011-06-04T07:01:10Z</time>
      </trkpt>
      <trkpt lat="45.30598" lon="5.84157">
        <ele>1426.2531738281</ele>
        <time>2011-06-04T07:01:13Z</time>
      </trkpt>
      <trkpt lat="45.30602" lon="5.84132">
        <ele>1424.3305664062</ele>
        <time>2011-06-04T07:01:19Z</time>
      </trkpt>
      <trkpt lat="45.3061" lon="5.84114">
        <ele>1422.888671875</ele>
        <time>2011-06-04T07:01:24Z</time>
      </trkpt>
      <trkpt lat="45.30621" lon="5.84101">
        <ele>1420.4853515625</ele>
        <time>2011-06-04T07:01:29Z</time>
      </trkpt>
      <trkpt lat="45.3062" lon="5.84086">
        <ele>1420.0046386719</ele>
        <time>2011-06-04T07:01:34Z</time>
      </trkpt>
      <trkpt lat="45.30616" lon="5.84082">
        <ele>1420.0046386719</ele>
        <time>2011-06-04T07:01:36Z</time>
      </trkpt>
      <trkpt lat="45.30611" lon="5.84069">
        <ele>1418.0817871094</ele>
        <time>2011-06-04T07:01:41Z</time>
      </trkpt>
      <trkpt lat="45.30604" lon="5.84061">
        <ele>1422.4079589844</ele>
        <time>2011-06-04T07:01:46Z</time>
      </trkpt>
      <trkpt lat="45.30591" lon="5.84049">
        <ele>1423.3693847656</ele>
        <time>2011-06-04T07:01:52Z</time>
      </trkpt>
      <trkpt lat="45.30589" lon="5.84047">
        <ele>1422.888671875</ele>
        <time>2011-06-04T07:01:53Z</time>
      </trkpt>
      <trkpt lat="45.30577" lon="5.84041">
        <ele>1418.5625</ele>
        <time>2011-06-04T07:01:59Z</time>
      </trkpt>
      <trkpt lat="45.30562" lon="5.84034">
        <ele>1418.0817871094</ele>
        <time>2011-06-04T07:02:05Z</time>
      </trkpt>
      <trkpt lat="45.3055" lon="5.84026">
        <ele>1416.6398925781</ele>
        <time>2011-06-04T07:02:10Z</time>
      </trkpt>
      <trkpt lat="45.30542" lon="5.84007">
        <ele>1414.7172851562</ele>
        <time>2011-06-04T07:02:16Z</time>
      </trkpt>
      <trkpt lat="45.30537" lon="5.8399">
        <ele>1415.1979980469</ele>
        <time>2011-06-04T07:02:21Z</time>
      </trkpt>
      <trkpt lat="45.30526" lon="5.83979">
        <ele>1415.6787109375</ele>
        <time>2011-06-04T07:02:26Z</time>
      </trkpt>
      <trkpt lat="45.30518" lon="5.83969">
        <ele>1416.6398925781</ele>
        <time>2011-06-04T07:02:31Z</time>
      </trkpt>
      <trkpt lat="45.30509" lon="5.83954">
        <ele>1418.5625</ele>
        <time>2011-06-04T07:02:38Z</time>
      </trkpt>
      <trkpt lat="45.30501" lon="5.83946">
        <ele>1420.9660644531</ele>
        <time>2011-06-04T07:02:44Z</time>
      </trkpt>
      <trkpt lat="45.30495" lon="5.83936">
        <ele>1418.5625</ele>
        <time>2011-06-04T07:02:49Z</time>
      </trkpt>
      <trkpt lat="45.30489" lon="5.83936">
        <ele>1425.7724609375</ele>
        <time>2011-06-04T07:02:52Z</time>
      </trkpt>
      <trkpt lat="45.30476" lon="5.83931">
        <ele>1434.4243164062</ele>
        <time>2011-06-04T07:02:59Z</time>
      </trkpt>
      <trkpt lat="45.3047" lon="5.83928">
        <ele>1437.7890625</ele>
        <time>2011-06-04T07:03:03Z</time>
      </trkpt>
      <trkpt lat="45.30463" lon="5.83918">
        <ele>1432.9821777344</ele>
        <time>2011-06-04T07:03:10Z</time>
      </trkpt>
      <trkpt lat="45.30458" lon="5.83909">
        <ele>1427.2145996094</ele>
        <time>2011-06-04T07:03:17Z</time>
      </trkpt>
      <trkpt lat="45.30457" lon="5.83908">
        <ele>1427.2145996094</ele>
        <time>2011-06-04T07:03:18Z</time>
      </trkpt>
      <trkpt lat="45.30449" lon="5.83899">
        <ele>1424.8112792969</ele>
        <time>2011-06-04T07:03:26Z</time>
      </trkpt>
      <trkpt lat="45.30444" lon="5.83888">
        <ele>1421.4465332031</ele>
        <time>2011-06-04T07:03:33Z</time>
      </trkpt>
      <trkpt lat="45.30437" lon="5.8388">
        <ele>1420.9660644531</ele>
        <time>2011-06-04T07:03:39Z</time>
      </trkpt>
      <trkpt lat="45.30432" lon="5.8387">
        <ele>1420.4853515625</ele>
        <time>2011-06-04T07:03:46Z</time>
      </trkpt>
      <trkpt lat="45.30424" lon="5.83859">
        <ele>1421.9272460938</ele>
        <time>2011-06-04T07:03:53Z</time>
      </trkpt>
      <trkpt lat="45.30419" lon="5.83846">
        <ele>1422.4079589844</ele>
        <time>2011-06-04T07:04:00Z</time>
      </trkpt>
      <trkpt lat="45.30412" lon="5.83831">
        <ele>1422.888671875</ele>
        <time>2011-06-04T07:04:09Z</time>
      </trkpt>
      <trkpt lat="45.30405" lon="5.83817">
        <ele>1424.8112792969</ele>
        <time>2011-06-04T07:04:17Z</time>
      </trkpt>
      <trkpt lat="45.30393" lon="5.83799">
        <ele>1425.7724609375</ele>
        <time>2011-06-04T07:04:28Z</time>
      </trkpt>
      <trkpt lat="45.30381" lon="5.8379">
        <ele>1426.7338867188</ele>
        <time>2011-06-04T07:04:37Z</time>
      </trkpt>
      <trkpt lat="45.30362" lon="5.8378">
        <ele>1428.17578125</ele>
        <time>2011-06-04T07:04:50Z</time>
      </trkpt>
      <trkpt lat="45.30346" lon="5.83774">
        <ele>1432.0209960938</ele>
        <time>2011-06-04T07:05:01Z</time>
      </trkpt>
      <trkpt lat="45.30328" lon="5.83766">
        <ele>1436.8276367188</ele>
        <time>2011-06-04T07:05:13Z</time>
      </trkpt>
      <trkpt lat="45.30318" lon="5.83759">
        <ele>1437.7890625</ele>
        <time>2011-06-04T07:05:20Z</time>
      </trkpt>
      <trkpt lat="45.30307" lon="5.83753">
        <ele>1443.076171875</ele>
        <time>2011-06-04T07:05:27Z</time>
      </trkpt>
      <trkpt lat="45.30293" lon="5.83744">
        <ele>1452.2087402344</ele>
        <time>2011-06-04T07:05:36Z</time>
      </trkpt>
      <trkpt lat="45.30284" lon="5.83732">
        <ele>1453.6508789062</ele>
        <time>2011-06-04T07:05:42Z</time>
      </trkpt>
      <trkpt lat="45.30275" lon="5.8372">
        <ele>1452.689453125</ele>
        <time>2011-06-04T07:05:48Z</time>
      </trkpt>
      <trkpt lat="45.30262" lon="5.83712">
        <ele>1457.9768066406</ele>
        <time>2011-06-04T07:05:54Z</time>
      </trkpt>
      <trkpt lat="45.30252" lon="5.83706">
        <ele>1457.49609375</ele>
        <time>2011-06-04T07:05:59Z</time>
      </trkpt>
      <trkpt lat="45.30249" lon="5.83703">
        <ele>1454.6120605469</ele>
        <time>2011-06-04T07:06:01Z</time>
      </trkpt>
      <trkpt lat="45.30249" lon="5.83684">
        <ele>1448.36328125</ele>
        <time>2011-06-04T07:06:06Z</time>
      </trkpt>
      <trkpt lat="45.30252" lon="5.83677">
        <ele>1445.4794921875</ele>
        <time>2011-06-04T07:06:08Z</time>
      </trkpt>
      <trkpt lat="45.3026" lon="5.83662">
        <ele>1443.076171875</ele>
        <time>2011-06-04T07:06:13Z</time>
      </trkpt>
      <trkpt lat="45.30269" lon="5.83647">
        <ele>1441.1535644531</ele>
        <time>2011-06-04T07:06:18Z</time>
      </trkpt>
      <trkpt lat="45.30275" lon="5.83633">
        <ele>1440.6728515625</ele>
        <time>2011-06-04T07:06:23Z</time>
      </trkpt>
      <trkpt lat="45.30275" lon="5.83627">
        <ele>1439.7116699219</ele>
        <time>2011-06-04T07:06:27Z</time>
      </trkpt>
      <trkpt lat="45.30276" lon="5.83626">
        <ele>1436.8276367188</ele>
        <time>2011-06-04T07:06:34Z</time>
      </trkpt>
      <trkpt lat="45.30276" lon="5.83626">
        <ele>1436.3471679688</ele>
        <time>2011-06-04T07:06:38Z</time>
      </trkpt>
      <trkpt lat="45.30275" lon="5.83626">
        <ele>1436.3471679688</ele>
        <time>2011-06-04T07:06:40Z</time>
      </trkpt>
      <trkpt lat="45.30275" lon="5.83624">
        <ele>1436.8276367188</ele>
        <time>2011-06-04T07:06:43Z</time>
      </trkpt>
      <trkpt lat="45.30274" lon="5.83623">
        <ele>1436.8276367188</ele>
        <time>2011-06-04T07:06:44Z</time>
      </trkpt>
      <trkpt lat="45.30275" lon="5.83624">
        <ele>1438.2697753906</ele>
        <time>2011-06-04T07:06:46Z</time>
      </trkpt>
      <trkpt lat="45.30276" lon="5.83625">
        <ele>1434.9050292969</ele>
        <time>2011-06-04T07:06:59Z</time>
      </trkpt>
      <trkpt lat="45.30275" lon="5.83624">
        <ele>1435.8662109375</ele>
        <time>2011-06-04T07:07:06Z</time>
      </trkpt>
      <trkpt lat="45.30273" lon="5.83622">
        <ele>1436.8276367188</ele>
        <time>2011-06-04T07:07:11Z</time>
      </trkpt>
      <trkpt lat="45.30273" lon="5.83622">
        <ele>1436.8276367188</ele>
        <time>2011-06-04T07:07:12Z</time>
      </trkpt>
      <trkpt lat="45.30273" lon="5.83621">
        <ele>1437.3083496094</ele>
        <time>2011-06-04T07:07:13Z</time>
      </trkpt>
      <trkpt lat="45.30273" lon="5.83622">
        <ele>1437.7890625</ele>
        <time>2011-06-04T07:07:16Z</time>
      </trkpt>
      <trkpt lat="45.30273" lon="5.83623">
        <ele>1437.3083496094</ele>
        <time>2011-06-04T07:07:20Z</time>
      </trkpt>
      <trkpt lat="45.30273" lon="5.83622">
        <ele>1437.3083496094</ele>
        <time>2011-06-04T07:07:22Z</time>
      </trkpt>
      <trkpt lat="45.30273" lon="5.83622">
        <ele>1436.8276367188</ele>
        <time>2011-06-04T07:07:24Z</time>
      </trkpt>
      <trkpt lat="45.30282" lon="5.83608">
        <ele>1437.7890625</ele>
        <time>2011-06-04T07:07:32Z</time>
      </trkpt>
      <trkpt lat="45.30286" lon="5.83596">
        <ele>1437.7890625</ele>
        <time>2011-06-04T07:07:39Z</time>
      </trkpt>
      <trkpt lat="45.30286" lon="5.83595">
        <ele>1438.7504882812</ele>
        <time>2011-06-04T07:07:43Z</time>
      </trkpt>
      <trkpt lat="45.30286" lon="5.83595">
        <ele>1438.7504882812</ele>
        <time>2011-06-04T07:07:44Z</time>
      </trkpt>
      <trkpt lat="45.30286" lon="5.83595">
        <ele>1439.2309570312</ele>
        <time>2011-06-04T07:07:45Z</time>
      </trkpt>
      <trkpt lat="45.30287" lon="5.83596">
        <ele>1438.7504882812</ele>
        <time>2011-06-04T07:07:53Z</time>
      </trkpt>
      <trkpt lat="45.30286" lon="5.83596">
        <ele>1438.7504882812</ele>
        <time>2011-06-04T07:07:57Z</time>
      </trkpt>
      <trkpt lat="45.30285" lon="5.83596">
        <ele>1438.7504882812</ele>
        <time>2011-06-04T07:07:58Z</time>
      </trkpt>
      <trkpt lat="45.30271" lon="5.83601">
        <ele>1437.3083496094</ele>
        <time>2011-06-04T07:08:07Z</time>
      </trkpt>
      <trkpt lat="45.3026" lon="5.83604">
        <ele>1435.8662109375</ele>
        <time>2011-06-04T07:08:12Z</time>
      </trkpt>
      <trkpt lat="45.30254" lon="5.83603">
        <ele>1435.8662109375</ele>
        <time>2011-06-04T07:08:14Z</time>
      </trkpt>
      <trkpt lat="45.30244" lon="5.8359">
        <ele>1437.7890625</ele>
        <time>2011-06-04T07:08:20Z</time>
      </trkpt>
      <trkpt lat="45.30236" lon="5.83578">
        <ele>1438.2697753906</ele>
        <time>2011-06-04T07:08:25Z</time>
      </trkpt>
      <trkpt lat="45.30235" lon="5.83572">
        <ele>1439.7116699219</ele>
        <time>2011-06-04T07:08:27Z</time>
      </trkpt>
      <trkpt lat="45.30217" lon="5.83561">
        <ele>1440.1923828125</ele>
        <time>2011-06-04T07:08:33Z</time>
      </trkpt>
      <trkpt lat="45.30207" lon="5.83549">
        <ele>1440.6728515625</ele>
        <time>2011-06-04T07:08:38Z</time>
      </trkpt>
      <trkpt lat="45.30189" lon="5.8353">
        <ele>1433.462890625</ele>
        <time>2011-06-04T07:08:46Z</time>
      </trkpt>
      <trkpt lat="45.30182" lon="5.83514">
        <ele>1430.0983886719</ele>
        <time>2011-06-04T07:08:51Z</time>
      </trkpt>
      <trkpt lat="45.30176" lon="5.83497">
        <ele>1424.8112792969</ele>
        <time>2011-06-04T07:08:56Z</time>
      </trkpt>
      <trkpt lat="45.30172" lon="5.83475">
        <ele>1420.0046386719</ele>
        <time>2011-06-04T07:09:02Z</time>
      </trkpt>
      <trkpt lat="45.30167" lon="5.83458">
        <ele>1418.0817871094</ele>
        <time>2011-06-04T07:09:07Z</time>
      </trkpt>
      <trkpt lat="45.30162" lon="5.83434">
        <ele>1415.6787109375</ele>
        <time>2011-06-04T07:09:13Z</time>
      </trkpt>
      <trkpt lat="45.30161" lon="5.83416">
        <ele>1414.7172851562</ele>
        <time>2011-06-04T07:09:17Z</time>
      </trkpt>
      <trkpt lat="45.30165" lon="5.8339">
        <ele>1412.3139648438</ele>
        <time>2011-06-04T07:09:23Z</time>
      </trkpt>
      <trkpt lat="45.30169" lon="5.83374">
        <ele>1411.3527832031</ele>
        <time>2011-06-04T07:09:27Z</time>
      </trkpt>
      <trkpt lat="45.30175" lon="5.83356">
        <ele>1408.46875</ele>
        <time>2011-06-04T07:09:32Z</time>
      </trkpt>
      <trkpt lat="45.3018" lon="5.83332">
        <ele>1407.0268554688</ele>
        <time>2011-06-04T07:09:38Z</time>
      </trkpt>
      <trkpt lat="45.30185" lon="5.83314">
        <ele>1406.5461425781</ele>
        <time>2011-06-04T07:09:43Z</time>
      </trkpt>
      <trkpt lat="45.30188" lon="5.83299">
        <ele>1404.6235351562</ele>
        <time>2011-06-04T07:09:47Z</time>
      </trkpt>
      <trkpt lat="45.30185" lon="5.83278">
        <ele>1405.1042480469</ele>
        <time>2011-06-04T07:09:52Z</time>
      </trkpt>
      <trkpt lat="45.30183" lon="5.83263">
        <ele>1406.0654296875</ele>
        <time>2011-06-04T07:09:56Z</time>
      </trkpt>
      <trkpt lat="45.30182" lon="5.83236">
        <ele>1404.1430664062</ele>
        <time>2011-06-04T07:10:02Z</time>
      </trkpt>
      <trkpt lat="45.30182" lon="5.83217">
        <ele>1401.7395019531</ele>
        <time>2011-06-04T07:10:06Z</time>
      </trkpt>
      <trkpt lat="45.30179" lon="5.83203">
        <ele>1398.85546875</ele>
        <time>2011-06-04T07:10:10Z</time>
      </trkpt>
      <trkpt lat="45.3017" lon="5.83186">
        <ele>1396.9328613281</ele>
        <time>2011-06-04T07:10:16Z</time>
      </trkpt>
      <trkpt lat="45.30163" lon="5.83166">
        <ele>1394.0490722656</ele>
        <time>2011-06-04T07:10:21Z</time>
      </trkpt>
      <trkpt lat="45.30164" lon="5.83152">
        <ele>1394.5295410156</ele>
        <time>2011-06-04T07:10:25Z</time>
      </trkpt>
      <trkpt lat="45.30164" lon="5.8315">
        <ele>1394.5295410156</ele>
        <time>2011-06-04T07:10:26Z</time>
      </trkpt>
      <trkpt lat="45.30165" lon="5.8314">
        <ele>1396.9328613281</ele>
        <time>2011-06-04T07:10:30Z</time>
      </trkpt>
      <trkpt lat="45.30169" lon="5.8313">
        <ele>1398.85546875</ele>
        <time>2011-06-04T07:10:34Z</time>
      </trkpt>
      <trkpt lat="45.30169" lon="5.83119">
        <ele>1399.8168945312</ele>
        <time>2011-06-04T07:10:37Z</time>
      </trkpt>
      <trkpt lat="45.30171" lon="5.83103">
        <ele>1399.8168945312</ele>
        <time>2011-06-04T07:10:41Z</time>
      </trkpt>
      <trkpt lat="45.30174" lon="5.83088">
        <ele>1400.7780761719</ele>
        <time>2011-06-04T07:10:46Z</time>
      </trkpt>
      <trkpt lat="45.30176" lon="5.83077">
        <ele>1402.2199707031</ele>
        <time>2011-06-04T07:10:51Z</time>
      </trkpt>
      <trkpt lat="45.30178" lon="5.8307">
        <ele>1402.7006835938</ele>
        <time>2011-06-04T07:10:56Z</time>
      </trkpt>
      <trkpt lat="45.30182" lon="5.83062">
        <ele>1402.7006835938</ele>
        <time>2011-06-04T07:11:00Z</time>
      </trkpt>
      <trkpt lat="45.30188" lon="5.83045">
        <ele>1402.7006835938</ele>
        <time>2011-06-04T07:11:07Z</time>
      </trkpt>
      <trkpt lat="45.30195" lon="5.83035">
        <ele>1405.5849609375</ele>
        <time>2011-06-04T07:11:12Z</time>
      </trkpt>
      <trkpt lat="45.30195" lon="5.83024">
        <ele>1408.46875</ele>
        <time>2011-06-04T07:11:20Z</time>
      </trkpt>
      <trkpt lat="45.30195" lon="5.83018">
        <ele>1409.9106445312</ele>
        <time>2011-06-04T07:11:25Z</time>
      </trkpt>
      <trkpt lat="45.30196" lon="5.83012">
        <ele>1412.7946777344</ele>
        <time>2011-06-04T07:11:30Z</time>
      </trkpt>
      <trkpt lat="45.30199" lon="5.83007">
        <ele>1413.755859375</ele>
        <time>2011-06-04T07:11:35Z</time>
      </trkpt>
      <trkpt lat="45.302" lon="5.82999">
        <ele>1412.3139648438</ele>
        <time>2011-06-04T07:11:40Z</time>
      </trkpt>
      <trkpt lat="45.30204" lon="5.8299">
        <ele>1413.275390625</ele>
        <time>2011-06-04T07:11:47Z</time>
      </trkpt>
      <trkpt lat="45.30205" lon="5.82981">
        <ele>1413.755859375</ele>
        <time>2011-06-04T07:11:52Z</time>
      </trkpt>
      <trkpt lat="45.30203" lon="5.82969">
        <ele>1415.6787109375</ele>
        <time>2011-06-04T07:11:59Z</time>
      </trkpt>
      <trkpt lat="45.30203" lon="5.8296">
        <ele>1416.6398925781</ele>
        <time>2011-06-04T07:12:04Z</time>
      </trkpt>
      <trkpt lat="45.30204" lon="5.82955">
        <ele>1418.5625</ele>
        <time>2011-06-04T07:12:08Z</time>
      </trkpt>
      <trkpt lat="45.30206" lon="5.82945">
        <ele>1415.6787109375</ele>
        <time>2011-06-04T07:12:15Z</time>
      </trkpt>
      <trkpt lat="45.30206" lon="5.8294">
        <ele>1420.0046386719</ele>
        <time>2011-06-04T07:12:19Z</time>
      </trkpt>
      <trkpt lat="45.30205" lon="5.82937">
        <ele>1420.0046386719</ele>
        <time>2011-06-04T07:12:21Z</time>
      </trkpt>
      <trkpt lat="45.30202" lon="5.82928">
        <ele>1420.4853515625</ele>
        <time>2011-06-04T07:12:27Z</time>
      </trkpt>
      <trkpt lat="45.30202" lon="5.82926">
        <ele>1420.4853515625</ele>
        <time>2011-06-04T07:12:28Z</time>
      </trkpt>
      <trkpt lat="45.30201" lon="5.82914">
        <ele>1424.3305664062</ele>
        <time>2011-06-04T07:12:34Z</time>
      </trkpt>
      <trkpt lat="45.30198" lon="5.82905">
        <ele>1427.2145996094</ele>
        <time>2011-06-04T07:12:39Z</time>
      </trkpt>
      <trkpt lat="45.30195" lon="5.82894">
        <ele>1433.9436035156</ele>
        <time>2011-06-04T07:12:46Z</time>
      </trkpt>
      <trkpt lat="45.30193" lon="5.82885">
        <ele>1439.2309570312</ele>
        <time>2011-06-04T07:12:50Z</time>
      </trkpt>
      <trkpt lat="45.30192" lon="5.8288">
        <ele>1441.1535644531</ele>
        <time>2011-06-04T07:12:52Z</time>
      </trkpt>
      <trkpt lat="45.30186" lon="5.82872">
        <ele>1447.4020996094</ele>
        <time>2011-06-04T07:12:56Z</time>
      </trkpt>
      <trkpt lat="45.30178" lon="5.82856">
        <ele>1447.4020996094</ele>
        <time>2011-06-04T07:13:02Z</time>
      </trkpt>
      <trkpt lat="45.30166" lon="5.8285">
        <ele>1446.9213867188</ele>
        <time>2011-06-04T07:13:08Z</time>
      </trkpt>
      <trkpt lat="45.30165" lon="5.82849">
        <ele>1447.4020996094</ele>
        <time>2011-06-04T07:13:10Z</time>
      </trkpt>
      <trkpt lat="45.30161" lon="5.82843">
        <ele>1448.36328125</ele>
        <time>2011-06-04T07:13:17Z</time>
      </trkpt>
      <trkpt lat="45.30155" lon="5.82838">
        <ele>1449.3247070312</ele>
        <time>2011-06-04T07:13:24Z</time>
      </trkpt>
      <trkpt lat="45.30154" lon="5.82838">
        <ele>1449.3247070312</ele>
        <time>2011-06-04T07:13:25Z</time>
      </trkpt>
      <trkpt lat="45.30152" lon="5.82837">
        <ele>1448.36328125</ele>
        <time>2011-06-04T07:13:27Z</time>
      </trkpt>
      <trkpt lat="45.30146" lon="5.82834">
        <ele>1447.8828125</ele>
        <time>2011-06-04T07:13:33Z</time>
      </trkpt>
      <trkpt lat="45.30144" lon="5.8283">
        <ele>1452.689453125</ele>
        <time>2011-06-04T07:13:39Z</time>
      </trkpt>
      <trkpt lat="45.30143" lon="5.82826">
        <ele>1456.5346679688</ele>
        <time>2011-06-04T07:13:43Z</time>
      </trkpt>
      <trkpt lat="45.3014" lon="5.82823">
        <ele>1457.49609375</ele>
        <time>2011-06-04T07:13:47Z</time>
      </trkpt>
      <trkpt lat="45.30138" lon="5.82819">
        <ele>1459.8991699219</ele>
        <time>2011-06-04T07:13:50Z</time>
      </trkpt>
      <trkpt lat="45.30133" lon="5.82817">
        <ele>1458.4572753906</ele>
        <time>2011-06-04T07:13:54Z</time>
      </trkpt>
      <trkpt lat="45.30131" lon="5.82809">
        <ele>1462.3024902344</ele>
        <time>2011-06-04T07:14:00Z</time>
      </trkpt>
      <trkpt lat="45.30129" lon="5.82807">
        <ele>1458.9379882812</ele>
        <time>2011-06-04T07:14:03Z</time>
      </trkpt>
      <trkpt lat="45.30127" lon="5.82803">
        <ele>1459.4187011719</ele>
        <time>2011-06-04T07:14:08Z</time>
      </trkpt>
      <trkpt lat="45.30123" lon="5.82802">
        <ele>1464.7058105469</ele>
        <time>2011-06-04T07:14:14Z</time>
      </trkpt>
      <trkpt lat="45.30119" lon="5.82798">
        <ele>1465.6672363281</ele>
        <time>2011-06-04T07:14:20Z</time>
      </trkpt>
      <trkpt lat="45.30117" lon="5.82791">
        <ele>1466.1477050781</ele>
        <time>2011-06-04T07:14:27Z</time>
      </trkpt>
      <trkpt lat="45.30116" lon="5.82781">
        <ele>1459.4187011719</ele>
        <time>2011-06-04T07:14:33Z</time>
      </trkpt>
      <trkpt lat="45.30114" lon="5.82772">
        <ele>1458.9379882812</ele>
        <time>2011-06-04T07:14:41Z</time>
      </trkpt>
      <trkpt lat="45.30111" lon="5.82771">
        <ele>1463.7443847656</ele>
        <time>2011-06-04T07:14:47Z</time>
      </trkpt>
      <trkpt lat="45.30107" lon="5.82769">
        <ele>1467.1091308594</ele>
        <time>2011-06-04T07:14:53Z</time>
      </trkpt>
      <trkpt lat="45.30104" lon="5.82765">
        <ele>1468.0705566406</ele>
        <time>2011-06-04T07:14:59Z</time>
      </trkpt>
      <trkpt lat="45.30099" lon="5.82762">
        <ele>1467.5895996094</ele>
        <time>2011-06-04T07:15:04Z</time>
      </trkpt>
      <trkpt lat="45.30094" lon="5.82758">
        <ele>1469.9931640625</ele>
        <time>2011-06-04T07:15:10Z</time>
      </trkpt>
      <trkpt lat="45.30086" lon="5.82753">
        <ele>1470.9545898438</ele>
        <time>2011-06-04T07:15:18Z</time>
      </trkpt>
      <trkpt lat="45.30085" lon="5.82752">
        <ele>1470.9545898438</ele>
        <time>2011-06-04T07:15:19Z</time>
      </trkpt>
      <trkpt lat="45.30081" lon="5.82742">
        <ele>1473.8383789062</ele>
        <time>2011-06-04T07:15:24Z</time>
      </trkpt>
      <trkpt lat="45.30074" lon="5.82727">
        <ele>1473.8383789062</ele>
        <time>2011-06-04T07:15:30Z</time>
      </trkpt>
      <trkpt lat="45.30071" lon="5.8271">
        <ele>1471.9157714844</ele>
        <time>2011-06-04T07:15:35Z</time>
      </trkpt>
      <trkpt lat="45.30069" lon="5.827">
        <ele>1474.3190917969</ele>
        <time>2011-06-04T07:15:40Z</time>
      </trkpt>
      <trkpt lat="45.30063" lon="5.82695">
        <ele>1477.68359375</ele>
        <time>2011-06-04T07:15:46Z</time>
      </trkpt>
      <trkpt lat="45.30064" lon="5.82693">
        <ele>1478.6450195312</ele>
        <time>2011-06-04T07:15:47Z</time>
      </trkpt>
      <trkpt lat="45.30063" lon="5.82675">
        <ele>1481.0483398438</ele>
        <time>2011-06-04T07:15:54Z</time>
      </trkpt>
      <trkpt lat="45.30063" lon="5.82673">
        <ele>1481.5288085938</ele>
        <time>2011-06-04T07:15:55Z</time>
      </trkpt>
      <trkpt lat="45.30059" lon="5.82665">
        <ele>1483.9321289062</ele>
        <time>2011-06-04T07:16:02Z</time>
      </trkpt>
      <trkpt lat="45.30054" lon="5.8266">
        <ele>1483.9321289062</ele>
        <time>2011-06-04T07:16:10Z</time>
      </trkpt>
      <trkpt lat="45.30051" lon="5.82657">
        <ele>1482.970703125</ele>
        <time>2011-06-04T07:16:15Z</time>
      </trkpt>
      <trkpt lat="45.30048" lon="5.82651">
        <ele>1482.490234375</ele>
        <time>2011-06-04T07:16:22Z</time>
      </trkpt>
      <trkpt lat="45.30045" lon="5.82648">
        <ele>1483.4514160156</ele>
        <time>2011-06-04T07:16:27Z</time>
      </trkpt>
      <trkpt lat="45.30042" lon="5.82643">
        <ele>1483.9321289062</ele>
        <time>2011-06-04T07:16:33Z</time>
      </trkpt>
      <trkpt lat="45.30037" lon="5.82639">
        <ele>1486.3356933594</ele>
        <time>2011-06-04T07:16:40Z</time>
      </trkpt>
      <trkpt lat="45.30033" lon="5.82634">
        <ele>1490.1809082031</ele>
        <time>2011-06-04T07:16:47Z</time>
      </trkpt>
      <trkpt lat="45.30032" lon="5.82631">
        <ele>1493.5454101562</ele>
        <time>2011-06-04T07:16:52Z</time>
      </trkpt>
      <trkpt lat="45.3003" lon="5.82625">
        <ele>1494.9873046875</ele>
        <time>2011-06-04T07:16:58Z</time>
      </trkpt>
      <trkpt lat="45.30029" lon="5.82618">
        <ele>1494.0261230469</ele>
        <time>2011-06-04T07:17:02Z</time>
      </trkpt>
      <trkpt lat="45.30029" lon="5.82612">
        <ele>1492.5842285156</ele>
        <time>2011-06-04T07:17:05Z</time>
      </trkpt>
      <trkpt lat="45.30027" lon="5.82606">
        <ele>1492.103515625</ele>
        <time>2011-06-04T07:17:09Z</time>
      </trkpt>
      <trkpt lat="45.30025" lon="5.82594">
        <ele>1495.9487304688</ele>
        <time>2011-06-04T07:17:15Z</time>
      </trkpt>
      <trkpt lat="45.30025" lon="5.82587">
        <ele>1495.9487304688</ele>
        <time>2011-06-04T07:17:22Z</time>
      </trkpt>
      <trkpt lat="45.30025" lon="5.82579">
        <ele>1493.5454101562</ele>
        <time>2011-06-04T07:17:29Z</time>
      </trkpt>
      <trkpt lat="45.30024" lon="5.82572">
        <ele>1493.5454101562</ele>
        <time>2011-06-04T07:17:37Z</time>
      </trkpt>
      <trkpt lat="45.30023" lon="5.82569">
        <ele>1492.5842285156</ele>
        <time>2011-06-04T07:17:42Z</time>
      </trkpt>
      <trkpt lat="45.30022" lon="5.82564">
        <ele>1495.4680175781</ele>
        <time>2011-06-04T07:17:48Z</time>
      </trkpt>
      <trkpt lat="45.30021" lon="5.8256">
        <ele>1496.9099121094</ele>
        <time>2011-06-04T07:17:55Z</time>
      </trkpt>
      <trkpt lat="45.30021" lon="5.82557">
        <ele>1497.8713378906</ele>
        <time>2011-06-04T07:18:00Z</time>
      </trkpt>
      <trkpt lat="45.3002" lon="5.82553">
        <ele>1497.8713378906</ele>
        <time>2011-06-04T07:18:06Z</time>
      </trkpt>
      <trkpt lat="45.30021" lon="5.8255">
        <ele>1498.8325195312</ele>
        <time>2011-06-04T07:18:12Z</time>
      </trkpt>
      <trkpt lat="45.3002" lon="5.82548">
        <ele>1497.8713378906</ele>
        <time>2011-06-04T07:18:18Z</time>
      </trkpt>
      <trkpt lat="45.30021" lon="5.82542">
        <ele>1497.390625</ele>
        <time>2011-06-04T07:18:24Z</time>
      </trkpt>
      <trkpt lat="45.30022" lon="5.82538">
        <ele>1498.3518066406</ele>
        <time>2011-06-04T07:18:28Z</time>
      </trkpt>
      <trkpt lat="45.30022" lon="5.82533">
        <ele>1499.7939453125</ele>
        <time>2011-06-04T07:18:34Z</time>
      </trkpt>
      <trkpt lat="45.30026" lon="5.82524">
        <ele>1502.6779785156</ele>
        <time>2011-06-04T07:18:41Z</time>
      </trkpt>
      <trkpt lat="45.30027" lon="5.8252">
        <ele>1504.6005859375</ele>
        <time>2011-06-04T07:18:44Z</time>
      </trkpt>
      <trkpt lat="45.30031" lon="5.82512">
        <ele>1506.0424804688</ele>
        <time>2011-06-04T07:18:50Z</time>
      </trkpt>
      <trkpt lat="45.30032" lon="5.8251">
        <ele>1506.5231933594</ele>
        <time>2011-06-04T07:18:51Z</time>
      </trkpt>
      <trkpt lat="45.30035" lon="5.82504">
        <ele>1506.0424804688</ele>
        <time>2011-06-04T07:18:55Z</time>
      </trkpt>
      <trkpt lat="45.30035" lon="5.82499">
        <ele>1506.5231933594</ele>
        <time>2011-06-04T07:18:59Z</time>
      </trkpt>
      <trkpt lat="45.30034" lon="5.82492">
        <ele>1507.4846191406</ele>
        <time>2011-06-04T07:19:03Z</time>
      </trkpt>
      <trkpt lat="45.30035" lon="5.82481">
        <ele>1503.1586914062</ele>
        <time>2011-06-04T07:19:10Z</time>
      </trkpt>
      <trkpt lat="45.30037" lon="5.82473">
        <ele>1503.6394042969</ele>
        <time>2011-06-04T07:19:17Z</time>
      </trkpt>
      <trkpt lat="45.30041" lon="5.82468">
        <ele>1503.1586914062</ele>
        <time>2011-06-04T07:19:22Z</time>
      </trkpt>
      <trkpt lat="45.30041" lon="5.82466">
        <ele>1502.197265625</ele>
        <time>2011-06-04T07:19:23Z</time>
      </trkpt>
      <trkpt lat="45.30044" lon="5.82454">
        <ele>1503.1586914062</ele>
        <time>2011-06-04T07:19:28Z</time>
      </trkpt>
      <trkpt lat="45.30044" lon="5.82441">
        <ele>1504.6005859375</ele>
        <time>2011-06-04T07:19:33Z</time>
      </trkpt>
      <trkpt lat="45.30045" lon="5.82439">
        <ele>1504.6005859375</ele>
        <time>2011-06-04T07:19:34Z</time>
      </trkpt>
      <trkpt lat="45.3005" lon="5.82435">
        <ele>1506.0424804688</ele>
        <time>2011-06-04T07:19:38Z</time>
      </trkpt>
      <trkpt lat="45.30051" lon="5.82432">
        <ele>1507.4846191406</ele>
        <time>2011-06-04T07:19:40Z</time>
      </trkpt>
      <trkpt lat="45.30055" lon="5.82426">
        <ele>1509.8876953125</ele>
        <time>2011-06-04T07:19:46Z</time>
      </trkpt>
      <trkpt lat="45.30055" lon="5.82422">
        <ele>1509.4072265625</ele>
        <time>2011-06-04T07:19:49Z</time>
      </trkpt>
      <trkpt lat="45.3005" lon="5.82414">
        <ele>1513.2524414062</ele>
        <time>2011-06-04T07:19:54Z</time>
      </trkpt>
      <trkpt lat="45.30048" lon="5.82413">
        <ele>1514.2136230469</ele>
        <time>2011-06-04T07:19:55Z</time>
      </trkpt>
      <trkpt lat="45.30042" lon="5.82407">
        <ele>1517.0979003906</ele>
        <time>2011-06-04T07:20:00Z</time>
      </trkpt>
      <trkpt lat="45.30032" lon="5.82401">
        <ele>1518.0590820312</ele>
        <time>2011-06-04T07:20:06Z</time>
      </trkpt>
      <trkpt lat="45.3002" lon="5.82391">
        <ele>1523.8269042969</ele>
        <time>2011-06-04T07:20:13Z</time>
      </trkpt>
      <trkpt lat="45.30012" lon="5.82379">
        <ele>1524.3076171875</ele>
        <time>2011-06-04T07:20:20Z</time>
      </trkpt>
      <trkpt lat="45.30011" lon="5.8238">
        <ele>1522.8657226562</ele>
        <time>2011-06-04T07:20:22Z</time>
      </trkpt>
      <trkpt lat="45.30006" lon="5.82372">
        <ele>1523.3464355469</ele>
        <time>2011-06-04T07:20:29Z</time>
      </trkpt>
      <trkpt lat="45.29996" lon="5.82364">
        <ele>1522.8657226562</ele>
        <time>2011-06-04T07:20:35Z</time>
      </trkpt>
      <trkpt lat="45.29992" lon="5.8236">
        <ele>1525.2687988281</ele>
        <time>2011-06-04T07:20:40Z</time>
      </trkpt>
      <trkpt lat="45.29982" lon="5.82355">
        <ele>1522.8657226562</ele>
        <time>2011-06-04T07:20:46Z</time>
      </trkpt>
      <trkpt lat="45.2998" lon="5.82352">
        <ele>1521.4235839844</ele>
        <time>2011-06-04T07:20:49Z</time>
      </trkpt>
      <trkpt lat="45.29972" lon="5.82349">
        <ele>1522.3850097656</ele>
        <time>2011-06-04T07:20:54Z</time>
      </trkpt>
      <trkpt lat="45.29971" lon="5.82348">
        <ele>1522.8657226562</ele>
        <time>2011-06-04T07:20:56Z</time>
      </trkpt>
      <trkpt lat="45.29963" lon="5.82345">
        <ele>1520.9431152344</ele>
        <time>2011-06-04T07:21:02Z</time>
      </trkpt>
      <trkpt lat="45.29955" lon="5.82337">
        <ele>1519.5012207031</ele>
        <time>2011-06-04T07:21:08Z</time>
      </trkpt>
      <trkpt lat="45.29954" lon="5.82337">
        <ele>1519.5012207031</ele>
        <time>2011-06-04T07:21:09Z</time>
      </trkpt>
      <trkpt lat="45.29948" lon="5.82332">
        <ele>1521.904296875</ele>
        <time>2011-06-04T07:21:14Z</time>
      </trkpt>
      <trkpt lat="45.29939" lon="5.82328">
        <ele>1520.4624023438</ele>
        <time>2011-06-04T07:21:20Z</time>
      </trkpt>
      <trkpt lat="45.29933" lon="5.82327">
        <ele>1525.2687988281</ele>
        <time>2011-06-04T07:21:26Z</time>
      </trkpt>
      <trkpt lat="45.2993" lon="5.82323">
        <ele>1522.8657226562</ele>
        <time>2011-06-04T07:21:32Z</time>
      </trkpt>
      <trkpt lat="45.29929" lon="5.82318">
        <ele>1522.8657226562</ele>
        <time>2011-06-04T07:21:34Z</time>
      </trkpt>
      <trkpt lat="45.29922" lon="5.82318">
        <ele>1521.904296875</ele>
        <time>2011-06-04T07:21:38Z</time>
      </trkpt>
      <trkpt lat="45.2992" lon="5.8232">
        <ele>1518.0590820312</ele>
        <time>2011-06-04T07:21:41Z</time>
      </trkpt>
      <trkpt lat="45.29913" lon="5.82319">
        <ele>1512.7717285156</ele>
        <time>2011-06-04T07:21:46Z</time>
      </trkpt>
      <trkpt lat="45.29903" lon="5.82315">
        <ele>1508.4458007812</ele>
        <time>2011-06-04T07:21:52Z</time>
      </trkpt>
      <trkpt lat="45.29901" lon="5.82313">
        <ele>1506.0424804688</ele>
        <time>2011-06-04T07:21:55Z</time>
      </trkpt>
      <trkpt lat="45.29894" lon="5.82317">
        <ele>1508.9265136719</ele>
        <time>2011-06-04T07:22:01Z</time>
      </trkpt>
      <trkpt lat="45.29891" lon="5.82318">
        <ele>1510.8491210938</ele>
        <time>2011-06-04T07:22:04Z</time>
      </trkpt>
      <trkpt lat="45.29886" lon="5.8232">
        <ele>1509.4072265625</ele>
        <time>2011-06-04T07:22:09Z</time>
      </trkpt>
      <trkpt lat="45.29882" lon="5.8232">
        <ele>1510.8491210938</ele>
        <time>2011-06-04T07:22:11Z</time>
      </trkpt>
      <trkpt lat="45.29876" lon="5.82318">
        <ele>1514.6943359375</ele>
        <time>2011-06-04T07:22:14Z</time>
      </trkpt>
      <trkpt lat="45.29871" lon="5.82323">
        <ele>1515.6557617188</ele>
        <time>2011-06-04T07:22:18Z</time>
      </trkpt>
      <trkpt lat="45.29865" lon="5.82323">
        <ele>1519.5012207031</ele>
        <time>2011-06-04T07:22:22Z</time>
      </trkpt>
      <trkpt lat="45.29864" lon="5.82323">
        <ele>1521.4235839844</ele>
        <time>2011-06-04T07:22:24Z</time>
      </trkpt>
      <trkpt lat="45.29853" lon="5.82327">
        <ele>1523.8269042969</ele>
        <time>2011-06-04T07:22:30Z</time>
      </trkpt>
      <trkpt lat="45.29848" lon="5.82326">
        <ele>1526.2302246094</ele>
        <time>2011-06-04T07:22:32Z</time>
      </trkpt>
      <trkpt lat="45.29839" lon="5.82325">
        <ele>1523.3464355469</ele>
        <time>2011-06-04T07:22:37Z</time>
      </trkpt>
      <trkpt lat="45.29832" lon="5.82323">
        <ele>1521.904296875</ele>
        <time>2011-06-04T07:22:43Z</time>
      </trkpt>
      <trkpt lat="45.29829" lon="5.82324">
        <ele>1518.5397949219</ele>
        <time>2011-06-04T07:22:48Z</time>
      </trkpt>
      <trkpt lat="45.29826" lon="5.82324">
        <ele>1517.0979003906</ele>
        <time>2011-06-04T07:22:54Z</time>
      </trkpt>
      <trkpt lat="45.29823" lon="5.82324">
        <ele>1515.1750488281</ele>
        <time>2011-06-04T07:23:00Z</time>
      </trkpt>
      <trkpt lat="45.2982" lon="5.82325">
        <ele>1514.6943359375</ele>
        <time>2011-06-04T07:23:03Z</time>
      </trkpt>
      <trkpt lat="45.29814" lon="5.82323">
        <ele>1511.3298339844</ele>
        <time>2011-06-04T07:23:09Z</time>
      </trkpt>
      <trkpt lat="45.29807" lon="5.82319">
        <ele>1511.3298339844</ele>
        <time>2011-06-04T07:23:15Z</time>
      </trkpt>
      <trkpt lat="45.29799" lon="5.82312">
        <ele>1513.7329101562</ele>
        <time>2011-06-04T07:23:21Z</time>
      </trkpt>
      <trkpt lat="45.29794" lon="5.82305">
        <ele>1512.7717285156</ele>
        <time>2011-06-04T07:23:25Z</time>
      </trkpt>
      <trkpt lat="45.29789" lon="5.82303">
        <ele>1511.3298339844</ele>
        <time>2011-06-04T07:23:29Z</time>
      </trkpt>
      <trkpt lat="45.29784" lon="5.82297">
        <ele>1507.4846191406</ele>
        <time>2011-06-04T07:23:34Z</time>
      </trkpt>
      <trkpt lat="45.29778" lon="5.8229">
        <ele>1510.8491210938</ele>
        <time>2011-06-04T07:23:41Z</time>
      </trkpt>
      <trkpt lat="45.29773" lon="5.82287">
        <ele>1507.00390625</ele>
        <time>2011-06-04T07:23:45Z</time>
      </trkpt>
      <trkpt lat="45.29765" lon="5.82294">
        <ele>1505.0812988281</ele>
        <time>2011-06-04T07:23:51Z</time>
      </trkpt>
      <trkpt lat="45.29764" lon="5.82295">
        <ele>1506.0424804688</ele>
        <time>2011-06-04T07:23:52Z</time>
      </trkpt>
      <trkpt lat="45.29759" lon="5.82292">
        <ele>1504.1201171875</ele>
        <time>2011-06-04T07:23:55Z</time>
      </trkpt>
      <trkpt lat="45.2975" lon="5.82289">
        <ele>1493.5454101562</ele>
        <time>2011-06-04T07:24:01Z</time>
      </trkpt>
      <trkpt lat="45.2975" lon="5.82289">
        <ele>1492.103515625</ele>
        <time>2011-06-04T07:24:02Z</time>
      </trkpt>
      <trkpt lat="45.29744" lon="5.82284">
        <ele>1490.6613769531</ele>
        <time>2011-06-04T07:24:05Z</time>
      </trkpt>
      <trkpt lat="45.2974" lon="5.82282">
        <ele>1491.6228027344</ele>
        <time>2011-06-04T07:24:08Z</time>
      </trkpt>
      <trkpt lat="45.29729" lon="5.82282">
        <ele>1491.6228027344</ele>
        <time>2011-06-04T07:24:14Z</time>
      </trkpt>
      <trkpt lat="45.29716" lon="5.82277">
        <ele>1495.9487304688</ele>
        <time>2011-06-04T07:24:20Z</time>
      </trkpt>
      <trkpt lat="45.29715" lon="5.82275">
        <ele>1495.9487304688</ele>
        <time>2011-06-04T07:24:21Z</time>
      </trkpt>
      <trkpt lat="45.29704" lon="5.82275">
        <ele>1494.9873046875</ele>
        <time>2011-06-04T07:24:28Z</time>
      </trkpt>
      <trkpt lat="45.297" lon="5.82269">
        <ele>1496.9099121094</ele>
        <time>2011-06-04T07:24:31Z</time>
      </trkpt>
      <trkpt lat="45.29691" lon="5.82269">
        <ele>1498.8325195312</ele>
        <time>2011-06-04T07:24:36Z</time>
      </trkpt>
      <trkpt lat="45.29686" lon="5.82265">
        <ele>1497.8713378906</ele>
        <time>2011-06-04T07:24:40Z</time>
      </trkpt>
      <trkpt lat="45.29686" lon="5.82264">
        <ele>1496.4294433594</ele>
        <time>2011-06-04T07:24:41Z</time>
      </trkpt>
      <trkpt lat="45.29683" lon="5.82262">
        <ele>1496.9099121094</ele>
        <time>2011-06-04T07:24:43Z</time>
      </trkpt>
      <trkpt lat="45.29674" lon="5.82256">
        <ele>1499.3132324219</ele>
        <time>2011-06-04T07:24:49Z</time>
      </trkpt>
      <trkpt lat="45.29666" lon="5.82254">
        <ele>1499.7939453125</ele>
        <time>2011-06-04T07:24:54Z</time>
      </trkpt>
      <trkpt lat="45.29661" lon="5.82252">
        <ele>1496.4294433594</ele>
        <time>2011-06-04T07:24:58Z</time>
      </trkpt>
      <trkpt lat="45.29657" lon="5.82252">
        <ele>1496.4294433594</ele>
        <time>2011-06-04T07:25:01Z</time>
      </trkpt>
      <trkpt lat="45.29652" lon="5.82252">
        <ele>1498.3518066406</ele>
        <time>2011-06-04T07:25:04Z</time>
      </trkpt>
      <trkpt lat="45.29643" lon="5.82249">
        <ele>1490.6613769531</ele>
        <time>2011-06-04T07:25:10Z</time>
      </trkpt>
      <trkpt lat="45.29638" lon="5.82245">
        <ele>1488.2583007812</ele>
        <time>2011-06-04T07:25:14Z</time>
      </trkpt>
      <trkpt lat="45.2963" lon="5.82245">
        <ele>1486.3356933594</ele>
        <time>2011-06-04T07:25:18Z</time>
      </trkpt>
      <trkpt lat="45.29628" lon="5.82245">
        <ele>1483.9321289062</ele>
        <time>2011-06-04T07:25:19Z</time>
      </trkpt>
      <trkpt lat="45.29622" lon="5.82244">
        <ele>1478.1643066406</ele>
        <time>2011-06-04T07:25:23Z</time>
      </trkpt>
      <trkpt lat="45.29613" lon="5.82239">
        <ele>1476.2416992188</ele>
        <time>2011-06-04T07:25:29Z</time>
      </trkpt>
      <trkpt lat="45.29609" lon="5.82232">
        <ele>1473.8383789062</ele>
        <time>2011-06-04T07:25:33Z</time>
      </trkpt>
      <trkpt lat="45.29601" lon="5.82227">
        <ele>1475.2802734375</ele>
        <time>2011-06-04T07:25:38Z</time>
      </trkpt>
      <trkpt lat="45.2959" lon="5.8222">
        <ele>1473.8383789062</ele>
        <time>2011-06-04T07:25:44Z</time>
      </trkpt>
      <trkpt lat="45.2958" lon="5.82215">
        <ele>1473.3579101562</ele>
        <time>2011-06-04T07:25:49Z</time>
      </trkpt>
      <trkpt lat="45.29578" lon="5.82213">
        <ele>1472.396484375</ele>
        <time>2011-06-04T07:25:51Z</time>
      </trkpt>
      <trkpt lat="45.29575" lon="5.82212">
        <ele>1471.9157714844</ele>
        <time>2011-06-04T07:25:53Z</time>
      </trkpt>
      <trkpt lat="45.29571" lon="5.82212">
        <ele>1468.0705566406</ele>
        <time>2011-06-04T07:25:56Z</time>
      </trkpt>
      <trkpt lat="45.29563" lon="5.82204">
        <ele>1463.7443847656</ele>
        <time>2011-06-04T07:26:02Z</time>
      </trkpt>
      <trkpt lat="45.29552" lon="5.82203">
        <ele>1466.1477050781</ele>
        <time>2011-06-04T07:26:08Z</time>
      </trkpt>
      <trkpt lat="45.2955" lon="5.82202">
        <ele>1466.1477050781</ele>
        <time>2011-06-04T07:26:09Z</time>
      </trkpt>
      <trkpt lat="45.29546" lon="5.82199">
        <ele>1464.7058105469</ele>
        <time>2011-06-04T07:26:12Z</time>
      </trkpt>
      <trkpt lat="45.29537" lon="5.82198">
        <ele>1469.0319824219</ele>
        <time>2011-06-04T07:26:17Z</time>
      </trkpt>
      <trkpt lat="45.29529" lon="5.82194">
        <ele>1462.783203125</ele>
        <time>2011-06-04T07:26:23Z</time>
      </trkpt>
      <trkpt lat="45.29528" lon="5.82193">
        <ele>1460.8605957031</ele>
        <time>2011-06-04T07:26:25Z</time>
      </trkpt>
      <trkpt lat="45.29528" lon="5.82188">
        <ele>1455.5734863281</ele>
        <time>2011-06-04T07:26:29Z</time>
      </trkpt>
      <trkpt lat="45.29523" lon="5.82185">
        <ele>1452.2087402344</ele>
        <time>2011-06-04T07:26:36Z</time>
      </trkpt>
      <trkpt lat="45.29515" lon="5.82183">
        <ele>1452.689453125</ele>
        <time>2011-06-04T07:26:40Z</time>
      </trkpt>
      <trkpt lat="45.29509" lon="5.82184">
        <ele>1454.1315917969</ele>
        <time>2011-06-04T07:26:45Z</time>
      </trkpt>
      <trkpt lat="45.29506" lon="5.82185">
        <ele>1455.5734863281</ele>
        <time>2011-06-04T07:26:48Z</time>
      </trkpt>
      <trkpt lat="45.29503" lon="5.82185">
        <ele>1456.0539550781</ele>
        <time>2011-06-04T07:26:54Z</time>
      </trkpt>
      <trkpt lat="45.29497" lon="5.82182">
        <ele>1460.3798828125</ele>
        <time>2011-06-04T07:27:00Z</time>
      </trkpt>
      <trkpt lat="45.29494" lon="5.82182">
        <ele>1463.7443847656</ele>
        <time>2011-06-04T07:27:03Z</time>
      </trkpt>
      <trkpt lat="45.29491" lon="5.8218">
        <ele>1463.7443847656</ele>
        <time>2011-06-04T07:27:06Z</time>
      </trkpt>
      <trkpt lat="45.2949" lon="5.82179">
        <ele>1463.2639160156</ele>
        <time>2011-06-04T07:27:08Z</time>
      </trkpt>
      <trkpt lat="45.2949" lon="5.82175">
        <ele>1457.0153808594</ele>
        <time>2011-06-04T07:27:12Z</time>
      </trkpt>
      <trkpt lat="45.29484" lon="5.82171">
        <ele>1462.783203125</ele>
        <time>2011-06-04T07:27:16Z</time>
      </trkpt>
      <trkpt lat="45.29479" lon="5.82165">
        <ele>1461.8220214844</ele>
        <time>2011-06-04T07:27:20Z</time>
      </trkpt>
      <trkpt lat="45.29471" lon="5.82159">
        <ele>1457.49609375</ele>
        <time>2011-06-04T07:27:26Z</time>
      </trkpt>
      <trkpt lat="45.29465" lon="5.82156">
        <ele>1458.9379882812</ele>
        <time>2011-06-04T07:27:31Z</time>
      </trkpt>
      <trkpt lat="45.29457" lon="5.82152">
        <ele>1449.8054199219</ele>
        <time>2011-06-04T07:27:37Z</time>
      </trkpt>
      <trkpt lat="45.29446" lon="5.82154">
        <ele>1455.0927734375</ele>
        <time>2011-06-04T07:27:44Z</time>
      </trkpt>
      <trkpt lat="45.29439" lon="5.82152">
        <ele>1447.8828125</ele>
        <time>2011-06-04T07:27:50Z</time>
      </trkpt>
      <trkpt lat="45.29434" lon="5.82153">
        <ele>1448.8439941406</ele>
        <time>2011-06-04T07:27:53Z</time>
      </trkpt>
      <trkpt lat="45.29425" lon="5.82149">
        <ele>1444.9987792969</ele>
        <time>2011-06-04T07:27:58Z</time>
      </trkpt>
      <trkpt lat="45.29415" lon="5.82147">
        <ele>1443.5568847656</ele>
        <time>2011-06-04T07:28:03Z</time>
      </trkpt>
      <trkpt lat="45.29404" lon="5.82148">
        <ele>1440.6728515625</ele>
        <time>2011-06-04T07:28:08Z</time>
      </trkpt>
      <trkpt lat="45.29396" lon="5.82139">
        <ele>1439.2309570312</ele>
        <time>2011-06-04T07:28:14Z</time>
      </trkpt>
      <trkpt lat="45.29387" lon="5.82133">
        <ele>1446.4409179688</ele>
        <time>2011-06-04T07:28:19Z</time>
      </trkpt>
      <trkpt lat="45.29374" lon="5.82125">
        <ele>1443.076171875</ele>
        <time>2011-06-04T07:28:26Z</time>
      </trkpt>
      <trkpt lat="45.29372" lon="5.82124">
        <ele>1444.9987792969</ele>
        <time>2011-06-04T07:28:27Z</time>
      </trkpt>
      <trkpt lat="45.2937" lon="5.82121">
        <ele>1444.0375976562</ele>
        <time>2011-06-04T07:28:29Z</time>
      </trkpt>
      <trkpt lat="45.29361" lon="5.82113">
        <ele>1443.5568847656</ele>
        <time>2011-06-04T07:28:35Z</time>
      </trkpt>
      <trkpt lat="45.29354" lon="5.82109">
        <ele>1437.7890625</ele>
        <time>2011-06-04T07:28:40Z</time>
      </trkpt>
      <trkpt lat="45.29348" lon="5.82101">
        <ele>1434.9050292969</ele>
        <time>2011-06-04T07:28:44Z</time>
      </trkpt>
      <trkpt lat="45.29342" lon="5.82094">
        <ele>1433.462890625</ele>
        <time>2011-06-04T07:28:50Z</time>
      </trkpt>
      <trkpt lat="45.29336" lon="5.82086">
        <ele>1429.6176757812</ele>
        <time>2011-06-04T07:28:55Z</time>
      </trkpt>
      <trkpt lat="45.29329" lon="5.82078">
        <ele>1430.5791015625</ele>
        <time>2011-06-04T07:29:00Z</time>
      </trkpt>
      <trkpt lat="45.29324" lon="5.82076">
        <ele>1428.17578125</ele>
        <time>2011-06-04T07:29:02Z</time>
      </trkpt>
      <trkpt lat="45.29308" lon="5.8207">
        <ele>1420.0046386719</ele>
        <time>2011-06-04T07:29:08Z</time>
      </trkpt>
      <trkpt lat="45.29296" lon="5.82067">
        <ele>1417.6010742188</ele>
        <time>2011-06-04T07:29:13Z</time>
      </trkpt>
      <trkpt lat="45.29285" lon="5.82067">
        <ele>1416.1591796875</ele>
        <time>2011-06-04T07:29:18Z</time>
      </trkpt>
      <trkpt lat="45.29271" lon="5.82066">
        <ele>1417.6010742188</ele>
        <time>2011-06-04T07:29:24Z</time>
      </trkpt>
      <trkpt lat="45.29255" lon="5.82062">
        <ele>1416.6398925781</ele>
        <time>2011-06-04T07:29:31Z</time>
      </trkpt>
      <trkpt lat="45.29242" lon="5.8206">
        <ele>1415.6787109375</ele>
        <time>2011-06-04T07:29:37Z</time>
      </trkpt>
      <trkpt lat="45.29233" lon="5.82059">
        <ele>1418.5625</ele>
        <time>2011-06-04T07:29:42Z</time>
      </trkpt>
      <trkpt lat="45.29227" lon="5.82062">
        <ele>1422.4079589844</ele>
        <time>2011-06-04T07:29:48Z</time>
      </trkpt>
      <trkpt lat="45.29226" lon="5.82062">
        <ele>1422.888671875</ele>
        <time>2011-06-04T07:29:49Z</time>
      </trkpt>
      <trkpt lat="45.29221" lon="5.82062">
        <ele>1427.6950683594</ele>
        <time>2011-06-04T07:29:54Z</time>
      </trkpt>
      <trkpt lat="45.29214" lon="5.82064">
        <ele>1427.6950683594</ele>
        <time>2011-06-04T07:30:01Z</time>
      </trkpt>
      <trkpt lat="45.29209" lon="5.82065">
        <ele>1425.2917480469</ele>
        <time>2011-06-04T07:30:07Z</time>
      </trkpt>
      <trkpt lat="45.29208" lon="5.82068">
        <ele>1424.8112792969</ele>
        <time>2011-06-04T07:30:09Z</time>
      </trkpt>
      <trkpt lat="45.29205" lon="5.82071">
        <ele>1424.3305664062</ele>
        <time>2011-06-04T07:30:13Z</time>
      </trkpt>
      <trkpt lat="45.292" lon="5.82072">
        <ele>1424.8112792969</ele>
        <time>2011-06-04T07:30:17Z</time>
      </trkpt>
      <trkpt lat="45.29197" lon="5.82073">
        <ele>1424.3305664062</ele>
        <time>2011-06-04T07:30:20Z</time>
      </trkpt>
      <trkpt lat="45.2919" lon="5.82074">
        <ele>1422.4079589844</ele>
        <time>2011-06-04T07:30:25Z</time>
      </trkpt>
      <trkpt lat="45.29189" lon="5.82073">
        <ele>1421.9272460938</ele>
        <time>2011-06-04T07:30:26Z</time>
      </trkpt>
      <trkpt lat="45.29187" lon="5.82074">
        <ele>1421.4465332031</ele>
        <time>2011-06-04T07:30:28Z</time>
      </trkpt>
      <trkpt lat="45.29175" lon="5.82079">
        <ele>1424.8112792969</ele>
        <time>2011-06-04T07:30:33Z</time>
      </trkpt>
      <trkpt lat="45.29167" lon="5.82079">
        <ele>1425.2917480469</ele>
        <time>2011-06-04T07:30:36Z</time>
      </trkpt>
      <trkpt lat="45.29165" lon="5.82079">
        <ele>1425.2917480469</ele>
        <time>2011-06-04T07:30:37Z</time>
      </trkpt>
      <trkpt lat="45.29159" lon="5.82078">
        <ele>1425.7724609375</ele>
        <time>2011-06-04T07:30:40Z</time>
      </trkpt>
      <trkpt lat="45.29151" lon="5.82076">
        <ele>1425.2917480469</ele>
        <time>2011-06-04T07:30:44Z</time>
      </trkpt>
      <trkpt lat="45.29144" lon="5.82074">
        <ele>1425.7724609375</ele>
        <time>2011-06-04T07:30:47Z</time>
      </trkpt>
      <trkpt lat="45.29134" lon="5.82081">
        <ele>1427.2145996094</ele>
        <time>2011-06-04T07:30:52Z</time>
      </trkpt>
      <trkpt lat="45.29124" lon="5.82086">
        <ele>1427.2145996094</ele>
        <time>2011-06-04T07:30:57Z</time>
      </trkpt>
      <trkpt lat="45.2911" lon="5.82084">
        <ele>1427.2145996094</ele>
        <time>2011-06-04T07:31:03Z</time>
      </trkpt>
      <trkpt lat="45.29101" lon="5.82083">
        <ele>1425.7724609375</ele>
        <time>2011-06-04T07:31:07Z</time>
      </trkpt>
      <trkpt lat="45.29092" lon="5.82089">
        <ele>1426.7338867188</ele>
        <time>2011-06-04T07:31:12Z</time>
      </trkpt>
      <trkpt lat="45.29084" lon="5.821">
        <ele>1422.888671875</ele>
        <time>2011-06-04T07:31:18Z</time>
      </trkpt>
      <trkpt lat="45.2908" lon="5.82104">
        <ele>1425.7724609375</ele>
        <time>2011-06-04T07:31:20Z</time>
      </trkpt>
      <trkpt lat="45.29073" lon="5.82115">
        <ele>1428.6564941406</ele>
        <time>2011-06-04T07:31:25Z</time>
      </trkpt>
      <trkpt lat="45.29064" lon="5.8212">
        <ele>1431.0598144531</ele>
        <time>2011-06-04T07:31:30Z</time>
      </trkpt>
      <trkpt lat="45.29055" lon="5.82124">
        <ele>1427.2145996094</ele>
        <time>2011-06-04T07:31:36Z</time>
      </trkpt>
      <trkpt lat="45.29047" lon="5.82122">
        <ele>1430.0983886719</ele>
        <time>2011-06-04T07:31:40Z</time>
      </trkpt>
      <trkpt lat="45.29044" lon="5.82123">
        <ele>1431.0598144531</ele>
        <time>2011-06-04T07:31:42Z</time>
      </trkpt>
      <trkpt lat="45.29036" lon="5.8212">
        <ele>1432.9821777344</ele>
        <time>2011-06-04T07:31:47Z</time>
      </trkpt>
      <trkpt lat="45.29024" lon="5.8212">
        <ele>1426.7338867188</ele>
        <time>2011-06-04T07:31:54Z</time>
      </trkpt>
      <trkpt lat="45.29018" lon="5.8212">
        <ele>1419.0432128906</ele>
        <time>2011-06-04T07:31:59Z</time>
      </trkpt>
      <trkpt lat="45.29012" lon="5.82123">
        <ele>1416.1591796875</ele>
        <time>2011-06-04T07:32:03Z</time>
      </trkpt>
      <trkpt lat="45.28997" lon="5.82124">
        <ele>1417.6010742188</ele>
        <time>2011-06-04T07:32:09Z</time>
      </trkpt>
      <trkpt lat="45.28996" lon="5.82125">
        <ele>1417.6010742188</ele>
        <time>2011-06-04T07:32:10Z</time>
      </trkpt>
      <trkpt lat="45.28982" lon="5.82119">
        <ele>1421.4465332031</ele>
        <time>2011-06-04T07:32:17Z</time>
      </trkpt>
      <trkpt lat="45.28971" lon="5.82118">
        <ele>1426.7338867188</ele>
        <time>2011-06-04T07:32:22Z</time>
      </trkpt>
      <trkpt lat="45.28967" lon="5.82117">
        <ele>1428.6564941406</ele>
        <time>2011-06-04T07:32:24Z</time>
      </trkpt>
      <trkpt lat="45.2896" lon="5.82118">
        <ele>1428.6564941406</ele>
        <time>2011-06-04T07:32:29Z</time>
      </trkpt>
      <trkpt lat="45.28955" lon="5.82118">
        <ele>1432.5017089844</ele>
        <time>2011-06-04T07:32:33Z</time>
      </trkpt>
      <trkpt lat="45.2895" lon="5.82113">
        <ele>1433.462890625</ele>
        <time>2011-06-04T07:32:38Z</time>
      </trkpt>
      <trkpt lat="45.28944" lon="5.82109">
        <ele>1434.9050292969</ele>
        <time>2011-06-04T07:32:45Z</time>
      </trkpt>
      <trkpt lat="45.28943" lon="5.82107">
        <ele>1437.3083496094</ele>
        <time>2011-06-04T07:32:46Z</time>
      </trkpt>
      <trkpt lat="45.28938" lon="5.82103">
        <ele>1439.7116699219</ele>
        <time>2011-06-04T07:32:51Z</time>
      </trkpt>
      <trkpt lat="45.28934" lon="5.821">
        <ele>1439.2309570312</ele>
        <time>2011-06-04T07:32:55Z</time>
      </trkpt>
      <trkpt lat="45.28932" lon="5.82101">
        <ele>1443.076171875</ele>
        <time>2011-06-04T07:33:02Z</time>
      </trkpt>
      <trkpt lat="45.28926" lon="5.82098">
        <ele>1447.8828125</ele>
        <time>2011-06-04T07:33:08Z</time>
      </trkpt>
      <trkpt lat="45.28922" lon="5.82096">
        <ele>1450.7666015625</ele>
        <time>2011-06-04T07:33:11Z</time>
      </trkpt>
      <trkpt lat="45.28913" lon="5.82094">
        <ele>1448.8439941406</ele>
        <time>2011-06-04T07:33:16Z</time>
      </trkpt>
      <trkpt lat="45.28901" lon="5.8209">
        <ele>1452.689453125</ele>
        <time>2011-06-04T07:33:24Z</time>
      </trkpt>
      <trkpt lat="45.28894" lon="5.82082">
        <ele>1450.2861328125</ele>
        <time>2011-06-04T07:33:30Z</time>
      </trkpt>
      <trkpt lat="45.28891" lon="5.82078">
        <ele>1449.8054199219</ele>
        <time>2011-06-04T07:33:33Z</time>
      </trkpt>
      <trkpt lat="45.28884" lon="5.82072">
        <ele>1443.5568847656</ele>
        <time>2011-06-04T07:33:39Z</time>
      </trkpt>
      <trkpt lat="45.28884" lon="5.82071">
        <ele>1442.595703125</ele>
        <time>2011-06-04T07:33:40Z</time>
      </trkpt>
      <trkpt lat="45.28881" lon="5.82067">
        <ele>1438.7504882812</ele>
        <time>2011-06-04T07:33:43Z</time>
      </trkpt>
      <trkpt lat="45.28872" lon="5.82059">
        <ele>1436.3471679688</ele>
        <time>2011-06-04T07:33:49Z</time>
      </trkpt>
      <trkpt lat="45.2887" lon="5.8205">
        <ele>1433.9436035156</ele>
        <time>2011-06-04T07:33:53Z</time>
      </trkpt>
      <trkpt lat="45.28863" lon="5.82048">
        <ele>1429.6176757812</ele>
        <time>2011-06-04T07:33:57Z</time>
      </trkpt>
      <trkpt lat="45.28856" lon="5.82044">
        <ele>1428.6564941406</ele>
        <time>2011-06-04T07:34:00Z</time>
      </trkpt>
      <trkpt lat="45.28844" lon="5.82045">
        <ele>1426.7338867188</ele>
        <time>2011-06-04T07:34:05Z</time>
      </trkpt>
      <trkpt lat="45.28831" lon="5.82049">
        <ele>1428.17578125</ele>
        <time>2011-06-04T07:34:11Z</time>
      </trkpt>
      <trkpt lat="45.28827" lon="5.82051">
        <ele>1429.6176757812</ele>
        <time>2011-06-04T07:34:13Z</time>
      </trkpt>
      <trkpt lat="45.28821" lon="5.82055">
        <ele>1431.5402832031</ele>
        <time>2011-06-04T07:34:16Z</time>
      </trkpt>
      <trkpt lat="45.28812" lon="5.82059">
        <ele>1434.4243164062</ele>
        <time>2011-06-04T07:34:20Z</time>
      </trkpt>
      <trkpt lat="45.28799" lon="5.82056">
        <ele>1433.462890625</ele>
        <time>2011-06-04T07:34:25Z</time>
      </trkpt>
      <trkpt lat="45.28794" lon="5.82054">
        <ele>1431.0598144531</ele>
        <time>2011-06-04T07:34:27Z</time>
      </trkpt>
      <trkpt lat="45.28783" lon="5.82059">
        <ele>1426.7338867188</ele>
        <time>2011-06-04T07:34:33Z</time>
      </trkpt>
      <trkpt lat="45.28782" lon="5.8206">
        <ele>1425.7724609375</ele>
        <time>2011-06-04T07:34:34Z</time>
      </trkpt>
      <trkpt lat="45.28772" lon="5.82064">
        <ele>1427.2145996094</ele>
        <time>2011-06-04T07:34:38Z</time>
      </trkpt>
      <trkpt lat="45.28768" lon="5.82065">
        <ele>1426.7338867188</ele>
        <time>2011-06-04T07:34:40Z</time>
      </trkpt>
      <trkpt lat="45.28759" lon="5.82068">
        <ele>1424.8112792969</ele>
        <time>2011-06-04T07:34:45Z</time>
      </trkpt>
      <trkpt lat="45.28751" lon="5.82068">
        <ele>1421.4465332031</ele>
        <time>2011-06-04T07:34:49Z</time>
      </trkpt>
      <trkpt lat="45.28745" lon="5.8207">
        <ele>1422.4079589844</ele>
        <time>2011-06-04T07:34:52Z</time>
      </trkpt>
      <trkpt lat="45.28741" lon="5.82072">
        <ele>1420.0046386719</ele>
        <time>2011-06-04T07:34:54Z</time>
      </trkpt>
      <trkpt lat="45.28732" lon="5.82077">
        <ele>1419.5239257812</ele>
        <time>2011-06-04T07:34:59Z</time>
      </trkpt>
      <trkpt lat="45.28725" lon="5.82077">
        <ele>1418.5625</ele>
        <time>2011-06-04T07:35:02Z</time>
      </trkpt>
      <trkpt lat="45.28713" lon="5.82075">
        <ele>1418.0817871094</ele>
        <time>2011-06-04T07:35:08Z</time>
      </trkpt>
      <trkpt lat="45.28703" lon="5.82071">
        <ele>1417.1206054688</ele>
        <time>2011-06-04T07:35:13Z</time>
      </trkpt>
      <trkpt lat="45.28693" lon="5.82067">
        <ele>1419.0432128906</ele>
        <time>2011-06-04T07:35:17Z</time>
      </trkpt>
      <trkpt lat="45.28679" lon="5.82064">
        <ele>1420.0046386719</ele>
        <time>2011-06-04T07:35:23Z</time>
      </trkpt>
      <trkpt lat="45.28669" lon="5.82062">
        <ele>1419.5239257812</ele>
        <time>2011-06-04T07:35:27Z</time>
      </trkpt>
      <trkpt lat="45.28661" lon="5.82061">
        <ele>1419.5239257812</ele>
        <time>2011-06-04T07:35:31Z</time>
      </trkpt>
      <trkpt lat="45.28645" lon="5.82064">
        <ele>1425.2917480469</ele>
        <time>2011-06-04T07:35:37Z</time>
      </trkpt>
      <trkpt lat="45.28635" lon="5.82061">
        <ele>1426.7338867188</ele>
        <time>2011-06-04T07:35:41Z</time>
      </trkpt>
      <trkpt lat="45.28623" lon="5.82045">
        <ele>1422.888671875</ele>
        <time>2011-06-04T07:35:47Z</time>
      </trkpt>
      <trkpt lat="45.28617" lon="5.82042">
        <ele>1423.3693847656</ele>
        <time>2011-06-04T07:35:49Z</time>
      </trkpt>
      <trkpt lat="45.28602" lon="5.82033">
        <ele>1423.3693847656</ele>
        <time>2011-06-04T07:35:56Z</time>
      </trkpt>
      <trkpt lat="45.28589" lon="5.82029">
        <ele>1420.0046386719</ele>
        <time>2011-06-04T07:36:02Z</time>
      </trkpt>
      <trkpt lat="45.2858" lon="5.82028">
        <ele>1417.6010742188</ele>
        <time>2011-06-04T07:36:06Z</time>
      </trkpt>
      <trkpt lat="45.28572" lon="5.82024">
        <ele>1418.0817871094</ele>
        <time>2011-06-04T07:36:11Z</time>
      </trkpt>
      <trkpt lat="45.2856" lon="5.82015">
        <ele>1417.6010742188</ele>
        <time>2011-06-04T07:36:17Z</time>
      </trkpt>
      <trkpt lat="45.28548" lon="5.82008">
        <ele>1419.0432128906</ele>
        <time>2011-06-04T07:36:23Z</time>
      </trkpt>
      <trkpt lat="45.28539" lon="5.82006">
        <ele>1418.5625</ele>
        <time>2011-06-04T07:36:27Z</time>
      </trkpt>
      <trkpt lat="45.2853" lon="5.82003">
        <ele>1419.0432128906</ele>
        <time>2011-06-04T07:36:31Z</time>
      </trkpt>
      <trkpt lat="45.28521" lon="5.81987">
        <ele>1420.9660644531</ele>
        <time>2011-06-04T07:36:38Z</time>
      </trkpt>
      <trkpt lat="45.28513" lon="5.81972">
        <ele>1421.4465332031</ele>
        <time>2011-06-04T07:36:44Z</time>
      </trkpt>
      <trkpt lat="45.2851" lon="5.81965">
        <ele>1420.4853515625</ele>
        <time>2011-06-04T07:36:47Z</time>
      </trkpt>
      <trkpt lat="45.28503" lon="5.81953">
        <ele>1421.9272460938</ele>
        <time>2011-06-04T07:36:53Z</time>
      </trkpt>
      <trkpt lat="45.28495" lon="5.81947">
        <ele>1423.8498535156</ele>
        <time>2011-06-04T07:36:57Z</time>
      </trkpt>
      <trkpt lat="45.28489" lon="5.8194">
        <ele>1425.7724609375</ele>
        <time>2011-06-04T07:37:01Z</time>
      </trkpt>
      <trkpt lat="45.28481" lon="5.81928">
        <ele>1427.2145996094</ele>
        <time>2011-06-04T07:37:07Z</time>
      </trkpt>
      <trkpt lat="45.28479" lon="5.81927">
        <ele>1429.1369628906</ele>
        <time>2011-06-04T07:37:08Z</time>
      </trkpt>
      <trkpt lat="45.28469" lon="5.81917">
        <ele>1431.5402832031</ele>
        <time>2011-06-04T07:37:17Z</time>
      </trkpt>
      <trkpt lat="45.28467" lon="5.81915">
        <ele>1430.0983886719</ele>
        <time>2011-06-04T07:37:19Z</time>
      </trkpt>
      <trkpt lat="45.2846" lon="5.81911">
        <ele>1430.0983886719</ele>
        <time>2011-06-04T07:37:24Z</time>
      </trkpt>
      <trkpt lat="45.28456" lon="5.81909">
        <ele>1431.5402832031</ele>
        <time>2011-06-04T07:37:27Z</time>
      </trkpt>
      <trkpt lat="45.28446" lon="5.81907">
        <ele>1432.9821777344</ele>
        <time>2011-06-04T07:37:35Z</time>
      </trkpt>
      <trkpt lat="45.28436" lon="5.81903">
        <ele>1433.9436035156</ele>
        <time>2011-06-04T07:37:41Z</time>
      </trkpt>
      <trkpt lat="45.28429" lon="5.81899">
        <ele>1433.9436035156</ele>
        <time>2011-06-04T07:37:45Z</time>
      </trkpt>
      <trkpt lat="45.28417" lon="5.81896">
        <ele>1434.9050292969</ele>
        <time>2011-06-04T07:37:51Z</time>
      </trkpt>
      <trkpt lat="45.28407" lon="5.8189">
        <ele>1434.9050292969</ele>
        <time>2011-06-04T07:37:56Z</time>
      </trkpt>
      <trkpt lat="45.28391" lon="5.81889">
        <ele>1439.2309570312</ele>
        <time>2011-06-04T07:38:03Z</time>
      </trkpt>
      <trkpt lat="45.28389" lon="5.81888">
        <ele>1439.2309570312</ele>
        <time>2011-06-04T07:38:04Z</time>
      </trkpt>
      <trkpt lat="45.28379" lon="5.81883">
        <ele>1440.1923828125</ele>
        <time>2011-06-04T07:38:09Z</time>
      </trkpt>
      <trkpt lat="45.28368" lon="5.81874">
        <ele>1437.7890625</ele>
        <time>2011-06-04T07:38:14Z</time>
      </trkpt>
      <trkpt lat="45.28362" lon="5.81867">
        <ele>1436.3471679688</ele>
        <time>2011-06-04T07:38:17Z</time>
      </trkpt>
      <trkpt lat="45.2835" lon="5.81852">
        <ele>1432.9821777344</ele>
        <time>2011-06-04T07:38:23Z</time>
      </trkpt>
      <trkpt lat="45.28347" lon="5.8185">
        <ele>1432.9821777344</ele>
        <time>2011-06-04T07:38:24Z</time>
      </trkpt>
      <trkpt lat="45.28333" lon="5.81832">
        <ele>1430.5791015625</ele>
        <time>2011-06-04T07:38:32Z</time>
      </trkpt>
      <trkpt lat="45.28323" lon="5.81825">
        <ele>1428.6564941406</ele>
        <time>2011-06-04T07:38:36Z</time>
      </trkpt>
      <trkpt lat="45.28312" lon="5.81813">
        <ele>1426.2531738281</ele>
        <time>2011-06-04T07:38:41Z</time>
      </trkpt>
      <trkpt lat="45.283" lon="5.81803">
        <ele>1421.4465332031</ele>
        <time>2011-06-04T07:38:46Z</time>
      </trkpt>
      <trkpt lat="45.28289" lon="5.81794">
        <ele>1422.888671875</ele>
        <time>2011-06-04T07:38:50Z</time>
      </trkpt>
      <trkpt lat="45.28278" lon="5.81782">
        <ele>1421.4465332031</ele>
        <time>2011-06-04T07:38:55Z</time>
      </trkpt>
      <trkpt lat="45.28273" lon="5.81778">
        <ele>1419.0432128906</ele>
        <time>2011-06-04T07:38:57Z</time>
      </trkpt>
      <trkpt lat="45.28265" lon="5.81769">
        <ele>1419.5239257812</ele>
        <time>2011-06-04T07:39:01Z</time>
      </trkpt>
      <trkpt lat="45.2826" lon="5.81768">
        <ele>1422.4079589844</ele>
        <time>2011-06-04T07:39:04Z</time>
      </trkpt>
      <trkpt lat="45.28249" lon="5.81764">
        <ele>1422.888671875</ele>
        <time>2011-06-04T07:39:12Z</time>
      </trkpt>
      <trkpt lat="45.28242" lon="5.81761">
        <ele>1426.2531738281</ele>
        <time>2011-06-04T07:39:17Z</time>
      </trkpt>
      <trkpt lat="45.28235" lon="5.81757">
        <ele>1428.6564941406</ele>
        <time>2011-06-04T07:39:22Z</time>
      </trkpt>
      <trkpt lat="45.28226" lon="5.8175">
        <ele>1429.6176757812</ele>
        <time>2011-06-04T07:39:28Z</time>
      </trkpt>
      <trkpt lat="45.28221" lon="5.81746">
        <ele>1429.6176757812</ele>
        <time>2011-06-04T07:39:31Z</time>
      </trkpt>
      <trkpt lat="45.28215" lon="5.81737">
        <ele>1428.17578125</ele>
        <time>2011-06-04T07:39:36Z</time>
      </trkpt>
      <trkpt lat="45.28207" lon="5.81733">
        <ele>1432.0209960938</ele>
        <time>2011-06-04T07:39:42Z</time>
      </trkpt>
      <trkpt lat="45.28201" lon="5.81729">
        <ele>1431.5402832031</ele>
        <time>2011-06-04T07:39:48Z</time>
      </trkpt>
      <trkpt lat="45.28198" lon="5.81728">
        <ele>1431.5402832031</ele>
        <time>2011-06-04T07:39:51Z</time>
      </trkpt>
      <trkpt lat="45.28194" lon="5.81729">
        <ele>1433.462890625</ele>
        <time>2011-06-04T07:39:55Z</time>
      </trkpt>
      <trkpt lat="45.28187" lon="5.81727">
        <ele>1436.3471679688</ele>
        <time>2011-06-04T07:40:02Z</time>
      </trkpt>
      <trkpt lat="45.28181" lon="5.81726">
        <ele>1439.2309570312</ele>
        <time>2011-06-04T07:40:08Z</time>
      </trkpt>
      <trkpt lat="45.28176" lon="5.81724">
        <ele>1441.1535644531</ele>
        <time>2011-06-04T07:40:14Z</time>
      </trkpt>
      <trkpt lat="45.28169" lon="5.81726">
        <ele>1444.5180664062</ele>
        <time>2011-06-04T07:40:18Z</time>
      </trkpt>
      <trkpt lat="45.28164" lon="5.81722">
        <ele>1443.5568847656</ele>
        <time>2011-06-04T07:40:25Z</time>
      </trkpt>
      <trkpt lat="45.28159" lon="5.81717">
        <ele>1444.0375976562</ele>
        <time>2011-06-04T07:40:31Z</time>
      </trkpt>
      <trkpt lat="45.28154" lon="5.81715">
        <ele>1444.0375976562</ele>
        <time>2011-06-04T07:40:36Z</time>
      </trkpt>
      <trkpt lat="45.28148" lon="5.81711">
        <ele>1444.0375976562</ele>
        <time>2011-06-04T07:40:42Z</time>
      </trkpt>
      <trkpt lat="45.28145" lon="5.8171">
        <ele>1445.4794921875</ele>
        <time>2011-06-04T07:40:46Z</time>
      </trkpt>
      <trkpt lat="45.28138" lon="5.81706">
        <ele>1445.9602050781</ele>
        <time>2011-06-04T07:40:54Z</time>
      </trkpt>
      <trkpt lat="45.28131" lon="5.81702">
        <ele>1449.3247070312</ele>
        <time>2011-06-04T07:41:02Z</time>
      </trkpt>
      <trkpt lat="45.28126" lon="5.81701">
        <ele>1451.2473144531</ele>
        <time>2011-06-04T07:41:09Z</time>
      </trkpt>
      <trkpt lat="45.28121" lon="5.81702">
        <ele>1453.1701660156</ele>
        <time>2011-06-04T07:41:15Z</time>
      </trkpt>
      <trkpt lat="45.28117" lon="5.81704">
        <ele>1454.6120605469</ele>
        <time>2011-06-04T07:41:21Z</time>
      </trkpt>
      <trkpt lat="45.2811" lon="5.81703">
        <ele>1456.0539550781</ele>
        <time>2011-06-04T07:41:29Z</time>
      </trkpt>
      <trkpt lat="45.28104" lon="5.81701">
        <ele>1456.0539550781</ele>
        <time>2011-06-04T07:41:36Z</time>
      </trkpt>
      <trkpt lat="45.28098" lon="5.817">
        <ele>1457.49609375</ele>
        <time>2011-06-04T07:41:44Z</time>
      </trkpt>
      <trkpt lat="45.28094" lon="5.81696">
        <ele>1459.4187011719</ele>
        <time>2011-06-04T07:41:50Z</time>
      </trkpt>
      <trkpt lat="45.28091" lon="5.81693">
        <ele>1461.3413085938</ele>
        <time>2011-06-04T07:41:56Z</time>
      </trkpt>
      <trkpt lat="45.28093" lon="5.81687">
        <ele>1461.8220214844</ele>
        <time>2011-06-04T07:42:02Z</time>
      </trkpt>
      <trkpt lat="45.28093" lon="5.81679">
        <ele>1462.783203125</ele>
        <time>2011-06-04T07:42:09Z</time>
      </trkpt>
      <trkpt lat="45.28091" lon="5.81675">
        <ele>1464.2250976562</ele>
        <time>2011-06-04T07:42:14Z</time>
      </trkpt>
      <trkpt lat="45.28091" lon="5.81668">
        <ele>1464.7058105469</ele>
        <time>2011-06-04T07:42:19Z</time>
      </trkpt>
      <trkpt lat="45.28091" lon="5.81661">
        <ele>1466.1477050781</ele>
        <time>2011-06-04T07:42:25Z</time>
      </trkpt>
      <trkpt lat="45.2809" lon="5.81655">
        <ele>1467.5895996094</ele>
        <time>2011-06-04T07:42:32Z</time>
      </trkpt>
      <trkpt lat="45.28085" lon="5.81651">
        <ele>1468.5512695312</ele>
        <time>2011-06-04T07:42:37Z</time>
      </trkpt>
      <trkpt lat="45.28084" lon="5.8165">
        <ele>1468.5512695312</ele>
        <time>2011-06-04T07:42:38Z</time>
      </trkpt>
      <trkpt lat="45.28078" lon="5.81642">
        <ele>1470.4738769531</ele>
        <time>2011-06-04T07:42:45Z</time>
      </trkpt>
      <trkpt lat="45.28076" lon="5.81635">
        <ele>1471.9157714844</ele>
        <time>2011-06-04T07:42:50Z</time>
      </trkpt>
      <trkpt lat="45.28075" lon="5.81628">
        <ele>1474.3190917969</ele>
        <time>2011-06-04T07:42:58Z</time>
      </trkpt>
      <trkpt lat="45.28075" lon="5.81623">
        <ele>1476.7224121094</ele>
        <time>2011-06-04T07:43:04Z</time>
      </trkpt>
      <trkpt lat="45.28071" lon="5.81619">
        <ele>1478.6450195312</ele>
        <time>2011-06-04T07:43:10Z</time>
      </trkpt>
      <trkpt lat="45.28066" lon="5.81614">
        <ele>1480.0869140625</ele>
        <time>2011-06-04T07:43:15Z</time>
      </trkpt>
      <trkpt lat="45.28055" lon="5.81603">
        <ele>1481.5288085938</ele>
        <time>2011-06-04T07:43:25Z</time>
      </trkpt>
      <trkpt lat="45.28051" lon="5.81598">
        <ele>1482.0095214844</ele>
        <time>2011-06-04T07:43:29Z</time>
      </trkpt>
      <trkpt lat="45.28047" lon="5.81591">
        <ele>1482.0095214844</ele>
        <time>2011-06-04T07:43:35Z</time>
      </trkpt>
      <trkpt lat="45.28044" lon="5.81584">
        <ele>1482.0095214844</ele>
        <time>2011-06-04T07:43:39Z</time>
      </trkpt>
      <trkpt lat="45.2804" lon="5.8158">
        <ele>1482.490234375</ele>
        <time>2011-06-04T07:43:43Z</time>
      </trkpt>
      <trkpt lat="45.28032" lon="5.81573">
        <ele>1484.4130859375</ele>
        <time>2011-06-04T07:43:50Z</time>
      </trkpt>
      <trkpt lat="45.2803" lon="5.81571">
        <ele>1484.4130859375</ele>
        <time>2011-06-04T07:43:52Z</time>
      </trkpt>
      <trkpt lat="45.28024" lon="5.81561">
        <ele>1486.8161621094</ele>
        <time>2011-06-04T07:44:00Z</time>
      </trkpt>
      <trkpt lat="45.28021" lon="5.81552">
        <ele>1488.7390136719</ele>
        <time>2011-06-04T07:44:06Z</time>
      </trkpt>
      <trkpt lat="45.2802" lon="5.81545">
        <ele>1490.6613769531</ele>
        <time>2011-06-04T07:44:13Z</time>
      </trkpt>
      <trkpt lat="45.2802" lon="5.81539">
        <ele>1491.6228027344</ele>
        <time>2011-06-04T07:44:19Z</time>
      </trkpt>
      <trkpt lat="45.28017" lon="5.81533">
        <ele>1492.103515625</ele>
        <time>2011-06-04T07:44:26Z</time>
      </trkpt>
      <trkpt lat="45.28014" lon="5.81527">
        <ele>1493.0646972656</ele>
        <time>2011-06-04T07:44:32Z</time>
      </trkpt>
      <trkpt lat="45.28012" lon="5.81522">
        <ele>1493.0646972656</ele>
        <time>2011-06-04T07:44:36Z</time>
      </trkpt>
      <trkpt lat="45.28009" lon="5.81514">
        <ele>1492.5842285156</ele>
        <time>2011-06-04T07:44:40Z</time>
      </trkpt>
      <trkpt lat="45.28008" lon="5.81512">
        <ele>1493.0646972656</ele>
        <time>2011-06-04T07:44:41Z</time>
      </trkpt>
      <trkpt lat="45.28008" lon="5.81498">
        <ele>1490.6613769531</ele>
        <time>2011-06-04T07:44:47Z</time>
      </trkpt>
      <trkpt lat="45.28008" lon="5.81495">
        <ele>1489.7001953125</ele>
        <time>2011-06-04T07:44:48Z</time>
      </trkpt>
      <trkpt lat="45.28007" lon="5.81485">
        <ele>1485.8549804688</ele>
        <time>2011-06-04T07:44:51Z</time>
      </trkpt>
      <trkpt lat="45.28011" lon="5.81469">
        <ele>1480.0869140625</ele>
        <time>2011-06-04T07:44:58Z</time>
      </trkpt>
      <trkpt lat="45.28013" lon="5.81462">
        <ele>1479.6062011719</ele>
        <time>2011-06-04T07:45:01Z</time>
      </trkpt>
      <trkpt lat="45.28014" lon="5.8144">
        <ele>1478.1643066406</ele>
        <time>2011-06-04T07:45:09Z</time>
      </trkpt>
      <trkpt lat="45.28014" lon="5.81422">
        <ele>1482.0095214844</ele>
        <time>2011-06-04T07:45:15Z</time>
      </trkpt>
      <trkpt lat="45.28018" lon="5.81397">
        <ele>1486.8161621094</ele>
        <time>2011-06-04T07:45:22Z</time>
      </trkpt>
      <trkpt lat="45.28021" lon="5.81374">
        <ele>1489.2194824219</ele>
        <time>2011-06-04T07:45:28Z</time>
      </trkpt>
      <trkpt lat="45.28022" lon="5.81357">
        <ele>1490.1809082031</ele>
        <time>2011-06-04T07:45:33Z</time>
      </trkpt>
      <trkpt lat="45.28023" lon="5.81337">
        <ele>1489.2194824219</ele>
        <time>2011-06-04T07:45:38Z</time>
      </trkpt>
      <trkpt lat="45.28026" lon="5.81318">
        <ele>1487.296875</ele>
        <time>2011-06-04T07:45:43Z</time>
      </trkpt>
      <trkpt lat="45.28031" lon="5.813">
        <ele>1485.3742675781</ele>
        <time>2011-06-04T07:45:48Z</time>
      </trkpt>
      <trkpt lat="45.28037" lon="5.81283">
        <ele>1483.4514160156</ele>
        <time>2011-06-04T07:45:53Z</time>
      </trkpt>
      <trkpt lat="45.28041" lon="5.81268">
        <ele>1479.6062011719</ele>
        <time>2011-06-04T07:45:58Z</time>
      </trkpt>
      <trkpt lat="45.28046" lon="5.8125">
        <ele>1476.7224121094</ele>
        <time>2011-06-04T07:46:03Z</time>
      </trkpt>
      <trkpt lat="45.28054" lon="5.81227">
        <ele>1471.4350585938</ele>
        <time>2011-06-04T07:46:09Z</time>
      </trkpt>
      <trkpt lat="45.28061" lon="5.8121">
        <ele>1466.6284179688</ele>
        <time>2011-06-04T07:46:13Z</time>
      </trkpt>
      <trkpt lat="45.28067" lon="5.81191">
        <ele>1463.7443847656</ele>
        <time>2011-06-04T07:46:18Z</time>
      </trkpt>
      <trkpt lat="45.28072" lon="5.81174">
        <ele>1460.3798828125</ele>
        <time>2011-06-04T07:46:22Z</time>
      </trkpt>
      <trkpt lat="45.2808" lon="5.81156">
        <ele>1455.0927734375</ele>
        <time>2011-06-04T07:46:26Z</time>
      </trkpt>
      <trkpt lat="45.28087" lon="5.81139">
        <ele>1450.2861328125</ele>
        <time>2011-06-04T07:46:30Z</time>
      </trkpt>
      <trkpt lat="45.28097" lon="5.81122">
        <ele>1445.4794921875</ele>
        <time>2011-06-04T07:46:35Z</time>
      </trkpt>
      <trkpt lat="45.28107" lon="5.81108">
        <ele>1442.1149902344</ele>
        <time>2011-06-04T07:46:40Z</time>
      </trkpt>
      <trkpt lat="45.28114" lon="5.81095">
        <ele>1438.2697753906</ele>
        <time>2011-06-04T07:46:44Z</time>
      </trkpt>
      <trkpt lat="45.28122" lon="5.81079">
        <ele>1433.9436035156</ele>
        <time>2011-06-04T07:46:48Z</time>
      </trkpt>
      <trkpt lat="45.28131" lon="5.81062">
        <ele>1430.0983886719</ele>
        <time>2011-06-04T07:46:53Z</time>
      </trkpt>
      <trkpt lat="45.28138" lon="5.8104">
        <ele>1427.6950683594</ele>
        <time>2011-06-04T07:46:59Z</time>
      </trkpt>
      <trkpt lat="45.28142" lon="5.81022">
        <ele>1426.7338867188</ele>
        <time>2011-06-04T07:47:04Z</time>
      </trkpt>
      <trkpt lat="45.28148" lon="5.81004">
        <ele>1424.8112792969</ele>
        <time>2011-06-04T07:47:09Z</time>
      </trkpt>
      <trkpt lat="45.28152" lon="5.80989">
        <ele>1423.3693847656</ele>
        <time>2011-06-04T07:47:13Z</time>
      </trkpt>
      <trkpt lat="45.28156" lon="5.8097">
        <ele>1421.9272460938</ele>
        <time>2011-06-04T07:47:18Z</time>
      </trkpt>
      <trkpt lat="45.28157" lon="5.80966">
        <ele>1421.9272460938</ele>
        <time>2011-06-04T07:47:19Z</time>
      </trkpt>
      <trkpt lat="45.28156" lon="5.80944">
        <ele>1419.5239257812</ele>
        <time>2011-06-04T07:47:25Z</time>
      </trkpt>
      <trkpt lat="45.28158" lon="5.80925">
        <ele>1418.0817871094</ele>
        <time>2011-06-04T07:47:30Z</time>
      </trkpt>
      <trkpt lat="45.2816" lon="5.80907">
        <ele>1418.0817871094</ele>
        <time>2011-06-04T07:47:34Z</time>
      </trkpt>
      <trkpt lat="45.28165" lon="5.80891">
        <ele>1417.1206054688</ele>
        <time>2011-06-04T07:47:38Z</time>
      </trkpt>
      <trkpt lat="45.28172" lon="5.8087">
        <ele>1416.1591796875</ele>
        <time>2011-06-04T07:47:44Z</time>
      </trkpt>
      <trkpt lat="45.28179" lon="5.80849">
        <ele>1415.1979980469</ele>
        <time>2011-06-04T07:47:50Z</time>
      </trkpt>
      <trkpt lat="45.28184" lon="5.80832">
        <ele>1414.7172851562</ele>
        <time>2011-06-04T07:47:55Z</time>
      </trkpt>
      <trkpt lat="45.28189" lon="5.80814">
        <ele>1416.1591796875</ele>
        <time>2011-06-04T07:48:01Z</time>
      </trkpt>
      <trkpt lat="45.28194" lon="5.808">
        <ele>1417.6010742188</ele>
        <time>2011-06-04T07:48:06Z</time>
      </trkpt>
      <trkpt lat="45.28201" lon="5.80783">
        <ele>1418.5625</ele>
        <time>2011-06-04T07:48:12Z</time>
      </trkpt>
      <trkpt lat="45.28209" lon="5.80769">
        <ele>1420.0046386719</ele>
        <time>2011-06-04T07:48:18Z</time>
      </trkpt>
      <trkpt lat="45.28215" lon="5.80758">
        <ele>1420.4853515625</ele>
        <time>2011-06-04T07:48:23Z</time>
      </trkpt>
      <trkpt lat="45.2822" lon="5.80749">
        <ele>1421.4465332031</ele>
        <time>2011-06-04T07:48:27Z</time>
      </trkpt>
      <trkpt lat="45.28222" lon="5.80745">
        <ele>1420.9660644531</ele>
        <time>2011-06-04T07:48:29Z</time>
      </trkpt>
      <trkpt lat="45.28227" lon="5.80734">
        <ele>1421.4465332031</ele>
        <time>2011-06-04T07:48:36Z</time>
      </trkpt>
      <trkpt lat="45.28227" lon="5.80732">
        <ele>1422.4079589844</ele>
        <time>2011-06-04T07:48:38Z</time>
      </trkpt>
      <trkpt lat="45.28227" lon="5.80731">
        <ele>1423.3693847656</ele>
        <time>2011-06-04T07:48:40Z</time>
      </trkpt>
      <trkpt lat="45.28231" lon="5.8072">
        <ele>1420.4853515625</ele>
        <time>2011-06-04T07:48:48Z</time>
      </trkpt>
      <trkpt lat="45.28232" lon="5.80709">
        <ele>1415.1979980469</ele>
        <time>2011-06-04T07:48:54Z</time>
      </trkpt>
      <trkpt lat="45.28232" lon="5.80707">
        <ele>1414.2365722656</ele>
        <time>2011-06-04T07:48:55Z</time>
      </trkpt>
      <trkpt lat="45.28236" lon="5.80698">
        <ele>1410.3913574219</ele>
        <time>2011-06-04T07:48:59Z</time>
      </trkpt>
      <trkpt lat="45.28239" lon="5.80684">
        <ele>1408.46875</ele>
        <time>2011-06-04T07:49:05Z</time>
      </trkpt>
      <trkpt lat="45.28245" lon="5.8067">
        <ele>1401.2587890625</ele>
        <time>2011-06-04T07:49:11Z</time>
      </trkpt>
      <trkpt lat="45.28247" lon="5.80662">
        <ele>1397.8942871094</ele>
        <time>2011-06-04T07:49:14Z</time>
      </trkpt>
      <trkpt lat="45.2825" lon="5.80654">
        <ele>1394.5295410156</ele>
        <time>2011-06-04T07:49:17Z</time>
      </trkpt>
      <trkpt lat="45.28252" lon="5.80648">
        <ele>1392.6071777344</ele>
        <time>2011-06-04T07:49:19Z</time>
      </trkpt>
      <trkpt lat="45.28256" lon="5.80637">
        <ele>1395.9716796875</ele>
        <time>2011-06-04T07:49:23Z</time>
      </trkpt>
      <trkpt lat="45.28262" lon="5.80625">
        <ele>1400.2976074219</ele>
        <time>2011-06-04T07:49:30Z</time>
      </trkpt>
      <trkpt lat="45.28265" lon="5.80611">
        <ele>1403.1813964844</ele>
        <time>2011-06-04T07:49:37Z</time>
      </trkpt>
      <trkpt lat="45.28267" lon="5.80609">
        <ele>1405.1042480469</ele>
        <time>2011-06-04T07:49:39Z</time>
      </trkpt>
      <trkpt lat="45.28276" lon="5.80595">
        <ele>1408.46875</ele>
        <time>2011-06-04T07:49:46Z</time>
      </trkpt>
      <trkpt lat="45.28281" lon="5.80586">
        <ele>1408.9494628906</ele>
        <time>2011-06-04T07:49:51Z</time>
      </trkpt>
      <trkpt lat="45.28286" lon="5.80577">
        <ele>1407.5075683594</ele>
        <time>2011-06-04T07:49:55Z</time>
      </trkpt>
      <trkpt lat="45.28287" lon="5.80575">
        <ele>1406.5461425781</ele>
        <time>2011-06-04T07:49:56Z</time>
      </trkpt>
      <trkpt lat="45.28297" lon="5.80558">
        <ele>1403.1813964844</ele>
        <time>2011-06-04T07:50:02Z</time>
      </trkpt>
      <trkpt lat="45.283" lon="5.80554">
        <ele>1401.7395019531</ele>
        <time>2011-06-04T07:50:04Z</time>
      </trkpt>
      <trkpt lat="45.28308" lon="5.80539">
        <ele>1397.4135742188</ele>
        <time>2011-06-04T07:50:10Z</time>
      </trkpt>
      <trkpt lat="45.28312" lon="5.80527">
        <ele>1392.1264648438</ele>
        <time>2011-06-04T07:50:14Z</time>
      </trkpt>
      <trkpt lat="45.28316" lon="5.80509">
        <ele>1399.3361816406</ele>
        <time>2011-06-04T07:50:21Z</time>
      </trkpt>
      <trkpt lat="45.28319" lon="5.805">
        <ele>1399.8168945312</ele>
        <time>2011-06-04T07:50:25Z</time>
      </trkpt>
      <trkpt lat="45.28326" lon="5.80489">
        <ele>1397.4135742188</ele>
        <time>2011-06-04T07:50:30Z</time>
      </trkpt>
      <trkpt lat="45.28328" lon="5.80485">
        <ele>1395.4909667969</ele>
        <time>2011-06-04T07:50:32Z</time>
      </trkpt>
      <trkpt lat="45.28331" lon="5.8048">
        <ele>1392.1264648438</ele>
        <time>2011-06-04T07:50:35Z</time>
      </trkpt>
      <trkpt lat="45.28334" lon="5.80475">
        <ele>1391.1650390625</ele>
        <time>2011-06-04T07:50:42Z</time>
      </trkpt>
      <trkpt lat="45.28337" lon="5.80467">
        <ele>1407.0268554688</ele>
        <time>2011-06-04T07:50:58Z</time>
      </trkpt>
      <trkpt lat="45.28339" lon="5.80461">
        <ele>1405.5849609375</ele>
        <time>2011-06-04T07:51:01Z</time>
      </trkpt>
      <trkpt lat="45.28344" lon="5.80452">
        <ele>1403.662109375</ele>
        <time>2011-06-04T07:51:08Z</time>
      </trkpt>
      <trkpt lat="45.28345" lon="5.80448">
        <ele>1400.7780761719</ele>
        <time>2011-06-04T07:51:12Z</time>
      </trkpt>
      <trkpt lat="45.28343" lon="5.80447">
        <ele>1400.2976074219</ele>
        <time>2011-06-04T07:51:13Z</time>
      </trkpt>
      <trkpt lat="45.28338" lon="5.80446">
        <ele>1397.4135742188</ele>
        <time>2011-06-04T07:51:16Z</time>
      </trkpt>
      <trkpt lat="45.28337" lon="5.80441">
        <ele>1395.4909667969</ele>
        <time>2011-06-04T07:51:20Z</time>
      </trkpt>
      <trkpt lat="45.28346" lon="5.80434">
        <ele>1390.6843261719</ele>
        <time>2011-06-04T07:51:25Z</time>
      </trkpt>
      <trkpt lat="45.2835" lon="5.8043">
        <ele>1389.7231445312</ele>
        <time>2011-06-04T07:51:27Z</time>
      </trkpt>
      <trkpt lat="45.2836" lon="5.80425">
        <ele>1388.7619628906</ele>
        <time>2011-06-04T07:51:32Z</time>
      </trkpt>
      <trkpt lat="45.28366" lon="5.80422">
        <ele>1388.7619628906</ele>
        <time>2011-06-04T07:51:35Z</time>
      </trkpt>
      <trkpt lat="45.28369" lon="5.80418">
        <ele>1388.7619628906</ele>
        <time>2011-06-04T07:51:38Z</time>
      </trkpt>
      <trkpt lat="45.28367" lon="5.80413">
        <ele>1386.3583984375</ele>
        <time>2011-06-04T07:51:43Z</time>
      </trkpt>
      <trkpt lat="45.28365" lon="5.80411">
        <ele>1386.3583984375</ele>
        <time>2011-06-04T07:51:45Z</time>
      </trkpt>
      <trkpt lat="45.28363" lon="5.80408">
        <ele>1382.9936523438</ele>
        <time>2011-06-04T07:51:48Z</time>
      </trkpt>
      <trkpt lat="45.28368" lon="5.80403">
        <ele>1379.1484375</ele>
        <time>2011-06-04T07:51:54Z</time>
      </trkpt>
      <trkpt lat="45.28368" lon="5.80402">
        <ele>1379.1484375</ele>
        <time>2011-06-04T07:51:55Z</time>
      </trkpt>
      <trkpt lat="45.28366" lon="5.80399">
        <ele>1378.1872558594</ele>
        <time>2011-06-04T07:52:00Z</time>
      </trkpt>
      <trkpt lat="45.28367" lon="5.80397">
        <ele>1377.7065429688</ele>
        <time>2011-06-04T07:52:05Z</time>
      </trkpt>
      <trkpt lat="45.2837" lon="5.8039">
        <ele>1378.66796875</ele>
        <time>2011-06-04T07:52:10Z</time>
      </trkpt>
      <trkpt lat="45.28368" lon="5.80385">
        <ele>1378.1872558594</ele>
        <time>2011-06-04T07:52:15Z</time>
      </trkpt>
      <trkpt lat="45.28368" lon="5.80384">
        <ele>1377.7065429688</ele>
        <time>2011-06-04T07:52:16Z</time>
      </trkpt>
      <trkpt lat="45.28372" lon="5.80377">
        <ele>1378.1872558594</ele>
        <time>2011-06-04T07:52:21Z</time>
      </trkpt>
      <trkpt lat="45.28375" lon="5.80372">
        <ele>1381.0712890625</ele>
        <time>2011-06-04T07:52:27Z</time>
      </trkpt>
      <trkpt lat="45.28379" lon="5.80371">
        <ele>1381.5517578125</ele>
        <time>2011-06-04T07:52:34Z</time>
      </trkpt>
      <trkpt lat="45.28381" lon="5.80378">
        <ele>1382.5131835938</ele>
        <time>2011-06-04T07:52:39Z</time>
      </trkpt>
      <trkpt lat="45.28382" lon="5.80382">
        <ele>1382.5131835938</ele>
        <time>2011-06-04T07:52:43Z</time>
      </trkpt>
      <trkpt lat="45.28383" lon="5.80381">
        <ele>1383.4743652344</ele>
        <time>2011-06-04T07:52:47Z</time>
      </trkpt>
      <trkpt lat="45.28387" lon="5.80375">
        <ele>1384.9165039062</ele>
        <time>2011-06-04T07:52:52Z</time>
      </trkpt>
      <trkpt lat="45.28389" lon="5.80375">
        <ele>1386.3583984375</ele>
        <time>2011-06-04T07:52:58Z</time>
      </trkpt>
      <trkpt lat="45.28391" lon="5.80376">
        <ele>1387.8002929688</ele>
        <time>2011-06-04T07:53:04Z</time>
      </trkpt>
      <trkpt lat="45.28395" lon="5.80366">
        <ele>1387.8002929688</ele>
        <time>2011-06-04T07:53:11Z</time>
      </trkpt>
      <trkpt lat="45.28395" lon="5.80364">
        <ele>1386.8388671875</ele>
        <time>2011-06-04T07:53:13Z</time>
      </trkpt>
      <trkpt lat="45.28396" lon="5.80359">
        <ele>1385.8776855469</ele>
        <time>2011-06-04T07:53:16Z</time>
      </trkpt>
      <trkpt lat="45.28397" lon="5.80354">
        <ele>1384.4357910156</ele>
        <time>2011-06-04T07:53:20Z</time>
      </trkpt>
      <trkpt lat="45.28398" lon="5.80343">
        <ele>1384.4357910156</ele>
        <time>2011-06-04T07:53:29Z</time>
      </trkpt>
      <trkpt lat="45.28398" lon="5.80338">
        <ele>1383.955078125</ele>
        <time>2011-06-04T07:53:34Z</time>
      </trkpt>
      <trkpt lat="45.28401" lon="5.80331">
        <ele>1385.8776855469</ele>
        <time>2011-06-04T07:53:40Z</time>
      </trkpt>
      <trkpt lat="45.28402" lon="5.8033">
        <ele>1385.8776855469</ele>
        <time>2011-06-04T07:53:41Z</time>
      </trkpt>
      <trkpt lat="45.2841" lon="5.80323">
        <ele>1387.3195800781</ele>
        <time>2011-06-04T07:53:47Z</time>
      </trkpt>
      <trkpt lat="45.28411" lon="5.80322">
        <ele>1387.3195800781</ele>
        <time>2011-06-04T07:53:48Z</time>
      </trkpt>
      <trkpt lat="45.28421" lon="5.80309">
        <ele>1386.3583984375</ele>
        <time>2011-06-04T07:53:54Z</time>
      </trkpt>
      <trkpt lat="45.28425" lon="5.803">
        <ele>1384.4357910156</ele>
        <time>2011-06-04T07:53:58Z</time>
      </trkpt>
      <trkpt lat="45.2843" lon="5.80286">
        <ele>1383.955078125</ele>
        <time>2011-06-04T07:54:03Z</time>
      </trkpt>
      <trkpt lat="45.28434" lon="5.80279">
        <ele>1386.3583984375</ele>
        <time>2011-06-04T07:54:07Z</time>
      </trkpt>
      <trkpt lat="45.28437" lon="5.80277">
        <ele>1385.3969726562</ele>
        <time>2011-06-04T07:54:09Z</time>
      </trkpt>
      <trkpt lat="45.28449" lon="5.80267">
        <ele>1384.9165039062</ele>
        <time>2011-06-04T07:54:15Z</time>
      </trkpt>
      <trkpt lat="45.28457" lon="5.80257">
        <ele>1385.8776855469</ele>
        <time>2011-06-04T07:54:20Z</time>
      </trkpt>
      <trkpt lat="45.28458" lon="5.80254">
        <ele>1385.8776855469</ele>
        <time>2011-06-04T07:54:21Z</time>
      </trkpt>
      <trkpt lat="45.2846" lon="5.80238">
        <ele>1384.9165039062</ele>
        <time>2011-06-04T07:54:26Z</time>
      </trkpt>
      <trkpt lat="45.28461" lon="5.80232">
        <ele>1383.955078125</ele>
        <time>2011-06-04T07:54:28Z</time>
      </trkpt>
      <trkpt lat="45.28465" lon="5.80219">
        <ele>1383.955078125</ele>
        <time>2011-06-04T07:54:33Z</time>
      </trkpt>
      <trkpt lat="45.28467" lon="5.80199">
        <ele>1382.9936523438</ele>
        <time>2011-06-04T07:54:38Z</time>
      </trkpt>
      <trkpt lat="45.28471" lon="5.80179">
        <ele>1382.5131835938</ele>
        <time>2011-06-04T07:54:44Z</time>
      </trkpt>
      <trkpt lat="45.2847" lon="5.80171">
        <ele>1382.5131835938</ele>
        <time>2011-06-04T07:54:49Z</time>
      </trkpt>
      <trkpt lat="45.28472" lon="5.80161">
        <ele>1382.5131835938</ele>
        <time>2011-06-04T07:54:55Z</time>
      </trkpt>
      <trkpt lat="45.28474" lon="5.80144">
        <ele>1382.5131835938</ele>
        <time>2011-06-04T07:55:01Z</time>
      </trkpt>
      <trkpt lat="45.28476" lon="5.80126">
        <ele>1385.3969726562</ele>
        <time>2011-06-04T07:55:06Z</time>
      </trkpt>
      <trkpt lat="45.28478" lon="5.8012">
        <ele>1385.3969726562</ele>
        <time>2011-06-04T07:55:08Z</time>
      </trkpt>
      <trkpt lat="45.28477" lon="5.80106">
        <ele>1385.8776855469</ele>
        <time>2011-06-04T07:55:13Z</time>
      </trkpt>
      <trkpt lat="45.28476" lon="5.80092">
        <ele>1384.9165039062</ele>
        <time>2011-06-04T07:55:18Z</time>
      </trkpt>
      <trkpt lat="45.28474" lon="5.8008">
        <ele>1380.5905761719</ele>
        <time>2011-06-04T07:55:25Z</time>
      </trkpt>
      <trkpt lat="45.28475" lon="5.80077">
        <ele>1379.1484375</ele>
        <time>2011-06-04T07:55:27Z</time>
      </trkpt>
      <trkpt lat="45.2847" lon="5.80072">
        <ele>1378.1872558594</ele>
        <time>2011-06-04T07:55:31Z</time>
      </trkpt>
      <trkpt lat="45.28466" lon="5.80058">
        <ele>1376.2646484375</ele>
        <time>2011-06-04T07:55:39Z</time>
      </trkpt>
      <trkpt lat="45.28465" lon="5.80057">
        <ele>1375.7839355469</ele>
        <time>2011-06-04T07:55:40Z</time>
      </trkpt>
      <trkpt lat="45.28466" lon="5.80046">
        <ele>1375.3032226562</ele>
        <time>2011-06-04T07:55:47Z</time>
      </trkpt>
      <trkpt lat="45.28465" lon="5.80037">
        <ele>1382.9936523438</ele>
        <time>2011-06-04T07:55:54Z</time>
      </trkpt>
      <trkpt lat="45.28463" lon="5.80024">
        <ele>1390.2038574219</ele>
        <time>2011-06-04T07:56:03Z</time>
      </trkpt>
      <trkpt lat="45.28463" lon="5.80022">
        <ele>1389.7231445312</ele>
        <time>2011-06-04T07:56:04Z</time>
      </trkpt>
      <trkpt lat="45.28463" lon="5.80012">
        <ele>1392.1264648438</ele>
        <time>2011-06-04T07:56:10Z</time>
      </trkpt>
      <trkpt lat="45.28462" lon="5.80006">
        <ele>1392.6071777344</ele>
        <time>2011-06-04T07:56:14Z</time>
      </trkpt>
      <trkpt lat="45.28461" lon="5.80001">
        <ele>1394.5295410156</ele>
        <time>2011-06-04T07:56:18Z</time>
      </trkpt>
      <trkpt lat="45.28457" lon="5.79996">
        <ele>1396.9328613281</ele>
        <time>2011-06-04T07:56:25Z</time>
      </trkpt>
      <trkpt lat="45.28456" lon="5.79989">
        <ele>1397.4135742188</ele>
        <time>2011-06-04T07:56:30Z</time>
      </trkpt>
      <trkpt lat="45.28454" lon="5.79984">
        <ele>1399.3361816406</ele>
        <time>2011-06-04T07:56:34Z</time>
      </trkpt>
      <trkpt lat="45.28449" lon="5.79981">
        <ele>1401.7395019531</ele>
        <time>2011-06-04T07:56:38Z</time>
      </trkpt>
      <trkpt lat="45.28447" lon="5.79975">
        <ele>1406.0654296875</ele>
        <time>2011-06-04T07:56:45Z</time>
      </trkpt>
      <trkpt lat="45.28448" lon="5.79966">
        <ele>1405.1042480469</ele>
        <time>2011-06-04T07:56:52Z</time>
      </trkpt>
      <trkpt lat="45.2845" lon="5.79959">
        <ele>1403.662109375</ele>
        <time>2011-06-04T07:56:59Z</time>
      </trkpt>
      <trkpt lat="45.28448" lon="5.79953">
        <ele>1407.0268554688</ele>
        <time>2011-06-04T07:57:05Z</time>
      </trkpt>
      <trkpt lat="45.28448" lon="5.79945">
        <ele>1410.8720703125</ele>
        <time>2011-06-04T07:57:11Z</time>
      </trkpt>
      <trkpt lat="45.28447" lon="5.7994">
        <ele>1412.3139648438</ele>
        <time>2011-06-04T07:57:14Z</time>
      </trkpt>
      <trkpt lat="45.28444" lon="5.79932">
        <ele>1414.7172851562</ele>
        <time>2011-06-04T07:57:22Z</time>
      </trkpt>
      <trkpt lat="45.28444" lon="5.79926">
        <ele>1415.6787109375</ele>
        <time>2011-06-04T07:57:26Z</time>
      </trkpt>
      <trkpt lat="45.28441" lon="5.7992">
        <ele>1418.5625</ele>
        <time>2011-06-04T07:57:31Z</time>
      </trkpt>
      <trkpt lat="45.2844" lon="5.79913">
        <ele>1420.4853515625</ele>
        <time>2011-06-04T07:57:37Z</time>
      </trkpt>
      <trkpt lat="45.28439" lon="5.79909">
        <ele>1421.4465332031</ele>
        <time>2011-06-04T07:57:40Z</time>
      </trkpt>
      <trkpt lat="45.28437" lon="5.79899">
        <ele>1422.888671875</ele>
        <time>2011-06-04T07:57:48Z</time>
      </trkpt>
      <trkpt lat="45.28434" lon="5.79896">
        <ele>1426.7338867188</ele>
        <time>2011-06-04T07:57:53Z</time>
      </trkpt>
      <trkpt lat="45.28432" lon="5.79892">
        <ele>1429.6176757812</ele>
        <time>2011-06-04T07:57:59Z</time>
      </trkpt>
      <trkpt lat="45.28431" lon="5.79889">
        <ele>1429.6176757812</ele>
        <time>2011-06-04T07:58:01Z</time>
      </trkpt>
      <trkpt lat="45.28429" lon="5.79882">
        <ele>1432.0209960938</ele>
        <time>2011-06-04T07:58:07Z</time>
      </trkpt>
      <trkpt lat="45.28429" lon="5.79875">
        <ele>1432.9821777344</ele>
        <time>2011-06-04T07:58:14Z</time>
      </trkpt>
      <trkpt lat="45.28432" lon="5.7987">
        <ele>1437.7890625</ele>
        <time>2011-06-04T07:58:21Z</time>
      </trkpt>
      <trkpt lat="45.28434" lon="5.79864">
        <ele>1440.6728515625</ele>
        <time>2011-06-04T07:58:25Z</time>
      </trkpt>
      <trkpt lat="45.28436" lon="5.79858">
        <ele>1441.6342773438</ele>
        <time>2011-06-04T07:58:30Z</time>
      </trkpt>
      <trkpt lat="45.28434" lon="5.79853">
        <ele>1440.6728515625</ele>
        <time>2011-06-04T07:58:35Z</time>
      </trkpt>
      <trkpt lat="45.28435" lon="5.7985">
        <ele>1439.7116699219</ele>
        <time>2011-06-04T07:58:39Z</time>
      </trkpt>
      <trkpt lat="45.28436" lon="5.79846">
        <ele>1440.1923828125</ele>
        <time>2011-06-04T07:58:44Z</time>
      </trkpt>
      <trkpt lat="45.28435" lon="5.79843">
        <ele>1439.7116699219</ele>
        <time>2011-06-04T07:58:49Z</time>
      </trkpt>
      <trkpt lat="45.28436" lon="5.79838">
        <ele>1441.1535644531</ele>
        <time>2011-06-04T07:58:54Z</time>
      </trkpt>
      <trkpt lat="45.28437" lon="5.79834">
        <ele>1443.076171875</ele>
        <time>2011-06-04T07:59:02Z</time>
      </trkpt>
      <trkpt lat="45.28436" lon="5.7983">
        <ele>1441.6342773438</ele>
        <time>2011-06-04T07:59:08Z</time>
      </trkpt>
      <trkpt lat="45.28436" lon="5.79827">
        <ele>1444.5180664062</ele>
        <time>2011-06-04T07:59:13Z</time>
      </trkpt>
      <trkpt lat="45.28434" lon="5.79821">
        <ele>1444.0375976562</ele>
        <time>2011-06-04T07:59:18Z</time>
      </trkpt>
      <trkpt lat="45.28432" lon="5.79817">
        <ele>1446.4409179688</ele>
        <time>2011-06-04T07:59:23Z</time>
      </trkpt>
      <trkpt lat="45.28434" lon="5.79814">
        <ele>1448.8439941406</ele>
        <time>2011-06-04T07:59:28Z</time>
      </trkpt>
      <trkpt lat="45.2844" lon="5.79811">
        <ele>1454.1315917969</ele>
        <time>2011-06-04T07:59:35Z</time>
      </trkpt>
      <trkpt lat="45.28442" lon="5.79807">
        <ele>1458.9379882812</ele>
        <time>2011-06-04T07:59:41Z</time>
      </trkpt>
      <trkpt lat="45.28439" lon="5.798">
        <ele>1458.4572753906</ele>
        <time>2011-06-04T07:59:46Z</time>
      </trkpt>
      <trkpt lat="45.28438" lon="5.79799">
        <ele>1458.9379882812</ele>
        <time>2011-06-04T07:59:47Z</time>
      </trkpt>
      <trkpt lat="45.28435" lon="5.79796">
        <ele>1459.4187011719</ele>
        <time>2011-06-04T07:59:50Z</time>
      </trkpt>
      <trkpt lat="45.28434" lon="5.79793">
        <ele>1458.4572753906</ele>
        <time>2011-06-04T07:59:52Z</time>
      </trkpt>
      <trkpt lat="45.2843" lon="5.7979">
        <ele>1461.8220214844</ele>
        <time>2011-06-04T07:59:58Z</time>
      </trkpt>
      <trkpt lat="45.28424" lon="5.79785">
        <ele>1468.0705566406</ele>
        <time>2011-06-04T08:00:06Z</time>
      </trkpt>
      <trkpt lat="45.28418" lon="5.79777">
        <ele>1467.1091308594</ele>
        <time>2011-06-04T08:00:14Z</time>
      </trkpt>
      <trkpt lat="45.28416" lon="5.79776">
        <ele>1468.0705566406</ele>
        <time>2011-06-04T08:00:16Z</time>
      </trkpt>
      <trkpt lat="45.28413" lon="5.79768">
        <ele>1466.1477050781</ele>
        <time>2011-06-04T08:00:23Z</time>
      </trkpt>
      <trkpt lat="45.28408" lon="5.79762">
        <ele>1465.1865234375</ele>
        <time>2011-06-04T08:00:29Z</time>
      </trkpt>
      <trkpt lat="45.28406" lon="5.79759">
        <ele>1463.7443847656</ele>
        <time>2011-06-04T08:00:31Z</time>
      </trkpt>
      <trkpt lat="45.28402" lon="5.79749">
        <ele>1462.3024902344</ele>
        <time>2011-06-04T08:00:39Z</time>
      </trkpt>
      <trkpt lat="45.28399" lon="5.79745">
        <ele>1461.3413085938</ele>
        <time>2011-06-04T08:00:42Z</time>
      </trkpt>
      <trkpt lat="45.28397" lon="5.79743">
        <ele>1460.8605957031</ele>
        <time>2011-06-04T08:00:45Z</time>
      </trkpt>
      <trkpt lat="45.28397" lon="5.79736">
        <ele>1458.4572753906</ele>
        <time>2011-06-04T08:00:52Z</time>
      </trkpt>
      <trkpt lat="45.28402" lon="5.79734">
        <ele>1460.3798828125</ele>
        <time>2011-06-04T08:00:55Z</time>
      </trkpt>
      <trkpt lat="45.28409" lon="5.79728">
        <ele>1463.2639160156</ele>
        <time>2011-06-04T08:01:02Z</time>
      </trkpt>
      <trkpt lat="45.2841" lon="5.79726">
        <ele>1466.1477050781</ele>
        <time>2011-06-04T08:01:04Z</time>
      </trkpt>
      <trkpt lat="45.28415" lon="5.79728">
        <ele>1469.0319824219</ele>
        <time>2011-06-04T08:01:09Z</time>
      </trkpt>
      <trkpt lat="45.2842" lon="5.79725">
        <ele>1475.2802734375</ele>
        <time>2011-06-04T08:01:16Z</time>
      </trkpt>
      <trkpt lat="45.28427" lon="5.79729">
        <ele>1481.5288085938</ele>
        <time>2011-06-04T08:01:22Z</time>
      </trkpt>
      <trkpt lat="45.28434" lon="5.79727">
        <ele>1483.4514160156</ele>
        <time>2011-06-04T08:01:27Z</time>
      </trkpt>
      <trkpt lat="45.28439" lon="5.79726">
        <ele>1486.8161621094</ele>
        <time>2011-06-04T08:01:32Z</time>
      </trkpt>
      <trkpt lat="45.28446" lon="5.79726">
        <ele>1488.2583007812</ele>
        <time>2011-06-04T08:01:38Z</time>
      </trkpt>
      <trkpt lat="45.28452" lon="5.79726">
        <ele>1488.7390136719</ele>
        <time>2011-06-04T08:01:43Z</time>
      </trkpt>
      <trkpt lat="45.28452" lon="5.79723">
        <ele>1488.2583007812</ele>
        <time>2011-06-04T08:01:49Z</time>
      </trkpt>
      <trkpt lat="45.28451" lon="5.79717">
        <ele>1488.7390136719</ele>
        <time>2011-06-04T08:01:56Z</time>
      </trkpt>
      <trkpt lat="45.28449" lon="5.79711">
        <ele>1488.7390136719</ele>
        <time>2011-06-04T08:02:02Z</time>
      </trkpt>
      <trkpt lat="45.28447" lon="5.79711">
        <ele>1488.7390136719</ele>
        <time>2011-06-04T08:02:04Z</time>
      </trkpt>
      <trkpt lat="45.28442" lon="5.79708">
        <ele>1488.2583007812</ele>
        <time>2011-06-04T08:02:08Z</time>
      </trkpt>
      <trkpt lat="45.28438" lon="5.79702">
        <ele>1489.2194824219</ele>
        <time>2011-06-04T08:02:13Z</time>
      </trkpt>
      <trkpt lat="45.28434" lon="5.79698">
        <ele>1488.2583007812</ele>
        <time>2011-06-04T08:02:17Z</time>
      </trkpt>
      <trkpt lat="45.28429" lon="5.79694">
        <ele>1489.7001953125</ele>
        <time>2011-06-04T08:02:22Z</time>
      </trkpt>
      <trkpt lat="45.28423" lon="5.79684">
        <ele>1489.2194824219</ele>
        <time>2011-06-04T08:02:28Z</time>
      </trkpt>
      <trkpt lat="45.28428" lon="5.79681">
        <ele>1490.1809082031</ele>
        <time>2011-06-04T08:02:34Z</time>
      </trkpt>
      <trkpt lat="45.28429" lon="5.79681">
        <ele>1490.6613769531</ele>
        <time>2011-06-04T08:02:35Z</time>
      </trkpt>
      <trkpt lat="45.28434" lon="5.7968">
        <ele>1494.5065917969</ele>
        <time>2011-06-04T08:02:40Z</time>
      </trkpt>
      <trkpt lat="45.28438" lon="5.79677">
        <ele>1499.7939453125</ele>
        <time>2011-06-04T08:02:46Z</time>
      </trkpt>
      <trkpt lat="45.28443" lon="5.79676">
        <ele>1503.1586914062</ele>
        <time>2011-06-04T08:02:51Z</time>
      </trkpt>
      <trkpt lat="45.28445" lon="5.79673">
        <ele>1503.6394042969</ele>
        <time>2011-06-04T08:02:54Z</time>
      </trkpt>
      <trkpt lat="45.28447" lon="5.79668">
        <ele>1505.5620117188</ele>
        <time>2011-06-04T08:03:00Z</time>
      </trkpt>
      <trkpt lat="45.28444" lon="5.79663">
        <ele>1507.4846191406</ele>
        <time>2011-06-04T08:03:08Z</time>
      </trkpt>
      <trkpt lat="45.28444" lon="5.79656">
        <ele>1507.9653320312</ele>
        <time>2011-06-04T08:03:15Z</time>
      </trkpt>
      <trkpt lat="45.28442" lon="5.79651">
        <ele>1506.0424804688</ele>
        <time>2011-06-04T08:03:21Z</time>
      </trkpt>
      <trkpt lat="45.28439" lon="5.79646">
        <ele>1504.6005859375</ele>
        <time>2011-06-04T08:03:27Z</time>
      </trkpt>
      <trkpt lat="45.28437" lon="5.79641">
        <ele>1505.5620117188</ele>
        <time>2011-06-04T08:03:33Z</time>
      </trkpt>
      <trkpt lat="45.28437" lon="5.79633">
        <ele>1506.0424804688</ele>
        <time>2011-06-04T08:03:40Z</time>
      </trkpt>
      <trkpt lat="45.28436" lon="5.79628">
        <ele>1508.9265136719</ele>
        <time>2011-06-04T08:03:47Z</time>
      </trkpt>
      <trkpt lat="45.28433" lon="5.79625">
        <ele>1510.8491210938</ele>
        <time>2011-06-04T08:03:53Z</time>
      </trkpt>
      <trkpt lat="45.28431" lon="5.7962">
        <ele>1509.8876953125</ele>
        <time>2011-06-04T08:03:58Z</time>
      </trkpt>
      <trkpt lat="45.28427" lon="5.79615">
        <ele>1510.3684082031</ele>
        <time>2011-06-04T08:04:05Z</time>
      </trkpt>
      <trkpt lat="45.28422" lon="5.79613">
        <ele>1511.810546875</ele>
        <time>2011-06-04T08:04:10Z</time>
      </trkpt>
      <trkpt lat="45.28422" lon="5.79611">
        <ele>1512.291015625</ele>
        <time>2011-06-04T08:04:13Z</time>
      </trkpt>
      <trkpt lat="45.2842" lon="5.79604">
        <ele>1514.6943359375</ele>
        <time>2011-06-04T08:04:20Z</time>
      </trkpt>
      <trkpt lat="45.28421" lon="5.79598">
        <ele>1521.4235839844</ele>
        <time>2011-06-04T08:04:26Z</time>
      </trkpt>
      <trkpt lat="45.28421" lon="5.79593">
        <ele>1522.3850097656</ele>
        <time>2011-06-04T08:04:30Z</time>
      </trkpt>
      <trkpt lat="45.28421" lon="5.79589">
        <ele>1521.904296875</ele>
        <time>2011-06-04T08:04:35Z</time>
      </trkpt>
      <trkpt lat="45.28421" lon="5.7958">
        <ele>1524.7883300781</ele>
        <time>2011-06-04T08:04:41Z</time>
      </trkpt>
      <trkpt lat="45.28421" lon="5.79575">
        <ele>1523.8269042969</ele>
        <time>2011-06-04T08:04:44Z</time>
      </trkpt>
      <trkpt lat="45.28421" lon="5.79564">
        <ele>1525.7495117188</ele>
        <time>2011-06-04T08:04:51Z</time>
      </trkpt>
      <trkpt lat="45.28417" lon="5.79554">
        <ele>1528.1528320312</ele>
        <time>2011-06-04T08:04:59Z</time>
      </trkpt>
      <trkpt lat="45.28416" lon="5.79553">
        <ele>1527.6721191406</ele>
        <time>2011-06-04T08:05:00Z</time>
      </trkpt>
      <trkpt lat="45.28415" lon="5.79543">
        <ele>1530.0754394531</ele>
        <time>2011-06-04T08:05:06Z</time>
      </trkpt>
      <trkpt lat="45.28413" lon="5.79537">
        <ele>1532.9594726562</ele>
        <time>2011-06-04T08:05:13Z</time>
      </trkpt>
      <trkpt lat="45.28413" lon="5.7953">
        <ele>1534.8823242188</ele>
        <time>2011-06-04T08:05:18Z</time>
      </trkpt>
      <trkpt lat="45.28408" lon="5.7952">
        <ele>1539.2080078125</ele>
        <time>2011-06-04T08:05:25Z</time>
      </trkpt>
      <trkpt lat="45.28408" lon="5.79519">
        <ele>1540.6499023438</ele>
        <time>2011-06-04T08:05:27Z</time>
      </trkpt>
      <trkpt lat="45.28409" lon="5.79511">
        <ele>1542.0920410156</ele>
        <time>2011-06-04T08:05:34Z</time>
      </trkpt>
      <trkpt lat="45.28411" lon="5.79506">
        <ele>1543.0532226562</ele>
        <time>2011-06-04T08:05:40Z</time>
      </trkpt>
      <trkpt lat="45.28411" lon="5.79498">
        <ele>1540.1694335938</ele>
        <time>2011-06-04T08:05:47Z</time>
      </trkpt>
      <trkpt lat="45.28412" lon="5.79492">
        <ele>1541.1306152344</ele>
        <time>2011-06-04T08:05:53Z</time>
      </trkpt>
      <trkpt lat="45.28413" lon="5.79488">
        <ele>1542.0920410156</ele>
        <time>2011-06-04T08:05:57Z</time>
      </trkpt>
      <trkpt lat="45.28411" lon="5.79483">
        <ele>1545.9372558594</ele>
        <time>2011-06-04T08:06:02Z</time>
      </trkpt>
      <trkpt lat="45.28411" lon="5.79476">
        <ele>1545.9372558594</ele>
        <time>2011-06-04T08:06:06Z</time>
      </trkpt>
      <trkpt lat="45.28412" lon="5.79464">
        <ele>1547.8598632812</ele>
        <time>2011-06-04T08:06:13Z</time>
      </trkpt>
      <trkpt lat="45.28411" lon="5.79452">
        <ele>1550.2634277344</ele>
        <time>2011-06-04T08:06:19Z</time>
      </trkpt>
      <trkpt lat="45.28411" lon="5.79444">
        <ele>1550.2634277344</ele>
        <time>2011-06-04T08:06:23Z</time>
      </trkpt>
      <trkpt lat="45.28411" lon="5.79432">
        <ele>1551.224609375</ele>
        <time>2011-06-04T08:06:29Z</time>
      </trkpt>
      <trkpt lat="45.28407" lon="5.79423">
        <ele>1553.1472167969</ele>
        <time>2011-06-04T08:06:34Z</time>
      </trkpt>
      <trkpt lat="45.28405" lon="5.79418">
        <ele>1553.1472167969</ele>
        <time>2011-06-04T08:06:36Z</time>
      </trkpt>
      <trkpt lat="45.28398" lon="5.79406">
        <ele>1553.1472167969</ele>
        <time>2011-06-04T08:06:43Z</time>
      </trkpt>
      <trkpt lat="45.28393" lon="5.79401">
        <ele>1554.5891113281</ele>
        <time>2011-06-04T08:06:48Z</time>
      </trkpt>
      <trkpt lat="45.28389" lon="5.79395">
        <ele>1555.5505371094</ele>
        <time>2011-06-04T08:06:53Z</time>
      </trkpt>
      <trkpt lat="45.28381" lon="5.79388">
        <ele>1556.9924316406</ele>
        <time>2011-06-04T08:07:02Z</time>
      </trkpt>
      <trkpt lat="45.28376" lon="5.79385">
        <ele>1559.3957519531</ele>
        <time>2011-06-04T08:07:09Z</time>
      </trkpt>
      <trkpt lat="45.28372" lon="5.79383">
        <ele>1560.8376464844</ele>
        <time>2011-06-04T08:07:15Z</time>
      </trkpt>
      <trkpt lat="45.28367" lon="5.79381">
        <ele>1563.7214355469</ele>
        <time>2011-06-04T08:07:21Z</time>
      </trkpt>
      <trkpt lat="45.28363" lon="5.79381">
        <ele>1564.6831054688</ele>
        <time>2011-06-04T08:07:24Z</time>
      </trkpt>
      <trkpt lat="45.28356" lon="5.79385">
        <ele>1567.0864257812</ele>
        <time>2011-06-04T08:07:30Z</time>
      </trkpt>
      <trkpt lat="45.2835" lon="5.79392">
        <ele>1570.4509277344</ele>
        <time>2011-06-04T08:07:36Z</time>
      </trkpt>
      <trkpt lat="45.28344" lon="5.79399">
        <ele>1572.8542480469</ele>
        <time>2011-06-04T08:07:44Z</time>
      </trkpt>
      <trkpt lat="45.28337" lon="5.79402">
        <ele>1573.3349609375</ele>
        <time>2011-06-04T08:07:50Z</time>
      </trkpt>
      <trkpt lat="45.28334" lon="5.79402">
        <ele>1572.8542480469</ele>
        <time>2011-06-04T08:07:53Z</time>
      </trkpt>
      <trkpt lat="45.28328" lon="5.79406">
        <ele>1573.3349609375</ele>
        <time>2011-06-04T08:07:59Z</time>
      </trkpt>
      <trkpt lat="45.28325" lon="5.79409">
        <ele>1575.7380371094</ele>
        <time>2011-06-04T08:08:02Z</time>
      </trkpt>
      <trkpt lat="45.28322" lon="5.79409">
        <ele>1576.21875</ele>
        <time>2011-06-04T08:08:04Z</time>
      </trkpt>
      <trkpt lat="45.28319" lon="5.79406">
        <ele>1577.1801757812</ele>
        <time>2011-06-04T08:08:08Z</time>
      </trkpt>
      <trkpt lat="45.28316" lon="5.79404">
        <ele>1578.6220703125</ele>
        <time>2011-06-04T08:08:11Z</time>
      </trkpt>
      <trkpt lat="45.28313" lon="5.79401">
        <ele>1578.6220703125</ele>
        <time>2011-06-04T08:08:15Z</time>
      </trkpt>
      <trkpt lat="45.28305" lon="5.79392">
        <ele>1579.1025390625</ele>
        <time>2011-06-04T08:08:23Z</time>
      </trkpt>
      <trkpt lat="45.28304" lon="5.7939">
        <ele>1579.1025390625</ele>
        <time>2011-06-04T08:08:24Z</time>
      </trkpt>
      <trkpt lat="45.28296" lon="5.7938">
        <ele>1580.544921875</ele>
        <time>2011-06-04T08:08:31Z</time>
      </trkpt>
      <trkpt lat="45.28292" lon="5.79378">
        <ele>1581.0256347656</ele>
        <time>2011-06-04T08:08:33Z</time>
      </trkpt>
      <trkpt lat="45.28282" lon="5.7937">
        <ele>1582.4675292969</ele>
        <time>2011-06-04T08:08:39Z</time>
      </trkpt>
      <trkpt lat="45.2827" lon="5.79359">
        <ele>1583.4287109375</ele>
        <time>2011-06-04T08:08:46Z</time>
      </trkpt>
      <trkpt lat="45.2826" lon="5.79353">
        <ele>1584.3901367188</ele>
        <time>2011-06-04T08:08:52Z</time>
      </trkpt>
      <trkpt lat="45.28253" lon="5.79347">
        <ele>1584.3901367188</ele>
        <time>2011-06-04T08:08:57Z</time>
      </trkpt>
      <trkpt lat="45.28245" lon="5.79339">
        <ele>1585.83203125</ele>
        <time>2011-06-04T08:09:03Z</time>
      </trkpt>
      <trkpt lat="45.28238" lon="5.79334">
        <ele>1586.7932128906</ele>
        <time>2011-06-04T08:09:08Z</time>
      </trkpt>
      <trkpt lat="45.28236" lon="5.79333">
        <ele>1586.3127441406</ele>
        <time>2011-06-04T08:09:09Z</time>
      </trkpt>
      <trkpt lat="45.28228" lon="5.79328">
        <ele>1586.3127441406</ele>
        <time>2011-06-04T08:09:15Z</time>
      </trkpt>
      <trkpt lat="45.28223" lon="5.79319">
        <ele>1585.83203125</ele>
        <time>2011-06-04T08:09:20Z</time>
      </trkpt>
      <trkpt lat="45.28216" lon="5.79314">
        <ele>1585.83203125</ele>
        <time>2011-06-04T08:09:24Z</time>
      </trkpt>
      <trkpt lat="45.28215" lon="5.79313">
        <ele>1585.3513183594</ele>
        <time>2011-06-04T08:09:26Z</time>
      </trkpt>
      <trkpt lat="45.28209" lon="5.79304">
        <ele>1583.9094238281</ele>
        <time>2011-06-04T08:09:31Z</time>
      </trkpt>
      <trkpt lat="45.28202" lon="5.79295">
        <ele>1583.9094238281</ele>
        <time>2011-06-04T08:09:36Z</time>
      </trkpt>
      <trkpt lat="45.28197" lon="5.79288">
        <ele>1585.3513183594</ele>
        <time>2011-06-04T08:09:41Z</time>
      </trkpt>
      <trkpt lat="45.28189" lon="5.79286">
        <ele>1583.9094238281</ele>
        <time>2011-06-04T08:09:45Z</time>
      </trkpt>
      <trkpt lat="45.28188" lon="5.79284">
        <ele>1583.9094238281</ele>
        <time>2011-06-04T08:09:46Z</time>
      </trkpt>
      <trkpt lat="45.28178" lon="5.79272">
        <ele>1585.83203125</ele>
        <time>2011-06-04T08:09:53Z</time>
      </trkpt>
      <trkpt lat="45.28175" lon="5.79268">
        <ele>1588.2353515625</ele>
        <time>2011-06-04T08:09:56Z</time>
      </trkpt>
      <trkpt lat="45.28167" lon="5.79256">
        <ele>1588.2353515625</ele>
        <time>2011-06-04T08:10:02Z</time>
      </trkpt>
      <trkpt lat="45.2816" lon="5.79253">
        <ele>1590.1579589844</ele>
        <time>2011-06-04T08:10:06Z</time>
      </trkpt>
      <trkpt lat="45.28155" lon="5.79254">
        <ele>1591.119140625</ele>
        <time>2011-06-04T08:10:09Z</time>
      </trkpt>
      <trkpt lat="45.28144" lon="5.79248">
        <ele>1591.119140625</ele>
        <time>2011-06-04T08:10:16Z</time>
      </trkpt>
      <trkpt lat="45.28142" lon="5.79246">
        <ele>1590.6384277344</ele>
        <time>2011-06-04T08:10:17Z</time>
      </trkpt>
      <trkpt lat="45.2813" lon="5.79242">
        <ele>1588.2353515625</ele>
        <time>2011-06-04T08:10:23Z</time>
      </trkpt>
      <trkpt lat="45.2812" lon="5.79236">
        <ele>1587.7546386719</ele>
        <time>2011-06-04T08:10:29Z</time>
      </trkpt>
      <trkpt lat="45.28109" lon="5.79231">
        <ele>1588.2353515625</ele>
        <time>2011-06-04T08:10:34Z</time>
      </trkpt>
      <trkpt lat="45.28099" lon="5.79223">
        <ele>1588.2353515625</ele>
        <time>2011-06-04T08:10:39Z</time>
      </trkpt>
      <trkpt lat="45.28089" lon="5.79216">
        <ele>1588.2353515625</ele>
        <time>2011-06-04T08:10:45Z</time>
      </trkpt>
      <trkpt lat="45.28076" lon="5.79208">
        <ele>1588.7160644531</ele>
        <time>2011-06-04T08:10:52Z</time>
      </trkpt>
      <trkpt lat="45.28068" lon="5.79205">
        <ele>1590.1579589844</ele>
        <time>2011-06-04T08:10:57Z</time>
      </trkpt>
      <trkpt lat="45.28059" lon="5.79203">
        <ele>1589.6772460938</ele>
        <time>2011-06-04T08:11:02Z</time>
      </trkpt>
      <trkpt lat="45.28049" lon="5.79194">
        <ele>1591.119140625</ele>
        <time>2011-06-04T08:11:08Z</time>
      </trkpt>
      <trkpt lat="45.28043" lon="5.79188">
        <ele>1593.5224609375</ele>
        <time>2011-06-04T08:11:13Z</time>
      </trkpt>
      <trkpt lat="45.28037" lon="5.79185">
        <ele>1594.0031738281</ele>
        <time>2011-06-04T08:11:16Z</time>
      </trkpt>
      <trkpt lat="45.28032" lon="5.79181">
        <ele>1594.0031738281</ele>
        <time>2011-06-04T08:11:19Z</time>
      </trkpt>
      <trkpt lat="45.2803" lon="5.79172">
        <ele>1594.4836425781</ele>
        <time>2011-06-04T08:11:23Z</time>
      </trkpt>
      <trkpt lat="45.28029" lon="5.79166">
        <ele>1594.9643554688</ele>
        <time>2011-06-04T08:11:26Z</time>
      </trkpt>
      <trkpt lat="45.28032" lon="5.79157">
        <ele>1596.4067382812</ele>
        <time>2011-06-04T08:11:32Z</time>
      </trkpt>
      <trkpt lat="45.28032" lon="5.79154">
        <ele>1597.3679199219</ele>
        <time>2011-06-04T08:11:34Z</time>
      </trkpt>
      <trkpt lat="45.28034" lon="5.79139">
        <ele>1598.3291015625</ele>
        <time>2011-06-04T08:11:42Z</time>
      </trkpt>
      <trkpt lat="45.28033" lon="5.79124">
        <ele>1597.3679199219</ele>
        <time>2011-06-04T08:11:49Z</time>
      </trkpt>
      <trkpt lat="45.28036" lon="5.79114">
        <ele>1597.3679199219</ele>
        <time>2011-06-04T08:11:54Z</time>
      </trkpt>
      <trkpt lat="45.28041" lon="5.79101">
        <ele>1598.3291015625</ele>
        <time>2011-06-04T08:12:02Z</time>
      </trkpt>
      <trkpt lat="45.28043" lon="5.79091">
        <ele>1599.7712402344</ele>
        <time>2011-06-04T08:12:08Z</time>
      </trkpt>
      <trkpt lat="45.28045" lon="5.79081">
        <ele>1600.251953125</ele>
        <time>2011-06-04T08:12:14Z</time>
      </trkpt>
      <trkpt lat="45.28049" lon="5.79068">
        <ele>1602.1743164062</ele>
        <time>2011-06-04T08:12:22Z</time>
      </trkpt>
      <trkpt lat="45.28049" lon="5.79067">
        <ele>1602.1743164062</ele>
        <time>2011-06-04T08:12:23Z</time>
      </trkpt>
      <trkpt lat="45.28051" lon="5.7906">
        <ele>1602.6550292969</ele>
        <time>2011-06-04T08:12:27Z</time>
      </trkpt>
      <trkpt lat="45.28054" lon="5.79043">
        <ele>1605.5390625</ele>
        <time>2011-06-04T08:12:37Z</time>
      </trkpt>
      <trkpt lat="45.28056" lon="5.79034">
        <ele>1608.4228515625</ele>
        <time>2011-06-04T08:12:44Z</time>
      </trkpt>
      <trkpt lat="45.28058" lon="5.7903">
        <ele>1609.3842773438</ele>
        <time>2011-06-04T08:12:46Z</time>
      </trkpt>
      <trkpt lat="45.28061" lon="5.79018">
        <ele>1608.9035644531</ele>
        <time>2011-06-04T08:12:52Z</time>
      </trkpt>
      <trkpt lat="45.28062" lon="5.79016">
        <ele>1609.3842773438</ele>
        <time>2011-06-04T08:12:53Z</time>
      </trkpt>
      <trkpt lat="45.28064" lon="5.79006">
        <ele>1610.3454589844</ele>
        <time>2011-06-04T08:12:58Z</time>
      </trkpt>
      <trkpt lat="45.28066" lon="5.78995">
        <ele>1613.7102050781</ele>
        <time>2011-06-04T08:13:05Z</time>
      </trkpt>
      <trkpt lat="45.28067" lon="5.78993">
        <ele>1613.7102050781</ele>
        <time>2011-06-04T08:13:06Z</time>
      </trkpt>
      <trkpt lat="45.2807" lon="5.78974">
        <ele>1618.9975585938</ele>
        <time>2011-06-04T08:13:15Z</time>
      </trkpt>
      <trkpt lat="45.2807" lon="5.78968">
        <ele>1620.439453125</ele>
        <time>2011-06-04T08:13:19Z</time>
      </trkpt>
      <trkpt lat="45.28074" lon="5.78957">
        <ele>1625.2458496094</ele>
        <time>2011-06-04T08:13:25Z</time>
      </trkpt>
      <trkpt lat="45.28074" lon="5.78954">
        <ele>1625.2458496094</ele>
        <time>2011-06-04T08:13:26Z</time>
      </trkpt>
      <trkpt lat="45.28076" lon="5.78938">
        <ele>1631.4946289062</ele>
        <time>2011-06-04T08:13:34Z</time>
      </trkpt>
      <trkpt lat="45.28078" lon="5.78933">
        <ele>1633.4172363281</ele>
        <time>2011-06-04T08:13:37Z</time>
      </trkpt>
      <trkpt lat="45.28081" lon="5.78917">
        <ele>1639.1850585938</ele>
        <time>2011-06-04T08:13:45Z</time>
      </trkpt>
      <trkpt lat="45.28083" lon="5.78904">
        <ele>1644.4724121094</ele>
        <time>2011-06-04T08:13:52Z</time>
      </trkpt>
      <trkpt lat="45.28092" lon="5.78888">
        <ele>1648.7983398438</ele>
        <time>2011-06-04T08:14:02Z</time>
      </trkpt>
      <trkpt lat="45.28095" lon="5.78885">
        <ele>1645.4338378906</ele>
        <time>2011-06-04T08:14:05Z</time>
      </trkpt>
      <trkpt lat="45.28093" lon="5.78879">
        <ele>1640.146484375</ele>
        <time>2011-06-04T08:14:10Z</time>
      </trkpt>
      <trkpt lat="45.28085" lon="5.78876">
        <ele>1637.2624511719</ele>
        <time>2011-06-04T08:14:14Z</time>
      </trkpt>
      <trkpt lat="45.28075" lon="5.78869">
        <ele>1630.5334472656</ele>
        <time>2011-06-04T08:14:21Z</time>
      </trkpt>
      <trkpt lat="45.2807" lon="5.78864">
        <ele>1628.1301269531</ele>
        <time>2011-06-04T08:14:25Z</time>
      </trkpt>
      <trkpt lat="45.28064" lon="5.78857">
        <ele>1625.7265625</ele>
        <time>2011-06-04T08:14:29Z</time>
      </trkpt>
      <trkpt lat="45.28056" lon="5.78837">
        <ele>1620.9201660156</ele>
        <time>2011-06-04T08:14:36Z</time>
      </trkpt>
      <trkpt lat="45.28055" lon="5.7883">
        <ele>1621.4006347656</ele>
        <time>2011-06-04T08:14:38Z</time>
      </trkpt>
      <trkpt lat="45.28055" lon="5.78807">
        <ele>1620.439453125</ele>
        <time>2011-06-04T08:14:45Z</time>
      </trkpt>
      <trkpt lat="45.28053" lon="5.78789">
        <ele>1626.6879882812</ele>
        <time>2011-06-04T08:14:50Z</time>
      </trkpt>
      <trkpt lat="45.28052" lon="5.7877">
        <ele>1631.0141601562</ele>
        <time>2011-06-04T08:14:56Z</time>
      </trkpt>
      <trkpt lat="45.28051" lon="5.78754">
        <ele>1634.3786621094</ele>
        <time>2011-06-04T08:15:00Z</time>
      </trkpt>
      <trkpt lat="45.28049" lon="5.78734">
        <ele>1635.8205566406</ele>
        <time>2011-06-04T08:15:06Z</time>
      </trkpt>
      <trkpt lat="45.28048" lon="5.78728">
        <ele>1634.3786621094</ele>
        <time>2011-06-04T08:15:08Z</time>
      </trkpt>
      <trkpt lat="45.28043" lon="5.78712">
        <ele>1640.626953125</ele>
        <time>2011-06-04T08:15:13Z</time>
      </trkpt>
      <trkpt lat="45.28043" lon="5.78709">
        <ele>1641.1076660156</ele>
        <time>2011-06-04T08:15:14Z</time>
      </trkpt>
      <trkpt lat="45.28041" lon="5.78691">
        <ele>1639.1850585938</ele>
        <time>2011-06-04T08:15:20Z</time>
      </trkpt>
      <trkpt lat="45.28043" lon="5.78683">
        <ele>1638.2238769531</ele>
        <time>2011-06-04T08:15:24Z</time>
      </trkpt>
      <trkpt lat="45.28043" lon="5.78677">
        <ele>1636.7817382812</ele>
        <time>2011-06-04T08:15:28Z</time>
      </trkpt>
      <trkpt lat="45.28044" lon="5.78664">
        <ele>1635.8205566406</ele>
        <time>2011-06-04T08:15:36Z</time>
      </trkpt>
      <trkpt lat="45.28041" lon="5.78652">
        <ele>1635.33984375</ele>
        <time>2011-06-04T08:15:41Z</time>
      </trkpt>
      <trkpt lat="45.28036" lon="5.78631">
        <ele>1633.4172363281</ele>
        <time>2011-06-04T08:15:48Z</time>
      </trkpt>
      <trkpt lat="45.28032" lon="5.78617">
        <ele>1632.4560546875</ele>
        <time>2011-06-04T08:15:53Z</time>
      </trkpt>
      <trkpt lat="45.28031" lon="5.78615">
        <ele>1632.4560546875</ele>
        <time>2011-06-04T08:15:54Z</time>
      </trkpt>
      <trkpt lat="45.28031" lon="5.78611">
        <ele>1631.4946289062</ele>
        <time>2011-06-04T08:15:56Z</time>
      </trkpt>
      <trkpt lat="45.28025" lon="5.78592">
        <ele>1631.4946289062</ele>
        <time>2011-06-04T08:16:04Z</time>
      </trkpt>
      <trkpt lat="45.28018" lon="5.78581">
        <ele>1630.5334472656</ele>
        <time>2011-06-04T08:16:09Z</time>
      </trkpt>
      <trkpt lat="45.28015" lon="5.78566">
        <ele>1630.052734375</ele>
        <time>2011-06-04T08:16:14Z</time>
      </trkpt>
      <trkpt lat="45.28009" lon="5.78553">
        <ele>1629.5720214844</ele>
        <time>2011-06-04T08:16:20Z</time>
      </trkpt>
      <trkpt lat="45.28005" lon="5.78545">
        <ele>1629.0913085938</ele>
        <time>2011-06-04T08:16:24Z</time>
      </trkpt>
      <trkpt lat="45.28003" lon="5.78542">
        <ele>1629.0913085938</ele>
        <time>2011-06-04T08:16:25Z</time>
      </trkpt>
      <trkpt lat="45.27998" lon="5.78524">
        <ele>1628.6108398438</ele>
        <time>2011-06-04T08:16:31Z</time>
      </trkpt>
      <trkpt lat="45.27996" lon="5.78511">
        <ele>1628.6108398438</ele>
        <time>2011-06-04T08:16:37Z</time>
      </trkpt>
      <trkpt lat="45.27993" lon="5.78498">
        <ele>1628.6108398438</ele>
        <time>2011-06-04T08:16:43Z</time>
      </trkpt>
      <trkpt lat="45.27991" lon="5.78493">
        <ele>1629.0913085938</ele>
        <time>2011-06-04T08:16:45Z</time>
      </trkpt>
      <trkpt lat="45.2799" lon="5.78484">
        <ele>1630.5334472656</ele>
        <time>2011-06-04T08:16:50Z</time>
      </trkpt>
      <trkpt lat="45.2799" lon="5.78483">
        <ele>1631.0141601562</ele>
        <time>2011-06-04T08:16:51Z</time>
      </trkpt>
      <trkpt lat="45.2799" lon="5.78478">
        <ele>1631.9753417969</ele>
        <time>2011-06-04T08:16:54Z</time>
      </trkpt>
      <trkpt lat="45.2799" lon="5.78475">
        <ele>1632.9365234375</ele>
        <time>2011-06-04T08:16:57Z</time>
      </trkpt>
      <trkpt lat="45.27988" lon="5.78473">
        <ele>1633.8979492188</ele>
        <time>2011-06-04T08:16:59Z</time>
      </trkpt>
      <trkpt lat="45.27983" lon="5.7846">
        <ele>1634.3786621094</ele>
        <time>2011-06-04T08:17:05Z</time>
      </trkpt>
      <trkpt lat="45.27979" lon="5.78449">
        <ele>1634.859375</ele>
        <time>2011-06-04T08:17:09Z</time>
      </trkpt>
      <trkpt lat="45.27969" lon="5.78436">
        <ele>1636.3012695312</ele>
        <time>2011-06-04T08:17:16Z</time>
      </trkpt>
      <trkpt lat="45.27962" lon="5.78425">
        <ele>1636.3012695312</ele>
        <time>2011-06-04T08:17:21Z</time>
      </trkpt>
      <trkpt lat="45.2796" lon="5.78423">
        <ele>1635.8205566406</ele>
        <time>2011-06-04T08:17:22Z</time>
      </trkpt>
      <trkpt lat="45.27955" lon="5.78411">
        <ele>1636.7817382812</ele>
        <time>2011-06-04T08:17:28Z</time>
      </trkpt>
      <trkpt lat="45.2795" lon="5.78402">
        <ele>1637.7431640625</ele>
        <time>2011-06-04T08:17:33Z</time>
      </trkpt>
      <trkpt lat="45.27947" lon="5.78386">
        <ele>1634.859375</ele>
        <time>2011-06-04T08:17:39Z</time>
      </trkpt>
      <trkpt lat="45.27947" lon="5.78383">
        <ele>1634.859375</ele>
        <time>2011-06-04T08:17:40Z</time>
      </trkpt>
      <trkpt lat="45.27946" lon="5.78366">
        <ele>1636.3012695312</ele>
        <time>2011-06-04T08:17:45Z</time>
      </trkpt>
      <trkpt lat="45.27945" lon="5.78361">
        <ele>1637.7431640625</ele>
        <time>2011-06-04T08:17:46Z</time>
      </trkpt>
      <trkpt lat="45.27946" lon="5.78342">
        <ele>1642.5498046875</ele>
        <time>2011-06-04T08:17:52Z</time>
      </trkpt>
      <trkpt lat="45.27944" lon="5.78322">
        <ele>1649.759765625</ele>
        <time>2011-06-04T08:17:58Z</time>
      </trkpt>
      <trkpt lat="45.27939" lon="5.78304">
        <ele>1654.5661621094</ele>
        <time>2011-06-04T08:18:03Z</time>
      </trkpt>
      <trkpt lat="45.27937" lon="5.78291">
        <ele>1653.6049804688</ele>
        <time>2011-06-04T08:18:07Z</time>
      </trkpt>
      <trkpt lat="45.27936" lon="5.78277">
        <ele>1655.5275878906</ele>
        <time>2011-06-04T08:18:12Z</time>
      </trkpt>
      <trkpt lat="45.27938" lon="5.78265">
        <ele>1652.6435546875</ele>
        <time>2011-06-04T08:18:17Z</time>
      </trkpt>
      <trkpt lat="45.27938" lon="5.78261">
        <ele>1654.0856933594</ele>
        <time>2011-06-04T08:18:19Z</time>
      </trkpt>
      <trkpt lat="45.27936" lon="5.78252">
        <ele>1651.6823730469</ele>
        <time>2011-06-04T08:18:24Z</time>
      </trkpt>
      <trkpt lat="45.27934" lon="5.78246">
        <ele>1650.7209472656</ele>
        <time>2011-06-04T08:18:26Z</time>
      </trkpt>
      <trkpt lat="45.2793" lon="5.78225">
        <ele>1652.6435546875</ele>
        <time>2011-06-04T08:18:32Z</time>
      </trkpt>
      <trkpt lat="45.27926" lon="5.78217">
        <ele>1650.2404785156</ele>
        <time>2011-06-04T08:18:36Z</time>
      </trkpt>
      <trkpt lat="45.27925" lon="5.78208">
        <ele>1647.8371582031</ele>
        <time>2011-06-04T08:18:39Z</time>
      </trkpt>
      <trkpt lat="45.2792" lon="5.78198">
        <ele>1642.5498046875</ele>
        <time>2011-06-04T08:18:44Z</time>
      </trkpt>
      <trkpt lat="45.27919" lon="5.78193">
        <ele>1641.1076660156</ele>
        <time>2011-06-04T08:18:46Z</time>
      </trkpt>
      <trkpt lat="45.27918" lon="5.78183">
        <ele>1639.6657714844</ele>
        <time>2011-06-04T08:18:50Z</time>
      </trkpt>
      <trkpt lat="45.27914" lon="5.78173">
        <ele>1641.1076660156</ele>
        <time>2011-06-04T08:18:53Z</time>
      </trkpt>
      <trkpt lat="45.27905" lon="5.78166">
        <ele>1637.2624511719</ele>
        <time>2011-06-04T08:18:59Z</time>
      </trkpt>
      <trkpt lat="45.27903" lon="5.78161">
        <ele>1635.33984375</ele>
        <time>2011-06-04T08:19:02Z</time>
      </trkpt>
      <trkpt lat="45.27901" lon="5.78156">
        <ele>1633.4172363281</ele>
        <time>2011-06-04T08:19:05Z</time>
      </trkpt>
      <trkpt lat="45.27898" lon="5.78147">
        <ele>1633.4172363281</ele>
        <time>2011-06-04T08:19:09Z</time>
      </trkpt>
      <trkpt lat="45.27891" lon="5.78138">
        <ele>1635.8205566406</ele>
        <time>2011-06-04T08:19:14Z</time>
      </trkpt>
      <trkpt lat="45.27886" lon="5.78126">
        <ele>1635.33984375</ele>
        <time>2011-06-04T08:19:20Z</time>
      </trkpt>
      <trkpt lat="45.27879" lon="5.7812">
        <ele>1633.4172363281</ele>
        <time>2011-06-04T08:19:25Z</time>
      </trkpt>
      <trkpt lat="45.27879" lon="5.78119">
        <ele>1632.9365234375</ele>
        <time>2011-06-04T08:19:26Z</time>
      </trkpt>
      <trkpt lat="45.27874" lon="5.78116">
        <ele>1632.9365234375</ele>
        <time>2011-06-04T08:19:29Z</time>
      </trkpt>
      <trkpt lat="45.27869" lon="5.78109">
        <ele>1633.4172363281</ele>
        <time>2011-06-04T08:19:35Z</time>
      </trkpt>
      <trkpt lat="45.27867" lon="5.78106">
        <ele>1633.4172363281</ele>
        <time>2011-06-04T08:19:38Z</time>
      </trkpt>
      <trkpt lat="45.27868" lon="5.78094">
        <ele>1634.859375</ele>
        <time>2011-06-04T08:19:43Z</time>
      </trkpt>
      <trkpt lat="45.27871" lon="5.78081">
        <ele>1634.859375</ele>
        <time>2011-06-04T08:19:49Z</time>
      </trkpt>
      <trkpt lat="45.27874" lon="5.78071">
        <ele>1636.3012695312</ele>
        <time>2011-06-04T08:19:53Z</time>
      </trkpt>
      <trkpt lat="45.27878" lon="5.78061">
        <ele>1639.6657714844</ele>
        <time>2011-06-04T08:19:58Z</time>
      </trkpt>
      <trkpt lat="45.27878" lon="5.78056">
        <ele>1645.4338378906</ele>
        <time>2011-06-04T08:20:01Z</time>
      </trkpt>
      <trkpt lat="45.27882" lon="5.78053">
        <ele>1645.9145507812</ele>
        <time>2011-06-04T08:20:05Z</time>
      </trkpt>
      <trkpt lat="45.27884" lon="5.78048">
        <ele>1648.3176269531</ele>
        <time>2011-06-04T08:20:08Z</time>
      </trkpt>
      <trkpt lat="45.27887" lon="5.78043">
        <ele>1651.2016601562</ele>
        <time>2011-06-04T08:20:12Z</time>
      </trkpt>
      <trkpt lat="45.27893" lon="5.78036">
        <ele>1652.1628417969</ele>
        <time>2011-06-04T08:20:17Z</time>
      </trkpt>
      <trkpt lat="45.27895" lon="5.78033">
        <ele>1653.1242675781</ele>
        <time>2011-06-04T08:20:19Z</time>
      </trkpt>
      <trkpt lat="45.27898" lon="5.78032">
        <ele>1652.6435546875</ele>
        <time>2011-06-04T08:20:21Z</time>
      </trkpt>
      <trkpt lat="45.27907" lon="5.78024">
        <ele>1653.1242675781</ele>
        <time>2011-06-04T08:20:27Z</time>
      </trkpt>
      <trkpt lat="45.27913" lon="5.78013">
        <ele>1658.8920898438</ele>
        <time>2011-06-04T08:20:31Z</time>
      </trkpt>
      <trkpt lat="45.27916" lon="5.78004">
        <ele>1659.8532714844</ele>
        <time>2011-06-04T08:20:36Z</time>
      </trkpt>
      <trkpt lat="45.27917" lon="5.78003">
        <ele>1658.4113769531</ele>
        <time>2011-06-04T08:20:37Z</time>
      </trkpt>
      <trkpt lat="45.27921" lon="5.77997">
        <ele>1652.1628417969</ele>
        <time>2011-06-04T08:20:41Z</time>
      </trkpt>
      <trkpt lat="45.27922" lon="5.77985">
        <ele>1652.1628417969</ele>
        <time>2011-06-04T08:20:46Z</time>
      </trkpt>
      <trkpt lat="45.27923" lon="5.77983">
        <ele>1650.7209472656</ele>
        <time>2011-06-04T08:20:47Z</time>
      </trkpt>
      <trkpt lat="45.27925" lon="5.77971">
        <ele>1652.6435546875</ele>
        <time>2011-06-04T08:20:52Z</time>
      </trkpt>
      <trkpt lat="45.27927" lon="5.77963">
        <ele>1653.1242675781</ele>
        <time>2011-06-04T08:20:56Z</time>
      </trkpt>
      <trkpt lat="45.27928" lon="5.77945">
        <ele>1648.3176269531</ele>
        <time>2011-06-04T08:21:02Z</time>
      </trkpt>
      <trkpt lat="45.2793" lon="5.77934">
        <ele>1647.8371582031</ele>
        <time>2011-06-04T08:21:07Z</time>
      </trkpt>
      <trkpt lat="45.27932" lon="5.77928">
        <ele>1646.8757324219</ele>
        <time>2011-06-04T08:21:11Z</time>
      </trkpt>
      <trkpt lat="45.27935" lon="5.77917">
        <ele>1643.9916992188</ele>
        <time>2011-06-04T08:21:16Z</time>
      </trkpt>
      <trkpt lat="45.2794" lon="5.77906">
        <ele>1647.3564453125</ele>
        <time>2011-06-04T08:21:21Z</time>
      </trkpt>
      <trkpt lat="45.27946" lon="5.77896">
        <ele>1647.3564453125</ele>
        <time>2011-06-04T08:21:26Z</time>
      </trkpt>
      <trkpt lat="45.27947" lon="5.77894">
        <ele>1647.8371582031</ele>
        <time>2011-06-04T08:21:27Z</time>
      </trkpt>
      <trkpt lat="45.27953" lon="5.77887">
        <ele>1649.2790527344</ele>
        <time>2011-06-04T08:21:32Z</time>
      </trkpt>
      <trkpt lat="45.27959" lon="5.77881">
        <ele>1649.759765625</ele>
        <time>2011-06-04T08:21:37Z</time>
      </trkpt>
      <trkpt lat="45.27962" lon="5.77872">
        <ele>1652.6435546875</ele>
        <time>2011-06-04T08:21:41Z</time>
      </trkpt>
      <trkpt lat="45.27966" lon="5.77866">
        <ele>1654.5661621094</ele>
        <time>2011-06-04T08:21:44Z</time>
      </trkpt>
      <trkpt lat="45.27972" lon="5.77863">
        <ele>1652.1628417969</ele>
        <time>2011-06-04T08:21:48Z</time>
      </trkpt>
      <trkpt lat="45.27975" lon="5.77859">
        <ele>1651.2016601562</ele>
        <time>2011-06-04T08:21:51Z</time>
      </trkpt>
      <trkpt lat="45.27984" lon="5.77848">
        <ele>1653.1242675781</ele>
        <time>2011-06-04T08:21:56Z</time>
      </trkpt>
      <trkpt lat="45.27992" lon="5.77841">
        <ele>1650.7209472656</ele>
        <time>2011-06-04T08:22:01Z</time>
      </trkpt>
      <trkpt lat="45.27999" lon="5.77829">
        <ele>1650.7209472656</ele>
        <time>2011-06-04T08:22:07Z</time>
      </trkpt>
      <trkpt lat="45.28007" lon="5.77813">
        <ele>1653.6049804688</ele>
        <time>2011-06-04T08:22:13Z</time>
      </trkpt>
      <trkpt lat="45.28012" lon="5.77805">
        <ele>1656.9694824219</ele>
        <time>2011-06-04T08:22:18Z</time>
      </trkpt>
      <trkpt lat="45.2802" lon="5.77788">
        <ele>1657.9309082031</ele>
        <time>2011-06-04T08:22:25Z</time>
      </trkpt>
      <trkpt lat="45.28023" lon="5.77781">
        <ele>1658.4113769531</ele>
        <time>2011-06-04T08:22:28Z</time>
      </trkpt>
      <trkpt lat="45.2803" lon="5.77773">
        <ele>1658.8920898438</ele>
        <time>2011-06-04T08:22:32Z</time>
      </trkpt>
      <trkpt lat="45.28033" lon="5.77771">
        <ele>1659.3728027344</ele>
        <time>2011-06-04T08:22:35Z</time>
      </trkpt>
      <trkpt lat="45.28037" lon="5.77762">
        <ele>1658.8920898438</ele>
        <time>2011-06-04T08:22:39Z</time>
      </trkpt>
      <trkpt lat="45.28043" lon="5.77752">
        <ele>1662.7375488281</ele>
        <time>2011-06-04T08:22:44Z</time>
      </trkpt>
      <trkpt lat="45.28053" lon="5.77736">
        <ele>1663.6987304688</ele>
        <time>2011-06-04T08:22:52Z</time>
      </trkpt>
      <trkpt lat="45.28059" lon="5.77727">
        <ele>1663.6987304688</ele>
        <time>2011-06-04T08:22:56Z</time>
      </trkpt>
      <trkpt lat="45.28067" lon="5.7772">
        <ele>1660.8149414062</ele>
        <time>2011-06-04T08:23:00Z</time>
      </trkpt>
      <trkpt lat="45.28069" lon="5.77718">
        <ele>1658.8920898438</ele>
        <time>2011-06-04T08:23:01Z</time>
      </trkpt>
      <trkpt lat="45.28071" lon="5.77714">
        <ele>1658.4113769531</ele>
        <time>2011-06-04T08:23:03Z</time>
      </trkpt>
      <trkpt lat="45.28085" lon="5.7771">
        <ele>1649.759765625</ele>
        <time>2011-06-04T08:23:09Z</time>
      </trkpt>
      <trkpt lat="45.28093" lon="5.77707">
        <ele>1645.9145507812</ele>
        <time>2011-06-04T08:23:13Z</time>
      </trkpt>
      <trkpt lat="45.28098" lon="5.77701">
        <ele>1643.5109863281</ele>
        <time>2011-06-04T08:23:16Z</time>
      </trkpt>
      <trkpt lat="45.28101" lon="5.77695">
        <ele>1643.5109863281</ele>
        <time>2011-06-04T08:23:21Z</time>
      </trkpt>
      <trkpt lat="45.28106" lon="5.77681">
        <ele>1640.146484375</ele>
        <time>2011-06-04T08:23:26Z</time>
      </trkpt>
      <trkpt lat="45.28109" lon="5.77678">
        <ele>1641.1076660156</ele>
        <time>2011-06-04T08:23:28Z</time>
      </trkpt>
      <trkpt lat="45.28112" lon="5.77676">
        <ele>1643.5109863281</ele>
        <time>2011-06-04T08:23:31Z</time>
      </trkpt>
      <trkpt lat="45.28116" lon="5.77676">
        <ele>1643.9916992188</ele>
        <time>2011-06-04T08:23:33Z</time>
      </trkpt>
      <trkpt lat="45.28126" lon="5.77674">
        <ele>1644.953125</ele>
        <time>2011-06-04T08:23:38Z</time>
      </trkpt>
      <trkpt lat="45.2813" lon="5.77674">
        <ele>1646.3952636719</ele>
        <time>2011-06-04T08:23:40Z</time>
      </trkpt>
      <trkpt lat="45.28143" lon="5.77675">
        <ele>1645.9145507812</ele>
        <time>2011-06-04T08:23:47Z</time>
      </trkpt>
      <trkpt lat="45.28151" lon="5.77677">
        <ele>1642.5498046875</ele>
        <time>2011-06-04T08:23:51Z</time>
      </trkpt>
      <trkpt lat="45.28164" lon="5.7768">
        <ele>1643.9916992188</ele>
        <time>2011-06-04T08:23:58Z</time>
      </trkpt>
      <trkpt lat="45.28173" lon="5.77686">
        <ele>1642.5498046875</ele>
        <time>2011-06-04T08:24:04Z</time>
      </trkpt>
      <trkpt lat="45.28178" lon="5.77693">
        <ele>1644.4724121094</ele>
        <time>2011-06-04T08:24:08Z</time>
      </trkpt>
      <trkpt lat="45.28185" lon="5.77696">
        <ele>1645.4338378906</ele>
        <time>2011-06-04T08:24:12Z</time>
      </trkpt>
      <trkpt lat="45.28192" lon="5.77697">
        <ele>1647.3564453125</ele>
        <time>2011-06-04T08:24:17Z</time>
      </trkpt>
      <trkpt lat="45.28196" lon="5.777">
        <ele>1648.3176269531</ele>
        <time>2011-06-04T08:24:21Z</time>
      </trkpt>
      <trkpt lat="45.28202" lon="5.77702">
        <ele>1647.3564453125</ele>
        <time>2011-06-04T08:24:25Z</time>
      </trkpt>
      <trkpt lat="45.28204" lon="5.77704">
        <ele>1647.3564453125</ele>
        <time>2011-06-04T08:24:27Z</time>
      </trkpt>
      <trkpt lat="45.28212" lon="5.77709">
        <ele>1647.3564453125</ele>
        <time>2011-06-04T08:24:32Z</time>
      </trkpt>
      <trkpt lat="45.28225" lon="5.77712">
        <ele>1655.046875</ele>
        <time>2011-06-04T08:24:38Z</time>
      </trkpt>
      <trkpt lat="45.28232" lon="5.77715">
        <ele>1661.2956542969</ele>
        <time>2011-06-04T08:24:43Z</time>
      </trkpt>
      <trkpt lat="45.28233" lon="5.77716">
        <ele>1663.2182617188</ele>
        <time>2011-06-04T08:24:44Z</time>
      </trkpt>
      <trkpt lat="45.28236" lon="5.77715">
        <ele>1680.0412597656</ele>
        <time>2011-06-04T08:24:50Z</time>
      </trkpt>
      <trkpt lat="45.28248" lon="5.77716">
        <ele>1681.9638671875</ele>
        <time>2011-06-04T08:24:56Z</time>
      </trkpt>
      <trkpt lat="45.28259" lon="5.7772">
        <ele>1676.6767578125</ele>
        <time>2011-06-04T08:25:01Z</time>
      </trkpt>
      <trkpt lat="45.28268" lon="5.77727">
        <ele>1666.1020507812</ele>
        <time>2011-06-04T08:25:05Z</time>
      </trkpt>
      <trkpt lat="45.28276" lon="5.7773">
        <ele>1667.0634765625</ele>
        <time>2011-06-04T08:25:10Z</time>
      </trkpt>
      <trkpt lat="45.28288" lon="5.77732">
        <ele>1663.2182617188</ele>
        <time>2011-06-04T08:25:15Z</time>
      </trkpt>
      <trkpt lat="45.28304" lon="5.77745">
        <ele>1651.6823730469</ele>
        <time>2011-06-04T08:25:20Z</time>
      </trkpt>
      <trkpt lat="45.28313" lon="5.77753">
        <ele>1645.9145507812</ele>
        <time>2011-06-04T08:25:24Z</time>
      </trkpt>
      <trkpt lat="45.28325" lon="5.77763">
        <ele>1640.146484375</ele>
        <time>2011-06-04T08:25:31Z</time>
      </trkpt>
      <trkpt lat="45.28331" lon="5.77769">
        <ele>1641.1076660156</ele>
        <time>2011-06-04T08:25:36Z</time>
      </trkpt>
      <trkpt lat="45.28341" lon="5.77775">
        <ele>1640.146484375</ele>
        <time>2011-06-04T08:25:42Z</time>
      </trkpt>
      <trkpt lat="45.28347" lon="5.77778">
        <ele>1639.1850585938</ele>
        <time>2011-06-04T08:25:46Z</time>
      </trkpt>
      <trkpt lat="45.28355" lon="5.77781">
        <ele>1639.6657714844</ele>
        <time>2011-06-04T08:25:52Z</time>
      </trkpt>
      <trkpt lat="45.28357" lon="5.77783">
        <ele>1639.1850585938</ele>
        <time>2011-06-04T08:25:53Z</time>
      </trkpt>
      <trkpt lat="45.28359" lon="5.77785">
        <ele>1639.6657714844</ele>
        <time>2011-06-04T08:25:55Z</time>
      </trkpt>
      <trkpt lat="45.28366" lon="5.77793">
        <ele>1637.7431640625</ele>
        <time>2011-06-04T08:26:01Z</time>
      </trkpt>
      <trkpt lat="45.28366" lon="5.77794">
        <ele>1637.7431640625</ele>
        <time>2011-06-04T08:26:02Z</time>
      </trkpt>
      <trkpt lat="45.28368" lon="5.77797">
        <ele>1637.7431640625</ele>
        <time>2011-06-04T08:26:04Z</time>
      </trkpt>
      <trkpt lat="45.28376" lon="5.77802">
        <ele>1636.7817382812</ele>
        <time>2011-06-04T08:26:10Z</time>
      </trkpt>
      <trkpt lat="45.28379" lon="5.77804">
        <ele>1637.7431640625</ele>
        <time>2011-06-04T08:26:14Z</time>
      </trkpt>
      <trkpt lat="45.28382" lon="5.77806">
        <ele>1639.1850585938</ele>
        <time>2011-06-04T08:26:21Z</time>
      </trkpt>
      <trkpt lat="45.28385" lon="5.77808">
        <ele>1638.7045898438</ele>
        <time>2011-06-04T08:26:24Z</time>
      </trkpt>
      <trkpt lat="45.28394" lon="5.77813">
        <ele>1640.626953125</ele>
        <time>2011-06-04T08:26:30Z</time>
      </trkpt>
      <trkpt lat="45.28402" lon="5.77816">
        <ele>1641.1076660156</ele>
        <time>2011-06-04T08:26:34Z</time>
      </trkpt>
      <trkpt lat="45.28406" lon="5.77819">
        <ele>1642.0690917969</ele>
        <time>2011-06-04T08:26:37Z</time>
      </trkpt>
      <trkpt lat="45.28417" lon="5.77828">
        <ele>1639.6657714844</ele>
        <time>2011-06-04T08:26:44Z</time>
      </trkpt>
      <trkpt lat="45.28429" lon="5.77838">
        <ele>1638.7045898438</ele>
        <time>2011-06-04T08:26:50Z</time>
      </trkpt>
      <trkpt lat="45.28439" lon="5.77844">
        <ele>1636.7817382812</ele>
        <time>2011-06-04T08:26:55Z</time>
      </trkpt>
      <trkpt lat="45.28443" lon="5.77846">
        <ele>1637.7431640625</ele>
        <time>2011-06-04T08:26:57Z</time>
      </trkpt>
      <trkpt lat="45.28452" lon="5.77854">
        <ele>1639.6657714844</ele>
        <time>2011-06-04T08:27:02Z</time>
      </trkpt>
      <trkpt lat="45.28456" lon="5.77857">
        <ele>1639.1850585938</ele>
        <time>2011-06-04T08:27:04Z</time>
      </trkpt>
      <trkpt lat="45.2847" lon="5.77863">
        <ele>1643.0302734375</ele>
        <time>2011-06-04T08:27:10Z</time>
      </trkpt>
      <trkpt lat="45.28481" lon="5.7787">
        <ele>1643.5109863281</ele>
        <time>2011-06-04T08:27:16Z</time>
      </trkpt>
      <trkpt lat="45.28485" lon="5.77873">
        <ele>1641.5883789062</ele>
        <time>2011-06-04T08:27:18Z</time>
      </trkpt>
      <trkpt lat="45.28489" lon="5.77877">
        <ele>1640.146484375</ele>
        <time>2011-06-04T08:27:22Z</time>
      </trkpt>
      <trkpt lat="45.28493" lon="5.77877">
        <ele>1640.146484375</ele>
        <time>2011-06-04T08:27:26Z</time>
      </trkpt>
      <trkpt lat="45.28496" lon="5.77877">
        <ele>1639.6657714844</ele>
        <time>2011-06-04T08:27:29Z</time>
      </trkpt>
      <trkpt lat="45.28509" lon="5.77883">
        <ele>1636.7817382812</ele>
        <time>2011-06-04T08:27:34Z</time>
      </trkpt>
      <trkpt lat="45.28514" lon="5.77885">
        <ele>1637.2624511719</ele>
        <time>2011-06-04T08:27:36Z</time>
      </trkpt>
      <trkpt lat="45.28519" lon="5.77891">
        <ele>1636.3012695312</ele>
        <time>2011-06-04T08:27:40Z</time>
      </trkpt>
      <trkpt lat="45.28529" lon="5.77898">
        <ele>1637.7431640625</ele>
        <time>2011-06-04T08:27:46Z</time>
      </trkpt>
      <trkpt lat="45.28537" lon="5.77904">
        <ele>1635.8205566406</ele>
        <time>2011-06-04T08:27:50Z</time>
      </trkpt>
      <trkpt lat="45.28545" lon="5.77906">
        <ele>1632.4560546875</ele>
        <time>2011-06-04T08:27:55Z</time>
      </trkpt>
      <trkpt lat="45.28556" lon="5.77916">
        <ele>1630.052734375</ele>
        <time>2011-06-04T08:28:01Z</time>
      </trkpt>
      <trkpt lat="45.28565" lon="5.77923">
        <ele>1628.6108398438</ele>
        <time>2011-06-04T08:28:06Z</time>
      </trkpt>
      <trkpt lat="45.28569" lon="5.7793">
        <ele>1629.0913085938</ele>
        <time>2011-06-04T08:28:09Z</time>
      </trkpt>
      <trkpt lat="45.28576" lon="5.77943">
        <ele>1629.5720214844</ele>
        <time>2011-06-04T08:28:15Z</time>
      </trkpt>
      <trkpt lat="45.28577" lon="5.77947">
        <ele>1630.052734375</ele>
        <time>2011-06-04T08:28:17Z</time>
      </trkpt>
      <trkpt lat="45.2858" lon="5.77953">
        <ele>1633.8979492188</ele>
        <time>2011-06-04T08:28:21Z</time>
      </trkpt>
      <trkpt lat="45.28583" lon="5.7796">
        <ele>1636.7817382812</ele>
        <time>2011-06-04T08:28:27Z</time>
      </trkpt>
      <trkpt lat="45.28585" lon="5.77968">
        <ele>1638.2238769531</ele>
        <time>2011-06-04T08:28:34Z</time>
      </trkpt>
      <trkpt lat="45.28586" lon="5.77974">
        <ele>1640.626953125</ele>
        <time>2011-06-04T08:28:42Z</time>
      </trkpt>
      <trkpt lat="45.28587" lon="5.77981">
        <ele>1642.5498046875</ele>
        <time>2011-06-04T08:28:49Z</time>
      </trkpt>
      <trkpt lat="45.2859" lon="5.77988">
        <ele>1644.953125</ele>
        <time>2011-06-04T08:28:57Z</time>
      </trkpt>
      <trkpt lat="45.28592" lon="5.77993">
        <ele>1647.3564453125</ele>
        <time>2011-06-04T08:29:03Z</time>
      </trkpt>
      <trkpt lat="45.28595" lon="5.78">
        <ele>1649.759765625</ele>
        <time>2011-06-04T08:29:11Z</time>
      </trkpt>
      <trkpt lat="45.28599" lon="5.78003">
        <ele>1651.2016601562</ele>
        <time>2011-06-04T08:29:16Z</time>
      </trkpt>
      <trkpt lat="45.28605" lon="5.78006">
        <ele>1651.6823730469</ele>
        <time>2011-06-04T08:29:23Z</time>
      </trkpt>
      <trkpt lat="45.28613" lon="5.78008">
        <ele>1651.6823730469</ele>
        <time>2011-06-04T08:29:30Z</time>
      </trkpt>
      <trkpt lat="45.2862" lon="5.78013">
        <ele>1652.6435546875</ele>
        <time>2011-06-04T08:29:37Z</time>
      </trkpt>
      <trkpt lat="45.28621" lon="5.78013">
        <ele>1652.6435546875</ele>
        <time>2011-06-04T08:29:38Z</time>
      </trkpt>
      <trkpt lat="45.28626" lon="5.78017">
        <ele>1654.0856933594</ele>
        <time>2011-06-04T08:29:45Z</time>
      </trkpt>
      <trkpt lat="45.28633" lon="5.7802">
        <ele>1655.5275878906</ele>
        <time>2011-06-04T08:29:52Z</time>
      </trkpt>
      <trkpt lat="45.28637" lon="5.78025">
        <ele>1656.4887695312</ele>
        <time>2011-06-04T08:29:59Z</time>
      </trkpt>
      <trkpt lat="45.2864" lon="5.78028">
        <ele>1657.9309082031</ele>
        <time>2011-06-04T08:30:06Z</time>
      </trkpt>
      <trkpt lat="45.28645" lon="5.7803">
        <ele>1659.8532714844</ele>
        <time>2011-06-04T08:30:13Z</time>
      </trkpt>
      <trkpt lat="45.28649" lon="5.78029">
        <ele>1661.2956542969</ele>
        <time>2011-06-04T08:30:18Z</time>
      </trkpt>
      <trkpt lat="45.28655" lon="5.78028">
        <ele>1661.7763671875</ele>
        <time>2011-06-04T08:30:24Z</time>
      </trkpt>
      <trkpt lat="45.28658" lon="5.78029">
        <ele>1662.2568359375</ele>
        <time>2011-06-04T08:30:27Z</time>
      </trkpt>
      <trkpt lat="45.28664" lon="5.78032">
        <ele>1663.6987304688</ele>
        <time>2011-06-04T08:30:35Z</time>
      </trkpt>
      <trkpt lat="45.28669" lon="5.78031">
        <ele>1665.6215820312</ele>
        <time>2011-06-04T08:30:43Z</time>
      </trkpt>
      <trkpt lat="45.28675" lon="5.78029">
        <ele>1666.5827636719</ele>
        <time>2011-06-04T08:30:48Z</time>
      </trkpt>
      <trkpt lat="45.28689" lon="5.78021">
        <ele>1668.9860839844</ele>
        <time>2011-06-04T08:30:59Z</time>
      </trkpt>
      <trkpt lat="45.28703" lon="5.78021">
        <ele>1670.9086914062</ele>
        <time>2011-06-04T08:31:09Z</time>
      </trkpt>
      <trkpt lat="45.28704" lon="5.78021">
        <ele>1671.3891601562</ele>
        <time>2011-06-04T08:31:10Z</time>
      </trkpt>
      <trkpt lat="45.28704" lon="5.78025">
        <ele>1672.3505859375</ele>
        <time>2011-06-04T08:31:14Z</time>
      </trkpt>
      <trkpt lat="45.28697" lon="5.78031">
        <ele>1674.75390625</ele>
        <time>2011-06-04T08:31:21Z</time>
      </trkpt>
      <trkpt lat="45.2869" lon="5.78042">
        <ele>1676.1960449219</ele>
        <time>2011-06-04T08:31:29Z</time>
      </trkpt>
      <trkpt lat="45.28687" lon="5.78051">
        <ele>1678.5993652344</ele>
        <time>2011-06-04T08:31:36Z</time>
      </trkpt>
      <trkpt lat="45.28683" lon="5.7806">
        <ele>1680.5219726562</ele>
        <time>2011-06-04T08:31:43Z</time>
      </trkpt>
      <trkpt lat="45.28679" lon="5.78066">
        <ele>1682.4445800781</ele>
        <time>2011-06-04T08:31:49Z</time>
      </trkpt>
      <trkpt lat="45.28672" lon="5.78071">
        <ele>1683.8864746094</ele>
        <time>2011-06-04T08:31:55Z</time>
      </trkpt>
      <trkpt lat="45.28667" lon="5.78078">
        <ele>1685.3283691406</ele>
        <time>2011-06-04T08:32:01Z</time>
      </trkpt>
      <trkpt lat="45.28664" lon="5.78079">
        <ele>1685.8090820312</ele>
        <time>2011-06-04T08:32:03Z</time>
      </trkpt>
      <trkpt lat="45.28659" lon="5.78084">
        <ele>1686.2897949219</ele>
        <time>2011-06-04T08:32:09Z</time>
      </trkpt>
      <trkpt lat="45.2865" lon="5.7809">
        <ele>1687.7316894531</ele>
        <time>2011-06-04T08:32:17Z</time>
      </trkpt>
      <trkpt lat="45.28642" lon="5.78093">
        <ele>1689.1735839844</ele>
        <time>2011-06-04T08:32:25Z</time>
      </trkpt>
      <trkpt lat="45.28633" lon="5.78098">
        <ele>1691.5769042969</ele>
        <time>2011-06-04T08:32:34Z</time>
      </trkpt>
      <trkpt lat="45.28623" lon="5.78102">
        <ele>1693.4997558594</ele>
        <time>2011-06-04T08:32:43Z</time>
      </trkpt>
      <trkpt lat="45.28612" lon="5.78107">
        <ele>1695.4223632812</ele>
        <time>2011-06-04T08:32:52Z</time>
      </trkpt>
      <trkpt lat="45.28606" lon="5.78111">
        <ele>1696.8642578125</ele>
        <time>2011-06-04T08:32:59Z</time>
      </trkpt>
      <trkpt lat="45.28606" lon="5.78114">
        <ele>1699.267578125</ele>
        <time>2011-06-04T08:33:05Z</time>
      </trkpt>
      <trkpt lat="45.28614" lon="5.78115">
        <ele>1701.6708984375</ele>
        <time>2011-06-04T08:33:12Z</time>
      </trkpt>
      <trkpt lat="45.28617" lon="5.78116">
        <ele>1702.6320800781</ele>
        <time>2011-06-04T08:33:16Z</time>
      </trkpt>
      <trkpt lat="45.28626" lon="5.78121">
        <ele>1704.07421875</ele>
        <time>2011-06-04T08:33:25Z</time>
      </trkpt>
      <trkpt lat="45.28633" lon="5.78126">
        <ele>1705.0354003906</ele>
        <time>2011-06-04T08:33:32Z</time>
      </trkpt>
      <trkpt lat="45.28643" lon="5.7813">
        <ele>1705.5161132812</ele>
        <time>2011-06-04T08:33:42Z</time>
      </trkpt>
      <trkpt lat="45.28655" lon="5.78132">
        <ele>1706.9580078125</ele>
        <time>2011-06-04T08:33:52Z</time>
      </trkpt>
      <trkpt lat="45.28667" lon="5.78134">
        <ele>1707.9194335938</ele>
        <time>2011-06-04T08:34:01Z</time>
      </trkpt>
      <trkpt lat="45.28675" lon="5.78134">
        <ele>1709.8420410156</ele>
        <time>2011-06-04T08:34:08Z</time>
      </trkpt>
      <trkpt lat="45.28683" lon="5.78134">
        <ele>1712.2453613281</ele>
        <time>2011-06-04T08:34:15Z</time>
      </trkpt>
      <trkpt lat="45.28691" lon="5.78133">
        <ele>1714.16796875</ele>
        <time>2011-06-04T08:34:22Z</time>
      </trkpt>
      <trkpt lat="45.28699" lon="5.78132">
        <ele>1716.0905761719</ele>
        <time>2011-06-04T08:34:29Z</time>
      </trkpt>
      <trkpt lat="45.28707" lon="5.78133">
        <ele>1718.0131835938</ele>
        <time>2011-06-04T08:34:37Z</time>
      </trkpt>
      <trkpt lat="45.28714" lon="5.78138">
        <ele>1718.4938964844</ele>
        <time>2011-06-04T08:34:45Z</time>
      </trkpt>
      <trkpt lat="45.28716" lon="5.78139">
        <ele>1718.974609375</ele>
        <time>2011-06-04T08:34:46Z</time>
      </trkpt>
      <trkpt lat="45.28714" lon="5.78143">
        <ele>1720.8972167969</ele>
        <time>2011-06-04T08:34:51Z</time>
      </trkpt>
      <trkpt lat="45.28706" lon="5.78149">
        <ele>1723.7810058594</ele>
        <time>2011-06-04T08:34:59Z</time>
      </trkpt>
      <trkpt lat="45.28698" lon="5.78157">
        <ele>1728.1071777344</ele>
        <time>2011-06-04T08:35:09Z</time>
      </trkpt>
      <trkpt lat="45.28697" lon="5.78164">
        <ele>1730.0297851562</ele>
        <time>2011-06-04T08:35:16Z</time>
      </trkpt>
      <trkpt lat="45.28694" lon="5.7817">
        <ele>1730.9912109375</ele>
        <time>2011-06-04T08:35:23Z</time>
      </trkpt>
      <trkpt lat="45.2869" lon="5.78175">
        <ele>1732.4331054688</ele>
        <time>2011-06-04T08:35:29Z</time>
      </trkpt>
      <trkpt lat="45.28688" lon="5.78182">
        <ele>1734.3557128906</ele>
        <time>2011-06-04T08:35:37Z</time>
      </trkpt>
      <trkpt lat="45.28686" lon="5.78187">
        <ele>1736.7587890625</ele>
        <time>2011-06-04T08:35:43Z</time>
      </trkpt>
      <trkpt lat="45.28683" lon="5.78193">
        <ele>1739.162109375</ele>
        <time>2011-06-04T08:35:50Z</time>
      </trkpt>
      <trkpt lat="45.28679" lon="5.78196">
        <ele>1740.1237792969</ele>
        <time>2011-06-04T08:35:56Z</time>
      </trkpt>
      <trkpt lat="45.28674" lon="5.782">
        <ele>1743.0075683594</ele>
        <time>2011-06-04T08:36:04Z</time>
      </trkpt>
      <trkpt lat="45.28673" lon="5.78205">
        <ele>1744.9301757812</ele>
        <time>2011-06-04T08:36:11Z</time>
      </trkpt>
      <trkpt lat="45.28669" lon="5.7821">
        <ele>1746.8527832031</ele>
        <time>2011-06-04T08:36:19Z</time>
      </trkpt>
      <trkpt lat="45.28664" lon="5.78212">
        <ele>1747.8142089844</ele>
        <time>2011-06-04T08:36:27Z</time>
      </trkpt>
      <trkpt lat="45.28662" lon="5.78215">
        <ele>1749.7368164062</ele>
        <time>2011-06-04T08:36:32Z</time>
      </trkpt>
      <trkpt lat="45.2866" lon="5.78219">
        <ele>1751.6594238281</ele>
        <time>2011-06-04T08:36:39Z</time>
      </trkpt>
      <trkpt lat="45.2866" lon="5.78223">
        <ele>1753.1013183594</ele>
        <time>2011-06-04T08:36:46Z</time>
      </trkpt>
      <trkpt lat="45.28664" lon="5.78225">
        <ele>1754.0627441406</ele>
        <time>2011-06-04T08:36:52Z</time>
      </trkpt>
      <trkpt lat="45.28665" lon="5.78229">
        <ele>1755.0239257812</ele>
        <time>2011-06-04T08:36:57Z</time>
      </trkpt>
      <trkpt lat="45.28667" lon="5.7823">
        <ele>1755.9851074219</ele>
        <time>2011-06-04T08:37:02Z</time>
      </trkpt>
      <trkpt lat="45.28672" lon="5.78235">
        <ele>1756.9467773438</ele>
        <time>2011-06-04T08:37:09Z</time>
      </trkpt>
      <trkpt lat="45.28675" lon="5.78241">
        <ele>1757.4274902344</ele>
        <time>2011-06-04T08:37:16Z</time>
      </trkpt>
      <trkpt lat="45.28678" lon="5.78243">
        <ele>1758.8693847656</ele>
        <time>2011-06-04T08:37:24Z</time>
      </trkpt>
      <trkpt lat="45.28683" lon="5.78244">
        <ele>1761.7534179688</ele>
        <time>2011-06-04T08:37:30Z</time>
      </trkpt>
      <trkpt lat="45.28687" lon="5.78246">
        <ele>1764.1564941406</ele>
        <time>2011-06-04T08:37:37Z</time>
      </trkpt>
      <trkpt lat="45.2869" lon="5.78249">
        <ele>1766.0791015625</ele>
        <time>2011-06-04T08:37:43Z</time>
      </trkpt>
      <trkpt lat="45.28687" lon="5.78251">
        <ele>1766.5598144531</ele>
        <time>2011-06-04T08:37:48Z</time>
      </trkpt>
      <trkpt lat="45.28684" lon="5.78254">
        <ele>1768.9631347656</ele>
        <time>2011-06-04T08:37:53Z</time>
      </trkpt>
      <trkpt lat="45.2868" lon="5.78258">
        <ele>1770.4050292969</ele>
        <time>2011-06-04T08:37:59Z</time>
      </trkpt>
      <trkpt lat="45.28678" lon="5.78259">
        <ele>1770.4050292969</ele>
        <time>2011-06-04T08:38:01Z</time>
      </trkpt>
      <trkpt lat="45.28668" lon="5.78259">
        <ele>1769.9243164062</ele>
        <time>2011-06-04T08:38:09Z</time>
      </trkpt>
      <trkpt lat="45.2866" lon="5.78258">
        <ele>1768.0017089844</ele>
        <time>2011-06-04T08:38:15Z</time>
      </trkpt>
      <trkpt lat="45.28652" lon="5.78252">
        <ele>1768.482421875</ele>
        <time>2011-06-04T08:38:22Z</time>
      </trkpt>
      <trkpt lat="45.28651" lon="5.7825">
        <ele>1768.0017089844</ele>
        <time>2011-06-04T08:38:23Z</time>
      </trkpt>
      <trkpt lat="45.28647" lon="5.78246">
        <ele>1768.482421875</ele>
        <time>2011-06-04T08:38:27Z</time>
      </trkpt>
      <trkpt lat="45.28641" lon="5.78246">
        <ele>1769.4438476562</ele>
        <time>2011-06-04T08:38:33Z</time>
      </trkpt>
      <trkpt lat="45.28636" lon="5.78247">
        <ele>1771.8469238281</ele>
        <time>2011-06-04T08:38:40Z</time>
      </trkpt>
      <trkpt lat="45.28629" lon="5.78245">
        <ele>1773.7697753906</ele>
        <time>2011-06-04T08:38:48Z</time>
      </trkpt>
      <trkpt lat="45.28626" lon="5.78243">
        <ele>1774.7312011719</ele>
        <time>2011-06-04T08:38:53Z</time>
      </trkpt>
      <trkpt lat="45.28622" lon="5.78244">
        <ele>1777.6149902344</ele>
        <time>2011-06-04T08:39:00Z</time>
      </trkpt>
      <trkpt lat="45.28618" lon="5.78245">
        <ele>1779.0568847656</ele>
        <time>2011-06-04T08:39:05Z</time>
      </trkpt>
      <trkpt lat="45.28619" lon="5.78248">
        <ele>1780.0183105469</ele>
        <time>2011-06-04T08:39:10Z</time>
      </trkpt>
      <trkpt lat="45.2862" lon="5.78251">
        <ele>1781.4602050781</ele>
        <time>2011-06-04T08:39:15Z</time>
      </trkpt>
      <trkpt lat="45.28623" lon="5.78256">
        <ele>1783.8635253906</ele>
        <time>2011-06-04T08:39:22Z</time>
      </trkpt>
      <trkpt lat="45.2862" lon="5.78257">
        <ele>1785.7861328125</ele>
        <time>2011-06-04T08:39:28Z</time>
      </trkpt>
      <trkpt lat="45.28613" lon="5.78257">
        <ele>1787.7087402344</ele>
        <time>2011-06-04T08:39:36Z</time>
      </trkpt>
      <trkpt lat="45.28606" lon="5.78256">
        <ele>1789.6315917969</ele>
        <time>2011-06-04T08:39:45Z</time>
      </trkpt>
      <trkpt lat="45.28601" lon="5.78257">
        <ele>1790.5927734375</ele>
        <time>2011-06-04T08:39:53Z</time>
      </trkpt>
      <trkpt lat="45.28604" lon="5.78261">
        <ele>1792.99609375</ele>
        <time>2011-06-04T08:39:58Z</time>
      </trkpt>
      <trkpt lat="45.28604" lon="5.78265">
        <ele>1795.8801269531</ele>
        <time>2011-06-04T08:40:04Z</time>
      </trkpt>
      <trkpt lat="45.286" lon="5.78265">
        <ele>1797.3220214844</ele>
        <time>2011-06-04T08:40:09Z</time>
      </trkpt>
      <trkpt lat="45.28592" lon="5.78264">
        <ele>1799.7253417969</ele>
        <time>2011-06-04T08:40:17Z</time>
      </trkpt>
      <trkpt lat="45.28585" lon="5.78264">
        <ele>1799.7253417969</ele>
        <time>2011-06-04T08:40:23Z</time>
      </trkpt>
      <trkpt lat="45.28576" lon="5.78263">
        <ele>1800.6865234375</ele>
        <time>2011-06-04T08:40:31Z</time>
      </trkpt>
      <trkpt lat="45.28568" lon="5.78263">
        <ele>1801.1672363281</ele>
        <time>2011-06-04T08:40:38Z</time>
      </trkpt>
      <trkpt lat="45.28559" lon="5.78263">
        <ele>1801.1672363281</ele>
        <time>2011-06-04T08:40:45Z</time>
      </trkpt>
      <trkpt lat="45.2855" lon="5.78262">
        <ele>1802.6091308594</ele>
        <time>2011-06-04T08:40:52Z</time>
      </trkpt>
      <trkpt lat="45.28545" lon="5.7826">
        <ele>1803.5705566406</ele>
        <time>2011-06-04T08:40:57Z</time>
      </trkpt>
      <trkpt lat="45.28537" lon="5.78259">
        <ele>1804.5319824219</ele>
        <time>2011-06-04T08:41:02Z</time>
      </trkpt>
      <trkpt lat="45.28532" lon="5.78259">
        <ele>1805.0126953125</ele>
        <time>2011-06-04T08:41:06Z</time>
      </trkpt>
      <trkpt lat="45.28523" lon="5.78258">
        <ele>1806.4545898438</ele>
        <time>2011-06-04T08:41:13Z</time>
      </trkpt>
      <trkpt lat="45.28514" lon="5.78257">
        <ele>1807.416015625</ele>
        <time>2011-06-04T08:41:20Z</time>
      </trkpt>
      <trkpt lat="45.28512" lon="5.78257">
        <ele>1808.3771972656</ele>
        <time>2011-06-04T08:41:22Z</time>
      </trkpt>
      <trkpt lat="45.28507" lon="5.78257">
        <ele>1809.3386230469</ele>
        <time>2011-06-04T08:41:26Z</time>
      </trkpt>
      <trkpt lat="45.28502" lon="5.78257">
        <ele>1809.8190917969</ele>
        <time>2011-06-04T08:41:31Z</time>
      </trkpt>
      <trkpt lat="45.28495" lon="5.78256">
        <ele>1812.2224121094</ele>
        <time>2011-06-04T08:41:36Z</time>
      </trkpt>
      <trkpt lat="45.28488" lon="5.78253">
        <ele>1813.6643066406</ele>
        <time>2011-06-04T08:41:43Z</time>
      </trkpt>
      <trkpt lat="45.28485" lon="5.78253">
        <ele>1814.1450195312</ele>
        <time>2011-06-04T08:41:45Z</time>
      </trkpt>
      <trkpt lat="45.2848" lon="5.78251">
        <ele>1814.1450195312</ele>
        <time>2011-06-04T08:41:51Z</time>
      </trkpt>
      <trkpt lat="45.28479" lon="5.78251">
        <ele>1814.6257324219</ele>
        <time>2011-06-04T08:41:52Z</time>
      </trkpt>
      <trkpt lat="45.28471" lon="5.78253">
        <ele>1817.5095214844</ele>
        <time>2011-06-04T08:42:00Z</time>
      </trkpt>
      <trkpt lat="45.28473" lon="5.78255">
        <ele>1818.4709472656</ele>
        <time>2011-06-04T08:42:05Z</time>
      </trkpt>
      <trkpt lat="45.28471" lon="5.78255">
        <ele>1819.4323730469</ele>
        <time>2011-06-04T08:42:09Z</time>
      </trkpt>
      <trkpt lat="45.28469" lon="5.78259">
        <ele>1821.3549804688</ele>
        <time>2011-06-04T08:42:14Z</time>
      </trkpt>
      <trkpt lat="45.28469" lon="5.78263">
        <ele>1823.7583007812</ele>
        <time>2011-06-04T08:42:19Z</time>
      </trkpt>
      <trkpt lat="45.28464" lon="5.78262">
        <ele>1826.1616210938</ele>
        <time>2011-06-04T08:42:24Z</time>
      </trkpt>
      <trkpt lat="45.28461" lon="5.78263">
        <ele>1828.5649414062</ele>
        <time>2011-06-04T08:42:29Z</time>
      </trkpt>
      <trkpt lat="45.28457" lon="5.78263">
        <ele>1829.5261230469</ele>
        <time>2011-06-04T08:42:33Z</time>
      </trkpt>
      <trkpt lat="45.28454" lon="5.78264">
        <ele>1830.4875488281</ele>
        <time>2011-06-04T08:42:37Z</time>
      </trkpt>
      <trkpt lat="45.28445" lon="5.78263">
        <ele>1830.4875488281</ele>
        <time>2011-06-04T08:42:44Z</time>
      </trkpt>
      <trkpt lat="45.28436" lon="5.78266">
        <ele>1830.9682617188</ele>
        <time>2011-06-04T08:42:51Z</time>
      </trkpt>
      <trkpt lat="45.28432" lon="5.78265">
        <ele>1831.9294433594</ele>
        <time>2011-06-04T08:42:55Z</time>
      </trkpt>
      <trkpt lat="45.28431" lon="5.7827">
        <ele>1832.41015625</ele>
        <time>2011-06-04T08:42:59Z</time>
      </trkpt>
      <trkpt lat="45.28434" lon="5.78274">
        <ele>1833.3713378906</ele>
        <time>2011-06-04T08:43:03Z</time>
      </trkpt>
      <trkpt lat="45.28438" lon="5.78282">
        <ele>1833.3713378906</ele>
        <time>2011-06-04T08:43:09Z</time>
      </trkpt>
      <trkpt lat="45.28442" lon="5.7829">
        <ele>1834.8134765625</ele>
        <time>2011-06-04T08:43:16Z</time>
      </trkpt>
      <trkpt lat="45.28447" lon="5.78297">
        <ele>1837.216796875</ele>
        <time>2011-06-04T08:43:22Z</time>
      </trkpt>
      <trkpt lat="45.28443" lon="5.78301">
        <ele>1838.1782226562</ele>
        <time>2011-06-04T08:43:27Z</time>
      </trkpt>
      <trkpt lat="45.28439" lon="5.78303">
        <ele>1839.6201171875</ele>
        <time>2011-06-04T08:43:31Z</time>
      </trkpt>
      <trkpt lat="45.28433" lon="5.78305">
        <ele>1840.5812988281</ele>
        <time>2011-06-04T08:43:37Z</time>
      </trkpt>
      <trkpt lat="45.28426" lon="5.78306">
        <ele>1842.0234375</ele>
        <time>2011-06-04T08:43:43Z</time>
      </trkpt>
      <trkpt lat="45.28427" lon="5.78311">
        <ele>1843.4653320312</ele>
        <time>2011-06-04T08:43:49Z</time>
      </trkpt>
      <trkpt lat="45.28432" lon="5.78319">
        <ele>1844.9072265625</ele>
        <time>2011-06-04T08:43:55Z</time>
      </trkpt>
      <trkpt lat="45.28434" lon="5.78322">
        <ele>1845.8686523438</ele>
        <time>2011-06-04T08:43:58Z</time>
      </trkpt>
      <trkpt lat="45.28436" lon="5.78327">
        <ele>1847.310546875</ele>
        <time>2011-06-04T08:44:02Z</time>
      </trkpt>
      <trkpt lat="45.2844" lon="5.78332">
        <ele>1847.7912597656</ele>
        <time>2011-06-04T08:44:08Z</time>
      </trkpt>
      <trkpt lat="45.2844" lon="5.78339">
        <ele>1849.7138671875</ele>
        <time>2011-06-04T08:44:15Z</time>
      </trkpt>
      <trkpt lat="45.28435" lon="5.78343">
        <ele>1851.6364746094</ele>
        <time>2011-06-04T08:44:21Z</time>
      </trkpt>
      <trkpt lat="45.28434" lon="5.78343">
        <ele>1851.6364746094</ele>
        <time>2011-06-04T08:44:22Z</time>
      </trkpt>
      <trkpt lat="45.28432" lon="5.78343">
        <ele>1852.1171875</ele>
        <time>2011-06-04T08:44:24Z</time>
      </trkpt>
      <trkpt lat="45.28428" lon="5.78345">
        <ele>1853.0786132812</ele>
        <time>2011-06-04T08:44:28Z</time>
      </trkpt>
      <trkpt lat="45.28433" lon="5.78351">
        <ele>1855.0012207031</ele>
        <time>2011-06-04T08:44:35Z</time>
      </trkpt>
      <trkpt lat="45.28437" lon="5.78356">
        <ele>1855.9624023438</ele>
        <time>2011-06-04T08:44:40Z</time>
      </trkpt>
      <trkpt lat="45.2844" lon="5.78362">
        <ele>1856.923828125</ele>
        <time>2011-06-04T08:44:45Z</time>
      </trkpt>
      <trkpt lat="45.28447" lon="5.7837">
        <ele>1859.3271484375</ele>
        <time>2011-06-04T08:44:54Z</time>
      </trkpt>
      <trkpt lat="45.28444" lon="5.78373">
        <ele>1860.7690429688</ele>
        <time>2011-06-04T08:44:59Z</time>
      </trkpt>
      <trkpt lat="45.28439" lon="5.78377">
        <ele>1862.6916503906</ele>
        <time>2011-06-04T08:45:06Z</time>
      </trkpt>
      <trkpt lat="45.28433" lon="5.78381">
        <ele>1864.6142578125</ele>
        <time>2011-06-04T08:45:13Z</time>
      </trkpt>
      <trkpt lat="45.28424" lon="5.78385">
        <ele>1866.5368652344</ele>
        <time>2011-06-04T08:45:22Z</time>
      </trkpt>
      <trkpt lat="45.28419" lon="5.78388">
        <ele>1867.498046875</ele>
        <time>2011-06-04T08:45:29Z</time>
      </trkpt>
      <trkpt lat="45.28418" lon="5.78392">
        <ele>1869.4211425781</ele>
        <time>2011-06-04T08:45:35Z</time>
      </trkpt>
      <trkpt lat="45.28423" lon="5.78398">
        <ele>1872.3049316406</ele>
        <time>2011-06-04T08:45:43Z</time>
      </trkpt>
      <trkpt lat="45.2843" lon="5.78402">
        <ele>1874.7082519531</ele>
        <time>2011-06-04T08:45:51Z</time>
      </trkpt>
      <trkpt lat="45.28432" lon="5.78404">
        <ele>1875.1887207031</ele>
        <time>2011-06-04T08:45:53Z</time>
      </trkpt>
      <trkpt lat="45.28441" lon="5.78413">
        <ele>1876.630859375</ele>
        <time>2011-06-04T08:46:03Z</time>
      </trkpt>
      <trkpt lat="45.28448" lon="5.78417">
        <ele>1878.0727539062</ele>
        <time>2011-06-04T08:46:10Z</time>
      </trkpt>
      <trkpt lat="45.28451" lon="5.78424">
        <ele>1879.5146484375</ele>
        <time>2011-06-04T08:46:17Z</time>
      </trkpt>
      <trkpt lat="45.28455" lon="5.7843">
        <ele>1881.4372558594</ele>
        <time>2011-06-04T08:46:25Z</time>
      </trkpt>
      <trkpt lat="45.2846" lon="5.78437">
        <ele>1882.8791503906</ele>
        <time>2011-06-04T08:46:33Z</time>
      </trkpt>
      <trkpt lat="45.28466" lon="5.78441">
        <ele>1884.8022460938</ele>
        <time>2011-06-04T08:46:41Z</time>
      </trkpt>
      <trkpt lat="45.28473" lon="5.78445">
        <ele>1886.244140625</ele>
        <time>2011-06-04T08:46:50Z</time>
      </trkpt>
      <trkpt lat="45.28481" lon="5.78451">
        <ele>1887.6860351562</ele>
        <time>2011-06-04T08:47:00Z</time>
      </trkpt>
      <trkpt lat="45.28487" lon="5.78454">
        <ele>1889.6086425781</ele>
        <time>2011-06-04T08:47:09Z</time>
      </trkpt>
      <trkpt lat="45.28493" lon="5.78455">
        <ele>1891.0505371094</ele>
        <time>2011-06-04T08:47:16Z</time>
      </trkpt>
      <trkpt lat="45.28499" lon="5.7846">
        <ele>1892.9731445312</ele>
        <time>2011-06-04T08:47:24Z</time>
      </trkpt>
      <trkpt lat="45.28504" lon="5.78461">
        <ele>1893.9345703125</ele>
        <time>2011-06-04T08:47:30Z</time>
      </trkpt>
      <trkpt lat="45.28509" lon="5.78464">
        <ele>1895.8571777344</ele>
        <time>2011-06-04T08:47:37Z</time>
      </trkpt>
      <trkpt lat="45.28516" lon="5.78466">
        <ele>1897.7797851562</ele>
        <time>2011-06-04T08:47:44Z</time>
      </trkpt>
      <trkpt lat="45.28519" lon="5.78467">
        <ele>1898.2602539062</ele>
        <time>2011-06-04T08:47:47Z</time>
      </trkpt>
      <trkpt lat="45.28526" lon="5.78469">
        <ele>1899.7023925781</ele>
        <time>2011-06-04T08:47:53Z</time>
      </trkpt>
      <trkpt lat="45.28531" lon="5.78471">
        <ele>1900.6638183594</ele>
        <time>2011-06-04T08:47:58Z</time>
      </trkpt>
      <trkpt lat="45.28536" lon="5.78474">
        <ele>1902.1057128906</ele>
        <time>2011-06-04T08:48:03Z</time>
      </trkpt>
      <trkpt lat="45.28542" lon="5.78476">
        <ele>1903.5478515625</ele>
        <time>2011-06-04T08:48:09Z</time>
      </trkpt>
      <trkpt lat="45.2854" lon="5.7848">
        <ele>1904.5090332031</ele>
        <time>2011-06-04T08:48:13Z</time>
      </trkpt>
      <trkpt lat="45.28531" lon="5.78485">
        <ele>1907.3930664062</ele>
        <time>2011-06-04T08:48:23Z</time>
      </trkpt>
      <trkpt lat="45.28535" lon="5.78489">
        <ele>1909.7961425781</ele>
        <time>2011-06-04T08:48:30Z</time>
      </trkpt>
      <trkpt lat="45.28541" lon="5.7849">
        <ele>1911.23828125</ele>
        <time>2011-06-04T08:48:35Z</time>
      </trkpt>
      <trkpt lat="45.28551" lon="5.78494">
        <ele>1913.6413574219</ele>
        <time>2011-06-04T08:48:44Z</time>
      </trkpt>
      <trkpt lat="45.28564" lon="5.78498">
        <ele>1915.5642089844</ele>
        <time>2011-06-04T08:48:54Z</time>
      </trkpt>
      <trkpt lat="45.28572" lon="5.785">
        <ele>1917.0063476562</ele>
        <time>2011-06-04T08:49:01Z</time>
      </trkpt>
      <trkpt lat="45.28577" lon="5.78505">
        <ele>1917.4868164062</ele>
        <time>2011-06-04T08:49:06Z</time>
      </trkpt>
      <trkpt lat="45.28587" lon="5.78507">
        <ele>1918.4482421875</ele>
        <time>2011-06-04T08:49:14Z</time>
      </trkpt>
      <trkpt lat="45.28596" lon="5.78512">
        <ele>1918.9289550781</ele>
        <time>2011-06-04T08:49:22Z</time>
      </trkpt>
      <trkpt lat="45.28603" lon="5.7852">
        <ele>1921.8127441406</ele>
        <time>2011-06-04T08:49:32Z</time>
      </trkpt>
      <trkpt lat="45.28611" lon="5.78526">
        <ele>1923.7353515625</ele>
        <time>2011-06-04T08:49:41Z</time>
      </trkpt>
      <trkpt lat="45.28616" lon="5.7853">
        <ele>1926.138671875</ele>
        <time>2011-06-04T08:49:50Z</time>
      </trkpt>
      <trkpt lat="45.28621" lon="5.78532">
        <ele>1927.5805664062</ele>
        <time>2011-06-04T08:49:56Z</time>
      </trkpt>
      <trkpt lat="45.28626" lon="5.78536">
        <ele>1929.5031738281</ele>
        <time>2011-06-04T08:50:02Z</time>
      </trkpt>
      <trkpt lat="45.2863" lon="5.78541">
        <ele>1930.9453125</ele>
        <time>2011-06-04T08:50:08Z</time>
      </trkpt>
      <trkpt lat="45.28637" lon="5.78545">
        <ele>1932.8679199219</ele>
        <time>2011-06-04T08:50:16Z</time>
      </trkpt>
      <trkpt lat="45.28637" lon="5.78549">
        <ele>1934.3100585938</ele>
        <time>2011-06-04T08:50:21Z</time>
      </trkpt>
      <trkpt lat="45.28632" lon="5.78552">
        <ele>1935.2712402344</ele>
        <time>2011-06-04T08:50:28Z</time>
      </trkpt>
      <trkpt lat="45.28627" lon="5.78553">
        <ele>1937.6745605469</ele>
        <time>2011-06-04T08:50:36Z</time>
      </trkpt>
      <trkpt lat="45.28621" lon="5.78556">
        <ele>1939.5971679688</ele>
        <time>2011-06-04T08:50:44Z</time>
      </trkpt>
      <trkpt lat="45.28613" lon="5.78559">
        <ele>1941.0390625</ele>
        <time>2011-06-04T08:50:52Z</time>
      </trkpt>
      <trkpt lat="45.28611" lon="5.78562">
        <ele>1942.0004882812</ele>
        <time>2011-06-04T08:50:59Z</time>
      </trkpt>
      <trkpt lat="45.28615" lon="5.78567">
        <ele>1943.9230957031</ele>
        <time>2011-06-04T08:51:07Z</time>
      </trkpt>
      <trkpt lat="45.2862" lon="5.78571">
        <ele>1946.3264160156</ele>
        <time>2011-06-04T08:51:15Z</time>
      </trkpt>
      <trkpt lat="45.28625" lon="5.78574">
        <ele>1948.2490234375</ele>
        <time>2011-06-04T08:51:22Z</time>
      </trkpt>
      <trkpt lat="45.28632" lon="5.78579">
        <ele>1951.1330566406</ele>
        <time>2011-06-04T08:51:31Z</time>
      </trkpt>
      <trkpt lat="45.28638" lon="5.78582">
        <ele>1953.0556640625</ele>
        <time>2011-06-04T08:51:39Z</time>
      </trkpt>
      <trkpt lat="45.28638" lon="5.78585">
        <ele>1954.9782714844</ele>
        <time>2011-06-04T08:51:44Z</time>
      </trkpt>
      <trkpt lat="45.28633" lon="5.78588">
        <ele>1957.8623046875</ele>
        <time>2011-06-04T08:51:52Z</time>
      </trkpt>
      <trkpt lat="45.28627" lon="5.7859">
        <ele>1958.3427734375</ele>
        <time>2011-06-04T08:52:00Z</time>
      </trkpt>
      <trkpt lat="45.28623" lon="5.78593">
        <ele>1958.8234863281</ele>
        <time>2011-06-04T08:52:06Z</time>
      </trkpt>
      <trkpt lat="45.28617" lon="5.78594">
        <ele>1959.3041992188</ele>
        <time>2011-06-04T08:52:13Z</time>
      </trkpt>
      <trkpt lat="45.28611" lon="5.78597">
        <ele>1961.2268066406</ele>
        <time>2011-06-04T08:52:19Z</time>
      </trkpt>
      <trkpt lat="45.2861" lon="5.78597">
        <ele>1961.2268066406</ele>
        <time>2011-06-04T08:52:20Z</time>
      </trkpt>
      <trkpt lat="45.28606" lon="5.786">
        <ele>1962.1879882812</ele>
        <time>2011-06-04T08:52:26Z</time>
      </trkpt>
      <trkpt lat="45.2861" lon="5.78604">
        <ele>1964.1108398438</ele>
        <time>2011-06-04T08:52:33Z</time>
      </trkpt>
      <trkpt lat="45.28615" lon="5.78605">
        <ele>1966.0334472656</ele>
        <time>2011-06-04T08:52:40Z</time>
      </trkpt>
      <trkpt lat="45.28621" lon="5.78606">
        <ele>1966.5141601562</ele>
        <time>2011-06-04T08:52:46Z</time>
      </trkpt>
      <trkpt lat="45.28623" lon="5.78607">
        <ele>1966.9948730469</ele>
        <time>2011-06-04T08:52:48Z</time>
      </trkpt>
      <trkpt lat="45.28627" lon="5.78609">
        <ele>1967.9560546875</ele>
        <time>2011-06-04T08:52:52Z</time>
      </trkpt>
      <trkpt lat="45.28632" lon="5.78609">
        <ele>1968.9174804688</ele>
        <time>2011-06-04T08:52:57Z</time>
      </trkpt>
      <trkpt lat="45.28638" lon="5.78613">
        <ele>1972.2819824219</ele>
        <time>2011-06-04T08:53:06Z</time>
      </trkpt>
      <trkpt lat="45.28645" lon="5.78616">
        <ele>1974.2045898438</ele>
        <time>2011-06-04T08:53:14Z</time>
      </trkpt>
      <trkpt lat="45.28651" lon="5.78617">
        <ele>1976.1271972656</ele>
        <time>2011-06-04T08:53:21Z</time>
      </trkpt>
      <trkpt lat="45.28655" lon="5.78619">
        <ele>1977.0886230469</ele>
        <time>2011-06-04T08:53:25Z</time>
      </trkpt>
      <trkpt lat="45.28661" lon="5.78623">
        <ele>1978.5305175781</ele>
        <time>2011-06-04T08:53:32Z</time>
      </trkpt>
      <trkpt lat="45.28656" lon="5.78626">
        <ele>1979.4916992188</ele>
        <time>2011-06-04T08:53:39Z</time>
      </trkpt>
      <trkpt lat="45.28653" lon="5.78631">
        <ele>1980.4533691406</ele>
        <time>2011-06-04T08:53:47Z</time>
      </trkpt>
      <trkpt lat="45.28648" lon="5.78637">
        <ele>1981.4145507812</ele>
        <time>2011-06-04T08:53:55Z</time>
      </trkpt>
      <trkpt lat="45.28645" lon="5.7864">
        <ele>1981.8952636719</ele>
        <time>2011-06-04T08:54:01Z</time>
      </trkpt>
      <trkpt lat="45.28638" lon="5.78644">
        <ele>1982.3759765625</ele>
        <time>2011-06-04T08:54:09Z</time>
      </trkpt>
      <trkpt lat="45.28637" lon="5.78647">
        <ele>1984.2985839844</ele>
        <time>2011-06-04T08:54:14Z</time>
      </trkpt>
      <trkpt lat="45.28639" lon="5.78649">
        <ele>1986.7016601562</ele>
        <time>2011-06-04T08:54:19Z</time>
      </trkpt>
      <trkpt lat="45.28645" lon="5.78651">
        <ele>1989.1049804688</ele>
        <time>2011-06-04T08:54:27Z</time>
      </trkpt>
      <trkpt lat="45.28649" lon="5.78652">
        <ele>1990.546875</ele>
        <time>2011-06-04T08:54:32Z</time>
      </trkpt>
      <trkpt lat="45.28653" lon="5.78653">
        <ele>1991.5083007812</ele>
        <time>2011-06-04T08:54:37Z</time>
      </trkpt>
      <trkpt lat="45.28654" lon="5.78656">
        <ele>1992.9501953125</ele>
        <time>2011-06-04T08:54:42Z</time>
      </trkpt>
      <trkpt lat="45.28656" lon="5.78658">
        <ele>1996.3151855469</ele>
        <time>2011-06-04T08:54:49Z</time>
      </trkpt>
      <trkpt lat="45.2866" lon="5.78661">
        <ele>1997.7570800781</ele>
        <time>2011-06-04T08:54:56Z</time>
      </trkpt>
      <trkpt lat="45.28656" lon="5.78663">
        <ele>1998.7182617188</ele>
        <time>2011-06-04T08:55:01Z</time>
      </trkpt>
      <trkpt lat="45.28651" lon="5.78666">
        <ele>1999.1989746094</ele>
        <time>2011-06-04T08:55:07Z</time>
      </trkpt>
      <trkpt lat="45.28654" lon="5.78667">
        <ele>2000.6408691406</ele>
        <time>2011-06-04T08:55:12Z</time>
      </trkpt>
      <trkpt lat="45.28658" lon="5.7867">
        <ele>2003.0441894531</ele>
        <time>2011-06-04T08:55:19Z</time>
      </trkpt>
      <trkpt lat="45.2866" lon="5.78673">
        <ele>2004.966796875</ele>
        <time>2011-06-04T08:55:25Z</time>
      </trkpt>
      <trkpt lat="45.28658" lon="5.78675">
        <ele>2007.3701171875</ele>
        <time>2011-06-04T08:55:30Z</time>
      </trkpt>
      <trkpt lat="45.28656" lon="5.78678">
        <ele>2009.2927246094</ele>
        <time>2011-06-04T08:55:37Z</time>
      </trkpt>
      <trkpt lat="45.28651" lon="5.78681">
        <ele>2010.25390625</ele>
        <time>2011-06-04T08:55:43Z</time>
      </trkpt>
      <trkpt lat="45.28647" lon="5.78687">
        <ele>2009.7731933594</ele>
        <time>2011-06-04T08:55:51Z</time>
      </trkpt>
      <trkpt lat="45.28643" lon="5.78689">
        <ele>2010.7346191406</ele>
        <time>2011-06-04T08:55:57Z</time>
      </trkpt>
      <trkpt lat="45.28637" lon="5.78693">
        <ele>2010.7346191406</ele>
        <time>2011-06-04T08:56:04Z</time>
      </trkpt>
      <trkpt lat="45.28633" lon="5.78696">
        <ele>2013.1381835938</ele>
        <time>2011-06-04T08:56:11Z</time>
      </trkpt>
      <trkpt lat="45.28627" lon="5.78699">
        <ele>2015.0607910156</ele>
        <time>2011-06-04T08:56:18Z</time>
      </trkpt>
      <trkpt lat="45.28622" lon="5.78701">
        <ele>2016.9833984375</ele>
        <time>2011-06-04T08:56:26Z</time>
      </trkpt>
      <trkpt lat="45.28621" lon="5.78703">
        <ele>2018.4252929688</ele>
        <time>2011-06-04T08:56:33Z</time>
      </trkpt>
      <trkpt lat="45.28622" lon="5.78704">
        <ele>2019.8671875</ele>
        <time>2011-06-04T08:56:39Z</time>
      </trkpt>
      <trkpt lat="45.28625" lon="5.78704">
        <ele>2020.8286132812</ele>
        <time>2011-06-04T08:56:45Z</time>
      </trkpt>
      <trkpt lat="45.28627" lon="5.78706">
        <ele>2021.7897949219</ele>
        <time>2011-06-04T08:56:52Z</time>
      </trkpt>
      <trkpt lat="45.28628" lon="5.78709">
        <ele>2023.7124023438</ele>
        <time>2011-06-04T08:56:58Z</time>
      </trkpt>
      <trkpt lat="45.28628" lon="5.78713">
        <ele>2024.673828125</ele>
        <time>2011-06-04T08:57:03Z</time>
      </trkpt>
      <trkpt lat="45.28626" lon="5.78715">
        <ele>2025.6350097656</ele>
        <time>2011-06-04T08:57:09Z</time>
      </trkpt>
      <trkpt lat="45.28626" lon="5.78717">
        <ele>2026.1157226562</ele>
        <time>2011-06-04T08:57:15Z</time>
      </trkpt>
      <trkpt lat="45.28629" lon="5.7872">
        <ele>2027.5576171875</ele>
        <time>2011-06-04T08:57:20Z</time>
      </trkpt>
      <trkpt lat="45.28627" lon="5.78722">
        <ele>2028.5192871094</ele>
        <time>2011-06-04T08:57:26Z</time>
      </trkpt>
      <trkpt lat="45.28626" lon="5.78723">
        <ele>2028.5192871094</ele>
        <time>2011-06-04T08:57:30Z</time>
      </trkpt>
      <trkpt lat="45.28625" lon="5.78726">
        <ele>2029.9611816406</ele>
        <time>2011-06-04T08:57:35Z</time>
      </trkpt>
      <trkpt lat="45.28622" lon="5.78727">
        <ele>2030.4418945312</ele>
        <time>2011-06-04T08:57:40Z</time>
      </trkpt>
      <trkpt lat="45.28623" lon="5.7873">
        <ele>2031.8837890625</ele>
        <time>2011-06-04T08:57:46Z</time>
      </trkpt>
      <trkpt lat="45.28626" lon="5.78731">
        <ele>2033.8063964844</ele>
        <time>2011-06-04T08:57:51Z</time>
      </trkpt>
      <trkpt lat="45.28625" lon="5.78735">
        <ele>2036.2097167969</ele>
        <time>2011-06-04T08:57:56Z</time>
      </trkpt>
      <trkpt lat="45.28622" lon="5.78737">
        <ele>2037.1708984375</ele>
        <time>2011-06-04T08:58:00Z</time>
      </trkpt>
      <trkpt lat="45.28621" lon="5.7874">
        <ele>2039.0935058594</ele>
        <time>2011-06-04T08:58:05Z</time>
      </trkpt>
      <trkpt lat="45.28617" lon="5.78741">
        <ele>2040.0549316406</ele>
        <time>2011-06-04T08:58:11Z</time>
      </trkpt>
      <trkpt lat="45.28615" lon="5.78744">
        <ele>2041.4968261719</ele>
        <time>2011-06-04T08:58:17Z</time>
      </trkpt>
      <trkpt lat="45.28611" lon="5.78747">
        <ele>2043.4194335938</ele>
        <time>2011-06-04T08:58:22Z</time>
      </trkpt>
      <trkpt lat="45.28608" lon="5.78751">
        <ele>2044.8615722656</ele>
        <time>2011-06-04T08:58:30Z</time>
      </trkpt>
      <trkpt lat="45.28605" lon="5.78753">
        <ele>2045.8229980469</ele>
        <time>2011-06-04T08:58:36Z</time>
      </trkpt>
      <trkpt lat="45.28606" lon="5.78757">
        <ele>2046.7841796875</ele>
        <time>2011-06-04T08:58:42Z</time>
      </trkpt>
      <trkpt lat="45.2861" lon="5.78759">
        <ele>2048.2260742188</ele>
        <time>2011-06-04T08:58:49Z</time>
      </trkpt>
      <trkpt lat="45.28611" lon="5.78762">
        <ele>2049.6682128906</ele>
        <time>2011-06-04T08:58:54Z</time>
      </trkpt>
      <trkpt lat="45.28614" lon="5.78764">
        <ele>2051.1101074219</ele>
        <time>2011-06-04T08:59:01Z</time>
      </trkpt>
      <trkpt lat="45.28618" lon="5.78767">
        <ele>2052.5520019531</ele>
        <time>2011-06-04T08:59:08Z</time>
      </trkpt>
      <trkpt lat="45.28621" lon="5.7877">
        <ele>2054.474609375</ele>
        <time>2011-06-04T08:59:14Z</time>
      </trkpt>
      <trkpt lat="45.28625" lon="5.78769">
        <ele>2055.9165039062</ele>
        <time>2011-06-04T08:59:19Z</time>
      </trkpt>
      <trkpt lat="45.28631" lon="5.78771">
        <ele>2057.8393554688</ele>
        <time>2011-06-04T08:59:26Z</time>
      </trkpt>
      <trkpt lat="45.28635" lon="5.78773">
        <ele>2059.28125</ele>
        <time>2011-06-04T08:59:33Z</time>
      </trkpt>
      <trkpt lat="45.2864" lon="5.78773">
        <ele>2059.76171875</ele>
        <time>2011-06-04T08:59:38Z</time>
      </trkpt>
      <trkpt lat="45.28642" lon="5.78774">
        <ele>2059.76171875</ele>
        <time>2011-06-04T08:59:42Z</time>
      </trkpt>
      <trkpt lat="45.28645" lon="5.78777">
        <ele>2060.7233886719</ele>
        <time>2011-06-04T08:59:47Z</time>
      </trkpt>
      <trkpt lat="45.28649" lon="5.78778">
        <ele>2061.6848144531</ele>
        <time>2011-06-04T08:59:54Z</time>
      </trkpt>
      <trkpt lat="45.28655" lon="5.7878">
        <ele>2063.6071777344</ele>
        <time>2011-06-04T09:00:01Z</time>
      </trkpt>
      <trkpt lat="45.28659" lon="5.78782">
        <ele>2065.0493164062</ele>
        <time>2011-06-04T09:00:07Z</time>
      </trkpt>
      <trkpt lat="45.28663" lon="5.78783">
        <ele>2066.0104980469</ele>
        <time>2011-06-04T09:00:13Z</time>
      </trkpt>
      <trkpt lat="45.28664" lon="5.78784">
        <ele>2067.9331054688</ele>
        <time>2011-06-04T09:00:17Z</time>
      </trkpt>
      <trkpt lat="45.28662" lon="5.78788">
        <ele>2068.89453125</ele>
        <time>2011-06-04T09:00:22Z</time>
      </trkpt>
      <trkpt lat="45.28659" lon="5.78791">
        <ele>2072.2590332031</ele>
        <time>2011-06-04T09:00:28Z</time>
      </trkpt>
      <trkpt lat="45.28657" lon="5.78795">
        <ele>2072.7397460938</ele>
        <time>2011-06-04T09:00:34Z</time>
      </trkpt>
      <trkpt lat="45.28654" lon="5.78798">
        <ele>2073.7009277344</ele>
        <time>2011-06-04T09:00:39Z</time>
      </trkpt>
      <trkpt lat="45.28649" lon="5.78801">
        <ele>2073.7009277344</ele>
        <time>2011-06-04T09:00:48Z</time>
      </trkpt>
      <trkpt lat="45.28648" lon="5.78799">
        <ele>2072.7397460938</ele>
        <time>2011-06-04T09:00:55Z</time>
      </trkpt>
      <trkpt lat="45.28647" lon="5.78796">
        <ele>2071.2976074219</ele>
        <time>2011-06-04T09:01:01Z</time>
      </trkpt>
      <trkpt lat="45.28648" lon="5.78793">
        <ele>2069.8557128906</ele>
        <time>2011-06-04T09:01:07Z</time>
      </trkpt>
      <trkpt lat="45.28646" lon="5.78789">
        <ele>2068.4138183594</ele>
        <time>2011-06-04T09:01:12Z</time>
      </trkpt>
      <trkpt lat="45.28645" lon="5.78788">
        <ele>2066.9719238281</ele>
        <time>2011-06-04T09:01:17Z</time>
      </trkpt>
      <trkpt lat="45.28641" lon="5.78783">
        <ele>2065.0493164062</ele>
        <time>2011-06-04T09:01:24Z</time>
      </trkpt>
      <trkpt lat="45.28636" lon="5.78783">
        <ele>2064.5686035156</ele>
        <time>2011-06-04T09:01:29Z</time>
      </trkpt>
      <trkpt lat="45.2863" lon="5.78783">
        <ele>2063.6071777344</ele>
        <time>2011-06-04T09:01:34Z</time>
      </trkpt>
      <trkpt lat="45.28622" lon="5.78779">
        <ele>2060.7233886719</ele>
        <time>2011-06-04T09:01:39Z</time>
      </trkpt>
      <trkpt lat="45.28619" lon="5.78778">
        <ele>2058.8005371094</ele>
        <time>2011-06-04T09:01:42Z</time>
      </trkpt>
      <trkpt lat="45.28617" lon="5.78775">
        <ele>2056.8779296875</ele>
        <time>2011-06-04T09:01:45Z</time>
      </trkpt>
      <trkpt lat="45.28622" lon="5.78771">
        <ele>2054.9553222656</ele>
        <time>2011-06-04T09:01:51Z</time>
      </trkpt>
      <trkpt lat="45.28619" lon="5.78768">
        <ele>2052.5520019531</ele>
        <time>2011-06-04T09:01:55Z</time>
      </trkpt>
      <trkpt lat="45.28616" lon="5.78766">
        <ele>2051.5908203125</ele>
        <time>2011-06-04T09:01:59Z</time>
      </trkpt>
      <trkpt lat="45.28614" lon="5.78764">
        <ele>2050.1489257812</ele>
        <time>2011-06-04T09:02:03Z</time>
      </trkpt>
      <trkpt lat="45.2861" lon="5.78761">
        <ele>2048.7067871094</ele>
        <time>2011-06-04T09:02:07Z</time>
      </trkpt>
      <trkpt lat="45.28607" lon="5.78757">
        <ele>2046.3037109375</ele>
        <time>2011-06-04T09:02:11Z</time>
      </trkpt>
      <trkpt lat="45.28605" lon="5.78754">
        <ele>2045.3422851562</ele>
        <time>2011-06-04T09:02:14Z</time>
      </trkpt>
      <trkpt lat="45.28608" lon="5.78752">
        <ele>2043.4194335938</ele>
        <time>2011-06-04T09:02:19Z</time>
      </trkpt>
      <trkpt lat="45.28613" lon="5.78744">
        <ele>2041.4968261719</ele>
        <time>2011-06-04T09:02:24Z</time>
      </trkpt>
      <trkpt lat="45.28617" lon="5.7874">
        <ele>2040.5354003906</ele>
        <time>2011-06-04T09:02:28Z</time>
      </trkpt>
      <trkpt lat="45.28621" lon="5.78738">
        <ele>2039.57421875</ele>
        <time>2011-06-04T09:02:33Z</time>
      </trkpt>
      <trkpt lat="45.28622" lon="5.78734">
        <ele>2037.6516113281</ele>
        <time>2011-06-04T09:02:39Z</time>
      </trkpt>
      <trkpt lat="45.28625" lon="5.78731">
        <ele>2036.2097167969</ele>
        <time>2011-06-04T09:02:43Z</time>
      </trkpt>
      <trkpt lat="45.28623" lon="5.78729">
        <ele>2034.287109375</ele>
        <time>2011-06-04T09:02:47Z</time>
      </trkpt>
      <trkpt lat="45.28624" lon="5.78724">
        <ele>2031.8837890625</ele>
        <time>2011-06-04T09:02:51Z</time>
      </trkpt>
      <trkpt lat="45.28625" lon="5.78723">
        <ele>2031.8837890625</ele>
        <time>2011-06-04T09:02:53Z</time>
      </trkpt>
      <trkpt lat="45.28627" lon="5.7872">
        <ele>2030.4418945312</ele>
        <time>2011-06-04T09:02:55Z</time>
      </trkpt>
      <trkpt lat="45.28628" lon="5.78717">
        <ele>2027.5576171875</ele>
        <time>2011-06-04T09:03:00Z</time>
      </trkpt>
      <trkpt lat="45.28629" lon="5.78712">
        <ele>2025.154296875</ele>
        <time>2011-06-04T09:03:04Z</time>
      </trkpt>
      <trkpt lat="45.28629" lon="5.78707">
        <ele>2023.2319335938</ele>
        <time>2011-06-04T09:03:08Z</time>
      </trkpt>
      <trkpt lat="45.28625" lon="5.78705">
        <ele>2021.7897949219</ele>
        <time>2011-06-04T09:03:13Z</time>
      </trkpt>
      <trkpt lat="45.28622" lon="5.78704">
        <ele>2021.3090820312</ele>
        <time>2011-06-04T09:03:18Z</time>
      </trkpt>
      <trkpt lat="45.28618" lon="5.78701">
        <ele>2019.8671875</ele>
        <time>2011-06-04T09:03:25Z</time>
      </trkpt>
      <trkpt lat="45.28617" lon="5.787">
        <ele>2018.4252929688</ele>
        <time>2011-06-04T09:03:31Z</time>
      </trkpt>
      <trkpt lat="45.28614" lon="5.78698">
        <ele>2016.5026855469</ele>
        <time>2011-06-04T09:03:36Z</time>
      </trkpt>
      <trkpt lat="45.28608" lon="5.78695">
        <ele>2013.1381835938</ele>
        <time>2011-06-04T09:03:42Z</time>
      </trkpt>
      <trkpt lat="45.28604" lon="5.78693">
        <ele>2010.25390625</ele>
        <time>2011-06-04T09:03:46Z</time>
      </trkpt>
      <trkpt lat="45.28601" lon="5.78693">
        <ele>2008.8120117188</ele>
        <time>2011-06-04T09:03:48Z</time>
      </trkpt>
      <trkpt lat="45.286" lon="5.78691">
        <ele>2007.8508300781</ele>
        <time>2011-06-04T09:03:50Z</time>
      </trkpt>
      <trkpt lat="45.28597" lon="5.78687">
        <ele>2005.9279785156</ele>
        <time>2011-06-04T09:03:55Z</time>
      </trkpt>
      <trkpt lat="45.28595" lon="5.78684">
        <ele>2003.5249023438</ele>
        <time>2011-06-04T09:04:00Z</time>
      </trkpt>
      <trkpt lat="45.28591" lon="5.78683">
        <ele>2001.1215820312</ele>
        <time>2011-06-04T09:04:05Z</time>
      </trkpt>
      <trkpt lat="45.28587" lon="5.78679">
        <ele>1998.7182617188</ele>
        <time>2011-06-04T09:04:10Z</time>
      </trkpt>
      <trkpt lat="45.28585" lon="5.78675">
        <ele>1997.2763671875</ele>
        <time>2011-06-04T09:04:14Z</time>
      </trkpt>
      <trkpt lat="45.28574" lon="5.78676">
        <ele>1994.8728027344</ele>
        <time>2011-06-04T09:04:20Z</time>
      </trkpt>
      <trkpt lat="45.28569" lon="5.78674">
        <ele>1992.9501953125</ele>
        <time>2011-06-04T09:04:23Z</time>
      </trkpt>
      <trkpt lat="45.28561" lon="5.78674">
        <ele>1991.0275878906</ele>
        <time>2011-06-04T09:04:28Z</time>
      </trkpt>
      <trkpt lat="45.28554" lon="5.78674">
        <ele>1988.6245117188</ele>
        <time>2011-06-04T09:04:32Z</time>
      </trkpt>
      <trkpt lat="45.28543" lon="5.78674">
        <ele>1985.7404785156</ele>
        <time>2011-06-04T09:04:39Z</time>
      </trkpt>
      <trkpt lat="45.28539" lon="5.7867">
        <ele>1984.2985839844</ele>
        <time>2011-06-04T09:04:43Z</time>
      </trkpt>
      <trkpt lat="45.28529" lon="5.78669">
        <ele>1980.9340820312</ele>
        <time>2011-06-04T09:04:49Z</time>
      </trkpt>
      <trkpt lat="45.28519" lon="5.78664">
        <ele>1980.9340820312</ele>
        <time>2011-06-04T09:04:54Z</time>
      </trkpt>
      <trkpt lat="45.28511" lon="5.78663">
        <ele>1979.0109863281</ele>
        <time>2011-06-04T09:04:58Z</time>
      </trkpt>
      <trkpt lat="45.28501" lon="5.7866">
        <ele>1975.1657714844</ele>
        <time>2011-06-04T09:05:04Z</time>
      </trkpt>
      <trkpt lat="45.28496" lon="5.78657">
        <ele>1973.2434082031</ele>
        <time>2011-06-04T09:05:07Z</time>
      </trkpt>
      <trkpt lat="45.28487" lon="5.78655">
        <ele>1972.7626953125</ele>
        <time>2011-06-04T09:05:11Z</time>
      </trkpt>
      <trkpt lat="45.28481" lon="5.78653">
        <ele>1971.3205566406</ele>
        <time>2011-06-04T09:05:14Z</time>
      </trkpt>
      <trkpt lat="45.28467" lon="5.78647">
        <ele>1968.4367675781</ele>
        <time>2011-06-04T09:05:20Z</time>
      </trkpt>
      <trkpt lat="45.28465" lon="5.78646">
        <ele>1967.9560546875</ele>
        <time>2011-06-04T09:05:21Z</time>
      </trkpt>
      <trkpt lat="45.28452" lon="5.78644">
        <ele>1966.5141601562</ele>
        <time>2011-06-04T09:05:27Z</time>
      </trkpt>
      <trkpt lat="45.28451" lon="5.78643">
        <ele>1966.0334472656</ele>
        <time>2011-06-04T09:05:28Z</time>
      </trkpt>
      <trkpt lat="45.28447" lon="5.78641">
        <ele>1964.1108398438</ele>
        <time>2011-06-04T09:05:32Z</time>
      </trkpt>
      <trkpt lat="45.28443" lon="5.78635">
        <ele>1963.1494140625</ele>
        <time>2011-06-04T09:05:36Z</time>
      </trkpt>
      <trkpt lat="45.28436" lon="5.78634">
        <ele>1960.74609375</ele>
        <time>2011-06-04T09:05:41Z</time>
      </trkpt>
      <trkpt lat="45.28432" lon="5.78627">
        <ele>1957.3815917969</ele>
        <time>2011-06-04T09:05:47Z</time>
      </trkpt>
      <trkpt lat="45.28428" lon="5.78623">
        <ele>1956.4201660156</ele>
        <time>2011-06-04T09:05:51Z</time>
      </trkpt>
      <trkpt lat="45.28423" lon="5.78618">
        <ele>1954.4975585938</ele>
        <time>2011-06-04T09:05:55Z</time>
      </trkpt>
      <trkpt lat="45.28418" lon="5.78614">
        <ele>1953.0556640625</ele>
        <time>2011-06-04T09:05:58Z</time>
      </trkpt>
      <trkpt lat="45.28402" lon="5.78602">
        <ele>1949.6911621094</ele>
        <time>2011-06-04T09:06:06Z</time>
      </trkpt>
      <trkpt lat="45.28394" lon="5.78594">
        <ele>1947.7683105469</ele>
        <time>2011-06-04T09:06:11Z</time>
      </trkpt>
      <trkpt lat="45.28392" lon="5.78594">
        <ele>1947.2875976562</ele>
        <time>2011-06-04T09:06:12Z</time>
      </trkpt>
      <trkpt lat="45.28386" lon="5.78589">
        <ele>1944.8842773438</ele>
        <time>2011-06-04T09:06:16Z</time>
      </trkpt>
      <trkpt lat="45.28382" lon="5.78579">
        <ele>1941.5197753906</ele>
        <time>2011-06-04T09:06:22Z</time>
      </trkpt>
      <trkpt lat="45.28377" lon="5.78566">
        <ele>1937.6745605469</ele>
        <time>2011-06-04T09:06:29Z</time>
      </trkpt>
      <trkpt lat="45.28368" lon="5.78554">
        <ele>1935.2712402344</ele>
        <time>2011-06-04T09:06:35Z</time>
      </trkpt>
      <trkpt lat="45.28358" lon="5.78541">
        <ele>1932.3874511719</ele>
        <time>2011-06-04T09:06:41Z</time>
      </trkpt>
      <trkpt lat="45.28352" lon="5.7853">
        <ele>1929.9838867188</ele>
        <time>2011-06-04T09:06:46Z</time>
      </trkpt>
      <trkpt lat="45.28351" lon="5.78527">
        <ele>1929.9838867188</ele>
        <time>2011-06-04T09:06:47Z</time>
      </trkpt>
      <trkpt lat="45.28341" lon="5.78512">
        <ele>1927.1000976562</ele>
        <time>2011-06-04T09:06:53Z</time>
      </trkpt>
      <trkpt lat="45.28338" lon="5.78507">
        <ele>1926.138671875</ele>
        <time>2011-06-04T09:06:55Z</time>
      </trkpt>
      <trkpt lat="45.28329" lon="5.78492">
        <ele>1923.2548828125</ele>
        <time>2011-06-04T09:07:01Z</time>
      </trkpt>
      <trkpt lat="45.28325" lon="5.7848">
        <ele>1920.8515625</ele>
        <time>2011-06-04T09:07:05Z</time>
      </trkpt>
      <trkpt lat="45.28318" lon="5.78471">
        <ele>1918.4482421875</ele>
        <time>2011-06-04T09:07:09Z</time>
      </trkpt>
      <trkpt lat="45.28312" lon="5.78461">
        <ele>1915.5642089844</ele>
        <time>2011-06-04T09:07:14Z</time>
      </trkpt>
      <trkpt lat="45.28308" lon="5.7845">
        <ele>1913.1608886719</ele>
        <time>2011-06-04T09:07:19Z</time>
      </trkpt>
      <trkpt lat="45.28307" lon="5.78448">
        <ele>1912.6801757812</ele>
        <time>2011-06-04T09:07:20Z</time>
      </trkpt>
      <trkpt lat="45.28306" lon="5.78442">
        <ele>1911.23828125</ele>
        <time>2011-06-04T09:07:23Z</time>
      </trkpt>
      <trkpt lat="45.28304" lon="5.78436">
        <ele>1910.2768554688</ele>
        <time>2011-06-04T09:07:27Z</time>
      </trkpt>
      <trkpt lat="45.28301" lon="5.78424">
        <ele>1907.3930664062</ele>
        <time>2011-06-04T09:07:33Z</time>
      </trkpt>
      <trkpt lat="45.28301" lon="5.78422">
        <ele>1906.9123535156</ele>
        <time>2011-06-04T09:07:34Z</time>
      </trkpt>
      <trkpt lat="45.283" lon="5.78411">
        <ele>1903.5478515625</ele>
        <time>2011-06-04T09:07:39Z</time>
      </trkpt>
      <trkpt lat="45.28299" lon="5.78406">
        <ele>1901.6252441406</ele>
        <time>2011-06-04T09:07:42Z</time>
      </trkpt>
      <trkpt lat="45.28296" lon="5.78398">
        <ele>1898.7409667969</ele>
        <time>2011-06-04T09:07:47Z</time>
      </trkpt>
      <trkpt lat="45.28294" lon="5.78386">
        <ele>1896.337890625</ele>
        <time>2011-06-04T09:07:53Z</time>
      </trkpt>
      <trkpt lat="45.28296" lon="5.7838">
        <ele>1894.4150390625</ele>
        <time>2011-06-04T09:07:57Z</time>
      </trkpt>
      <trkpt lat="45.28302" lon="5.78377">
        <ele>1892.4926757812</ele>
        <time>2011-06-04T09:08:02Z</time>
      </trkpt>
      <trkpt lat="45.28306" lon="5.78377">
        <ele>1890.0893554688</ele>
        <time>2011-06-04T09:08:06Z</time>
      </trkpt>
      <trkpt lat="45.28311" lon="5.78376">
        <ele>1889.1279296875</ele>
        <time>2011-06-04T09:08:10Z</time>
      </trkpt>
      <trkpt lat="45.2831" lon="5.78369">
        <ele>1886.244140625</ele>
        <time>2011-06-04T09:08:16Z</time>
      </trkpt>
      <trkpt lat="45.28313" lon="5.78366">
        <ele>1884.3215332031</ele>
        <time>2011-06-04T09:08:20Z</time>
      </trkpt>
      <trkpt lat="45.28315" lon="5.78367">
        <ele>1883.8405761719</ele>
        <time>2011-06-04T09:08:21Z</time>
      </trkpt>
      <trkpt lat="45.28317" lon="5.78366">
        <ele>1882.8791503906</ele>
        <time>2011-06-04T09:08:23Z</time>
      </trkpt>
      <trkpt lat="45.28327" lon="5.78359">
        <ele>1879.5146484375</ele>
        <time>2011-06-04T09:08:31Z</time>
      </trkpt>
      <trkpt lat="45.28333" lon="5.78357">
        <ele>1878.0727539062</ele>
        <time>2011-06-04T09:08:34Z</time>
      </trkpt>
      <trkpt lat="45.28339" lon="5.78352">
        <ele>1875.6694335938</ele>
        <time>2011-06-04T09:08:39Z</time>
      </trkpt>
      <trkpt lat="45.28349" lon="5.78347">
        <ele>1871.3435058594</ele>
        <time>2011-06-04T09:08:46Z</time>
      </trkpt>
      <trkpt lat="45.28353" lon="5.78347">
        <ele>1869.9016113281</ele>
        <time>2011-06-04T09:08:48Z</time>
      </trkpt>
      <trkpt lat="45.28365" lon="5.78343">
        <ele>1866.0561523438</ele>
        <time>2011-06-04T09:08:55Z</time>
      </trkpt>
      <trkpt lat="45.28375" lon="5.7834">
        <ele>1863.1723632812</ele>
        <time>2011-06-04T09:09:01Z</time>
      </trkpt>
      <trkpt lat="45.28382" lon="5.78336">
        <ele>1860.2883300781</ele>
        <time>2011-06-04T09:09:06Z</time>
      </trkpt>
      <trkpt lat="45.28389" lon="5.78332">
        <ele>1857.4045410156</ele>
        <time>2011-06-04T09:09:11Z</time>
      </trkpt>
      <trkpt lat="45.28393" lon="5.78326">
        <ele>1855.0012207031</ele>
        <time>2011-06-04T09:09:15Z</time>
      </trkpt>
      <trkpt lat="45.28397" lon="5.7832">
        <ele>1853.0786132812</ele>
        <time>2011-06-04T09:09:19Z</time>
      </trkpt>
      <trkpt lat="45.284" lon="5.7832">
        <ele>1851.1557617188</ele>
        <time>2011-06-04T09:09:21Z</time>
      </trkpt>
      <trkpt lat="45.28405" lon="5.78312">
        <ele>1849.2331542969</ele>
        <time>2011-06-04T09:09:25Z</time>
      </trkpt>
      <trkpt lat="45.28414" lon="5.78301">
        <ele>1846.3493652344</ele>
        <time>2011-06-04T09:09:31Z</time>
      </trkpt>
      <trkpt lat="45.28419" lon="5.78294">
        <ele>1843.9460449219</ele>
        <time>2011-06-04T09:09:35Z</time>
      </trkpt>
      <trkpt lat="45.28423" lon="5.78291">
        <ele>1842.9846191406</ele>
        <time>2011-06-04T09:09:37Z</time>
      </trkpt>
      <trkpt lat="45.28428" lon="5.78277">
        <ele>1839.1394042969</ele>
        <time>2011-06-04T09:09:43Z</time>
      </trkpt>
      <trkpt lat="45.28429" lon="5.78265">
        <ele>1836.2556152344</ele>
        <time>2011-06-04T09:09:48Z</time>
      </trkpt>
      <trkpt lat="45.28433" lon="5.78264">
        <ele>1834.8134765625</ele>
        <time>2011-06-04T09:09:50Z</time>
      </trkpt>
      <trkpt lat="45.28447" lon="5.78263">
        <ele>1830.4875488281</ele>
        <time>2011-06-04T09:09:56Z</time>
      </trkpt>
      <trkpt lat="45.28454" lon="5.78264">
        <ele>1828.5649414062</ele>
        <time>2011-06-04T09:10:00Z</time>
      </trkpt>
      <trkpt lat="45.28455" lon="5.78264">
        <ele>1827.603515625</ele>
        <time>2011-06-04T09:10:02Z</time>
      </trkpt>
      <trkpt lat="45.28467" lon="5.78265">
        <ele>1823.7583007812</ele>
        <time>2011-06-04T09:10:09Z</time>
      </trkpt>
      <trkpt lat="45.28471" lon="5.78266">
        <ele>1823.2778320312</ele>
        <time>2011-06-04T09:10:11Z</time>
      </trkpt>
      <trkpt lat="45.28477" lon="5.78268">
        <ele>1821.8356933594</ele>
        <time>2011-06-04T09:10:14Z</time>
      </trkpt>
      <trkpt lat="45.28474" lon="5.78261">
        <ele>1820.3937988281</ele>
        <time>2011-06-04T09:10:19Z</time>
      </trkpt>
      <trkpt lat="45.28471" lon="5.78252">
        <ele>1818.9516601562</ele>
        <time>2011-06-04T09:10:24Z</time>
      </trkpt>
      <trkpt lat="45.28473" lon="5.78252">
        <ele>1818.9516601562</ele>
        <time>2011-06-04T09:10:25Z</time>
      </trkpt>
      <trkpt lat="45.28486" lon="5.78253">
        <ele>1817.0290527344</ele>
        <time>2011-06-04T09:10:32Z</time>
      </trkpt>
      <trkpt lat="45.28489" lon="5.78253">
        <ele>1817.0290527344</ele>
        <time>2011-06-04T09:10:33Z</time>
      </trkpt>
      <trkpt lat="45.285" lon="5.78254">
        <ele>1814.6257324219</ele>
        <time>2011-06-04T09:10:39Z</time>
      </trkpt>
      <trkpt lat="45.28502" lon="5.78255">
        <ele>1814.1450195312</ele>
        <time>2011-06-04T09:10:40Z</time>
      </trkpt>
      <trkpt lat="45.28515" lon="5.78258">
        <ele>1809.8190917969</ele>
        <time>2011-06-04T09:10:46Z</time>
      </trkpt>
      <trkpt lat="45.28528" lon="5.78258">
        <ele>1807.8967285156</ele>
        <time>2011-06-04T09:10:52Z</time>
      </trkpt>
      <trkpt lat="45.2853" lon="5.78258">
        <ele>1807.8967285156</ele>
        <time>2011-06-04T09:10:53Z</time>
      </trkpt>
      <trkpt lat="45.28544" lon="5.7826">
        <ele>1805.9738769531</ele>
        <time>2011-06-04T09:10:59Z</time>
      </trkpt>
      <trkpt lat="45.2855" lon="5.78261">
        <ele>1803.08984375</ele>
        <time>2011-06-04T09:11:02Z</time>
      </trkpt>
      <trkpt lat="45.28557" lon="5.78263">
        <ele>1800.2060546875</ele>
        <time>2011-06-04T09:11:04Z</time>
      </trkpt>
      <trkpt lat="45.28572" lon="5.78265">
        <ele>1797.3220214844</ele>
        <time>2011-06-04T09:11:10Z</time>
      </trkpt>
      <trkpt lat="45.28583" lon="5.78265">
        <ele>1794.9187011719</ele>
        <time>2011-06-04T09:11:15Z</time>
      </trkpt>
      <trkpt lat="45.28593" lon="5.78265">
        <ele>1792.515625</ele>
        <time>2011-06-04T09:11:20Z</time>
      </trkpt>
      <trkpt lat="45.286" lon="5.78266">
        <ele>1789.6315917969</ele>
        <time>2011-06-04T09:11:24Z</time>
      </trkpt>
      <trkpt lat="45.28603" lon="5.78266">
        <ele>1789.1508789062</ele>
        <time>2011-06-04T09:11:28Z</time>
      </trkpt>
      <trkpt lat="45.28606" lon="5.78267">
        <ele>1788.6704101562</ele>
        <time>2011-06-04T09:11:31Z</time>
      </trkpt>
      <trkpt lat="45.28604" lon="5.78261">
        <ele>1787.7087402344</ele>
        <time>2011-06-04T09:11:34Z</time>
      </trkpt>
      <trkpt lat="45.28604" lon="5.78257">
        <ele>1786.2668457031</ele>
        <time>2011-06-04T09:11:38Z</time>
      </trkpt>
      <trkpt lat="45.28613" lon="5.78258">
        <ele>1782.9020996094</ele>
        <time>2011-06-04T09:11:44Z</time>
      </trkpt>
      <trkpt lat="45.28622" lon="5.78259">
        <ele>1780.9797363281</ele>
        <time>2011-06-04T09:11:51Z</time>
      </trkpt>
      <trkpt lat="45.2862" lon="5.78254">
        <ele>1778.095703125</ele>
        <time>2011-06-04T09:11:56Z</time>
      </trkpt>
      <trkpt lat="45.28619" lon="5.78253">
        <ele>1777.6149902344</ele>
        <time>2011-06-04T09:11:57Z</time>
      </trkpt>
      <trkpt lat="45.28617" lon="5.78248">
        <ele>1776.6538085938</ele>
        <time>2011-06-04T09:12:00Z</time>
      </trkpt>
      <trkpt lat="45.28617" lon="5.78245">
        <ele>1776.1730957031</ele>
        <time>2011-06-04T09:12:03Z</time>
      </trkpt>
      <trkpt lat="45.28625" lon="5.78245">
        <ele>1774.7312011719</ele>
        <time>2011-06-04T09:12:08Z</time>
      </trkpt>
      <trkpt lat="45.28636" lon="5.78249">
        <ele>1771.8469238281</ele>
        <time>2011-06-04T09:12:14Z</time>
      </trkpt>
      <trkpt lat="45.28639" lon="5.7825">
        <ele>1770.8857421875</ele>
        <time>2011-06-04T09:12:16Z</time>
      </trkpt>
      <trkpt lat="45.28647" lon="5.78249">
        <ele>1768.482421875</ele>
        <time>2011-06-04T09:12:21Z</time>
      </trkpt>
      <trkpt lat="45.28653" lon="5.78255">
        <ele>1765.5986328125</ele>
        <time>2011-06-04T09:12:26Z</time>
      </trkpt>
      <trkpt lat="45.28656" lon="5.78258">
        <ele>1765.1179199219</ele>
        <time>2011-06-04T09:12:29Z</time>
      </trkpt>
      <trkpt lat="45.28667" lon="5.78261">
        <ele>1765.5986328125</ele>
        <time>2011-06-04T09:12:34Z</time>
      </trkpt>
      <trkpt lat="45.28676" lon="5.78262">
        <ele>1765.1179199219</ele>
        <time>2011-06-04T09:12:38Z</time>
      </trkpt>
      <trkpt lat="45.28682" lon="5.78258">
        <ele>1765.5986328125</ele>
        <time>2011-06-04T09:12:41Z</time>
      </trkpt>
      <trkpt lat="45.28689" lon="5.78251">
        <ele>1764.1564941406</ele>
        <time>2011-06-04T09:12:45Z</time>
      </trkpt>
      <trkpt lat="45.28689" lon="5.78249">
        <ele>1762.7145996094</ele>
        <time>2011-06-04T09:12:47Z</time>
      </trkpt>
      <trkpt lat="45.28679" lon="5.78245">
        <ele>1758.388671875</ele>
        <time>2011-06-04T09:12:53Z</time>
      </trkpt>
      <trkpt lat="45.28674" lon="5.7824">
        <ele>1754.5432128906</ele>
        <time>2011-06-04T09:12:57Z</time>
      </trkpt>
      <trkpt lat="45.28666" lon="5.78231">
        <ele>1750.6979980469</ele>
        <time>2011-06-04T09:13:03Z</time>
      </trkpt>
      <trkpt lat="45.28664" lon="5.78225">
        <ele>1748.2946777344</ele>
        <time>2011-06-04T09:13:07Z</time>
      </trkpt>
      <trkpt lat="45.2866" lon="5.78221">
        <ele>1747.8142089844</ele>
        <time>2011-06-04T09:13:11Z</time>
      </trkpt>
      <trkpt lat="45.28662" lon="5.78216">
        <ele>1746.3723144531</ele>
        <time>2011-06-04T09:13:15Z</time>
      </trkpt>
      <trkpt lat="45.28667" lon="5.7821">
        <ele>1745.4108886719</ele>
        <time>2011-06-04T09:13:20Z</time>
      </trkpt>
      <trkpt lat="45.28671" lon="5.78207">
        <ele>1743.9689941406</ele>
        <time>2011-06-04T09:13:23Z</time>
      </trkpt>
      <trkpt lat="45.28673" lon="5.78205">
        <ele>1743.48828125</ele>
        <time>2011-06-04T09:13:25Z</time>
      </trkpt>
      <trkpt lat="45.28676" lon="5.78199">
        <ele>1741.5656738281</ele>
        <time>2011-06-04T09:13:29Z</time>
      </trkpt>
      <trkpt lat="45.28683" lon="5.7819">
        <ele>1738.681640625</ele>
        <time>2011-06-04T09:13:36Z</time>
      </trkpt>
      <trkpt lat="45.28685" lon="5.78187">
        <ele>1737.2395019531</ele>
        <time>2011-06-04T09:13:38Z</time>
      </trkpt>
      <trkpt lat="45.28692" lon="5.78171">
        <ele>1732.9135742188</ele>
        <time>2011-06-04T09:13:45Z</time>
      </trkpt>
      <trkpt lat="45.28698" lon="5.7816">
        <ele>1729.5490722656</ele>
        <time>2011-06-04T09:13:51Z</time>
      </trkpt>
      <trkpt lat="45.287" lon="5.78156">
        <ele>1728.1071777344</ele>
        <time>2011-06-04T09:13:53Z</time>
      </trkpt>
      <trkpt lat="45.2871" lon="5.78145">
        <ele>1725.2231445312</ele>
        <time>2011-06-04T09:13:59Z</time>
      </trkpt>
      <trkpt lat="45.28715" lon="5.78141">
        <ele>1723.7810058594</ele>
        <time>2011-06-04T09:14:02Z</time>
      </trkpt>
      <trkpt lat="45.28717" lon="5.78139">
        <ele>1722.3391113281</ele>
        <time>2011-06-04T09:14:04Z</time>
      </trkpt>
      <trkpt lat="45.28706" lon="5.78135">
        <ele>1719.4553222656</ele>
        <time>2011-06-04T09:14:09Z</time>
      </trkpt>
      <trkpt lat="45.28695" lon="5.78135">
        <ele>1714.6486816406</ele>
        <time>2011-06-04T09:14:15Z</time>
      </trkpt>
      <trkpt lat="45.28683" lon="5.78136">
        <ele>1711.2841796875</ele>
        <time>2011-06-04T09:14:20Z</time>
      </trkpt>
      <trkpt lat="45.28674" lon="5.78137">
        <ele>1707.9194335938</ele>
        <time>2011-06-04T09:14:24Z</time>
      </trkpt>
      <trkpt lat="45.28662" lon="5.78134">
        <ele>1704.5546875</ele>
        <time>2011-06-04T09:14:29Z</time>
      </trkpt>
      <trkpt lat="45.28653" lon="5.78134">
        <ele>1702.6320800781</ele>
        <time>2011-06-04T09:14:33Z</time>
      </trkpt>
      <trkpt lat="45.28634" lon="5.78127">
        <ele>1700.2290039062</ele>
        <time>2011-06-04T09:14:41Z</time>
      </trkpt>
      <trkpt lat="45.28621" lon="5.78119">
        <ele>1698.7868652344</ele>
        <time>2011-06-04T09:14:47Z</time>
      </trkpt>
      <trkpt lat="45.2861" lon="5.78114">
        <ele>1696.3837890625</ele>
        <time>2011-06-04T09:14:52Z</time>
      </trkpt>
      <trkpt lat="45.28609" lon="5.78107">
        <ele>1696.3837890625</ele>
        <time>2011-06-04T09:14:56Z</time>
      </trkpt>
      <trkpt lat="45.28611" lon="5.78106">
        <ele>1696.3837890625</ele>
        <time>2011-06-04T09:14:57Z</time>
      </trkpt>
      <trkpt lat="45.28624" lon="5.781">
        <ele>1694.9416503906</ele>
        <time>2011-06-04T09:15:03Z</time>
      </trkpt>
      <trkpt lat="45.28635" lon="5.78098">
        <ele>1691.5769042969</ele>
        <time>2011-06-04T09:15:08Z</time>
      </trkpt>
      <trkpt lat="45.28646" lon="5.78092">
        <ele>1688.6931152344</ele>
        <time>2011-06-04T09:15:13Z</time>
      </trkpt>
      <trkpt lat="45.28661" lon="5.78085">
        <ele>1685.3283691406</ele>
        <time>2011-06-04T09:15:19Z</time>
      </trkpt>
      <trkpt lat="45.28669" lon="5.78077">
        <ele>1682.9250488281</ele>
        <time>2011-06-04T09:15:24Z</time>
      </trkpt>
      <trkpt lat="45.28676" lon="5.78067">
        <ele>1681.4831542969</ele>
        <time>2011-06-04T09:15:28Z</time>
      </trkpt>
      <trkpt lat="45.28683" lon="5.7806">
        <ele>1679.560546875</ele>
        <time>2011-06-04T09:15:32Z</time>
      </trkpt>
      <trkpt lat="45.28687" lon="5.78052">
        <ele>1677.6379394531</ele>
        <time>2011-06-04T09:15:35Z</time>
      </trkpt>
      <trkpt lat="45.28695" lon="5.78036">
        <ele>1676.1960449219</ele>
        <time>2011-06-04T09:15:41Z</time>
      </trkpt>
      <trkpt lat="45.28694" lon="5.78036">
        <ele>1675.7150878906</ele>
        <time>2011-06-04T09:15:42Z</time>
      </trkpt>
      <trkpt lat="45.2869" lon="5.78037">
        <ele>1674.2731933594</ele>
        <time>2011-06-04T09:15:46Z</time>
      </trkpt>
      <trkpt lat="45.28683" lon="5.78033">
        <ele>1670.4279785156</ele>
        <time>2011-06-04T09:15:52Z</time>
      </trkpt>
      <trkpt lat="45.28676" lon="5.78027">
        <ele>1667.0634765625</ele>
        <time>2011-06-04T09:15:58Z</time>
      </trkpt>
      <trkpt lat="45.28667" lon="5.78029">
        <ele>1664.66015625</ele>
        <time>2011-06-04T09:16:02Z</time>
      </trkpt>
      <trkpt lat="45.28659" lon="5.78027">
        <ele>1662.2568359375</ele>
        <time>2011-06-04T09:16:05Z</time>
      </trkpt>
      <trkpt lat="45.28649" lon="5.78029">
        <ele>1659.3728027344</ele>
        <time>2011-06-04T09:16:09Z</time>
      </trkpt>
      <trkpt lat="45.28645" lon="5.78029">
        <ele>1657.9309082031</ele>
        <time>2011-06-04T09:16:11Z</time>
      </trkpt>
      <trkpt lat="45.2864" lon="5.78024">
        <ele>1654.5661621094</ele>
        <time>2011-06-04T09:16:15Z</time>
      </trkpt>
      <trkpt lat="45.28627" lon="5.78018">
        <ele>1650.7209472656</ele>
        <time>2011-06-04T09:16:21Z</time>
      </trkpt>
      <trkpt lat="45.28625" lon="5.78016">
        <ele>1650.7209472656</ele>
        <time>2011-06-04T09:16:22Z</time>
      </trkpt>
      <trkpt lat="45.28613" lon="5.78007">
        <ele>1648.3176269531</ele>
        <time>2011-06-04T09:16:27Z</time>
      </trkpt>
      <trkpt lat="45.28609" lon="5.78006">
        <ele>1648.3176269531</ele>
        <time>2011-06-04T09:16:28Z</time>
      </trkpt>
      <trkpt lat="45.28595" lon="5.77997">
        <ele>1647.8371582031</ele>
        <time>2011-06-04T09:16:34Z</time>
      </trkpt>
      <trkpt lat="45.2859" lon="5.77992">
        <ele>1645.9145507812</ele>
        <time>2011-06-04T09:16:38Z</time>
      </trkpt>
      <trkpt lat="45.28586" lon="5.77977">
        <ele>1641.5883789062</ele>
        <time>2011-06-04T09:16:44Z</time>
      </trkpt>
      <trkpt lat="45.28584" lon="5.77966">
        <ele>1639.1850585938</ele>
        <time>2011-06-04T09:16:49Z</time>
      </trkpt>
      <trkpt lat="45.28585" lon="5.7796">
        <ele>1634.3786621094</ele>
        <time>2011-06-04T09:16:54Z</time>
      </trkpt>
      <trkpt lat="45.28594" lon="5.77962">
        <ele>1630.5334472656</ele>
        <time>2011-06-04T09:16:59Z</time>
      </trkpt>
      <trkpt lat="45.28595" lon="5.77962">
        <ele>1630.052734375</ele>
        <time>2011-06-04T09:17:00Z</time>
      </trkpt>
      <trkpt lat="45.28601" lon="5.77961">
        <ele>1624.7653808594</ele>
        <time>2011-06-04T09:17:05Z</time>
      </trkpt>
      <trkpt lat="45.28603" lon="5.7796">
        <ele>1623.3234863281</ele>
        <time>2011-06-04T09:17:07Z</time>
      </trkpt>
      <trkpt lat="45.28609" lon="5.77955">
        <ele>1618.5168457031</ele>
        <time>2011-06-04T09:17:12Z</time>
      </trkpt>
      <trkpt lat="45.28616" lon="5.77948">
        <ele>1615.15234375</ele>
        <time>2011-06-04T09:17:17Z</time>
      </trkpt>
      <trkpt lat="45.28622" lon="5.77937">
        <ele>1611.3068847656</ele>
        <time>2011-06-04T09:17:22Z</time>
      </trkpt>
      <trkpt lat="45.28629" lon="5.77927">
        <ele>1608.4228515625</ele>
        <time>2011-06-04T09:17:27Z</time>
      </trkpt>
      <trkpt lat="45.28634" lon="5.77921">
        <ele>1606.01953125</ele>
        <time>2011-06-04T09:17:30Z</time>
      </trkpt>
      <trkpt lat="45.28639" lon="5.77908">
        <ele>1605.0583496094</ele>
        <time>2011-06-04T09:17:35Z</time>
      </trkpt>
      <trkpt lat="45.28646" lon="5.77896">
        <ele>1604.0971679688</ele>
        <time>2011-06-04T09:17:40Z</time>
      </trkpt>
      <trkpt lat="45.2865" lon="5.7789">
        <ele>1601.6938476562</ele>
        <time>2011-06-04T09:17:43Z</time>
      </trkpt>
      <trkpt lat="45.28653" lon="5.77882">
        <ele>1599.7712402344</ele>
        <time>2011-06-04T09:17:47Z</time>
      </trkpt>
      <trkpt lat="45.28658" lon="5.77873">
        <ele>1598.3291015625</ele>
        <time>2011-06-04T09:17:51Z</time>
      </trkpt>
      <trkpt lat="45.28666" lon="5.77862">
        <ele>1594.0031738281</ele>
        <time>2011-06-04T09:17:57Z</time>
      </trkpt>
      <trkpt lat="45.28676" lon="5.77856">
        <ele>1587.7546386719</ele>
        <time>2011-06-04T09:18:03Z</time>
      </trkpt>
      <trkpt lat="45.28688" lon="5.77853">
        <ele>1584.3901367188</ele>
        <time>2011-06-04T09:18:08Z</time>
      </trkpt>
      <trkpt lat="45.28702" lon="5.77846">
        <ele>1581.5061035156</ele>
        <time>2011-06-04T09:18:14Z</time>
      </trkpt>
      <trkpt lat="45.28716" lon="5.77842">
        <ele>1580.544921875</ele>
        <time>2011-06-04T09:18:20Z</time>
      </trkpt>
      <trkpt lat="45.28724" lon="5.77841">
        <ele>1577.6606445312</ele>
        <time>2011-06-04T09:18:24Z</time>
      </trkpt>
      <trkpt lat="45.28727" lon="5.77841">
        <ele>1577.1801757812</ele>
        <time>2011-06-04T09:18:25Z</time>
      </trkpt>
      <trkpt lat="45.2874" lon="5.77836">
        <ele>1573.3349609375</ele>
        <time>2011-06-04T09:18:32Z</time>
      </trkpt>
      <trkpt lat="45.28746" lon="5.77835">
        <ele>1572.3735351562</ele>
        <time>2011-06-04T09:18:36Z</time>
      </trkpt>
      <trkpt lat="45.28754" lon="5.77834">
        <ele>1568.0476074219</ele>
        <time>2011-06-04T09:18:41Z</time>
      </trkpt>
      <trkpt lat="45.28764" lon="5.77831">
        <ele>1565.1638183594</ele>
        <time>2011-06-04T09:18:46Z</time>
      </trkpt>
      <trkpt lat="45.28779" lon="5.77829">
        <ele>1559.3957519531</ele>
        <time>2011-06-04T09:18:52Z</time>
      </trkpt>
      <trkpt lat="45.28782" lon="5.77829">
        <ele>1559.3957519531</ele>
        <time>2011-06-04T09:18:53Z</time>
      </trkpt>
      <trkpt lat="45.28784" lon="5.77826">
        <ele>1557.4731445312</ele>
        <time>2011-06-04T09:18:57Z</time>
      </trkpt>
      <trkpt lat="45.28778" lon="5.77823">
        <ele>1554.1086425781</ele>
        <time>2011-06-04T09:19:01Z</time>
      </trkpt>
      <trkpt lat="45.28772" lon="5.77821">
        <ele>1554.1086425781</ele>
        <time>2011-06-04T09:19:04Z</time>
      </trkpt>
      <trkpt lat="45.28764" lon="5.77817">
        <ele>1555.5505371094</ele>
        <time>2011-06-04T09:19:10Z</time>
      </trkpt>
      <trkpt lat="45.28756" lon="5.77809">
        <ele>1556.51171875</ele>
        <time>2011-06-04T09:19:14Z</time>
      </trkpt>
      <trkpt lat="45.28746" lon="5.77802">
        <ele>1556.9924316406</ele>
        <time>2011-06-04T09:19:19Z</time>
      </trkpt>
      <trkpt lat="45.2873" lon="5.77794">
        <ele>1559.8762207031</ele>
        <time>2011-06-04T09:19:25Z</time>
      </trkpt>
      <trkpt lat="45.2872" lon="5.77789">
        <ele>1556.9924316406</ele>
        <time>2011-06-04T09:19:30Z</time>
      </trkpt>
      <trkpt lat="45.28712" lon="5.77784">
        <ele>1554.5891113281</ele>
        <time>2011-06-04T09:19:34Z</time>
      </trkpt>
      <trkpt lat="45.28701" lon="5.7778">
        <ele>1550.7438964844</ele>
        <time>2011-06-04T09:19:39Z</time>
      </trkpt>
      <trkpt lat="45.28692" lon="5.77776">
        <ele>1548.8212890625</ele>
        <time>2011-06-04T09:19:43Z</time>
      </trkpt>
      <trkpt lat="45.28687" lon="5.77775">
        <ele>1548.8212890625</ele>
        <time>2011-06-04T09:19:45Z</time>
      </trkpt>
      <trkpt lat="45.28686" lon="5.77769">
        <ele>1546.8984375</ele>
        <time>2011-06-04T09:19:49Z</time>
      </trkpt>
      <trkpt lat="45.2869" lon="5.77767">
        <ele>1546.41796875</ele>
        <time>2011-06-04T09:19:51Z</time>
      </trkpt>
      <trkpt lat="45.28702" lon="5.77759">
        <ele>1541.611328125</ele>
        <time>2011-06-04T09:19:57Z</time>
      </trkpt>
      <trkpt lat="45.28723" lon="5.7775">
        <ele>1538.7275390625</ele>
        <time>2011-06-04T09:20:05Z</time>
      </trkpt>
      <trkpt lat="45.28738" lon="5.77747">
        <ele>1532.9594726562</ele>
        <time>2011-06-04T09:20:10Z</time>
      </trkpt>
      <trkpt lat="45.28753" lon="5.77744">
        <ele>1528.6335449219</ele>
        <time>2011-06-04T09:20:16Z</time>
      </trkpt>
      <trkpt lat="45.28767" lon="5.77742">
        <ele>1525.2687988281</ele>
        <time>2011-06-04T09:20:21Z</time>
      </trkpt>
      <trkpt lat="45.28781" lon="5.77741">
        <ele>1521.904296875</ele>
        <time>2011-06-04T09:20:26Z</time>
      </trkpt>
      <trkpt lat="45.28789" lon="5.77741">
        <ele>1518.0590820312</ele>
        <time>2011-06-04T09:20:30Z</time>
      </trkpt>
      <trkpt lat="45.28801" lon="5.77741">
        <ele>1514.6943359375</ele>
        <time>2011-06-04T09:20:34Z</time>
      </trkpt>
      <trkpt lat="45.28811" lon="5.77732">
        <ele>1514.6943359375</ele>
        <time>2011-06-04T09:20:38Z</time>
      </trkpt>
      <trkpt lat="45.28825" lon="5.7772">
        <ele>1515.1750488281</ele>
        <time>2011-06-04T09:20:44Z</time>
      </trkpt>
      <trkpt lat="45.28834" lon="5.77709">
        <ele>1515.6557617188</ele>
        <time>2011-06-04T09:20:48Z</time>
      </trkpt>
      <trkpt lat="45.2884" lon="5.77696">
        <ele>1515.1750488281</ele>
        <time>2011-06-04T09:20:52Z</time>
      </trkpt>
      <trkpt lat="45.28849" lon="5.77678">
        <ele>1514.2136230469</ele>
        <time>2011-06-04T09:20:57Z</time>
      </trkpt>
      <trkpt lat="45.28862" lon="5.77665">
        <ele>1511.3298339844</ele>
        <time>2011-06-04T09:21:03Z</time>
      </trkpt>
      <trkpt lat="45.28874" lon="5.77658">
        <ele>1508.9265136719</ele>
        <time>2011-06-04T09:21:08Z</time>
      </trkpt>
      <trkpt lat="45.28887" lon="5.77655">
        <ele>1507.9653320312</ele>
        <time>2011-06-04T09:21:13Z</time>
      </trkpt>
      <trkpt lat="45.28901" lon="5.77656">
        <ele>1504.6005859375</ele>
        <time>2011-06-04T09:21:18Z</time>
      </trkpt>
      <trkpt lat="45.28914" lon="5.77657">
        <ele>1503.1586914062</ele>
        <time>2011-06-04T09:21:23Z</time>
      </trkpt>
      <trkpt lat="45.28929" lon="5.77658">
        <ele>1499.7939453125</ele>
        <time>2011-06-04T09:21:28Z</time>
      </trkpt>
      <trkpt lat="45.2894" lon="5.77656">
        <ele>1497.390625</ele>
        <time>2011-06-04T09:21:32Z</time>
      </trkpt>
      <trkpt lat="45.28955" lon="5.77656">
        <ele>1493.5454101562</ele>
        <time>2011-06-04T09:21:37Z</time>
      </trkpt>
      <trkpt lat="45.28966" lon="5.77655">
        <ele>1489.7001953125</ele>
        <time>2011-06-04T09:21:41Z</time>
      </trkpt>
      <trkpt lat="45.2898" lon="5.77654">
        <ele>1486.3356933594</ele>
        <time>2011-06-04T09:21:46Z</time>
      </trkpt>
      <trkpt lat="45.28993" lon="5.77655">
        <ele>1485.3742675781</ele>
        <time>2011-06-04T09:21:50Z</time>
      </trkpt>
      <trkpt lat="45.2901" lon="5.77663">
        <ele>1483.4514160156</ele>
        <time>2011-06-04T09:21:56Z</time>
      </trkpt>
      <trkpt lat="45.29028" lon="5.77672">
        <ele>1480.5676269531</ele>
        <time>2011-06-04T09:22:02Z</time>
      </trkpt>
      <trkpt lat="45.29046" lon="5.77682">
        <ele>1475.7609863281</ele>
        <time>2011-06-04T09:22:08Z</time>
      </trkpt>
      <trkpt lat="45.29064" lon="5.77679">
        <ele>1475.2802734375</ele>
        <time>2011-06-04T09:22:14Z</time>
      </trkpt>
      <trkpt lat="45.29079" lon="5.77678">
        <ele>1472.8771972656</ele>
        <time>2011-06-04T09:22:19Z</time>
      </trkpt>
      <trkpt lat="45.29092" lon="5.77677">
        <ele>1471.4350585938</ele>
        <time>2011-06-04T09:22:23Z</time>
      </trkpt>
      <trkpt lat="45.29103" lon="5.77676">
        <ele>1468.5512695312</ele>
        <time>2011-06-04T09:22:28Z</time>
      </trkpt>
      <trkpt lat="45.29116" lon="5.77675">
        <ele>1466.6284179688</ele>
        <time>2011-06-04T09:22:33Z</time>
      </trkpt>
      <trkpt lat="45.29122" lon="5.77674">
        <ele>1465.6672363281</ele>
        <time>2011-06-04T09:22:35Z</time>
      </trkpt>
      <trkpt lat="45.29123" lon="5.77664">
        <ele>1461.8220214844</ele>
        <time>2011-06-04T09:22:39Z</time>
      </trkpt>
      <trkpt lat="45.29112" lon="5.77652">
        <ele>1457.0153808594</ele>
        <time>2011-06-04T09:22:44Z</time>
      </trkpt>
      <trkpt lat="45.29107" lon="5.77647">
        <ele>1454.1315917969</ele>
        <time>2011-06-04T09:22:46Z</time>
      </trkpt>
      <trkpt lat="45.29097" lon="5.77634">
        <ele>1448.8439941406</ele>
        <time>2011-06-04T09:22:51Z</time>
      </trkpt>
      <trkpt lat="45.2909" lon="5.7762">
        <ele>1447.8828125</ele>
        <time>2011-06-04T09:22:55Z</time>
      </trkpt>
      <trkpt lat="45.29082" lon="5.77604">
        <ele>1446.4409179688</ele>
        <time>2011-06-04T09:23:00Z</time>
      </trkpt>
      <trkpt lat="45.29076" lon="5.7759">
        <ele>1444.9987792969</ele>
        <time>2011-06-04T09:23:04Z</time>
      </trkpt>
      <trkpt lat="45.29068" lon="5.77569">
        <ele>1443.5568847656</ele>
        <time>2011-06-04T09:23:10Z</time>
      </trkpt>
      <trkpt lat="45.29066" lon="5.77561">
        <ele>1443.076171875</ele>
        <time>2011-06-04T09:23:12Z</time>
      </trkpt>
      <trkpt lat="45.29058" lon="5.77542">
        <ele>1440.1923828125</ele>
        <time>2011-06-04T09:23:17Z</time>
      </trkpt>
      <trkpt lat="45.2905" lon="5.77528">
        <ele>1437.3083496094</ele>
        <time>2011-06-04T09:23:21Z</time>
      </trkpt>
      <trkpt lat="45.29046" lon="5.77513">
        <ele>1434.9050292969</ele>
        <time>2011-06-04T09:23:25Z</time>
      </trkpt>
      <trkpt lat="45.29045" lon="5.7751">
        <ele>1433.462890625</ele>
        <time>2011-06-04T09:23:26Z</time>
      </trkpt>
      <trkpt lat="45.2904" lon="5.77491">
        <ele>1431.5402832031</ele>
        <time>2011-06-04T09:23:31Z</time>
      </trkpt>
      <trkpt lat="45.29033" lon="5.77475">
        <ele>1429.6176757812</ele>
        <time>2011-06-04T09:23:36Z</time>
      </trkpt>
      <trkpt lat="45.2903" lon="5.77471">
        <ele>1427.2145996094</ele>
        <time>2011-06-04T09:23:38Z</time>
      </trkpt>
      <trkpt lat="45.29026" lon="5.77451">
        <ele>1424.3305664062</ele>
        <time>2011-06-04T09:23:43Z</time>
      </trkpt>
      <trkpt lat="45.29018" lon="5.77432">
        <ele>1418.0817871094</ele>
        <time>2011-06-04T09:23:49Z</time>
      </trkpt>
      <trkpt lat="45.2901" lon="5.77418">
        <ele>1413.755859375</ele>
        <time>2011-06-04T09:23:54Z</time>
      </trkpt>
      <trkpt lat="45.28997" lon="5.77402">
        <ele>1406.5461425781</ele>
        <time>2011-06-04T09:24:01Z</time>
      </trkpt>
      <trkpt lat="45.28989" lon="5.77394">
        <ele>1404.6235351562</ele>
        <time>2011-06-04T09:24:05Z</time>
      </trkpt>
      <trkpt lat="45.28988" lon="5.77392">
        <ele>1404.1430664062</ele>
        <time>2011-06-04T09:24:06Z</time>
      </trkpt>
      <trkpt lat="45.28973" lon="5.77382">
        <ele>1399.8168945312</ele>
        <time>2011-06-04T09:24:12Z</time>
      </trkpt>
      <trkpt lat="45.28962" lon="5.77374">
        <ele>1395.9716796875</ele>
        <time>2011-06-04T09:24:16Z</time>
      </trkpt>
      <trkpt lat="45.28956" lon="5.7737">
        <ele>1394.0490722656</ele>
        <time>2011-06-04T09:24:18Z</time>
      </trkpt>
      <trkpt lat="45.28944" lon="5.77361">
        <ele>1388.28125</ele>
        <time>2011-06-04T09:24:23Z</time>
      </trkpt>
      <trkpt lat="45.28941" lon="5.77359">
        <ele>1387.8002929688</ele>
        <time>2011-06-04T09:24:24Z</time>
      </trkpt>
      <trkpt lat="45.28929" lon="5.77349">
        <ele>1383.955078125</ele>
        <time>2011-06-04T09:24:29Z</time>
      </trkpt>
      <trkpt lat="45.28915" lon="5.7734">
        <ele>1381.0712890625</ele>
        <time>2011-06-04T09:24:34Z</time>
      </trkpt>
      <trkpt lat="45.28905" lon="5.77331">
        <ele>1379.1484375</ele>
        <time>2011-06-04T09:24:38Z</time>
      </trkpt>
      <trkpt lat="45.28891" lon="5.77318">
        <ele>1378.66796875</ele>
        <time>2011-06-04T09:24:43Z</time>
      </trkpt>
      <trkpt lat="45.28888" lon="5.77316">
        <ele>1379.1484375</ele>
        <time>2011-06-04T09:24:44Z</time>
      </trkpt>
      <trkpt lat="45.28878" lon="5.77308">
        <ele>1376.2646484375</ele>
        <time>2011-06-04T09:24:48Z</time>
      </trkpt>
      <trkpt lat="45.28863" lon="5.77294">
        <ele>1377.7065429688</ele>
        <time>2011-06-04T09:24:54Z</time>
      </trkpt>
      <trkpt lat="45.28852" lon="5.77285">
        <ele>1381.0712890625</ele>
        <time>2011-06-04T09:24:58Z</time>
      </trkpt>
      <trkpt lat="45.28838" lon="5.77273">
        <ele>1382.0324707031</ele>
        <time>2011-06-04T09:25:04Z</time>
      </trkpt>
      <trkpt lat="45.28828" lon="5.77265">
        <ele>1378.66796875</ele>
        <time>2011-06-04T09:25:09Z</time>
      </trkpt>
      <trkpt lat="45.28825" lon="5.77264">
        <ele>1377.7065429688</ele>
        <time>2011-06-04T09:25:10Z</time>
      </trkpt>
      <trkpt lat="45.28821" lon="5.7725">
        <ele>1375.7839355469</ele>
        <time>2011-06-04T09:25:14Z</time>
      </trkpt>
      <trkpt lat="45.28821" lon="5.77237">
        <ele>1372.4194335938</ele>
        <time>2011-06-04T09:25:18Z</time>
      </trkpt>
      <trkpt lat="45.28815" lon="5.77218">
        <ele>1371.9384765625</ele>
        <time>2011-06-04T09:25:23Z</time>
      </trkpt>
      <trkpt lat="45.28812" lon="5.77206">
        <ele>1368.5739746094</ele>
        <time>2011-06-04T09:25:27Z</time>
      </trkpt>
      <trkpt lat="45.28811" lon="5.77181">
        <ele>1365.2094726562</ele>
        <time>2011-06-04T09:25:33Z</time>
      </trkpt>
      <trkpt lat="45.28809" lon="5.77164">
        <ele>1365.2094726562</ele>
        <time>2011-06-04T09:25:37Z</time>
      </trkpt>
      <trkpt lat="45.28809" lon="5.77148">
        <ele>1363.2868652344</ele>
        <time>2011-06-04T09:25:41Z</time>
      </trkpt>
      <trkpt lat="45.28809" lon="5.77124">
        <ele>1360.8835449219</ele>
        <time>2011-06-04T09:25:47Z</time>
      </trkpt>
      <trkpt lat="45.28809" lon="5.771">
        <ele>1357.9997558594</ele>
        <time>2011-06-04T09:25:53Z</time>
      </trkpt>
      <trkpt lat="45.2881" lon="5.77076">
        <ele>1354.634765625</ele>
        <time>2011-06-04T09:25:59Z</time>
      </trkpt>
      <trkpt lat="45.28812" lon="5.77049">
        <ele>1352.2314453125</ele>
        <time>2011-06-04T09:26:06Z</time>
      </trkpt>
      <trkpt lat="45.28817" lon="5.77027">
        <ele>1348.8669433594</ele>
        <time>2011-06-04T09:26:12Z</time>
      </trkpt>
      <trkpt lat="45.28824" lon="5.77007">
        <ele>1345.9831542969</ele>
        <time>2011-06-04T09:26:18Z</time>
      </trkpt>
      <trkpt lat="45.28832" lon="5.76987">
        <ele>1342.1379394531</ele>
        <time>2011-06-04T09:26:24Z</time>
      </trkpt>
      <trkpt lat="45.28842" lon="5.76968">
        <ele>1337.3310546875</ele>
        <time>2011-06-04T09:26:30Z</time>
      </trkpt>
      <trkpt lat="45.28852" lon="5.7695">
        <ele>1333.9665527344</ele>
        <time>2011-06-04T09:26:36Z</time>
      </trkpt>
      <trkpt lat="45.28854" lon="5.76946">
        <ele>1333.4858398438</ele>
        <time>2011-06-04T09:26:37Z</time>
      </trkpt>
      <trkpt lat="45.28863" lon="5.76931">
        <ele>1330.1213378906</ele>
        <time>2011-06-04T09:26:42Z</time>
      </trkpt>
      <trkpt lat="45.2887" lon="5.76918">
        <ele>1329.1599121094</ele>
        <time>2011-06-04T09:26:46Z</time>
      </trkpt>
      <trkpt lat="45.28874" lon="5.76907">
        <ele>1326.7568359375</ele>
        <time>2011-06-04T09:26:49Z</time>
      </trkpt>
      <trkpt lat="45.28882" lon="5.76883">
        <ele>1325.3146972656</ele>
        <time>2011-06-04T09:26:55Z</time>
      </trkpt>
      <trkpt lat="45.28889" lon="5.7686">
        <ele>1323.3920898438</ele>
        <time>2011-06-04T09:27:01Z</time>
      </trkpt>
      <trkpt lat="45.28893" lon="5.76847">
        <ele>1325.3146972656</ele>
        <time>2011-06-04T09:27:04Z</time>
      </trkpt>
      <trkpt lat="45.28898" lon="5.7683">
        <ele>1325.3146972656</ele>
        <time>2011-06-04T09:27:09Z</time>
      </trkpt>
      <trkpt lat="45.28897" lon="5.76829">
        <ele>1325.3146972656</ele>
        <time>2011-06-04T09:27:12Z</time>
      </trkpt>
      <trkpt lat="45.28896" lon="5.7683">
        <ele>1324.353515625</ele>
        <time>2011-06-04T09:27:28Z</time>
      </trkpt>
      <trkpt lat="45.28898" lon="5.76829">
        <ele>1325.7954101562</ele>
        <time>2011-06-04T09:27:36Z</time>
      </trkpt>
      <trkpt lat="45.28904" lon="5.76822">
        <ele>1327.2375488281</ele>
        <time>2011-06-04T09:27:42Z</time>
      </trkpt>
      <trkpt lat="45.28904" lon="5.7682">
        <ele>1327.2375488281</ele>
        <time>2011-06-04T09:27:43Z</time>
      </trkpt>
      <trkpt lat="45.28907" lon="5.76813">
        <ele>1326.7568359375</ele>
        <time>2011-06-04T09:27:48Z</time>
      </trkpt>
      <trkpt lat="45.28909" lon="5.76808">
        <ele>1327.7180175781</ele>
        <time>2011-06-04T09:27:51Z</time>
      </trkpt>
      <trkpt lat="45.28912" lon="5.76795">
        <ele>1328.6794433594</ele>
        <time>2011-06-04T09:27:59Z</time>
      </trkpt>
      <trkpt lat="45.28914" lon="5.76792">
        <ele>1329.1599121094</ele>
        <time>2011-06-04T09:28:01Z</time>
      </trkpt>
      <trkpt lat="45.2892" lon="5.7678">
        <ele>1329.640625</ele>
        <time>2011-06-04T09:28:09Z</time>
      </trkpt>
      <trkpt lat="45.28923" lon="5.76777">
        <ele>1329.640625</ele>
        <time>2011-06-04T09:28:12Z</time>
      </trkpt>
      <trkpt lat="45.28925" lon="5.76773">
        <ele>1329.640625</ele>
        <time>2011-06-04T09:28:18Z</time>
      </trkpt>
      <trkpt lat="45.28926" lon="5.76774">
        <ele>1327.7180175781</ele>
        <time>2011-06-04T09:28:25Z</time>
      </trkpt>
      <trkpt lat="45.28927" lon="5.76773">
        <ele>1327.2375488281</ele>
        <time>2011-06-04T09:28:37Z</time>
      </trkpt>
      <trkpt lat="45.28927" lon="5.76773">
        <ele>1325.7954101562</ele>
        <time>2011-06-04T09:28:50Z</time>
      </trkpt>
      <trkpt lat="45.28927" lon="5.76773">
        <ele>1325.3146972656</ele>
        <time>2011-06-04T09:28:53Z</time>
      </trkpt>
      <trkpt lat="45.28927" lon="5.76773">
        <ele>1324.353515625</ele>
        <time>2011-06-04T09:28:56Z</time>
      </trkpt>
      <trkpt lat="45.28927" lon="5.76773">
        <ele>1323.8725585938</ele>
        <time>2011-06-04T09:28:59Z</time>
      </trkpt>
      <trkpt lat="45.28927" lon="5.76773">
        <ele>1323.8725585938</ele>
        <time>2011-06-04T09:29:00Z</time>
      </trkpt>
      <trkpt lat="45.28927" lon="5.76772">
        <ele>1326.7568359375</ele>
        <time>2011-06-04T09:29:33Z</time>
      </trkpt>
      <trkpt lat="45.28926" lon="5.76772">
        <ele>1327.2375488281</ele>
        <time>2011-06-04T09:29:41Z</time>
      </trkpt>
      <trkpt lat="45.28926" lon="5.76773">
        <ele>1328.1987304688</ele>
        <time>2011-06-04T09:29:43Z</time>
      </trkpt>
      <trkpt lat="45.28926" lon="5.76773">
        <ele>1328.1987304688</ele>
        <time>2011-06-04T09:29:48Z</time>
      </trkpt>
      <trkpt lat="45.28927" lon="5.76774">
        <ele>1328.1987304688</ele>
        <time>2011-06-04T09:29:56Z</time>
      </trkpt>
      <trkpt lat="45.28927" lon="5.76774">
        <ele>1328.1987304688</ele>
        <time>2011-06-04T09:30:05Z</time>
      </trkpt>
      <trkpt lat="45.28926" lon="5.76774">
        <ele>1328.6794433594</ele>
        <time>2011-06-04T09:30:19Z</time>
      </trkpt>
      <trkpt lat="45.28926" lon="5.76772">
        <ele>1329.1599121094</ele>
        <time>2011-06-04T09:30:25Z</time>
      </trkpt>
      <trkpt lat="45.28926" lon="5.76773">
        <ele>1328.1987304688</ele>
        <time>2011-06-04T09:30:36Z</time>
      </trkpt>
      <trkpt lat="45.28927" lon="5.76772">
        <ele>1328.6794433594</ele>
        <time>2011-06-04T09:30:39Z</time>
      </trkpt>
      <trkpt lat="45.28927" lon="5.76772">
        <ele>1328.1987304688</ele>
        <time>2011-06-04T09:30:40Z</time>
      </trkpt>
      <trkpt lat="45.28928" lon="5.7677">
        <ele>1327.2375488281</ele>
        <time>2011-06-04T09:30:45Z</time>
      </trkpt>
      <trkpt lat="45.28929" lon="5.76771">
        <ele>1327.7180175781</ele>
        <time>2011-06-04T09:30:50Z</time>
      </trkpt>
      <trkpt lat="45.28928" lon="5.7677">
        <ele>1328.1987304688</ele>
        <time>2011-06-04T09:30:53Z</time>
      </trkpt>
      <trkpt lat="45.28928" lon="5.7677">
        <ele>1328.1987304688</ele>
        <time>2011-06-04T09:30:54Z</time>
      </trkpt>
      <trkpt lat="45.2893" lon="5.76768">
        <ele>1327.7180175781</ele>
        <time>2011-06-04T09:30:57Z</time>
      </trkpt>
      <trkpt lat="45.28935" lon="5.76764">
        <ele>1327.2375488281</ele>
        <time>2011-06-04T09:31:02Z</time>
      </trkpt>
      <trkpt lat="45.28934" lon="5.76764">
        <ele>1327.2375488281</ele>
        <time>2011-06-04T09:31:04Z</time>
      </trkpt>
      <trkpt lat="45.28926" lon="5.76774">
        <ele>1327.2375488281</ele>
        <time>2011-06-04T09:31:12Z</time>
      </trkpt>
      <trkpt lat="45.28926" lon="5.76775">
        <ele>1328.1987304688</ele>
        <time>2011-06-04T09:31:17Z</time>
      </trkpt>
      <trkpt lat="45.2893" lon="5.76769">
        <ele>1328.1987304688</ele>
        <time>2011-06-04T09:31:22Z</time>
      </trkpt>
      <trkpt lat="45.28933" lon="5.76766">
        <ele>1330.1213378906</ele>
        <time>2011-06-04T09:31:25Z</time>
      </trkpt>
      <trkpt lat="45.28939" lon="5.76757">
        <ele>1332.0439453125</ele>
        <time>2011-06-04T09:31:31Z</time>
      </trkpt>
      <trkpt lat="45.28941" lon="5.76756">
        <ele>1331.5632324219</ele>
        <time>2011-06-04T09:31:34Z</time>
      </trkpt>
      <trkpt lat="45.28943" lon="5.76754">
        <ele>1332.0439453125</ele>
        <time>2011-06-04T09:31:36Z</time>
      </trkpt>
      <trkpt lat="45.28947" lon="5.76753">
        <ele>1333.9665527344</ele>
        <time>2011-06-04T09:31:40Z</time>
      </trkpt>
      <trkpt lat="45.28953" lon="5.76748">
        <ele>1331.0827636719</ele>
        <time>2011-06-04T09:31:48Z</time>
      </trkpt>
      <trkpt lat="45.28959" lon="5.76738">
        <ele>1335.4084472656</ele>
        <time>2011-06-04T09:31:56Z</time>
      </trkpt>
      <trkpt lat="45.28959" lon="5.76737">
        <ele>1334.9279785156</ele>
        <time>2011-06-04T09:31:57Z</time>
      </trkpt>
      <trkpt lat="45.28965" lon="5.76733">
        <ele>1334.447265625</ele>
        <time>2011-06-04T09:32:02Z</time>
      </trkpt>
      <trkpt lat="45.28973" lon="5.76726">
        <ele>1330.1213378906</ele>
        <time>2011-06-04T09:32:10Z</time>
      </trkpt>
      <trkpt lat="45.28982" lon="5.76718">
        <ele>1321.9499511719</ele>
        <time>2011-06-04T09:32:18Z</time>
      </trkpt>
      <trkpt lat="45.28988" lon="5.7671">
        <ele>1319.546875</ele>
        <time>2011-06-04T09:32:25Z</time>
      </trkpt>
      <trkpt lat="45.28989" lon="5.76709">
        <ele>1318.5854492188</ele>
        <time>2011-06-04T09:32:26Z</time>
      </trkpt>
      <trkpt lat="45.28997" lon="5.76704">
        <ele>1317.1435546875</ele>
        <time>2011-06-04T09:32:34Z</time>
      </trkpt>
      <trkpt lat="45.29004" lon="5.76694">
        <ele>1315.7016601562</ele>
        <time>2011-06-04T09:32:42Z</time>
      </trkpt>
      <trkpt lat="45.29012" lon="5.76688">
        <ele>1315.7016601562</ele>
        <time>2011-06-04T09:32:49Z</time>
      </trkpt>
      <trkpt lat="45.29019" lon="5.76683">
        <ele>1317.6240234375</ele>
        <time>2011-06-04T09:32:55Z</time>
      </trkpt>
      <trkpt lat="45.29031" lon="5.76679">
        <ele>1316.6628417969</ele>
        <time>2011-06-04T09:33:03Z</time>
      </trkpt>
      <trkpt lat="45.2904" lon="5.76676">
        <ele>1316.6628417969</ele>
        <time>2011-06-04T09:33:10Z</time>
      </trkpt>
      <trkpt lat="45.29049" lon="5.76671">
        <ele>1318.1047363281</ele>
        <time>2011-06-04T09:33:16Z</time>
      </trkpt>
      <trkpt lat="45.2906" lon="5.76666">
        <ele>1321.4692382812</ele>
        <time>2011-06-04T09:33:23Z</time>
      </trkpt>
      <trkpt lat="45.2907" lon="5.76663">
        <ele>1324.353515625</ele>
        <time>2011-06-04T09:33:30Z</time>
      </trkpt>
      <trkpt lat="45.2908" lon="5.76659">
        <ele>1325.7954101562</ele>
        <time>2011-06-04T09:33:37Z</time>
      </trkpt>
      <trkpt lat="45.29089" lon="5.76656">
        <ele>1325.7954101562</ele>
        <time>2011-06-04T09:33:43Z</time>
      </trkpt>
      <trkpt lat="45.29098" lon="5.76654">
        <ele>1322.9113769531</ele>
        <time>2011-06-04T09:33:49Z</time>
      </trkpt>
      <trkpt lat="45.29108" lon="5.76652">
        <ele>1320.9887695312</ele>
        <time>2011-06-04T09:33:56Z</time>
      </trkpt>
      <trkpt lat="45.29118" lon="5.7665">
        <ele>1319.546875</ele>
        <time>2011-06-04T09:34:03Z</time>
      </trkpt>
      <trkpt lat="45.29129" lon="5.76647">
        <ele>1316.6628417969</ele>
        <time>2011-06-04T09:34:10Z</time>
      </trkpt>
      <trkpt lat="45.29137" lon="5.76648">
        <ele>1319.546875</ele>
        <time>2011-06-04T09:34:16Z</time>
      </trkpt>
      <trkpt lat="45.29143" lon="5.76647">
        <ele>1319.0661621094</ele>
        <time>2011-06-04T09:34:20Z</time>
      </trkpt>
      <trkpt lat="45.29156" lon="5.76645">
        <ele>1321.4692382812</ele>
        <time>2011-06-04T09:34:28Z</time>
      </trkpt>
      <trkpt lat="45.29166" lon="5.76643">
        <ele>1320.9887695312</ele>
        <time>2011-06-04T09:34:35Z</time>
      </trkpt>
      <trkpt lat="45.29174" lon="5.76642">
        <ele>1319.546875</ele>
        <time>2011-06-04T09:34:41Z</time>
      </trkpt>
      <trkpt lat="45.29182" lon="5.76641">
        <ele>1320.02734375</ele>
        <time>2011-06-04T09:34:46Z</time>
      </trkpt>
      <trkpt lat="45.29193" lon="5.7664">
        <ele>1320.02734375</ele>
        <time>2011-06-04T09:34:52Z</time>
      </trkpt>
      <trkpt lat="45.29206" lon="5.76641">
        <ele>1320.02734375</ele>
        <time>2011-06-04T09:34:57Z</time>
      </trkpt>
      <trkpt lat="45.29221" lon="5.7664">
        <ele>1321.4692382812</ele>
        <time>2011-06-04T09:35:02Z</time>
      </trkpt>
      <trkpt lat="45.29231" lon="5.76641">
        <ele>1321.4692382812</ele>
        <time>2011-06-04T09:35:06Z</time>
      </trkpt>
      <trkpt lat="45.29243" lon="5.76642">
        <ele>1319.0661621094</ele>
        <time>2011-06-04T09:35:11Z</time>
      </trkpt>
      <trkpt lat="45.29256" lon="5.76643">
        <ele>1320.02734375</ele>
        <time>2011-06-04T09:35:16Z</time>
      </trkpt>
      <trkpt lat="45.29269" lon="5.76642">
        <ele>1320.5080566406</ele>
        <time>2011-06-04T09:35:22Z</time>
      </trkpt>
      <trkpt lat="45.29271" lon="5.76641">
        <ele>1320.5080566406</ele>
        <time>2011-06-04T09:35:23Z</time>
      </trkpt>
      <trkpt lat="45.29282" lon="5.76638">
        <ele>1317.1435546875</ele>
        <time>2011-06-04T09:35:28Z</time>
      </trkpt>
      <trkpt lat="45.29297" lon="5.76636">
        <ele>1316.1821289062</ele>
        <time>2011-06-04T09:35:34Z</time>
      </trkpt>
      <trkpt lat="45.29311" lon="5.76632">
        <ele>1313.2983398438</ele>
        <time>2011-06-04T09:35:39Z</time>
      </trkpt>
      <trkpt lat="45.29323" lon="5.76628">
        <ele>1312.3369140625</ele>
        <time>2011-06-04T09:35:44Z</time>
      </trkpt>
      <trkpt lat="45.29332" lon="5.76623">
        <ele>1309.93359375</ele>
        <time>2011-06-04T09:35:49Z</time>
      </trkpt>
      <trkpt lat="45.29346" lon="5.76618">
        <ele>1306.5688476562</ele>
        <time>2011-06-04T09:35:55Z</time>
      </trkpt>
      <trkpt lat="45.29356" lon="5.76612">
        <ele>1304.6462402344</ele>
        <time>2011-06-04T09:36:00Z</time>
      </trkpt>
      <trkpt lat="45.29372" lon="5.76604">
        <ele>1298.3977050781</ele>
        <time>2011-06-04T09:36:07Z</time>
      </trkpt>
      <trkpt lat="45.29384" lon="5.766">
        <ele>1299.3591308594</ele>
        <time>2011-06-04T09:36:12Z</time>
      </trkpt>
      <trkpt lat="45.29395" lon="5.7659">
        <ele>1297.4365234375</ele>
        <time>2011-06-04T09:36:17Z</time>
      </trkpt>
      <trkpt lat="45.29407" lon="5.76581">
        <ele>1295.5139160156</ele>
        <time>2011-06-04T09:36:22Z</time>
      </trkpt>
      <trkpt lat="45.29415" lon="5.7657">
        <ele>1294.0720214844</ele>
        <time>2011-06-04T09:36:27Z</time>
      </trkpt>
      <trkpt lat="45.29426" lon="5.76555">
        <ele>1307.0495605469</ele>
        <time>2011-06-04T09:36:33Z</time>
      </trkpt>
      <trkpt lat="45.2943" lon="5.76539">
        <ele>1322.4306640625</ele>
        <time>2011-06-04T09:36:38Z</time>
      </trkpt>
      <trkpt lat="45.29438" lon="5.76525">
        <ele>1326.7568359375</ele>
        <time>2011-06-04T09:36:43Z</time>
      </trkpt>
      <trkpt lat="45.29446" lon="5.76511">
        <ele>1327.2375488281</ele>
        <time>2011-06-04T09:36:48Z</time>
      </trkpt>
      <trkpt lat="45.29458" lon="5.76497">
        <ele>1326.2761230469</ele>
        <time>2011-06-04T09:36:54Z</time>
      </trkpt>
      <trkpt lat="45.29465" lon="5.76487">
        <ele>1325.7954101562</ele>
        <time>2011-06-04T09:36:58Z</time>
      </trkpt>
      <trkpt lat="45.29469" lon="5.76467">
        <ele>1324.353515625</ele>
        <time>2011-06-04T09:37:04Z</time>
      </trkpt>
      <trkpt lat="45.29465" lon="5.76449">
        <ele>1325.3146972656</ele>
        <time>2011-06-04T09:37:09Z</time>
      </trkpt>
      <trkpt lat="45.29462" lon="5.76438">
        <ele>1325.3146972656</ele>
        <time>2011-06-04T09:37:12Z</time>
      </trkpt>
      <trkpt lat="45.29453" lon="5.76412">
        <ele>1326.7568359375</ele>
        <time>2011-06-04T09:37:19Z</time>
      </trkpt>
      <trkpt lat="45.29444" lon="5.76392">
        <ele>1326.7568359375</ele>
        <time>2011-06-04T09:37:25Z</time>
      </trkpt>
      <trkpt lat="45.29437" lon="5.7637">
        <ele>1326.7568359375</ele>
        <time>2011-06-04T09:37:31Z</time>
      </trkpt>
      <trkpt lat="45.29434" lon="5.76351">
        <ele>1326.2761230469</ele>
        <time>2011-06-04T09:37:36Z</time>
      </trkpt>
      <trkpt lat="45.29432" lon="5.76331">
        <ele>1326.7568359375</ele>
        <time>2011-06-04T09:37:41Z</time>
      </trkpt>
      <trkpt lat="45.29431" lon="5.7631">
        <ele>1328.6794433594</ele>
        <time>2011-06-04T09:37:47Z</time>
      </trkpt>
      <trkpt lat="45.29431" lon="5.76297">
        <ele>1329.1599121094</ele>
        <time>2011-06-04T09:37:52Z</time>
      </trkpt>
      <trkpt lat="45.2943" lon="5.76286">
        <ele>1330.1213378906</ele>
        <time>2011-06-04T09:37:58Z</time>
      </trkpt>
      <trkpt lat="45.29433" lon="5.76272">
        <ele>1332.0439453125</ele>
        <time>2011-06-04T09:38:05Z</time>
      </trkpt>
      <trkpt lat="45.29438" lon="5.76263">
        <ele>1332.0439453125</ele>
        <time>2011-06-04T09:38:11Z</time>
      </trkpt>
      <trkpt lat="45.29441" lon="5.76247">
        <ele>1335.4084472656</ele>
        <time>2011-06-04T09:38:18Z</time>
      </trkpt>
      <trkpt lat="45.29447" lon="5.76235">
        <ele>1335.4084472656</ele>
        <time>2011-06-04T09:38:26Z</time>
      </trkpt>
      <trkpt lat="45.29454" lon="5.76224">
        <ele>1334.447265625</ele>
        <time>2011-06-04T09:38:33Z</time>
      </trkpt>
      <trkpt lat="45.29454" lon="5.76222">
        <ele>1333.9665527344</ele>
        <time>2011-06-04T09:38:34Z</time>
      </trkpt>
      <trkpt lat="45.29457" lon="5.76211">
        <ele>1334.447265625</ele>
        <time>2011-06-04T09:38:39Z</time>
      </trkpt>
      <trkpt lat="45.2946" lon="5.76199">
        <ele>1334.9279785156</ele>
        <time>2011-06-04T09:38:44Z</time>
      </trkpt>
      <trkpt lat="45.29462" lon="5.76186">
        <ele>1333.9665527344</ele>
        <time>2011-06-04T09:38:49Z</time>
      </trkpt>
      <trkpt lat="45.29464" lon="5.76173">
        <ele>1332.0439453125</ele>
        <time>2011-06-04T09:38:54Z</time>
      </trkpt>
      <trkpt lat="45.29466" lon="5.76164">
        <ele>1332.5246582031</ele>
        <time>2011-06-04T09:38:57Z</time>
      </trkpt>
      <trkpt lat="45.29469" lon="5.76142">
        <ele>1332.0439453125</ele>
        <time>2011-06-04T09:39:04Z</time>
      </trkpt>
      <trkpt lat="45.29471" lon="5.76125">
        <ele>1333.9665527344</ele>
        <time>2011-06-04T09:39:09Z</time>
      </trkpt>
      <trkpt lat="45.29472" lon="5.76107">
        <ele>1336.8503417969</ele>
        <time>2011-06-04T09:39:14Z</time>
      </trkpt>
      <trkpt lat="45.29471" lon="5.76088">
        <ele>1339.734375</ele>
        <time>2011-06-04T09:39:19Z</time>
      </trkpt>
      <trkpt lat="45.29473" lon="5.76071">
        <ele>1340.6958007812</ele>
        <time>2011-06-04T09:39:24Z</time>
      </trkpt>
      <trkpt lat="45.2948" lon="5.76054">
        <ele>1341.6572265625</ele>
        <time>2011-06-04T09:39:30Z</time>
      </trkpt>
      <trkpt lat="45.29485" lon="5.76044">
        <ele>1340.2153320312</ele>
        <time>2011-06-04T09:39:34Z</time>
      </trkpt>
      <trkpt lat="45.2949" lon="5.76027">
        <ele>1340.2153320312</ele>
        <time>2011-06-04T09:39:40Z</time>
      </trkpt>
      <trkpt lat="45.29495" lon="5.76011">
        <ele>1339.2536621094</ele>
        <time>2011-06-04T09:39:46Z</time>
      </trkpt>
      <trkpt lat="45.29498" lon="5.75998">
        <ele>1342.6186523438</ele>
        <time>2011-06-04T09:39:51Z</time>
      </trkpt>
      <trkpt lat="45.29498" lon="5.75996">
        <ele>1342.1379394531</ele>
        <time>2011-06-04T09:39:52Z</time>
      </trkpt>
      <trkpt lat="45.29504" lon="5.75979">
        <ele>1341.1765136719</ele>
        <time>2011-06-04T09:40:00Z</time>
      </trkpt>
      <trkpt lat="45.29504" lon="5.75975">
        <ele>1344.060546875</ele>
        <time>2011-06-04T09:40:01Z</time>
      </trkpt>
      <trkpt lat="45.29507" lon="5.75955">
        <ele>1347.4250488281</ele>
        <time>2011-06-04T09:40:08Z</time>
      </trkpt>
      <trkpt lat="45.29507" lon="5.75952">
        <ele>1347.4250488281</ele>
        <time>2011-06-04T09:40:09Z</time>
      </trkpt>
      <trkpt lat="45.29509" lon="5.75939">
        <ele>1346.9443359375</ele>
        <time>2011-06-04T09:40:14Z</time>
      </trkpt>
      <trkpt lat="45.29511" lon="5.75925">
        <ele>1346.9443359375</ele>
        <time>2011-06-04T09:40:19Z</time>
      </trkpt>
      <trkpt lat="45.29516" lon="5.75916">
        <ele>1346.4638671875</ele>
        <time>2011-06-04T09:40:23Z</time>
      </trkpt>
      <trkpt lat="45.2952" lon="5.75908">
        <ele>1343.5798339844</ele>
        <time>2011-06-04T09:40:28Z</time>
      </trkpt>
      <trkpt lat="45.29526" lon="5.75905">
        <ele>1345.0217285156</ele>
        <time>2011-06-04T09:40:31Z</time>
      </trkpt>
      <trkpt lat="45.29538" lon="5.75895">
        <ele>1343.5798339844</ele>
        <time>2011-06-04T09:40:38Z</time>
      </trkpt>
      <trkpt lat="45.29546" lon="5.75889">
        <ele>1343.5798339844</ele>
        <time>2011-06-04T09:40:43Z</time>
      </trkpt>
      <trkpt lat="45.29549" lon="5.75888">
        <ele>1346.4638671875</ele>
        <time>2011-06-04T09:40:45Z</time>
      </trkpt>
      <trkpt lat="45.29561" lon="5.75882">
        <ele>1353.1928710938</ele>
        <time>2011-06-04T09:40:50Z</time>
      </trkpt>
      <trkpt lat="45.29572" lon="5.75866">
        <ele>1352.2314453125</ele>
        <time>2011-06-04T09:40:56Z</time>
      </trkpt>
      <trkpt lat="45.29573" lon="5.7586">
        <ele>1353.1928710938</ele>
        <time>2011-06-04T09:40:58Z</time>
      </trkpt>
      <trkpt lat="45.29576" lon="5.75841">
        <ele>1354.154296875</ele>
        <time>2011-06-04T09:41:04Z</time>
      </trkpt>
      <trkpt lat="45.29579" lon="5.75827">
        <ele>1352.7121582031</ele>
        <time>2011-06-04T09:41:09Z</time>
      </trkpt>
      <trkpt lat="45.2958" lon="5.75819">
        <ele>1352.2314453125</ele>
        <time>2011-06-04T09:41:12Z</time>
      </trkpt>
      <trkpt lat="45.29578" lon="5.7581">
        <ele>1350.7895507812</ele>
        <time>2011-06-04T09:41:16Z</time>
      </trkpt>
      <trkpt lat="45.29576" lon="5.75804">
        <ele>1350.3090820312</ele>
        <time>2011-06-04T09:41:18Z</time>
      </trkpt>
      <trkpt lat="45.29569" lon="5.75787">
        <ele>1350.7895507812</ele>
        <time>2011-06-04T09:41:24Z</time>
      </trkpt>
      <trkpt lat="45.29566" lon="5.75782">
        <ele>1349.34765625</ele>
        <time>2011-06-04T09:41:26Z</time>
      </trkpt>
      <trkpt lat="45.29558" lon="5.75769">
        <ele>1346.9443359375</ele>
        <time>2011-06-04T09:41:31Z</time>
      </trkpt>
      <trkpt lat="45.29551" lon="5.75752">
        <ele>1345.9831542969</ele>
        <time>2011-06-04T09:41:37Z</time>
      </trkpt>
      <trkpt lat="45.29541" lon="5.75735">
        <ele>1347.4250488281</ele>
        <time>2011-06-04T09:41:43Z</time>
      </trkpt>
      <trkpt lat="45.29536" lon="5.7572">
        <ele>1347.9057617188</ele>
        <time>2011-06-04T09:41:48Z</time>
      </trkpt>
      <trkpt lat="45.2953" lon="5.75704">
        <ele>1346.4638671875</ele>
        <time>2011-06-04T09:41:53Z</time>
      </trkpt>
      <trkpt lat="45.29521" lon="5.75685">
        <ele>1348.3862304688</ele>
        <time>2011-06-04T09:41:59Z</time>
      </trkpt>
      <trkpt lat="45.29517" lon="5.75672">
        <ele>1349.34765625</ele>
        <time>2011-06-04T09:42:03Z</time>
      </trkpt>
      <trkpt lat="45.29512" lon="5.75663">
        <ele>1350.3090820312</ele>
        <time>2011-06-04T09:42:06Z</time>
      </trkpt>
      <trkpt lat="45.29508" lon="5.75647">
        <ele>1351.2702636719</ele>
        <time>2011-06-04T09:42:11Z</time>
      </trkpt>
      <trkpt lat="45.29502" lon="5.75633">
        <ele>1353.1928710938</ele>
        <time>2011-06-04T09:42:16Z</time>
      </trkpt>
      <trkpt lat="45.29492" lon="5.75618">
        <ele>1355.1154785156</ele>
        <time>2011-06-04T09:42:23Z</time>
      </trkpt>
      <trkpt lat="45.29486" lon="5.75611">
        <ele>1355.1154785156</ele>
        <time>2011-06-04T09:42:27Z</time>
      </trkpt>
      <trkpt lat="45.29482" lon="5.75601">
        <ele>1357.0383300781</ele>
        <time>2011-06-04T09:42:34Z</time>
      </trkpt>
      <trkpt lat="45.29478" lon="5.75593">
        <ele>1357.9997558594</ele>
        <time>2011-06-04T09:42:39Z</time>
      </trkpt>
      <trkpt lat="45.29475" lon="5.75585">
        <ele>1360.4028320312</ele>
        <time>2011-06-04T09:42:44Z</time>
      </trkpt>
      <trkpt lat="45.2947" lon="5.75581">
        <ele>1363.2868652344</ele>
        <time>2011-06-04T09:42:48Z</time>
      </trkpt>
      <trkpt lat="45.29469" lon="5.75579">
        <ele>1362.8061523438</ele>
        <time>2011-06-04T09:42:50Z</time>
      </trkpt>
      <trkpt lat="45.29464" lon="5.75572">
        <ele>1365.2094726562</ele>
        <time>2011-06-04T09:42:55Z</time>
      </trkpt>
      <trkpt lat="45.29462" lon="5.75565">
        <ele>1366.1706542969</ele>
        <time>2011-06-04T09:42:59Z</time>
      </trkpt>
      <trkpt lat="45.29456" lon="5.75557">
        <ele>1367.1320800781</ele>
        <time>2011-06-04T09:43:05Z</time>
      </trkpt>
      <trkpt lat="45.29451" lon="5.75549">
        <ele>1368.0932617188</ele>
        <time>2011-06-04T09:43:10Z</time>
      </trkpt>
      <trkpt lat="45.2945" lon="5.75548">
        <ele>1368.5739746094</ele>
        <time>2011-06-04T09:43:11Z</time>
      </trkpt>
      <trkpt lat="45.2944" lon="5.75539">
        <ele>1374.8227539062</ele>
        <time>2011-06-04T09:43:21Z</time>
      </trkpt>
      <trkpt lat="45.29435" lon="5.75533">
        <ele>1378.1872558594</ele>
        <time>2011-06-04T09:43:27Z</time>
      </trkpt>
      <trkpt lat="45.29431" lon="5.75531">
        <ele>1380.5905761719</ele>
        <time>2011-06-04T09:43:30Z</time>
      </trkpt>
      <trkpt lat="45.29423" lon="5.75524">
        <ele>1385.8776855469</ele>
        <time>2011-06-04T09:43:36Z</time>
      </trkpt>
      <trkpt lat="45.29422" lon="5.75523">
        <ele>1386.8388671875</ele>
        <time>2011-06-04T09:43:37Z</time>
      </trkpt>
      <trkpt lat="45.29414" lon="5.75519">
        <ele>1388.7619628906</ele>
        <time>2011-06-04T09:43:43Z</time>
      </trkpt>
      <trkpt lat="45.2941" lon="5.75515">
        <ele>1389.7231445312</ele>
        <time>2011-06-04T09:43:49Z</time>
      </trkpt>
      <trkpt lat="45.29406" lon="5.75512">
        <ele>1388.7619628906</ele>
        <time>2011-06-04T09:43:52Z</time>
      </trkpt>
      <trkpt lat="45.29404" lon="5.75511">
        <ele>1389.2424316406</ele>
        <time>2011-06-04T09:43:54Z</time>
      </trkpt>
      <trkpt lat="45.29401" lon="5.75509">
        <ele>1389.7231445312</ele>
        <time>2011-06-04T09:43:57Z</time>
      </trkpt>
      <trkpt lat="45.29399" lon="5.75507">
        <ele>1390.6843261719</ele>
        <time>2011-06-04T09:44:00Z</time>
      </trkpt>
      <trkpt lat="45.29393" lon="5.75501">
        <ele>1390.2038574219</ele>
        <time>2011-06-04T09:44:06Z</time>
      </trkpt>
      <trkpt lat="45.29384" lon="5.75495">
        <ele>1394.0490722656</ele>
        <time>2011-06-04T09:44:13Z</time>
      </trkpt>
      <trkpt lat="45.29383" lon="5.75494">
        <ele>1395.0102539062</ele>
        <time>2011-06-04T09:44:14Z</time>
      </trkpt>
      <trkpt lat="45.29374" lon="5.75489">
        <ele>1396.4523925781</ele>
        <time>2011-06-04T09:44:21Z</time>
      </trkpt>
      <trkpt lat="45.29371" lon="5.75486">
        <ele>1396.9328613281</ele>
        <time>2011-06-04T09:44:25Z</time>
      </trkpt>
      <trkpt lat="45.29369" lon="5.75483">
        <ele>1396.4523925781</ele>
        <time>2011-06-04T09:44:28Z</time>
      </trkpt>
      <trkpt lat="45.29361" lon="5.75478">
        <ele>1398.3747558594</ele>
        <time>2011-06-04T09:44:34Z</time>
      </trkpt>
      <trkpt lat="45.29354" lon="5.7547">
        <ele>1400.2976074219</ele>
        <time>2011-06-04T09:44:41Z</time>
      </trkpt>
      <trkpt lat="45.29349" lon="5.7546">
        <ele>1402.2199707031</ele>
        <time>2011-06-04T09:44:47Z</time>
      </trkpt>
      <trkpt lat="45.2934" lon="5.7545">
        <ele>1404.1430664062</ele>
        <time>2011-06-04T09:44:56Z</time>
      </trkpt>
      <trkpt lat="45.29333" lon="5.75447">
        <ele>1403.662109375</ele>
        <time>2011-06-04T09:45:01Z</time>
      </trkpt>
      <trkpt lat="45.29332" lon="5.75444">
        <ele>1402.2199707031</ele>
        <time>2011-06-04T09:45:03Z</time>
      </trkpt>
      <trkpt lat="45.29328" lon="5.75435">
        <ele>1402.7006835938</ele>
        <time>2011-06-04T09:45:08Z</time>
      </trkpt>
      <trkpt lat="45.29324" lon="5.75432">
        <ele>1402.2199707031</ele>
        <time>2011-06-04T09:45:11Z</time>
      </trkpt>
      <trkpt lat="45.29313" lon="5.75424">
        <ele>1400.7780761719</ele>
        <time>2011-06-04T09:45:20Z</time>
      </trkpt>
      <trkpt lat="45.29311" lon="5.75424">
        <ele>1401.2587890625</ele>
        <time>2011-06-04T09:45:21Z</time>
      </trkpt>
      <trkpt lat="45.29309" lon="5.75421">
        <ele>1401.2587890625</ele>
        <time>2011-06-04T09:45:23Z</time>
      </trkpt>
      <trkpt lat="45.29305" lon="5.75417">
        <ele>1402.7006835938</ele>
        <time>2011-06-04T09:45:27Z</time>
      </trkpt>
      <trkpt lat="45.29299" lon="5.75411">
        <ele>1403.662109375</ele>
        <time>2011-06-04T09:45:32Z</time>
      </trkpt>
      <trkpt lat="45.29292" lon="5.754">
        <ele>1402.2199707031</ele>
        <time>2011-06-04T09:45:39Z</time>
      </trkpt>
      <trkpt lat="45.29281" lon="5.75388">
        <ele>1405.5849609375</ele>
        <time>2011-06-04T09:45:48Z</time>
      </trkpt>
      <trkpt lat="45.29271" lon="5.75379">
        <ele>1407.5075683594</ele>
        <time>2011-06-04T09:45:56Z</time>
      </trkpt>
      <trkpt lat="45.29263" lon="5.75373">
        <ele>1408.46875</ele>
        <time>2011-06-04T09:46:03Z</time>
      </trkpt>
      <trkpt lat="45.29255" lon="5.75366">
        <ele>1407.98828125</ele>
        <time>2011-06-04T09:46:10Z</time>
      </trkpt>
      <trkpt lat="45.2925" lon="5.75362">
        <ele>1407.98828125</ele>
        <time>2011-06-04T09:46:14Z</time>
      </trkpt>
      <trkpt lat="45.29243" lon="5.75358">
        <ele>1408.46875</ele>
        <time>2011-06-04T09:46:19Z</time>
      </trkpt>
      <trkpt lat="45.29235" lon="5.75356">
        <ele>1409.4301757812</ele>
        <time>2011-06-04T09:46:26Z</time>
      </trkpt>
      <trkpt lat="45.29228" lon="5.75354">
        <ele>1411.3527832031</ele>
        <time>2011-06-04T09:46:32Z</time>
      </trkpt>
      <trkpt lat="45.29221" lon="5.75352">
        <ele>1412.3139648438</ele>
        <time>2011-06-04T09:46:37Z</time>
      </trkpt>
      <trkpt lat="45.29218" lon="5.75352">
        <ele>1412.7946777344</ele>
        <time>2011-06-04T09:46:40Z</time>
      </trkpt>
      <trkpt lat="45.29212" lon="5.75354">
        <ele>1413.755859375</ele>
        <time>2011-06-04T09:46:46Z</time>
      </trkpt>
      <trkpt lat="45.29208" lon="5.75354">
        <ele>1418.0817871094</ele>
        <time>2011-06-04T09:46:51Z</time>
      </trkpt>
      <trkpt lat="45.29202" lon="5.75352">
        <ele>1422.888671875</ele>
        <time>2011-06-04T09:46:59Z</time>
      </trkpt>
      <trkpt lat="45.29198" lon="5.75352">
        <ele>1426.7338867188</ele>
        <time>2011-06-04T09:47:03Z</time>
      </trkpt>
      <trkpt lat="45.29196" lon="5.75353">
        <ele>1426.7338867188</ele>
        <time>2011-06-04T09:47:04Z</time>
      </trkpt>
      <trkpt lat="45.29189" lon="5.7535">
        <ele>1429.1369628906</ele>
        <time>2011-06-04T09:47:10Z</time>
      </trkpt>
      <trkpt lat="45.29185" lon="5.75349">
        <ele>1431.0598144531</ele>
        <time>2011-06-04T09:47:14Z</time>
      </trkpt>
      <trkpt lat="45.29179" lon="5.75349">
        <ele>1431.0598144531</ele>
        <time>2011-06-04T09:47:20Z</time>
      </trkpt>
      <trkpt lat="45.29175" lon="5.7535">
        <ele>1432.0209960938</ele>
        <time>2011-06-04T09:47:24Z</time>
      </trkpt>
      <trkpt lat="45.29169" lon="5.75348">
        <ele>1432.0209960938</ele>
        <time>2011-06-04T09:47:30Z</time>
      </trkpt>
      <trkpt lat="45.29166" lon="5.75345">
        <ele>1431.5402832031</ele>
        <time>2011-06-04T09:47:35Z</time>
      </trkpt>
      <trkpt lat="45.29161" lon="5.75343">
        <ele>1430.0983886719</ele>
        <time>2011-06-04T09:47:39Z</time>
      </trkpt>
      <trkpt lat="45.29157" lon="5.75339">
        <ele>1432.9821777344</ele>
        <time>2011-06-04T09:47:43Z</time>
      </trkpt>
      <trkpt lat="45.29154" lon="5.75336">
        <ele>1432.9821777344</ele>
        <time>2011-06-04T09:47:47Z</time>
      </trkpt>
      <trkpt lat="45.29152" lon="5.75333">
        <ele>1433.9436035156</ele>
        <time>2011-06-04T09:47:50Z</time>
      </trkpt>
      <trkpt lat="45.29148" lon="5.75324">
        <ele>1435.8662109375</ele>
        <time>2011-06-04T09:47:57Z</time>
      </trkpt>
      <trkpt lat="45.29147" lon="5.75315">
        <ele>1437.3083496094</ele>
        <time>2011-06-04T09:48:01Z</time>
      </trkpt>
      <trkpt lat="45.29144" lon="5.75299">
        <ele>1437.7890625</ele>
        <time>2011-06-04T09:48:06Z</time>
      </trkpt>
      <trkpt lat="45.2914" lon="5.75279">
        <ele>1438.2697753906</ele>
        <time>2011-06-04T09:48:12Z</time>
      </trkpt>
      <trkpt lat="45.2914" lon="5.75274">
        <ele>1437.7890625</ele>
        <time>2011-06-04T09:48:14Z</time>
      </trkpt>
      <trkpt lat="45.29138" lon="5.75265">
        <ele>1436.3471679688</ele>
        <time>2011-06-04T09:48:20Z</time>
      </trkpt>
      <trkpt lat="45.29138" lon="5.75262">
        <ele>1436.3471679688</ele>
        <time>2011-06-04T09:48:22Z</time>
      </trkpt>
      <trkpt lat="45.29132" lon="5.75259">
        <ele>1436.8276367188</ele>
        <time>2011-06-04T09:48:29Z</time>
      </trkpt>
      <trkpt lat="45.29126" lon="5.75262">
        <ele>1437.7890625</ele>
        <time>2011-06-04T09:48:35Z</time>
      </trkpt>
      <trkpt lat="45.29123" lon="5.75267">
        <ele>1436.8276367188</ele>
        <time>2011-06-04T09:48:39Z</time>
      </trkpt>
      <trkpt lat="45.29117" lon="5.75282">
        <ele>1438.7504882812</ele>
        <time>2011-06-04T09:48:47Z</time>
      </trkpt>
      <trkpt lat="45.29116" lon="5.75295">
        <ele>1438.7504882812</ele>
        <time>2011-06-04T09:48:54Z</time>
      </trkpt>
      <trkpt lat="45.29115" lon="5.753">
        <ele>1439.2309570312</ele>
        <time>2011-06-04T09:48:57Z</time>
      </trkpt>
      <trkpt lat="45.29114" lon="5.75312">
        <ele>1439.2309570312</ele>
        <time>2011-06-04T09:49:03Z</time>
      </trkpt>
      <trkpt lat="45.29114" lon="5.75318">
        <ele>1439.7116699219</ele>
        <time>2011-06-04T09:49:06Z</time>
      </trkpt>
      <trkpt lat="45.29114" lon="5.7533">
        <ele>1441.1535644531</ele>
        <time>2011-06-04T09:49:13Z</time>
      </trkpt>
      <trkpt lat="45.29114" lon="5.75333">
        <ele>1442.595703125</ele>
        <time>2011-06-04T09:49:15Z</time>
      </trkpt>
      <trkpt lat="45.29117" lon="5.75348">
        <ele>1446.4409179688</ele>
        <time>2011-06-04T09:49:23Z</time>
      </trkpt>
      <trkpt lat="45.29121" lon="5.7536">
        <ele>1449.3247070312</ele>
        <time>2011-06-04T09:49:30Z</time>
      </trkpt>
      <trkpt lat="45.29125" lon="5.75371">
        <ele>1452.689453125</ele>
        <time>2011-06-04T09:49:37Z</time>
      </trkpt>
      <trkpt lat="45.29125" lon="5.75374">
        <ele>1453.1701660156</ele>
        <time>2011-06-04T09:49:39Z</time>
      </trkpt>
      <trkpt lat="45.29129" lon="5.75386">
        <ele>1456.5346679688</ele>
        <time>2011-06-04T09:49:48Z</time>
      </trkpt>
      <trkpt lat="45.29128" lon="5.75393">
        <ele>1458.4572753906</ele>
        <time>2011-06-04T09:49:55Z</time>
      </trkpt>
      <trkpt lat="45.29126" lon="5.754">
        <ele>1459.4187011719</ele>
        <time>2011-06-04T09:50:01Z</time>
      </trkpt>
      <trkpt lat="45.29124" lon="5.75407">
        <ele>1459.8991699219</ele>
        <time>2011-06-04T09:50:07Z</time>
      </trkpt>
      <trkpt lat="45.29124" lon="5.75416">
        <ele>1460.8605957031</ele>
        <time>2011-06-04T09:50:14Z</time>
      </trkpt>
      <trkpt lat="45.29127" lon="5.75423">
        <ele>1462.3024902344</ele>
        <time>2011-06-04T09:50:20Z</time>
      </trkpt>
      <trkpt lat="45.29129" lon="5.7543">
        <ele>1463.2639160156</ele>
        <time>2011-06-04T09:50:26Z</time>
      </trkpt>
      <trkpt lat="45.29129" lon="5.75437">
        <ele>1465.6672363281</ele>
        <time>2011-06-04T09:50:32Z</time>
      </trkpt>
      <trkpt lat="45.2913" lon="5.75447">
        <ele>1469.0319824219</ele>
        <time>2011-06-04T09:50:40Z</time>
      </trkpt>
      <trkpt lat="45.29132" lon="5.75452">
        <ele>1471.4350585938</ele>
        <time>2011-06-04T09:50:45Z</time>
      </trkpt>
      <trkpt lat="45.29135" lon="5.75456">
        <ele>1472.396484375</ele>
        <time>2011-06-04T09:50:50Z</time>
      </trkpt>
      <trkpt lat="45.29137" lon="5.7546">
        <ele>1473.3579101562</ele>
        <time>2011-06-04T09:50:54Z</time>
      </trkpt>
      <trkpt lat="45.29139" lon="5.75468">
        <ele>1475.2802734375</ele>
        <time>2011-06-04T09:50:59Z</time>
      </trkpt>
      <trkpt lat="45.29142" lon="5.75475">
        <ele>1478.1643066406</ele>
        <time>2011-06-04T09:51:06Z</time>
      </trkpt>
      <trkpt lat="45.29144" lon="5.75478">
        <ele>1479.6062011719</ele>
        <time>2011-06-04T09:51:10Z</time>
      </trkpt>
      <trkpt lat="45.29145" lon="5.75488">
        <ele>1480.5676269531</ele>
        <time>2011-06-04T09:51:17Z</time>
      </trkpt>
      <trkpt lat="45.29145" lon="5.75496">
        <ele>1481.0483398438</ele>
        <time>2011-06-04T09:51:23Z</time>
      </trkpt>
      <trkpt lat="45.29149" lon="5.755">
        <ele>1482.490234375</ele>
        <time>2011-06-04T09:51:27Z</time>
      </trkpt>
      <trkpt lat="45.29153" lon="5.75505">
        <ele>1483.4514160156</ele>
        <time>2011-06-04T09:51:31Z</time>
      </trkpt>
      <trkpt lat="45.29153" lon="5.7551">
        <ele>1483.4514160156</ele>
        <time>2011-06-04T09:51:34Z</time>
      </trkpt>
      <trkpt lat="45.29156" lon="5.75516">
        <ele>1485.3742675781</ele>
        <time>2011-06-04T09:51:39Z</time>
      </trkpt>
      <trkpt lat="45.29157" lon="5.75518">
        <ele>1486.3356933594</ele>
        <time>2011-06-04T09:51:41Z</time>
      </trkpt>
      <trkpt lat="45.29157" lon="5.75526">
        <ele>1486.8161621094</ele>
        <time>2011-06-04T09:51:47Z</time>
      </trkpt>
      <trkpt lat="45.29158" lon="5.75534">
        <ele>1488.7390136719</ele>
        <time>2011-06-04T09:51:54Z</time>
      </trkpt>
      <trkpt lat="45.2916" lon="5.75543">
        <ele>1489.7001953125</ele>
        <time>2011-06-04T09:52:01Z</time>
      </trkpt>
      <trkpt lat="45.29158" lon="5.75549">
        <ele>1491.1420898438</ele>
        <time>2011-06-04T09:52:07Z</time>
      </trkpt>
      <trkpt lat="45.29155" lon="5.75553">
        <ele>1492.5842285156</ele>
        <time>2011-06-04T09:52:12Z</time>
      </trkpt>
      <trkpt lat="45.29148" lon="5.75555">
        <ele>1494.0261230469</ele>
        <time>2011-06-04T09:52:18Z</time>
      </trkpt>
      <trkpt lat="45.29137" lon="5.75547">
        <ele>1494.5065917969</ele>
        <time>2011-06-04T09:52:25Z</time>
      </trkpt>
      <trkpt lat="45.29128" lon="5.75539">
        <ele>1494.5065917969</ele>
        <time>2011-06-04T09:52:30Z</time>
      </trkpt>
      <trkpt lat="45.29119" lon="5.7553">
        <ele>1494.0261230469</ele>
        <time>2011-06-04T09:52:34Z</time>
      </trkpt>
      <trkpt lat="45.2911" lon="5.75522">
        <ele>1491.6228027344</ele>
        <time>2011-06-04T09:52:39Z</time>
      </trkpt>
      <trkpt lat="45.29099" lon="5.75512">
        <ele>1489.2194824219</ele>
        <time>2011-06-04T09:52:45Z</time>
      </trkpt>
      <trkpt lat="45.29087" lon="5.75508">
        <ele>1490.6613769531</ele>
        <time>2011-06-04T09:52:50Z</time>
      </trkpt>
      <trkpt lat="45.29078" lon="5.75501">
        <ele>1490.1809082031</ele>
        <time>2011-06-04T09:52:55Z</time>
      </trkpt>
      <trkpt lat="45.2907" lon="5.75491">
        <ele>1492.5842285156</ele>
        <time>2011-06-04T09:53:00Z</time>
      </trkpt>
      <trkpt lat="45.29063" lon="5.75486">
        <ele>1494.0261230469</ele>
        <time>2011-06-04T09:53:04Z</time>
      </trkpt>
      <trkpt lat="45.29058" lon="5.75481">
        <ele>1495.9487304688</ele>
        <time>2011-06-04T09:53:07Z</time>
      </trkpt>
      <trkpt lat="45.29051" lon="5.75476">
        <ele>1496.9099121094</ele>
        <time>2011-06-04T09:53:11Z</time>
      </trkpt>
      <trkpt lat="45.2904" lon="5.75465">
        <ele>1500.2749023438</ele>
        <time>2011-06-04T09:53:19Z</time>
      </trkpt>
      <trkpt lat="45.29032" lon="5.75458">
        <ele>1501.716796875</ele>
        <time>2011-06-04T09:53:24Z</time>
      </trkpt>
      <trkpt lat="45.29029" lon="5.75454">
        <ele>1502.197265625</ele>
        <time>2011-06-04T09:53:26Z</time>
      </trkpt>
      <trkpt lat="45.29024" lon="5.75442">
        <ele>1502.6779785156</ele>
        <time>2011-06-04T09:53:33Z</time>
      </trkpt>
      <trkpt lat="45.29018" lon="5.75436">
        <ele>1503.1586914062</ele>
        <time>2011-06-04T09:53:37Z</time>
      </trkpt>
      <trkpt lat="45.29013" lon="5.75426">
        <ele>1504.1201171875</ele>
        <time>2011-06-04T09:53:42Z</time>
      </trkpt>
      <trkpt lat="45.29005" lon="5.75416">
        <ele>1505.5620117188</ele>
        <time>2011-06-04T09:53:49Z</time>
      </trkpt>
      <trkpt lat="45.28999" lon="5.75409">
        <ele>1507.4846191406</ele>
        <time>2011-06-04T09:53:54Z</time>
      </trkpt>
      <trkpt lat="45.28992" lon="5.75396">
        <ele>1507.4846191406</ele>
        <time>2011-06-04T09:54:01Z</time>
      </trkpt>
      <trkpt lat="45.2899" lon="5.75395">
        <ele>1507.4846191406</ele>
        <time>2011-06-04T09:54:02Z</time>
      </trkpt>
      <trkpt lat="45.28983" lon="5.75388">
        <ele>1508.9265136719</ele>
        <time>2011-06-04T09:54:07Z</time>
      </trkpt>
      <trkpt lat="45.28973" lon="5.75378">
        <ele>1508.4458007812</ele>
        <time>2011-06-04T09:54:13Z</time>
      </trkpt>
      <trkpt lat="45.28967" lon="5.75366">
        <ele>1508.9265136719</ele>
        <time>2011-06-04T09:54:19Z</time>
      </trkpt>
      <trkpt lat="45.28961" lon="5.75352">
        <ele>1509.8876953125</ele>
        <time>2011-06-04T09:54:25Z</time>
      </trkpt>
      <trkpt lat="45.28954" lon="5.75344">
        <ele>1512.291015625</ele>
        <time>2011-06-04T09:54:30Z</time>
      </trkpt>
      <trkpt lat="45.28944" lon="5.75336">
        <ele>1515.1750488281</ele>
        <time>2011-06-04T09:54:36Z</time>
      </trkpt>
      <trkpt lat="45.28937" lon="5.75326">
        <ele>1516.6171875</ele>
        <time>2011-06-04T09:54:41Z</time>
      </trkpt>
      <trkpt lat="45.28933" lon="5.7532">
        <ele>1517.5783691406</ele>
        <time>2011-06-04T09:54:44Z</time>
      </trkpt>
      <trkpt lat="45.2893" lon="5.7531">
        <ele>1518.0590820312</ele>
        <time>2011-06-04T09:54:48Z</time>
      </trkpt>
      <trkpt lat="45.28923" lon="5.75295">
        <ele>1517.0979003906</ele>
        <time>2011-06-04T09:54:55Z</time>
      </trkpt>
      <trkpt lat="45.28922" lon="5.75291">
        <ele>1516.6171875</ele>
        <time>2011-06-04T09:54:57Z</time>
      </trkpt>
      <trkpt lat="45.28913" lon="5.75284">
        <ele>1514.6943359375</ele>
        <time>2011-06-04T09:55:03Z</time>
      </trkpt>
      <trkpt lat="45.2891" lon="5.75282">
        <ele>1514.2136230469</ele>
        <time>2011-06-04T09:55:05Z</time>
      </trkpt>
      <trkpt lat="45.28904" lon="5.75274">
        <ele>1514.6943359375</ele>
        <time>2011-06-04T09:55:11Z</time>
      </trkpt>
      <trkpt lat="45.28903" lon="5.75274">
        <ele>1515.1750488281</ele>
        <time>2011-06-04T09:55:12Z</time>
      </trkpt>
      <trkpt lat="45.28899" lon="5.75263">
        <ele>1514.6943359375</ele>
        <time>2011-06-04T09:55:16Z</time>
      </trkpt>
      <trkpt lat="45.28898" lon="5.75246">
        <ele>1515.1750488281</ele>
        <time>2011-06-04T09:55:22Z</time>
      </trkpt>
      <trkpt lat="45.28899" lon="5.75241">
        <ele>1515.1750488281</ele>
        <time>2011-06-04T09:55:24Z</time>
      </trkpt>
      <trkpt lat="45.28901" lon="5.7523">
        <ele>1512.291015625</ele>
        <time>2011-06-04T09:55:29Z</time>
      </trkpt>
      <trkpt lat="45.289" lon="5.75211">
        <ele>1513.7329101562</ele>
        <time>2011-06-04T09:55:35Z</time>
      </trkpt>
      <trkpt lat="45.28903" lon="5.75208">
        <ele>1512.291015625</ele>
        <time>2011-06-04T09:55:37Z</time>
      </trkpt>
      <trkpt lat="45.28915" lon="5.75197">
        <ele>1507.4846191406</ele>
        <time>2011-06-04T09:55:43Z</time>
      </trkpt>
      <trkpt lat="45.28922" lon="5.75183">
        <ele>1504.1201171875</ele>
        <time>2011-06-04T09:55:49Z</time>
      </trkpt>
      <trkpt lat="45.28926" lon="5.75166">
        <ele>1504.6005859375</ele>
        <time>2011-06-04T09:55:55Z</time>
      </trkpt>
      <trkpt lat="45.28932" lon="5.75157">
        <ele>1504.6005859375</ele>
        <time>2011-06-04T09:55:59Z</time>
      </trkpt>
      <trkpt lat="45.28938" lon="5.75145">
        <ele>1505.0812988281</ele>
        <time>2011-06-04T09:56:04Z</time>
      </trkpt>
      <trkpt lat="45.28938" lon="5.75133">
        <ele>1507.00390625</ele>
        <time>2011-06-04T09:56:08Z</time>
      </trkpt>
      <trkpt lat="45.28943" lon="5.75113">
        <ele>1511.3298339844</ele>
        <time>2011-06-04T09:56:15Z</time>
      </trkpt>
      <trkpt lat="45.28949" lon="5.75105">
        <ele>1510.8491210938</ele>
        <time>2011-06-04T09:56:19Z</time>
      </trkpt>
      <trkpt lat="45.28952" lon="5.75096">
        <ele>1510.3684082031</ele>
        <time>2011-06-04T09:56:23Z</time>
      </trkpt>
      <trkpt lat="45.28953" lon="5.75094">
        <ele>1510.8491210938</ele>
        <time>2011-06-04T09:56:24Z</time>
      </trkpt>
      <trkpt lat="45.28955" lon="5.75076">
        <ele>1513.7329101562</ele>
        <time>2011-06-04T09:56:30Z</time>
      </trkpt>
      <trkpt lat="45.28962" lon="5.75068">
        <ele>1511.810546875</ele>
        <time>2011-06-04T09:56:35Z</time>
      </trkpt>
      <trkpt lat="45.28966" lon="5.75059">
        <ele>1511.3298339844</ele>
        <time>2011-06-04T09:56:39Z</time>
      </trkpt>
      <trkpt lat="45.28971" lon="5.75044">
        <ele>1514.2136230469</ele>
        <time>2011-06-04T09:56:47Z</time>
      </trkpt>
      <trkpt lat="45.28976" lon="5.7503">
        <ele>1517.0979003906</ele>
        <time>2011-06-04T09:56:55Z</time>
      </trkpt>
      <trkpt lat="45.28983" lon="5.75019">
        <ele>1517.5783691406</ele>
        <time>2011-06-04T09:57:03Z</time>
      </trkpt>
      <trkpt lat="45.28988" lon="5.75015">
        <ele>1518.5397949219</ele>
        <time>2011-06-04T09:57:09Z</time>
      </trkpt>
      <trkpt lat="45.2899" lon="5.75012">
        <ele>1518.5397949219</ele>
        <time>2011-06-04T09:57:11Z</time>
      </trkpt>
      <trkpt lat="45.28995" lon="5.75003">
        <ele>1519.5012207031</ele>
        <time>2011-06-04T09:57:18Z</time>
      </trkpt>
      <trkpt lat="45.28996" lon="5.75001">
        <ele>1520.4624023438</ele>
        <time>2011-06-04T09:57:19Z</time>
      </trkpt>
      <trkpt lat="45.29002" lon="5.7499">
        <ele>1521.4235839844</ele>
        <time>2011-06-04T09:57:26Z</time>
      </trkpt>
      <trkpt lat="45.29006" lon="5.74982">
        <ele>1522.3850097656</ele>
        <time>2011-06-04T09:57:31Z</time>
      </trkpt>
      <trkpt lat="45.29006" lon="5.74979">
        <ele>1523.3464355469</ele>
        <time>2011-06-04T09:57:32Z</time>
      </trkpt>
      <trkpt lat="45.29015" lon="5.74965">
        <ele>1525.2687988281</ele>
        <time>2011-06-04T09:57:41Z</time>
      </trkpt>
      <trkpt lat="45.29021" lon="5.74957">
        <ele>1525.7495117188</ele>
        <time>2011-06-04T09:57:47Z</time>
      </trkpt>
      <trkpt lat="45.29029" lon="5.74947">
        <ele>1526.2302246094</ele>
        <time>2011-06-04T09:57:54Z</time>
      </trkpt>
      <trkpt lat="45.29032" lon="5.74939">
        <ele>1526.7109375</ele>
        <time>2011-06-04T09:57:59Z</time>
      </trkpt>
      <trkpt lat="45.29039" lon="5.74931">
        <ele>1528.6335449219</ele>
        <time>2011-06-04T09:58:06Z</time>
      </trkpt>
      <trkpt lat="45.29042" lon="5.74925">
        <ele>1530.5561523438</ele>
        <time>2011-06-04T09:58:11Z</time>
      </trkpt>
      <trkpt lat="45.2905" lon="5.74917">
        <ele>1535.3627929688</ele>
        <time>2011-06-04T09:58:20Z</time>
      </trkpt>
      <trkpt lat="45.29051" lon="5.74916">
        <ele>1536.32421875</ele>
        <time>2011-06-04T09:58:21Z</time>
      </trkpt>
      <trkpt lat="45.29058" lon="5.74911">
        <ele>1539.2080078125</ele>
        <time>2011-06-04T09:58:29Z</time>
      </trkpt>
      <trkpt lat="45.29059" lon="5.74908">
        <ele>1541.1306152344</ele>
        <time>2011-06-04T09:58:31Z</time>
      </trkpt>
      <trkpt lat="45.29063" lon="5.74908">
        <ele>1541.611328125</ele>
        <time>2011-06-04T09:58:35Z</time>
      </trkpt>
      <trkpt lat="45.29072" lon="5.74905">
        <ele>1541.1306152344</ele>
        <time>2011-06-04T09:58:42Z</time>
      </trkpt>
      <trkpt lat="45.29081" lon="5.74902">
        <ele>1541.611328125</ele>
        <time>2011-06-04T09:58:50Z</time>
      </trkpt>
      <trkpt lat="45.29089" lon="5.74899">
        <ele>1542.5727539062</ele>
        <time>2011-06-04T09:58:56Z</time>
      </trkpt>
      <trkpt lat="45.2909" lon="5.74899">
        <ele>1543.5339355469</ele>
        <time>2011-06-04T09:58:57Z</time>
      </trkpt>
      <trkpt lat="45.29097" lon="5.74884">
        <ele>1545.9372558594</ele>
        <time>2011-06-04T09:59:06Z</time>
      </trkpt>
      <trkpt lat="45.29103" lon="5.74868">
        <ele>1546.41796875</ele>
        <time>2011-06-04T09:59:14Z</time>
      </trkpt>
      <trkpt lat="45.29109" lon="5.74853">
        <ele>1547.3791503906</ele>
        <time>2011-06-04T09:59:22Z</time>
      </trkpt>
      <trkpt lat="45.29112" lon="5.74845">
        <ele>1549.7827148438</ele>
        <time>2011-06-04T09:59:26Z</time>
      </trkpt>
      <trkpt lat="45.29117" lon="5.74837">
        <ele>1551.7053222656</ele>
        <time>2011-06-04T09:59:31Z</time>
      </trkpt>
      <trkpt lat="45.29115" lon="5.74817">
        <ele>1556.0310058594</ele>
        <time>2011-06-04T09:59:39Z</time>
      </trkpt>
      <trkpt lat="45.29114" lon="5.74807">
        <ele>1557.4731445312</ele>
        <time>2011-06-04T09:59:42Z</time>
      </trkpt>
      <trkpt lat="45.2911" lon="5.74787">
        <ele>1559.3957519531</ele>
        <time>2011-06-04T09:59:48Z</time>
      </trkpt>
      <trkpt lat="45.29108" lon="5.74784">
        <ele>1560.8376464844</ele>
        <time>2011-06-04T09:59:49Z</time>
      </trkpt>
      <trkpt lat="45.29101" lon="5.74771">
        <ele>1558.4343261719</ele>
        <time>2011-06-04T09:59:55Z</time>
      </trkpt>
      <trkpt lat="45.29098" lon="5.74765">
        <ele>1557.9538574219</ele>
        <time>2011-06-04T09:59:57Z</time>
      </trkpt>
      <trkpt lat="45.2909" lon="5.74743">
        <ele>1557.9538574219</ele>
        <time>2011-06-04T10:00:02Z</time>
      </trkpt>
      <trkpt lat="45.29089" lon="5.74734">
        <ele>1555.5505371094</ele>
        <time>2011-06-04T10:00:06Z</time>
      </trkpt>
      <trkpt lat="45.29088" lon="5.7473">
        <ele>1554.5891113281</ele>
        <time>2011-06-04T10:00:08Z</time>
      </trkpt>
      <trkpt lat="45.29084" lon="5.74717">
        <ele>1552.1857910156</ele>
        <time>2011-06-04T10:00:14Z</time>
      </trkpt>
      <trkpt lat="45.29081" lon="5.74708">
        <ele>1548.3405761719</ele>
        <time>2011-06-04T10:00:17Z</time>
      </trkpt>
      <trkpt lat="45.29075" lon="5.74695">
        <ele>1543.0532226562</ele>
        <time>2011-06-04T10:00:22Z</time>
      </trkpt>
      <trkpt lat="45.29068" lon="5.74683">
        <ele>1544.4951171875</ele>
        <time>2011-06-04T10:00:28Z</time>
      </trkpt>
      <trkpt lat="45.29065" lon="5.74677">
        <ele>1542.0920410156</ele>
        <time>2011-06-04T10:00:32Z</time>
      </trkpt>
      <trkpt lat="45.29064" lon="5.7466">
        <ele>1542.5727539062</ele>
        <time>2011-06-04T10:00:39Z</time>
      </trkpt>
      <trkpt lat="45.29065" lon="5.74655">
        <ele>1543.5339355469</ele>
        <time>2011-06-04T10:00:41Z</time>
      </trkpt>
      <trkpt lat="45.29058" lon="5.74637">
        <ele>1548.8212890625</ele>
        <time>2011-06-04T10:00:47Z</time>
      </trkpt>
      <trkpt lat="45.29054" lon="5.7462">
        <ele>1548.8212890625</ele>
        <time>2011-06-04T10:00:53Z</time>
      </trkpt>
      <trkpt lat="45.29054" lon="5.74616">
        <ele>1548.3405761719</ele>
        <time>2011-06-04T10:00:55Z</time>
      </trkpt>
      <trkpt lat="45.29052" lon="5.74606">
        <ele>1552.6665039062</ele>
        <time>2011-06-04T10:01:01Z</time>
      </trkpt>
      <trkpt lat="45.2905" lon="5.74592">
        <ele>1552.6665039062</ele>
        <time>2011-06-04T10:01:07Z</time>
      </trkpt>
      <trkpt lat="45.29049" lon="5.74588">
        <ele>1554.1086425781</ele>
        <time>2011-06-04T10:01:09Z</time>
      </trkpt>
      <trkpt lat="45.29049" lon="5.74575">
        <ele>1554.5891113281</ele>
        <time>2011-06-04T10:01:16Z</time>
      </trkpt>
      <trkpt lat="45.29048" lon="5.74571">
        <ele>1554.5891113281</ele>
        <time>2011-06-04T10:01:18Z</time>
      </trkpt>
      <trkpt lat="45.29047" lon="5.74562">
        <ele>1554.5891113281</ele>
        <time>2011-06-04T10:01:22Z</time>
      </trkpt>
      <trkpt lat="45.29046" lon="5.74558">
        <ele>1554.1086425781</ele>
        <time>2011-06-04T10:01:24Z</time>
      </trkpt>
      <trkpt lat="45.29047" lon="5.74549">
        <ele>1554.1086425781</ele>
        <time>2011-06-04T10:01:29Z</time>
      </trkpt>
      <trkpt lat="45.29047" lon="5.74542">
        <ele>1555.0698242188</ele>
        <time>2011-06-04T10:01:34Z</time>
      </trkpt>
      <trkpt lat="45.29041" lon="5.74531">
        <ele>1556.0310058594</ele>
        <time>2011-06-04T10:01:40Z</time>
      </trkpt>
      <trkpt lat="45.2904" lon="5.74527">
        <ele>1556.51171875</ele>
        <time>2011-06-04T10:01:42Z</time>
      </trkpt>
      <trkpt lat="45.29039" lon="5.74516">
        <ele>1556.9924316406</ele>
        <time>2011-06-04T10:01:47Z</time>
      </trkpt>
      <trkpt lat="45.29037" lon="5.74506">
        <ele>1557.9538574219</ele>
        <time>2011-06-04T10:01:51Z</time>
      </trkpt>
      <trkpt lat="45.29036" lon="5.74504">
        <ele>1557.9538574219</ele>
        <time>2011-06-04T10:01:52Z</time>
      </trkpt>
      <trkpt lat="45.29032" lon="5.74485">
        <ele>1557.9538574219</ele>
        <time>2011-06-04T10:01:58Z</time>
      </trkpt>
      <trkpt lat="45.29031" lon="5.74482">
        <ele>1557.4731445312</ele>
        <time>2011-06-04T10:01:59Z</time>
      </trkpt>
      <trkpt lat="45.29026" lon="5.74464">
        <ele>1556.0310058594</ele>
        <time>2011-06-04T10:02:04Z</time>
      </trkpt>
      <trkpt lat="45.29021" lon="5.74452">
        <ele>1554.5891113281</ele>
        <time>2011-06-04T10:02:09Z</time>
      </trkpt>
      <trkpt lat="45.29018" lon="5.74443">
        <ele>1555.0698242188</ele>
        <time>2011-06-04T10:02:15Z</time>
      </trkpt>
      <trkpt lat="45.2901" lon="5.74432">
        <ele>1556.9924316406</ele>
        <time>2011-06-04T10:02:21Z</time>
      </trkpt>
      <trkpt lat="45.29007" lon="5.74414">
        <ele>1559.8762207031</ele>
        <time>2011-06-04T10:02:28Z</time>
      </trkpt>
      <trkpt lat="45.29007" lon="5.74409">
        <ele>1560.8376464844</ele>
        <time>2011-06-04T10:02:30Z</time>
      </trkpt>
      <trkpt lat="45.29001" lon="5.74394">
        <ele>1559.8762207031</ele>
        <time>2011-06-04T10:02:36Z</time>
      </trkpt>
      <trkpt lat="45.28999" lon="5.74376">
        <ele>1559.8762207031</ele>
        <time>2011-06-04T10:02:42Z</time>
      </trkpt>
      <trkpt lat="45.28997" lon="5.74364">
        <ele>1560.8376464844</ele>
        <time>2011-06-04T10:02:47Z</time>
      </trkpt>
      <trkpt lat="45.28992" lon="5.74342">
        <ele>1564.6831054688</ele>
        <time>2011-06-04T10:02:56Z</time>
      </trkpt>
      <trkpt lat="45.28992" lon="5.74341">
        <ele>1564.6831054688</ele>
        <time>2011-06-04T10:02:57Z</time>
      </trkpt>
      <trkpt lat="45.28986" lon="5.74333">
        <ele>1565.1638183594</ele>
        <time>2011-06-04T10:03:02Z</time>
      </trkpt>
      <trkpt lat="45.28983" lon="5.74327">
        <ele>1565.1638183594</ele>
        <time>2011-06-04T10:03:05Z</time>
      </trkpt>
      <trkpt lat="45.28982" lon="5.74322">
        <ele>1565.1638183594</ele>
        <time>2011-06-04T10:03:07Z</time>
      </trkpt>
      <trkpt lat="45.28974" lon="5.74309">
        <ele>1563.7214355469</ele>
        <time>2011-06-04T10:03:13Z</time>
      </trkpt>
      <trkpt lat="45.28968" lon="5.74298">
        <ele>1562.2795410156</ele>
        <time>2011-06-04T10:03:18Z</time>
      </trkpt>
      <trkpt lat="45.28963" lon="5.74294">
        <ele>1562.7602539062</ele>
        <time>2011-06-04T10:03:23Z</time>
      </trkpt>
      <trkpt lat="45.2896" lon="5.7429">
        <ele>1561.7990722656</ele>
        <time>2011-06-04T10:03:29Z</time>
      </trkpt>
      <trkpt lat="45.28958" lon="5.74288">
        <ele>1561.7990722656</ele>
        <time>2011-06-04T10:03:34Z</time>
      </trkpt>
      <trkpt lat="45.28955" lon="5.74287">
        <ele>1563.2409667969</ele>
        <time>2011-06-04T10:03:37Z</time>
      </trkpt>
      <trkpt lat="45.28949" lon="5.74285">
        <ele>1564.6831054688</ele>
        <time>2011-06-04T10:03:43Z</time>
      </trkpt>
      <trkpt lat="45.28946" lon="5.74279">
        <ele>1561.7990722656</ele>
        <time>2011-06-04T10:03:46Z</time>
      </trkpt>
      <trkpt lat="45.28944" lon="5.74271">
        <ele>1562.2795410156</ele>
        <time>2011-06-04T10:03:52Z</time>
      </trkpt>
      <trkpt lat="45.28941" lon="5.74267">
        <ele>1570.931640625</ele>
        <time>2011-06-04T10:03:58Z</time>
      </trkpt>
      <trkpt lat="45.28937" lon="5.74261">
        <ele>1575.2573242188</ele>
        <time>2011-06-04T10:04:05Z</time>
      </trkpt>
      <trkpt lat="45.28936" lon="5.7426">
        <ele>1575.7380371094</ele>
        <time>2011-06-04T10:04:06Z</time>
      </trkpt>
      <trkpt lat="45.2893" lon="5.74259">
        <ele>1576.6994628906</ele>
        <time>2011-06-04T10:04:13Z</time>
      </trkpt>
      <trkpt lat="45.28926" lon="5.74262">
        <ele>1576.6994628906</ele>
        <time>2011-06-04T10:04:18Z</time>
      </trkpt>
      <trkpt lat="45.28925" lon="5.74262">
        <ele>1577.1801757812</ele>
        <time>2011-06-04T10:04:19Z</time>
      </trkpt>
      <trkpt lat="45.28916" lon="5.74255">
        <ele>1576.6994628906</ele>
        <time>2011-06-04T10:04:28Z</time>
      </trkpt>
      <trkpt lat="45.28916" lon="5.74254">
        <ele>1576.6994628906</ele>
        <time>2011-06-04T10:04:29Z</time>
      </trkpt>
      <trkpt lat="45.28915" lon="5.74245">
        <ele>1577.1801757812</ele>
        <time>2011-06-04T10:04:35Z</time>
      </trkpt>
      <trkpt lat="45.28912" lon="5.7424">
        <ele>1576.6994628906</ele>
        <time>2011-06-04T10:04:41Z</time>
      </trkpt>
      <trkpt lat="45.2891" lon="5.74238">
        <ele>1578.6220703125</ele>
        <time>2011-06-04T10:04:45Z</time>
      </trkpt>
      <trkpt lat="45.28907" lon="5.74234">
        <ele>1582.4675292969</ele>
        <time>2011-06-04T10:04:51Z</time>
      </trkpt>
      <trkpt lat="45.28911" lon="5.74233">
        <ele>1584.8708496094</ele>
        <time>2011-06-04T10:04:56Z</time>
      </trkpt>
      <trkpt lat="45.28918" lon="5.74231">
        <ele>1586.3127441406</ele>
        <time>2011-06-04T10:05:03Z</time>
      </trkpt>
      <trkpt lat="45.2892" lon="5.74231">
        <ele>1587.2739257812</ele>
        <time>2011-06-04T10:05:05Z</time>
      </trkpt>
      <trkpt lat="45.28923" lon="5.74227">
        <ele>1587.7546386719</ele>
        <time>2011-06-04T10:05:11Z</time>
      </trkpt>
      <trkpt lat="45.28928" lon="5.74228">
        <ele>1588.2353515625</ele>
        <time>2011-06-04T10:05:16Z</time>
      </trkpt>
      <trkpt lat="45.28934" lon="5.74225">
        <ele>1586.7932128906</ele>
        <time>2011-06-04T10:05:21Z</time>
      </trkpt>
      <trkpt lat="45.28938" lon="5.7422">
        <ele>1586.7932128906</ele>
        <time>2011-06-04T10:05:27Z</time>
      </trkpt>
      <trkpt lat="45.28944" lon="5.74216">
        <ele>1589.1965332031</ele>
        <time>2011-06-04T10:05:33Z</time>
      </trkpt>
      <trkpt lat="45.28952" lon="5.74215">
        <ele>1591.5998535156</ele>
        <time>2011-06-04T10:05:40Z</time>
      </trkpt>
      <trkpt lat="45.28957" lon="5.7421">
        <ele>1599.2905273438</ele>
        <time>2011-06-04T10:05:46Z</time>
      </trkpt>
      <trkpt lat="45.28958" lon="5.74208">
        <ele>1606.5002441406</ele>
        <time>2011-06-04T10:05:51Z</time>
      </trkpt>
      <trkpt lat="45.28959" lon="5.74208">
        <ele>1607.9423828125</ele>
        <time>2011-06-04T10:05:53Z</time>
      </trkpt>
      <trkpt lat="45.28971" lon="5.74218">
        <ele>1608.9035644531</ele>
        <time>2011-06-04T10:06:01Z</time>
      </trkpt>
      <trkpt lat="45.28971" lon="5.74219">
        <ele>1609.3842773438</ele>
        <time>2011-06-04T10:06:02Z</time>
      </trkpt>
      <trkpt lat="45.28973" lon="5.74221">
        <ele>1610.3454589844</ele>
        <time>2011-06-04T10:06:04Z</time>
      </trkpt>
      <trkpt lat="45.28975" lon="5.74225">
        <ele>1617.0749511719</ele>
        <time>2011-06-04T10:06:08Z</time>
      </trkpt>
      <trkpt lat="45.2898" lon="5.74226">
        <ele>1617.0749511719</ele>
        <time>2011-06-04T10:06:14Z</time>
      </trkpt>
      <trkpt lat="45.28981" lon="5.74222">
        <ele>1617.5554199219</ele>
        <time>2011-06-04T10:06:18Z</time>
      </trkpt>
      <trkpt lat="45.28987" lon="5.74217">
        <ele>1610.826171875</ele>
        <time>2011-06-04T10:06:25Z</time>
      </trkpt>
      <trkpt lat="45.28995" lon="5.74218">
        <ele>1612.2683105469</ele>
        <time>2011-06-04T10:06:30Z</time>
      </trkpt>
      <trkpt lat="45.29" lon="5.74217">
        <ele>1611.7875976562</ele>
        <time>2011-06-04T10:06:35Z</time>
      </trkpt>
      <trkpt lat="45.29002" lon="5.74218">
        <ele>1611.7875976562</ele>
        <time>2011-06-04T10:06:36Z</time>
      </trkpt>
      <trkpt lat="45.29012" lon="5.74223">
        <ele>1610.826171875</ele>
        <time>2011-06-04T10:06:43Z</time>
      </trkpt>
      <trkpt lat="45.29014" lon="5.74222">
        <ele>1611.7875976562</ele>
        <time>2011-06-04T10:06:48Z</time>
      </trkpt>
      <trkpt lat="45.2902" lon="5.74227">
        <ele>1612.2683105469</ele>
        <time>2011-06-04T10:06:53Z</time>
      </trkpt>
      <trkpt lat="45.29021" lon="5.74229">
        <ele>1612.2683105469</ele>
        <time>2011-06-04T10:06:55Z</time>
      </trkpt>
      <trkpt lat="45.29024" lon="5.74231">
        <ele>1613.2297363281</ele>
        <time>2011-06-04T10:06:58Z</time>
      </trkpt>
      <trkpt lat="45.29031" lon="5.74238">
        <ele>1612.7490234375</ele>
        <time>2011-06-04T10:07:04Z</time>
      </trkpt>
      <trkpt lat="45.29034" lon="5.7424">
        <ele>1612.7490234375</ele>
        <time>2011-06-04T10:07:07Z</time>
      </trkpt>
      <trkpt lat="45.29038" lon="5.74236">
        <ele>1613.7102050781</ele>
        <time>2011-06-04T10:07:13Z</time>
      </trkpt>
      <trkpt lat="45.2904" lon="5.74229">
        <ele>1615.6330566406</ele>
        <time>2011-06-04T10:07:19Z</time>
      </trkpt>
      <trkpt lat="45.29042" lon="5.74228">
        <ele>1616.5942382812</ele>
        <time>2011-06-04T10:07:21Z</time>
      </trkpt>
      <trkpt lat="45.2905" lon="5.74234">
        <ele>1617.5554199219</ele>
        <time>2011-06-04T10:07:27Z</time>
      </trkpt>
      <trkpt lat="45.29055" lon="5.74241">
        <ele>1619.4782714844</ele>
        <time>2011-06-04T10:07:32Z</time>
      </trkpt>
      <trkpt lat="45.29062" lon="5.74257">
        <ele>1619.9587402344</ele>
        <time>2011-06-04T10:07:39Z</time>
      </trkpt>
      <trkpt lat="45.29067" lon="5.74267">
        <ele>1620.439453125</ele>
        <time>2011-06-04T10:07:43Z</time>
      </trkpt>
      <trkpt lat="45.29075" lon="5.74277">
        <ele>1621.8813476562</ele>
        <time>2011-06-04T10:07:48Z</time>
      </trkpt>
      <trkpt lat="45.29078" lon="5.74283">
        <ele>1621.8813476562</ele>
        <time>2011-06-04T10:07:51Z</time>
      </trkpt>
      <trkpt lat="45.29081" lon="5.74291">
        <ele>1621.8813476562</ele>
        <time>2011-06-04T10:07:55Z</time>
      </trkpt>
      <trkpt lat="45.29086" lon="5.74302">
        <ele>1620.9201660156</ele>
        <time>2011-06-04T10:07:59Z</time>
      </trkpt>
      <trkpt lat="45.29093" lon="5.7431">
        <ele>1621.8813476562</ele>
        <time>2011-06-04T10:08:03Z</time>
      </trkpt>
      <trkpt lat="45.29103" lon="5.74324">
        <ele>1621.8813476562</ele>
        <time>2011-06-04T10:08:10Z</time>
      </trkpt>
      <trkpt lat="45.2911" lon="5.74334">
        <ele>1624.2846679688</ele>
        <time>2011-06-04T10:08:15Z</time>
      </trkpt>
      <trkpt lat="45.29115" lon="5.74347">
        <ele>1626.2072753906</ele>
        <time>2011-06-04T10:08:20Z</time>
      </trkpt>
      <trkpt lat="45.29121" lon="5.74359">
        <ele>1628.1301269531</ele>
        <time>2011-06-04T10:08:25Z</time>
      </trkpt>
      <trkpt lat="45.29125" lon="5.7437">
        <ele>1629.0913085938</ele>
        <time>2011-06-04T10:08:30Z</time>
      </trkpt>
      <trkpt lat="45.2913" lon="5.74384">
        <ele>1631.4946289062</ele>
        <time>2011-06-04T10:08:35Z</time>
      </trkpt>
      <trkpt lat="45.29132" lon="5.74392">
        <ele>1632.4560546875</ele>
        <time>2011-06-04T10:08:38Z</time>
      </trkpt>
      <trkpt lat="45.29139" lon="5.74399">
        <ele>1630.052734375</ele>
        <time>2011-06-04T10:08:43Z</time>
      </trkpt>
      <trkpt lat="45.2914" lon="5.74401">
        <ele>1630.052734375</ele>
        <time>2011-06-04T10:08:44Z</time>
      </trkpt>
      <trkpt lat="45.29147" lon="5.74411">
        <ele>1631.0141601562</ele>
        <time>2011-06-04T10:08:50Z</time>
      </trkpt>
      <trkpt lat="45.29154" lon="5.74419">
        <ele>1632.4560546875</ele>
        <time>2011-06-04T10:08:56Z</time>
      </trkpt>
      <trkpt lat="45.2916" lon="5.74424">
        <ele>1633.8979492188</ele>
        <time>2011-06-04T10:09:00Z</time>
      </trkpt>
      <trkpt lat="45.2917" lon="5.74433">
        <ele>1637.2624511719</ele>
        <time>2011-06-04T10:09:07Z</time>
      </trkpt>
      <trkpt lat="45.29176" lon="5.7444">
        <ele>1637.7431640625</ele>
        <time>2011-06-04T10:09:11Z</time>
      </trkpt>
      <trkpt lat="45.29186" lon="5.74452">
        <ele>1635.8205566406</ele>
        <time>2011-06-04T10:09:19Z</time>
      </trkpt>
      <trkpt lat="45.29187" lon="5.74453">
        <ele>1635.33984375</ele>
        <time>2011-06-04T10:09:20Z</time>
      </trkpt>
      <trkpt lat="45.29198" lon="5.74454">
        <ele>1632.9365234375</ele>
        <time>2011-06-04T10:09:25Z</time>
      </trkpt>
      <trkpt lat="45.2921" lon="5.74455">
        <ele>1627.6491699219</ele>
        <time>2011-06-04T10:09:31Z</time>
      </trkpt>
      <trkpt lat="45.29222" lon="5.74456">
        <ele>1625.7265625</ele>
        <time>2011-06-04T10:09:37Z</time>
      </trkpt>
      <trkpt lat="45.29235" lon="5.74458">
        <ele>1625.7265625</ele>
        <time>2011-06-04T10:09:41Z</time>
      </trkpt>
      <trkpt lat="45.29243" lon="5.74458">
        <ele>1624.2846679688</ele>
        <time>2011-06-04T10:09:45Z</time>
      </trkpt>
      <trkpt lat="45.29257" lon="5.74452">
        <ele>1620.439453125</ele>
        <time>2011-06-04T10:09:51Z</time>
      </trkpt>
      <trkpt lat="45.29267" lon="5.74445">
        <ele>1615.15234375</ele>
        <time>2011-06-04T10:09:56Z</time>
      </trkpt>
      <trkpt lat="45.29276" lon="5.74436">
        <ele>1612.2683105469</ele>
        <time>2011-06-04T10:10:01Z</time>
      </trkpt>
      <trkpt lat="45.29277" lon="5.74434">
        <ele>1612.2683105469</ele>
        <time>2011-06-04T10:10:02Z</time>
      </trkpt>
      <trkpt lat="45.29292" lon="5.74417">
        <ele>1609.3842773438</ele>
        <time>2011-06-04T10:10:09Z</time>
      </trkpt>
      <trkpt lat="45.293" lon="5.74401">
        <ele>1608.9035644531</ele>
        <time>2011-06-04T10:10:14Z</time>
      </trkpt>
      <trkpt lat="45.29313" lon="5.74391">
        <ele>1607.9423828125</ele>
        <time>2011-06-04T10:10:19Z</time>
      </trkpt>
      <trkpt lat="45.29325" lon="5.74386">
        <ele>1607.9423828125</ele>
        <time>2011-06-04T10:10:24Z</time>
      </trkpt>
      <trkpt lat="45.29338" lon="5.74375">
        <ele>1607.9423828125</ele>
        <time>2011-06-04T10:10:31Z</time>
      </trkpt>
      <trkpt lat="45.29352" lon="5.74371">
        <ele>1608.4228515625</ele>
        <time>2011-06-04T10:10:37Z</time>
      </trkpt>
      <trkpt lat="45.29364" lon="5.74366">
        <ele>1608.4228515625</ele>
        <time>2011-06-04T10:10:43Z</time>
      </trkpt>
      <trkpt lat="45.29373" lon="5.74361">
        <ele>1610.3454589844</ele>
        <time>2011-06-04T10:10:48Z</time>
      </trkpt>
      <trkpt lat="45.29379" lon="5.74358">
        <ele>1611.3068847656</ele>
        <time>2011-06-04T10:10:51Z</time>
      </trkpt>
      <trkpt lat="45.29386" lon="5.74355">
        <ele>1612.2683105469</ele>
        <time>2011-06-04T10:10:55Z</time>
      </trkpt>
      <trkpt lat="45.29394" lon="5.74352">
        <ele>1612.7490234375</ele>
        <time>2011-06-04T10:10:59Z</time>
      </trkpt>
      <trkpt lat="45.29401" lon="5.74348">
        <ele>1614.1909179688</ele>
        <time>2011-06-04T10:11:05Z</time>
      </trkpt>
      <trkpt lat="45.29404" lon="5.74348">
        <ele>1614.6716308594</ele>
        <time>2011-06-04T10:11:07Z</time>
      </trkpt>
      <trkpt lat="45.29415" lon="5.74344">
        <ele>1612.7490234375</ele>
        <time>2011-06-04T10:11:15Z</time>
      </trkpt>
      <trkpt lat="45.29422" lon="5.74342">
        <ele>1611.7875976562</ele>
        <time>2011-06-04T10:11:20Z</time>
      </trkpt>
      <trkpt lat="45.29426" lon="5.74344">
        <ele>1612.2683105469</ele>
        <time>2011-06-04T10:11:24Z</time>
      </trkpt>
      <trkpt lat="45.29431" lon="5.74341">
        <ele>1611.3068847656</ele>
        <time>2011-06-04T10:11:29Z</time>
      </trkpt>
      <trkpt lat="45.29438" lon="5.74337">
        <ele>1614.1909179688</ele>
        <time>2011-06-04T10:11:36Z</time>
      </trkpt>
      <trkpt lat="45.2944" lon="5.74337">
        <ele>1615.15234375</ele>
        <time>2011-06-04T10:11:38Z</time>
      </trkpt>
      <trkpt lat="45.29446" lon="5.74337">
        <ele>1617.5554199219</ele>
        <time>2011-06-04T10:11:45Z</time>
      </trkpt>
      <trkpt lat="45.29451" lon="5.74338">
        <ele>1619.4782714844</ele>
        <time>2011-06-04T10:11:50Z</time>
      </trkpt>
      <trkpt lat="45.29453" lon="5.7434">
        <ele>1619.4782714844</ele>
        <time>2011-06-04T10:11:52Z</time>
      </trkpt>
      <trkpt lat="45.2946" lon="5.74339">
        <ele>1621.4006347656</ele>
        <time>2011-06-04T10:11:57Z</time>
      </trkpt>
      <trkpt lat="45.29467" lon="5.7434">
        <ele>1622.3620605469</ele>
        <time>2011-06-04T10:12:03Z</time>
      </trkpt>
      <trkpt lat="45.29473" lon="5.74341">
        <ele>1623.3234863281</ele>
        <time>2011-06-04T10:12:08Z</time>
      </trkpt>
      <trkpt lat="45.29478" lon="5.74347">
        <ele>1624.7653808594</ele>
        <time>2011-06-04T10:12:14Z</time>
      </trkpt>
      <trkpt lat="45.2948" lon="5.74348">
        <ele>1624.7653808594</ele>
        <time>2011-06-04T10:12:15Z</time>
      </trkpt>
      <trkpt lat="45.29485" lon="5.74348">
        <ele>1626.2072753906</ele>
        <time>2011-06-04T10:12:19Z</time>
      </trkpt>
      <trkpt lat="45.29491" lon="5.74348">
        <ele>1626.6879882812</ele>
        <time>2011-06-04T10:12:24Z</time>
      </trkpt>
      <trkpt lat="45.295" lon="5.7435">
        <ele>1628.1301269531</ele>
        <time>2011-06-04T10:12:32Z</time>
      </trkpt>
      <trkpt lat="45.29508" lon="5.74352">
        <ele>1629.0913085938</ele>
        <time>2011-06-04T10:12:39Z</time>
      </trkpt>
      <trkpt lat="45.29517" lon="5.74354">
        <ele>1631.4946289062</ele>
        <time>2011-06-04T10:12:47Z</time>
      </trkpt>
      <trkpt lat="45.29519" lon="5.74353">
        <ele>1631.9753417969</ele>
        <time>2011-06-04T10:12:49Z</time>
      </trkpt>
      <trkpt lat="45.29525" lon="5.74351">
        <ele>1632.9365234375</ele>
        <time>2011-06-04T10:12:54Z</time>
      </trkpt>
      <trkpt lat="45.29532" lon="5.74352">
        <ele>1634.3786621094</ele>
        <time>2011-06-04T10:13:01Z</time>
      </trkpt>
      <trkpt lat="45.29535" lon="5.74353">
        <ele>1636.3012695312</ele>
        <time>2011-06-04T10:13:05Z</time>
      </trkpt>
      <trkpt lat="45.29541" lon="5.74354">
        <ele>1636.7817382812</ele>
        <time>2011-06-04T10:13:10Z</time>
      </trkpt>
      <trkpt lat="45.29547" lon="5.74358">
        <ele>1636.7817382812</ele>
        <time>2011-06-04T10:13:16Z</time>
      </trkpt>
      <trkpt lat="45.29555" lon="5.74366">
        <ele>1638.2238769531</ele>
        <time>2011-06-04T10:13:25Z</time>
      </trkpt>
      <trkpt lat="45.29556" lon="5.74366">
        <ele>1638.2238769531</ele>
        <time>2011-06-04T10:13:26Z</time>
      </trkpt>
      <trkpt lat="45.29558" lon="5.74367">
        <ele>1638.7045898438</ele>
        <time>2011-06-04T10:13:28Z</time>
      </trkpt>
      <trkpt lat="45.29564" lon="5.74366">
        <ele>1641.5883789062</ele>
        <time>2011-06-04T10:13:32Z</time>
      </trkpt>
      <trkpt lat="45.29568" lon="5.74366">
        <ele>1643.5109863281</ele>
        <time>2011-06-04T10:13:36Z</time>
      </trkpt>
      <trkpt lat="45.29571" lon="5.74367">
        <ele>1644.4724121094</ele>
        <time>2011-06-04T10:13:39Z</time>
      </trkpt>
      <trkpt lat="45.29578" lon="5.74371">
        <ele>1646.3952636719</ele>
        <time>2011-06-04T10:13:46Z</time>
      </trkpt>
      <trkpt lat="45.29584" lon="5.74371">
        <ele>1648.7983398438</ele>
        <time>2011-06-04T10:13:53Z</time>
      </trkpt>
      <trkpt lat="45.29591" lon="5.74375">
        <ele>1651.2016601562</ele>
        <time>2011-06-04T10:13:58Z</time>
      </trkpt>
      <trkpt lat="45.29599" lon="5.74377">
        <ele>1654.5661621094</ele>
        <time>2011-06-04T10:14:06Z</time>
      </trkpt>
      <trkpt lat="45.296" lon="5.74377">
        <ele>1655.046875</ele>
        <time>2011-06-04T10:14:07Z</time>
      </trkpt>
      <trkpt lat="45.29609" lon="5.74382">
        <ele>1655.046875</ele>
        <time>2011-06-04T10:14:14Z</time>
      </trkpt>
      <trkpt lat="45.2961" lon="5.74382">
        <ele>1655.5275878906</ele>
        <time>2011-06-04T10:14:15Z</time>
      </trkpt>
      <trkpt lat="45.29617" lon="5.74382">
        <ele>1657.4501953125</ele>
        <time>2011-06-04T10:14:22Z</time>
      </trkpt>
      <trkpt lat="45.29622" lon="5.74383">
        <ele>1659.8532714844</ele>
        <time>2011-06-04T10:14:28Z</time>
      </trkpt>
      <trkpt lat="45.29627" lon="5.74384">
        <ele>1661.7763671875</ele>
        <time>2011-06-04T10:14:32Z</time>
      </trkpt>
      <trkpt lat="45.29634" lon="5.74387">
        <ele>1662.7375488281</ele>
        <time>2011-06-04T10:14:37Z</time>
      </trkpt>
      <trkpt lat="45.29644" lon="5.74389">
        <ele>1664.1794433594</ele>
        <time>2011-06-04T10:14:43Z</time>
      </trkpt>
      <trkpt lat="45.29652" lon="5.74394">
        <ele>1663.2182617188</ele>
        <time>2011-06-04T10:14:47Z</time>
      </trkpt>
      <trkpt lat="45.29657" lon="5.74391">
        <ele>1663.2182617188</ele>
        <time>2011-06-04T10:14:51Z</time>
      </trkpt>
      <trkpt lat="45.2966" lon="5.7439">
        <ele>1663.2182617188</ele>
        <time>2011-06-04T10:14:52Z</time>
      </trkpt>
      <trkpt lat="45.29678" lon="5.74384">
        <ele>1660.8149414062</ele>
        <time>2011-06-04T10:14:59Z</time>
      </trkpt>
      <trkpt lat="45.29691" lon="5.74377">
        <ele>1660.3342285156</ele>
        <time>2011-06-04T10:15:05Z</time>
      </trkpt>
      <trkpt lat="45.29703" lon="5.74366">
        <ele>1660.3342285156</ele>
        <time>2011-06-04T10:15:11Z</time>
      </trkpt>
      <trkpt lat="45.29713" lon="5.74358">
        <ele>1660.3342285156</ele>
        <time>2011-06-04T10:15:15Z</time>
      </trkpt>
      <trkpt lat="45.29721" lon="5.74346">
        <ele>1662.7375488281</ele>
        <time>2011-06-04T10:15:21Z</time>
      </trkpt>
      <trkpt lat="45.29725" lon="5.74339">
        <ele>1662.7375488281</ele>
        <time>2011-06-04T10:15:24Z</time>
      </trkpt>
      <trkpt lat="45.29729" lon="5.74331">
        <ele>1663.6987304688</ele>
        <time>2011-06-04T10:15:28Z</time>
      </trkpt>
      <trkpt lat="45.29739" lon="5.74322">
        <ele>1666.1020507812</ele>
        <time>2011-06-04T10:15:33Z</time>
      </trkpt>
      <trkpt lat="45.29746" lon="5.74309">
        <ele>1667.0634765625</ele>
        <time>2011-06-04T10:15:38Z</time>
      </trkpt>
      <trkpt lat="45.29751" lon="5.74297">
        <ele>1667.0634765625</ele>
        <time>2011-06-04T10:15:42Z</time>
      </trkpt>
      <trkpt lat="45.29758" lon="5.74289">
        <ele>1666.5827636719</ele>
        <time>2011-06-04T10:15:46Z</time>
      </trkpt>
      <trkpt lat="45.2976" lon="5.74286">
        <ele>1665.6215820312</ele>
        <time>2011-06-04T10:15:47Z</time>
      </trkpt>
      <trkpt lat="45.2977" lon="5.74272">
        <ele>1661.7763671875</ele>
        <time>2011-06-04T10:15:52Z</time>
      </trkpt>
      <trkpt lat="45.29771" lon="5.74269">
        <ele>1661.2956542969</ele>
        <time>2011-06-04T10:15:53Z</time>
      </trkpt>
      <trkpt lat="45.29785" lon="5.74262">
        <ele>1659.8532714844</ele>
        <time>2011-06-04T10:15:59Z</time>
      </trkpt>
      <trkpt lat="45.29792" lon="5.74259">
        <ele>1659.8532714844</ele>
        <time>2011-06-04T10:16:03Z</time>
      </trkpt>
      <trkpt lat="45.298" lon="5.7426">
        <ele>1658.4113769531</ele>
        <time>2011-06-04T10:16:08Z</time>
      </trkpt>
      <trkpt lat="45.29803" lon="5.74261">
        <ele>1658.8920898438</ele>
        <time>2011-06-04T10:16:10Z</time>
      </trkpt>
      <trkpt lat="45.29814" lon="5.74264">
        <ele>1659.3728027344</ele>
        <time>2011-06-04T10:16:15Z</time>
      </trkpt>
      <trkpt lat="45.29825" lon="5.74268">
        <ele>1660.8149414062</ele>
        <time>2011-06-04T10:16:21Z</time>
      </trkpt>
      <trkpt lat="45.29837" lon="5.74273">
        <ele>1660.8149414062</ele>
        <time>2011-06-04T10:16:27Z</time>
      </trkpt>
      <trkpt lat="45.29848" lon="5.74281">
        <ele>1660.3342285156</ele>
        <time>2011-06-04T10:16:32Z</time>
      </trkpt>
      <trkpt lat="45.29861" lon="5.7429">
        <ele>1660.8149414062</ele>
        <time>2011-06-04T10:16:38Z</time>
      </trkpt>
      <trkpt lat="45.29863" lon="5.74292">
        <ele>1660.8149414062</ele>
        <time>2011-06-04T10:16:39Z</time>
      </trkpt>
      <trkpt lat="45.29871" lon="5.74302">
        <ele>1660.3342285156</ele>
        <time>2011-06-04T10:16:44Z</time>
      </trkpt>
      <trkpt lat="45.29876" lon="5.74307">
        <ele>1660.8149414062</ele>
        <time>2011-06-04T10:16:47Z</time>
      </trkpt>
      <trkpt lat="45.29888" lon="5.74318">
        <ele>1660.8149414062</ele>
        <time>2011-06-04T10:16:54Z</time>
      </trkpt>
      <trkpt lat="45.29896" lon="5.74326">
        <ele>1660.3342285156</ele>
        <time>2011-06-04T10:16:58Z</time>
      </trkpt>
      <trkpt lat="45.299" lon="5.74331">
        <ele>1659.8532714844</ele>
        <time>2011-06-04T10:17:00Z</time>
      </trkpt>
      <trkpt lat="45.29912" lon="5.74342">
        <ele>1657.9309082031</ele>
        <time>2011-06-04T10:17:06Z</time>
      </trkpt>
      <trkpt lat="45.29921" lon="5.74352">
        <ele>1656.4887695312</ele>
        <time>2011-06-04T10:17:11Z</time>
      </trkpt>
      <trkpt lat="45.29929" lon="5.74359">
        <ele>1655.5275878906</ele>
        <time>2011-06-04T10:17:16Z</time>
      </trkpt>
      <trkpt lat="45.29935" lon="5.74358">
        <ele>1653.6049804688</ele>
        <time>2011-06-04T10:17:20Z</time>
      </trkpt>
      <trkpt lat="45.29938" lon="5.7436">
        <ele>1651.2016601562</ele>
        <time>2011-06-04T10:17:23Z</time>
      </trkpt>
      <trkpt lat="45.29944" lon="5.74364">
        <ele>1647.8371582031</ele>
        <time>2011-06-04T10:17:27Z</time>
      </trkpt>
      <trkpt lat="45.29951" lon="5.74369">
        <ele>1644.4724121094</ele>
        <time>2011-06-04T10:17:32Z</time>
      </trkpt>
      <trkpt lat="45.29956" lon="5.74366">
        <ele>1643.5109863281</ele>
        <time>2011-06-04T10:17:36Z</time>
      </trkpt>
      <trkpt lat="45.29958" lon="5.74363">
        <ele>1642.5498046875</ele>
        <time>2011-06-04T10:17:38Z</time>
      </trkpt>
      <trkpt lat="45.29963" lon="5.74364">
        <ele>1641.1076660156</ele>
        <time>2011-06-04T10:17:41Z</time>
      </trkpt>
      <trkpt lat="45.29967" lon="5.74369">
        <ele>1639.6657714844</ele>
        <time>2011-06-04T10:17:46Z</time>
      </trkpt>
      <trkpt lat="45.29972" lon="5.74378">
        <ele>1637.2624511719</ele>
        <time>2011-06-04T10:17:51Z</time>
      </trkpt>
      <trkpt lat="45.2998" lon="5.7438">
        <ele>1635.8205566406</ele>
        <time>2011-06-04T10:17:56Z</time>
      </trkpt>
      <trkpt lat="45.29984" lon="5.74385">
        <ele>1635.33984375</ele>
        <time>2011-06-04T10:18:01Z</time>
      </trkpt>
      <trkpt lat="45.29989" lon="5.74395">
        <ele>1635.33984375</ele>
        <time>2011-06-04T10:18:06Z</time>
      </trkpt>
      <trkpt lat="45.29994" lon="5.74394">
        <ele>1633.4172363281</ele>
        <time>2011-06-04T10:18:09Z</time>
      </trkpt>
      <trkpt lat="45.30006" lon="5.74398">
        <ele>1631.0141601562</ele>
        <time>2011-06-04T10:18:14Z</time>
      </trkpt>
      <trkpt lat="45.30014" lon="5.74402">
        <ele>1629.0913085938</ele>
        <time>2011-06-04T10:18:17Z</time>
      </trkpt>
      <trkpt lat="45.30024" lon="5.74411">
        <ele>1626.2072753906</ele>
        <time>2011-06-04T10:18:22Z</time>
      </trkpt>
      <trkpt lat="45.30026" lon="5.74414">
        <ele>1624.2846679688</ele>
        <time>2011-06-04T10:18:24Z</time>
      </trkpt>
      <trkpt lat="45.30029" lon="5.74415">
        <ele>1622.3620605469</ele>
        <time>2011-06-04T10:18:26Z</time>
      </trkpt>
      <trkpt lat="45.30036" lon="5.74413">
        <ele>1620.9201660156</ele>
        <time>2011-06-04T10:18:30Z</time>
      </trkpt>
      <trkpt lat="45.30038" lon="5.74412">
        <ele>1620.9201660156</ele>
        <time>2011-06-04T10:18:32Z</time>
      </trkpt>
      <trkpt lat="45.30046" lon="5.74414">
        <ele>1619.9587402344</ele>
        <time>2011-06-04T10:18:36Z</time>
      </trkpt>
      <trkpt lat="45.30053" lon="5.74424">
        <ele>1618.0361328125</ele>
        <time>2011-06-04T10:18:43Z</time>
      </trkpt>
      <trkpt lat="45.30056" lon="5.74426">
        <ele>1618.0361328125</ele>
        <time>2011-06-04T10:18:45Z</time>
      </trkpt>
      <trkpt lat="45.30066" lon="5.74432">
        <ele>1617.0749511719</ele>
        <time>2011-06-04T10:18:50Z</time>
      </trkpt>
      <trkpt lat="45.30068" lon="5.74433">
        <ele>1617.5554199219</ele>
        <time>2011-06-04T10:18:51Z</time>
      </trkpt>
      <trkpt lat="45.30081" lon="5.7444">
        <ele>1618.5168457031</ele>
        <time>2011-06-04T10:18:59Z</time>
      </trkpt>
      <trkpt lat="45.30086" lon="5.74442">
        <ele>1618.5168457031</ele>
        <time>2011-06-04T10:19:02Z</time>
      </trkpt>
      <trkpt lat="45.30091" lon="5.7444">
        <ele>1622.3620605469</ele>
        <time>2011-06-04T10:19:09Z</time>
      </trkpt>
      <trkpt lat="45.30098" lon="5.74444">
        <ele>1623.8039550781</ele>
        <time>2011-06-04T10:19:14Z</time>
      </trkpt>
      <trkpt lat="45.30103" lon="5.74446">
        <ele>1624.7653808594</ele>
        <time>2011-06-04T10:19:19Z</time>
      </trkpt>
      <trkpt lat="45.30107" lon="5.74447">
        <ele>1625.2458496094</ele>
        <time>2011-06-04T10:19:22Z</time>
      </trkpt>
      <trkpt lat="45.30119" lon="5.74452">
        <ele>1627.1687011719</ele>
        <time>2011-06-04T10:19:28Z</time>
      </trkpt>
      <trkpt lat="45.30124" lon="5.74455">
        <ele>1627.6491699219</ele>
        <time>2011-06-04T10:19:31Z</time>
      </trkpt>
      <trkpt lat="45.3013" lon="5.74459">
        <ele>1628.1301269531</ele>
        <time>2011-06-04T10:19:36Z</time>
      </trkpt>
      <trkpt lat="45.30136" lon="5.74464">
        <ele>1628.1301269531</ele>
        <time>2011-06-04T10:19:40Z</time>
      </trkpt>
      <trkpt lat="45.30138" lon="5.74465">
        <ele>1628.1301269531</ele>
        <time>2011-06-04T10:19:41Z</time>
      </trkpt>
      <trkpt lat="45.30151" lon="5.74471">
        <ele>1629.0913085938</ele>
        <time>2011-06-04T10:19:47Z</time>
      </trkpt>
      <trkpt lat="45.30155" lon="5.74473">
        <ele>1629.5720214844</ele>
        <time>2011-06-04T10:19:49Z</time>
      </trkpt>
      <trkpt lat="45.30165" lon="5.7448">
        <ele>1628.1301269531</ele>
        <time>2011-06-04T10:19:54Z</time>
      </trkpt>
      <trkpt lat="45.30174" lon="5.74484">
        <ele>1627.1687011719</ele>
        <time>2011-06-04T10:19:58Z</time>
      </trkpt>
      <trkpt lat="45.30177" lon="5.74486">
        <ele>1628.1301269531</ele>
        <time>2011-06-04T10:20:00Z</time>
      </trkpt>
      <trkpt lat="45.30186" lon="5.74491">
        <ele>1629.5720214844</ele>
        <time>2011-06-04T10:20:04Z</time>
      </trkpt>
      <trkpt lat="45.30199" lon="5.74503">
        <ele>1631.0141601562</ele>
        <time>2011-06-04T10:20:10Z</time>
      </trkpt>
      <trkpt lat="45.30206" lon="5.74507">
        <ele>1631.4946289062</ele>
        <time>2011-06-04T10:20:14Z</time>
      </trkpt>
      <trkpt lat="45.30213" lon="5.74512">
        <ele>1632.9365234375</ele>
        <time>2011-06-04T10:20:18Z</time>
      </trkpt>
      <trkpt lat="45.30224" lon="5.7452">
        <ele>1636.3012695312</ele>
        <time>2011-06-04T10:20:23Z</time>
      </trkpt>
      <trkpt lat="45.30232" lon="5.74525">
        <ele>1638.7045898438</ele>
        <time>2011-06-04T10:20:27Z</time>
      </trkpt>
      <trkpt lat="45.30238" lon="5.74531">
        <ele>1638.2238769531</ele>
        <time>2011-06-04T10:20:33Z</time>
      </trkpt>
      <trkpt lat="45.30242" lon="5.74532">
        <ele>1638.2238769531</ele>
        <time>2011-06-04T10:20:36Z</time>
      </trkpt>
      <trkpt lat="45.30253" lon="5.74538">
        <ele>1638.7045898438</ele>
        <time>2011-06-04T10:20:42Z</time>
      </trkpt>
      <trkpt lat="45.30262" lon="5.74546">
        <ele>1640.146484375</ele>
        <time>2011-06-04T10:20:47Z</time>
      </trkpt>
      <trkpt lat="45.3027" lon="5.74553">
        <ele>1640.626953125</ele>
        <time>2011-06-04T10:20:52Z</time>
      </trkpt>
      <trkpt lat="45.30273" lon="5.74555">
        <ele>1640.626953125</ele>
        <time>2011-06-04T10:20:54Z</time>
      </trkpt>
      <trkpt lat="45.30281" lon="5.74561">
        <ele>1640.626953125</ele>
        <time>2011-06-04T10:20:59Z</time>
      </trkpt>
      <trkpt lat="45.3029" lon="5.74566">
        <ele>1641.5883789062</ele>
        <time>2011-06-04T10:21:04Z</time>
      </trkpt>
      <trkpt lat="45.30299" lon="5.74571">
        <ele>1643.5109863281</ele>
        <time>2011-06-04T10:21:09Z</time>
      </trkpt>
      <trkpt lat="45.30307" lon="5.74571">
        <ele>1645.4338378906</ele>
        <time>2011-06-04T10:21:13Z</time>
      </trkpt>
      <trkpt lat="45.30315" lon="5.74576">
        <ele>1645.9145507812</ele>
        <time>2011-06-04T10:21:17Z</time>
      </trkpt>
      <trkpt lat="45.30326" lon="5.74583">
        <ele>1646.8757324219</ele>
        <time>2011-06-04T10:21:23Z</time>
      </trkpt>
      <trkpt lat="45.30334" lon="5.7459">
        <ele>1646.3952636719</ele>
        <time>2011-06-04T10:21:28Z</time>
      </trkpt>
      <trkpt lat="45.30337" lon="5.74592">
        <ele>1646.3952636719</ele>
        <time>2011-06-04T10:21:30Z</time>
      </trkpt>
      <trkpt lat="45.3035" lon="5.746">
        <ele>1647.3564453125</ele>
        <time>2011-06-04T10:21:36Z</time>
      </trkpt>
      <trkpt lat="45.30358" lon="5.74604">
        <ele>1647.8371582031</ele>
        <time>2011-06-04T10:21:42Z</time>
      </trkpt>
      <trkpt lat="45.30361" lon="5.74605">
        <ele>1648.3176269531</ele>
        <time>2011-06-04T10:21:45Z</time>
      </trkpt>
      <trkpt lat="45.30365" lon="5.74608">
        <ele>1646.8757324219</ele>
        <time>2011-06-04T10:21:49Z</time>
      </trkpt>
      <trkpt lat="45.3037" lon="5.74612">
        <ele>1647.3564453125</ele>
        <time>2011-06-04T10:21:53Z</time>
      </trkpt>
      <trkpt lat="45.30375" lon="5.74616">
        <ele>1646.8757324219</ele>
        <time>2011-06-04T10:21:58Z</time>
      </trkpt>
      <trkpt lat="45.30379" lon="5.74619">
        <ele>1647.3564453125</ele>
        <time>2011-06-04T10:22:02Z</time>
      </trkpt>
      <trkpt lat="45.30383" lon="5.74621">
        <ele>1647.8371582031</ele>
        <time>2011-06-04T10:22:06Z</time>
      </trkpt>
      <trkpt lat="45.30394" lon="5.74623">
        <ele>1647.8371582031</ele>
        <time>2011-06-04T10:22:14Z</time>
      </trkpt>
      <trkpt lat="45.304" lon="5.74625">
        <ele>1647.3564453125</ele>
        <time>2011-06-04T10:22:20Z</time>
      </trkpt>
      <trkpt lat="45.30402" lon="5.74625">
        <ele>1647.8371582031</ele>
        <time>2011-06-04T10:22:21Z</time>
      </trkpt>
      <trkpt lat="45.30407" lon="5.74625">
        <ele>1650.2404785156</ele>
        <time>2011-06-04T10:22:26Z</time>
      </trkpt>
      <trkpt lat="45.30415" lon="5.74629">
        <ele>1653.1242675781</ele>
        <time>2011-06-04T10:22:31Z</time>
      </trkpt>
      <trkpt lat="45.30425" lon="5.74635">
        <ele>1653.1242675781</ele>
        <time>2011-06-04T10:22:37Z</time>
      </trkpt>
      <trkpt lat="45.30439" lon="5.74637">
        <ele>1654.0856933594</ele>
        <time>2011-06-04T10:22:42Z</time>
      </trkpt>
      <trkpt lat="45.30448" lon="5.74641">
        <ele>1654.5661621094</ele>
        <time>2011-06-04T10:22:47Z</time>
      </trkpt>
      <trkpt lat="45.30456" lon="5.74644">
        <ele>1655.5275878906</ele>
        <time>2011-06-04T10:22:51Z</time>
      </trkpt>
      <trkpt lat="45.30465" lon="5.74647">
        <ele>1656.0080566406</ele>
        <time>2011-06-04T10:22:56Z</time>
      </trkpt>
      <trkpt lat="45.30473" lon="5.74649">
        <ele>1656.0080566406</ele>
        <time>2011-06-04T10:23:01Z</time>
      </trkpt>
      <trkpt lat="45.30486" lon="5.74652">
        <ele>1658.4113769531</ele>
        <time>2011-06-04T10:23:07Z</time>
      </trkpt>
      <trkpt lat="45.30499" lon="5.74656">
        <ele>1659.8532714844</ele>
        <time>2011-06-04T10:23:13Z</time>
      </trkpt>
      <trkpt lat="45.30509" lon="5.74662">
        <ele>1660.8149414062</ele>
        <time>2011-06-04T10:23:18Z</time>
      </trkpt>
      <trkpt lat="45.30518" lon="5.74665">
        <ele>1661.7763671875</ele>
        <time>2011-06-04T10:23:23Z</time>
      </trkpt>
      <trkpt lat="45.30527" lon="5.74667">
        <ele>1663.2182617188</ele>
        <time>2011-06-04T10:23:29Z</time>
      </trkpt>
      <trkpt lat="45.30535" lon="5.74668">
        <ele>1663.6987304688</ele>
        <time>2011-06-04T10:23:36Z</time>
      </trkpt>
      <trkpt lat="45.3054" lon="5.74672">
        <ele>1664.1794433594</ele>
        <time>2011-06-04T10:23:42Z</time>
      </trkpt>
      <trkpt lat="45.30542" lon="5.74671">
        <ele>1665.6215820312</ele>
        <time>2011-06-04T10:23:47Z</time>
      </trkpt>
      <trkpt lat="45.30546" lon="5.74672">
        <ele>1667.5439453125</ele>
        <time>2011-06-04T10:23:52Z</time>
      </trkpt>
      <trkpt lat="45.30551" lon="5.74673">
        <ele>1672.3505859375</ele>
        <time>2011-06-04T10:23:59Z</time>
      </trkpt>
      <trkpt lat="45.30555" lon="5.74677">
        <ele>1673.3120117188</ele>
        <time>2011-06-04T10:24:03Z</time>
      </trkpt>
      <trkpt lat="45.30559" lon="5.74678">
        <ele>1675.7150878906</ele>
        <time>2011-06-04T10:24:08Z</time>
      </trkpt>
      <trkpt lat="45.30562" lon="5.7468">
        <ele>1676.1960449219</ele>
        <time>2011-06-04T10:24:12Z</time>
      </trkpt>
      <trkpt lat="45.30568" lon="5.74685">
        <ele>1677.6379394531</ele>
        <time>2011-06-04T10:24:19Z</time>
      </trkpt>
      <trkpt lat="45.30569" lon="5.74686">
        <ele>1677.6379394531</ele>
        <time>2011-06-04T10:24:20Z</time>
      </trkpt>
      <trkpt lat="45.30574" lon="5.74692">
        <ele>1677.1574707031</ele>
        <time>2011-06-04T10:24:27Z</time>
      </trkpt>
      <trkpt lat="45.3058" lon="5.74697">
        <ele>1678.5993652344</ele>
        <time>2011-06-04T10:24:34Z</time>
      </trkpt>
      <trkpt lat="45.30585" lon="5.74703">
        <ele>1678.5993652344</ele>
        <time>2011-06-04T10:24:41Z</time>
      </trkpt>
      <trkpt lat="45.30591" lon="5.74711">
        <ele>1679.560546875</ele>
        <time>2011-06-04T10:24:49Z</time>
      </trkpt>
      <trkpt lat="45.30594" lon="5.74713">
        <ele>1680.0412597656</ele>
        <time>2011-06-04T10:24:52Z</time>
      </trkpt>
      <trkpt lat="45.30602" lon="5.74719">
        <ele>1681.0026855469</ele>
        <time>2011-06-04T10:25:01Z</time>
      </trkpt>
      <trkpt lat="45.3061" lon="5.74724">
        <ele>1682.9250488281</ele>
        <time>2011-06-04T10:25:10Z</time>
      </trkpt>
      <trkpt lat="45.30612" lon="5.74725">
        <ele>1683.8864746094</ele>
        <time>2011-06-04T10:25:12Z</time>
      </trkpt>
      <trkpt lat="45.30618" lon="5.74728">
        <ele>1686.2897949219</ele>
        <time>2011-06-04T10:25:18Z</time>
      </trkpt>
      <trkpt lat="45.30619" lon="5.7473">
        <ele>1686.7702636719</ele>
        <time>2011-06-04T10:25:19Z</time>
      </trkpt>
      <trkpt lat="45.30628" lon="5.74741">
        <ele>1688.2124023438</ele>
        <time>2011-06-04T10:25:28Z</time>
      </trkpt>
      <trkpt lat="45.30635" lon="5.74746">
        <ele>1689.654296875</ele>
        <time>2011-06-04T10:25:36Z</time>
      </trkpt>
      <trkpt lat="45.30639" lon="5.74749">
        <ele>1690.6154785156</ele>
        <time>2011-06-04T10:25:39Z</time>
      </trkpt>
      <trkpt lat="45.30644" lon="5.74752">
        <ele>1691.5769042969</ele>
        <time>2011-06-04T10:25:45Z</time>
      </trkpt>
      <trkpt lat="45.30653" lon="5.74756">
        <ele>1693.4997558594</ele>
        <time>2011-06-04T10:25:54Z</time>
      </trkpt>
      <trkpt lat="45.30663" lon="5.74763">
        <ele>1694.9416503906</ele>
        <time>2011-06-04T10:26:02Z</time>
      </trkpt>
      <trkpt lat="45.30671" lon="5.74769">
        <ele>1696.3837890625</ele>
        <time>2011-06-04T10:26:09Z</time>
      </trkpt>
      <trkpt lat="45.30675" lon="5.74771">
        <ele>1696.8642578125</ele>
        <time>2011-06-04T10:26:12Z</time>
      </trkpt>
      <trkpt lat="45.30683" lon="5.74774">
        <ele>1697.8256835938</ele>
        <time>2011-06-04T10:26:19Z</time>
      </trkpt>
      <trkpt lat="45.30685" lon="5.74778">
        <ele>1698.3061523438</ele>
        <time>2011-06-04T10:26:22Z</time>
      </trkpt>
      <trkpt lat="45.30695" lon="5.74793">
        <ele>1698.7868652344</ele>
        <time>2011-06-04T10:26:31Z</time>
      </trkpt>
      <trkpt lat="45.30703" lon="5.74807">
        <ele>1697.8256835938</ele>
        <time>2011-06-04T10:26:39Z</time>
      </trkpt>
      <trkpt lat="45.30707" lon="5.74813">
        <ele>1698.7868652344</ele>
        <time>2011-06-04T10:26:44Z</time>
      </trkpt>
      <trkpt lat="45.30712" lon="5.7482">
        <ele>1699.7482910156</ele>
        <time>2011-06-04T10:26:50Z</time>
      </trkpt>
      <trkpt lat="45.30713" lon="5.74823">
        <ele>1699.7482910156</ele>
        <time>2011-06-04T10:26:52Z</time>
      </trkpt>
      <trkpt lat="45.30719" lon="5.74833">
        <ele>1699.267578125</ele>
        <time>2011-06-04T10:26:58Z</time>
      </trkpt>
      <trkpt lat="45.30722" lon="5.74845">
        <ele>1698.7868652344</ele>
        <time>2011-06-04T10:27:03Z</time>
      </trkpt>
      <trkpt lat="45.30727" lon="5.74854">
        <ele>1696.3837890625</ele>
        <time>2011-06-04T10:27:10Z</time>
      </trkpt>
      <trkpt lat="45.30729" lon="5.74857">
        <ele>1695.4223632812</ele>
        <time>2011-06-04T10:27:12Z</time>
      </trkpt>
      <trkpt lat="45.30733" lon="5.74863">
        <ele>1694.4609375</ele>
        <time>2011-06-04T10:27:17Z</time>
      </trkpt>
      <trkpt lat="45.3074" lon="5.74869">
        <ele>1693.4997558594</ele>
        <time>2011-06-04T10:27:22Z</time>
      </trkpt>
      <trkpt lat="45.30745" lon="5.74873">
        <ele>1694.4609375</ele>
        <time>2011-06-04T10:27:26Z</time>
      </trkpt>
      <trkpt lat="45.3075" lon="5.74879">
        <ele>1695.4223632812</ele>
        <time>2011-06-04T10:27:31Z</time>
      </trkpt>
      <trkpt lat="45.30758" lon="5.74886">
        <ele>1698.7868652344</ele>
        <time>2011-06-04T10:27:38Z</time>
      </trkpt>
      <trkpt lat="45.30759" lon="5.74888">
        <ele>1698.7868652344</ele>
        <time>2011-06-04T10:27:39Z</time>
      </trkpt>
      <trkpt lat="45.30761" lon="5.74894">
        <ele>1699.7482910156</ele>
        <time>2011-06-04T10:27:42Z</time>
      </trkpt>
      <trkpt lat="45.30768" lon="5.74905">
        <ele>1699.267578125</ele>
        <time>2011-06-04T10:27:48Z</time>
      </trkpt>
      <trkpt lat="45.30769" lon="5.7491">
        <ele>1698.3061523438</ele>
        <time>2011-06-04T10:27:50Z</time>
      </trkpt>
      <trkpt lat="45.30771" lon="5.74914">
        <ele>1697.8256835938</ele>
        <time>2011-06-04T10:27:52Z</time>
      </trkpt>
      <trkpt lat="45.30779" lon="5.74918">
        <ele>1696.3837890625</ele>
        <time>2011-06-04T10:27:57Z</time>
      </trkpt>
      <trkpt lat="45.30782" lon="5.74922">
        <ele>1695.9030761719</ele>
        <time>2011-06-04T10:28:01Z</time>
      </trkpt>
      <trkpt lat="45.30783" lon="5.74926">
        <ele>1695.9030761719</ele>
        <time>2011-06-04T10:28:03Z</time>
      </trkpt>
      <trkpt lat="45.30786" lon="5.74936">
        <ele>1694.9416503906</ele>
        <time>2011-06-04T10:28:10Z</time>
      </trkpt>
      <trkpt lat="45.30791" lon="5.74941">
        <ele>1694.4609375</ele>
        <time>2011-06-04T10:28:15Z</time>
      </trkpt>
      <trkpt lat="45.30793" lon="5.74951">
        <ele>1692.0578613281</ele>
        <time>2011-06-04T10:28:21Z</time>
      </trkpt>
      <trkpt lat="45.30794" lon="5.74954">
        <ele>1692.0578613281</ele>
        <time>2011-06-04T10:28:22Z</time>
      </trkpt>
      <trkpt lat="45.30799" lon="5.74966">
        <ele>1690.6154785156</ele>
        <time>2011-06-04T10:28:27Z</time>
      </trkpt>
      <trkpt lat="45.308" lon="5.74969">
        <ele>1690.1350097656</ele>
        <time>2011-06-04T10:28:28Z</time>
      </trkpt>
      <trkpt lat="45.30801" lon="5.74978">
        <ele>1687.2509765625</ele>
        <time>2011-06-04T10:28:32Z</time>
      </trkpt>
      <trkpt lat="45.30801" lon="5.7499">
        <ele>1684.8479003906</ele>
        <time>2011-06-04T10:28:37Z</time>
      </trkpt>
      <trkpt lat="45.30802" lon="5.75001">
        <ele>1680.5219726562</ele>
        <time>2011-06-04T10:28:42Z</time>
      </trkpt>
      <trkpt lat="45.30801" lon="5.75009">
        <ele>1678.1186523438</ele>
        <time>2011-06-04T10:28:46Z</time>
      </trkpt>
      <trkpt lat="45.30803" lon="5.7502">
        <ele>1674.75390625</ele>
        <time>2011-06-04T10:28:51Z</time>
      </trkpt>
      <trkpt lat="45.30804" lon="5.75024">
        <ele>1672.8312988281</ele>
        <time>2011-06-04T10:28:53Z</time>
      </trkpt>
      <trkpt lat="45.3081" lon="5.75032">
        <ele>1669.947265625</ele>
        <time>2011-06-04T10:28:59Z</time>
      </trkpt>
      <trkpt lat="45.30813" lon="5.75034">
        <ele>1668.0246582031</ele>
        <time>2011-06-04T10:29:01Z</time>
      </trkpt>
      <trkpt lat="45.30819" lon="5.75041">
        <ele>1665.1408691406</ele>
        <time>2011-06-04T10:29:06Z</time>
      </trkpt>
      <trkpt lat="45.30827" lon="5.75051">
        <ele>1662.7375488281</ele>
        <time>2011-06-04T10:29:12Z</time>
      </trkpt>
      <trkpt lat="45.30832" lon="5.75062">
        <ele>1660.3342285156</ele>
        <time>2011-06-04T10:29:17Z</time>
      </trkpt>
      <trkpt lat="45.30834" lon="5.75065">
        <ele>1658.8920898438</ele>
        <time>2011-06-04T10:29:19Z</time>
      </trkpt>
      <trkpt lat="45.30839" lon="5.75081">
        <ele>1654.5661621094</ele>
        <time>2011-06-04T10:29:26Z</time>
      </trkpt>
      <trkpt lat="45.30843" lon="5.75091">
        <ele>1652.6435546875</ele>
        <time>2011-06-04T10:29:31Z</time>
      </trkpt>
      <trkpt lat="45.30848" lon="5.75102">
        <ele>1650.2404785156</ele>
        <time>2011-06-04T10:29:36Z</time>
      </trkpt>
      <trkpt lat="45.30849" lon="5.75107">
        <ele>1649.2790527344</ele>
        <time>2011-06-04T10:29:38Z</time>
      </trkpt>
      <trkpt lat="45.30857" lon="5.75126">
        <ele>1643.9916992188</ele>
        <time>2011-06-04T10:29:46Z</time>
      </trkpt>
      <trkpt lat="45.30861" lon="5.75138">
        <ele>1641.1076660156</ele>
        <time>2011-06-04T10:29:50Z</time>
      </trkpt>
      <trkpt lat="45.30867" lon="5.75155">
        <ele>1638.7045898438</ele>
        <time>2011-06-04T10:29:55Z</time>
      </trkpt>
      <trkpt lat="45.30874" lon="5.75177">
        <ele>1637.7431640625</ele>
        <time>2011-06-04T10:30:01Z</time>
      </trkpt>
      <trkpt lat="45.3088" lon="5.75189">
        <ele>1637.2624511719</ele>
        <time>2011-06-04T10:30:06Z</time>
      </trkpt>
      <trkpt lat="45.30885" lon="5.75207">
        <ele>1637.7431640625</ele>
        <time>2011-06-04T10:30:12Z</time>
      </trkpt>
      <trkpt lat="45.3089" lon="5.75222">
        <ele>1637.7431640625</ele>
        <time>2011-06-04T10:30:17Z</time>
      </trkpt>
      <trkpt lat="45.30895" lon="5.75234">
        <ele>1638.2238769531</ele>
        <time>2011-06-04T10:30:21Z</time>
      </trkpt>
      <trkpt lat="45.30903" lon="5.75247">
        <ele>1637.7431640625</ele>
        <time>2011-06-04T10:30:26Z</time>
      </trkpt>
      <trkpt lat="45.30909" lon="5.75263">
        <ele>1636.3012695312</ele>
        <time>2011-06-04T10:30:31Z</time>
      </trkpt>
      <trkpt lat="45.30916" lon="5.75272">
        <ele>1635.8205566406</ele>
        <time>2011-06-04T10:30:35Z</time>
      </trkpt>
      <trkpt lat="45.30931" lon="5.75291">
        <ele>1633.8979492188</ele>
        <time>2011-06-04T10:30:42Z</time>
      </trkpt>
      <trkpt lat="45.30937" lon="5.75297">
        <ele>1632.9365234375</ele>
        <time>2011-06-04T10:30:45Z</time>
      </trkpt>
      <trkpt lat="45.30948" lon="5.75309">
        <ele>1630.5334472656</ele>
        <time>2011-06-04T10:30:51Z</time>
      </trkpt>
      <trkpt lat="45.30959" lon="5.7532">
        <ele>1632.4560546875</ele>
        <time>2011-06-04T10:30:57Z</time>
      </trkpt>
      <trkpt lat="45.30967" lon="5.7533">
        <ele>1634.859375</ele>
        <time>2011-06-04T10:31:02Z</time>
      </trkpt>
      <trkpt lat="45.30974" lon="5.75345">
        <ele>1637.2624511719</ele>
        <time>2011-06-04T10:31:09Z</time>
      </trkpt>
      <trkpt lat="45.30981" lon="5.75358">
        <ele>1638.7045898438</ele>
        <time>2011-06-04T10:31:15Z</time>
      </trkpt>
      <trkpt lat="45.30991" lon="5.75365">
        <ele>1640.626953125</ele>
        <time>2011-06-04T10:31:21Z</time>
      </trkpt>
      <trkpt lat="45.31" lon="5.75374">
        <ele>1641.5883789062</ele>
        <time>2011-06-04T10:31:26Z</time>
      </trkpt>
      <trkpt lat="45.31003" lon="5.75377">
        <ele>1641.1076660156</ele>
        <time>2011-06-04T10:31:28Z</time>
      </trkpt>
      <trkpt lat="45.31008" lon="5.75393">
        <ele>1638.2238769531</ele>
        <time>2011-06-04T10:31:34Z</time>
      </trkpt>
      <trkpt lat="45.3102" lon="5.75401">
        <ele>1637.2624511719</ele>
        <time>2011-06-04T10:31:40Z</time>
      </trkpt>
      <trkpt lat="45.31027" lon="5.75404">
        <ele>1635.33984375</ele>
        <time>2011-06-04T10:31:45Z</time>
      </trkpt>
      <trkpt lat="45.31034" lon="5.75409">
        <ele>1635.33984375</ele>
        <time>2011-06-04T10:31:52Z</time>
      </trkpt>
      <trkpt lat="45.31044" lon="5.75411">
        <ele>1637.2624511719</ele>
        <time>2011-06-04T10:31:59Z</time>
      </trkpt>
      <trkpt lat="45.31055" lon="5.75418">
        <ele>1639.6657714844</ele>
        <time>2011-06-04T10:32:08Z</time>
      </trkpt>
      <trkpt lat="45.31063" lon="5.75425">
        <ele>1640.626953125</ele>
        <time>2011-06-04T10:32:15Z</time>
      </trkpt>
      <trkpt lat="45.31071" lon="5.75433">
        <ele>1642.5498046875</ele>
        <time>2011-06-04T10:32:22Z</time>
      </trkpt>
      <trkpt lat="45.31082" lon="5.75441">
        <ele>1644.953125</ele>
        <time>2011-06-04T10:32:31Z</time>
      </trkpt>
      <trkpt lat="45.31091" lon="5.75449">
        <ele>1646.8757324219</ele>
        <time>2011-06-04T10:32:39Z</time>
      </trkpt>
      <trkpt lat="45.31102" lon="5.75458">
        <ele>1647.8371582031</ele>
        <time>2011-06-04T10:32:47Z</time>
      </trkpt>
      <trkpt lat="45.31113" lon="5.75466">
        <ele>1647.8371582031</ele>
        <time>2011-06-04T10:32:53Z</time>
      </trkpt>
      <trkpt lat="45.31127" lon="5.75472">
        <ele>1647.3564453125</ele>
        <time>2011-06-04T10:32:59Z</time>
      </trkpt>
      <trkpt lat="45.31141" lon="5.75475">
        <ele>1647.3564453125</ele>
        <time>2011-06-04T10:33:05Z</time>
      </trkpt>
      <trkpt lat="45.31153" lon="5.75476">
        <ele>1647.3564453125</ele>
        <time>2011-06-04T10:33:10Z</time>
      </trkpt>
      <trkpt lat="45.31165" lon="5.75477">
        <ele>1646.3952636719</ele>
        <time>2011-06-04T10:33:15Z</time>
      </trkpt>
      <trkpt lat="45.31182" lon="5.75478">
        <ele>1645.9145507812</ele>
        <time>2011-06-04T10:33:22Z</time>
      </trkpt>
      <trkpt lat="45.31201" lon="5.75475">
        <ele>1645.4338378906</ele>
        <time>2011-06-04T10:33:30Z</time>
      </trkpt>
      <trkpt lat="45.31213" lon="5.75467">
        <ele>1645.9145507812</ele>
        <time>2011-06-04T10:33:35Z</time>
      </trkpt>
      <trkpt lat="45.31226" lon="5.75453">
        <ele>1646.8757324219</ele>
        <time>2011-06-04T10:33:41Z</time>
      </trkpt>
      <trkpt lat="45.31238" lon="5.7544">
        <ele>1647.3564453125</ele>
        <time>2011-06-04T10:33:47Z</time>
      </trkpt>
      <trkpt lat="45.3125" lon="5.75428">
        <ele>1647.8371582031</ele>
        <time>2011-06-04T10:33:53Z</time>
      </trkpt>
      <trkpt lat="45.31265" lon="5.7542">
        <ele>1647.8371582031</ele>
        <time>2011-06-04T10:33:59Z</time>
      </trkpt>
      <trkpt lat="45.31285" lon="5.75413">
        <ele>1647.3564453125</ele>
        <time>2011-06-04T10:34:07Z</time>
      </trkpt>
      <trkpt lat="45.31297" lon="5.75408">
        <ele>1647.3564453125</ele>
        <time>2011-06-04T10:34:12Z</time>
      </trkpt>
      <trkpt lat="45.31312" lon="5.754">
        <ele>1647.3564453125</ele>
        <time>2011-06-04T10:34:18Z</time>
      </trkpt>
      <trkpt lat="45.31327" lon="5.75387">
        <ele>1647.8371582031</ele>
        <time>2011-06-04T10:34:25Z</time>
      </trkpt>
      <trkpt lat="45.31339" lon="5.7538">
        <ele>1647.8371582031</ele>
        <time>2011-06-04T10:34:30Z</time>
      </trkpt>
      <trkpt lat="45.31353" lon="5.75378">
        <ele>1647.8371582031</ele>
        <time>2011-06-04T10:34:36Z</time>
      </trkpt>
      <trkpt lat="45.31366" lon="5.75378">
        <ele>1647.8371582031</ele>
        <time>2011-06-04T10:34:41Z</time>
      </trkpt>
      <trkpt lat="45.31381" lon="5.7538">
        <ele>1647.8371582031</ele>
        <time>2011-06-04T10:34:48Z</time>
      </trkpt>
      <trkpt lat="45.31396" lon="5.75383">
        <ele>1647.8371582031</ele>
        <time>2011-06-04T10:34:55Z</time>
      </trkpt>
      <trkpt lat="45.31414" lon="5.75385">
        <ele>1648.7983398438</ele>
        <time>2011-06-04T10:35:03Z</time>
      </trkpt>
      <trkpt lat="45.31432" lon="5.75388">
        <ele>1648.7983398438</ele>
        <time>2011-06-04T10:35:11Z</time>
      </trkpt>
      <trkpt lat="45.3145" lon="5.75391">
        <ele>1648.7983398438</ele>
        <time>2011-06-04T10:35:19Z</time>
      </trkpt>
      <trkpt lat="45.31467" lon="5.75392">
        <ele>1649.2790527344</ele>
        <time>2011-06-04T10:35:27Z</time>
      </trkpt>
      <trkpt lat="45.3148" lon="5.75393">
        <ele>1650.2404785156</ele>
        <time>2011-06-04T10:35:33Z</time>
      </trkpt>
      <trkpt lat="45.31494" lon="5.75396">
        <ele>1650.7209472656</ele>
        <time>2011-06-04T10:35:40Z</time>
      </trkpt>
      <trkpt lat="45.31504" lon="5.75401">
        <ele>1651.6823730469</ele>
        <time>2011-06-04T10:35:45Z</time>
      </trkpt>
      <trkpt lat="45.31515" lon="5.75409">
        <ele>1650.7209472656</ele>
        <time>2011-06-04T10:35:51Z</time>
      </trkpt>
      <trkpt lat="45.31527" lon="5.7542">
        <ele>1650.7209472656</ele>
        <time>2011-06-04T10:35:58Z</time>
      </trkpt>
      <trkpt lat="45.3154" lon="5.75429">
        <ele>1651.2016601562</ele>
        <time>2011-06-04T10:36:05Z</time>
      </trkpt>
      <trkpt lat="45.31553" lon="5.75434">
        <ele>1651.6823730469</ele>
        <time>2011-06-04T10:36:12Z</time>
      </trkpt>
      <trkpt lat="45.31567" lon="5.75438">
        <ele>1652.1628417969</ele>
        <time>2011-06-04T10:36:19Z</time>
      </trkpt>
      <trkpt lat="45.31579" lon="5.7544">
        <ele>1651.6823730469</ele>
        <time>2011-06-04T10:36:25Z</time>
      </trkpt>
      <trkpt lat="45.31589" lon="5.75444">
        <ele>1651.6823730469</ele>
        <time>2011-06-04T10:36:30Z</time>
      </trkpt>
      <trkpt lat="45.31601" lon="5.75448">
        <ele>1651.6823730469</ele>
        <time>2011-06-04T10:36:36Z</time>
      </trkpt>
      <trkpt lat="45.3161" lon="5.75455">
        <ele>1651.2016601562</ele>
        <time>2011-06-04T10:36:42Z</time>
      </trkpt>
      <trkpt lat="45.31621" lon="5.75465">
        <ele>1652.1628417969</ele>
        <time>2011-06-04T10:36:49Z</time>
      </trkpt>
      <trkpt lat="45.31631" lon="5.75476">
        <ele>1654.0856933594</ele>
        <time>2011-06-04T10:36:55Z</time>
      </trkpt>
      <trkpt lat="45.31641" lon="5.75489">
        <ele>1654.5661621094</ele>
        <time>2011-06-04T10:37:02Z</time>
      </trkpt>
      <trkpt lat="45.31651" lon="5.75503">
        <ele>1655.046875</ele>
        <time>2011-06-04T10:37:09Z</time>
      </trkpt>
      <trkpt lat="45.3166" lon="5.75512">
        <ele>1655.046875</ele>
        <time>2011-06-04T10:37:14Z</time>
      </trkpt>
      <trkpt lat="45.31669" lon="5.75523">
        <ele>1655.046875</ele>
        <time>2011-06-04T10:37:20Z</time>
      </trkpt>
      <trkpt lat="45.3168" lon="5.75532">
        <ele>1656.4887695312</ele>
        <time>2011-06-04T10:37:26Z</time>
      </trkpt>
      <trkpt lat="45.3169" lon="5.75538">
        <ele>1656.4887695312</ele>
        <time>2011-06-04T10:37:31Z</time>
      </trkpt>
      <trkpt lat="45.31702" lon="5.75543">
        <ele>1657.4501953125</ele>
        <time>2011-06-04T10:37:38Z</time>
      </trkpt>
      <trkpt lat="45.31714" lon="5.75549">
        <ele>1658.4113769531</ele>
        <time>2011-06-04T10:37:44Z</time>
      </trkpt>
      <trkpt lat="45.31728" lon="5.75563">
        <ele>1659.3728027344</ele>
        <time>2011-06-04T10:37:52Z</time>
      </trkpt>
      <trkpt lat="45.31738" lon="5.75576">
        <ele>1660.3342285156</ele>
        <time>2011-06-04T10:37:59Z</time>
      </trkpt>
      <trkpt lat="45.31748" lon="5.75586">
        <ele>1659.8532714844</ele>
        <time>2011-06-04T10:38:05Z</time>
      </trkpt>
      <trkpt lat="45.31762" lon="5.75591">
        <ele>1662.7375488281</ele>
        <time>2011-06-04T10:38:12Z</time>
      </trkpt>
      <trkpt lat="45.31775" lon="5.75588">
        <ele>1664.1794433594</ele>
        <time>2011-06-04T10:38:18Z</time>
      </trkpt>
      <trkpt lat="45.31786" lon="5.7558">
        <ele>1667.0634765625</ele>
        <time>2011-06-04T10:38:24Z</time>
      </trkpt>
      <trkpt lat="45.31799" lon="5.75572">
        <ele>1669.947265625</ele>
        <time>2011-06-04T10:38:30Z</time>
      </trkpt>
      <trkpt lat="45.31811" lon="5.75568">
        <ele>1671.3891601562</ele>
        <time>2011-06-04T10:38:36Z</time>
      </trkpt>
      <trkpt lat="45.31821" lon="5.75571">
        <ele>1672.3505859375</ele>
        <time>2011-06-04T10:38:41Z</time>
      </trkpt>
      <trkpt lat="45.31833" lon="5.75581">
        <ele>1674.2731933594</ele>
        <time>2011-06-04T10:38:47Z</time>
      </trkpt>
      <trkpt lat="45.31842" lon="5.7559">
        <ele>1675.234375</ele>
        <time>2011-06-04T10:38:52Z</time>
      </trkpt>
      <trkpt lat="45.31854" lon="5.75603">
        <ele>1676.1960449219</ele>
        <time>2011-06-04T10:38:58Z</time>
      </trkpt>
      <trkpt lat="45.31864" lon="5.75614">
        <ele>1675.7150878906</ele>
        <time>2011-06-04T10:39:03Z</time>
      </trkpt>
      <trkpt lat="45.3188" lon="5.75634">
        <ele>1675.234375</ele>
        <time>2011-06-04T10:39:11Z</time>
      </trkpt>
      <trkpt lat="45.31889" lon="5.7565">
        <ele>1674.2731933594</ele>
        <time>2011-06-04T10:39:16Z</time>
      </trkpt>
      <trkpt lat="45.31894" lon="5.75664">
        <ele>1672.3505859375</ele>
        <time>2011-06-04T10:39:20Z</time>
      </trkpt>
      <trkpt lat="45.31892" lon="5.75678">
        <ele>1671.3891601562</ele>
        <time>2011-06-04T10:39:24Z</time>
      </trkpt>
      <trkpt lat="45.31887" lon="5.75689">
        <ele>1672.8312988281</ele>
        <time>2011-06-04T10:39:32Z</time>
      </trkpt>
      <trkpt lat="45.31886" lon="5.75693">
        <ele>1673.3120117188</ele>
        <time>2011-06-04T10:39:35Z</time>
      </trkpt>
      <trkpt lat="45.31886" lon="5.75694">
        <ele>1673.3120117188</ele>
        <time>2011-06-04T10:39:37Z</time>
      </trkpt>
      <trkpt lat="45.31886" lon="5.75711">
        <ele>1673.3120117188</ele>
        <time>2011-06-04T10:39:45Z</time>
      </trkpt>
      <trkpt lat="45.31886" lon="5.75726">
        <ele>1674.2731933594</ele>
        <time>2011-06-04T10:39:52Z</time>
      </trkpt>
      <trkpt lat="45.31889" lon="5.75742">
        <ele>1674.2731933594</ele>
        <time>2011-06-04T10:39:59Z</time>
      </trkpt>
      <trkpt lat="45.31889" lon="5.75748">
        <ele>1674.2731933594</ele>
        <time>2011-06-04T10:40:02Z</time>
      </trkpt>
      <trkpt lat="45.31893" lon="5.7576">
        <ele>1674.2731933594</ele>
        <time>2011-06-04T10:40:08Z</time>
      </trkpt>
      <trkpt lat="45.31894" lon="5.75763">
        <ele>1674.2731933594</ele>
        <time>2011-06-04T10:40:09Z</time>
      </trkpt>
      <trkpt lat="45.319" lon="5.7578">
        <ele>1674.75390625</ele>
        <time>2011-06-04T10:40:17Z</time>
      </trkpt>
      <trkpt lat="45.31907" lon="5.758">
        <ele>1675.234375</ele>
        <time>2011-06-04T10:40:26Z</time>
      </trkpt>
      <trkpt lat="45.31913" lon="5.75817">
        <ele>1675.7150878906</ele>
        <time>2011-06-04T10:40:34Z</time>
      </trkpt>
      <trkpt lat="45.31916" lon="5.75833">
        <ele>1677.6379394531</ele>
        <time>2011-06-04T10:40:42Z</time>
      </trkpt>
      <trkpt lat="45.31921" lon="5.75846">
        <ele>1679.0798339844</ele>
        <time>2011-06-04T10:40:50Z</time>
      </trkpt>
      <trkpt lat="45.31926" lon="5.75856">
        <ele>1680.0412597656</ele>
        <time>2011-06-04T10:40:56Z</time>
      </trkpt>
      <trkpt lat="45.31931" lon="5.75866">
        <ele>1680.5219726562</ele>
        <time>2011-06-04T10:41:03Z</time>
      </trkpt>
      <trkpt lat="45.31938" lon="5.75876">
        <ele>1681.9638671875</ele>
        <time>2011-06-04T10:41:11Z</time>
      </trkpt>
      <trkpt lat="45.31945" lon="5.75887">
        <ele>1683.4057617188</ele>
        <time>2011-06-04T10:41:19Z</time>
      </trkpt>
      <trkpt lat="45.31952" lon="5.759">
        <ele>1685.3283691406</ele>
        <time>2011-06-04T10:41:28Z</time>
      </trkpt>
      <trkpt lat="45.31959" lon="5.75916">
        <ele>1686.2897949219</ele>
        <time>2011-06-04T10:41:36Z</time>
      </trkpt>
      <trkpt lat="45.3196" lon="5.75932">
        <ele>1686.7702636719</ele>
        <time>2011-06-04T10:41:44Z</time>
      </trkpt>
      <trkpt lat="45.31955" lon="5.75943">
        <ele>1689.654296875</ele>
        <time>2011-06-04T10:41:52Z</time>
      </trkpt>
      <trkpt lat="45.31953" lon="5.75951">
        <ele>1691.5769042969</ele>
        <time>2011-06-04T10:41:57Z</time>
      </trkpt>
      <trkpt lat="45.31954" lon="5.75956">
        <ele>1693.0190429688</ele>
        <time>2011-06-04T10:42:01Z</time>
      </trkpt>
      <trkpt lat="45.31953" lon="5.75963">
        <ele>1695.9030761719</ele>
        <time>2011-06-04T10:42:08Z</time>
      </trkpt>
      <trkpt lat="45.31953" lon="5.75969">
        <ele>1698.3061523438</ele>
        <time>2011-06-04T10:42:15Z</time>
      </trkpt>
      <trkpt lat="45.31953" lon="5.75977">
        <ele>1700.2290039062</ele>
        <time>2011-06-04T10:42:22Z</time>
      </trkpt>
      <trkpt lat="45.31952" lon="5.75983">
        <ele>1701.6708984375</ele>
        <time>2011-06-04T10:42:29Z</time>
      </trkpt>
      <trkpt lat="45.31949" lon="5.75991">
        <ele>1703.5935058594</ele>
        <time>2011-06-04T10:42:36Z</time>
      </trkpt>
      <trkpt lat="45.31948" lon="5.75998">
        <ele>1705.5161132812</ele>
        <time>2011-06-04T10:42:43Z</time>
      </trkpt>
      <trkpt lat="45.31947" lon="5.76006">
        <ele>1707.4387207031</ele>
        <time>2011-06-04T10:42:51Z</time>
      </trkpt>
      <trkpt lat="45.31945" lon="5.76011">
        <ele>1708.880859375</ele>
        <time>2011-06-04T10:42:56Z</time>
      </trkpt>
      <trkpt lat="45.31943" lon="5.76019">
        <ele>1710.3227539062</ele>
        <time>2011-06-04T10:43:03Z</time>
      </trkpt>
      <trkpt lat="45.31942" lon="5.76027">
        <ele>1712.2453613281</ele>
        <time>2011-06-04T10:43:09Z</time>
      </trkpt>
      <trkpt lat="45.3194" lon="5.76035">
        <ele>1714.6486816406</ele>
        <time>2011-06-04T10:43:17Z</time>
      </trkpt>
      <trkpt lat="45.31939" lon="5.76044">
        <ele>1716.5712890625</ele>
        <time>2011-06-04T10:43:24Z</time>
      </trkpt>
      <trkpt lat="45.3194" lon="5.7605">
        <ele>1718.0131835938</ele>
        <time>2011-06-04T10:43:30Z</time>
      </trkpt>
      <trkpt lat="45.31938" lon="5.7606">
        <ele>1719.4553222656</ele>
        <time>2011-06-04T10:43:37Z</time>
      </trkpt>
      <trkpt lat="45.31939" lon="5.76069">
        <ele>1719.9357910156</ele>
        <time>2011-06-04T10:43:43Z</time>
      </trkpt>
      <trkpt lat="45.31947" lon="5.76079">
        <ele>1720.8972167969</ele>
        <time>2011-06-04T10:43:51Z</time>
      </trkpt>
      <trkpt lat="45.3195" lon="5.76084">
        <ele>1722.3391113281</ele>
        <time>2011-06-04T10:43:57Z</time>
      </trkpt>
      <trkpt lat="45.31955" lon="5.76089">
        <ele>1724.7426757812</ele>
        <time>2011-06-04T10:44:06Z</time>
      </trkpt>
      <trkpt lat="45.31959" lon="5.76094">
        <ele>1726.1845703125</ele>
        <time>2011-06-04T10:44:12Z</time>
      </trkpt>
      <trkpt lat="45.31964" lon="5.76099">
        <ele>1728.587890625</ele>
        <time>2011-06-04T10:44:20Z</time>
      </trkpt>
      <trkpt lat="45.31968" lon="5.761">
        <ele>1730.5104980469</ele>
        <time>2011-06-04T10:44:25Z</time>
      </trkpt>
      <trkpt lat="45.31971" lon="5.76104">
        <ele>1731.9523925781</ele>
        <time>2011-06-04T10:44:31Z</time>
      </trkpt>
      <trkpt lat="45.31977" lon="5.76111">
        <ele>1732.9135742188</ele>
        <time>2011-06-04T10:44:38Z</time>
      </trkpt>
      <trkpt lat="45.31984" lon="5.76119">
        <ele>1734.8364257812</ele>
        <time>2011-06-04T10:44:46Z</time>
      </trkpt>
      <trkpt lat="45.31984" lon="5.7612">
        <ele>1734.8364257812</ele>
        <time>2011-06-04T10:44:47Z</time>
      </trkpt>
      <trkpt lat="45.31989" lon="5.76121">
        <ele>1737.7202148438</ele>
        <time>2011-06-04T10:44:53Z</time>
      </trkpt>
      <trkpt lat="45.31992" lon="5.76127">
        <ele>1738.681640625</ele>
        <time>2011-06-04T10:44:58Z</time>
      </trkpt>
      <trkpt lat="45.31994" lon="5.76133">
        <ele>1739.162109375</ele>
        <time>2011-06-04T10:45:04Z</time>
      </trkpt>
      <trkpt lat="45.31998" lon="5.76139">
        <ele>1739.6428222656</ele>
        <time>2011-06-04T10:45:09Z</time>
      </trkpt>
      <trkpt lat="45.32005" lon="5.76149">
        <ele>1739.162109375</ele>
        <time>2011-06-04T10:45:16Z</time>
      </trkpt>
      <trkpt lat="45.32012" lon="5.76157">
        <ele>1739.6428222656</ele>
        <time>2011-06-04T10:45:23Z</time>
      </trkpt>
      <trkpt lat="45.32014" lon="5.76161">
        <ele>1740.1237792969</ele>
        <time>2011-06-04T10:45:27Z</time>
      </trkpt>
      <trkpt lat="45.32017" lon="5.76157">
        <ele>1742.0463867188</ele>
        <time>2011-06-04T10:45:33Z</time>
      </trkpt>
      <trkpt lat="45.32019" lon="5.76152">
        <ele>1743.48828125</ele>
        <time>2011-06-04T10:45:38Z</time>
      </trkpt>
      <trkpt lat="45.32019" lon="5.76146">
        <ele>1743.9689941406</ele>
        <time>2011-06-04T10:45:42Z</time>
      </trkpt>
      <trkpt lat="45.32018" lon="5.76136">
        <ele>1745.4108886719</ele>
        <time>2011-06-04T10:45:49Z</time>
      </trkpt>
      <trkpt lat="45.32019" lon="5.76128">
        <ele>1747.3334960938</ele>
        <time>2011-06-04T10:45:55Z</time>
      </trkpt>
      <trkpt lat="45.32022" lon="5.76123">
        <ele>1748.775390625</ele>
        <time>2011-06-04T10:46:00Z</time>
      </trkpt>
      <trkpt lat="45.32026" lon="5.76123">
        <ele>1750.2175292969</ele>
        <time>2011-06-04T10:46:05Z</time>
      </trkpt>
      <trkpt lat="45.32029" lon="5.76128">
        <ele>1750.6979980469</ele>
        <time>2011-06-04T10:46:10Z</time>
      </trkpt>
      <trkpt lat="45.32032" lon="5.76135">
        <ele>1751.1787109375</ele>
        <time>2011-06-04T10:46:15Z</time>
      </trkpt>
      <trkpt lat="45.32034" lon="5.76141">
        <ele>1751.1787109375</ele>
        <time>2011-06-04T10:46:19Z</time>
      </trkpt>
      <trkpt lat="45.32036" lon="5.76138">
        <ele>1752.1398925781</ele>
        <time>2011-06-04T10:46:25Z</time>
      </trkpt>
      <trkpt lat="45.32038" lon="5.76131">
        <ele>1754.0627441406</ele>
        <time>2011-06-04T10:46:30Z</time>
      </trkpt>
      <trkpt lat="45.3204" lon="5.76128">
        <ele>1755.0239257812</ele>
        <time>2011-06-04T10:46:33Z</time>
      </trkpt>
      <trkpt lat="45.32042" lon="5.76126">
        <ele>1755.9851074219</ele>
        <time>2011-06-04T10:46:38Z</time>
      </trkpt>
      <trkpt lat="45.32043" lon="5.76128">
        <ele>1756.4660644531</ele>
        <time>2011-06-04T10:46:39Z</time>
      </trkpt>
      <trkpt lat="45.32045" lon="5.76141">
        <ele>1757.908203125</ele>
        <time>2011-06-04T10:46:47Z</time>
      </trkpt>
      <trkpt lat="45.32047" lon="5.76145">
        <ele>1758.388671875</ele>
        <time>2011-06-04T10:46:50Z</time>
      </trkpt>
      <trkpt lat="45.32048" lon="5.76142">
        <ele>1759.3500976562</ele>
        <time>2011-06-04T10:46:54Z</time>
      </trkpt>
      <trkpt lat="45.32051" lon="5.76134">
        <ele>1760.7919921875</ele>
        <time>2011-06-04T10:47:00Z</time>
      </trkpt>
      <trkpt lat="45.32057" lon="5.76132">
        <ele>1761.7534179688</ele>
        <time>2011-06-04T10:47:06Z</time>
      </trkpt>
      <trkpt lat="45.32059" lon="5.76137">
        <ele>1762.2338867188</ele>
        <time>2011-06-04T10:47:09Z</time>
      </trkpt>
      <trkpt lat="45.32063" lon="5.76143">
        <ele>1763.67578125</ele>
        <time>2011-06-04T10:47:14Z</time>
      </trkpt>
      <trkpt lat="45.32064" lon="5.76147">
        <ele>1764.6372070312</ele>
        <time>2011-06-04T10:47:18Z</time>
      </trkpt>
      <trkpt lat="45.32067" lon="5.76151">
        <ele>1765.5986328125</ele>
        <time>2011-06-04T10:47:23Z</time>
      </trkpt>
      <trkpt lat="45.32072" lon="5.7616">
        <ele>1766.5598144531</ele>
        <time>2011-06-04T10:47:30Z</time>
      </trkpt>
      <trkpt lat="45.32073" lon="5.76161">
        <ele>1766.5598144531</ele>
        <time>2011-06-04T10:47:31Z</time>
      </trkpt>
      <trkpt lat="45.32077" lon="5.76158">
        <ele>1768.482421875</ele>
        <time>2011-06-04T10:47:38Z</time>
      </trkpt>
      <trkpt lat="45.3208" lon="5.7615">
        <ele>1770.4050292969</ele>
        <time>2011-06-04T10:47:44Z</time>
      </trkpt>
      <trkpt lat="45.32082" lon="5.76146">
        <ele>1771.3662109375</ele>
        <time>2011-06-04T10:47:47Z</time>
      </trkpt>
      <trkpt lat="45.32087" lon="5.76148">
        <ele>1772.3278808594</ele>
        <time>2011-06-04T10:47:53Z</time>
      </trkpt>
      <trkpt lat="45.32089" lon="5.76152">
        <ele>1772.80859375</ele>
        <time>2011-06-04T10:47:56Z</time>
      </trkpt>
      <trkpt lat="45.3209" lon="5.76155">
        <ele>1773.2893066406</ele>
        <time>2011-06-04T10:47:58Z</time>
      </trkpt>
      <trkpt lat="45.32096" lon="5.76156">
        <ele>1774.7312011719</ele>
        <time>2011-06-04T10:48:05Z</time>
      </trkpt>
      <trkpt lat="45.32098" lon="5.76161">
        <ele>1775.6923828125</ele>
        <time>2011-06-04T10:48:09Z</time>
      </trkpt>
      <trkpt lat="45.32102" lon="5.76171">
        <ele>1776.1730957031</ele>
        <time>2011-06-04T10:48:15Z</time>
      </trkpt>
      <trkpt lat="45.32105" lon="5.76176">
        <ele>1776.1730957031</ele>
        <time>2011-06-04T10:48:19Z</time>
      </trkpt>
      <trkpt lat="45.32106" lon="5.7617">
        <ele>1777.6149902344</ele>
        <time>2011-06-04T10:48:24Z</time>
      </trkpt>
      <trkpt lat="45.32108" lon="5.7616">
        <ele>1779.0568847656</ele>
        <time>2011-06-04T10:48:31Z</time>
      </trkpt>
      <trkpt lat="45.32113" lon="5.76149">
        <ele>1782.4216308594</ele>
        <time>2011-06-04T10:48:39Z</time>
      </trkpt>
      <trkpt lat="45.32114" lon="5.76148">
        <ele>1782.4216308594</ele>
        <time>2011-06-04T10:48:40Z</time>
      </trkpt>
      <trkpt lat="45.32117" lon="5.76149">
        <ele>1783.8635253906</ele>
        <time>2011-06-04T10:48:44Z</time>
      </trkpt>
      <trkpt lat="45.32123" lon="5.76151">
        <ele>1784.8249511719</ele>
        <time>2011-06-04T10:48:51Z</time>
      </trkpt>
      <trkpt lat="45.32126" lon="5.7616">
        <ele>1786.2668457031</ele>
        <time>2011-06-04T10:48:58Z</time>
      </trkpt>
      <trkpt lat="45.3213" lon="5.76163">
        <ele>1787.7087402344</ele>
        <time>2011-06-04T10:49:04Z</time>
      </trkpt>
      <trkpt lat="45.32134" lon="5.76165">
        <ele>1788.6704101562</ele>
        <time>2011-06-04T10:49:10Z</time>
      </trkpt>
      <trkpt lat="45.32135" lon="5.76159">
        <ele>1791.0734863281</ele>
        <time>2011-06-04T10:49:15Z</time>
      </trkpt>
      <trkpt lat="45.32136" lon="5.7615">
        <ele>1793.4768066406</ele>
        <time>2011-06-04T10:49:21Z</time>
      </trkpt>
      <trkpt lat="45.3214" lon="5.76152">
        <ele>1794.4379882812</ele>
        <time>2011-06-04T10:49:26Z</time>
      </trkpt>
      <trkpt lat="45.32145" lon="5.76159">
        <ele>1794.9187011719</ele>
        <time>2011-06-04T10:49:32Z</time>
      </trkpt>
      <trkpt lat="45.32148" lon="5.76163">
        <ele>1795.3994140625</ele>
        <time>2011-06-04T10:49:37Z</time>
      </trkpt>
      <trkpt lat="45.32151" lon="5.76158">
        <ele>1796.8413085938</ele>
        <time>2011-06-04T10:49:43Z</time>
      </trkpt>
      <trkpt lat="45.32154" lon="5.76153">
        <ele>1797.802734375</ele>
        <time>2011-06-04T10:49:48Z</time>
      </trkpt>
      <trkpt lat="45.32158" lon="5.76155">
        <ele>1798.7639160156</ele>
        <time>2011-06-04T10:49:53Z</time>
      </trkpt>
      <trkpt lat="45.32161" lon="5.76166">
        <ele>1800.2060546875</ele>
        <time>2011-06-04T10:50:01Z</time>
      </trkpt>
      <trkpt lat="45.32163" lon="5.76171">
        <ele>1800.2060546875</ele>
        <time>2011-06-04T10:50:05Z</time>
      </trkpt>
      <trkpt lat="45.32168" lon="5.76185">
        <ele>1800.6865234375</ele>
        <time>2011-06-04T10:50:13Z</time>
      </trkpt>
      <trkpt lat="45.32169" lon="5.76187">
        <ele>1800.6865234375</ele>
        <time>2011-06-04T10:50:15Z</time>
      </trkpt>
      <trkpt lat="45.32174" lon="5.76196">
        <ele>1803.08984375</ele>
        <time>2011-06-04T10:50:23Z</time>
      </trkpt>
      <trkpt lat="45.32179" lon="5.76204">
        <ele>1804.0515136719</ele>
        <time>2011-06-04T10:50:30Z</time>
      </trkpt>
      <trkpt lat="45.32185" lon="5.76211">
        <ele>1805.0126953125</ele>
        <time>2011-06-04T10:50:37Z</time>
      </trkpt>
      <trkpt lat="45.32188" lon="5.76212">
        <ele>1805.0126953125</ele>
        <time>2011-06-04T10:50:39Z</time>
      </trkpt>
      <trkpt lat="45.32189" lon="5.76207">
        <ele>1806.4545898438</ele>
        <time>2011-06-04T10:50:45Z</time>
      </trkpt>
      <trkpt lat="45.32189" lon="5.76205">
        <ele>1806.9353027344</ele>
        <time>2011-06-04T10:50:46Z</time>
      </trkpt>
      <trkpt lat="45.32191" lon="5.76195">
        <ele>1807.8967285156</ele>
        <time>2011-06-04T10:50:52Z</time>
      </trkpt>
      <trkpt lat="45.32194" lon="5.76181">
        <ele>1810.2998046875</ele>
        <time>2011-06-04T10:51:00Z</time>
      </trkpt>
      <trkpt lat="45.32196" lon="5.76172">
        <ele>1812.2224121094</ele>
        <time>2011-06-04T10:51:06Z</time>
      </trkpt>
      <trkpt lat="45.32197" lon="5.76162">
        <ele>1813.6643066406</ele>
        <time>2011-06-04T10:51:12Z</time>
      </trkpt>
      <trkpt lat="45.32199" lon="5.76158">
        <ele>1814.6257324219</ele>
        <time>2011-06-04T10:51:16Z</time>
      </trkpt>
      <trkpt lat="45.32201" lon="5.76157">
        <ele>1815.5871582031</ele>
        <time>2011-06-04T10:51:21Z</time>
      </trkpt>
      <trkpt lat="45.32201" lon="5.76161">
        <ele>1815.1064453125</ele>
        <time>2011-06-04T10:51:24Z</time>
      </trkpt>
      <trkpt lat="45.32206" lon="5.76165">
        <ele>1815.5871582031</ele>
        <time>2011-06-04T10:51:29Z</time>
      </trkpt>
      <trkpt lat="45.32212" lon="5.76174">
        <ele>1815.5871582031</ele>
        <time>2011-06-04T10:51:36Z</time>
      </trkpt>
      <trkpt lat="45.32215" lon="5.76176">
        <ele>1817.5095214844</ele>
        <time>2011-06-04T10:51:41Z</time>
      </trkpt>
      <trkpt lat="45.32219" lon="5.76179">
        <ele>1818.4709472656</ele>
        <time>2011-06-04T10:51:45Z</time>
      </trkpt>
      <trkpt lat="45.32225" lon="5.76182">
        <ele>1820.3937988281</ele>
        <time>2011-06-04T10:51:51Z</time>
      </trkpt>
      <trkpt lat="45.32228" lon="5.7618">
        <ele>1821.8356933594</ele>
        <time>2011-06-04T10:51:56Z</time>
      </trkpt>
      <trkpt lat="45.32232" lon="5.76181">
        <ele>1824.2390136719</ele>
        <time>2011-06-04T10:52:02Z</time>
      </trkpt>
      <trkpt lat="45.32233" lon="5.76177">
        <ele>1825.6809082031</ele>
        <time>2011-06-04T10:52:06Z</time>
      </trkpt>
      <trkpt lat="45.32237" lon="5.76181">
        <ele>1826.6423339844</ele>
        <time>2011-06-04T10:52:11Z</time>
      </trkpt>
      <trkpt lat="45.3224" lon="5.76182">
        <ele>1826.6423339844</ele>
        <time>2011-06-04T10:52:15Z</time>
      </trkpt>
      <trkpt lat="45.32244" lon="5.76183">
        <ele>1827.603515625</ele>
        <time>2011-06-04T10:52:19Z</time>
      </trkpt>
      <trkpt lat="45.32249" lon="5.76182">
        <ele>1828.5649414062</ele>
        <time>2011-06-04T10:52:25Z</time>
      </trkpt>
      <trkpt lat="45.32255" lon="5.7618">
        <ele>1829.5261230469</ele>
        <time>2011-06-04T10:52:32Z</time>
      </trkpt>
      <trkpt lat="45.3226" lon="5.76176">
        <ele>1831.4487304688</ele>
        <time>2011-06-04T10:52:38Z</time>
      </trkpt>
      <trkpt lat="45.32263" lon="5.76175">
        <ele>1832.41015625</ele>
        <time>2011-06-04T10:52:41Z</time>
      </trkpt>
      <trkpt lat="45.32268" lon="5.76176">
        <ele>1832.890625</ele>
        <time>2011-06-04T10:52:45Z</time>
      </trkpt>
      <trkpt lat="45.32275" lon="5.76174">
        <ele>1833.3713378906</ele>
        <time>2011-06-04T10:52:51Z</time>
      </trkpt>
      <trkpt lat="45.32282" lon="5.7618">
        <ele>1833.3713378906</ele>
        <time>2011-06-04T10:52:57Z</time>
      </trkpt>
      <trkpt lat="45.32287" lon="5.7619">
        <ele>1833.3713378906</ele>
        <time>2011-06-04T10:53:04Z</time>
      </trkpt>
      <trkpt lat="45.3229" lon="5.76192">
        <ele>1834.3327636719</ele>
        <time>2011-06-04T10:53:07Z</time>
      </trkpt>
      <trkpt lat="45.32294" lon="5.76191">
        <ele>1835.7746582031</ele>
        <time>2011-06-04T10:53:13Z</time>
      </trkpt>
      <trkpt lat="45.32294" lon="5.76196">
        <ele>1837.6975097656</ele>
        <time>2011-06-04T10:53:19Z</time>
      </trkpt>
      <trkpt lat="45.32297" lon="5.76197">
        <ele>1839.1394042969</ele>
        <time>2011-06-04T10:53:24Z</time>
      </trkpt>
      <trkpt lat="45.32301" lon="5.76201">
        <ele>1839.1394042969</ele>
        <time>2011-06-04T10:53:29Z</time>
      </trkpt>
      <trkpt lat="45.32303" lon="5.7621">
        <ele>1838.1782226562</ele>
        <time>2011-06-04T10:53:35Z</time>
      </trkpt>
      <trkpt lat="45.32305" lon="5.76213">
        <ele>1836.2556152344</ele>
        <time>2011-06-04T10:53:39Z</time>
      </trkpt>
      <trkpt lat="45.3231" lon="5.76218">
        <ele>1835.2939453125</ele>
        <time>2011-06-04T10:53:44Z</time>
      </trkpt>
      <trkpt lat="45.32321" lon="5.76214">
        <ele>1834.3327636719</ele>
        <time>2011-06-04T10:53:51Z</time>
      </trkpt>
      <trkpt lat="45.32328" lon="5.76221">
        <ele>1833.8520507812</ele>
        <time>2011-06-04T10:53:55Z</time>
      </trkpt>
      <trkpt lat="45.32333" lon="5.76227">
        <ele>1833.8520507812</ele>
        <time>2011-06-04T10:53:59Z</time>
      </trkpt>
      <trkpt lat="45.32339" lon="5.76236">
        <ele>1833.8520507812</ele>
        <time>2011-06-04T10:54:03Z</time>
      </trkpt>
      <trkpt lat="45.3235" lon="5.76244">
        <ele>1831.4487304688</ele>
        <time>2011-06-04T10:54:08Z</time>
      </trkpt>
      <trkpt lat="45.32353" lon="5.7625">
        <ele>1831.4487304688</ele>
        <time>2011-06-04T10:54:11Z</time>
      </trkpt>
      <trkpt lat="45.32365" lon="5.76264">
        <ele>1831.4487304688</ele>
        <time>2011-06-04T10:54:18Z</time>
      </trkpt>
      <trkpt lat="45.32374" lon="5.76276">
        <ele>1830.4875488281</ele>
        <time>2011-06-04T10:54:24Z</time>
      </trkpt>
      <trkpt lat="45.32383" lon="5.76287">
        <ele>1830.9682617188</ele>
        <time>2011-06-04T10:54:30Z</time>
      </trkpt>
      <trkpt lat="45.32389" lon="5.76295">
        <ele>1831.9294433594</ele>
        <time>2011-06-04T10:54:37Z</time>
      </trkpt>
      <trkpt lat="45.32397" lon="5.76302">
        <ele>1832.890625</ele>
        <time>2011-06-04T10:54:44Z</time>
      </trkpt>
      <trkpt lat="45.32401" lon="5.76304">
        <ele>1833.3713378906</ele>
        <time>2011-06-04T10:54:47Z</time>
      </trkpt>
      <trkpt lat="45.32403" lon="5.7631">
        <ele>1834.8134765625</ele>
        <time>2011-06-04T10:54:51Z</time>
      </trkpt>
      <trkpt lat="45.32408" lon="5.76314">
        <ele>1835.7746582031</ele>
        <time>2011-06-04T10:54:56Z</time>
      </trkpt>
      <trkpt lat="45.3241" lon="5.76319">
        <ele>1837.6975097656</ele>
        <time>2011-06-04T10:55:02Z</time>
      </trkpt>
      <trkpt lat="45.32415" lon="5.76324">
        <ele>1838.6589355469</ele>
        <time>2011-06-04T10:55:08Z</time>
      </trkpt>
      <trkpt lat="45.32421" lon="5.76327">
        <ele>1840.1008300781</ele>
        <time>2011-06-04T10:55:15Z</time>
      </trkpt>
      <trkpt lat="45.32424" lon="5.76333">
        <ele>1841.5427246094</ele>
        <time>2011-06-04T10:55:21Z</time>
      </trkpt>
      <trkpt lat="45.32429" lon="5.76336">
        <ele>1842.5041503906</ele>
        <time>2011-06-04T10:55:27Z</time>
      </trkpt>
      <trkpt lat="45.32433" lon="5.76339">
        <ele>1843.4653320312</ele>
        <time>2011-06-04T10:55:32Z</time>
      </trkpt>
      <trkpt lat="45.32437" lon="5.76342">
        <ele>1844.4265136719</ele>
        <time>2011-06-04T10:55:37Z</time>
      </trkpt>
      <trkpt lat="45.32442" lon="5.76348">
        <ele>1845.8686523438</ele>
        <time>2011-06-04T10:55:44Z</time>
      </trkpt>
      <trkpt lat="45.32446" lon="5.76355">
        <ele>1847.310546875</ele>
        <time>2011-06-04T10:55:51Z</time>
      </trkpt>
      <trkpt lat="45.32449" lon="5.76358">
        <ele>1847.7912597656</ele>
        <time>2011-06-04T10:55:56Z</time>
      </trkpt>
      <trkpt lat="45.32452" lon="5.76365">
        <ele>1849.7138671875</ele>
        <time>2011-06-04T10:56:03Z</time>
      </trkpt>
      <trkpt lat="45.32455" lon="5.76372">
        <ele>1851.1557617188</ele>
        <time>2011-06-04T10:56:10Z</time>
      </trkpt>
      <trkpt lat="45.32457" lon="5.76377">
        <ele>1852.1171875</ele>
        <time>2011-06-04T10:56:15Z</time>
      </trkpt>
      <trkpt lat="45.32462" lon="5.76383">
        <ele>1853.0786132812</ele>
        <time>2011-06-04T10:56:22Z</time>
      </trkpt>
      <trkpt lat="45.32467" lon="5.76388">
        <ele>1855.0012207031</ele>
        <time>2011-06-04T10:56:29Z</time>
      </trkpt>
      <trkpt lat="45.32471" lon="5.7639">
        <ele>1856.4431152344</ele>
        <time>2011-06-04T10:56:34Z</time>
      </trkpt>
      <trkpt lat="45.32477" lon="5.76392">
        <ele>1858.3657226562</ele>
        <time>2011-06-04T10:56:41Z</time>
      </trkpt>
      <trkpt lat="45.32479" lon="5.76398">
        <ele>1860.2883300781</ele>
        <time>2011-06-04T10:56:48Z</time>
      </trkpt>
      <trkpt lat="45.32484" lon="5.76399">
        <ele>1861.73046875</ele>
        <time>2011-06-04T10:56:54Z</time>
      </trkpt>
      <trkpt lat="45.32489" lon="5.76401">
        <ele>1863.1723632812</ele>
        <time>2011-06-04T10:57:00Z</time>
      </trkpt>
      <trkpt lat="45.32493" lon="5.76406">
        <ele>1864.1335449219</ele>
        <time>2011-06-04T10:57:07Z</time>
      </trkpt>
      <trkpt lat="45.32495" lon="5.76411">
        <ele>1865.5756835938</ele>
        <time>2011-06-04T10:57:13Z</time>
      </trkpt>
      <trkpt lat="45.32497" lon="5.76414">
        <ele>1866.5368652344</ele>
        <time>2011-06-04T10:57:19Z</time>
      </trkpt>
      <trkpt lat="45.32495" lon="5.7641">
        <ele>1866.0561523438</ele>
        <time>2011-06-04T10:57:26Z</time>
      </trkpt>
      <trkpt lat="45.32492" lon="5.76404">
        <ele>1864.1335449219</ele>
        <time>2011-06-04T10:57:33Z</time>
      </trkpt>
      <trkpt lat="45.32488" lon="5.764">
        <ele>1863.1723632812</ele>
        <time>2011-06-04T10:57:37Z</time>
      </trkpt>
      <trkpt lat="45.32479" lon="5.76397">
        <ele>1861.2497558594</ele>
        <time>2011-06-04T10:57:43Z</time>
      </trkpt>
      <trkpt lat="45.32476" lon="5.76391">
        <ele>1859.8076171875</ele>
        <time>2011-06-04T10:57:47Z</time>
      </trkpt>
      <trkpt lat="45.32473" lon="5.76389">
        <ele>1859.3271484375</ele>
        <time>2011-06-04T10:57:50Z</time>
      </trkpt>
      <trkpt lat="45.3247" lon="5.76389">
        <ele>1859.3271484375</ele>
        <time>2011-06-04T10:57:52Z</time>
      </trkpt>
      <trkpt lat="45.32462" lon="5.76388">
        <ele>1858.3657226562</ele>
        <time>2011-06-04T10:57:57Z</time>
      </trkpt>
      <trkpt lat="45.32454" lon="5.76387">
        <ele>1856.4431152344</ele>
        <time>2011-06-04T10:58:02Z</time>
      </trkpt>
      <trkpt lat="45.32448" lon="5.76384">
        <ele>1855.0012207031</ele>
        <time>2011-06-04T10:58:06Z</time>
      </trkpt>
      <trkpt lat="45.32445" lon="5.76378">
        <ele>1853.5593261719</ele>
        <time>2011-06-04T10:58:09Z</time>
      </trkpt>
      <trkpt lat="45.32437" lon="5.76373">
        <ele>1851.1557617188</ele>
        <time>2011-06-04T10:58:15Z</time>
      </trkpt>
      <trkpt lat="45.32435" lon="5.76373">
        <ele>1850.6750488281</ele>
        <time>2011-06-04T10:58:16Z</time>
      </trkpt>
      <trkpt lat="45.32429" lon="5.76363">
        <ele>1848.7524414062</ele>
        <time>2011-06-04T10:58:21Z</time>
      </trkpt>
      <trkpt lat="45.32428" lon="5.76361">
        <ele>1848.2717285156</ele>
        <time>2011-06-04T10:58:22Z</time>
      </trkpt>
      <trkpt lat="45.32426" lon="5.76352">
        <ele>1846.3493652344</ele>
        <time>2011-06-04T10:58:26Z</time>
      </trkpt>
      <trkpt lat="45.32422" lon="5.76345">
        <ele>1844.4265136719</ele>
        <time>2011-06-04T10:58:31Z</time>
      </trkpt>
      <trkpt lat="45.32421" lon="5.76343">
        <ele>1844.4265136719</ele>
        <time>2011-06-04T10:58:32Z</time>
      </trkpt>
      <trkpt lat="45.32414" lon="5.76331">
        <ele>1842.5041503906</ele>
        <time>2011-06-04T10:58:38Z</time>
      </trkpt>
      <trkpt lat="45.32407" lon="5.76322">
        <ele>1840.1008300781</ele>
        <time>2011-06-04T10:58:44Z</time>
      </trkpt>
      <trkpt lat="45.32402" lon="5.7631">
        <ele>1837.6975097656</ele>
        <time>2011-06-04T10:58:50Z</time>
      </trkpt>
      <trkpt lat="45.32397" lon="5.76304">
        <ele>1837.216796875</ele>
        <time>2011-06-04T10:58:54Z</time>
      </trkpt>
      <trkpt lat="45.32389" lon="5.76292">
        <ele>1835.7746582031</ele>
        <time>2011-06-04T10:59:00Z</time>
      </trkpt>
      <trkpt lat="45.32385" lon="5.76288">
        <ele>1835.2939453125</ele>
        <time>2011-06-04T10:59:02Z</time>
      </trkpt>
      <trkpt lat="45.32373" lon="5.76289">
        <ele>1834.3327636719</ele>
        <time>2011-06-04T10:59:08Z</time>
      </trkpt>
      <trkpt lat="45.32361" lon="5.76297">
        <ele>1833.3713378906</ele>
        <time>2011-06-04T10:59:14Z</time>
      </trkpt>
      <trkpt lat="45.32351" lon="5.76299">
        <ele>1832.41015625</ele>
        <time>2011-06-04T10:59:19Z</time>
      </trkpt>
      <trkpt lat="45.32339" lon="5.763">
        <ele>1830.9682617188</ele>
        <time>2011-06-04T10:59:25Z</time>
      </trkpt>
      <trkpt lat="45.32326" lon="5.76301">
        <ele>1828.5649414062</ele>
        <time>2011-06-04T10:59:31Z</time>
      </trkpt>
      <trkpt lat="45.32318" lon="5.76295">
        <ele>1825.2001953125</ele>
        <time>2011-06-04T10:59:35Z</time>
      </trkpt>
      <trkpt lat="45.32315" lon="5.76291">
        <ele>1823.7583007812</ele>
        <time>2011-06-04T10:59:37Z</time>
      </trkpt>
      <trkpt lat="45.32308" lon="5.7629">
        <ele>1820.8745117188</ele>
        <time>2011-06-04T10:59:41Z</time>
      </trkpt>
      <trkpt lat="45.32299" lon="5.7629">
        <ele>1817.5095214844</ele>
        <time>2011-06-04T10:59:46Z</time>
      </trkpt>
      <trkpt lat="45.32286" lon="5.76287">
        <ele>1810.7805175781</ele>
        <time>2011-06-04T10:59:54Z</time>
      </trkpt>
      <trkpt lat="45.32285" lon="5.76287">
        <ele>1809.8190917969</ele>
        <time>2011-06-04T10:59:55Z</time>
      </trkpt>
      <trkpt lat="45.32275" lon="5.76285">
        <ele>1805.0126953125</ele>
        <time>2011-06-04T11:00:01Z</time>
      </trkpt>
      <trkpt lat="45.32264" lon="5.76285">
        <ele>1799.2446289062</ele>
        <time>2011-06-04T11:00:07Z</time>
      </trkpt>
      <trkpt lat="45.32256" lon="5.76285">
        <ele>1795.8801269531</ele>
        <time>2011-06-04T11:00:12Z</time>
      </trkpt>
      <trkpt lat="45.32248" lon="5.76284">
        <ele>1792.515625</ele>
        <time>2011-06-04T11:00:17Z</time>
      </trkpt>
      <trkpt lat="45.32235" lon="5.76286">
        <ele>1788.1896972656</ele>
        <time>2011-06-04T11:00:24Z</time>
      </trkpt>
      <trkpt lat="45.32227" lon="5.76287">
        <ele>1786.2668457031</ele>
        <time>2011-06-04T11:00:28Z</time>
      </trkpt>
      <trkpt lat="45.32217" lon="5.76288">
        <ele>1783.3828125</ele>
        <time>2011-06-04T11:00:33Z</time>
      </trkpt>
      <trkpt lat="45.32202" lon="5.76291">
        <ele>1777.1345214844</ele>
        <time>2011-06-04T11:00:42Z</time>
      </trkpt>
      <trkpt lat="45.32193" lon="5.76296">
        <ele>1773.7697753906</ele>
        <time>2011-06-04T11:00:47Z</time>
      </trkpt>
      <trkpt lat="45.32191" lon="5.76297">
        <ele>1773.2893066406</ele>
        <time>2011-06-04T11:00:48Z</time>
      </trkpt>
      <trkpt lat="45.32186" lon="5.76297">
        <ele>1770.8857421875</ele>
        <time>2011-06-04T11:00:51Z</time>
      </trkpt>
      <trkpt lat="45.3218" lon="5.76299">
        <ele>1769.4438476562</ele>
        <time>2011-06-04T11:00:54Z</time>
      </trkpt>
      <trkpt lat="45.32177" lon="5.76297">
        <ele>1768.482421875</ele>
        <time>2011-06-04T11:00:56Z</time>
      </trkpt>
      <trkpt lat="45.32175" lon="5.76296">
        <ele>1768.0017089844</ele>
        <time>2011-06-04T11:00:57Z</time>
      </trkpt>
      <trkpt lat="45.32174" lon="5.76295">
        <ele>1768.0017089844</ele>
        <time>2011-06-04T11:00:58Z</time>
      </trkpt>
      <trkpt lat="45.32166" lon="5.76297">
        <ele>1765.5986328125</ele>
        <time>2011-06-04T11:01:04Z</time>
      </trkpt>
      <trkpt lat="45.32164" lon="5.763">
        <ele>1764.1564941406</ele>
        <time>2011-06-04T11:01:06Z</time>
      </trkpt>
      <trkpt lat="45.32162" lon="5.76301">
        <ele>1764.1564941406</ele>
        <time>2011-06-04T11:01:07Z</time>
      </trkpt>
      <trkpt lat="45.32155" lon="5.76305">
        <ele>1762.2338867188</ele>
        <time>2011-06-04T11:01:11Z</time>
      </trkpt>
      <trkpt lat="45.32149" lon="5.76302">
        <ele>1760.3112792969</ele>
        <time>2011-06-04T11:01:15Z</time>
      </trkpt>
      <trkpt lat="45.32137" lon="5.76301">
        <ele>1755.9851074219</ele>
        <time>2011-06-04T11:01:22Z</time>
      </trkpt>
      <trkpt lat="45.32132" lon="5.76296">
        <ele>1754.5432128906</ele>
        <time>2011-06-04T11:01:28Z</time>
      </trkpt>
      <trkpt lat="45.32126" lon="5.76291">
        <ele>1753.1013183594</ele>
        <time>2011-06-04T11:01:32Z</time>
      </trkpt>
      <trkpt lat="45.32116" lon="5.76287">
        <ele>1750.6979980469</ele>
        <time>2011-06-04T11:01:38Z</time>
      </trkpt>
      <trkpt lat="45.32109" lon="5.76283">
        <ele>1747.8142089844</ele>
        <time>2011-06-04T11:01:43Z</time>
      </trkpt>
      <trkpt lat="45.32108" lon="5.76284">
        <ele>1747.3334960938</ele>
        <time>2011-06-04T11:01:44Z</time>
      </trkpt>
      <trkpt lat="45.32098" lon="5.76284">
        <ele>1743.0075683594</ele>
        <time>2011-06-04T11:01:51Z</time>
      </trkpt>
      <trkpt lat="45.32096" lon="5.76285">
        <ele>1742.0463867188</ele>
        <time>2011-06-04T11:01:52Z</time>
      </trkpt>
      <trkpt lat="45.32088" lon="5.76286">
        <ele>1738.681640625</ele>
        <time>2011-06-04T11:01:58Z</time>
      </trkpt>
      <trkpt lat="45.32082" lon="5.76291">
        <ele>1735.3168945312</ele>
        <time>2011-06-04T11:02:03Z</time>
      </trkpt>
      <trkpt lat="45.32082" lon="5.76299">
        <ele>1734.3557128906</ele>
        <time>2011-06-04T11:02:06Z</time>
      </trkpt>
      <trkpt lat="45.32087" lon="5.76315">
        <ele>1732.4331054688</ele>
        <time>2011-06-04T11:02:12Z</time>
      </trkpt>
      <trkpt lat="45.3209" lon="5.76323">
        <ele>1732.4331054688</ele>
        <time>2011-06-04T11:02:15Z</time>
      </trkpt>
      <trkpt lat="45.32096" lon="5.7634">
        <ele>1731.9523925781</ele>
        <time>2011-06-04T11:02:21Z</time>
      </trkpt>
      <trkpt lat="45.32099" lon="5.76345">
        <ele>1731.9523925781</ele>
        <time>2011-06-04T11:02:23Z</time>
      </trkpt>
      <trkpt lat="45.321" lon="5.76347">
        <ele>1731.9523925781</ele>
        <time>2011-06-04T11:02:24Z</time>
      </trkpt>
      <trkpt lat="45.32106" lon="5.76358">
        <ele>1731.9523925781</ele>
        <time>2011-06-04T11:02:29Z</time>
      </trkpt>
      <trkpt lat="45.32111" lon="5.76369">
        <ele>1730.9912109375</ele>
        <time>2011-06-04T11:02:34Z</time>
      </trkpt>
      <trkpt lat="45.32114" lon="5.76373">
        <ele>1730.5104980469</ele>
        <time>2011-06-04T11:02:36Z</time>
      </trkpt>
      <trkpt lat="45.32114" lon="5.76374">
        <ele>1730.5104980469</ele>
        <time>2011-06-04T11:02:37Z</time>
      </trkpt>
      <trkpt lat="45.32119" lon="5.76376">
        <ele>1729.5490722656</ele>
        <time>2011-06-04T11:02:40Z</time>
      </trkpt>
      <trkpt lat="45.32122" lon="5.7638">
        <ele>1729.068359375</ele>
        <time>2011-06-04T11:02:42Z</time>
      </trkpt>
      <trkpt lat="45.32124" lon="5.76381">
        <ele>1728.587890625</ele>
        <time>2011-06-04T11:02:43Z</time>
      </trkpt>
      <trkpt lat="45.32125" lon="5.76385">
        <ele>1727.6264648438</ele>
        <time>2011-06-04T11:02:45Z</time>
      </trkpt>
      <trkpt lat="45.32129" lon="5.76389">
        <ele>1726.1845703125</ele>
        <time>2011-06-04T11:02:48Z</time>
      </trkpt>
      <trkpt lat="45.32131" lon="5.76395">
        <ele>1724.2619628906</ele>
        <time>2011-06-04T11:02:53Z</time>
      </trkpt>
      <trkpt lat="45.32133" lon="5.76405">
        <ele>1721.8583984375</ele>
        <time>2011-06-04T11:02:58Z</time>
      </trkpt>
      <trkpt lat="45.32135" lon="5.76411">
        <ele>1720.4165039062</ele>
        <time>2011-06-04T11:03:01Z</time>
      </trkpt>
      <trkpt lat="45.32135" lon="5.76415">
        <ele>1719.4553222656</ele>
        <time>2011-06-04T11:03:03Z</time>
      </trkpt>
      <trkpt lat="45.32136" lon="5.76422">
        <ele>1718.0131835938</ele>
        <time>2011-06-04T11:03:07Z</time>
      </trkpt>
      <trkpt lat="45.3214" lon="5.76427">
        <ele>1716.0905761719</ele>
        <time>2011-06-04T11:03:12Z</time>
      </trkpt>
      <trkpt lat="45.32137" lon="5.76434">
        <ele>1714.16796875</ele>
        <time>2011-06-04T11:03:18Z</time>
      </trkpt>
      <trkpt lat="45.32139" lon="5.76436">
        <ele>1712.2453613281</ele>
        <time>2011-06-04T11:03:21Z</time>
      </trkpt>
      <trkpt lat="45.32141" lon="5.76444">
        <ele>1708.880859375</ele>
        <time>2011-06-04T11:03:26Z</time>
      </trkpt>
      <trkpt lat="45.32143" lon="5.76455">
        <ele>1706.9580078125</ele>
        <time>2011-06-04T11:03:32Z</time>
      </trkpt>
      <trkpt lat="45.32146" lon="5.76463">
        <ele>1704.07421875</ele>
        <time>2011-06-04T11:03:37Z</time>
      </trkpt>
      <trkpt lat="45.32148" lon="5.76468">
        <ele>1702.1513671875</ele>
        <time>2011-06-04T11:03:40Z</time>
      </trkpt>
      <trkpt lat="45.32152" lon="5.76474">
        <ele>1699.7482910156</ele>
        <time>2011-06-04T11:03:46Z</time>
      </trkpt>
      <trkpt lat="45.32152" lon="5.76476">
        <ele>1698.7868652344</ele>
        <time>2011-06-04T11:03:48Z</time>
      </trkpt>
      <trkpt lat="45.32153" lon="5.76481">
        <ele>1695.9030761719</ele>
        <time>2011-06-04T11:03:54Z</time>
      </trkpt>
      <trkpt lat="45.32152" lon="5.76483">
        <ele>1695.4223632812</ele>
        <time>2011-06-04T11:03:56Z</time>
      </trkpt>
      <trkpt lat="45.32154" lon="5.76486">
        <ele>1694.4609375</ele>
        <time>2011-06-04T11:03:58Z</time>
      </trkpt>
      <trkpt lat="45.32156" lon="5.76491">
        <ele>1693.0190429688</ele>
        <time>2011-06-04T11:04:00Z</time>
      </trkpt>
      <trkpt lat="45.32158" lon="5.76506">
        <ele>1690.6154785156</ele>
        <time>2011-06-04T11:04:06Z</time>
      </trkpt>
      <trkpt lat="45.32159" lon="5.76512">
        <ele>1689.654296875</ele>
        <time>2011-06-04T11:04:09Z</time>
      </trkpt>
      <trkpt lat="45.3216" lon="5.76517">
        <ele>1687.2509765625</ele>
        <time>2011-06-04T11:04:13Z</time>
      </trkpt>
      <trkpt lat="45.32159" lon="5.76529">
        <ele>1683.8864746094</ele>
        <time>2011-06-04T11:04:20Z</time>
      </trkpt>
      <trkpt lat="45.3216" lon="5.76533">
        <ele>1682.4445800781</ele>
        <time>2011-06-04T11:04:22Z</time>
      </trkpt>
      <trkpt lat="45.32162" lon="5.76544">
        <ele>1679.0798339844</ele>
        <time>2011-06-04T11:04:28Z</time>
      </trkpt>
      <trkpt lat="45.32162" lon="5.76552">
        <ele>1677.6379394531</ele>
        <time>2011-06-04T11:04:32Z</time>
      </trkpt>
      <trkpt lat="45.32163" lon="5.7656">
        <ele>1676.6767578125</ele>
        <time>2011-06-04T11:04:35Z</time>
      </trkpt>
      <trkpt lat="45.32164" lon="5.76564">
        <ele>1675.7150878906</ele>
        <time>2011-06-04T11:04:37Z</time>
      </trkpt>
      <trkpt lat="45.32164" lon="5.76565">
        <ele>1675.234375</ele>
        <time>2011-06-04T11:04:38Z</time>
      </trkpt>
      <trkpt lat="45.32165" lon="5.76566">
        <ele>1674.75390625</ele>
        <time>2011-06-04T11:04:39Z</time>
      </trkpt>
      <trkpt lat="45.32165" lon="5.76572">
        <ele>1671.8698730469</ele>
        <time>2011-06-04T11:04:43Z</time>
      </trkpt>
      <trkpt lat="45.32165" lon="5.76573">
        <ele>1670.9086914062</ele>
        <time>2011-06-04T11:04:44Z</time>
      </trkpt>
      <trkpt lat="45.32165" lon="5.76579">
        <ele>1669.466796875</ele>
        <time>2011-06-04T11:04:47Z</time>
      </trkpt>
      <trkpt lat="45.32166" lon="5.76582">
        <ele>1668.5053710938</ele>
        <time>2011-06-04T11:04:49Z</time>
      </trkpt>
      <trkpt lat="45.32168" lon="5.7659">
        <ele>1664.66015625</ele>
        <time>2011-06-04T11:04:55Z</time>
      </trkpt>
      <trkpt lat="45.32167" lon="5.76594">
        <ele>1664.1794433594</ele>
        <time>2011-06-04T11:04:59Z</time>
      </trkpt>
      <trkpt lat="45.32169" lon="5.76601">
        <ele>1661.7763671875</ele>
        <time>2011-06-04T11:05:04Z</time>
      </trkpt>
      <trkpt lat="45.32173" lon="5.76611">
        <ele>1658.8920898438</ele>
        <time>2011-06-04T11:05:09Z</time>
      </trkpt>
      <trkpt lat="45.32175" lon="5.76615">
        <ele>1658.4113769531</ele>
        <time>2011-06-04T11:05:11Z</time>
      </trkpt>
      <trkpt lat="45.32178" lon="5.76624">
        <ele>1655.5275878906</ele>
        <time>2011-06-04T11:05:17Z</time>
      </trkpt>
      <trkpt lat="45.32181" lon="5.76627">
        <ele>1655.046875</ele>
        <time>2011-06-04T11:05:19Z</time>
      </trkpt>
      <trkpt lat="45.32184" lon="5.76637">
        <ele>1653.6049804688</ele>
        <time>2011-06-04T11:05:25Z</time>
      </trkpt>
      <trkpt lat="45.32185" lon="5.76638">
        <ele>1652.1628417969</ele>
        <time>2011-06-04T11:05:27Z</time>
      </trkpt>
      <trkpt lat="45.32187" lon="5.7664">
        <ele>1651.6823730469</ele>
        <time>2011-06-04T11:05:30Z</time>
      </trkpt>
      <trkpt lat="45.32189" lon="5.76643">
        <ele>1650.2404785156</ele>
        <time>2011-06-04T11:05:35Z</time>
      </trkpt>
      <trkpt lat="45.32189" lon="5.76647">
        <ele>1649.759765625</ele>
        <time>2011-06-04T11:05:39Z</time>
      </trkpt>
      <trkpt lat="45.32193" lon="5.76648">
        <ele>1648.3176269531</ele>
        <time>2011-06-04T11:05:43Z</time>
      </trkpt>
      <trkpt lat="45.32196" lon="5.76652">
        <ele>1645.9145507812</ele>
        <time>2011-06-04T11:05:47Z</time>
      </trkpt>
      <trkpt lat="45.322" lon="5.76659">
        <ele>1643.0302734375</ele>
        <time>2011-06-04T11:05:52Z</time>
      </trkpt>
      <trkpt lat="45.32207" lon="5.76664">
        <ele>1640.146484375</ele>
        <time>2011-06-04T11:05:57Z</time>
      </trkpt>
      <trkpt lat="45.32211" lon="5.76671">
        <ele>1638.2238769531</ele>
        <time>2011-06-04T11:06:01Z</time>
      </trkpt>
      <trkpt lat="45.32216" lon="5.7668">
        <ele>1635.33984375</ele>
        <time>2011-06-04T11:06:07Z</time>
      </trkpt>
      <trkpt lat="45.3222" lon="5.76688">
        <ele>1633.8979492188</ele>
        <time>2011-06-04T11:06:11Z</time>
      </trkpt>
      <trkpt lat="45.32228" lon="5.76695">
        <ele>1631.9753417969</ele>
        <time>2011-06-04T11:06:16Z</time>
      </trkpt>
      <trkpt lat="45.32232" lon="5.76698">
        <ele>1630.5334472656</ele>
        <time>2011-06-04T11:06:18Z</time>
      </trkpt>
      <trkpt lat="45.32236" lon="5.767">
        <ele>1630.052734375</ele>
        <time>2011-06-04T11:06:20Z</time>
      </trkpt>
      <trkpt lat="45.32246" lon="5.76705">
        <ele>1628.1301269531</ele>
        <time>2011-06-04T11:06:25Z</time>
      </trkpt>
      <trkpt lat="45.32252" lon="5.76708">
        <ele>1626.6879882812</ele>
        <time>2011-06-04T11:06:29Z</time>
      </trkpt>
      <trkpt lat="45.32255" lon="5.76712">
        <ele>1626.2072753906</ele>
        <time>2011-06-04T11:06:31Z</time>
      </trkpt>
      <trkpt lat="45.32261" lon="5.76722">
        <ele>1624.7653808594</ele>
        <time>2011-06-04T11:06:36Z</time>
      </trkpt>
      <trkpt lat="45.32262" lon="5.76725">
        <ele>1624.7653808594</ele>
        <time>2011-06-04T11:06:37Z</time>
      </trkpt>
      <trkpt lat="45.3227" lon="5.76729">
        <ele>1622.8427734375</ele>
        <time>2011-06-04T11:06:42Z</time>
      </trkpt>
      <trkpt lat="45.32275" lon="5.76733">
        <ele>1622.3620605469</ele>
        <time>2011-06-04T11:06:45Z</time>
      </trkpt>
      <trkpt lat="45.3228" lon="5.76735">
        <ele>1620.9201660156</ele>
        <time>2011-06-04T11:06:49Z</time>
      </trkpt>
      <trkpt lat="45.32281" lon="5.76737">
        <ele>1619.9587402344</ele>
        <time>2011-06-04T11:06:51Z</time>
      </trkpt>
      <trkpt lat="45.32282" lon="5.76744">
        <ele>1618.5168457031</ele>
        <time>2011-06-04T11:06:57Z</time>
      </trkpt>
      <trkpt lat="45.32283" lon="5.76746">
        <ele>1618.0361328125</ele>
        <time>2011-06-04T11:06:59Z</time>
      </trkpt>
      <trkpt lat="45.32284" lon="5.76748">
        <ele>1617.0749511719</ele>
        <time>2011-06-04T11:07:00Z</time>
      </trkpt>
      <trkpt lat="45.32287" lon="5.7675">
        <ele>1616.5942382812</ele>
        <time>2011-06-04T11:07:02Z</time>
      </trkpt>
      <trkpt lat="45.32298" lon="5.76757">
        <ele>1613.2297363281</ele>
        <time>2011-06-04T11:07:08Z</time>
      </trkpt>
      <trkpt lat="45.32301" lon="5.76762">
        <ele>1612.2683105469</ele>
        <time>2011-06-04T11:07:10Z</time>
      </trkpt>
      <trkpt lat="45.32305" lon="5.76765">
        <ele>1612.7490234375</ele>
        <time>2011-06-04T11:07:12Z</time>
      </trkpt>
      <trkpt lat="45.32312" lon="5.76771">
        <ele>1612.7490234375</ele>
        <time>2011-06-04T11:07:16Z</time>
      </trkpt>
      <trkpt lat="45.32322" lon="5.76778">
        <ele>1610.826171875</ele>
        <time>2011-06-04T11:07:23Z</time>
      </trkpt>
      <trkpt lat="45.32325" lon="5.76783">
        <ele>1609.8647460938</ele>
        <time>2011-06-04T11:07:26Z</time>
      </trkpt>
      <trkpt lat="45.32327" lon="5.76786">
        <ele>1609.3842773438</ele>
        <time>2011-06-04T11:07:28Z</time>
      </trkpt>
      <trkpt lat="45.32328" lon="5.76789">
        <ele>1609.8647460938</ele>
        <time>2011-06-04T11:07:29Z</time>
      </trkpt>
      <trkpt lat="45.32329" lon="5.7679">
        <ele>1609.8647460938</ele>
        <time>2011-06-04T11:07:30Z</time>
      </trkpt>
      <trkpt lat="45.32333" lon="5.76791">
        <ele>1609.8647460938</ele>
        <time>2011-06-04T11:07:33Z</time>
      </trkpt>
      <trkpt lat="45.32335" lon="5.76792">
        <ele>1606.01953125</ele>
        <time>2011-06-04T11:07:36Z</time>
      </trkpt>
      <trkpt lat="45.32334" lon="5.76796">
        <ele>1605.0583496094</ele>
        <time>2011-06-04T11:07:39Z</time>
      </trkpt>
      <trkpt lat="45.32337" lon="5.76798">
        <ele>1603.1357421875</ele>
        <time>2011-06-04T11:07:42Z</time>
      </trkpt>
      <trkpt lat="45.32338" lon="5.76801">
        <ele>1602.1743164062</ele>
        <time>2011-06-04T11:07:44Z</time>
      </trkpt>
      <trkpt lat="45.32333" lon="5.76803">
        <ele>1601.6938476562</ele>
        <time>2011-06-04T11:07:48Z</time>
      </trkpt>
      <trkpt lat="45.3234" lon="5.76811">
        <ele>1598.3291015625</ele>
        <time>2011-06-04T11:07:54Z</time>
      </trkpt>
      <trkpt lat="45.32348" lon="5.76818">
        <ele>1596.4067382812</ele>
        <time>2011-06-04T11:07:59Z</time>
      </trkpt>
      <trkpt lat="45.32351" lon="5.76821">
        <ele>1594.9643554688</ele>
        <time>2011-06-04T11:08:01Z</time>
      </trkpt>
      <trkpt lat="45.32357" lon="5.76829">
        <ele>1592.5612792969</ele>
        <time>2011-06-04T11:08:06Z</time>
      </trkpt>
      <trkpt lat="45.32364" lon="5.76834">
        <ele>1590.6384277344</ele>
        <time>2011-06-04T11:08:10Z</time>
      </trkpt>
      <trkpt lat="45.3237" lon="5.7684">
        <ele>1587.2739257812</ele>
        <time>2011-06-04T11:08:16Z</time>
      </trkpt>
      <trkpt lat="45.32372" lon="5.76841">
        <ele>1586.7932128906</ele>
        <time>2011-06-04T11:08:17Z</time>
      </trkpt>
      <trkpt lat="45.32375" lon="5.76844">
        <ele>1584.8708496094</ele>
        <time>2011-06-04T11:08:21Z</time>
      </trkpt>
      <trkpt lat="45.32379" lon="5.76851">
        <ele>1581.9868164062</ele>
        <time>2011-06-04T11:08:28Z</time>
      </trkpt>
      <trkpt lat="45.32383" lon="5.76862">
        <ele>1578.6220703125</ele>
        <time>2011-06-04T11:08:34Z</time>
      </trkpt>
      <trkpt lat="45.32388" lon="5.7687">
        <ele>1575.2573242188</ele>
        <time>2011-06-04T11:08:40Z</time>
      </trkpt>
      <trkpt lat="45.32391" lon="5.76877">
        <ele>1573.8154296875</ele>
        <time>2011-06-04T11:08:45Z</time>
      </trkpt>
      <trkpt lat="45.32391" lon="5.7688">
        <ele>1571.8928222656</ele>
        <time>2011-06-04T11:08:48Z</time>
      </trkpt>
      <trkpt lat="45.32389" lon="5.7688">
        <ele>1571.412109375</ele>
        <time>2011-06-04T11:08:49Z</time>
      </trkpt>
      <trkpt lat="45.32387" lon="5.7688">
        <ele>1571.412109375</ele>
        <time>2011-06-04T11:08:51Z</time>
      </trkpt>
      <trkpt lat="45.32384" lon="5.76881">
        <ele>1570.931640625</ele>
        <time>2011-06-04T11:08:55Z</time>
      </trkpt>
      <trkpt lat="45.32392" lon="5.76891">
        <ele>1567.5668945312</ele>
        <time>2011-06-04T11:09:01Z</time>
      </trkpt>
      <trkpt lat="45.324" lon="5.769">
        <ele>1565.64453125</ele>
        <time>2011-06-04T11:09:06Z</time>
      </trkpt>
      <trkpt lat="45.32406" lon="5.76907">
        <ele>1563.7214355469</ele>
        <time>2011-06-04T11:09:10Z</time>
      </trkpt>
      <trkpt lat="45.32412" lon="5.76915">
        <ele>1560.3569335938</ele>
        <time>2011-06-04T11:09:15Z</time>
      </trkpt>
      <trkpt lat="45.32414" lon="5.76916">
        <ele>1559.3957519531</ele>
        <time>2011-06-04T11:09:16Z</time>
      </trkpt>
      <trkpt lat="45.32421" lon="5.76927">
        <ele>1556.51171875</ele>
        <time>2011-06-04T11:09:23Z</time>
      </trkpt>
      <trkpt lat="45.32423" lon="5.76928">
        <ele>1556.51171875</ele>
        <time>2011-06-04T11:09:24Z</time>
      </trkpt>
      <trkpt lat="45.32433" lon="5.76938">
        <ele>1555.5505371094</ele>
        <time>2011-06-04T11:09:30Z</time>
      </trkpt>
      <trkpt lat="45.32437" lon="5.7694">
        <ele>1555.0698242188</ele>
        <time>2011-06-04T11:09:32Z</time>
      </trkpt>
      <trkpt lat="45.32446" lon="5.76945">
        <ele>1555.0698242188</ele>
        <time>2011-06-04T11:09:38Z</time>
      </trkpt>
      <trkpt lat="45.32453" lon="5.76947">
        <ele>1559.3957519531</ele>
        <time>2011-06-04T11:09:44Z</time>
      </trkpt>
      <trkpt lat="45.3246" lon="5.7695">
        <ele>1562.7602539062</ele>
        <time>2011-06-04T11:09:51Z</time>
      </trkpt>
      <trkpt lat="45.32465" lon="5.7695">
        <ele>1564.6831054688</ele>
        <time>2011-06-04T11:09:57Z</time>
      </trkpt>
      <trkpt lat="45.32468" lon="5.76953">
        <ele>1567.5668945312</ele>
        <time>2011-06-04T11:10:01Z</time>
      </trkpt>
      <trkpt lat="45.32473" lon="5.76955">
        <ele>1566.6057128906</ele>
        <time>2011-06-04T11:10:06Z</time>
      </trkpt>
      <trkpt lat="45.32484" lon="5.76964">
        <ele>1564.6831054688</ele>
        <time>2011-06-04T11:10:13Z</time>
      </trkpt>
      <trkpt lat="45.32487" lon="5.76968">
        <ele>1565.1638183594</ele>
        <time>2011-06-04T11:10:15Z</time>
      </trkpt>
      <trkpt lat="45.32491" lon="5.76979">
        <ele>1564.2023925781</ele>
        <time>2011-06-04T11:10:21Z</time>
      </trkpt>
      <trkpt lat="45.32494" lon="5.76985">
        <ele>1563.2409667969</ele>
        <time>2011-06-04T11:10:24Z</time>
      </trkpt>
      <trkpt lat="45.32504" lon="5.76997">
        <ele>1563.7214355469</ele>
        <time>2011-06-04T11:10:30Z</time>
      </trkpt>
      <trkpt lat="45.32509" lon="5.77003">
        <ele>1562.2795410156</ele>
        <time>2011-06-04T11:10:34Z</time>
      </trkpt>
      <trkpt lat="45.32513" lon="5.77008">
        <ele>1562.2795410156</ele>
        <time>2011-06-04T11:10:37Z</time>
      </trkpt>
      <trkpt lat="45.32517" lon="5.77009">
        <ele>1561.7990722656</ele>
        <time>2011-06-04T11:10:39Z</time>
      </trkpt>
      <trkpt lat="45.32519" lon="5.77009">
        <ele>1561.318359375</ele>
        <time>2011-06-04T11:10:40Z</time>
      </trkpt>
      <trkpt lat="45.32526" lon="5.77009">
        <ele>1560.3569335938</ele>
        <time>2011-06-04T11:10:46Z</time>
      </trkpt>
      <trkpt lat="45.32529" lon="5.77009">
        <ele>1558.9150390625</ele>
        <time>2011-06-04T11:10:48Z</time>
      </trkpt>
      <trkpt lat="45.32535" lon="5.77015">
        <ele>1557.4731445312</ele>
        <time>2011-06-04T11:10:54Z</time>
      </trkpt>
      <trkpt lat="45.32537" lon="5.77016">
        <ele>1556.0310058594</ele>
        <time>2011-06-04T11:10:57Z</time>
      </trkpt>
      <trkpt lat="45.32539" lon="5.77017">
        <ele>1555.5505371094</ele>
        <time>2011-06-04T11:10:59Z</time>
      </trkpt>
      <trkpt lat="45.32545" lon="5.77016">
        <ele>1553.6279296875</ele>
        <time>2011-06-04T11:11:05Z</time>
      </trkpt>
      <trkpt lat="45.32552" lon="5.7701">
        <ele>1551.224609375</ele>
        <time>2011-06-04T11:11:10Z</time>
      </trkpt>
      <trkpt lat="45.32561" lon="5.77008">
        <ele>1550.7438964844</ele>
        <time>2011-06-04T11:11:15Z</time>
      </trkpt>
      <trkpt lat="45.32569" lon="5.77005">
        <ele>1549.3020019531</ele>
        <time>2011-06-04T11:11:20Z</time>
      </trkpt>
      <trkpt lat="45.32577" lon="5.77009">
        <ele>1547.8598632812</ele>
        <time>2011-06-04T11:11:24Z</time>
      </trkpt>
      <trkpt lat="45.32579" lon="5.77011">
        <ele>1546.8984375</ele>
        <time>2011-06-04T11:11:25Z</time>
      </trkpt>
      <trkpt lat="45.32585" lon="5.77017">
        <ele>1546.41796875</ele>
        <time>2011-06-04T11:11:29Z</time>
      </trkpt>
      <trkpt lat="45.32592" lon="5.77017">
        <ele>1546.41796875</ele>
        <time>2011-06-04T11:11:33Z</time>
      </trkpt>
      <trkpt lat="45.326" lon="5.77019">
        <ele>1544.9758300781</ele>
        <time>2011-06-04T11:11:37Z</time>
      </trkpt>
      <trkpt lat="45.32608" lon="5.77024">
        <ele>1543.0532226562</ele>
        <time>2011-06-04T11:11:42Z</time>
      </trkpt>
      <trkpt lat="45.32616" lon="5.77029">
        <ele>1544.0146484375</ele>
        <time>2011-06-04T11:11:46Z</time>
      </trkpt>
      <trkpt lat="45.32628" lon="5.77037">
        <ele>1546.8984375</ele>
        <time>2011-06-04T11:11:53Z</time>
      </trkpt>
      <trkpt lat="45.32631" lon="5.77038">
        <ele>1545.9372558594</ele>
        <time>2011-06-04T11:11:55Z</time>
      </trkpt>
      <trkpt lat="45.32636" lon="5.77045">
        <ele>1545.4565429688</ele>
        <time>2011-06-04T11:12:00Z</time>
      </trkpt>
      <trkpt lat="45.32641" lon="5.77055">
        <ele>1544.9758300781</ele>
        <time>2011-06-04T11:12:05Z</time>
      </trkpt>
      <trkpt lat="45.32644" lon="5.77059">
        <ele>1544.0146484375</ele>
        <time>2011-06-04T11:12:08Z</time>
      </trkpt>
      <trkpt lat="45.32645" lon="5.77063">
        <ele>1545.4565429688</ele>
        <time>2011-06-04T11:12:10Z</time>
      </trkpt>
      <trkpt lat="45.32645" lon="5.77064">
        <ele>1545.4565429688</ele>
        <time>2011-06-04T11:12:11Z</time>
      </trkpt>
      <trkpt lat="45.32649" lon="5.77075">
        <ele>1542.0920410156</ele>
        <time>2011-06-04T11:12:19Z</time>
      </trkpt>
      <trkpt lat="45.32653" lon="5.77082">
        <ele>1539.6887207031</ele>
        <time>2011-06-04T11:12:24Z</time>
      </trkpt>
      <trkpt lat="45.32656" lon="5.77091">
        <ele>1539.6887207031</ele>
        <time>2011-06-04T11:12:28Z</time>
      </trkpt>
      <trkpt lat="45.32661" lon="5.77099">
        <ele>1539.6887207031</ele>
        <time>2011-06-04T11:12:33Z</time>
      </trkpt>
      <trkpt lat="45.32663" lon="5.77101">
        <ele>1539.6887207031</ele>
        <time>2011-06-04T11:12:35Z</time>
      </trkpt>
      <trkpt lat="45.32664" lon="5.77104">
        <ele>1539.6887207031</ele>
        <time>2011-06-04T11:12:37Z</time>
      </trkpt>
      <trkpt lat="45.32664" lon="5.77105">
        <ele>1539.2080078125</ele>
        <time>2011-06-04T11:12:38Z</time>
      </trkpt>
      <trkpt lat="45.32665" lon="5.77107">
        <ele>1539.2080078125</ele>
        <time>2011-06-04T11:12:39Z</time>
      </trkpt>
      <trkpt lat="45.32667" lon="5.7711">
        <ele>1538.7275390625</ele>
        <time>2011-06-04T11:12:41Z</time>
      </trkpt>
      <trkpt lat="45.32668" lon="5.77114">
        <ele>1538.2468261719</ele>
        <time>2011-06-04T11:12:44Z</time>
      </trkpt>
      <trkpt lat="45.32671" lon="5.77132">
        <ele>1535.3627929688</ele>
        <time>2011-06-04T11:12:50Z</time>
      </trkpt>
      <trkpt lat="45.32677" lon="5.77142">
        <ele>1530.0754394531</ele>
        <time>2011-06-04T11:12:56Z</time>
      </trkpt>
      <trkpt lat="45.32683" lon="5.77151">
        <ele>1527.6721191406</ele>
        <time>2011-06-04T11:13:01Z</time>
      </trkpt>
      <trkpt lat="45.32688" lon="5.77156">
        <ele>1526.2302246094</ele>
        <time>2011-06-04T11:13:05Z</time>
      </trkpt>
      <trkpt lat="45.32692" lon="5.77157">
        <ele>1523.8269042969</ele>
        <time>2011-06-04T11:13:09Z</time>
      </trkpt>
      <trkpt lat="45.32697" lon="5.77161">
        <ele>1520.9431152344</ele>
        <time>2011-06-04T11:13:14Z</time>
      </trkpt>
      <trkpt lat="45.327" lon="5.77164">
        <ele>1519.0205078125</ele>
        <time>2011-06-04T11:13:17Z</time>
      </trkpt>
      <trkpt lat="45.32701" lon="5.77165">
        <ele>1519.0205078125</ele>
        <time>2011-06-04T11:13:18Z</time>
      </trkpt>
      <trkpt lat="45.32706" lon="5.77174">
        <ele>1516.6171875</ele>
        <time>2011-06-04T11:13:24Z</time>
      </trkpt>
      <trkpt lat="45.32708" lon="5.77176">
        <ele>1516.1364746094</ele>
        <time>2011-06-04T11:13:26Z</time>
      </trkpt>
      <trkpt lat="45.3271" lon="5.77179">
        <ele>1517.0979003906</ele>
        <time>2011-06-04T11:13:29Z</time>
      </trkpt>
      <trkpt lat="45.32718" lon="5.77186">
        <ele>1518.5397949219</ele>
        <time>2011-06-04T11:13:36Z</time>
      </trkpt>
      <trkpt lat="45.32719" lon="5.77187">
        <ele>1518.5397949219</ele>
        <time>2011-06-04T11:13:37Z</time>
      </trkpt>
      <trkpt lat="45.32724" lon="5.7719">
        <ele>1519.0205078125</ele>
        <time>2011-06-04T11:13:43Z</time>
      </trkpt>
      <trkpt lat="45.32728" lon="5.77187">
        <ele>1518.0590820312</ele>
        <time>2011-06-04T11:13:48Z</time>
      </trkpt>
      <trkpt lat="45.32729" lon="5.77183">
        <ele>1518.5397949219</ele>
        <time>2011-06-04T11:13:51Z</time>
      </trkpt>
      <trkpt lat="45.32729" lon="5.77181">
        <ele>1518.0590820312</ele>
        <time>2011-06-04T11:13:53Z</time>
      </trkpt>
      <trkpt lat="45.32731" lon="5.77175">
        <ele>1516.6171875</ele>
        <time>2011-06-04T11:13:59Z</time>
      </trkpt>
      <trkpt lat="45.32732" lon="5.77175">
        <ele>1517.0979003906</ele>
        <time>2011-06-04T11:14:00Z</time>
      </trkpt>
      <trkpt lat="45.32738" lon="5.77172">
        <ele>1514.6943359375</ele>
        <time>2011-06-04T11:14:05Z</time>
      </trkpt>
      <trkpt lat="45.32739" lon="5.77164">
        <ele>1511.810546875</ele>
        <time>2011-06-04T11:14:10Z</time>
      </trkpt>
      <trkpt lat="45.3274" lon="5.77161">
        <ele>1510.3684082031</ele>
        <time>2011-06-04T11:14:12Z</time>
      </trkpt>
      <trkpt lat="45.32742" lon="5.77156">
        <ele>1508.9265136719</ele>
        <time>2011-06-04T11:14:15Z</time>
      </trkpt>
      <trkpt lat="45.32743" lon="5.77155">
        <ele>1508.4458007812</ele>
        <time>2011-06-04T11:14:16Z</time>
      </trkpt>
      <trkpt lat="45.32743" lon="5.77151">
        <ele>1507.4846191406</ele>
        <time>2011-06-04T11:14:18Z</time>
      </trkpt>
      <trkpt lat="45.32744" lon="5.77148">
        <ele>1506.5231933594</ele>
        <time>2011-06-04T11:14:20Z</time>
      </trkpt>
      <trkpt lat="45.32743" lon="5.77141">
        <ele>1503.6394042969</ele>
        <time>2011-06-04T11:14:25Z</time>
      </trkpt>
      <trkpt lat="45.32744" lon="5.77138">
        <ele>1501.716796875</ele>
        <time>2011-06-04T11:14:28Z</time>
      </trkpt>
      <trkpt lat="45.32743" lon="5.77133">
        <ele>1501.716796875</ele>
        <time>2011-06-04T11:14:30Z</time>
      </trkpt>
      <trkpt lat="45.32743" lon="5.7713">
        <ele>1501.716796875</ele>
        <time>2011-06-04T11:14:31Z</time>
      </trkpt>
      <trkpt lat="45.3274" lon="5.77124">
        <ele>1500.2749023438</ele>
        <time>2011-06-04T11:14:34Z</time>
      </trkpt>
      <trkpt lat="45.32738" lon="5.77121">
        <ele>1500.2749023438</ele>
        <time>2011-06-04T11:14:35Z</time>
      </trkpt>
      <trkpt lat="45.32737" lon="5.77117">
        <ele>1499.3132324219</ele>
        <time>2011-06-04T11:14:37Z</time>
      </trkpt>
      <trkpt lat="45.3274" lon="5.77113">
        <ele>1496.9099121094</ele>
        <time>2011-06-04T11:14:40Z</time>
      </trkpt>
      <trkpt lat="45.32735" lon="5.77102">
        <ele>1494.5065917969</ele>
        <time>2011-06-04T11:14:45Z</time>
      </trkpt>
      <trkpt lat="45.32727" lon="5.77095">
        <ele>1492.103515625</ele>
        <time>2011-06-04T11:14:50Z</time>
      </trkpt>
      <trkpt lat="45.32723" lon="5.77088">
        <ele>1490.6613769531</ele>
        <time>2011-06-04T11:14:54Z</time>
      </trkpt>
      <trkpt lat="45.32721" lon="5.7708">
        <ele>1489.2194824219</ele>
        <time>2011-06-04T11:14:57Z</time>
      </trkpt>
      <trkpt lat="45.32719" lon="5.77074">
        <ele>1486.3356933594</ele>
        <time>2011-06-04T11:15:00Z</time>
      </trkpt>
      <trkpt lat="45.3272" lon="5.77066">
        <ele>1484.4130859375</ele>
        <time>2011-06-04T11:15:04Z</time>
      </trkpt>
      <trkpt lat="45.32721" lon="5.77058">
        <ele>1480.0869140625</ele>
        <time>2011-06-04T11:15:08Z</time>
      </trkpt>
      <trkpt lat="45.32721" lon="5.77056">
        <ele>1480.0869140625</ele>
        <time>2011-06-04T11:15:09Z</time>
      </trkpt>
      <trkpt lat="45.32724" lon="5.77052">
        <ele>1480.5676269531</ele>
        <time>2011-06-04T11:15:11Z</time>
      </trkpt>
      <trkpt lat="45.32727" lon="5.7704">
        <ele>1480.0869140625</ele>
        <time>2011-06-04T11:15:16Z</time>
      </trkpt>
      <trkpt lat="45.32731" lon="5.77035">
        <ele>1479.6062011719</ele>
        <time>2011-06-04T11:15:20Z</time>
      </trkpt>
      <trkpt lat="45.32733" lon="5.77032">
        <ele>1479.6062011719</ele>
        <time>2011-06-04T11:15:22Z</time>
      </trkpt>
      <trkpt lat="45.32735" lon="5.7703">
        <ele>1479.6062011719</ele>
        <time>2011-06-04T11:15:24Z</time>
      </trkpt>
      <trkpt lat="45.32743" lon="5.77021">
        <ele>1481.5288085938</ele>
        <time>2011-06-04T11:15:31Z</time>
      </trkpt>
      <trkpt lat="45.32748" lon="5.77015">
        <ele>1482.0095214844</ele>
        <time>2011-06-04T11:15:35Z</time>
      </trkpt>
      <trkpt lat="45.32753" lon="5.77005">
        <ele>1482.970703125</ele>
        <time>2011-06-04T11:15:40Z</time>
      </trkpt>
      <trkpt lat="45.32763" lon="5.76994">
        <ele>1482.0095214844</ele>
        <time>2011-06-04T11:15:47Z</time>
      </trkpt>
      <trkpt lat="45.32764" lon="5.7699">
        <ele>1482.0095214844</ele>
        <time>2011-06-04T11:15:49Z</time>
      </trkpt>
      <trkpt lat="45.32767" lon="5.76984">
        <ele>1481.5288085938</ele>
        <time>2011-06-04T11:15:52Z</time>
      </trkpt>
      <trkpt lat="45.32769" lon="5.76982">
        <ele>1481.0483398438</ele>
        <time>2011-06-04T11:15:53Z</time>
      </trkpt>
      <trkpt lat="45.3277" lon="5.76981">
        <ele>1481.0483398438</ele>
        <time>2011-06-04T11:15:54Z</time>
      </trkpt>
      <trkpt lat="45.32771" lon="5.76979">
        <ele>1480.5676269531</ele>
        <time>2011-06-04T11:15:55Z</time>
      </trkpt>
      <trkpt lat="45.32775" lon="5.76969">
        <ele>1478.1643066406</ele>
        <time>2011-06-04T11:16:00Z</time>
      </trkpt>
      <trkpt lat="45.32777" lon="5.76965">
        <ele>1477.203125</ele>
        <time>2011-06-04T11:16:02Z</time>
      </trkpt>
      <trkpt lat="45.32779" lon="5.76963">
        <ele>1477.203125</ele>
        <time>2011-06-04T11:16:03Z</time>
      </trkpt>
      <trkpt lat="45.3278" lon="5.76961">
        <ele>1476.7224121094</ele>
        <time>2011-06-04T11:16:04Z</time>
      </trkpt>
      <trkpt lat="45.32784" lon="5.76955">
        <ele>1475.7609863281</ele>
        <time>2011-06-04T11:16:08Z</time>
      </trkpt>
      <trkpt lat="45.32786" lon="5.76949">
        <ele>1475.2802734375</ele>
        <time>2011-06-04T11:16:11Z</time>
      </trkpt>
      <trkpt lat="45.32792" lon="5.76944">
        <ele>1478.1643066406</ele>
        <time>2011-06-04T11:16:16Z</time>
      </trkpt>
      <trkpt lat="45.32796" lon="5.76946">
        <ele>1477.68359375</ele>
        <time>2011-06-04T11:16:20Z</time>
      </trkpt>
      <trkpt lat="45.32801" lon="5.76945">
        <ele>1476.7224121094</ele>
        <time>2011-06-04T11:16:26Z</time>
      </trkpt>
      <trkpt lat="45.32804" lon="5.7695">
        <ele>1474.3190917969</ele>
        <time>2011-06-04T11:16:29Z</time>
      </trkpt>
      <trkpt lat="45.3281" lon="5.76965">
        <ele>1474.3190917969</ele>
        <time>2011-06-04T11:16:36Z</time>
      </trkpt>
      <trkpt lat="45.32808" lon="5.7697">
        <ele>1472.396484375</ele>
        <time>2011-06-04T11:16:39Z</time>
      </trkpt>
      <trkpt lat="45.32806" lon="5.76971">
        <ele>1471.9157714844</ele>
        <time>2011-06-04T11:16:40Z</time>
      </trkpt>
      <trkpt lat="45.32806" lon="5.76973">
        <ele>1471.4350585938</ele>
        <time>2011-06-04T11:16:41Z</time>
      </trkpt>
      <trkpt lat="45.32804" lon="5.76977">
        <ele>1471.4350585938</ele>
        <time>2011-06-04T11:16:43Z</time>
      </trkpt>
      <trkpt lat="45.32806" lon="5.76979">
        <ele>1468.5512695312</ele>
        <time>2011-06-04T11:16:46Z</time>
      </trkpt>
      <trkpt lat="45.3281" lon="5.76984">
        <ele>1466.1477050781</ele>
        <time>2011-06-04T11:16:50Z</time>
      </trkpt>
      <trkpt lat="45.32817" lon="5.76993">
        <ele>1462.783203125</ele>
        <time>2011-06-04T11:16:56Z</time>
      </trkpt>
      <trkpt lat="45.32825" lon="5.77002">
        <ele>1457.9768066406</ele>
        <time>2011-06-04T11:17:02Z</time>
      </trkpt>
      <trkpt lat="45.32825" lon="5.77004">
        <ele>1457.0153808594</ele>
        <time>2011-06-04T11:17:03Z</time>
      </trkpt>
      <trkpt lat="45.32826" lon="5.77005">
        <ele>1456.5346679688</ele>
        <time>2011-06-04T11:17:04Z</time>
      </trkpt>
      <trkpt lat="45.32825" lon="5.77009">
        <ele>1454.6120605469</ele>
        <time>2011-06-04T11:17:07Z</time>
      </trkpt>
      <trkpt lat="45.32818" lon="5.77011">
        <ele>1452.689453125</ele>
        <time>2011-06-04T11:17:11Z</time>
      </trkpt>
      <trkpt lat="45.32819" lon="5.77015">
        <ele>1450.7666015625</ele>
        <time>2011-06-04T11:17:15Z</time>
      </trkpt>
      <trkpt lat="45.32824" lon="5.77016">
        <ele>1450.2861328125</ele>
        <time>2011-06-04T11:17:18Z</time>
      </trkpt>
      <trkpt lat="45.32829" lon="5.77024">
        <ele>1448.36328125</ele>
        <time>2011-06-04T11:17:22Z</time>
      </trkpt>
      <trkpt lat="45.32822" lon="5.77027">
        <ele>1445.4794921875</ele>
        <time>2011-06-04T11:17:27Z</time>
      </trkpt>
      <trkpt lat="45.32826" lon="5.77036">
        <ele>1445.4794921875</ele>
        <time>2011-06-04T11:17:31Z</time>
      </trkpt>
      <trkpt lat="45.32834" lon="5.77038">
        <ele>1443.5568847656</ele>
        <time>2011-06-04T11:17:36Z</time>
      </trkpt>
      <trkpt lat="45.32835" lon="5.77039">
        <ele>1443.5568847656</ele>
        <time>2011-06-04T11:17:37Z</time>
      </trkpt>
      <trkpt lat="45.32843" lon="5.77045">
        <ele>1443.5568847656</ele>
        <time>2011-06-04T11:17:42Z</time>
      </trkpt>
      <trkpt lat="45.3285" lon="5.77051">
        <ele>1439.7116699219</ele>
        <time>2011-06-04T11:17:47Z</time>
      </trkpt>
      <trkpt lat="45.32852" lon="5.77055">
        <ele>1437.7890625</ele>
        <time>2011-06-04T11:17:49Z</time>
      </trkpt>
      <trkpt lat="45.32862" lon="5.7706">
        <ele>1437.3083496094</ele>
        <time>2011-06-04T11:17:55Z</time>
      </trkpt>
      <trkpt lat="45.32871" lon="5.77063">
        <ele>1436.3471679688</ele>
        <time>2011-06-04T11:18:00Z</time>
      </trkpt>
      <trkpt lat="45.32875" lon="5.77066">
        <ele>1435.3854980469</ele>
        <time>2011-06-04T11:18:03Z</time>
      </trkpt>
      <trkpt lat="45.32878" lon="5.77065">
        <ele>1434.9050292969</ele>
        <time>2011-06-04T11:18:05Z</time>
      </trkpt>
      <trkpt lat="45.32882" lon="5.77065">
        <ele>1431.5402832031</ele>
        <time>2011-06-04T11:18:07Z</time>
      </trkpt>
      <trkpt lat="45.32889" lon="5.77069">
        <ele>1427.2145996094</ele>
        <time>2011-06-04T11:18:12Z</time>
      </trkpt>
      <trkpt lat="45.32893" lon="5.77073">
        <ele>1426.2531738281</ele>
        <time>2011-06-04T11:18:17Z</time>
      </trkpt>
      <trkpt lat="45.32894" lon="5.77074">
        <ele>1426.2531738281</ele>
        <time>2011-06-04T11:18:18Z</time>
      </trkpt>
      <trkpt lat="45.32902" lon="5.77075">
        <ele>1425.2917480469</ele>
        <time>2011-06-04T11:18:23Z</time>
      </trkpt>
      <trkpt lat="45.32911" lon="5.77071">
        <ele>1425.7724609375</ele>
        <time>2011-06-04T11:18:28Z</time>
      </trkpt>
      <trkpt lat="45.32915" lon="5.77075">
        <ele>1427.2145996094</ele>
        <time>2011-06-04T11:18:33Z</time>
      </trkpt>
      <trkpt lat="45.32917" lon="5.77074">
        <ele>1426.7338867188</ele>
        <time>2011-06-04T11:18:37Z</time>
      </trkpt>
      <trkpt lat="45.3292" lon="5.77077">
        <ele>1428.17578125</ele>
        <time>2011-06-04T11:18:39Z</time>
      </trkpt>
      <trkpt lat="45.3292" lon="5.7708">
        <ele>1427.2145996094</ele>
        <time>2011-06-04T11:18:41Z</time>
      </trkpt>
      <trkpt lat="45.32917" lon="5.77083">
        <ele>1425.2917480469</ele>
        <time>2011-06-04T11:18:44Z</time>
      </trkpt>
      <trkpt lat="45.32917" lon="5.77091">
        <ele>1425.2917480469</ele>
        <time>2011-06-04T11:18:51Z</time>
      </trkpt>
      <trkpt lat="45.32919" lon="5.77089">
        <ele>1425.7724609375</ele>
        <time>2011-06-04T11:18:54Z</time>
      </trkpt>
      <trkpt lat="45.32924" lon="5.77087">
        <ele>1424.8112792969</ele>
        <time>2011-06-04T11:18:58Z</time>
      </trkpt>
      <trkpt lat="45.32931" lon="5.7709">
        <ele>1421.4465332031</ele>
        <time>2011-06-04T11:19:05Z</time>
      </trkpt>
      <trkpt lat="45.32933" lon="5.77092">
        <ele>1418.0817871094</ele>
        <time>2011-06-04T11:19:08Z</time>
      </trkpt>
      <trkpt lat="45.32933" lon="5.77092">
        <ele>1418.5625</ele>
        <time>2011-06-04T11:19:09Z</time>
      </trkpt>
      <trkpt lat="45.32932" lon="5.77096">
        <ele>1420.0046386719</ele>
        <time>2011-06-04T11:19:13Z</time>
      </trkpt>
      <trkpt lat="45.32935" lon="5.771">
        <ele>1421.9272460938</ele>
        <time>2011-06-04T11:19:18Z</time>
      </trkpt>
      <trkpt lat="45.32938" lon="5.77099">
        <ele>1418.0817871094</ele>
        <time>2011-06-04T11:19:22Z</time>
      </trkpt>
      <trkpt lat="45.32944" lon="5.77098">
        <ele>1413.275390625</ele>
        <time>2011-06-04T11:19:28Z</time>
      </trkpt>
      <trkpt lat="45.32944" lon="5.77098">
        <ele>1413.755859375</ele>
        <time>2011-06-04T11:19:29Z</time>
      </trkpt>
      <trkpt lat="45.32948" lon="5.77098">
        <ele>1411.8334960938</ele>
        <time>2011-06-04T11:19:34Z</time>
      </trkpt>
      <trkpt lat="45.32954" lon="5.77099">
        <ele>1410.3913574219</ele>
        <time>2011-06-04T11:19:39Z</time>
      </trkpt>
      <trkpt lat="45.32956" lon="5.77102">
        <ele>1409.4301757812</ele>
        <time>2011-06-04T11:19:42Z</time>
      </trkpt>
      <trkpt lat="45.32966" lon="5.77103">
        <ele>1407.98828125</ele>
        <time>2011-06-04T11:19:47Z</time>
      </trkpt>
      <trkpt lat="45.32968" lon="5.77103">
        <ele>1398.85546875</ele>
        <time>2011-06-04T11:19:51Z</time>
      </trkpt>
      <trkpt lat="45.32972" lon="5.77101">
        <ele>1399.3361816406</ele>
        <time>2011-06-04T11:19:57Z</time>
      </trkpt>
      <trkpt lat="45.32973" lon="5.77098">
        <ele>1399.8168945312</ele>
        <time>2011-06-04T11:19:59Z</time>
      </trkpt>
      <trkpt lat="45.32975" lon="5.77095">
        <ele>1399.8168945312</ele>
        <time>2011-06-04T11:20:01Z</time>
      </trkpt>
      <trkpt lat="45.32976" lon="5.77093">
        <ele>1399.8168945312</ele>
        <time>2011-06-04T11:20:02Z</time>
      </trkpt>
      <trkpt lat="45.32983" lon="5.77091">
        <ele>1398.3747558594</ele>
        <time>2011-06-04T11:20:07Z</time>
      </trkpt>
      <trkpt lat="45.32986" lon="5.77092">
        <ele>1396.9328613281</ele>
        <time>2011-06-04T11:20:09Z</time>
      </trkpt>
      <trkpt lat="45.32988" lon="5.77093">
        <ele>1395.0102539062</ele>
        <time>2011-06-04T11:20:11Z</time>
      </trkpt>
      <trkpt lat="45.32986" lon="5.77095">
        <ele>1395.0102539062</ele>
        <time>2011-06-04T11:20:13Z</time>
      </trkpt>
      <trkpt lat="45.32983" lon="5.77103">
        <ele>1396.4523925781</ele>
        <time>2011-06-04T11:20:17Z</time>
      </trkpt>
      <trkpt lat="45.32983" lon="5.77106">
        <ele>1396.9328613281</ele>
        <time>2011-06-04T11:20:18Z</time>
      </trkpt>
      <trkpt lat="45.32983" lon="5.77111">
        <ele>1399.3361816406</ele>
        <time>2011-06-04T11:20:21Z</time>
      </trkpt>
      <trkpt lat="45.32985" lon="5.7711">
        <ele>1397.8942871094</ele>
        <time>2011-06-04T11:20:27Z</time>
      </trkpt>
      <trkpt lat="45.32987" lon="5.77108">
        <ele>1393.568359375</ele>
        <time>2011-06-04T11:20:29Z</time>
      </trkpt>
      <trkpt lat="45.3299" lon="5.77107">
        <ele>1391.1650390625</ele>
        <time>2011-06-04T11:20:31Z</time>
      </trkpt>
      <trkpt lat="45.3299" lon="5.77107">
        <ele>1390.6843261719</ele>
        <time>2011-06-04T11:20:32Z</time>
      </trkpt>
      <trkpt lat="45.32991" lon="5.77106">
        <ele>1390.6843261719</ele>
        <time>2011-06-04T11:20:33Z</time>
      </trkpt>
      <trkpt lat="45.32994" lon="5.77106">
        <ele>1389.7231445312</ele>
        <time>2011-06-04T11:20:35Z</time>
      </trkpt>
      <trkpt lat="45.33002" lon="5.77106">
        <ele>1388.7619628906</ele>
        <time>2011-06-04T11:20:40Z</time>
      </trkpt>
      <trkpt lat="45.33007" lon="5.77106">
        <ele>1385.3969726562</ele>
        <time>2011-06-04T11:20:44Z</time>
      </trkpt>
      <trkpt lat="45.33015" lon="5.77103">
        <ele>1382.9936523438</ele>
        <time>2011-06-04T11:20:50Z</time>
      </trkpt>
      <trkpt lat="45.33017" lon="5.77103">
        <ele>1382.5131835938</ele>
        <time>2011-06-04T11:20:51Z</time>
      </trkpt>
      <trkpt lat="45.33024" lon="5.77097">
        <ele>1381.5517578125</ele>
        <time>2011-06-04T11:20:55Z</time>
      </trkpt>
      <trkpt lat="45.33028" lon="5.77091">
        <ele>1382.0324707031</ele>
        <time>2011-06-04T11:20:59Z</time>
      </trkpt>
      <trkpt lat="45.33037" lon="5.77081">
        <ele>1381.0712890625</ele>
        <time>2011-06-04T11:21:12Z</time>
      </trkpt>
      <trkpt lat="45.33038" lon="5.77079">
        <ele>1380.5905761719</ele>
        <time>2011-06-04T11:21:14Z</time>
      </trkpt>
      <trkpt lat="45.33038" lon="5.77073">
        <ele>1380.1098632812</ele>
        <time>2011-06-04T11:21:19Z</time>
      </trkpt>
      <trkpt lat="45.33038" lon="5.77071">
        <ele>1380.1098632812</ele>
        <time>2011-06-04T11:21:21Z</time>
      </trkpt>
      <trkpt lat="45.33041" lon="5.77067">
        <ele>1380.1098632812</ele>
        <time>2011-06-04T11:21:24Z</time>
      </trkpt>
      <trkpt lat="45.33045" lon="5.77063">
        <ele>1379.1484375</ele>
        <time>2011-06-04T11:21:28Z</time>
      </trkpt>
      <trkpt lat="45.33044" lon="5.77062">
        <ele>1379.1484375</ele>
        <time>2011-06-04T11:21:29Z</time>
      </trkpt>
      <trkpt lat="45.33046" lon="5.77061">
        <ele>1379.6291503906</ele>
        <time>2011-06-04T11:21:33Z</time>
      </trkpt>
      <trkpt lat="45.33045" lon="5.77053">
        <ele>1376.7453613281</ele>
        <time>2011-06-04T11:21:39Z</time>
      </trkpt>
      <trkpt lat="45.3304" lon="5.77049">
        <ele>1373.380859375</ele>
        <time>2011-06-04T11:21:46Z</time>
      </trkpt>
      <trkpt lat="45.33038" lon="5.77043">
        <ele>1373.861328125</ele>
        <time>2011-06-04T11:21:52Z</time>
      </trkpt>
      <trkpt lat="45.33038" lon="5.77039">
        <ele>1373.380859375</ele>
        <time>2011-06-04T11:21:56Z</time>
      </trkpt>
      <trkpt lat="45.3304" lon="5.77038">
        <ele>1372.9001464844</ele>
        <time>2011-06-04T11:21:58Z</time>
      </trkpt>
      <trkpt lat="45.33043" lon="5.77036">
        <ele>1364.7287597656</ele>
        <time>2011-06-04T11:22:03Z</time>
      </trkpt>
      <trkpt lat="45.33049" lon="5.77032">
        <ele>1360.8835449219</ele>
        <time>2011-06-04T11:22:09Z</time>
      </trkpt>
      <trkpt lat="45.33057" lon="5.77028">
        <ele>1360.8835449219</ele>
        <time>2011-06-04T11:22:16Z</time>
      </trkpt>
      <trkpt lat="45.33062" lon="5.77026">
        <ele>1364.7287597656</ele>
        <time>2011-06-04T11:22:28Z</time>
      </trkpt>
      <trkpt lat="45.33066" lon="5.77023">
        <ele>1366.6513671875</ele>
        <time>2011-06-04T11:22:32Z</time>
      </trkpt>
      <trkpt lat="45.33067" lon="5.77021">
        <ele>1366.6513671875</ele>
        <time>2011-06-04T11:22:33Z</time>
      </trkpt>
      <trkpt lat="45.33073" lon="5.77017">
        <ele>1367.1320800781</ele>
        <time>2011-06-04T11:22:36Z</time>
      </trkpt>
      <trkpt lat="45.33076" lon="5.77016">
        <ele>1366.6513671875</ele>
        <time>2011-06-04T11:22:38Z</time>
      </trkpt>
      <trkpt lat="45.33078" lon="5.77015">
        <ele>1367.1320800781</ele>
        <time>2011-06-04T11:22:39Z</time>
      </trkpt>
      <trkpt lat="45.33085" lon="5.77011">
        <ele>1366.6513671875</ele>
        <time>2011-06-04T11:22:43Z</time>
      </trkpt>
      <trkpt lat="45.33095" lon="5.77007">
        <ele>1364.7287597656</ele>
        <time>2011-06-04T11:22:49Z</time>
      </trkpt>
      <trkpt lat="45.331" lon="5.77009">
        <ele>1365.2094726562</ele>
        <time>2011-06-04T11:22:53Z</time>
      </trkpt>
      <trkpt lat="45.33097" lon="5.77018">
        <ele>1366.1706542969</ele>
        <time>2011-06-04T11:22:57Z</time>
      </trkpt>
      <trkpt lat="45.33088" lon="5.7703">
        <ele>1366.6513671875</ele>
        <time>2011-06-04T11:23:03Z</time>
      </trkpt>
      <trkpt lat="45.33079" lon="5.77045">
        <ele>1370.0158691406</ele>
        <time>2011-06-04T11:23:08Z</time>
      </trkpt>
      <trkpt lat="45.33072" lon="5.77056">
        <ele>1370.4965820312</ele>
        <time>2011-06-04T11:23:13Z</time>
      </trkpt>
      <trkpt lat="45.3307" lon="5.7706">
        <ele>1366.6513671875</ele>
        <time>2011-06-04T11:23:17Z</time>
      </trkpt>
      <trkpt lat="45.33076" lon="5.77053">
        <ele>1359.9221191406</ele>
        <time>2011-06-04T11:23:22Z</time>
      </trkpt>
      <trkpt lat="45.33083" lon="5.77046">
        <ele>1355.5961914062</ele>
        <time>2011-06-04T11:23:26Z</time>
      </trkpt>
      <trkpt lat="45.33089" lon="5.77043">
        <ele>1350.3090820312</ele>
        <time>2011-06-04T11:23:29Z</time>
      </trkpt>
      <trkpt lat="45.33099" lon="5.77035">
        <ele>1345.5024414062</ele>
        <time>2011-06-04T11:23:35Z</time>
      </trkpt>
      <trkpt lat="45.33101" lon="5.77034">
        <ele>1345.0217285156</ele>
        <time>2011-06-04T11:23:36Z</time>
      </trkpt>
      <trkpt lat="45.33112" lon="5.77036">
        <ele>1340.2153320312</ele>
        <time>2011-06-04T11:23:42Z</time>
      </trkpt>
      <trkpt lat="45.33113" lon="5.77037">
        <ele>1340.2153320312</ele>
        <time>2011-06-04T11:23:43Z</time>
      </trkpt>
      <trkpt lat="45.33113" lon="5.77039">
        <ele>1339.2536621094</ele>
        <time>2011-06-04T11:23:45Z</time>
      </trkpt>
      <trkpt lat="45.33107" lon="5.7705">
        <ele>1340.6958007812</ele>
        <time>2011-06-04T11:23:50Z</time>
      </trkpt>
      <trkpt lat="45.33103" lon="5.77067">
        <ele>1339.734375</ele>
        <time>2011-06-04T11:23:56Z</time>
      </trkpt>
      <trkpt lat="45.33099" lon="5.7708">
        <ele>1340.6958007812</ele>
        <time>2011-06-04T11:24:00Z</time>
      </trkpt>
      <trkpt lat="45.33096" lon="5.77083">
        <ele>1337.3310546875</ele>
        <time>2011-06-04T11:24:03Z</time>
      </trkpt>
      <trkpt lat="45.33097" lon="5.77083">
        <ele>1336.8503417969</ele>
        <time>2011-06-04T11:24:04Z</time>
      </trkpt>
      <trkpt lat="45.33104" lon="5.77075">
        <ele>1332.0439453125</ele>
        <time>2011-06-04T11:24:10Z</time>
      </trkpt>
      <trkpt lat="45.33106" lon="5.77069">
        <ele>1330.1213378906</ele>
        <time>2011-06-04T11:24:13Z</time>
      </trkpt>
      <trkpt lat="45.3311" lon="5.77061">
        <ele>1328.1987304688</ele>
        <time>2011-06-04T11:24:17Z</time>
      </trkpt>
      <trkpt lat="45.33125" lon="5.77058">
        <ele>1327.7180175781</ele>
        <time>2011-06-04T11:24:24Z</time>
      </trkpt>
      <trkpt lat="45.33126" lon="5.7706">
        <ele>1327.7180175781</ele>
        <time>2011-06-04T11:24:25Z</time>
      </trkpt>
      <trkpt lat="45.33124" lon="5.77064">
        <ele>1326.2761230469</ele>
        <time>2011-06-04T11:24:28Z</time>
      </trkpt>
      <trkpt lat="45.33119" lon="5.77078">
        <ele>1329.640625</ele>
        <time>2011-06-04T11:24:34Z</time>
      </trkpt>
      <trkpt lat="45.33124" lon="5.77094">
        <ele>1334.447265625</ele>
        <time>2011-06-04T11:24:39Z</time>
      </trkpt>
      <trkpt lat="45.33124" lon="5.77109">
        <ele>1334.447265625</ele>
        <time>2011-06-04T11:24:45Z</time>
      </trkpt>
      <trkpt lat="45.33123" lon="5.77113">
        <ele>1334.9279785156</ele>
        <time>2011-06-04T11:24:47Z</time>
      </trkpt>
      <trkpt lat="45.33123" lon="5.77112">
        <ele>1333.0051269531</ele>
        <time>2011-06-04T11:24:49Z</time>
      </trkpt>
      <trkpt lat="45.33128" lon="5.77101">
        <ele>1325.7954101562</ele>
        <time>2011-06-04T11:24:55Z</time>
      </trkpt>
      <trkpt lat="45.33128" lon="5.771">
        <ele>1325.7954101562</ele>
        <time>2011-06-04T11:24:56Z</time>
      </trkpt>
      <trkpt lat="45.3313" lon="5.77087">
        <ele>1318.5854492188</ele>
        <time>2011-06-04T11:25:02Z</time>
      </trkpt>
      <trkpt lat="45.33138" lon="5.7708">
        <ele>1315.2209472656</ele>
        <time>2011-06-04T11:25:07Z</time>
      </trkpt>
      <trkpt lat="45.33141" lon="5.77079">
        <ele>1313.7788085938</ele>
        <time>2011-06-04T11:25:10Z</time>
      </trkpt>
      <trkpt lat="45.33136" lon="5.77091">
        <ele>1313.7788085938</ele>
        <time>2011-06-04T11:25:15Z</time>
      </trkpt>
      <trkpt lat="45.33138" lon="5.77109">
        <ele>1316.1821289062</ele>
        <time>2011-06-04T11:25:21Z</time>
      </trkpt>
      <trkpt lat="45.33139" lon="5.77121">
        <ele>1320.9887695312</ele>
        <time>2011-06-04T11:25:25Z</time>
      </trkpt>
      <trkpt lat="45.3314" lon="5.77123">
        <ele>1321.9499511719</ele>
        <time>2011-06-04T11:25:26Z</time>
      </trkpt>
      <trkpt lat="45.33133" lon="5.77132">
        <ele>1321.4692382812</ele>
        <time>2011-06-04T11:25:32Z</time>
      </trkpt>
      <trkpt lat="45.33132" lon="5.77131">
        <ele>1321.4692382812</ele>
        <time>2011-06-04T11:25:33Z</time>
      </trkpt>
      <trkpt lat="45.33131" lon="5.7713">
        <ele>1320.02734375</ele>
        <time>2011-06-04T11:25:34Z</time>
      </trkpt>
      <trkpt lat="45.33132" lon="5.77129">
        <ele>1319.0661621094</ele>
        <time>2011-06-04T11:25:35Z</time>
      </trkpt>
      <trkpt lat="45.33141" lon="5.77118">
        <ele>1316.6628417969</ele>
        <time>2011-06-04T11:25:41Z</time>
      </trkpt>
      <trkpt lat="45.33143" lon="5.77113">
        <ele>1315.7016601562</ele>
        <time>2011-06-04T11:25:43Z</time>
      </trkpt>
      <trkpt lat="45.33152" lon="5.77101">
        <ele>1308.9724121094</ele>
        <time>2011-06-04T11:25:49Z</time>
      </trkpt>
      <trkpt lat="45.3316" lon="5.77096">
        <ele>1306.0881347656</ele>
        <time>2011-06-04T11:25:53Z</time>
      </trkpt>
      <trkpt lat="45.33156" lon="5.77112">
        <ele>1308.4916992188</ele>
        <time>2011-06-04T11:25:59Z</time>
      </trkpt>
      <trkpt lat="45.33157" lon="5.77125">
        <ele>1308.4916992188</ele>
        <time>2011-06-04T11:26:03Z</time>
      </trkpt>
      <trkpt lat="45.33158" lon="5.77139">
        <ele>1310.8950195312</ele>
        <time>2011-06-04T11:26:07Z</time>
      </trkpt>
      <trkpt lat="45.33154" lon="5.77148">
        <ele>1308.4916992188</ele>
        <time>2011-06-04T11:26:11Z</time>
      </trkpt>
      <trkpt lat="45.33149" lon="5.77162">
        <ele>1305.126953125</ele>
        <time>2011-06-04T11:26:15Z</time>
      </trkpt>
      <trkpt lat="45.33148" lon="5.77165">
        <ele>1305.126953125</ele>
        <time>2011-06-04T11:26:16Z</time>
      </trkpt>
      <trkpt lat="45.33152" lon="5.77169">
        <ele>1301.2817382812</ele>
        <time>2011-06-04T11:26:22Z</time>
      </trkpt>
      <trkpt lat="45.33155" lon="5.77163">
        <ele>1294.0720214844</ele>
        <time>2011-06-04T11:26:26Z</time>
      </trkpt>
      <trkpt lat="45.3316" lon="5.77155">
        <ele>1290.70703125</ele>
        <time>2011-06-04T11:26:29Z</time>
      </trkpt>
      <trkpt lat="45.33171" lon="5.77146">
        <ele>1289.2651367188</ele>
        <time>2011-06-04T11:26:34Z</time>
      </trkpt>
      <trkpt lat="45.33176" lon="5.77142">
        <ele>1288.3039550781</ele>
        <time>2011-06-04T11:26:37Z</time>
      </trkpt>
      <trkpt lat="45.33178" lon="5.7714">
        <ele>1287.8232421875</ele>
        <time>2011-06-04T11:26:39Z</time>
      </trkpt>
      <trkpt lat="45.33188" lon="5.77128">
        <ele>1279.6520996094</ele>
        <time>2011-06-04T11:26:46Z</time>
      </trkpt>
      <trkpt lat="45.33197" lon="5.77119">
        <ele>1278.2102050781</ele>
        <time>2011-06-04T11:26:50Z</time>
      </trkpt>
      <trkpt lat="45.33208" lon="5.77124">
        <ele>1277.7294921875</ele>
        <time>2011-06-04T11:26:54Z</time>
      </trkpt>
      <trkpt lat="45.33204" lon="5.77145">
        <ele>1281.5747070312</ele>
        <time>2011-06-04T11:27:00Z</time>
      </trkpt>
      <trkpt lat="45.33201" lon="5.77153">
        <ele>1283.0166015625</ele>
        <time>2011-06-04T11:27:02Z</time>
      </trkpt>
      <trkpt lat="45.33194" lon="5.77168">
        <ele>1285.9006347656</ele>
        <time>2011-06-04T11:27:07Z</time>
      </trkpt>
      <trkpt lat="45.33195" lon="5.77166">
        <ele>1282.0554199219</ele>
        <time>2011-06-04T11:27:09Z</time>
      </trkpt>
      <trkpt lat="45.332" lon="5.77163">
        <ele>1274.3647460938</ele>
        <time>2011-06-04T11:27:13Z</time>
      </trkpt>
      <trkpt lat="45.33202" lon="5.77156">
        <ele>1271.4807128906</ele>
        <time>2011-06-04T11:27:16Z</time>
      </trkpt>
      <trkpt lat="45.33207" lon="5.77151">
        <ele>1267.1550292969</ele>
        <time>2011-06-04T11:27:20Z</time>
      </trkpt>
      <trkpt lat="45.33215" lon="5.77139">
        <ele>1267.1550292969</ele>
        <time>2011-06-04T11:27:25Z</time>
      </trkpt>
      <trkpt lat="45.33218" lon="5.77132">
        <ele>1265.7131347656</ele>
        <time>2011-06-04T11:27:28Z</time>
      </trkpt>
      <trkpt lat="45.33223" lon="5.77135">
        <ele>1263.7902832031</ele>
        <time>2011-06-04T11:27:31Z</time>
      </trkpt>
      <trkpt lat="45.33223" lon="5.77144">
        <ele>1261.8679199219</ele>
        <time>2011-06-04T11:27:35Z</time>
      </trkpt>
      <trkpt lat="45.33219" lon="5.77155">
        <ele>1263.3098144531</ele>
        <time>2011-06-04T11:27:39Z</time>
      </trkpt>
      <trkpt lat="45.33215" lon="5.77168">
        <ele>1271.9614257812</ele>
        <time>2011-06-04T11:27:43Z</time>
      </trkpt>
      <trkpt lat="45.33217" lon="5.77173">
        <ele>1275.806640625</ele>
        <time>2011-06-04T11:27:45Z</time>
      </trkpt>
      <trkpt lat="45.33217" lon="5.77173">
        <ele>1273.8840332031</ele>
        <time>2011-06-04T11:27:47Z</time>
      </trkpt>
      <trkpt lat="45.33217" lon="5.77172">
        <ele>1273.4035644531</ele>
        <time>2011-06-04T11:27:48Z</time>
      </trkpt>
      <trkpt lat="45.33221" lon="5.77164">
        <ele>1271.9614257812</ele>
        <time>2011-06-04T11:27:56Z</time>
      </trkpt>
      <trkpt lat="45.33228" lon="5.77156">
        <ele>1263.3098144531</ele>
        <time>2011-06-04T11:28:00Z</time>
      </trkpt>
      <trkpt lat="45.33229" lon="5.77151">
        <ele>1259.9448242188</ele>
        <time>2011-06-04T11:28:02Z</time>
      </trkpt>
      <trkpt lat="45.33238" lon="5.77135">
        <ele>1255.1384277344</ele>
        <time>2011-06-04T11:28:08Z</time>
      </trkpt>
      <trkpt lat="45.33244" lon="5.77125">
        <ele>1246.9672851562</ele>
        <time>2011-06-04T11:28:13Z</time>
      </trkpt>
      <trkpt lat="45.33235" lon="5.77111">
        <ele>1245.0446777344</ele>
        <time>2011-06-04T11:28:19Z</time>
      </trkpt>
      <trkpt lat="45.33233" lon="5.77109">
        <ele>1245.0446777344</ele>
        <time>2011-06-04T11:28:20Z</time>
      </trkpt>
      <trkpt lat="45.33231" lon="5.77105">
        <ele>1243.6025390625</ele>
        <time>2011-06-04T11:28:22Z</time>
      </trkpt>
      <trkpt lat="45.33223" lon="5.77099">
        <ele>1238.7961425781</ele>
        <time>2011-06-04T11:28:27Z</time>
      </trkpt>
      <trkpt lat="45.33222" lon="5.77097">
        <ele>1237.8347167969</ele>
        <time>2011-06-04T11:28:28Z</time>
      </trkpt>
      <trkpt lat="45.33218" lon="5.77085">
        <ele>1248.4091796875</ele>
        <time>2011-06-04T11:28:32Z</time>
      </trkpt>
      <trkpt lat="45.33218" lon="5.77064">
        <ele>1248.8898925781</ele>
        <time>2011-06-04T11:28:37Z</time>
      </trkpt>
      <trkpt lat="45.33218" lon="5.7706">
        <ele>1249.3706054688</ele>
        <time>2011-06-04T11:28:38Z</time>
      </trkpt>
      <trkpt lat="45.3322" lon="5.77041">
        <ele>1252.2543945312</ele>
        <time>2011-06-04T11:28:43Z</time>
      </trkpt>
      <trkpt lat="45.33221" lon="5.77027">
        <ele>1252.2543945312</ele>
        <time>2011-06-04T11:28:47Z</time>
      </trkpt>
      <trkpt lat="45.33222" lon="5.77017">
        <ele>1247.9287109375</ele>
        <time>2011-06-04T11:28:50Z</time>
      </trkpt>
      <trkpt lat="45.33227" lon="5.77004">
        <ele>1243.1218261719</ele>
        <time>2011-06-04T11:28:55Z</time>
      </trkpt>
      <trkpt lat="45.33227" lon="5.77005">
        <ele>1243.1218261719</ele>
        <time>2011-06-04T11:28:56Z</time>
      </trkpt>
      <trkpt lat="45.33231" lon="5.77022">
        <ele>1239.2766113281</ele>
        <time>2011-06-04T11:29:01Z</time>
      </trkpt>
      <trkpt lat="45.33232" lon="5.77035">
        <ele>1239.2766113281</ele>
        <time>2011-06-04T11:29:05Z</time>
      </trkpt>
      <trkpt lat="45.33233" lon="5.77045">
        <ele>1242.6413574219</ele>
        <time>2011-06-04T11:29:09Z</time>
      </trkpt>
      <trkpt lat="45.33237" lon="5.77047">
        <ele>1243.1218261719</ele>
        <time>2011-06-04T11:29:13Z</time>
      </trkpt>
      <trkpt lat="45.33245" lon="5.77041">
        <ele>1240.7185058594</ele>
        <time>2011-06-04T11:29:17Z</time>
      </trkpt>
      <trkpt lat="45.33253" lon="5.7703">
        <ele>1228.2216796875</ele>
        <time>2011-06-04T11:29:23Z</time>
      </trkpt>
      <trkpt lat="45.33252" lon="5.77016">
        <ele>1223.4150390625</ele>
        <time>2011-06-04T11:29:27Z</time>
      </trkpt>
      <trkpt lat="45.33254" lon="5.77004">
        <ele>1216.205078125</ele>
        <time>2011-06-04T11:29:33Z</time>
      </trkpt>
      <trkpt lat="45.33256" lon="5.77001">
        <ele>1213.8017578125</ele>
        <time>2011-06-04T11:29:35Z</time>
      </trkpt>
      <trkpt lat="45.33259" lon="5.76992">
        <ele>1208.5144042969</ele>
        <time>2011-06-04T11:29:40Z</time>
      </trkpt>
      <trkpt lat="45.33262" lon="5.76985">
        <ele>1201.3046875</ele>
        <time>2011-06-04T11:29:43Z</time>
      </trkpt>
      <trkpt lat="45.33264" lon="5.76981">
        <ele>1198.9013671875</ele>
        <time>2011-06-04T11:29:46Z</time>
      </trkpt>
      <trkpt lat="45.33265" lon="5.76974">
        <ele>1197.9401855469</ele>
        <time>2011-06-04T11:29:49Z</time>
      </trkpt>
      <trkpt lat="45.33266" lon="5.76969">
        <ele>1196.9787597656</ele>
        <time>2011-06-04T11:29:51Z</time>
      </trkpt>
      <trkpt lat="45.33271" lon="5.7696">
        <ele>1196.4982910156</ele>
        <time>2011-06-04T11:29:55Z</time>
      </trkpt>
      <trkpt lat="45.33273" lon="5.76956">
        <ele>1197.4594726562</ele>
        <time>2011-06-04T11:29:57Z</time>
      </trkpt>
      <trkpt lat="45.33276" lon="5.76952">
        <ele>1198.9013671875</ele>
        <time>2011-06-04T11:30:01Z</time>
      </trkpt>
      <trkpt lat="45.33276" lon="5.7695">
        <ele>1199.3820800781</ele>
        <time>2011-06-04T11:30:03Z</time>
      </trkpt>
      <trkpt lat="45.33281" lon="5.7694">
        <ele>1204.1887207031</ele>
        <time>2011-06-04T11:30:08Z</time>
      </trkpt>
      <trkpt lat="45.33284" lon="5.76938">
        <ele>1202.2658691406</ele>
        <time>2011-06-04T11:30:10Z</time>
      </trkpt>
      <trkpt lat="45.33289" lon="5.76934">
        <ele>1199.8627929688</ele>
        <time>2011-06-04T11:30:14Z</time>
      </trkpt>
      <trkpt lat="45.33293" lon="5.7693">
        <ele>1199.8627929688</ele>
        <time>2011-06-04T11:30:18Z</time>
      </trkpt>
      <trkpt lat="45.33299" lon="5.76927">
        <ele>1203.2272949219</ele>
        <time>2011-06-04T11:30:23Z</time>
      </trkpt>
      <trkpt lat="45.333" lon="5.76925">
        <ele>1204.6691894531</ele>
        <time>2011-06-04T11:30:25Z</time>
      </trkpt>
      <trkpt lat="45.33311" lon="5.76927">
        <ele>1208.0339355469</ele>
        <time>2011-06-04T11:30:31Z</time>
      </trkpt>
      <trkpt lat="45.33319" lon="5.76931">
        <ele>1206.591796875</ele>
        <time>2011-06-04T11:30:34Z</time>
      </trkpt>
      <trkpt lat="45.33324" lon="5.76935">
        <ele>1205.6306152344</ele>
        <time>2011-06-04T11:30:36Z</time>
      </trkpt>
      <trkpt lat="45.33334" lon="5.7694">
        <ele>1204.1887207031</ele>
        <time>2011-06-04T11:30:40Z</time>
      </trkpt>
      <trkpt lat="45.33338" lon="5.76945">
        <ele>1204.1887207031</ele>
        <time>2011-06-04T11:30:44Z</time>
      </trkpt>
      <trkpt lat="45.33342" lon="5.76955">
        <ele>1204.6691894531</ele>
        <time>2011-06-04T11:30:50Z</time>
      </trkpt>
      <trkpt lat="45.33334" lon="5.76954">
        <ele>1203.7080078125</ele>
        <time>2011-06-04T11:30:56Z</time>
      </trkpt>
      <trkpt lat="45.33324" lon="5.7696">
        <ele>1201.7854003906</ele>
        <time>2011-06-04T11:31:01Z</time>
      </trkpt>
      <trkpt lat="45.3332" lon="5.76962">
        <ele>1200.3435058594</ele>
        <time>2011-06-04T11:31:03Z</time>
      </trkpt>
      <trkpt lat="45.33315" lon="5.76981">
        <ele>1205.1499023438</ele>
        <time>2011-06-04T11:31:08Z</time>
      </trkpt>
      <trkpt lat="45.33312" lon="5.76992">
        <ele>1206.1110839844</ele>
        <time>2011-06-04T11:31:13Z</time>
      </trkpt>
      <trkpt lat="45.33313" lon="5.77003">
        <ele>1205.1499023438</ele>
        <time>2011-06-04T11:31:18Z</time>
      </trkpt>
      <trkpt lat="45.33311" lon="5.77008">
        <ele>1202.2658691406</ele>
        <time>2011-06-04T11:31:21Z</time>
      </trkpt>
      <trkpt lat="45.33311" lon="5.7701">
        <ele>1199.8627929688</ele>
        <time>2011-06-04T11:31:23Z</time>
      </trkpt>
      <trkpt lat="45.33309" lon="5.77016">
        <ele>1193.1333007812</ele>
        <time>2011-06-04T11:31:27Z</time>
      </trkpt>
      <trkpt lat="45.33312" lon="5.77032">
        <ele>1188.3269042969</ele>
        <time>2011-06-04T11:31:33Z</time>
      </trkpt>
      <trkpt lat="45.33309" lon="5.77041">
        <ele>1185.4428710938</ele>
        <time>2011-06-04T11:31:36Z</time>
      </trkpt>
      <trkpt lat="45.33314" lon="5.77049">
        <ele>1185.4428710938</ele>
        <time>2011-06-04T11:31:40Z</time>
      </trkpt>
      <trkpt lat="45.33317" lon="5.77063">
        <ele>1185.9235839844</ele>
        <time>2011-06-04T11:31:46Z</time>
      </trkpt>
      <trkpt lat="45.33317" lon="5.77077">
        <ele>1184.4816894531</ele>
        <time>2011-06-04T11:31:51Z</time>
      </trkpt>
      <trkpt lat="45.33313" lon="5.77089">
        <ele>1180.6364746094</ele>
        <time>2011-06-04T11:31:56Z</time>
      </trkpt>
      <trkpt lat="45.33311" lon="5.77096">
        <ele>1179.1940917969</ele>
        <time>2011-06-04T11:32:00Z</time>
      </trkpt>
      <trkpt lat="45.3331" lon="5.77098">
        <ele>1176.791015625</ele>
        <time>2011-06-04T11:32:04Z</time>
      </trkpt>
      <trkpt lat="45.33315" lon="5.77089">
        <ele>1170.5424804688</ele>
        <time>2011-06-04T11:32:10Z</time>
      </trkpt>
      <trkpt lat="45.33318" lon="5.77082">
        <ele>1171.0231933594</ele>
        <time>2011-06-04T11:32:14Z</time>
      </trkpt>
      <trkpt lat="45.33325" lon="5.77076">
        <ele>1171.0231933594</ele>
        <time>2011-06-04T11:32:19Z</time>
      </trkpt>
      <trkpt lat="45.33323" lon="5.77092">
        <ele>1172.9458007812</ele>
        <time>2011-06-04T11:32:25Z</time>
      </trkpt>
      <trkpt lat="45.33323" lon="5.77095">
        <ele>1172.9458007812</ele>
        <time>2011-06-04T11:32:26Z</time>
      </trkpt>
      <trkpt lat="45.33324" lon="5.77107">
        <ele>1171.5036621094</ele>
        <time>2011-06-04T11:32:30Z</time>
      </trkpt>
      <trkpt lat="45.33323" lon="5.77112">
        <ele>1170.5424804688</ele>
        <time>2011-06-04T11:32:32Z</time>
      </trkpt>
      <trkpt lat="45.33321" lon="5.77127">
        <ele>1171.5036621094</ele>
        <time>2011-06-04T11:32:39Z</time>
      </trkpt>
      <trkpt lat="45.33322" lon="5.77129">
        <ele>1172.4650878906</ele>
        <time>2011-06-04T11:32:41Z</time>
      </trkpt>
      <trkpt lat="45.33321" lon="5.77119">
        <ele>1170.5424804688</ele>
        <time>2011-06-04T11:32:45Z</time>
      </trkpt>
      <trkpt lat="45.33322" lon="5.77116">
        <ele>1170.0617675781</ele>
        <time>2011-06-04T11:32:46Z</time>
      </trkpt>
      <trkpt lat="45.33328" lon="5.77107">
        <ele>1167.1779785156</ele>
        <time>2011-06-04T11:32:50Z</time>
      </trkpt>
      <trkpt lat="45.33336" lon="5.77102">
        <ele>1162.37109375</ele>
        <time>2011-06-04T11:32:55Z</time>
      </trkpt>
      <trkpt lat="45.33348" lon="5.77089">
        <ele>1155.6420898438</ele>
        <time>2011-06-04T11:33:02Z</time>
      </trkpt>
      <trkpt lat="45.33351" lon="5.77086">
        <ele>1153.7194824219</ele>
        <time>2011-06-04T11:33:04Z</time>
      </trkpt>
      <trkpt lat="45.33355" lon="5.7708">
        <ele>1152.7580566406</ele>
        <time>2011-06-04T11:33:07Z</time>
      </trkpt>
      <trkpt lat="45.33363" lon="5.77069">
        <ele>1153.7194824219</ele>
        <time>2011-06-04T11:33:13Z</time>
      </trkpt>
      <trkpt lat="45.33366" lon="5.77068">
        <ele>1153.2387695312</ele>
        <time>2011-06-04T11:33:16Z</time>
      </trkpt>
      <trkpt lat="45.33374" lon="5.7708">
        <ele>1158.5258789062</ele>
        <time>2011-06-04T11:33:21Z</time>
      </trkpt>
      <trkpt lat="45.33375" lon="5.77082">
        <ele>1159.9677734375</ele>
        <time>2011-06-04T11:33:22Z</time>
      </trkpt>
      <trkpt lat="45.33381" lon="5.77095">
        <ele>1166.2165527344</ele>
        <time>2011-06-04T11:33:27Z</time>
      </trkpt>
      <trkpt lat="45.33376" lon="5.77104">
        <ele>1164.2939453125</ele>
        <time>2011-06-04T11:33:32Z</time>
      </trkpt>
      <trkpt lat="45.33374" lon="5.77113">
        <ele>1160.9291992188</ele>
        <time>2011-06-04T11:33:37Z</time>
      </trkpt>
      <trkpt lat="45.33377" lon="5.77128">
        <ele>1158.0454101562</ele>
        <time>2011-06-04T11:33:42Z</time>
      </trkpt>
      <trkpt lat="45.33371" lon="5.77133">
        <ele>1154.6806640625</ele>
        <time>2011-06-04T11:33:45Z</time>
      </trkpt>
      <trkpt lat="45.33366" lon="5.77143">
        <ele>1156.6032714844</ele>
        <time>2011-06-04T11:33:50Z</time>
      </trkpt>
      <trkpt lat="45.33363" lon="5.77157">
        <ele>1155.6420898438</ele>
        <time>2011-06-04T11:33:55Z</time>
      </trkpt>
      <trkpt lat="45.33364" lon="5.77159">
        <ele>1154.6806640625</ele>
        <time>2011-06-04T11:33:56Z</time>
      </trkpt>
      <trkpt lat="45.33364" lon="5.77166">
        <ele>1157.5646972656</ele>
        <time>2011-06-04T11:33:59Z</time>
      </trkpt>
      <trkpt lat="45.33364" lon="5.7718">
        <ele>1159.4873046875</ele>
        <time>2011-06-04T11:34:04Z</time>
      </trkpt>
      <trkpt lat="45.33364" lon="5.77182">
        <ele>1158.0454101562</ele>
        <time>2011-06-04T11:34:05Z</time>
      </trkpt>
      <trkpt lat="45.33369" lon="5.77181">
        <ele>1157.083984375</ele>
        <time>2011-06-04T11:34:08Z</time>
      </trkpt>
      <trkpt lat="45.33373" lon="5.77173">
        <ele>1153.7194824219</ele>
        <time>2011-06-04T11:34:12Z</time>
      </trkpt>
      <trkpt lat="45.33377" lon="5.77169">
        <ele>1144.5866699219</ele>
        <time>2011-06-04T11:34:17Z</time>
      </trkpt>
      <trkpt lat="45.33381" lon="5.77171">
        <ele>1141.2221679688</ele>
        <time>2011-06-04T11:34:20Z</time>
      </trkpt>
      <trkpt lat="45.33388" lon="5.77184">
        <ele>1139.7802734375</ele>
        <time>2011-06-04T11:34:25Z</time>
      </trkpt>
      <trkpt lat="45.33389" lon="5.77188">
        <ele>1139.2995605469</ele>
        <time>2011-06-04T11:34:26Z</time>
      </trkpt>
      <trkpt lat="45.33394" lon="5.77197">
        <ele>1134.4931640625</ele>
        <time>2011-06-04T11:34:31Z</time>
      </trkpt>
      <trkpt lat="45.33395" lon="5.77198">
        <ele>1131.1284179688</ele>
        <time>2011-06-04T11:34:33Z</time>
      </trkpt>
      <trkpt lat="45.33397" lon="5.772">
        <ele>1127.763671875</ele>
        <time>2011-06-04T11:34:35Z</time>
      </trkpt>
      <trkpt lat="45.3341" lon="5.77196">
        <ele>1125.3603515625</ele>
        <time>2011-06-04T11:34:41Z</time>
      </trkpt>
      <trkpt lat="45.33417" lon="5.77197">
        <ele>1122.9572753906</ele>
        <time>2011-06-04T11:34:45Z</time>
      </trkpt>
      <trkpt lat="45.33418" lon="5.77198">
        <ele>1123.4379882812</ele>
        <time>2011-06-04T11:34:46Z</time>
      </trkpt>
      <trkpt lat="45.33427" lon="5.77197">
        <ele>1121.0346679688</ele>
        <time>2011-06-04T11:34:49Z</time>
      </trkpt>
      <trkpt lat="45.3344" lon="5.77201">
        <ele>1118.6313476562</ele>
        <time>2011-06-04T11:34:54Z</time>
      </trkpt>
      <trkpt lat="45.33447" lon="5.77205">
        <ele>1115.7473144531</ele>
        <time>2011-06-04T11:34:58Z</time>
      </trkpt>
      <trkpt lat="45.3346" lon="5.77224">
        <ele>1117.669921875</ele>
        <time>2011-06-04T11:35:04Z</time>
      </trkpt>
      <trkpt lat="45.33463" lon="5.77233">
        <ele>1119.1120605469</ele>
        <time>2011-06-04T11:35:07Z</time>
      </trkpt>
      <trkpt lat="45.33463" lon="5.77252">
        <ele>1118.6313476562</ele>
        <time>2011-06-04T11:35:15Z</time>
      </trkpt>
      <trkpt lat="45.33465" lon="5.77257">
        <ele>1119.1120605469</ele>
        <time>2011-06-04T11:35:17Z</time>
      </trkpt>
      <trkpt lat="45.33468" lon="5.77258">
        <ele>1119.1120605469</ele>
        <time>2011-06-04T11:35:21Z</time>
      </trkpt>
      <trkpt lat="45.3347" lon="5.77259">
        <ele>1119.5927734375</ele>
        <time>2011-06-04T11:35:23Z</time>
      </trkpt>
      <trkpt lat="45.3348" lon="5.77267">
        <ele>1121.0346679688</ele>
        <time>2011-06-04T11:35:28Z</time>
      </trkpt>
      <trkpt lat="45.33484" lon="5.77273">
        <ele>1117.669921875</ele>
        <time>2011-06-04T11:35:32Z</time>
      </trkpt>
      <trkpt lat="45.33497" lon="5.77283">
        <ele>1115.2666015625</ele>
        <time>2011-06-04T11:35:37Z</time>
      </trkpt>
      <trkpt lat="45.33504" lon="5.77292">
        <ele>1115.2666015625</ele>
        <time>2011-06-04T11:35:41Z</time>
      </trkpt>
      <trkpt lat="45.33506" lon="5.77303">
        <ele>1115.2666015625</ele>
        <time>2011-06-04T11:35:46Z</time>
      </trkpt>
      <trkpt lat="45.33511" lon="5.7731">
        <ele>1112.3825683594</ele>
        <time>2011-06-04T11:35:51Z</time>
      </trkpt>
      <trkpt lat="45.33511" lon="5.77317">
        <ele>1109.9792480469</ele>
        <time>2011-06-04T11:35:57Z</time>
      </trkpt>
      <trkpt lat="45.33511" lon="5.7732">
        <ele>1109.9792480469</ele>
        <time>2011-06-04T11:35:59Z</time>
      </trkpt>
      <trkpt lat="45.33511" lon="5.77326">
        <ele>1109.9792480469</ele>
        <time>2011-06-04T11:36:03Z</time>
      </trkpt>
      <trkpt lat="45.33512" lon="5.77325">
        <ele>1108.0568847656</ele>
        <time>2011-06-04T11:36:06Z</time>
      </trkpt>
      <trkpt lat="45.33514" lon="5.77323">
        <ele>1108.5373535156</ele>
        <time>2011-06-04T11:36:08Z</time>
      </trkpt>
      <trkpt lat="45.33519" lon="5.77326">
        <ele>1103.2502441406</ele>
        <time>2011-06-04T11:36:12Z</time>
      </trkpt>
      <trkpt lat="45.33521" lon="5.77336">
        <ele>1104.6921386719</ele>
        <time>2011-06-04T11:36:17Z</time>
      </trkpt>
      <trkpt lat="45.33519" lon="5.77349">
        <ele>1101.8083496094</ele>
        <time>2011-06-04T11:36:22Z</time>
      </trkpt>
      <trkpt lat="45.33521" lon="5.77357">
        <ele>1099.4047851562</ele>
        <time>2011-06-04T11:36:26Z</time>
      </trkpt>
      <trkpt lat="45.33522" lon="5.77358">
        <ele>1097.962890625</ele>
        <time>2011-06-04T11:36:27Z</time>
      </trkpt>
      <trkpt lat="45.33526" lon="5.77369">
        <ele>1095.5595703125</ele>
        <time>2011-06-04T11:36:32Z</time>
      </trkpt>
      <trkpt lat="45.33527" lon="5.77371">
        <ele>1095.0788574219</ele>
        <time>2011-06-04T11:36:33Z</time>
      </trkpt>
      <trkpt lat="45.3353" lon="5.77379">
        <ele>1096.0402832031</ele>
        <time>2011-06-04T11:36:37Z</time>
      </trkpt>
      <trkpt lat="45.33533" lon="5.77381">
        <ele>1094.5981445312</ele>
        <time>2011-06-04T11:36:39Z</time>
      </trkpt>
      <trkpt lat="45.33537" lon="5.7738">
        <ele>1093.15625</ele>
        <time>2011-06-04T11:36:41Z</time>
      </trkpt>
      <trkpt lat="45.33545" lon="5.77379">
        <ele>1090.7529296875</ele>
        <time>2011-06-04T11:36:46Z</time>
      </trkpt>
      <trkpt lat="45.33551" lon="5.77384">
        <ele>1088.3498535156</ele>
        <time>2011-06-04T11:36:49Z</time>
      </trkpt>
      <trkpt lat="45.33558" lon="5.7739">
        <ele>1086.9077148438</ele>
        <time>2011-06-04T11:36:54Z</time>
      </trkpt>
      <trkpt lat="45.33562" lon="5.77403">
        <ele>1086.4272460938</ele>
        <time>2011-06-04T11:36:59Z</time>
      </trkpt>
      <trkpt lat="45.33566" lon="5.77416">
        <ele>1086.4272460938</ele>
        <time>2011-06-04T11:37:04Z</time>
      </trkpt>
      <trkpt lat="45.33571" lon="5.77423">
        <ele>1087.3884277344</ele>
        <time>2011-06-04T11:37:07Z</time>
      </trkpt>
      <trkpt lat="45.33576" lon="5.77434">
        <ele>1088.3498535156</ele>
        <time>2011-06-04T11:37:12Z</time>
      </trkpt>
      <trkpt lat="45.33578" lon="5.77444">
        <ele>1087.869140625</ele>
        <time>2011-06-04T11:37:16Z</time>
      </trkpt>
      <trkpt lat="45.3358" lon="5.77447">
        <ele>1087.3884277344</ele>
        <time>2011-06-04T11:37:18Z</time>
      </trkpt>
      <trkpt lat="45.33588" lon="5.77455">
        <ele>1084.0239257812</ele>
        <time>2011-06-04T11:37:22Z</time>
      </trkpt>
      <trkpt lat="45.33597" lon="5.77457">
        <ele>1079.6977539062</ele>
        <time>2011-06-04T11:37:26Z</time>
      </trkpt>
      <trkpt lat="45.33605" lon="5.77467">
        <ele>1075.8525390625</ele>
        <time>2011-06-04T11:37:31Z</time>
      </trkpt>
      <trkpt lat="45.33606" lon="5.77468">
        <ele>1074.8913574219</ele>
        <time>2011-06-04T11:37:32Z</time>
      </trkpt>
      <trkpt lat="45.33609" lon="5.77471">
        <ele>1073.9299316406</ele>
        <time>2011-06-04T11:37:34Z</time>
      </trkpt>
      <trkpt lat="45.33612" lon="5.77472">
        <ele>1072.96875</ele>
        <time>2011-06-04T11:37:37Z</time>
      </trkpt>
      <trkpt lat="45.33613" lon="5.7748">
        <ele>1072.0073242188</ele>
        <time>2011-06-04T11:37:41Z</time>
      </trkpt>
      <trkpt lat="45.33618" lon="5.77488">
        <ele>1070.5654296875</ele>
        <time>2011-06-04T11:37:46Z</time>
      </trkpt>
      <trkpt lat="45.3362" lon="5.77489">
        <ele>1069.1235351562</ele>
        <time>2011-06-04T11:37:47Z</time>
      </trkpt>
      <trkpt lat="45.33622" lon="5.77493">
        <ele>1069.6042480469</ele>
        <time>2011-06-04T11:37:50Z</time>
      </trkpt>
      <trkpt lat="45.33625" lon="5.77499">
        <ele>1071.5266113281</ele>
        <time>2011-06-04T11:37:55Z</time>
      </trkpt>
      <trkpt lat="45.33629" lon="5.77506">
        <ele>1071.5266113281</ele>
        <time>2011-06-04T11:38:00Z</time>
      </trkpt>
      <trkpt lat="45.33632" lon="5.77508">
        <ele>1072.96875</ele>
        <time>2011-06-04T11:38:02Z</time>
      </trkpt>
      <trkpt lat="45.33643" lon="5.77513">
        <ele>1075.3718261719</ele>
        <time>2011-06-04T11:38:07Z</time>
      </trkpt>
      <trkpt lat="45.3365" lon="5.77511">
        <ele>1076.8139648438</ele>
        <time>2011-06-04T11:38:09Z</time>
      </trkpt>
      <trkpt lat="45.33665" lon="5.77514">
        <ele>1076.3332519531</ele>
        <time>2011-06-04T11:38:14Z</time>
      </trkpt>
      <trkpt lat="45.33667" lon="5.77517">
        <ele>1074.4106445312</ele>
        <time>2011-06-04T11:38:15Z</time>
      </trkpt>
      <trkpt lat="45.33669" lon="5.7752">
        <ele>1073.9299316406</ele>
        <time>2011-06-04T11:38:16Z</time>
      </trkpt>
      <trkpt lat="45.33675" lon="5.77526">
        <ele>1068.162109375</ele>
        <time>2011-06-04T11:38:20Z</time>
      </trkpt>
      <trkpt lat="45.33687" lon="5.77529">
        <ele>1062.8747558594</ele>
        <time>2011-06-04T11:38:24Z</time>
      </trkpt>
      <trkpt lat="45.33693" lon="5.77534">
        <ele>1062.8747558594</ele>
        <time>2011-06-04T11:38:28Z</time>
      </trkpt>
      <trkpt lat="45.33702" lon="5.77545">
        <ele>1057.1069335938</ele>
        <time>2011-06-04T11:38:33Z</time>
      </trkpt>
      <trkpt lat="45.33702" lon="5.77546">
        <ele>1056.6262207031</ele>
        <time>2011-06-04T11:38:35Z</time>
      </trkpt>
      <trkpt lat="45.33705" lon="5.77534">
        <ele>1050.3776855469</ele>
        <time>2011-06-04T11:38:41Z</time>
      </trkpt>
      <trkpt lat="45.33706" lon="5.77532">
        <ele>1048.935546875</ele>
        <time>2011-06-04T11:38:42Z</time>
      </trkpt>
      <trkpt lat="45.33705" lon="5.77526">
        <ele>1044.1291503906</ele>
        <time>2011-06-04T11:38:46Z</time>
      </trkpt>
      <trkpt lat="45.33707" lon="5.77522">
        <ele>1040.2839355469</ele>
        <time>2011-06-04T11:38:48Z</time>
      </trkpt>
      <trkpt lat="45.33708" lon="5.77509">
        <ele>1032.5932617188</ele>
        <time>2011-06-04T11:38:54Z</time>
      </trkpt>
      <trkpt lat="45.33708" lon="5.77501">
        <ele>1027.3061523438</ele>
        <time>2011-06-04T11:38:58Z</time>
      </trkpt>
      <trkpt lat="45.33704" lon="5.77487">
        <ele>1036.9191894531</ele>
        <time>2011-06-04T11:39:03Z</time>
      </trkpt>
      <trkpt lat="45.33697" lon="5.77475">
        <ele>1042.2065429688</ele>
        <time>2011-06-04T11:39:09Z</time>
      </trkpt>
      <trkpt lat="45.33693" lon="5.77461">
        <ele>1033.5544433594</ele>
        <time>2011-06-04T11:39:13Z</time>
      </trkpt>
      <trkpt lat="45.33691" lon="5.77447">
        <ele>1031.1513671875</ele>
        <time>2011-06-04T11:39:18Z</time>
      </trkpt>
      <trkpt lat="45.33694" lon="5.77436">
        <ele>1024.9028320312</ele>
        <time>2011-06-04T11:39:23Z</time>
      </trkpt>
      <trkpt lat="45.33696" lon="5.77425">
        <ele>1022.0187988281</ele>
        <time>2011-06-04T11:39:27Z</time>
      </trkpt>
      <trkpt lat="45.33697" lon="5.77419">
        <ele>1021.0576171875</ele>
        <time>2011-06-04T11:39:29Z</time>
      </trkpt>
      <trkpt lat="45.33697" lon="5.77414">
        <ele>1022.4995117188</ele>
        <time>2011-06-04T11:39:31Z</time>
      </trkpt>
      <trkpt lat="45.33697" lon="5.77411">
        <ele>1030.1899414062</ele>
        <time>2011-06-04T11:39:36Z</time>
      </trkpt>
      <trkpt lat="45.337" lon="5.77416">
        <ele>1033.5544433594</ele>
        <time>2011-06-04T11:39:41Z</time>
      </trkpt>
      <trkpt lat="45.33702" lon="5.77418">
        <ele>1033.0737304688</ele>
        <time>2011-06-04T11:39:43Z</time>
      </trkpt>
      <trkpt lat="45.33714" lon="5.77423">
        <ele>1034.5158691406</ele>
        <time>2011-06-04T11:39:48Z</time>
      </trkpt>
      <trkpt lat="45.33715" lon="5.77428">
        <ele>1032.1125488281</ele>
        <time>2011-06-04T11:39:51Z</time>
      </trkpt>
      <trkpt lat="45.33723" lon="5.77435">
        <ele>1032.1125488281</ele>
        <time>2011-06-04T11:39:55Z</time>
      </trkpt>
      <trkpt lat="45.33731" lon="5.77441">
        <ele>1031.6318359375</ele>
        <time>2011-06-04T11:39:59Z</time>
      </trkpt>
      <trkpt lat="45.33742" lon="5.77446">
        <ele>1024.9028320312</ele>
        <time>2011-06-04T11:40:05Z</time>
      </trkpt>
      <trkpt lat="45.33745" lon="5.7745">
        <ele>1022.9802246094</ele>
        <time>2011-06-04T11:40:07Z</time>
      </trkpt>
      <trkpt lat="45.33751" lon="5.77455">
        <ele>1021.5380859375</ele>
        <time>2011-06-04T11:40:10Z</time>
      </trkpt>
      <trkpt lat="45.33757" lon="5.7746">
        <ele>1021.5380859375</ele>
        <time>2011-06-04T11:40:14Z</time>
      </trkpt>
      <trkpt lat="45.33759" lon="5.77461">
        <ele>1020.5769042969</ele>
        <time>2011-06-04T11:40:16Z</time>
      </trkpt>
      <trkpt lat="45.33765" lon="5.7747">
        <ele>1018.6540527344</ele>
        <time>2011-06-04T11:40:21Z</time>
      </trkpt>
      <trkpt lat="45.33769" lon="5.77466">
        <ele>1013.3669433594</ele>
        <time>2011-06-04T11:40:26Z</time>
      </trkpt>
      <trkpt lat="45.33767" lon="5.77455">
        <ele>1007.5991210938</ele>
        <time>2011-06-04T11:40:31Z</time>
      </trkpt>
      <trkpt lat="45.33765" lon="5.77451">
        <ele>1003.7536621094</ele>
        <time>2011-06-04T11:40:34Z</time>
      </trkpt>
      <trkpt lat="45.33765" lon="5.77447">
        <ele>997.0244140625</ele>
        <time>2011-06-04T11:40:37Z</time>
      </trkpt>
      <trkpt lat="45.33765" lon="5.77438">
        <ele>992.21801757812</ele>
        <time>2011-06-04T11:40:42Z</time>
      </trkpt>
      <trkpt lat="45.3376" lon="5.77428">
        <ele>988.853515625</ele>
        <time>2011-06-04T11:40:47Z</time>
      </trkpt>
      <trkpt lat="45.33756" lon="5.77416">
        <ele>985.48852539062</ele>
        <time>2011-06-04T11:40:53Z</time>
      </trkpt>
      <trkpt lat="45.33755" lon="5.77413">
        <ele>985.96923828125</ele>
        <time>2011-06-04T11:40:54Z</time>
      </trkpt>
      <trkpt lat="45.33751" lon="5.77406">
        <ele>985.48852539062</ele>
        <time>2011-06-04T11:40:57Z</time>
      </trkpt>
      <trkpt lat="45.33746" lon="5.77391">
        <ele>984.04663085938</ele>
        <time>2011-06-04T11:41:03Z</time>
      </trkpt>
      <trkpt lat="45.33745" lon="5.77389">
        <ele>983.08520507812</ele>
        <time>2011-06-04T11:41:04Z</time>
      </trkpt>
      <trkpt lat="45.33745" lon="5.7738">
        <ele>981.64331054688</ele>
        <time>2011-06-04T11:41:07Z</time>
      </trkpt>
      <trkpt lat="45.33745" lon="5.77378">
        <ele>979.720703125</ele>
        <time>2011-06-04T11:41:08Z</time>
      </trkpt>
      <trkpt lat="45.33744" lon="5.77375">
        <ele>980.20141601562</ele>
        <time>2011-06-04T11:41:09Z</time>
      </trkpt>
      <trkpt lat="45.33746" lon="5.77366">
        <ele>978.27880859375</ele>
        <time>2011-06-04T11:41:12Z</time>
      </trkpt>
      <trkpt lat="45.33748" lon="5.7735">
        <ele>978.75952148438</ele>
        <time>2011-06-04T11:41:17Z</time>
      </trkpt>
      <trkpt lat="45.33753" lon="5.77336">
        <ele>983.08520507812</ele>
        <time>2011-06-04T11:41:22Z</time>
      </trkpt>
      <trkpt lat="45.33755" lon="5.77332">
        <ele>981.64331054688</ele>
        <time>2011-06-04T11:41:24Z</time>
      </trkpt>
      <trkpt lat="45.33758" lon="5.77328">
        <ele>983.56591796875</ele>
        <time>2011-06-04T11:41:26Z</time>
      </trkpt>
      <trkpt lat="45.33759" lon="5.77322">
        <ele>989.81469726562</ele>
        <time>2011-06-04T11:41:29Z</time>
      </trkpt>
      <trkpt lat="45.33765" lon="5.7733">
        <ele>990.77587890625</ele>
        <time>2011-06-04T11:41:34Z</time>
      </trkpt>
      <trkpt lat="45.33773" lon="5.77341">
        <ele>990.29541015625</ele>
        <time>2011-06-04T11:41:38Z</time>
      </trkpt>
      <trkpt lat="45.33776" lon="5.77355">
        <ele>987.89184570312</ele>
        <time>2011-06-04T11:41:43Z</time>
      </trkpt>
      <trkpt lat="45.33779" lon="5.77367">
        <ele>985.96923828125</ele>
        <time>2011-06-04T11:41:47Z</time>
      </trkpt>
      <trkpt lat="45.33783" lon="5.7738">
        <ele>983.08520507812</ele>
        <time>2011-06-04T11:41:52Z</time>
      </trkpt>
      <trkpt lat="45.33784" lon="5.77382">
        <ele>983.08520507812</ele>
        <time>2011-06-04T11:41:53Z</time>
      </trkpt>
      <trkpt lat="45.33794" lon="5.77393">
        <ele>984.52734375</ele>
        <time>2011-06-04T11:41:58Z</time>
      </trkpt>
      <trkpt lat="45.33797" lon="5.77396">
        <ele>985.48852539062</ele>
        <time>2011-06-04T11:41:59Z</time>
      </trkpt>
      <trkpt lat="45.33814" lon="5.77406">
        <ele>986.93041992188</ele>
        <time>2011-06-04T11:42:04Z</time>
      </trkpt>
      <trkpt lat="45.33817" lon="5.77408">
        <ele>986.93041992188</ele>
        <time>2011-06-04T11:42:05Z</time>
      </trkpt>
      <trkpt lat="45.33819" lon="5.7741">
        <ele>986.44995117188</ele>
        <time>2011-06-04T11:42:06Z</time>
      </trkpt>
      <trkpt lat="45.33825" lon="5.77413">
        <ele>985.00805664062</ele>
        <time>2011-06-04T11:42:08Z</time>
      </trkpt>
      <trkpt lat="45.33828" lon="5.77415">
        <ele>984.52734375</ele>
        <time>2011-06-04T11:42:09Z</time>
      </trkpt>
      <trkpt lat="45.33843" lon="5.77423">
        <ele>982.1240234375</ele>
        <time>2011-06-04T11:42:14Z</time>
      </trkpt>
      <trkpt lat="45.33852" lon="5.77437">
        <ele>979.720703125</ele>
        <time>2011-06-04T11:42:18Z</time>
      </trkpt>
      <trkpt lat="45.33855" lon="5.77439">
        <ele>979.23999023438</ele>
        <time>2011-06-04T11:42:19Z</time>
      </trkpt>
      <trkpt lat="45.33869" lon="5.77451">
        <ele>977.31762695312</ele>
        <time>2011-06-04T11:42:25Z</time>
      </trkpt>
      <trkpt lat="45.3388" lon="5.7746">
        <ele>975.87548828125</ele>
        <time>2011-06-04T11:42:30Z</time>
      </trkpt>
      <trkpt lat="45.33889" lon="5.77467">
        <ele>973.95288085938</ele>
        <time>2011-06-04T11:42:35Z</time>
      </trkpt>
      <trkpt lat="45.33902" lon="5.77474">
        <ele>972.0302734375</ele>
        <time>2011-06-04T11:42:40Z</time>
      </trkpt>
      <trkpt lat="45.33914" lon="5.77474">
        <ele>968.18481445312</ele>
        <time>2011-06-04T11:42:45Z</time>
      </trkpt>
      <trkpt lat="45.33932" lon="5.77474">
        <ele>964.33959960938</ele>
        <time>2011-06-04T11:42:51Z</time>
      </trkpt>
      <trkpt lat="45.33937" lon="5.77472">
        <ele>963.37841796875</ele>
        <time>2011-06-04T11:42:53Z</time>
      </trkpt>
      <trkpt lat="45.33949" lon="5.77469">
        <ele>960.49438476562</ele>
        <time>2011-06-04T11:42:58Z</time>
      </trkpt>
      <trkpt lat="45.33954" lon="5.77467">
        <ele>959.05249023438</ele>
        <time>2011-06-04T11:43:00Z</time>
      </trkpt>
      <trkpt lat="45.33956" lon="5.77465">
        <ele>959.05249023438</ele>
        <time>2011-06-04T11:43:01Z</time>
      </trkpt>
      <trkpt lat="45.33968" lon="5.77466">
        <ele>954.72631835938</ele>
        <time>2011-06-04T11:43:06Z</time>
      </trkpt>
      <trkpt lat="45.33975" lon="5.7747">
        <ele>952.8037109375</ele>
        <time>2011-06-04T11:43:09Z</time>
      </trkpt>
      <trkpt lat="45.33978" lon="5.77471">
        <ele>952.32299804688</ele>
        <time>2011-06-04T11:43:10Z</time>
      </trkpt>
      <trkpt lat="45.33992" lon="5.77476">
        <ele>948.47778320312</ele>
        <time>2011-06-04T11:43:15Z</time>
      </trkpt>
      <trkpt lat="45.34003" lon="5.77486">
        <ele>943.19067382812</ele>
        <time>2011-06-04T11:43:19Z</time>
      </trkpt>
      <trkpt lat="45.3401" lon="5.77489">
        <ele>942.71020507812</ele>
        <time>2011-06-04T11:43:22Z</time>
      </trkpt>
      <trkpt lat="45.34015" lon="5.77492">
        <ele>941.74877929688</ele>
        <time>2011-06-04T11:43:24Z</time>
      </trkpt>
      <trkpt lat="45.34019" lon="5.77495">
        <ele>939.82592773438</ele>
        <time>2011-06-04T11:43:27Z</time>
      </trkpt>
      <trkpt lat="45.34029" lon="5.77504">
        <ele>939.34521484375</ele>
        <time>2011-06-04T11:43:33Z</time>
      </trkpt>
      <trkpt lat="45.34043" lon="5.77508">
        <ele>938.86474609375</ele>
        <time>2011-06-04T11:43:37Z</time>
      </trkpt>
      <trkpt lat="45.34063" lon="5.77518">
        <ele>937.9033203125</ele>
        <time>2011-06-04T11:43:43Z</time>
      </trkpt>
      <trkpt lat="45.34075" lon="5.77522">
        <ele>938.86474609375</ele>
        <time>2011-06-04T11:43:47Z</time>
      </trkpt>
      <trkpt lat="45.34085" lon="5.77528">
        <ele>937.42260742188</ele>
        <time>2011-06-04T11:43:51Z</time>
      </trkpt>
      <trkpt lat="45.34095" lon="5.77536">
        <ele>933.57739257812</ele>
        <time>2011-06-04T11:43:55Z</time>
      </trkpt>
      <trkpt lat="45.34098" lon="5.77538">
        <ele>933.0966796875</ele>
        <time>2011-06-04T11:43:56Z</time>
      </trkpt>
      <trkpt lat="45.34113" lon="5.77548">
        <ele>931.17431640625</ele>
        <time>2011-06-04T11:44:02Z</time>
      </trkpt>
      <trkpt lat="45.34124" lon="5.77556">
        <ele>928.29028320312</ele>
        <time>2011-06-04T11:44:06Z</time>
      </trkpt>
      <trkpt lat="45.3414" lon="5.77567">
        <ele>926.36767578125</ele>
        <time>2011-06-04T11:44:12Z</time>
      </trkpt>
      <trkpt lat="45.34145" lon="5.77571">
        <ele>925.88696289062</ele>
        <time>2011-06-04T11:44:14Z</time>
      </trkpt>
      <trkpt lat="45.34148" lon="5.77573">
        <ele>925.40625</ele>
        <time>2011-06-04T11:44:15Z</time>
      </trkpt>
      <trkpt lat="45.34163" lon="5.77581">
        <ele>923.96411132812</ele>
        <time>2011-06-04T11:44:20Z</time>
      </trkpt>
      <trkpt lat="45.34174" lon="5.7759">
        <ele>922.52221679688</ele>
        <time>2011-06-04T11:44:24Z</time>
      </trkpt>
      <trkpt lat="45.34186" lon="5.77601">
        <ele>921.08032226562</ele>
        <time>2011-06-04T11:44:29Z</time>
      </trkpt>
      <trkpt lat="45.34195" lon="5.7761">
        <ele>919.63842773438</ele>
        <time>2011-06-04T11:44:33Z</time>
      </trkpt>
      <trkpt lat="45.34209" lon="5.77623">
        <ele>917.71557617188</ele>
        <time>2011-06-04T11:44:39Z</time>
      </trkpt>
      <trkpt lat="45.34224" lon="5.77635">
        <ele>915.79321289062</ele>
        <time>2011-06-04T11:44:45Z</time>
      </trkpt>
      <trkpt lat="45.34238" lon="5.77647">
        <ele>913.38989257812</ele>
        <time>2011-06-04T11:44:51Z</time>
      </trkpt>
      <trkpt lat="45.34251" lon="5.77657">
        <ele>911.94799804688</ele>
        <time>2011-06-04T11:44:56Z</time>
      </trkpt>
      <trkpt lat="45.34262" lon="5.77664">
        <ele>911.46728515625</ele>
        <time>2011-06-04T11:45:00Z</time>
      </trkpt>
      <trkpt lat="45.34267" lon="5.77667">
        <ele>910.02514648438</ele>
        <time>2011-06-04T11:45:02Z</time>
      </trkpt>
      <trkpt lat="45.34282" lon="5.77671">
        <ele>907.62182617188</ele>
        <time>2011-06-04T11:45:07Z</time>
      </trkpt>
      <trkpt lat="45.34297" lon="5.77671">
        <ele>905.69921875</ele>
        <time>2011-06-04T11:45:12Z</time>
      </trkpt>
      <trkpt lat="45.34307" lon="5.77673">
        <ele>906.1796875</ele>
        <time>2011-06-04T11:45:17Z</time>
      </trkpt>
      <trkpt lat="45.34323" lon="5.77672">
        <ele>908.58325195312</ele>
        <time>2011-06-04T11:45:23Z</time>
      </trkpt>
      <trkpt lat="45.34332" lon="5.77674">
        <ele>907.14111328125</ele>
        <time>2011-06-04T11:45:27Z</time>
      </trkpt>
      <trkpt lat="45.34348" lon="5.77674">
        <ele>910.02514648438</ele>
        <time>2011-06-04T11:45:32Z</time>
      </trkpt>
      <trkpt lat="45.34364" lon="5.77673">
        <ele>910.505859375</ele>
        <time>2011-06-04T11:45:37Z</time>
      </trkpt>
      <trkpt lat="45.34378" lon="5.77673">
        <ele>910.02514648438</ele>
        <time>2011-06-04T11:45:42Z</time>
      </trkpt>
      <trkpt lat="45.34391" lon="5.77671">
        <ele>908.58325195312</ele>
        <time>2011-06-04T11:45:47Z</time>
      </trkpt>
      <trkpt lat="45.34403" lon="5.7767">
        <ele>908.10278320312</ele>
        <time>2011-06-04T11:45:51Z</time>
      </trkpt>
      <trkpt lat="45.34409" lon="5.77672">
        <ele>907.14111328125</ele>
        <time>2011-06-04T11:45:54Z</time>
      </trkpt>
      <trkpt lat="45.34419" lon="5.77676">
        <ele>905.69921875</ele>
        <time>2011-06-04T11:45:58Z</time>
      </trkpt>
      <trkpt lat="45.3443" lon="5.77686">
        <ele>904.73779296875</ele>
        <time>2011-06-04T11:46:03Z</time>
      </trkpt>
      <trkpt lat="45.3444" lon="5.77704">
        <ele>904.73779296875</ele>
        <time>2011-06-04T11:46:08Z</time>
      </trkpt>
      <trkpt lat="45.3444" lon="5.7772">
        <ele>904.25732421875</ele>
        <time>2011-06-04T11:46:12Z</time>
      </trkpt>
      <trkpt lat="45.34439" lon="5.77723">
        <ele>903.77661132812</ele>
        <time>2011-06-04T11:46:13Z</time>
      </trkpt>
      <trkpt lat="45.34437" lon="5.77727">
        <ele>903.2958984375</ele>
        <time>2011-06-04T11:46:14Z</time>
      </trkpt>
      <trkpt lat="45.34435" lon="5.7773">
        <ele>902.81518554688</ele>
        <time>2011-06-04T11:46:15Z</time>
      </trkpt>
      <trkpt lat="45.3442" lon="5.77746">
        <ele>900.892578125</ele>
        <time>2011-06-04T11:46:21Z</time>
      </trkpt>
      <trkpt lat="45.34407" lon="5.77755">
        <ele>898.4892578125</ele>
        <time>2011-06-04T11:46:26Z</time>
      </trkpt>
      <trkpt lat="45.34396" lon="5.77762">
        <ele>898.0087890625</ele>
        <time>2011-06-04T11:46:30Z</time>
      </trkpt>
      <trkpt lat="45.34381" lon="5.77768">
        <ele>897.52807617188</ele>
        <time>2011-06-04T11:46:35Z</time>
      </trkpt>
      <trkpt lat="45.34372" lon="5.7777">
        <ele>898.0087890625</ele>
        <time>2011-06-04T11:46:39Z</time>
      </trkpt>
      <trkpt lat="45.3437" lon="5.77771">
        <ele>898.0087890625</ele>
        <time>2011-06-04T11:46:42Z</time>
      </trkpt>
      <trkpt lat="45.3437" lon="5.77771">
        <ele>897.52807617188</ele>
        <time>2011-06-04T11:46:43Z</time>
      </trkpt>
      <trkpt lat="45.34366" lon="5.77775">
        <ele>897.52807617188</ele>
        <time>2011-06-04T11:46:50Z</time>
      </trkpt>
      <trkpt lat="45.34356" lon="5.77786">
        <ele>897.52807617188</ele>
        <time>2011-06-04T11:46:56Z</time>
      </trkpt>
      <trkpt lat="45.34352" lon="5.77805">
        <ele>899.45068359375</ele>
        <time>2011-06-04T11:47:02Z</time>
      </trkpt>
      <trkpt lat="45.34353" lon="5.77825">
        <ele>901.37329101562</ele>
        <time>2011-06-04T11:47:07Z</time>
      </trkpt>
      <trkpt lat="45.34356" lon="5.77849">
        <ele>899.93139648438</ele>
        <time>2011-06-04T11:47:13Z</time>
      </trkpt>
      <trkpt lat="45.3436" lon="5.7787">
        <ele>895.60546875</ele>
        <time>2011-06-04T11:47:19Z</time>
      </trkpt>
      <trkpt lat="45.34367" lon="5.77892">
        <ele>892.24096679688</ele>
        <time>2011-06-04T11:47:25Z</time>
      </trkpt>
      <trkpt lat="45.34373" lon="5.77911">
        <ele>889.83740234375</ele>
        <time>2011-06-04T11:47:30Z</time>
      </trkpt>
      <trkpt lat="45.34378" lon="5.77936">
        <ele>887.91479492188</ele>
        <time>2011-06-04T11:47:36Z</time>
      </trkpt>
      <trkpt lat="45.34378" lon="5.77961">
        <ele>886.47290039062</ele>
        <time>2011-06-04T11:47:42Z</time>
      </trkpt>
      <trkpt lat="45.34378" lon="5.77986">
        <ele>885.51147460938</ele>
        <time>2011-06-04T11:47:48Z</time>
      </trkpt>
      <trkpt lat="45.3438" lon="5.78003">
        <ele>885.03100585938</ele>
        <time>2011-06-04T11:47:52Z</time>
      </trkpt>
      <trkpt lat="45.34385" lon="5.78023">
        <ele>884.06958007812</ele>
        <time>2011-06-04T11:47:57Z</time>
      </trkpt>
      <trkpt lat="45.34385" lon="5.78027">
        <ele>884.06958007812</ele>
        <time>2011-06-04T11:47:58Z</time>
      </trkpt>
      <trkpt lat="45.34388" lon="5.78035">
        <ele>883.5888671875</ele>
        <time>2011-06-04T11:48:00Z</time>
      </trkpt>
      <trkpt lat="45.34394" lon="5.78056">
        <ele>881.66625976562</ele>
        <time>2011-06-04T11:48:05Z</time>
      </trkpt>
      <trkpt lat="45.34398" lon="5.7807">
        <ele>880.22436523438</ele>
        <time>2011-06-04T11:48:09Z</time>
      </trkpt>
      <trkpt lat="45.34408" lon="5.78088">
        <ele>878.78247070312</ele>
        <time>2011-06-04T11:48:15Z</time>
      </trkpt>
      <trkpt lat="45.34422" lon="5.78106">
        <ele>877.34057617188</ele>
        <time>2011-06-04T11:48:21Z</time>
      </trkpt>
      <trkpt lat="45.34435" lon="5.78125">
        <ele>873.4951171875</ele>
        <time>2011-06-04T11:48:27Z</time>
      </trkpt>
      <trkpt lat="45.34446" lon="5.7814">
        <ele>871.091796875</ele>
        <time>2011-06-04T11:48:32Z</time>
      </trkpt>
      <trkpt lat="45.34451" lon="5.78146">
        <ele>870.61108398438</ele>
        <time>2011-06-04T11:48:34Z</time>
      </trkpt>
      <trkpt lat="45.34456" lon="5.7816">
        <ele>869.64990234375</ele>
        <time>2011-06-04T11:48:38Z</time>
      </trkpt>
      <trkpt lat="45.34458" lon="5.78167">
        <ele>868.6884765625</ele>
        <time>2011-06-04T11:48:40Z</time>
      </trkpt>
      <trkpt lat="45.34462" lon="5.78173">
        <ele>868.20776367188</ele>
        <time>2011-06-04T11:48:42Z</time>
      </trkpt>
      <trkpt lat="45.34476" lon="5.78194">
        <ele>870.61108398438</ele>
        <time>2011-06-04T11:48:47Z</time>
      </trkpt>
      <trkpt lat="45.34484" lon="5.7822">
        <ele>872.05297851562</ele>
        <time>2011-06-04T11:48:53Z</time>
      </trkpt>
      <trkpt lat="45.34484" lon="5.78234">
        <ele>871.572265625</ele>
        <time>2011-06-04T11:48:56Z</time>
      </trkpt>
      <trkpt lat="45.34484" lon="5.78255">
        <ele>876.37915039062</ele>
        <time>2011-06-04T11:49:00Z</time>
      </trkpt>
      <trkpt lat="45.34479" lon="5.78276">
        <ele>879.26293945312</ele>
        <time>2011-06-04T11:49:05Z</time>
      </trkpt>
      <trkpt lat="45.34476" lon="5.78296">
        <ele>882.62768554688</ele>
        <time>2011-06-04T11:49:10Z</time>
      </trkpt>
      <trkpt lat="45.34471" lon="5.78314">
        <ele>882.14697265625</ele>
        <time>2011-06-04T11:49:14Z</time>
      </trkpt>
      <trkpt lat="45.3447" lon="5.7833">
        <ele>877.82104492188</ele>
        <time>2011-06-04T11:49:18Z</time>
      </trkpt>
      <trkpt lat="45.3447" lon="5.78341">
        <ele>868.6884765625</ele>
        <time>2011-06-04T11:49:22Z</time>
      </trkpt>
      <trkpt lat="45.34475" lon="5.78356">
        <ele>865.32397460938</ele>
        <time>2011-06-04T11:49:26Z</time>
      </trkpt>
      <trkpt lat="45.3448" lon="5.78381">
        <ele>859.0751953125</ele>
        <time>2011-06-04T11:49:32Z</time>
      </trkpt>
      <trkpt lat="45.34476" lon="5.78395">
        <ele>856.671875</ele>
        <time>2011-06-04T11:49:36Z</time>
      </trkpt>
      <trkpt lat="45.34473" lon="5.78418">
        <ele>857.15258789062</ele>
        <time>2011-06-04T11:49:41Z</time>
      </trkpt>
      <trkpt lat="45.34473" lon="5.78432">
        <ele>856.19116210938</ele>
        <time>2011-06-04T11:49:45Z</time>
      </trkpt>
      <trkpt lat="45.34476" lon="5.78452">
        <ele>853.7880859375</ele>
        <time>2011-06-04T11:49:50Z</time>
      </trkpt>
      <trkpt lat="45.34476" lon="5.78456">
        <ele>853.30737304688</ele>
        <time>2011-06-04T11:49:51Z</time>
      </trkpt>
      <trkpt lat="45.34478" lon="5.78472">
        <ele>850.42358398438</ele>
        <time>2011-06-04T11:49:55Z</time>
      </trkpt>
      <trkpt lat="45.34484" lon="5.78483">
        <ele>849.94287109375</ele>
        <time>2011-06-04T11:49:58Z</time>
      </trkpt>
      <trkpt lat="45.34484" lon="5.78512">
        <ele>848.02026367188</ele>
        <time>2011-06-04T11:50:04Z</time>
      </trkpt>
      <trkpt lat="45.3448" lon="5.78533">
        <ele>845.13623046875</ele>
        <time>2011-06-04T11:50:09Z</time>
      </trkpt>
      <trkpt lat="45.34477" lon="5.78551">
        <ele>842.73291015625</ele>
        <time>2011-06-04T11:50:13Z</time>
      </trkpt>
      <trkpt lat="45.34477" lon="5.78572">
        <ele>839.84887695312</ele>
        <time>2011-06-04T11:50:18Z</time>
      </trkpt>
      <trkpt lat="45.34481" lon="5.7859">
        <ele>837.44555664062</ele>
        <time>2011-06-04T11:50:22Z</time>
      </trkpt>
      <trkpt lat="45.34484" lon="5.78605">
        <ele>836.96484375</ele>
        <time>2011-06-04T11:50:25Z</time>
      </trkpt>
      <trkpt lat="45.34492" lon="5.78623">
        <ele>836.96484375</ele>
        <time>2011-06-04T11:50:29Z</time>
      </trkpt>
      <trkpt lat="45.34493" lon="5.78628">
        <ele>836.96484375</ele>
        <time>2011-06-04T11:50:30Z</time>
      </trkpt>
      <trkpt lat="45.34493" lon="5.78632">
        <ele>836.484375</ele>
        <time>2011-06-04T11:50:31Z</time>
      </trkpt>
      <trkpt lat="45.34494" lon="5.78636">
        <ele>836.484375</ele>
        <time>2011-06-04T11:50:32Z</time>
      </trkpt>
      <trkpt lat="45.34497" lon="5.78653">
        <ele>833.60034179688</ele>
        <time>2011-06-04T11:50:36Z</time>
      </trkpt>
      <trkpt lat="45.34507" lon="5.78679">
        <ele>832.15844726562</ele>
        <time>2011-06-04T11:50:42Z</time>
      </trkpt>
      <trkpt lat="45.34509" lon="5.78688">
        <ele>832.63916015625</ele>
        <time>2011-06-04T11:50:44Z</time>
      </trkpt>
      <trkpt lat="45.3451" lon="5.78692">
        <ele>832.63916015625</ele>
        <time>2011-06-04T11:50:45Z</time>
      </trkpt>
      <trkpt lat="45.34515" lon="5.78714">
        <ele>832.63916015625</ele>
        <time>2011-06-04T11:50:50Z</time>
      </trkpt>
      <trkpt lat="45.34515" lon="5.78736">
        <ele>832.63916015625</ele>
        <time>2011-06-04T11:50:55Z</time>
      </trkpt>
      <trkpt lat="45.34515" lon="5.78744">
        <ele>832.63916015625</ele>
        <time>2011-06-04T11:50:57Z</time>
      </trkpt>
      <trkpt lat="45.34515" lon="5.78749">
        <ele>833.11962890625</ele>
        <time>2011-06-04T11:50:58Z</time>
      </trkpt>
      <trkpt lat="45.34512" lon="5.78768">
        <ele>832.15844726562</ele>
        <time>2011-06-04T11:51:02Z</time>
      </trkpt>
      <trkpt lat="45.34513" lon="5.78787">
        <ele>831.197265625</ele>
        <time>2011-06-04T11:51:06Z</time>
      </trkpt>
      <trkpt lat="45.34512" lon="5.78805">
        <ele>831.677734375</ele>
        <time>2011-06-04T11:51:10Z</time>
      </trkpt>
      <trkpt lat="45.34509" lon="5.78815">
        <ele>831.677734375</ele>
        <time>2011-06-04T11:51:13Z</time>
      </trkpt>
      <trkpt lat="45.34508" lon="5.78823">
        <ele>831.197265625</ele>
        <time>2011-06-04T11:51:15Z</time>
      </trkpt>
      <trkpt lat="45.34507" lon="5.78841">
        <ele>828.7939453125</ele>
        <time>2011-06-04T11:51:19Z</time>
      </trkpt>
      <trkpt lat="45.34508" lon="5.78859">
        <ele>827.83227539062</ele>
        <time>2011-06-04T11:51:23Z</time>
      </trkpt>
      <trkpt lat="45.34515" lon="5.78885">
        <ele>826.87109375</ele>
        <time>2011-06-04T11:51:29Z</time>
      </trkpt>
      <trkpt lat="45.34524" lon="5.789">
        <ele>826.39038085938</ele>
        <time>2011-06-04T11:51:33Z</time>
      </trkpt>
      <trkpt lat="45.34531" lon="5.78915">
        <ele>823.98706054688</ele>
        <time>2011-06-04T11:51:37Z</time>
      </trkpt>
      <trkpt lat="45.34542" lon="5.7894">
        <ele>819.66137695312</ele>
        <time>2011-06-04T11:51:44Z</time>
      </trkpt>
      <trkpt lat="45.34552" lon="5.7896">
        <ele>817.25805664062</ele>
        <time>2011-06-04T11:51:49Z</time>
      </trkpt>
      <trkpt lat="45.34555" lon="5.78967">
        <ele>816.29663085938</ele>
        <time>2011-06-04T11:51:51Z</time>
      </trkpt>
      <trkpt lat="45.34559" lon="5.78982">
        <ele>814.85473632812</ele>
        <time>2011-06-04T11:51:55Z</time>
      </trkpt>
      <trkpt lat="45.34562" lon="5.78988">
        <ele>815.81616210938</ele>
        <time>2011-06-04T11:51:57Z</time>
      </trkpt>
      <trkpt lat="45.34572" lon="5.79004">
        <ele>812.93212890625</ele>
        <time>2011-06-04T11:52:02Z</time>
      </trkpt>
      <trkpt lat="45.34581" lon="5.79021">
        <ele>810.0478515625</ele>
        <time>2011-06-04T11:52:06Z</time>
      </trkpt>
      <trkpt lat="45.34589" lon="5.79042">
        <ele>807.64477539062</ele>
        <time>2011-06-04T11:52:11Z</time>
      </trkpt>
      <trkpt lat="45.34594" lon="5.79054">
        <ele>806.20263671875</ele>
        <time>2011-06-04T11:52:14Z</time>
      </trkpt>
      <trkpt lat="45.34596" lon="5.79063">
        <ele>805.24145507812</ele>
        <time>2011-06-04T11:52:16Z</time>
      </trkpt>
      <trkpt lat="45.34597" lon="5.79068">
        <ele>805.24145507812</ele>
        <time>2011-06-04T11:52:17Z</time>
      </trkpt>
      <trkpt lat="45.34594" lon="5.79089">
        <ele>811.00927734375</ele>
        <time>2011-06-04T11:52:22Z</time>
      </trkpt>
      <trkpt lat="45.34594" lon="5.79095">
        <ele>813.41284179688</ele>
        <time>2011-06-04T11:52:24Z</time>
      </trkpt>
      <trkpt lat="45.34592" lon="5.79107">
        <ele>816.29663085938</ele>
        <time>2011-06-04T11:52:28Z</time>
      </trkpt>
      <trkpt lat="45.34589" lon="5.79128">
        <ele>824.94848632812</ele>
        <time>2011-06-04T11:52:33Z</time>
      </trkpt>
      <trkpt lat="45.34581" lon="5.79144">
        <ele>827.35180664062</ele>
        <time>2011-06-04T11:52:37Z</time>
      </trkpt>
      <trkpt lat="45.3458" lon="5.79166">
        <ele>838.40698242188</ele>
        <time>2011-06-04T11:52:42Z</time>
      </trkpt>
      <trkpt lat="45.34575" lon="5.79184">
        <ele>840.32958984375</ele>
        <time>2011-06-04T11:52:46Z</time>
      </trkpt>
      <trkpt lat="45.34562" lon="5.79197">
        <ele>829.75512695312</ele>
        <time>2011-06-04T11:52:50Z</time>
      </trkpt>
      <trkpt lat="45.34547" lon="5.79207">
        <ele>814.3740234375</ele>
        <time>2011-06-04T11:52:54Z</time>
      </trkpt>
      <trkpt lat="45.34544" lon="5.79221">
        <ele>806.20263671875</ele>
        <time>2011-06-04T11:52:58Z</time>
      </trkpt>
      <trkpt lat="45.34546" lon="5.79246">
        <ele>800.91552734375</ele>
        <time>2011-06-04T11:53:04Z</time>
      </trkpt>
      <trkpt lat="45.3454" lon="5.7927">
        <ele>798.99291992188</ele>
        <time>2011-06-04T11:53:09Z</time>
      </trkpt>
      <trkpt lat="45.34533" lon="5.79287">
        <ele>804.2802734375</ele>
        <time>2011-06-04T11:53:14Z</time>
      </trkpt>
      <trkpt lat="45.34533" lon="5.79304">
        <ele>808.12548828125</ele>
        <time>2011-06-04T11:53:19Z</time>
      </trkpt>
      <trkpt lat="45.34541" lon="5.79327">
        <ele>813.41284179688</ele>
        <time>2011-06-04T11:53:23Z</time>
      </trkpt>
      <trkpt lat="45.34547" lon="5.79342">
        <ele>818.69995117188</ele>
        <time>2011-06-04T11:53:26Z</time>
      </trkpt>
      <trkpt lat="45.34553" lon="5.79356">
        <ele>826.87109375</ele>
        <time>2011-06-04T11:53:29Z</time>
      </trkpt>
      <trkpt lat="45.34552" lon="5.79369">
        <ele>829.2744140625</ele>
        <time>2011-06-04T11:53:32Z</time>
      </trkpt>
      <trkpt lat="45.34531" lon="5.79386">
        <ele>822.064453125</ele>
        <time>2011-06-04T11:53:36Z</time>
      </trkpt>
      <trkpt lat="45.34528" lon="5.7939">
        <ele>820.62255859375</ele>
        <time>2011-06-04T11:53:37Z</time>
      </trkpt>
      <trkpt lat="45.34523" lon="5.79401">
        <ele>813.41284179688</ele>
        <time>2011-06-04T11:53:40Z</time>
      </trkpt>
      <trkpt lat="45.34527" lon="5.79418">
        <ele>803.79956054688</ele>
        <time>2011-06-04T11:53:44Z</time>
      </trkpt>
      <trkpt lat="45.3453" lon="5.79438">
        <ele>794.66674804688</ele>
        <time>2011-06-04T11:53:49Z</time>
      </trkpt>
      <trkpt lat="45.34525" lon="5.79456">
        <ele>787.93774414062</ele>
        <time>2011-06-04T11:53:54Z</time>
      </trkpt>
      <trkpt lat="45.34523" lon="5.79469">
        <ele>782.65063476562</ele>
        <time>2011-06-04T11:53:57Z</time>
      </trkpt>
      <trkpt lat="45.34517" lon="5.79491">
        <ele>777.84375</ele>
        <time>2011-06-04T11:54:03Z</time>
      </trkpt>
      <trkpt lat="45.34513" lon="5.79508">
        <ele>778.32446289062</ele>
        <time>2011-06-04T11:54:08Z</time>
      </trkpt>
      <trkpt lat="45.34509" lon="5.79516">
        <ele>778.32446289062</ele>
        <time>2011-06-04T11:54:11Z</time>
      </trkpt>
      <trkpt lat="45.34515" lon="5.79535">
        <ele>782.65063476562</ele>
        <time>2011-06-04T11:54:16Z</time>
      </trkpt>
      <trkpt lat="45.34521" lon="5.79557">
        <ele>790.34106445312</ele>
        <time>2011-06-04T11:54:21Z</time>
      </trkpt>
      <trkpt lat="45.34521" lon="5.79561">
        <ele>791.30224609375</ele>
        <time>2011-06-04T11:54:22Z</time>
      </trkpt>
      <trkpt lat="45.345" lon="5.7958">
        <ele>788.41845703125</ele>
        <time>2011-06-04T11:54:29Z</time>
      </trkpt>
      <trkpt lat="45.34483" lon="5.79593">
        <ele>783.61181640625</ele>
        <time>2011-06-04T11:54:34Z</time>
      </trkpt>
      <trkpt lat="45.3447" lon="5.79607">
        <ele>780.72802734375</ele>
        <time>2011-06-04T11:54:39Z</time>
      </trkpt>
      <trkpt lat="45.3446" lon="5.7962">
        <ele>779.76635742188</ele>
        <time>2011-06-04T11:54:44Z</time>
      </trkpt>
      <trkpt lat="45.3446" lon="5.79623">
        <ele>778.80517578125</ele>
        <time>2011-06-04T11:54:45Z</time>
      </trkpt>
      <trkpt lat="45.34465" lon="5.79643">
        <ele>777.84375</ele>
        <time>2011-06-04T11:54:51Z</time>
      </trkpt>
      <trkpt lat="45.34471" lon="5.79657">
        <ele>777.36328125</ele>
        <time>2011-06-04T11:54:55Z</time>
      </trkpt>
      <trkpt lat="45.3447" lon="5.79669">
        <ele>779.76635742188</ele>
        <time>2011-06-04T11:54:59Z</time>
      </trkpt>
      <trkpt lat="45.34468" lon="5.79676">
        <ele>779.76635742188</ele>
        <time>2011-06-04T11:55:01Z</time>
      </trkpt>
      <trkpt lat="45.34464" lon="5.79688">
        <ele>779.76635742188</ele>
        <time>2011-06-04T11:55:05Z</time>
      </trkpt>
      <trkpt lat="45.34464" lon="5.79701">
        <ele>779.76635742188</ele>
        <time>2011-06-04T11:55:09Z</time>
      </trkpt>
      <trkpt lat="45.34462" lon="5.79704">
        <ele>779.76635742188</ele>
        <time>2011-06-04T11:55:10Z</time>
      </trkpt>
      <trkpt lat="45.34461" lon="5.79719">
        <ele>780.24731445312</ele>
        <time>2011-06-04T11:55:15Z</time>
      </trkpt>
      <trkpt lat="45.3446" lon="5.7974">
        <ele>781.20874023438</ele>
        <time>2011-06-04T11:55:21Z</time>
      </trkpt>
      <trkpt lat="45.34458" lon="5.79757">
        <ele>784.5732421875</ele>
        <time>2011-06-04T11:55:26Z</time>
      </trkpt>
      <trkpt lat="45.34457" lon="5.79774">
        <ele>786.49584960938</ele>
        <time>2011-06-04T11:55:32Z</time>
      </trkpt>
      <trkpt lat="45.34456" lon="5.79788">
        <ele>791.30224609375</ele>
        <time>2011-06-04T11:55:37Z</time>
      </trkpt>
      <trkpt lat="45.34456" lon="5.79805">
        <ele>799.4736328125</ele>
        <time>2011-06-04T11:55:43Z</time>
      </trkpt>
      <trkpt lat="45.34457" lon="5.79808">
        <ele>802.357421875</ele>
        <time>2011-06-04T11:55:44Z</time>
      </trkpt>
      <trkpt lat="45.34454" lon="5.79822">
        <ele>809.08666992188</ele>
        <time>2011-06-04T11:55:49Z</time>
      </trkpt>
      <trkpt lat="45.34448" lon="5.79833">
        <ele>811.970703125</ele>
        <time>2011-06-04T11:55:53Z</time>
      </trkpt>
      <trkpt lat="45.34446" lon="5.79848">
        <ele>816.77734375</ele>
        <time>2011-06-04T11:55:58Z</time>
      </trkpt>
      <trkpt lat="45.34445" lon="5.79855">
        <ele>825.42895507812</ele>
        <time>2011-06-04T11:56:00Z</time>
      </trkpt>
      <trkpt lat="45.34432" lon="5.79862">
        <ele>812.45141601562</ele>
        <time>2011-06-04T11:56:05Z</time>
      </trkpt>
      <trkpt lat="45.34421" lon="5.79864">
        <ele>805.24145507812</ele>
        <time>2011-06-04T11:56:09Z</time>
      </trkpt>
      <trkpt lat="45.34415" lon="5.7987">
        <ele>802.357421875</ele>
        <time>2011-06-04T11:56:14Z</time>
      </trkpt>
      <trkpt lat="45.34419" lon="5.79882">
        <ele>808.60595703125</ele>
        <time>2011-06-04T11:56:19Z</time>
      </trkpt>
      <trkpt lat="45.34415" lon="5.79899">
        <ele>817.73852539062</ele>
        <time>2011-06-04T11:56:25Z</time>
      </trkpt>
      <trkpt lat="45.34412" lon="5.79909">
        <ele>826.87109375</ele>
        <time>2011-06-04T11:56:29Z</time>
      </trkpt>
      <trkpt lat="45.34405" lon="5.79917">
        <ele>833.60034179688</ele>
        <time>2011-06-04T11:56:32Z</time>
      </trkpt>
      <trkpt lat="45.34401" lon="5.79939">
        <ele>839.84887695312</ele>
        <time>2011-06-04T11:56:38Z</time>
      </trkpt>
      <trkpt lat="45.34401" lon="5.79944">
        <ele>840.32958984375</ele>
        <time>2011-06-04T11:56:39Z</time>
      </trkpt>
      <trkpt lat="45.34398" lon="5.79958">
        <ele>836.96484375</ele>
        <time>2011-06-04T11:56:43Z</time>
      </trkpt>
      <trkpt lat="45.34396" lon="5.79966">
        <ele>831.197265625</ele>
        <time>2011-06-04T11:56:49Z</time>
      </trkpt>
      <trkpt lat="45.34393" lon="5.79971">
        <ele>820.62255859375</ele>
        <time>2011-06-04T11:57:00Z</time>
      </trkpt>
      <trkpt lat="45.34391" lon="5.79975">
        <ele>814.85473632812</ele>
        <time>2011-06-04T11:57:06Z</time>
      </trkpt>
      <trkpt lat="45.34391" lon="5.79978">
        <ele>798.51220703125</ele>
        <time>2011-06-04T11:57:25Z</time>
      </trkpt>
      <trkpt lat="45.34395" lon="5.79974">
        <ele>812.45141601562</ele>
        <time>2011-06-04T11:57:53Z</time>
      </trkpt>
      <trkpt lat="45.34399" lon="5.79975">
        <ele>813.41284179688</ele>
        <time>2011-06-04T11:58:10Z</time>
      </trkpt>
      <trkpt lat="45.34399" lon="5.79975">
        <ele>812.93212890625</ele>
        <time>2011-06-04T11:58:11Z</time>
      </trkpt>
      <trkpt lat="45.34386" lon="5.79973">
        <ele>814.85473632812</ele>
        <time>2011-06-04T11:58:25Z</time>
      </trkpt>
      <trkpt lat="45.34384" lon="5.79974">
        <ele>815.33544921875</ele>
        <time>2011-06-04T11:58:27Z</time>
      </trkpt>
      <trkpt lat="45.34383" lon="5.79973">
        <ele>815.81616210938</ele>
        <time>2011-06-04T11:58:29Z</time>
      </trkpt>
      <trkpt lat="45.34383" lon="5.79975">
        <ele>815.81616210938</ele>
        <time>2011-06-04T11:58:44Z</time>
      </trkpt>
      <trkpt lat="45.34386" lon="5.79987">
        <ele>817.25805664062</ele>
        <time>2011-06-04T11:58:50Z</time>
      </trkpt>
      <trkpt lat="45.34386" lon="5.79989">
        <ele>816.77734375</ele>
        <time>2011-06-04T11:58:51Z</time>
      </trkpt>
      <trkpt lat="45.34386" lon="5.79992">
        <ele>816.77734375</ele>
        <time>2011-06-04T11:58:52Z</time>
      </trkpt>
      <trkpt lat="45.34376" lon="5.8">
        <ele>816.77734375</ele>
        <time>2011-06-04T11:58:55Z</time>
      </trkpt>
      <trkpt lat="45.34369" lon="5.80003">
        <ele>816.77734375</ele>
        <time>2011-06-04T11:58:56Z</time>
      </trkpt>
      <trkpt lat="45.34316" lon="5.80029">
        <ele>811.970703125</ele>
        <time>2011-06-04T11:59:02Z</time>
      </trkpt>
      <trkpt lat="45.34262" lon="5.80049">
        <ele>804.2802734375</ele>
        <time>2011-06-04T11:59:06Z</time>
      </trkpt>
      <trkpt lat="45.34255" lon="5.80051">
        <ele>803.79956054688</ele>
        <time>2011-06-04T11:59:07Z</time>
      </trkpt>
      <trkpt lat="45.34255" lon="5.80058">
        <ele>799.4736328125</ele>
        <time>2011-06-04T11:59:10Z</time>
      </trkpt>
      <trkpt lat="45.34268" lon="5.8006">
        <ele>796.10913085938</ele>
        <time>2011-06-04T11:59:13Z</time>
      </trkpt>
      <trkpt lat="45.34274" lon="5.80065">
        <ele>789.8603515625</ele>
        <time>2011-06-04T11:59:16Z</time>
      </trkpt>
      <trkpt lat="45.34273" lon="5.80078">
        <ele>787.45703125</ele>
        <time>2011-06-04T11:59:23Z</time>
      </trkpt>
      <trkpt lat="45.34268" lon="5.80083">
        <ele>785.53442382812</ele>
        <time>2011-06-04T11:59:25Z</time>
      </trkpt>
      <trkpt lat="45.34261" lon="5.80092">
        <ele>784.5732421875</ele>
        <time>2011-06-04T11:59:31Z</time>
      </trkpt>
      <trkpt lat="45.34267" lon="5.80097">
        <ele>783.13110351562</ele>
        <time>2011-06-04T11:59:38Z</time>
      </trkpt>
      <trkpt lat="45.34266" lon="5.80103">
        <ele>783.13110351562</ele>
        <time>2011-06-04T11:59:42Z</time>
      </trkpt>
      <trkpt lat="45.34267" lon="5.80108">
        <ele>782.169921875</ele>
        <time>2011-06-04T11:59:44Z</time>
      </trkpt>
      <trkpt lat="45.34267" lon="5.80111">
        <ele>781.68920898438</ele>
        <time>2011-06-04T11:59:45Z</time>
      </trkpt>
      <trkpt lat="45.34268" lon="5.80118">
        <ele>778.80517578125</ele>
        <time>2011-06-04T11:59:50Z</time>
      </trkpt>
      <trkpt lat="45.34271" lon="5.80129">
        <ele>778.32446289062</ele>
        <time>2011-06-04T11:59:56Z</time>
      </trkpt>
      <trkpt lat="45.34272" lon="5.80131">
        <ele>777.36328125</ele>
        <time>2011-06-04T11:59:57Z</time>
      </trkpt>
      <trkpt lat="45.34282" lon="5.80142">
        <ele>781.20874023438</ele>
        <time>2011-06-04T12:00:03Z</time>
      </trkpt>
      <trkpt lat="45.3431" lon="5.80139">
        <ele>789.8603515625</ele>
        <time>2011-06-04T12:00:11Z</time>
      </trkpt>
      <trkpt lat="45.34324" lon="5.80137">
        <ele>798.03173828125</ele>
        <time>2011-06-04T12:00:15Z</time>
      </trkpt>
      <trkpt lat="45.34336" lon="5.80143">
        <ele>798.03173828125</ele>
        <time>2011-06-04T12:00:21Z</time>
      </trkpt>
      <trkpt lat="45.34356" lon="5.8015">
        <ele>794.66674804688</ele>
        <time>2011-06-04T12:00:28Z</time>
      </trkpt>
      <trkpt lat="45.34428" lon="5.80147">
        <ele>823.50659179688</ele>
        <time>2011-06-04T12:00:44Z</time>
      </trkpt>
      <trkpt lat="45.34437" lon="5.80145">
        <ele>825.90966796875</ele>
        <time>2011-06-04T12:00:56Z</time>
      </trkpt>
      <trkpt lat="45.34438" lon="5.8015">
        <ele>824.94848632812</ele>
        <time>2011-06-04T12:01:01Z</time>
      </trkpt>
      <trkpt lat="45.34439" lon="5.80156">
        <ele>820.14184570312</ele>
        <time>2011-06-04T12:01:04Z</time>
      </trkpt>
      <trkpt lat="45.34438" lon="5.80163">
        <ele>814.3740234375</ele>
        <time>2011-06-04T12:01:08Z</time>
      </trkpt>
      <trkpt lat="45.34437" lon="5.80169">
        <ele>813.41284179688</ele>
        <time>2011-06-04T12:01:12Z</time>
      </trkpt>
      <trkpt lat="45.34442" lon="5.80176">
        <ele>814.3740234375</ele>
        <time>2011-06-04T12:01:17Z</time>
      </trkpt>
      <trkpt lat="45.34442" lon="5.8018">
        <ele>815.33544921875</ele>
        <time>2011-06-04T12:01:19Z</time>
      </trkpt>
      <trkpt lat="45.3444" lon="5.80183">
        <ele>816.77734375</ele>
        <time>2011-06-04T12:01:26Z</time>
      </trkpt>
      <trkpt lat="45.34442" lon="5.80181">
        <ele>815.81616210938</ele>
        <time>2011-06-04T12:01:31Z</time>
      </trkpt>
      <trkpt lat="45.34446" lon="5.80178">
        <ele>815.33544921875</ele>
        <time>2011-06-04T12:01:37Z</time>
      </trkpt>
      <trkpt lat="45.3445" lon="5.8018">
        <ele>814.85473632812</ele>
        <time>2011-06-04T12:01:42Z</time>
      </trkpt>
      <trkpt lat="45.34454" lon="5.80181">
        <ele>812.93212890625</ele>
        <time>2011-06-04T12:01:46Z</time>
      </trkpt>
      <trkpt lat="45.3446" lon="5.8018">
        <ele>813.89331054688</ele>
        <time>2011-06-04T12:01:51Z</time>
      </trkpt>
      <trkpt lat="45.34467" lon="5.80181">
        <ele>812.93212890625</ele>
        <time>2011-06-04T12:01:57Z</time>
      </trkpt>
      <trkpt lat="45.34473" lon="5.80182">
        <ele>817.73852539062</ele>
        <time>2011-06-04T12:02:03Z</time>
      </trkpt>
      <trkpt lat="45.34477" lon="5.80183">
        <ele>822.064453125</ele>
        <time>2011-06-04T12:02:07Z</time>
      </trkpt>
      <trkpt lat="45.3448" lon="5.80185">
        <ele>825.90966796875</ele>
        <time>2011-06-04T12:02:11Z</time>
      </trkpt>
      <trkpt lat="45.34485" lon="5.80192">
        <ele>828.7939453125</ele>
        <time>2011-06-04T12:02:17Z</time>
      </trkpt>
      <trkpt lat="45.34488" lon="5.80194">
        <ele>829.75512695312</ele>
        <time>2011-06-04T12:02:19Z</time>
      </trkpt>
      <trkpt lat="45.34491" lon="5.80197">
        <ele>832.15844726562</ele>
        <time>2011-06-04T12:02:22Z</time>
      </trkpt>
      <trkpt lat="45.34491" lon="5.80199">
        <ele>832.15844726562</ele>
        <time>2011-06-04T12:02:23Z</time>
      </trkpt>
      <trkpt lat="45.34492" lon="5.80202">
        <ele>835.04248046875</ele>
        <time>2011-06-04T12:02:27Z</time>
      </trkpt>
      <trkpt lat="45.34494" lon="5.80209">
        <ele>839.84887695312</ele>
        <time>2011-06-04T12:02:32Z</time>
      </trkpt>
      <trkpt lat="45.34498" lon="5.80209">
        <ele>843.21337890625</ele>
        <time>2011-06-04T12:02:36Z</time>
      </trkpt>
      <trkpt lat="45.345" lon="5.80213">
        <ele>846.09765625</ele>
        <time>2011-06-04T12:02:40Z</time>
      </trkpt>
      <trkpt lat="45.34502" lon="5.80214">
        <ele>847.53955078125</ele>
        <time>2011-06-04T12:02:42Z</time>
      </trkpt>
      <trkpt lat="45.34507" lon="5.80222">
        <ele>843.21337890625</ele>
        <time>2011-06-04T12:02:47Z</time>
      </trkpt>
      <trkpt lat="45.34512" lon="5.8023">
        <ele>841.29077148438</ele>
        <time>2011-06-04T12:02:52Z</time>
      </trkpt>
      <trkpt lat="45.34515" lon="5.80241">
        <ele>842.73291015625</ele>
        <time>2011-06-04T12:02:59Z</time>
      </trkpt>
      <trkpt lat="45.34518" lon="5.80249">
        <ele>845.13623046875</ele>
        <time>2011-06-04T12:03:04Z</time>
      </trkpt>
      <trkpt lat="45.34518" lon="5.80251">
        <ele>843.21337890625</ele>
        <time>2011-06-04T12:03:06Z</time>
      </trkpt>
      <trkpt lat="45.34521" lon="5.80262">
        <ele>843.69409179688</ele>
        <time>2011-06-04T12:03:13Z</time>
      </trkpt>
      <trkpt lat="45.34523" lon="5.80265">
        <ele>845.13623046875</ele>
        <time>2011-06-04T12:03:16Z</time>
      </trkpt>
      <trkpt lat="45.34528" lon="5.80268">
        <ele>845.61694335938</ele>
        <time>2011-06-04T12:03:23Z</time>
      </trkpt>
      <trkpt lat="45.34532" lon="5.80269">
        <ele>846.09765625</ele>
        <time>2011-06-04T12:03:28Z</time>
      </trkpt>
      <trkpt lat="45.34536" lon="5.80269">
        <ele>846.57836914062</ele>
        <time>2011-06-04T12:03:32Z</time>
      </trkpt>
      <trkpt lat="45.34541" lon="5.80265">
        <ele>847.05883789062</ele>
        <time>2011-06-04T12:03:37Z</time>
      </trkpt>
      <trkpt lat="45.34546" lon="5.80262">
        <ele>851.384765625</ele>
        <time>2011-06-04T12:03:42Z</time>
      </trkpt>
      <trkpt lat="45.34554" lon="5.80264">
        <ele>854.74926757812</ele>
        <time>2011-06-04T12:03:50Z</time>
      </trkpt>
      <trkpt lat="45.34555" lon="5.80265">
        <ele>854.74926757812</ele>
        <time>2011-06-04T12:03:51Z</time>
      </trkpt>
      <trkpt lat="45.34559" lon="5.80264">
        <ele>857.63330078125</ele>
        <time>2011-06-04T12:03:56Z</time>
      </trkpt>
      <trkpt lat="45.34565" lon="5.80267">
        <ele>857.15258789062</ele>
        <time>2011-06-04T12:04:02Z</time>
      </trkpt>
      <trkpt lat="45.3457" lon="5.80273">
        <ele>851.86547851562</ele>
        <time>2011-06-04T12:04:06Z</time>
      </trkpt>
      <trkpt lat="45.34576" lon="5.8028">
        <ele>852.34594726562</ele>
        <time>2011-06-04T12:04:13Z</time>
      </trkpt>
      <trkpt lat="45.34581" lon="5.80284">
        <ele>852.82666015625</ele>
        <time>2011-06-04T12:04:16Z</time>
      </trkpt>
      <trkpt lat="45.34589" lon="5.80295">
        <ele>857.63330078125</ele>
        <time>2011-06-04T12:04:22Z</time>
      </trkpt>
      <trkpt lat="45.34592" lon="5.80297">
        <ele>860.51733398438</ele>
        <time>2011-06-04T12:04:23Z</time>
      </trkpt>
      <trkpt lat="45.34596" lon="5.803">
        <ele>862.43994140625</ele>
        <time>2011-06-04T12:04:24Z</time>
      </trkpt>
      <trkpt lat="45.34599" lon="5.80302">
        <ele>863.4013671875</ele>
        <time>2011-06-04T12:04:25Z</time>
      </trkpt>
      <trkpt lat="45.34601" lon="5.80304">
        <ele>864.36254882812</ele>
        <time>2011-06-04T12:04:26Z</time>
      </trkpt>
      <trkpt lat="45.34603" lon="5.80306">
        <ele>864.36254882812</ele>
        <time>2011-06-04T12:04:27Z</time>
      </trkpt>
      <trkpt lat="45.34606" lon="5.80309">
        <ele>863.8818359375</ele>
        <time>2011-06-04T12:04:29Z</time>
      </trkpt>
      <trkpt lat="45.34609" lon="5.80317">
        <ele>863.8818359375</ele>
        <time>2011-06-04T12:04:32Z</time>
      </trkpt>
      <trkpt lat="45.34613" lon="5.80329">
        <ele>865.32397460938</ele>
        <time>2011-06-04T12:04:37Z</time>
      </trkpt>
      <trkpt lat="45.34618" lon="5.8034">
        <ele>869.16918945312</ele>
        <time>2011-06-04T12:04:41Z</time>
      </trkpt>
      <trkpt lat="45.3462" lon="5.80344">
        <ele>870.13037109375</ele>
        <time>2011-06-04T12:04:43Z</time>
      </trkpt>
      <trkpt lat="45.3462" lon="5.80345">
        <ele>869.16918945312</ele>
        <time>2011-06-04T12:04:44Z</time>
      </trkpt>
      <trkpt lat="45.3461" lon="5.80353">
        <ele>866.76586914062</ele>
        <time>2011-06-04T12:04:50Z</time>
      </trkpt>
      <trkpt lat="45.34608" lon="5.80356">
        <ele>866.76586914062</ele>
        <time>2011-06-04T12:04:52Z</time>
      </trkpt>
      <trkpt lat="45.34606" lon="5.80364">
        <ele>863.8818359375</ele>
        <time>2011-06-04T12:04:57Z</time>
      </trkpt>
      <trkpt lat="45.34605" lon="5.80366">
        <ele>862.92065429688</ele>
        <time>2011-06-04T12:04:59Z</time>
      </trkpt>
      <trkpt lat="45.346" lon="5.80372">
        <ele>860.03662109375</ele>
        <time>2011-06-04T12:05:04Z</time>
      </trkpt>
      <trkpt lat="45.34599" lon="5.80372">
        <ele>859.55590820312</ele>
        <time>2011-06-04T12:05:05Z</time>
      </trkpt>
      <trkpt lat="45.34594" lon="5.80375">
        <ele>855.22998046875</ele>
        <time>2011-06-04T12:05:11Z</time>
      </trkpt>
      <trkpt lat="45.34587" lon="5.80377">
        <ele>858.59448242188</ele>
        <time>2011-06-04T12:05:17Z</time>
      </trkpt>
      <trkpt lat="45.34581" lon="5.80378">
        <ele>860.51733398438</ele>
        <time>2011-06-04T12:05:21Z</time>
      </trkpt>
      <trkpt lat="45.34575" lon="5.80382">
        <ele>860.51733398438</ele>
        <time>2011-06-04T12:05:26Z</time>
      </trkpt>
      <trkpt lat="45.34566" lon="5.80383">
        <ele>863.4013671875</ele>
        <time>2011-06-04T12:05:32Z</time>
      </trkpt>
      <trkpt lat="45.34563" lon="5.80383">
        <ele>864.36254882812</ele>
        <time>2011-06-04T12:05:34Z</time>
      </trkpt>
      <trkpt lat="45.34557" lon="5.80385">
        <ele>861.95947265625</ele>
        <time>2011-06-04T12:05:40Z</time>
      </trkpt>
      <trkpt lat="45.34552" lon="5.80388">
        <ele>863.8818359375</ele>
        <time>2011-06-04T12:05:45Z</time>
      </trkpt>
      <trkpt lat="45.3455" lon="5.80388">
        <ele>865.8046875</ele>
        <time>2011-06-04T12:05:46Z</time>
      </trkpt>
      <trkpt lat="45.34543" lon="5.80388">
        <ele>869.16918945312</ele>
        <time>2011-06-04T12:05:50Z</time>
      </trkpt>
      <trkpt lat="45.34537" lon="5.80389">
        <ele>866.28515625</ele>
        <time>2011-06-04T12:05:56Z</time>
      </trkpt>
      <trkpt lat="45.34533" lon="5.80391">
        <ele>865.8046875</ele>
        <time>2011-06-04T12:06:00Z</time>
      </trkpt>
      <trkpt lat="45.3453" lon="5.80392">
        <ele>864.36254882812</ele>
        <time>2011-06-04T12:06:05Z</time>
      </trkpt>
      <trkpt lat="45.34525" lon="5.80391">
        <ele>869.64990234375</ele>
        <time>2011-06-04T12:06:09Z</time>
      </trkpt>
      <trkpt lat="45.34521" lon="5.80394">
        <ele>870.13037109375</ele>
        <time>2011-06-04T12:06:13Z</time>
      </trkpt>
      <trkpt lat="45.34517" lon="5.80393">
        <ele>875.41748046875</ele>
        <time>2011-06-04T12:06:16Z</time>
      </trkpt>
      <trkpt lat="45.3451" lon="5.80394">
        <ele>880.22436523438</ele>
        <time>2011-06-04T12:06:21Z</time>
      </trkpt>
      <trkpt lat="45.34502" lon="5.80392">
        <ele>885.51147460938</ele>
        <time>2011-06-04T12:06:26Z</time>
      </trkpt>
      <trkpt lat="45.34499" lon="5.80393">
        <ele>883.10815429688</ele>
        <time>2011-06-04T12:06:31Z</time>
      </trkpt>
      <trkpt lat="45.34492" lon="5.80395">
        <ele>885.9921875</ele>
        <time>2011-06-04T12:06:37Z</time>
      </trkpt>
      <trkpt lat="45.34488" lon="5.80394">
        <ele>886.47290039062</ele>
        <time>2011-06-04T12:06:42Z</time>
      </trkpt>
      <trkpt lat="45.34484" lon="5.80395">
        <ele>884.55029296875</ele>
        <time>2011-06-04T12:06:47Z</time>
      </trkpt>
      <trkpt lat="45.34483" lon="5.80395">
        <ele>885.51147460938</ele>
        <time>2011-06-04T12:06:49Z</time>
      </trkpt>
      <trkpt lat="45.3448" lon="5.80398">
        <ele>882.62768554688</ele>
        <time>2011-06-04T12:06:53Z</time>
      </trkpt>
      <trkpt lat="45.3448" lon="5.80398">
        <ele>882.14697265625</ele>
        <time>2011-06-04T12:06:54Z</time>
      </trkpt>
      <trkpt lat="45.34474" lon="5.804">
        <ele>881.66625976562</ele>
        <time>2011-06-04T12:06:59Z</time>
      </trkpt>
      <trkpt lat="45.34469" lon="5.80401">
        <ele>882.14697265625</ele>
        <time>2011-06-04T12:07:03Z</time>
      </trkpt>
      <trkpt lat="45.3446" lon="5.804">
        <ele>883.10815429688</ele>
        <time>2011-06-04T12:07:09Z</time>
      </trkpt>
      <trkpt lat="45.34457" lon="5.80401">
        <ele>884.55029296875</ele>
        <time>2011-06-04T12:07:13Z</time>
      </trkpt>
      <trkpt lat="45.34451" lon="5.80401">
        <ele>883.5888671875</ele>
        <time>2011-06-04T12:07:18Z</time>
      </trkpt>
      <trkpt lat="45.34446" lon="5.80399">
        <ele>886.47290039062</ele>
        <time>2011-06-04T12:07:23Z</time>
      </trkpt>
      <trkpt lat="45.34441" lon="5.80401">
        <ele>887.43408203125</ele>
        <time>2011-06-04T12:07:28Z</time>
      </trkpt>
      <trkpt lat="45.34437" lon="5.80401">
        <ele>887.43408203125</ele>
        <time>2011-06-04T12:07:31Z</time>
      </trkpt>
      <trkpt lat="45.34429" lon="5.80402">
        <ele>885.9921875</ele>
        <time>2011-06-04T12:07:37Z</time>
      </trkpt>
      <trkpt lat="45.34423" lon="5.80404">
        <ele>888.3955078125</ele>
        <time>2011-06-04T12:07:41Z</time>
      </trkpt>
      <trkpt lat="45.34417" lon="5.80402">
        <ele>892.7216796875</ele>
        <time>2011-06-04T12:07:45Z</time>
      </trkpt>
      <trkpt lat="45.34414" lon="5.80403">
        <ele>893.2021484375</ele>
        <time>2011-06-04T12:07:47Z</time>
      </trkpt>
      <trkpt lat="45.3441" lon="5.80406">
        <ele>893.2021484375</ele>
        <time>2011-06-04T12:07:49Z</time>
      </trkpt>
      <trkpt lat="45.34409" lon="5.80408">
        <ele>891.279296875</ele>
        <time>2011-06-04T12:07:50Z</time>
      </trkpt>
      <trkpt lat="45.34403" lon="5.80413">
        <ele>892.24096679688</ele>
        <time>2011-06-04T12:07:53Z</time>
      </trkpt>
      <trkpt lat="45.34397" lon="5.80418">
        <ele>891.279296875</ele>
        <time>2011-06-04T12:07:56Z</time>
      </trkpt>
      <trkpt lat="45.34395" lon="5.8042">
        <ele>892.24096679688</ele>
        <time>2011-06-04T12:07:57Z</time>
      </trkpt>
      <trkpt lat="45.34394" lon="5.80422">
        <ele>892.7216796875</ele>
        <time>2011-06-04T12:07:58Z</time>
      </trkpt>
      <trkpt lat="45.34384" lon="5.80433">
        <ele>890.31811523438</ele>
        <time>2011-06-04T12:08:03Z</time>
      </trkpt>
      <trkpt lat="45.34377" lon="5.80438">
        <ele>890.31811523438</ele>
        <time>2011-06-04T12:08:06Z</time>
      </trkpt>
      <trkpt lat="45.34374" lon="5.8044">
        <ele>890.31811523438</ele>
        <time>2011-06-04T12:08:07Z</time>
      </trkpt>
      <trkpt lat="45.34368" lon="5.80442">
        <ele>892.7216796875</ele>
        <time>2011-06-04T12:08:09Z</time>
      </trkpt>
      <trkpt lat="45.34359" lon="5.80444">
        <ele>896.08618164062</ele>
        <time>2011-06-04T12:08:13Z</time>
      </trkpt>
      <trkpt lat="45.34356" lon="5.80448">
        <ele>893.68286132812</ele>
        <time>2011-06-04T12:08:15Z</time>
      </trkpt>
      <trkpt lat="45.34356" lon="5.8045">
        <ele>890.79858398438</ele>
        <time>2011-06-04T12:08:16Z</time>
      </trkpt>
      <trkpt lat="45.34344" lon="5.80456">
        <ele>887.91479492188</ele>
        <time>2011-06-04T12:08:21Z</time>
      </trkpt>
      <trkpt lat="45.34335" lon="5.80465">
        <ele>887.43408203125</ele>
        <time>2011-06-04T12:08:26Z</time>
      </trkpt>
      <trkpt lat="45.34326" lon="5.80469">
        <ele>886.95336914062</ele>
        <time>2011-06-04T12:08:30Z</time>
      </trkpt>
      <trkpt lat="45.34312" lon="5.80475">
        <ele>888.87622070312</ele>
        <time>2011-06-04T12:08:36Z</time>
      </trkpt>
      <trkpt lat="45.34306" lon="5.80477">
        <ele>887.43408203125</ele>
        <time>2011-06-04T12:08:39Z</time>
      </trkpt>
      <trkpt lat="45.34292" lon="5.80485">
        <ele>889.35668945312</ele>
        <time>2011-06-04T12:08:45Z</time>
      </trkpt>
      <trkpt lat="45.34284" lon="5.80487">
        <ele>894.16357421875</ele>
        <time>2011-06-04T12:08:48Z</time>
      </trkpt>
      <trkpt lat="45.34281" lon="5.8049">
        <ele>895.60546875</ele>
        <time>2011-06-04T12:08:50Z</time>
      </trkpt>
      <trkpt lat="45.34272" lon="5.80492">
        <ele>896.08618164062</ele>
        <time>2011-06-04T12:08:54Z</time>
      </trkpt>
      <trkpt lat="45.34262" lon="5.80493">
        <ele>894.16357421875</ele>
        <time>2011-06-04T12:08:59Z</time>
      </trkpt>
      <trkpt lat="45.34252" lon="5.80501">
        <ele>892.7216796875</ele>
        <time>2011-06-04T12:09:04Z</time>
      </trkpt>
      <trkpt lat="45.34238" lon="5.80506">
        <ele>896.08618164062</ele>
        <time>2011-06-04T12:09:10Z</time>
      </trkpt>
      <trkpt lat="45.34233" lon="5.8051">
        <ele>897.04736328125</ele>
        <time>2011-06-04T12:09:13Z</time>
      </trkpt>
      <trkpt lat="45.34227" lon="5.80511">
        <ele>897.04736328125</ele>
        <time>2011-06-04T12:09:16Z</time>
      </trkpt>
      <trkpt lat="45.34218" lon="5.80521">
        <ele>897.04736328125</ele>
        <time>2011-06-04T12:09:21Z</time>
      </trkpt>
      <trkpt lat="45.34215" lon="5.80525">
        <ele>897.52807617188</ele>
        <time>2011-06-04T12:09:23Z</time>
      </trkpt>
      <trkpt lat="45.34206" lon="5.80534">
        <ele>902.33447265625</ele>
        <time>2011-06-04T12:09:28Z</time>
      </trkpt>
      <trkpt lat="45.342" lon="5.80543">
        <ele>904.25732421875</ele>
        <time>2011-06-04T12:09:32Z</time>
      </trkpt>
      <trkpt lat="45.34198" lon="5.8055">
        <ele>900.892578125</ele>
        <time>2011-06-04T12:09:36Z</time>
      </trkpt>
      <trkpt lat="45.34196" lon="5.80554">
        <ele>900.892578125</ele>
        <time>2011-06-04T12:09:39Z</time>
      </trkpt>
      <trkpt lat="45.34195" lon="5.80564">
        <ele>901.37329101562</ele>
        <time>2011-06-04T12:09:45Z</time>
      </trkpt>
      <trkpt lat="45.34195" lon="5.80566">
        <ele>901.37329101562</ele>
        <time>2011-06-04T12:09:46Z</time>
      </trkpt>
      <trkpt lat="45.34195" lon="5.80571">
        <ele>899.93139648438</ele>
        <time>2011-06-04T12:09:49Z</time>
      </trkpt>
      <trkpt lat="45.34199" lon="5.80579">
        <ele>899.93139648438</ele>
        <time>2011-06-04T12:09:54Z</time>
      </trkpt>
      <trkpt lat="45.342" lon="5.80581">
        <ele>899.93139648438</ele>
        <time>2011-06-04T12:09:55Z</time>
      </trkpt>
      <trkpt lat="45.342" lon="5.80586">
        <ele>899.45068359375</ele>
        <time>2011-06-04T12:09:59Z</time>
      </trkpt>
      <trkpt lat="45.34203" lon="5.80591">
        <ele>899.45068359375</ele>
        <time>2011-06-04T12:10:03Z</time>
      </trkpt>
      <trkpt lat="45.34204" lon="5.80593">
        <ele>899.45068359375</ele>
        <time>2011-06-04T12:10:04Z</time>
      </trkpt>
      <trkpt lat="45.34205" lon="5.80595">
        <ele>899.93139648438</ele>
        <time>2011-06-04T12:10:05Z</time>
      </trkpt>
      <trkpt lat="45.34206" lon="5.80596">
        <ele>900.412109375</ele>
        <time>2011-06-04T12:10:06Z</time>
      </trkpt>
      <trkpt lat="45.34207" lon="5.80597">
        <ele>900.412109375</ele>
        <time>2011-06-04T12:10:07Z</time>
      </trkpt>
      <trkpt lat="45.34208" lon="5.80599">
        <ele>901.37329101562</ele>
        <time>2011-06-04T12:10:08Z</time>
      </trkpt>
      <trkpt lat="45.34208" lon="5.80601">
        <ele>900.892578125</ele>
        <time>2011-06-04T12:10:09Z</time>
      </trkpt>
      <trkpt lat="45.34209" lon="5.80603">
        <ele>901.37329101562</ele>
        <time>2011-06-04T12:10:11Z</time>
      </trkpt>
      <trkpt lat="45.34211" lon="5.80608">
        <ele>901.37329101562</ele>
        <time>2011-06-04T12:10:15Z</time>
      </trkpt>
      <trkpt lat="45.34213" lon="5.80613">
        <ele>903.2958984375</ele>
        <time>2011-06-04T12:10:20Z</time>
      </trkpt>
      <trkpt lat="45.34216" lon="5.80617">
        <ele>903.77661132812</ele>
        <time>2011-06-04T12:10:22Z</time>
      </trkpt>
      <trkpt lat="45.34218" lon="5.80623">
        <ele>905.21850585938</ele>
        <time>2011-06-04T12:10:27Z</time>
      </trkpt>
      <trkpt lat="45.34222" lon="5.80629">
        <ele>907.14111328125</ele>
        <time>2011-06-04T12:10:32Z</time>
      </trkpt>
      <trkpt lat="45.34224" lon="5.80635">
        <ele>906.66040039062</ele>
        <time>2011-06-04T12:10:36Z</time>
      </trkpt>
      <trkpt lat="45.34227" lon="5.80641">
        <ele>905.69921875</ele>
        <time>2011-06-04T12:10:40Z</time>
      </trkpt>
      <trkpt lat="45.34232" lon="5.80648">
        <ele>907.62182617188</ele>
        <time>2011-06-04T12:10:45Z</time>
      </trkpt>
      <trkpt lat="45.34233" lon="5.80649">
        <ele>908.10278320312</ele>
        <time>2011-06-04T12:10:46Z</time>
      </trkpt>
      <trkpt lat="45.34238" lon="5.80654">
        <ele>911.46728515625</ele>
        <time>2011-06-04T12:10:52Z</time>
      </trkpt>
      <trkpt lat="45.34244" lon="5.80657">
        <ele>913.38989257812</ele>
        <time>2011-06-04T12:10:56Z</time>
      </trkpt>
      <trkpt lat="45.34247" lon="5.80661">
        <ele>912.9091796875</ele>
        <time>2011-06-04T12:10:59Z</time>
      </trkpt>
      <trkpt lat="45.3425" lon="5.80669">
        <ele>912.42846679688</ele>
        <time>2011-06-04T12:11:04Z</time>
      </trkpt>
      <trkpt lat="45.34252" lon="5.80669">
        <ele>912.42846679688</ele>
        <time>2011-06-04T12:11:05Z</time>
      </trkpt>
      <trkpt lat="45.34256" lon="5.80676">
        <ele>915.3125</ele>
        <time>2011-06-04T12:11:11Z</time>
      </trkpt>
      <trkpt lat="45.3426" lon="5.80679">
        <ele>916.75439453125</ele>
        <time>2011-06-04T12:11:15Z</time>
      </trkpt>
      <trkpt lat="45.34261" lon="5.80679">
        <ele>917.23510742188</ele>
        <time>2011-06-04T12:11:16Z</time>
      </trkpt>
      <trkpt lat="45.34264" lon="5.80681">
        <ele>920.599609375</ele>
        <time>2011-06-04T12:11:20Z</time>
      </trkpt>
      <trkpt lat="45.34266" lon="5.80682">
        <ele>921.08032226562</ele>
        <time>2011-06-04T12:11:22Z</time>
      </trkpt>
      <trkpt lat="45.34271" lon="5.80686">
        <ele>924.44506835938</ele>
        <time>2011-06-04T12:11:27Z</time>
      </trkpt>
      <trkpt lat="45.34274" lon="5.80688">
        <ele>926.84838867188</ele>
        <time>2011-06-04T12:11:31Z</time>
      </trkpt>
      <trkpt lat="45.34276" lon="5.80692">
        <ele>932.13549804688</ele>
        <time>2011-06-04T12:11:36Z</time>
      </trkpt>
      <trkpt lat="45.34277" lon="5.80693">
        <ele>932.6162109375</ele>
        <time>2011-06-04T12:11:38Z</time>
      </trkpt>
      <trkpt lat="45.34278" lon="5.80694">
        <ele>933.0966796875</ele>
        <time>2011-06-04T12:11:39Z</time>
      </trkpt>
      <trkpt lat="45.34283" lon="5.80694">
        <ele>934.53881835938</ele>
        <time>2011-06-04T12:11:44Z</time>
      </trkpt>
      <trkpt lat="45.34285" lon="5.80694">
        <ele>934.53881835938</ele>
        <time>2011-06-04T12:11:45Z</time>
      </trkpt>
      <trkpt lat="45.34286" lon="5.80696">
        <ele>935.5</ele>
        <time>2011-06-04T12:11:46Z</time>
      </trkpt>
      <trkpt lat="45.34286" lon="5.80697">
        <ele>936.46142578125</ele>
        <time>2011-06-04T12:11:47Z</time>
      </trkpt>
      <trkpt lat="45.34292" lon="5.80699">
        <ele>937.42260742188</ele>
        <time>2011-06-04T12:11:52Z</time>
      </trkpt>
      <trkpt lat="45.34295" lon="5.80701">
        <ele>937.9033203125</ele>
        <time>2011-06-04T12:11:55Z</time>
      </trkpt>
      <trkpt lat="45.34297" lon="5.80704">
        <ele>939.34521484375</ele>
        <time>2011-06-04T12:11:59Z</time>
      </trkpt>
      <trkpt lat="45.34299" lon="5.80707">
        <ele>940.30688476562</ele>
        <time>2011-06-04T12:12:02Z</time>
      </trkpt>
      <trkpt lat="45.34309" lon="5.80705">
        <ele>941.26806640625</ele>
        <time>2011-06-04T12:12:08Z</time>
      </trkpt>
      <trkpt lat="45.34311" lon="5.80704">
        <ele>941.26806640625</ele>
        <time>2011-06-04T12:12:09Z</time>
      </trkpt>
      <trkpt lat="45.34312" lon="5.80706">
        <ele>941.26806640625</ele>
        <time>2011-06-04T12:12:11Z</time>
      </trkpt>
      <trkpt lat="45.3432" lon="5.80706">
        <ele>941.26806640625</ele>
        <time>2011-06-04T12:12:18Z</time>
      </trkpt>
      <trkpt lat="45.34327" lon="5.80708">
        <ele>940.78735351562</ele>
        <time>2011-06-04T12:12:24Z</time>
      </trkpt>
      <trkpt lat="45.34329" lon="5.80709">
        <ele>940.78735351562</ele>
        <time>2011-06-04T12:12:26Z</time>
      </trkpt>
      <trkpt lat="45.3433" lon="5.8071">
        <ele>942.71020507812</ele>
        <time>2011-06-04T12:12:28Z</time>
      </trkpt>
      <trkpt lat="45.34337" lon="5.80713">
        <ele>944.63256835938</ele>
        <time>2011-06-04T12:12:34Z</time>
      </trkpt>
      <trkpt lat="45.34341" lon="5.80717">
        <ele>945.11328125</ele>
        <time>2011-06-04T12:12:38Z</time>
      </trkpt>
      <trkpt lat="45.34346" lon="5.80721">
        <ele>948.95849609375</ele>
        <time>2011-06-04T12:12:42Z</time>
      </trkpt>
      <trkpt lat="45.34349" lon="5.80726">
        <ele>952.32299804688</ele>
        <time>2011-06-04T12:12:47Z</time>
      </trkpt>
      <trkpt lat="45.34352" lon="5.80729">
        <ele>951.84252929688</ele>
        <time>2011-06-04T12:12:50Z</time>
      </trkpt>
      <trkpt lat="45.34354" lon="5.80731">
        <ele>953.76513671875</ele>
        <time>2011-06-04T12:12:53Z</time>
      </trkpt>
      <trkpt lat="45.3436" lon="5.80733">
        <ele>954.24584960938</ele>
        <time>2011-06-04T12:12:58Z</time>
      </trkpt>
      <trkpt lat="45.34363" lon="5.80735">
        <ele>954.72631835938</ele>
        <time>2011-06-04T12:13:04Z</time>
      </trkpt>
      <trkpt lat="45.34366" lon="5.80737">
        <ele>954.72631835938</ele>
        <time>2011-06-04T12:13:07Z</time>
      </trkpt>
      <trkpt lat="45.34371" lon="5.80738">
        <ele>954.24584960938</ele>
        <time>2011-06-04T12:13:11Z</time>
      </trkpt>
      <trkpt lat="45.34376" lon="5.80742">
        <ele>950.40063476562</ele>
        <time>2011-06-04T12:13:15Z</time>
      </trkpt>
      <trkpt lat="45.3438" lon="5.80744">
        <ele>951.36181640625</ele>
        <time>2011-06-04T12:13:19Z</time>
      </trkpt>
      <trkpt lat="45.34384" lon="5.80745">
        <ele>954.24584960938</ele>
        <time>2011-06-04T12:13:23Z</time>
      </trkpt>
      <trkpt lat="45.34387" lon="5.80745">
        <ele>953.28442382812</ele>
        <time>2011-06-04T12:13:26Z</time>
      </trkpt>
      <trkpt lat="45.34391" lon="5.80745">
        <ele>953.76513671875</ele>
        <time>2011-06-04T12:13:29Z</time>
      </trkpt>
      <trkpt lat="45.34396" lon="5.80744">
        <ele>955.20703125</ele>
        <time>2011-06-04T12:13:35Z</time>
      </trkpt>
      <trkpt lat="45.34403" lon="5.80742">
        <ele>956.64916992188</ele>
        <time>2011-06-04T12:13:42Z</time>
      </trkpt>
      <trkpt lat="45.34406" lon="5.80742">
        <ele>960.49438476562</ele>
        <time>2011-06-04T12:13:47Z</time>
      </trkpt>
      <trkpt lat="45.34402" lon="5.80742">
        <ele>964.33959960938</ele>
        <time>2011-06-04T12:13:53Z</time>
      </trkpt>
      <trkpt lat="45.34398" lon="5.80739">
        <ele>965.78173828125</ele>
        <time>2011-06-04T12:13:59Z</time>
      </trkpt>
      <trkpt lat="45.34394" lon="5.80734">
        <ele>967.2236328125</ele>
        <time>2011-06-04T12:14:04Z</time>
      </trkpt>
      <trkpt lat="45.34391" lon="5.80728">
        <ele>968.66552734375</ele>
        <time>2011-06-04T12:14:09Z</time>
      </trkpt>
      <trkpt lat="45.34386" lon="5.80718">
        <ele>971.54931640625</ele>
        <time>2011-06-04T12:14:17Z</time>
      </trkpt>
      <trkpt lat="45.34385" lon="5.80714">
        <ele>971.54931640625</ele>
        <time>2011-06-04T12:14:19Z</time>
      </trkpt>
      <trkpt lat="45.3438" lon="5.8071">
        <ele>972.99169921875</ele>
        <time>2011-06-04T12:14:23Z</time>
      </trkpt>
      <trkpt lat="45.3438" lon="5.80702">
        <ele>973.95288085938</ele>
        <time>2011-06-04T12:14:26Z</time>
      </trkpt>
      <trkpt lat="45.34376" lon="5.80695">
        <ele>973.47241210938</ele>
        <time>2011-06-04T12:14:31Z</time>
      </trkpt>
      <trkpt lat="45.34375" lon="5.80692">
        <ele>973.95288085938</ele>
        <time>2011-06-04T12:14:33Z</time>
      </trkpt>
      <trkpt lat="45.34374" lon="5.80685">
        <ele>974.43359375</ele>
        <time>2011-06-04T12:14:37Z</time>
      </trkpt>
      <trkpt lat="45.3437" lon="5.80682">
        <ele>974.91430664062</ele>
        <time>2011-06-04T12:14:41Z</time>
      </trkpt>
      <trkpt lat="45.34365" lon="5.80675">
        <ele>973.47241210938</ele>
        <time>2011-06-04T12:14:46Z</time>
      </trkpt>
      <trkpt lat="45.34361" lon="5.8067">
        <ele>974.43359375</ele>
        <time>2011-06-04T12:14:50Z</time>
      </trkpt>
      <trkpt lat="45.34359" lon="5.80665">
        <ele>972.0302734375</ele>
        <time>2011-06-04T12:14:53Z</time>
      </trkpt>
      <trkpt lat="45.34359" lon="5.80663">
        <ele>971.54931640625</ele>
        <time>2011-06-04T12:14:54Z</time>
      </trkpt>
      <trkpt lat="45.34357" lon="5.80657">
        <ele>971.06884765625</ele>
        <time>2011-06-04T12:14:59Z</time>
      </trkpt>
      <trkpt lat="45.34351" lon="5.80649">
        <ele>972.51098632812</ele>
        <time>2011-06-04T12:15:05Z</time>
      </trkpt>
      <trkpt lat="45.34348" lon="5.80642">
        <ele>971.06884765625</ele>
        <time>2011-06-04T12:15:10Z</time>
      </trkpt>
      <trkpt lat="45.34347" lon="5.80635">
        <ele>969.626953125</ele>
        <time>2011-06-04T12:15:13Z</time>
      </trkpt>
      <trkpt lat="45.34348" lon="5.80627">
        <ele>969.626953125</ele>
        <time>2011-06-04T12:15:17Z</time>
      </trkpt>
      <trkpt lat="45.34355" lon="5.80616">
        <ele>972.99169921875</ele>
        <time>2011-06-04T12:15:25Z</time>
      </trkpt>
      <trkpt lat="45.34356" lon="5.80615">
        <ele>975.39477539062</ele>
        <time>2011-06-04T12:15:27Z</time>
      </trkpt>
      <trkpt lat="45.34357" lon="5.80615">
        <ele>976.35620117188</ele>
        <time>2011-06-04T12:15:28Z</time>
      </trkpt>
      <trkpt lat="45.3436" lon="5.80616">
        <ele>976.8369140625</ele>
        <time>2011-06-04T12:15:30Z</time>
      </trkpt>
      <trkpt lat="45.34362" lon="5.80616">
        <ele>977.31762695312</ele>
        <time>2011-06-04T12:15:31Z</time>
      </trkpt>
      <trkpt lat="45.34366" lon="5.80618">
        <ele>978.75952148438</ele>
        <time>2011-06-04T12:15:35Z</time>
      </trkpt>
      <trkpt lat="45.3437" lon="5.80619">
        <ele>980.20141601562</ele>
        <time>2011-06-04T12:15:40Z</time>
      </trkpt>
      <trkpt lat="45.34372" lon="5.8062">
        <ele>980.68212890625</ele>
        <time>2011-06-04T12:15:42Z</time>
      </trkpt>
      <trkpt lat="45.34374" lon="5.8062">
        <ele>981.16284179688</ele>
        <time>2011-06-04T12:15:43Z</time>
      </trkpt>
      <trkpt lat="45.3438" lon="5.80623">
        <ele>985.48852539062</ele>
        <time>2011-06-04T12:15:48Z</time>
      </trkpt>
      <trkpt lat="45.34386" lon="5.80626">
        <ele>985.48852539062</ele>
        <time>2011-06-04T12:15:53Z</time>
      </trkpt>
      <trkpt lat="45.34391" lon="5.80627">
        <ele>987.89184570312</ele>
        <time>2011-06-04T12:15:59Z</time>
      </trkpt>
      <trkpt lat="45.34394" lon="5.80629">
        <ele>990.29541015625</ele>
        <time>2011-06-04T12:16:05Z</time>
      </trkpt>
      <trkpt lat="45.34396" lon="5.8063">
        <ele>989.81469726562</ele>
        <time>2011-06-04T12:16:08Z</time>
      </trkpt>
      <trkpt lat="45.34402" lon="5.80633">
        <ele>993.17919921875</ele>
        <time>2011-06-04T12:16:13Z</time>
      </trkpt>
      <trkpt lat="45.34404" lon="5.80636">
        <ele>994.62109375</ele>
        <time>2011-06-04T12:16:18Z</time>
      </trkpt>
      <trkpt lat="45.34408" lon="5.80639">
        <ele>994.62109375</ele>
        <time>2011-06-04T12:16:22Z</time>
      </trkpt>
      <trkpt lat="45.34411" lon="5.80638">
        <ele>995.10180664062</ele>
        <time>2011-06-04T12:16:27Z</time>
      </trkpt>
      <trkpt lat="45.34414" lon="5.80635">
        <ele>996.5439453125</ele>
        <time>2011-06-04T12:16:32Z</time>
      </trkpt>
      <trkpt lat="45.34419" lon="5.80636">
        <ele>996.06323242188</ele>
        <time>2011-06-04T12:16:38Z</time>
      </trkpt>
      <trkpt lat="45.34427" lon="5.80634">
        <ele>997.98583984375</ele>
        <time>2011-06-04T12:16:46Z</time>
      </trkpt>
      <trkpt lat="45.34433" lon="5.80634">
        <ele>996.06323242188</ele>
        <time>2011-06-04T12:16:52Z</time>
      </trkpt>
      <trkpt lat="45.34438" lon="5.80635">
        <ele>1000.8696289062</ele>
        <time>2011-06-04T12:16:58Z</time>
      </trkpt>
      <trkpt lat="45.34442" lon="5.80634">
        <ele>1003.7536621094</ele>
        <time>2011-06-04T12:17:02Z</time>
      </trkpt>
      <trkpt lat="45.34443" lon="5.80634">
        <ele>1004.2346191406</ele>
        <time>2011-06-04T12:17:03Z</time>
      </trkpt>
      <trkpt lat="45.34451" lon="5.80634">
        <ele>1007.1184082031</ele>
        <time>2011-06-04T12:17:08Z</time>
      </trkpt>
      <trkpt lat="45.34455" lon="5.80634">
        <ele>1009.041015625</ele>
        <time>2011-06-04T12:17:12Z</time>
      </trkpt>
      <trkpt lat="45.34456" lon="5.80635">
        <ele>1009.041015625</ele>
        <time>2011-06-04T12:17:13Z</time>
      </trkpt>
      <trkpt lat="45.34461" lon="5.80638">
        <ele>1008.5603027344</ele>
        <time>2011-06-04T12:17:18Z</time>
      </trkpt>
      <trkpt lat="45.34467" lon="5.80641">
        <ele>1007.5991210938</ele>
        <time>2011-06-04T12:17:23Z</time>
      </trkpt>
      <trkpt lat="45.34471" lon="5.80644">
        <ele>1009.5217285156</ele>
        <time>2011-06-04T12:17:27Z</time>
      </trkpt>
      <trkpt lat="45.34476" lon="5.80645">
        <ele>1010.0021972656</ele>
        <time>2011-06-04T12:17:30Z</time>
      </trkpt>
      <trkpt lat="45.34481" lon="5.80646">
        <ele>1010.4829101562</ele>
        <time>2011-06-04T12:17:32Z</time>
      </trkpt>
      <trkpt lat="45.34483" lon="5.80648">
        <ele>1010.4829101562</ele>
        <time>2011-06-04T12:17:33Z</time>
      </trkpt>
      <trkpt lat="45.34488" lon="5.80651">
        <ele>1011.9250488281</ele>
        <time>2011-06-04T12:17:36Z</time>
      </trkpt>
      <trkpt lat="45.3449" lon="5.80652">
        <ele>1011.9250488281</ele>
        <time>2011-06-04T12:17:37Z</time>
      </trkpt>
      <trkpt lat="45.34492" lon="5.80655">
        <ele>1012.8862304688</ele>
        <time>2011-06-04T12:17:39Z</time>
      </trkpt>
      <trkpt lat="45.34499" lon="5.80656">
        <ele>1014.8088378906</ele>
        <time>2011-06-04T12:17:42Z</time>
      </trkpt>
      <trkpt lat="45.34509" lon="5.80658">
        <ele>1016.2507324219</ele>
        <time>2011-06-04T12:17:45Z</time>
      </trkpt>
      <trkpt lat="45.34521" lon="5.80666">
        <ele>1017.6926269531</ele>
        <time>2011-06-04T12:17:51Z</time>
      </trkpt>
      <trkpt lat="45.34524" lon="5.80667">
        <ele>1018.6540527344</ele>
        <time>2011-06-04T12:17:53Z</time>
      </trkpt>
      <trkpt lat="45.34526" lon="5.80669">
        <ele>1018.1733398438</ele>
        <time>2011-06-04T12:17:54Z</time>
      </trkpt>
      <trkpt lat="45.34528" lon="5.8067">
        <ele>1019.134765625</ele>
        <time>2011-06-04T12:17:55Z</time>
      </trkpt>
      <trkpt lat="45.34529" lon="5.80673">
        <ele>1019.134765625</ele>
        <time>2011-06-04T12:17:56Z</time>
      </trkpt>
      <trkpt lat="45.34536" lon="5.80684">
        <ele>1021.0576171875</ele>
        <time>2011-06-04T12:18:01Z</time>
      </trkpt>
      <trkpt lat="45.34544" lon="5.80701">
        <ele>1021.0576171875</ele>
        <time>2011-06-04T12:18:08Z</time>
      </trkpt>
      <trkpt lat="45.34552" lon="5.80712">
        <ele>1022.4995117188</ele>
        <time>2011-06-04T12:18:13Z</time>
      </trkpt>
      <trkpt lat="45.34555" lon="5.80717">
        <ele>1025.3833007812</ele>
        <time>2011-06-04T12:18:16Z</time>
      </trkpt>
      <trkpt lat="45.34556" lon="5.80722">
        <ele>1024.4221191406</ele>
        <time>2011-06-04T12:18:18Z</time>
      </trkpt>
      <trkpt lat="45.34558" lon="5.80727">
        <ele>1023.94140625</ele>
        <time>2011-06-04T12:18:20Z</time>
      </trkpt>
      <trkpt lat="45.34559" lon="5.8073">
        <ele>1024.9028320312</ele>
        <time>2011-06-04T12:18:21Z</time>
      </trkpt>
      <trkpt lat="45.34568" lon="5.80742">
        <ele>1026.3447265625</ele>
        <time>2011-06-04T12:18:26Z</time>
      </trkpt>
      <trkpt lat="45.34574" lon="5.80751">
        <ele>1025.3833007812</ele>
        <time>2011-06-04T12:18:30Z</time>
      </trkpt>
      <trkpt lat="45.34583" lon="5.80761">
        <ele>1024.9028320312</ele>
        <time>2011-06-04T12:18:35Z</time>
      </trkpt>
      <trkpt lat="45.34585" lon="5.80766">
        <ele>1023.94140625</ele>
        <time>2011-06-04T12:18:38Z</time>
      </trkpt>
      <trkpt lat="45.34591" lon="5.80773">
        <ele>1022.9802246094</ele>
        <time>2011-06-04T12:18:42Z</time>
      </trkpt>
      <trkpt lat="45.34592" lon="5.80776">
        <ele>1022.4995117188</ele>
        <time>2011-06-04T12:18:44Z</time>
      </trkpt>
      <trkpt lat="45.34595" lon="5.80781">
        <ele>1024.4221191406</ele>
        <time>2011-06-04T12:18:47Z</time>
      </trkpt>
      <trkpt lat="45.34597" lon="5.80783">
        <ele>1024.4221191406</ele>
        <time>2011-06-04T12:18:48Z</time>
      </trkpt>
      <trkpt lat="45.34598" lon="5.80785">
        <ele>1024.4221191406</ele>
        <time>2011-06-04T12:18:49Z</time>
      </trkpt>
      <trkpt lat="45.34604" lon="5.80791">
        <ele>1025.3833007812</ele>
        <time>2011-06-04T12:18:53Z</time>
      </trkpt>
      <trkpt lat="45.34605" lon="5.80795">
        <ele>1023.94140625</ele>
        <time>2011-06-04T12:18:55Z</time>
      </trkpt>
      <trkpt lat="45.34605" lon="5.80796">
        <ele>1022.9802246094</ele>
        <time>2011-06-04T12:18:56Z</time>
      </trkpt>
      <trkpt lat="45.34605" lon="5.80797">
        <ele>1022.9802246094</ele>
        <time>2011-06-04T12:18:57Z</time>
      </trkpt>
      <trkpt lat="45.34608" lon="5.80805">
        <ele>1024.4221191406</ele>
        <time>2011-06-04T12:19:02Z</time>
      </trkpt>
      <trkpt lat="45.34612" lon="5.8081">
        <ele>1022.0187988281</ele>
        <time>2011-06-04T12:19:06Z</time>
      </trkpt>
      <trkpt lat="45.34614" lon="5.80817">
        <ele>1021.5380859375</ele>
        <time>2011-06-04T12:19:12Z</time>
      </trkpt>
      <trkpt lat="45.3462" lon="5.80825">
        <ele>1022.9802246094</ele>
        <time>2011-06-04T12:19:17Z</time>
      </trkpt>
      <trkpt lat="45.34622" lon="5.80829">
        <ele>1023.4609375</ele>
        <time>2011-06-04T12:19:19Z</time>
      </trkpt>
      <trkpt lat="45.34623" lon="5.80835">
        <ele>1025.8640136719</ele>
        <time>2011-06-04T12:19:23Z</time>
      </trkpt>
      <trkpt lat="45.34626" lon="5.80842">
        <ele>1027.3061523438</ele>
        <time>2011-06-04T12:19:29Z</time>
      </trkpt>
      <trkpt lat="45.34627" lon="5.80849">
        <ele>1030.6706542969</ele>
        <time>2011-06-04T12:19:36Z</time>
      </trkpt>
      <trkpt lat="45.34629" lon="5.80857">
        <ele>1028.748046875</ele>
        <time>2011-06-04T12:19:42Z</time>
      </trkpt>
      <trkpt lat="45.34631" lon="5.80858">
        <ele>1027.7866210938</ele>
        <time>2011-06-04T12:19:45Z</time>
      </trkpt>
      <trkpt lat="45.34632" lon="5.80861">
        <ele>1026.8254394531</ele>
        <time>2011-06-04T12:19:48Z</time>
      </trkpt>
      <trkpt lat="45.34635" lon="5.80864">
        <ele>1026.3447265625</ele>
        <time>2011-06-04T12:19:51Z</time>
      </trkpt>
      <trkpt lat="45.34641" lon="5.80875">
        <ele>1028.748046875</ele>
        <time>2011-06-04T12:19:57Z</time>
      </trkpt>
      <trkpt lat="45.34643" lon="5.80879">
        <ele>1030.6706542969</ele>
        <time>2011-06-04T12:19:59Z</time>
      </trkpt>
      <trkpt lat="45.34645" lon="5.8088">
        <ele>1030.6706542969</ele>
        <time>2011-06-04T12:20:00Z</time>
      </trkpt>
      <trkpt lat="45.34649" lon="5.80882">
        <ele>1031.6318359375</ele>
        <time>2011-06-04T12:20:02Z</time>
      </trkpt>
      <trkpt lat="45.34653" lon="5.80886">
        <ele>1034.03515625</ele>
        <time>2011-06-04T12:20:05Z</time>
      </trkpt>
      <trkpt lat="45.34655" lon="5.80887">
        <ele>1035.4770507812</ele>
        <time>2011-06-04T12:20:06Z</time>
      </trkpt>
      <trkpt lat="45.34663" lon="5.80891">
        <ele>1039.3225097656</ele>
        <time>2011-06-04T12:20:09Z</time>
      </trkpt>
      <trkpt lat="45.34665" lon="5.80893">
        <ele>1039.8032226562</ele>
        <time>2011-06-04T12:20:10Z</time>
      </trkpt>
      <trkpt lat="45.34674" lon="5.80901">
        <ele>1039.8032226562</ele>
        <time>2011-06-04T12:20:15Z</time>
      </trkpt>
      <trkpt lat="45.34681" lon="5.80904">
        <ele>1038.8420410156</ele>
        <time>2011-06-04T12:20:17Z</time>
      </trkpt>
      <trkpt lat="45.34689" lon="5.80911">
        <ele>1041.2451171875</ele>
        <time>2011-06-04T12:20:21Z</time>
      </trkpt>
      <trkpt lat="45.34696" lon="5.80916">
        <ele>1038.8420410156</ele>
        <time>2011-06-04T12:20:26Z</time>
      </trkpt>
      <trkpt lat="45.34703" lon="5.80924">
        <ele>1042.2065429688</ele>
        <time>2011-06-04T12:20:30Z</time>
      </trkpt>
      <trkpt lat="45.34708" lon="5.8093">
        <ele>1044.1291503906</ele>
        <time>2011-06-04T12:20:33Z</time>
      </trkpt>
      <trkpt lat="45.34718" lon="5.80937">
        <ele>1045.5710449219</ele>
        <time>2011-06-04T12:20:39Z</time>
      </trkpt>
      <trkpt lat="45.34726" lon="5.80941">
        <ele>1044.1291503906</ele>
        <time>2011-06-04T12:20:43Z</time>
      </trkpt>
      <trkpt lat="45.34728" lon="5.80943">
        <ele>1043.6484375</ele>
        <time>2011-06-04T12:20:45Z</time>
      </trkpt>
      <trkpt lat="45.3473" lon="5.80945">
        <ele>1043.6484375</ele>
        <time>2011-06-04T12:20:47Z</time>
      </trkpt>
      <trkpt lat="45.34737" lon="5.80949">
        <ele>1043.6484375</ele>
        <time>2011-06-04T12:20:51Z</time>
      </trkpt>
      <trkpt lat="45.34742" lon="5.80953">
        <ele>1044.6096191406</ele>
        <time>2011-06-04T12:20:55Z</time>
      </trkpt>
      <trkpt lat="45.34746" lon="5.80956">
        <ele>1046.0517578125</ele>
        <time>2011-06-04T12:20:57Z</time>
      </trkpt>
      <trkpt lat="45.34747" lon="5.80959">
        <ele>1048.4548339844</ele>
        <time>2011-06-04T12:21:00Z</time>
      </trkpt>
      <trkpt lat="45.34758" lon="5.80966">
        <ele>1049.4162597656</ele>
        <time>2011-06-04T12:21:06Z</time>
      </trkpt>
      <trkpt lat="45.34769" lon="5.80969">
        <ele>1052.3002929688</ele>
        <time>2011-06-04T12:21:11Z</time>
      </trkpt>
      <trkpt lat="45.34772" lon="5.80971">
        <ele>1051.8195800781</ele>
        <time>2011-06-04T12:21:14Z</time>
      </trkpt>
      <trkpt lat="45.34775" lon="5.80972">
        <ele>1051.8195800781</ele>
        <time>2011-06-04T12:21:16Z</time>
      </trkpt>
      <trkpt lat="45.34781" lon="5.80976">
        <ele>1050.3776855469</ele>
        <time>2011-06-04T12:21:21Z</time>
      </trkpt>
      <trkpt lat="45.3479" lon="5.80979">
        <ele>1050.8581542969</ele>
        <time>2011-06-04T12:21:25Z</time>
      </trkpt>
      <trkpt lat="45.34801" lon="5.80981">
        <ele>1051.3388671875</ele>
        <time>2011-06-04T12:21:29Z</time>
      </trkpt>
      <trkpt lat="45.34805" lon="5.80984">
        <ele>1050.8581542969</ele>
        <time>2011-06-04T12:21:32Z</time>
      </trkpt>
      <trkpt lat="45.3481" lon="5.80987">
        <ele>1052.3002929688</ele>
        <time>2011-06-04T12:21:36Z</time>
      </trkpt>
      <trkpt lat="45.34822" lon="5.8099">
        <ele>1054.2231445312</ele>
        <time>2011-06-04T12:21:43Z</time>
      </trkpt>
      <trkpt lat="45.34826" lon="5.8099">
        <ele>1053.7424316406</ele>
        <time>2011-06-04T12:21:45Z</time>
      </trkpt>
      <trkpt lat="45.34837" lon="5.80998">
        <ele>1054.7036132812</ele>
        <time>2011-06-04T12:21:52Z</time>
      </trkpt>
      <trkpt lat="45.34841" lon="5.81003">
        <ele>1056.1455078125</ele>
        <time>2011-06-04T12:21:56Z</time>
      </trkpt>
      <trkpt lat="45.34846" lon="5.81006">
        <ele>1056.6262207031</ele>
        <time>2011-06-04T12:22:00Z</time>
      </trkpt>
      <trkpt lat="45.34847" lon="5.81007">
        <ele>1057.1069335938</ele>
        <time>2011-06-04T12:22:01Z</time>
      </trkpt>
      <trkpt lat="45.34848" lon="5.81007">
        <ele>1057.5876464844</ele>
        <time>2011-06-04T12:22:02Z</time>
      </trkpt>
      <trkpt lat="45.34851" lon="5.81006">
        <ele>1058.548828125</ele>
        <time>2011-06-04T12:22:05Z</time>
      </trkpt>
      <trkpt lat="45.34852" lon="5.81006">
        <ele>1058.548828125</ele>
        <time>2011-06-04T12:22:06Z</time>
      </trkpt>
      <trkpt lat="45.34853" lon="5.81005">
        <ele>1059.9907226562</ele>
        <time>2011-06-04T12:22:07Z</time>
      </trkpt>
      <trkpt lat="45.3486" lon="5.81003">
        <ele>1060.9521484375</ele>
        <time>2011-06-04T12:22:11Z</time>
      </trkpt>
      <trkpt lat="45.34867" lon="5.81001">
        <ele>1063.35546875</ele>
        <time>2011-06-04T12:22:16Z</time>
      </trkpt>
      <trkpt lat="45.34874" lon="5.81">
        <ele>1066.2392578125</ele>
        <time>2011-06-04T12:22:21Z</time>
      </trkpt>
      <trkpt lat="45.34881" lon="5.80999">
        <ele>1064.7973632812</ele>
        <time>2011-06-04T12:22:23Z</time>
      </trkpt>
      <trkpt lat="45.3489" lon="5.81002">
        <ele>1067.6811523438</ele>
        <time>2011-06-04T12:22:27Z</time>
      </trkpt>
      <trkpt lat="45.349" lon="5.81">
        <ele>1069.6042480469</ele>
        <time>2011-06-04T12:22:31Z</time>
      </trkpt>
      <trkpt lat="45.34903" lon="5.81">
        <ele>1071.5266113281</ele>
        <time>2011-06-04T12:22:35Z</time>
      </trkpt>
      <trkpt lat="45.34911" lon="5.81002">
        <ele>1070.5654296875</ele>
        <time>2011-06-04T12:22:42Z</time>
      </trkpt>
      <trkpt lat="45.34916" lon="5.81002">
        <ele>1071.5266113281</ele>
        <time>2011-06-04T12:22:47Z</time>
      </trkpt>
      <trkpt lat="45.34921" lon="5.81001">
        <ele>1069.1235351562</ele>
        <time>2011-06-04T12:22:53Z</time>
      </trkpt>
      <trkpt lat="45.3493" lon="5.81">
        <ele>1069.1235351562</ele>
        <time>2011-06-04T12:22:58Z</time>
      </trkpt>
      <trkpt lat="45.34933" lon="5.81004">
        <ele>1072.96875</ele>
        <time>2011-06-04T12:23:04Z</time>
      </trkpt>
      <trkpt lat="45.34936" lon="5.81004">
        <ele>1076.3332519531</ele>
        <time>2011-06-04T12:23:11Z</time>
      </trkpt>
      <trkpt lat="45.3494" lon="5.81008">
        <ele>1077.2946777344</ele>
        <time>2011-06-04T12:23:17Z</time>
      </trkpt>
      <trkpt lat="45.34945" lon="5.81011">
        <ele>1078.7365722656</ele>
        <time>2011-06-04T12:23:24Z</time>
      </trkpt>
      <trkpt lat="45.34948" lon="5.81012">
        <ele>1083.0622558594</ele>
        <time>2011-06-04T12:23:32Z</time>
      </trkpt>
      <trkpt lat="45.34951" lon="5.8101">
        <ele>1081.6203613281</ele>
        <time>2011-06-04T12:23:37Z</time>
      </trkpt>
      <trkpt lat="45.34954" lon="5.81009">
        <ele>1082.1010742188</ele>
        <time>2011-06-04T12:23:43Z</time>
      </trkpt>
      <trkpt lat="45.34959" lon="5.81011">
        <ele>1082.5817871094</ele>
        <time>2011-06-04T12:23:49Z</time>
      </trkpt>
      <trkpt lat="45.34961" lon="5.8101">
        <ele>1083.0622558594</ele>
        <time>2011-06-04T12:23:54Z</time>
      </trkpt>
      <trkpt lat="45.34966" lon="5.81009">
        <ele>1084.9853515625</ele>
        <time>2011-06-04T12:24:01Z</time>
      </trkpt>
      <trkpt lat="45.34973" lon="5.81012">
        <ele>1083.54296875</ele>
        <time>2011-06-04T12:24:10Z</time>
      </trkpt>
      <trkpt lat="45.34975" lon="5.81016">
        <ele>1084.0239257812</ele>
        <time>2011-06-04T12:24:16Z</time>
      </trkpt>
      <trkpt lat="45.34978" lon="5.81014">
        <ele>1085.9465332031</ele>
        <time>2011-06-04T12:24:21Z</time>
      </trkpt>
      <trkpt lat="45.34981" lon="5.81015">
        <ele>1087.869140625</ele>
        <time>2011-06-04T12:24:25Z</time>
      </trkpt>
      <trkpt lat="45.34986" lon="5.81018">
        <ele>1084.5046386719</ele>
        <time>2011-06-04T12:24:32Z</time>
      </trkpt>
      <trkpt lat="45.34989" lon="5.81016">
        <ele>1084.5046386719</ele>
        <time>2011-06-04T12:24:35Z</time>
      </trkpt>
      <trkpt lat="45.34991" lon="5.81016">
        <ele>1089.7917480469</ele>
        <time>2011-06-04T12:24:41Z</time>
      </trkpt>
      <trkpt lat="45.34991" lon="5.81015">
        <ele>1096.0402832031</ele>
        <time>2011-06-04T12:24:45Z</time>
      </trkpt>
      <trkpt lat="45.34992" lon="5.81014">
        <ele>1099.8854980469</ele>
        <time>2011-06-04T12:24:48Z</time>
      </trkpt>
      <trkpt lat="45.34992" lon="5.81014">
        <ele>1100.8469238281</ele>
        <time>2011-06-04T12:24:49Z</time>
      </trkpt>
      <trkpt lat="45.34992" lon="5.81013">
        <ele>1108.0568847656</ele>
        <time>2011-06-04T12:24:55Z</time>
      </trkpt>
      <trkpt lat="45.34997" lon="5.81015">
        <ele>1105.6535644531</ele>
        <time>2011-06-04T12:25:02Z</time>
      </trkpt>
      <trkpt lat="45.35003" lon="5.81016">
        <ele>1104.2116699219</ele>
        <time>2011-06-04T12:25:09Z</time>
      </trkpt>
      <trkpt lat="45.35004" lon="5.81016">
        <ele>1105.6535644531</ele>
        <time>2011-06-04T12:25:13Z</time>
      </trkpt>
      <trkpt lat="45.35008" lon="5.81016">
        <ele>1106.1340332031</ele>
        <time>2011-06-04T12:25:17Z</time>
      </trkpt>
      <trkpt lat="45.3501" lon="5.81016">
        <ele>1107.576171875</ele>
        <time>2011-06-04T12:25:21Z</time>
      </trkpt>
      <trkpt lat="45.35012" lon="5.81013">
        <ele>1110.9406738281</ele>
        <time>2011-06-04T12:25:25Z</time>
      </trkpt>
      <trkpt lat="45.35014" lon="5.81019">
        <ele>1111.4213867188</ele>
        <time>2011-06-04T12:25:30Z</time>
      </trkpt>
      <trkpt lat="45.35014" lon="5.81019">
        <ele>1110.9406738281</ele>
        <time>2011-06-04T12:25:31Z</time>
      </trkpt>
      <trkpt lat="45.35015" lon="5.81019">
        <ele>1111.4213867188</ele>
        <time>2011-06-04T12:25:32Z</time>
      </trkpt>
      <trkpt lat="45.3502" lon="5.8102">
        <ele>1114.3051757812</ele>
        <time>2011-06-04T12:25:41Z</time>
      </trkpt>
      <trkpt lat="45.35023" lon="5.81022">
        <ele>1119.1120605469</ele>
        <time>2011-06-04T12:25:50Z</time>
      </trkpt>
      <trkpt lat="45.35028" lon="5.81023">
        <ele>1118.6313476562</ele>
        <time>2011-06-04T12:25:55Z</time>
      </trkpt>
      <trkpt lat="45.35031" lon="5.81024">
        <ele>1119.1120605469</ele>
        <time>2011-06-04T12:25:59Z</time>
      </trkpt>
      <trkpt lat="45.35035" lon="5.81025">
        <ele>1120.5539550781</ele>
        <time>2011-06-04T12:26:03Z</time>
      </trkpt>
      <trkpt lat="45.35041" lon="5.81027">
        <ele>1120.5539550781</ele>
        <time>2011-06-04T12:26:08Z</time>
      </trkpt>
      <trkpt lat="45.35049" lon="5.81027">
        <ele>1119.1120605469</ele>
        <time>2011-06-04T12:26:14Z</time>
      </trkpt>
      <trkpt lat="45.35053" lon="5.8103">
        <ele>1121.0346679688</ele>
        <time>2011-06-04T12:26:20Z</time>
      </trkpt>
      <trkpt lat="45.35056" lon="5.81032">
        <ele>1126.8024902344</ele>
        <time>2011-06-04T12:26:27Z</time>
      </trkpt>
      <trkpt lat="45.35061" lon="5.81032">
        <ele>1128.7250976562</ele>
        <time>2011-06-04T12:26:32Z</time>
      </trkpt>
      <trkpt lat="45.35066" lon="5.81034">
        <ele>1129.2055664062</ele>
        <time>2011-06-04T12:26:41Z</time>
      </trkpt>
      <trkpt lat="45.3507" lon="5.81036">
        <ele>1131.1284179688</ele>
        <time>2011-06-04T12:26:46Z</time>
      </trkpt>
      <trkpt lat="45.35073" lon="5.81036">
        <ele>1133.5317382812</ele>
        <time>2011-06-04T12:26:52Z</time>
      </trkpt>
      <trkpt lat="45.35075" lon="5.81035">
        <ele>1135.9350585938</ele>
        <time>2011-06-04T12:26:58Z</time>
      </trkpt>
      <trkpt lat="45.35094" lon="5.81038">
        <ele>1146.5095214844</ele>
        <time>2011-06-04T12:27:30Z</time>
      </trkpt>
      <trkpt lat="45.35096" lon="5.81038">
        <ele>1150.8354492188</ele>
        <time>2011-06-04T12:27:38Z</time>
      </trkpt>
      <trkpt lat="45.35101" lon="5.8104">
        <ele>1152.27734375</ele>
        <time>2011-06-04T12:27:44Z</time>
      </trkpt>
      <trkpt lat="45.35109" lon="5.81042">
        <ele>1149.3935546875</ele>
        <time>2011-06-04T12:27:54Z</time>
      </trkpt>
      <trkpt lat="45.35113" lon="5.8104">
        <ele>1148.9128417969</ele>
        <time>2011-06-04T12:27:58Z</time>
      </trkpt>
      <trkpt lat="45.35117" lon="5.81037">
        <ele>1150.3549804688</ele>
        <time>2011-06-04T12:28:04Z</time>
      </trkpt>
      <trkpt lat="45.35122" lon="5.81034">
        <ele>1154.2001953125</ele>
        <time>2011-06-04T12:28:12Z</time>
      </trkpt>
      <trkpt lat="45.35125" lon="5.81028">
        <ele>1158.5258789062</ele>
        <time>2011-06-04T12:28:17Z</time>
      </trkpt>
      <trkpt lat="45.35131" lon="5.81029">
        <ele>1159.4873046875</ele>
        <time>2011-06-04T12:28:24Z</time>
      </trkpt>
      <trkpt lat="45.35136" lon="5.8103">
        <ele>1161.890625</ele>
        <time>2011-06-04T12:28:33Z</time>
      </trkpt>
      <trkpt lat="45.35139" lon="5.81032">
        <ele>1165.7360839844</ele>
        <time>2011-06-04T12:28:40Z</time>
      </trkpt>
      <trkpt lat="45.35144" lon="5.81033">
        <ele>1168.1391601562</ele>
        <time>2011-06-04T12:28:46Z</time>
      </trkpt>
      <trkpt lat="45.35148" lon="5.81035">
        <ele>1167.1779785156</ele>
        <time>2011-06-04T12:28:50Z</time>
      </trkpt>
      <trkpt lat="45.35153" lon="5.81037">
        <ele>1167.1779785156</ele>
        <time>2011-06-04T12:28:59Z</time>
      </trkpt>
      <trkpt lat="45.35158" lon="5.8104">
        <ele>1167.1779785156</ele>
        <time>2011-06-04T12:29:05Z</time>
      </trkpt>
      <trkpt lat="45.3516" lon="5.81039">
        <ele>1168.6198730469</ele>
        <time>2011-06-04T12:29:10Z</time>
      </trkpt>
      <trkpt lat="45.35162" lon="5.81038">
        <ele>1171.984375</ele>
        <time>2011-06-04T12:29:17Z</time>
      </trkpt>
      <trkpt lat="45.35166" lon="5.81038">
        <ele>1175.8295898438</ele>
        <time>2011-06-04T12:29:22Z</time>
      </trkpt>
      <trkpt lat="45.3517" lon="5.81038">
        <ele>1175.8295898438</ele>
        <time>2011-06-04T12:29:27Z</time>
      </trkpt>
      <trkpt lat="45.35175" lon="5.81041">
        <ele>1175.8295898438</ele>
        <time>2011-06-04T12:29:32Z</time>
      </trkpt>
      <trkpt lat="45.35176" lon="5.81041">
        <ele>1175.8295898438</ele>
        <time>2011-06-04T12:29:33Z</time>
      </trkpt>
      <trkpt lat="45.35182" lon="5.81043">
        <ele>1173.4265136719</ele>
        <time>2011-06-04T12:29:39Z</time>
      </trkpt>
      <trkpt lat="45.35186" lon="5.81044">
        <ele>1174.3876953125</ele>
        <time>2011-06-04T12:29:44Z</time>
      </trkpt>
      <trkpt lat="45.35191" lon="5.81046">
        <ele>1174.3876953125</ele>
        <time>2011-06-04T12:29:51Z</time>
      </trkpt>
      <trkpt lat="45.35196" lon="5.81049">
        <ele>1174.3876953125</ele>
        <time>2011-06-04T12:29:57Z</time>
      </trkpt>
      <trkpt lat="45.35199" lon="5.81049">
        <ele>1175.8295898438</ele>
        <time>2011-06-04T12:30:02Z</time>
      </trkpt>
      <trkpt lat="45.35204" lon="5.81048">
        <ele>1177.7521972656</ele>
        <time>2011-06-04T12:30:07Z</time>
      </trkpt>
      <trkpt lat="45.35208" lon="5.81045">
        <ele>1179.6748046875</ele>
        <time>2011-06-04T12:30:12Z</time>
      </trkpt>
      <trkpt lat="45.3521" lon="5.81041">
        <ele>1181.1171875</ele>
        <time>2011-06-04T12:30:17Z</time>
      </trkpt>
      <trkpt lat="45.35213" lon="5.8104">
        <ele>1182.0783691406</ele>
        <time>2011-06-04T12:30:21Z</time>
      </trkpt>
      <trkpt lat="45.35217" lon="5.81039">
        <ele>1184.0009765625</ele>
        <time>2011-06-04T12:30:26Z</time>
      </trkpt>
      <trkpt lat="45.35224" lon="5.81036">
        <ele>1185.4428710938</ele>
        <time>2011-06-04T12:30:34Z</time>
      </trkpt>
      <trkpt lat="45.35228" lon="5.81037">
        <ele>1185.9235839844</ele>
        <time>2011-06-04T12:30:39Z</time>
      </trkpt>
      <trkpt lat="45.3523" lon="5.81035">
        <ele>1187.3654785156</ele>
        <time>2011-06-04T12:30:44Z</time>
      </trkpt>
      <trkpt lat="45.35231" lon="5.81033">
        <ele>1190.7299804688</ele>
        <time>2011-06-04T12:30:49Z</time>
      </trkpt>
      <trkpt lat="45.35236" lon="5.81032">
        <ele>1193.6140136719</ele>
        <time>2011-06-04T12:30:55Z</time>
      </trkpt>
      <trkpt lat="45.35242" lon="5.81034">
        <ele>1193.1333007812</ele>
        <time>2011-06-04T12:30:59Z</time>
      </trkpt>
      <trkpt lat="45.35245" lon="5.81038">
        <ele>1192.6528320312</ele>
        <time>2011-06-04T12:31:03Z</time>
      </trkpt>
      <trkpt lat="45.35249" lon="5.8104">
        <ele>1194.5751953125</ele>
        <time>2011-06-04T12:31:11Z</time>
      </trkpt>
      <trkpt lat="45.35253" lon="5.81045">
        <ele>1195.0559082031</ele>
        <time>2011-06-04T12:31:18Z</time>
      </trkpt>
      <trkpt lat="45.35254" lon="5.81046">
        <ele>1195.0559082031</ele>
        <time>2011-06-04T12:31:19Z</time>
      </trkpt>
      <trkpt lat="45.35263" lon="5.81055">
        <ele>1192.6528320312</ele>
        <time>2011-06-04T12:31:26Z</time>
      </trkpt>
      <trkpt lat="45.35267" lon="5.8106">
        <ele>1191.69140625</ele>
        <time>2011-06-04T12:31:28Z</time>
      </trkpt>
      <trkpt lat="45.35269" lon="5.81062">
        <ele>1191.2106933594</ele>
        <time>2011-06-04T12:31:29Z</time>
      </trkpt>
      <trkpt lat="45.35271" lon="5.81065">
        <ele>1191.2106933594</ele>
        <time>2011-06-04T12:31:30Z</time>
      </trkpt>
      <trkpt lat="45.35273" lon="5.81067">
        <ele>1190.7299804688</ele>
        <time>2011-06-04T12:31:31Z</time>
      </trkpt>
      <trkpt lat="45.35275" lon="5.8107">
        <ele>1189.7687988281</ele>
        <time>2011-06-04T12:31:32Z</time>
      </trkpt>
      <trkpt lat="45.35277" lon="5.81072">
        <ele>1188.8076171875</ele>
        <time>2011-06-04T12:31:33Z</time>
      </trkpt>
      <trkpt lat="45.35279" lon="5.81074">
        <ele>1187.8461914062</ele>
        <time>2011-06-04T12:31:34Z</time>
      </trkpt>
      <trkpt lat="45.35285" lon="5.81081">
        <ele>1187.8461914062</ele>
        <time>2011-06-04T12:31:37Z</time>
      </trkpt>
      <trkpt lat="45.35294" lon="5.81091">
        <ele>1185.9235839844</ele>
        <time>2011-06-04T12:31:42Z</time>
      </trkpt>
      <trkpt lat="45.35305" lon="5.81109">
        <ele>1184.4816894531</ele>
        <time>2011-06-04T12:31:49Z</time>
      </trkpt>
      <trkpt lat="45.35312" lon="5.81117">
        <ele>1184.0009765625</ele>
        <time>2011-06-04T12:31:52Z</time>
      </trkpt>
      <trkpt lat="45.35327" lon="5.81129">
        <ele>1184.4816894531</ele>
        <time>2011-06-04T12:31:57Z</time>
      </trkpt>
      <trkpt lat="45.35342" lon="5.81149">
        <ele>1185.4428710938</ele>
        <time>2011-06-04T12:32:03Z</time>
      </trkpt>
      <trkpt lat="45.3535" lon="5.81171">
        <ele>1184.0009765625</ele>
        <time>2011-06-04T12:32:09Z</time>
      </trkpt>
      <trkpt lat="45.35357" lon="5.81192">
        <ele>1187.3654785156</ele>
        <time>2011-06-04T12:32:14Z</time>
      </trkpt>
      <trkpt lat="45.35361" lon="5.81211">
        <ele>1186.404296875</ele>
        <time>2011-06-04T12:32:19Z</time>
      </trkpt>
      <trkpt lat="45.35362" lon="5.81215">
        <ele>1185.9235839844</ele>
        <time>2011-06-04T12:32:20Z</time>
      </trkpt>
      <trkpt lat="45.35365" lon="5.81236">
        <ele>1182.0783691406</ele>
        <time>2011-06-04T12:32:25Z</time>
      </trkpt>
      <trkpt lat="45.35358" lon="5.81246">
        <ele>1179.1940917969</ele>
        <time>2011-06-04T12:32:28Z</time>
      </trkpt>
      <trkpt lat="45.35349" lon="5.81244">
        <ele>1176.3103027344</ele>
        <time>2011-06-04T12:32:31Z</time>
      </trkpt>
      <trkpt lat="45.35343" lon="5.81239">
        <ele>1174.3876953125</ele>
        <time>2011-06-04T12:32:33Z</time>
      </trkpt>
      <trkpt lat="45.35332" lon="5.81226">
        <ele>1169.1005859375</ele>
        <time>2011-06-04T12:32:38Z</time>
      </trkpt>
      <trkpt lat="45.35319" lon="5.81214">
        <ele>1164.2939453125</ele>
        <time>2011-06-04T12:32:43Z</time>
      </trkpt>
      <trkpt lat="45.35304" lon="5.81204">
        <ele>1159.0065917969</ele>
        <time>2011-06-04T12:32:48Z</time>
      </trkpt>
      <trkpt lat="45.35294" lon="5.81193">
        <ele>1156.1225585938</ele>
        <time>2011-06-04T12:32:52Z</time>
      </trkpt>
      <trkpt lat="45.35283" lon="5.81183">
        <ele>1155.1613769531</ele>
        <time>2011-06-04T12:32:56Z</time>
      </trkpt>
      <trkpt lat="45.35269" lon="5.81173">
        <ele>1153.7194824219</ele>
        <time>2011-06-04T12:33:01Z</time>
      </trkpt>
      <trkpt lat="45.35257" lon="5.81165">
        <ele>1152.7580566406</ele>
        <time>2011-06-04T12:33:06Z</time>
      </trkpt>
      <trkpt lat="45.35244" lon="5.8116">
        <ele>1148.9128417969</ele>
        <time>2011-06-04T12:33:11Z</time>
      </trkpt>
      <trkpt lat="45.35227" lon="5.81153">
        <ele>1144.1062011719</ele>
        <time>2011-06-04T12:33:17Z</time>
      </trkpt>
      <trkpt lat="45.35216" lon="5.8115">
        <ele>1143.1447753906</ele>
        <time>2011-06-04T12:33:21Z</time>
      </trkpt>
      <trkpt lat="45.35202" lon="5.81146">
        <ele>1140.7414550781</ele>
        <time>2011-06-04T12:33:26Z</time>
      </trkpt>
      <trkpt lat="45.35179" lon="5.81146">
        <ele>1138.8190917969</ele>
        <time>2011-06-04T12:33:34Z</time>
      </trkpt>
      <trkpt lat="45.3516" lon="5.81144">
        <ele>1137.8576660156</ele>
        <time>2011-06-04T12:33:40Z</time>
      </trkpt>
      <trkpt lat="45.35148" lon="5.81141">
        <ele>1135.9350585938</ele>
        <time>2011-06-04T12:33:44Z</time>
      </trkpt>
      <trkpt lat="45.35142" lon="5.81141">
        <ele>1134.9738769531</ele>
        <time>2011-06-04T12:33:46Z</time>
      </trkpt>
      <trkpt lat="45.35136" lon="5.81152">
        <ele>1134.4931640625</ele>
        <time>2011-06-04T12:33:50Z</time>
      </trkpt>
      <trkpt lat="45.35138" lon="5.8116">
        <ele>1135.9350585938</ele>
        <time>2011-06-04T12:33:52Z</time>
      </trkpt>
      <trkpt lat="45.35147" lon="5.81171">
        <ele>1136.8962402344</ele>
        <time>2011-06-04T12:33:57Z</time>
      </trkpt>
      <trkpt lat="45.3516" lon="5.81179">
        <ele>1134.9738769531</ele>
        <time>2011-06-04T12:34:01Z</time>
      </trkpt>
      <trkpt lat="45.35172" lon="5.8119">
        <ele>1135.4543457031</ele>
        <time>2011-06-04T12:34:05Z</time>
      </trkpt>
      <trkpt lat="45.35184" lon="5.81211">
        <ele>1135.4543457031</ele>
        <time>2011-06-04T12:34:11Z</time>
      </trkpt>
      <trkpt lat="45.35195" lon="5.81228">
        <ele>1134.9738769531</ele>
        <time>2011-06-04T12:34:16Z</time>
      </trkpt>
      <trkpt lat="45.35206" lon="5.81241">
        <ele>1137.8576660156</ele>
        <time>2011-06-04T12:34:20Z</time>
      </trkpt>
      <trkpt lat="45.35215" lon="5.81257">
        <ele>1133.5317382812</ele>
        <time>2011-06-04T12:34:25Z</time>
      </trkpt>
      <trkpt lat="45.35221" lon="5.81279">
        <ele>1131.6088867188</ele>
        <time>2011-06-04T12:34:30Z</time>
      </trkpt>
      <trkpt lat="45.35226" lon="5.81296">
        <ele>1131.6088867188</ele>
        <time>2011-06-04T12:34:34Z</time>
      </trkpt>
      <trkpt lat="45.35235" lon="5.81313">
        <ele>1129.2055664062</ele>
        <time>2011-06-04T12:34:39Z</time>
      </trkpt>
      <trkpt lat="45.35247" lon="5.81317">
        <ele>1126.8024902344</ele>
        <time>2011-06-04T12:34:44Z</time>
      </trkpt>
      <trkpt lat="45.35259" lon="5.81322">
        <ele>1124.3991699219</ele>
        <time>2011-06-04T12:34:48Z</time>
      </trkpt>
      <trkpt lat="45.35269" lon="5.81331">
        <ele>1121.9958496094</ele>
        <time>2011-06-04T12:34:52Z</time>
      </trkpt>
      <trkpt lat="45.35281" lon="5.81348">
        <ele>1121.9958496094</ele>
        <time>2011-06-04T12:34:57Z</time>
      </trkpt>
      <trkpt lat="45.35288" lon="5.81367">
        <ele>1123.4379882812</ele>
        <time>2011-06-04T12:35:02Z</time>
      </trkpt>
      <trkpt lat="45.35291" lon="5.81385">
        <ele>1122.4765625</ele>
        <time>2011-06-04T12:35:07Z</time>
      </trkpt>
      <trkpt lat="45.35298" lon="5.81398">
        <ele>1120.5539550781</ele>
        <time>2011-06-04T12:35:11Z</time>
      </trkpt>
      <trkpt lat="45.35304" lon="5.81413">
        <ele>1122.4765625</ele>
        <time>2011-06-04T12:35:16Z</time>
      </trkpt>
      <trkpt lat="45.35306" lon="5.81416">
        <ele>1122.4765625</ele>
        <time>2011-06-04T12:35:17Z</time>
      </trkpt>
      <trkpt lat="45.35316" lon="5.81425">
        <ele>1122.9572753906</ele>
        <time>2011-06-04T12:35:22Z</time>
      </trkpt>
      <trkpt lat="45.35328" lon="5.81435">
        <ele>1126.8024902344</ele>
        <time>2011-06-04T12:35:26Z</time>
      </trkpt>
      <trkpt lat="45.35342" lon="5.81446">
        <ele>1125.8410644531</ele>
        <time>2011-06-04T12:35:31Z</time>
      </trkpt>
      <trkpt lat="45.35357" lon="5.81459">
        <ele>1130.1669921875</ele>
        <time>2011-06-04T12:35:35Z</time>
      </trkpt>
      <trkpt lat="45.35365" lon="5.81476">
        <ele>1127.283203125</ele>
        <time>2011-06-04T12:35:40Z</time>
      </trkpt>
      <trkpt lat="45.35372" lon="5.81494">
        <ele>1127.763671875</ele>
        <time>2011-06-04T12:35:45Z</time>
      </trkpt>
      <trkpt lat="45.35381" lon="5.81513">
        <ele>1124.3991699219</ele>
        <time>2011-06-04T12:35:50Z</time>
      </trkpt>
      <trkpt lat="45.35389" lon="5.81535">
        <ele>1124.3991699219</ele>
        <time>2011-06-04T12:35:56Z</time>
      </trkpt>
      <trkpt lat="45.35392" lon="5.81551">
        <ele>1121.0346679688</ele>
        <time>2011-06-04T12:36:00Z</time>
      </trkpt>
      <trkpt lat="45.35392" lon="5.81566">
        <ele>1117.189453125</ele>
        <time>2011-06-04T12:36:04Z</time>
      </trkpt>
      <trkpt lat="45.35393" lon="5.81588">
        <ele>1112.86328125</ele>
        <time>2011-06-04T12:36:10Z</time>
      </trkpt>
      <trkpt lat="45.35393" lon="5.81606">
        <ele>1106.6147460938</ele>
        <time>2011-06-04T12:36:16Z</time>
      </trkpt>
      <trkpt lat="45.35395" lon="5.81624">
        <ele>1104.6921386719</ele>
        <time>2011-06-04T12:36:21Z</time>
      </trkpt>
      <trkpt lat="45.35399" lon="5.81641">
        <ele>1104.6921386719</ele>
        <time>2011-06-04T12:36:26Z</time>
      </trkpt>
      <trkpt lat="45.35403" lon="5.8165">
        <ele>1104.6921386719</ele>
        <time>2011-06-04T12:36:29Z</time>
      </trkpt>
      <trkpt lat="45.35418" lon="5.81663">
        <ele>1107.576171875</ele>
        <time>2011-06-04T12:36:35Z</time>
      </trkpt>
      <trkpt lat="45.35427" lon="5.81673">
        <ele>1111.4213867188</ele>
        <time>2011-06-04T12:36:39Z</time>
      </trkpt>
      <trkpt lat="45.35436" lon="5.81687">
        <ele>1114.3051757812</ele>
        <time>2011-06-04T12:36:44Z</time>
      </trkpt>
      <trkpt lat="45.35444" lon="5.81704">
        <ele>1114.3051757812</ele>
        <time>2011-06-04T12:36:50Z</time>
      </trkpt>
      <trkpt lat="45.35448" lon="5.81713">
        <ele>1115.2666015625</ele>
        <time>2011-06-04T12:36:53Z</time>
      </trkpt>
      <trkpt lat="45.35458" lon="5.8173">
        <ele>1114.3051757812</ele>
        <time>2011-06-04T12:36:59Z</time>
      </trkpt>
      <trkpt lat="45.35464" lon="5.81746">
        <ele>1110.9406738281</ele>
        <time>2011-06-04T12:37:04Z</time>
      </trkpt>
      <trkpt lat="45.3547" lon="5.81761">
        <ele>1109.4987792969</ele>
        <time>2011-06-04T12:37:08Z</time>
      </trkpt>
      <trkpt lat="45.3548" lon="5.81777">
        <ele>1108.0568847656</ele>
        <time>2011-06-04T12:37:13Z</time>
      </trkpt>
      <trkpt lat="45.35491" lon="5.81793">
        <ele>1107.576171875</ele>
        <time>2011-06-04T12:37:19Z</time>
      </trkpt>
      <trkpt lat="45.35502" lon="5.81801">
        <ele>1109.4987792969</ele>
        <time>2011-06-04T12:37:23Z</time>
      </trkpt>
      <trkpt lat="45.35515" lon="5.81816">
        <ele>1108.5373535156</ele>
        <time>2011-06-04T12:37:29Z</time>
      </trkpt>
      <trkpt lat="45.35526" lon="5.81829">
        <ele>1106.1340332031</ele>
        <time>2011-06-04T12:37:34Z</time>
      </trkpt>
      <trkpt lat="45.35537" lon="5.81842">
        <ele>1103.7309570312</ele>
        <time>2011-06-04T12:37:39Z</time>
      </trkpt>
      <trkpt lat="45.3555" lon="5.81852">
        <ele>1101.3276367188</ele>
        <time>2011-06-04T12:37:44Z</time>
      </trkpt>
      <trkpt lat="45.35566" lon="5.81856">
        <ele>1099.8854980469</ele>
        <time>2011-06-04T12:37:50Z</time>
      </trkpt>
      <trkpt lat="45.35578" lon="5.81867">
        <ele>1098.443359375</ele>
        <time>2011-06-04T12:37:55Z</time>
      </trkpt>
      <trkpt lat="45.35588" lon="5.8188">
        <ele>1102.2888183594</ele>
        <time>2011-06-04T12:37:59Z</time>
      </trkpt>
      <trkpt lat="45.35603" lon="5.81903">
        <ele>1109.9792480469</ele>
        <time>2011-06-04T12:38:05Z</time>
      </trkpt>
      <trkpt lat="45.35615" lon="5.81919">
        <ele>1110.9406738281</ele>
        <time>2011-06-04T12:38:10Z</time>
      </trkpt>
      <trkpt lat="45.35622" lon="5.81934">
        <ele>1111.4213867188</ele>
        <time>2011-06-04T12:38:14Z</time>
      </trkpt>
      <trkpt lat="45.35627" lon="5.81952">
        <ele>1105.6535644531</ele>
        <time>2011-06-04T12:38:19Z</time>
      </trkpt>
      <trkpt lat="45.35631" lon="5.81964">
        <ele>1102.2888183594</ele>
        <time>2011-06-04T12:38:22Z</time>
      </trkpt>
      <trkpt lat="45.35634" lon="5.81982">
        <ele>1093.6369628906</ele>
        <time>2011-06-04T12:38:27Z</time>
      </trkpt>
      <trkpt lat="45.35637" lon="5.81996">
        <ele>1090.7529296875</ele>
        <time>2011-06-04T12:38:31Z</time>
      </trkpt>
      <trkpt lat="45.35645" lon="5.82012">
        <ele>1086.4272460938</ele>
        <time>2011-06-04T12:38:36Z</time>
      </trkpt>
      <trkpt lat="45.35659" lon="5.82028">
        <ele>1084.5046386719</ele>
        <time>2011-06-04T12:38:41Z</time>
      </trkpt>
      <trkpt lat="45.35664" lon="5.82044">
        <ele>1083.0622558594</ele>
        <time>2011-06-04T12:38:45Z</time>
      </trkpt>
      <trkpt lat="45.35659" lon="5.82063">
        <ele>1082.1010742188</ele>
        <time>2011-06-04T12:38:50Z</time>
      </trkpt>
      <trkpt lat="45.35655" lon="5.82083">
        <ele>1080.1784667969</ele>
        <time>2011-06-04T12:38:55Z</time>
      </trkpt>
      <trkpt lat="45.35654" lon="5.82099">
        <ele>1077.2946777344</ele>
        <time>2011-06-04T12:38:59Z</time>
      </trkpt>
      <trkpt lat="45.35652" lon="5.82119">
        <ele>1076.8139648438</ele>
        <time>2011-06-04T12:39:04Z</time>
      </trkpt>
      <trkpt lat="45.35652" lon="5.82137">
        <ele>1075.8525390625</ele>
        <time>2011-06-04T12:39:08Z</time>
      </trkpt>
      <trkpt lat="45.35651" lon="5.82159">
        <ele>1074.4106445312</ele>
        <time>2011-06-04T12:39:13Z</time>
      </trkpt>
      <trkpt lat="45.35651" lon="5.8218">
        <ele>1071.0461425781</ele>
        <time>2011-06-04T12:39:18Z</time>
      </trkpt>
      <trkpt lat="45.35656" lon="5.82203">
        <ele>1068.6428222656</ele>
        <time>2011-06-04T12:39:23Z</time>
      </trkpt>
      <trkpt lat="45.35663" lon="5.82219">
        <ele>1067.2006835938</ele>
        <time>2011-06-04T12:39:27Z</time>
      </trkpt>
      <trkpt lat="45.35674" lon="5.82229">
        <ele>1065.2780761719</ele>
        <time>2011-06-04T12:39:32Z</time>
      </trkpt>
      <trkpt lat="45.35685" lon="5.82238">
        <ele>1064.7973632812</ele>
        <time>2011-06-04T12:39:36Z</time>
      </trkpt>
      <trkpt lat="45.35697" lon="5.82251">
        <ele>1065.7587890625</ele>
        <time>2011-06-04T12:39:40Z</time>
      </trkpt>
      <trkpt lat="45.3571" lon="5.82273">
        <ele>1071.5266113281</ele>
        <time>2011-06-04T12:39:45Z</time>
      </trkpt>
      <trkpt lat="45.35715" lon="5.82292">
        <ele>1073.4494628906</ele>
        <time>2011-06-04T12:39:49Z</time>
      </trkpt>
      <trkpt lat="45.35715" lon="5.82318">
        <ele>1070.5654296875</ele>
        <time>2011-06-04T12:39:55Z</time>
      </trkpt>
      <trkpt lat="45.35716" lon="5.82334">
        <ele>1070.0847167969</ele>
        <time>2011-06-04T12:39:59Z</time>
      </trkpt>
      <trkpt lat="45.3572" lon="5.8236">
        <ele>1064.7973632812</ele>
        <time>2011-06-04T12:40:05Z</time>
      </trkpt>
      <trkpt lat="45.35727" lon="5.82375">
        <ele>1062.3940429688</ele>
        <time>2011-06-04T12:40:09Z</time>
      </trkpt>
      <trkpt lat="45.35734" lon="5.82395">
        <ele>1058.068359375</ele>
        <time>2011-06-04T12:40:14Z</time>
      </trkpt>
      <trkpt lat="45.35743" lon="5.82414">
        <ele>1055.1843261719</ele>
        <time>2011-06-04T12:40:19Z</time>
      </trkpt>
      <trkpt lat="45.35751" lon="5.82433">
        <ele>1054.7036132812</ele>
        <time>2011-06-04T12:40:24Z</time>
      </trkpt>
      <trkpt lat="45.35757" lon="5.82453">
        <ele>1053.26171875</ele>
        <time>2011-06-04T12:40:29Z</time>
      </trkpt>
      <trkpt lat="45.35769" lon="5.82468">
        <ele>1057.5876464844</ele>
        <time>2011-06-04T12:40:33Z</time>
      </trkpt>
      <trkpt lat="45.35774" lon="5.82475">
        <ele>1058.548828125</ele>
        <time>2011-06-04T12:40:35Z</time>
      </trkpt>
      <trkpt lat="45.35782" lon="5.825">
        <ele>1057.1069335938</ele>
        <time>2011-06-04T12:40:41Z</time>
      </trkpt>
      <trkpt lat="45.35781" lon="5.82521">
        <ele>1047.9743652344</ele>
        <time>2011-06-04T12:40:46Z</time>
      </trkpt>
      <trkpt lat="45.35784" lon="5.82537">
        <ele>1043.1677246094</ele>
        <time>2011-06-04T12:40:50Z</time>
      </trkpt>
      <trkpt lat="45.35792" lon="5.8255">
        <ele>1041.2451171875</ele>
        <time>2011-06-04T12:40:54Z</time>
      </trkpt>
      <trkpt lat="45.35798" lon="5.82566">
        <ele>1041.2451171875</ele>
        <time>2011-06-04T12:40:58Z</time>
      </trkpt>
      <trkpt lat="45.35802" lon="5.8258">
        <ele>1035.4770507812</ele>
        <time>2011-06-04T12:41:03Z</time>
      </trkpt>
      <trkpt lat="45.35804" lon="5.82582">
        <ele>1034.5158691406</ele>
        <time>2011-06-04T12:41:05Z</time>
      </trkpt>
      <trkpt lat="45.35807" lon="5.82584">
        <ele>1034.03515625</ele>
        <time>2011-06-04T12:41:08Z</time>
      </trkpt>
      <trkpt lat="45.35809" lon="5.82586">
        <ele>1035.9577636719</ele>
        <time>2011-06-04T12:41:10Z</time>
      </trkpt>
      <trkpt lat="45.3581" lon="5.82587">
        <ele>1037.3999023438</ele>
        <time>2011-06-04T12:41:11Z</time>
      </trkpt>
      <trkpt lat="45.35811" lon="5.8259">
        <ele>1037.3999023438</ele>
        <time>2011-06-04T12:41:13Z</time>
      </trkpt>
      <trkpt lat="45.35813" lon="5.82595">
        <ele>1039.3225097656</ele>
        <time>2011-06-04T12:41:16Z</time>
      </trkpt>
      <trkpt lat="45.35817" lon="5.82611">
        <ele>1044.1291503906</ele>
        <time>2011-06-04T12:41:23Z</time>
      </trkpt>
      <trkpt lat="45.35818" lon="5.8262">
        <ele>1044.1291503906</ele>
        <time>2011-06-04T12:41:26Z</time>
      </trkpt>
      <trkpt lat="45.3582" lon="5.82631">
        <ele>1044.1291503906</ele>
        <time>2011-06-04T12:41:31Z</time>
      </trkpt>
      <trkpt lat="45.35823" lon="5.82643">
        <ele>1043.6484375</ele>
        <time>2011-06-04T12:41:36Z</time>
      </trkpt>
      <trkpt lat="45.35825" lon="5.82653">
        <ele>1044.6096191406</ele>
        <time>2011-06-04T12:41:39Z</time>
      </trkpt>
      <trkpt lat="45.35826" lon="5.82656">
        <ele>1043.6484375</ele>
        <time>2011-06-04T12:41:40Z</time>
      </trkpt>
      <trkpt lat="45.35827" lon="5.8266">
        <ele>1044.1291503906</ele>
        <time>2011-06-04T12:41:41Z</time>
      </trkpt>
      <trkpt lat="45.35831" lon="5.8267">
        <ele>1043.6484375</ele>
        <time>2011-06-04T12:41:45Z</time>
      </trkpt>
      <trkpt lat="45.35832" lon="5.82676">
        <ele>1043.1677246094</ele>
        <time>2011-06-04T12:41:48Z</time>
      </trkpt>
      <trkpt lat="45.35838" lon="5.82683">
        <ele>1041.7258300781</ele>
        <time>2011-06-04T12:41:53Z</time>
      </trkpt>
      <trkpt lat="45.35843" lon="5.82692">
        <ele>1042.2065429688</ele>
        <time>2011-06-04T12:41:57Z</time>
      </trkpt>
      <trkpt lat="45.35843" lon="5.82695">
        <ele>1043.1677246094</ele>
        <time>2011-06-04T12:41:58Z</time>
      </trkpt>
      <trkpt lat="45.35847" lon="5.82702">
        <ele>1044.1291503906</ele>
        <time>2011-06-04T12:42:01Z</time>
      </trkpt>
      <trkpt lat="45.35849" lon="5.82705">
        <ele>1045.5710449219</ele>
        <time>2011-06-04T12:42:03Z</time>
      </trkpt>
      <trkpt lat="45.35851" lon="5.82712">
        <ele>1047.0129394531</ele>
        <time>2011-06-04T12:42:07Z</time>
      </trkpt>
      <trkpt lat="45.35858" lon="5.82727">
        <ele>1049.4162597656</ele>
        <time>2011-06-04T12:42:13Z</time>
      </trkpt>
      <trkpt lat="45.35865" lon="5.82742">
        <ele>1050.3776855469</ele>
        <time>2011-06-04T12:42:18Z</time>
      </trkpt>
      <trkpt lat="45.35871" lon="5.82762">
        <ele>1047.4936523438</ele>
        <time>2011-06-04T12:42:24Z</time>
      </trkpt>
      <trkpt lat="45.3587" lon="5.82778">
        <ele>1056.6262207031</ele>
        <time>2011-06-04T12:42:29Z</time>
      </trkpt>
      <trkpt lat="45.35871" lon="5.82784">
        <ele>1059.0295410156</ele>
        <time>2011-06-04T12:42:31Z</time>
      </trkpt>
      <trkpt lat="45.35872" lon="5.82799">
        <ele>1060.9521484375</ele>
        <time>2011-06-04T12:42:37Z</time>
      </trkpt>
      <trkpt lat="45.35873" lon="5.828">
        <ele>1062.3940429688</ele>
        <time>2011-06-04T12:42:38Z</time>
      </trkpt>
      <trkpt lat="45.35877" lon="5.8281">
        <ele>1057.5876464844</ele>
        <time>2011-06-04T12:42:44Z</time>
      </trkpt>
      <trkpt lat="45.35879" lon="5.82814">
        <ele>1054.7036132812</ele>
        <time>2011-06-04T12:42:46Z</time>
      </trkpt>
      <trkpt lat="45.35879" lon="5.82816">
        <ele>1054.7036132812</ele>
        <time>2011-06-04T12:42:47Z</time>
      </trkpt>
      <trkpt lat="45.35879" lon="5.82818">
        <ele>1054.7036132812</ele>
        <time>2011-06-04T12:42:48Z</time>
      </trkpt>
      <trkpt lat="45.35879" lon="5.82828">
        <ele>1055.6650390625</ele>
        <time>2011-06-04T12:42:54Z</time>
      </trkpt>
      <trkpt lat="45.35879" lon="5.82835">
        <ele>1058.548828125</ele>
        <time>2011-06-04T12:42:58Z</time>
      </trkpt>
      <trkpt lat="45.35881" lon="5.82842">
        <ele>1057.1069335938</ele>
        <time>2011-06-04T12:43:01Z</time>
      </trkpt>
      <trkpt lat="45.35879" lon="5.82851">
        <ele>1061.4328613281</ele>
        <time>2011-06-04T12:43:07Z</time>
      </trkpt>
      <trkpt lat="45.35877" lon="5.82855">
        <ele>1062.3940429688</ele>
        <time>2011-06-04T12:43:09Z</time>
      </trkpt>
      <trkpt lat="45.35877" lon="5.82861">
        <ele>1063.8359375</ele>
        <time>2011-06-04T12:43:12Z</time>
      </trkpt>
      <trkpt lat="45.35875" lon="5.8287">
        <ele>1064.7973632812</ele>
        <time>2011-06-04T12:43:19Z</time>
      </trkpt>
      <trkpt lat="45.35881" lon="5.82875">
        <ele>1062.3940429688</ele>
        <time>2011-06-04T12:43:23Z</time>
      </trkpt>
      <trkpt lat="45.35884" lon="5.8288">
        <ele>1062.3940429688</ele>
        <time>2011-06-04T12:43:27Z</time>
      </trkpt>
      <trkpt lat="45.35883" lon="5.82885">
        <ele>1064.7973632812</ele>
        <time>2011-06-04T12:43:31Z</time>
      </trkpt>
      <trkpt lat="45.35886" lon="5.82893">
        <ele>1065.7587890625</ele>
        <time>2011-06-04T12:43:34Z</time>
      </trkpt>
      <trkpt lat="45.35884" lon="5.829">
        <ele>1068.162109375</ele>
        <time>2011-06-04T12:43:38Z</time>
      </trkpt>
      <trkpt lat="45.35879" lon="5.82908">
        <ele>1066.7199707031</ele>
        <time>2011-06-04T12:43:44Z</time>
      </trkpt>
      <trkpt lat="45.35875" lon="5.82915">
        <ele>1067.6811523438</ele>
        <time>2011-06-04T12:43:47Z</time>
      </trkpt>
      <trkpt lat="45.35873" lon="5.8292">
        <ele>1068.162109375</ele>
        <time>2011-06-04T12:43:49Z</time>
      </trkpt>
      <trkpt lat="45.3587" lon="5.82928">
        <ele>1066.7199707031</ele>
        <time>2011-06-04T12:43:53Z</time>
      </trkpt>
      <trkpt lat="45.35865" lon="5.82944">
        <ele>1065.2780761719</ele>
        <time>2011-06-04T12:44:00Z</time>
      </trkpt>
      <trkpt lat="45.35864" lon="5.82946">
        <ele>1065.2780761719</ele>
        <time>2011-06-04T12:44:01Z</time>
      </trkpt>
      <trkpt lat="45.35863" lon="5.82953">
        <ele>1066.2392578125</ele>
        <time>2011-06-04T12:44:04Z</time>
      </trkpt>
      <trkpt lat="45.35863" lon="5.82957">
        <ele>1066.7199707031</ele>
        <time>2011-06-04T12:44:06Z</time>
      </trkpt>
      <trkpt lat="45.35861" lon="5.82961">
        <ele>1064.3166503906</ele>
        <time>2011-06-04T12:44:09Z</time>
      </trkpt>
      <trkpt lat="45.3586" lon="5.82966">
        <ele>1060.9521484375</ele>
        <time>2011-06-04T12:44:13Z</time>
      </trkpt>
      <trkpt lat="45.35859" lon="5.82973">
        <ele>1056.1455078125</ele>
        <time>2011-06-04T12:44:18Z</time>
      </trkpt>
      <trkpt lat="45.35858" lon="5.82977">
        <ele>1055.1843261719</ele>
        <time>2011-06-04T12:44:22Z</time>
      </trkpt>
      <trkpt lat="45.35859" lon="5.82981">
        <ele>1056.6262207031</ele>
        <time>2011-06-04T12:44:25Z</time>
      </trkpt>
      <trkpt lat="45.35865" lon="5.82999">
        <ele>1062.3940429688</ele>
        <time>2011-06-04T12:44:36Z</time>
      </trkpt>
      <trkpt lat="45.35867" lon="5.83008">
        <ele>1065.2780761719</ele>
        <time>2011-06-04T12:44:42Z</time>
      </trkpt>
      <trkpt lat="45.35866" lon="5.83009">
        <ele>1065.7587890625</ele>
        <time>2011-06-04T12:44:43Z</time>
      </trkpt>
      <trkpt lat="45.35867" lon="5.83013">
        <ele>1068.162109375</ele>
        <time>2011-06-04T12:44:48Z</time>
      </trkpt>
      <trkpt lat="45.35864" lon="5.83016">
        <ele>1071.0461425781</ele>
        <time>2011-06-04T12:44:53Z</time>
      </trkpt>
      <trkpt lat="45.35864" lon="5.83022">
        <ele>1075.3718261719</ele>
        <time>2011-06-04T12:45:01Z</time>
      </trkpt>
      <trkpt lat="45.35865" lon="5.83027">
        <ele>1077.7751464844</ele>
        <time>2011-06-04T12:45:07Z</time>
      </trkpt>
      <trkpt lat="45.35867" lon="5.83032">
        <ele>1078.7365722656</ele>
        <time>2011-06-04T12:45:12Z</time>
      </trkpt>
      <trkpt lat="45.35862" lon="5.83037">
        <ele>1082.1010742188</ele>
        <time>2011-06-04T12:45:17Z</time>
      </trkpt>
      <trkpt lat="45.3586" lon="5.8304">
        <ele>1083.54296875</ele>
        <time>2011-06-04T12:45:22Z</time>
      </trkpt>
      <trkpt lat="45.3586" lon="5.83048">
        <ele>1085.9465332031</ele>
        <time>2011-06-04T12:45:28Z</time>
      </trkpt>
      <trkpt lat="45.35859" lon="5.83053">
        <ele>1089.7917480469</ele>
        <time>2011-06-04T12:45:31Z</time>
      </trkpt>
      <trkpt lat="45.35859" lon="5.83054">
        <ele>1091.7143554688</ele>
        <time>2011-06-04T12:45:32Z</time>
      </trkpt>
      <trkpt lat="45.3586" lon="5.83062">
        <ele>1101.3276367188</ele>
        <time>2011-06-04T12:45:38Z</time>
      </trkpt>
      <trkpt lat="45.3586" lon="5.83067">
        <ele>1104.6921386719</ele>
        <time>2011-06-04T12:45:42Z</time>
      </trkpt>
      <trkpt lat="45.3586" lon="5.83071">
        <ele>1106.1340332031</ele>
        <time>2011-06-04T12:45:45Z</time>
      </trkpt>
      <trkpt lat="45.35857" lon="5.83075">
        <ele>1107.0954589844</ele>
        <time>2011-06-04T12:45:50Z</time>
      </trkpt>
      <trkpt lat="45.35857" lon="5.8308">
        <ele>1108.5373535156</ele>
        <time>2011-06-04T12:45:54Z</time>
      </trkpt>
      <trkpt lat="45.35854" lon="5.83085">
        <ele>1102.2888183594</ele>
        <time>2011-06-04T12:45:59Z</time>
      </trkpt>
      <trkpt lat="45.35849" lon="5.83091">
        <ele>1096.5209960938</ele>
        <time>2011-06-04T12:46:05Z</time>
      </trkpt>
      <trkpt lat="45.35848" lon="5.83095">
        <ele>1095.5595703125</ele>
        <time>2011-06-04T12:46:09Z</time>
      </trkpt>
      <trkpt lat="45.35848" lon="5.83101">
        <ele>1095.0788574219</ele>
        <time>2011-06-04T12:46:14Z</time>
      </trkpt>
      <trkpt lat="45.35847" lon="5.83106">
        <ele>1093.15625</ele>
        <time>2011-06-04T12:46:19Z</time>
      </trkpt>
      <trkpt lat="45.35846" lon="5.8311">
        <ele>1094.5981445312</ele>
        <time>2011-06-04T12:46:23Z</time>
      </trkpt>
      <trkpt lat="45.35845" lon="5.83119">
        <ele>1097.962890625</ele>
        <time>2011-06-04T12:46:32Z</time>
      </trkpt>
      <trkpt lat="45.35846" lon="5.83123">
        <ele>1098.9240722656</ele>
        <time>2011-06-04T12:46:36Z</time>
      </trkpt>
      <trkpt lat="45.35846" lon="5.83128">
        <ele>1100.3664550781</ele>
        <time>2011-06-04T12:46:40Z</time>
      </trkpt>
      <trkpt lat="45.35847" lon="5.83135">
        <ele>1099.8854980469</ele>
        <time>2011-06-04T12:46:46Z</time>
      </trkpt>
      <trkpt lat="45.35846" lon="5.8314">
        <ele>1100.3664550781</ele>
        <time>2011-06-04T12:46:50Z</time>
      </trkpt>
      <trkpt lat="45.35845" lon="5.83148">
        <ele>1101.3276367188</ele>
        <time>2011-06-04T12:46:56Z</time>
      </trkpt>
      <trkpt lat="45.35844" lon="5.83155">
        <ele>1103.2502441406</ele>
        <time>2011-06-04T12:47:02Z</time>
      </trkpt>
      <trkpt lat="45.35844" lon="5.8316">
        <ele>1104.2116699219</ele>
        <time>2011-06-04T12:47:05Z</time>
      </trkpt>
      <trkpt lat="45.35844" lon="5.83168">
        <ele>1106.1340332031</ele>
        <time>2011-06-04T12:47:10Z</time>
      </trkpt>
      <trkpt lat="45.35839" lon="5.83182">
        <ele>1109.9792480469</ele>
        <time>2011-06-04T12:47:19Z</time>
      </trkpt>
      <trkpt lat="45.35834" lon="5.83188">
        <ele>1110.9406738281</ele>
        <time>2011-06-04T12:47:24Z</time>
      </trkpt>
      <trkpt lat="45.35829" lon="5.83192">
        <ele>1109.9792480469</ele>
        <time>2011-06-04T12:47:29Z</time>
      </trkpt>
      <trkpt lat="45.35826" lon="5.83194">
        <ele>1109.9792480469</ele>
        <time>2011-06-04T12:47:34Z</time>
      </trkpt>
      <trkpt lat="45.35823" lon="5.83198">
        <ele>1112.86328125</ele>
        <time>2011-06-04T12:47:41Z</time>
      </trkpt>
      <trkpt lat="45.35819" lon="5.83201">
        <ele>1114.3051757812</ele>
        <time>2011-06-04T12:47:47Z</time>
      </trkpt>
      <trkpt lat="45.35817" lon="5.83204">
        <ele>1115.2666015625</ele>
        <time>2011-06-04T12:47:51Z</time>
      </trkpt>
      <trkpt lat="45.35815" lon="5.832">
        <ele>1116.7087402344</ele>
        <time>2011-06-04T12:47:58Z</time>
      </trkpt>
      <trkpt lat="45.35814" lon="5.83196">
        <ele>1116.2280273438</ele>
        <time>2011-06-04T12:48:03Z</time>
      </trkpt>
      <trkpt lat="45.35811" lon="5.83189">
        <ele>1116.7087402344</ele>
        <time>2011-06-04T12:48:09Z</time>
      </trkpt>
      <trkpt lat="45.3581" lon="5.83183">
        <ele>1116.7087402344</ele>
        <time>2011-06-04T12:48:13Z</time>
      </trkpt>
      <trkpt lat="45.3581" lon="5.83182">
        <ele>1117.189453125</ele>
        <time>2011-06-04T12:48:14Z</time>
      </trkpt>
      <trkpt lat="45.35809" lon="5.83173">
        <ele>1116.2280273438</ele>
        <time>2011-06-04T12:48:19Z</time>
      </trkpt>
      <trkpt lat="45.35807" lon="5.83159">
        <ele>1117.189453125</ele>
        <time>2011-06-04T12:48:27Z</time>
      </trkpt>
      <trkpt lat="45.35806" lon="5.83152">
        <ele>1117.669921875</ele>
        <time>2011-06-04T12:48:32Z</time>
      </trkpt>
      <trkpt lat="45.35804" lon="5.83146">
        <ele>1119.1120605469</ele>
        <time>2011-06-04T12:48:37Z</time>
      </trkpt>
      <trkpt lat="45.358" lon="5.83143">
        <ele>1120.0732421875</ele>
        <time>2011-06-04T12:48:42Z</time>
      </trkpt>
      <trkpt lat="45.35798" lon="5.83143">
        <ele>1121.9958496094</ele>
        <time>2011-06-04T12:48:47Z</time>
      </trkpt>
      <trkpt lat="45.35794" lon="5.83142">
        <ele>1124.3991699219</ele>
        <time>2011-06-04T12:48:52Z</time>
      </trkpt>
      <trkpt lat="45.35791" lon="5.8314">
        <ele>1126.3217773438</ele>
        <time>2011-06-04T12:48:57Z</time>
      </trkpt>
      <trkpt lat="45.35786" lon="5.83137">
        <ele>1130.6477050781</ele>
        <time>2011-06-04T12:49:02Z</time>
      </trkpt>
      <trkpt lat="45.35781" lon="5.83137">
        <ele>1132.08984375</ele>
        <time>2011-06-04T12:49:08Z</time>
      </trkpt>
      <trkpt lat="45.35775" lon="5.83134">
        <ele>1132.08984375</ele>
        <time>2011-06-04T12:49:15Z</time>
      </trkpt>
      <trkpt lat="45.35773" lon="5.83133">
        <ele>1131.6088867188</ele>
        <time>2011-06-04T12:49:16Z</time>
      </trkpt>
      <trkpt lat="45.35762" lon="5.8313">
        <ele>1132.5705566406</ele>
        <time>2011-06-04T12:49:26Z</time>
      </trkpt>
      <trkpt lat="45.35761" lon="5.8313">
        <ele>1132.5705566406</ele>
        <time>2011-06-04T12:49:27Z</time>
      </trkpt>
      <trkpt lat="45.35752" lon="5.83133">
        <ele>1133.0510253906</ele>
        <time>2011-06-04T12:49:34Z</time>
      </trkpt>
      <trkpt lat="45.35748" lon="5.83135">
        <ele>1132.5705566406</ele>
        <time>2011-06-04T12:49:37Z</time>
      </trkpt>
      <trkpt lat="45.35745" lon="5.83136">
        <ele>1133.0510253906</ele>
        <time>2011-06-04T12:49:39Z</time>
      </trkpt>
      <trkpt lat="45.35737" lon="5.83138">
        <ele>1134.0124511719</ele>
        <time>2011-06-04T12:49:45Z</time>
      </trkpt>
      <trkpt lat="45.35735" lon="5.83138">
        <ele>1133.5317382812</ele>
        <time>2011-06-04T12:49:46Z</time>
      </trkpt>
      <trkpt lat="45.35727" lon="5.83139">
        <ele>1134.4931640625</ele>
        <time>2011-06-04T12:49:52Z</time>
      </trkpt>
      <trkpt lat="45.35717" lon="5.83141">
        <ele>1141.7028808594</ele>
        <time>2011-06-04T12:50:01Z</time>
      </trkpt>
      <trkpt lat="45.3571" lon="5.83141">
        <ele>1145.5480957031</ele>
        <time>2011-06-04T12:50:06Z</time>
      </trkpt>
      <trkpt lat="45.35706" lon="5.83146">
        <ele>1158.5258789062</ele>
        <time>2011-06-04T12:50:12Z</time>
      </trkpt>
      <trkpt lat="45.35705" lon="5.83147">
        <ele>1160.4484863281</ele>
        <time>2011-06-04T12:50:13Z</time>
      </trkpt>
      <trkpt lat="45.35697" lon="5.83148">
        <ele>1165.2553710938</ele>
        <time>2011-06-04T12:50:19Z</time>
      </trkpt>
      <trkpt lat="45.35688" lon="5.83145">
        <ele>1159.4873046875</ele>
        <time>2011-06-04T12:50:24Z</time>
      </trkpt>
      <trkpt lat="45.35682" lon="5.83145">
        <ele>1158.5258789062</ele>
        <time>2011-06-04T12:50:30Z</time>
      </trkpt>
      <trkpt lat="45.35674" lon="5.83139">
        <ele>1153.7194824219</ele>
        <time>2011-06-04T12:50:36Z</time>
      </trkpt>
      <trkpt lat="45.35673" lon="5.83139">
        <ele>1153.2387695312</ele>
        <time>2011-06-04T12:50:37Z</time>
      </trkpt>
      <trkpt lat="45.35662" lon="5.83127">
        <ele>1150.8354492188</ele>
        <time>2011-06-04T12:50:45Z</time>
      </trkpt>
      <trkpt lat="45.35657" lon="5.83114">
        <ele>1148.9128417969</ele>
        <time>2011-06-04T12:50:52Z</time>
      </trkpt>
      <trkpt lat="45.35652" lon="5.83101">
        <ele>1146.9899902344</ele>
        <time>2011-06-04T12:50:59Z</time>
      </trkpt>
      <trkpt lat="45.35649" lon="5.83089">
        <ele>1150.8354492188</ele>
        <time>2011-06-04T12:51:07Z</time>
      </trkpt>
      <trkpt lat="45.35646" lon="5.83079">
        <ele>1153.7194824219</ele>
        <time>2011-06-04T12:51:13Z</time>
      </trkpt>
      <trkpt lat="45.35643" lon="5.83069">
        <ele>1151.796875</ele>
        <time>2011-06-04T12:51:18Z</time>
      </trkpt>
      <trkpt lat="45.35638" lon="5.83062">
        <ele>1151.796875</ele>
        <time>2011-06-04T12:51:24Z</time>
      </trkpt>
      <trkpt lat="45.35629" lon="5.83057">
        <ele>1153.2387695312</ele>
        <time>2011-06-04T12:51:32Z</time>
      </trkpt>
      <trkpt lat="45.35621" lon="5.83058">
        <ele>1156.1225585938</ele>
        <time>2011-06-04T12:51:38Z</time>
      </trkpt>
      <trkpt lat="45.35612" lon="5.83065">
        <ele>1163.3325195312</ele>
        <time>2011-06-04T12:51:45Z</time>
      </trkpt>
      <trkpt lat="45.35603" lon="5.83068">
        <ele>1168.6198730469</ele>
        <time>2011-06-04T12:51:52Z</time>
      </trkpt>
      <trkpt lat="45.356" lon="5.83071">
        <ele>1171.0231933594</ele>
        <time>2011-06-04T12:51:55Z</time>
      </trkpt>
      <trkpt lat="45.35599" lon="5.83072">
        <ele>1171.0231933594</ele>
        <time>2011-06-04T12:51:56Z</time>
      </trkpt>
      <trkpt lat="45.35592" lon="5.83075">
        <ele>1172.4650878906</ele>
        <time>2011-06-04T12:52:01Z</time>
      </trkpt>
      <trkpt lat="45.3559" lon="5.83077">
        <ele>1173.9069824219</ele>
        <time>2011-06-04T12:52:03Z</time>
      </trkpt>
      <trkpt lat="45.35585" lon="5.83081">
        <ele>1177.2717285156</ele>
        <time>2011-06-04T12:52:08Z</time>
      </trkpt>
      <trkpt lat="45.35583" lon="5.83083">
        <ele>1179.1940917969</ele>
        <time>2011-06-04T12:52:10Z</time>
      </trkpt>
      <trkpt lat="45.35582" lon="5.83083">
        <ele>1178.2329101562</ele>
        <time>2011-06-04T12:52:11Z</time>
      </trkpt>
      <trkpt lat="45.35578" lon="5.83082">
        <ele>1175.8295898438</ele>
        <time>2011-06-04T12:52:13Z</time>
      </trkpt>
      <trkpt lat="45.35567" lon="5.83073">
        <ele>1170.5424804688</ele>
        <time>2011-06-04T12:52:20Z</time>
      </trkpt>
      <trkpt lat="45.35566" lon="5.83072">
        <ele>1169.5812988281</ele>
        <time>2011-06-04T12:52:21Z</time>
      </trkpt>
      <trkpt lat="45.35559" lon="5.83056">
        <ele>1163.8129882812</ele>
        <time>2011-06-04T12:52:30Z</time>
      </trkpt>
      <trkpt lat="45.35553" lon="5.83043">
        <ele>1162.8518066406</ele>
        <time>2011-06-04T12:52:37Z</time>
      </trkpt>
      <trkpt lat="45.35553" lon="5.83042">
        <ele>1162.8518066406</ele>
        <time>2011-06-04T12:52:38Z</time>
      </trkpt>
      <trkpt lat="45.35547" lon="5.83034">
        <ele>1161.4099121094</ele>
        <time>2011-06-04T12:52:42Z</time>
      </trkpt>
      <trkpt lat="45.35545" lon="5.83032">
        <ele>1161.4099121094</ele>
        <time>2011-06-04T12:52:43Z</time>
      </trkpt>
      <trkpt lat="45.35542" lon="5.8303">
        <ele>1161.4099121094</ele>
        <time>2011-06-04T12:52:44Z</time>
      </trkpt>
      <trkpt lat="45.3554" lon="5.83029">
        <ele>1161.4099121094</ele>
        <time>2011-06-04T12:52:45Z</time>
      </trkpt>
      <trkpt lat="45.35536" lon="5.83026">
        <ele>1161.4099121094</ele>
        <time>2011-06-04T12:52:47Z</time>
      </trkpt>
      <trkpt lat="45.35532" lon="5.83022">
        <ele>1161.4099121094</ele>
        <time>2011-06-04T12:52:49Z</time>
      </trkpt>
      <trkpt lat="45.35524" lon="5.83017">
        <ele>1161.890625</ele>
        <time>2011-06-04T12:52:53Z</time>
      </trkpt>
      <trkpt lat="45.35514" lon="5.83009">
        <ele>1161.890625</ele>
        <time>2011-06-04T12:52:58Z</time>
      </trkpt>
      <trkpt lat="45.35505" lon="5.82996">
        <ele>1163.3325195312</ele>
        <time>2011-06-04T12:53:03Z</time>
      </trkpt>
      <trkpt lat="45.35502" lon="5.82986">
        <ele>1163.3325195312</ele>
        <time>2011-06-04T12:53:06Z</time>
      </trkpt>
      <trkpt lat="45.35494" lon="5.82976">
        <ele>1162.8518066406</ele>
        <time>2011-06-04T12:53:12Z</time>
      </trkpt>
      <trkpt lat="45.35492" lon="5.82976">
        <ele>1162.8518066406</ele>
        <time>2011-06-04T12:53:13Z</time>
      </trkpt>
      <trkpt lat="45.35481" lon="5.82979">
        <ele>1163.8129882812</ele>
        <time>2011-06-04T12:53:19Z</time>
      </trkpt>
      <trkpt lat="45.35476" lon="5.8298">
        <ele>1165.7360839844</ele>
        <time>2011-06-04T12:53:22Z</time>
      </trkpt>
      <trkpt lat="45.35463" lon="5.82981">
        <ele>1167.6584472656</ele>
        <time>2011-06-04T12:53:30Z</time>
      </trkpt>
      <trkpt lat="45.35452" lon="5.82976">
        <ele>1167.6584472656</ele>
        <time>2011-06-04T12:53:34Z</time>
      </trkpt>
      <trkpt lat="45.35444" lon="5.82978">
        <ele>1159.9677734375</ele>
        <time>2011-06-04T12:53:38Z</time>
      </trkpt>
      <trkpt lat="45.35439" lon="5.82976">
        <ele>1152.7580566406</ele>
        <time>2011-06-04T12:53:41Z</time>
      </trkpt>
      <trkpt lat="45.35428" lon="5.82969">
        <ele>1145.5480957031</ele>
        <time>2011-06-04T12:53:45Z</time>
      </trkpt>
      <trkpt lat="45.35411" lon="5.82957">
        <ele>1142.6643066406</ele>
        <time>2011-06-04T12:53:49Z</time>
      </trkpt>
      <trkpt lat="45.35402" lon="5.82955">
        <ele>1134.9738769531</ele>
        <time>2011-06-04T12:53:54Z</time>
      </trkpt>
      <trkpt lat="45.35398" lon="5.82954">
        <ele>1131.6088867188</ele>
        <time>2011-06-04T12:53:56Z</time>
      </trkpt>
      <trkpt lat="45.35384" lon="5.82946">
        <ele>1129.6862792969</ele>
        <time>2011-06-04T12:54:02Z</time>
      </trkpt>
      <trkpt lat="45.3535" lon="5.82925">
        <ele>1136.8962402344</ele>
        <time>2011-06-04T12:54:09Z</time>
      </trkpt>
      <trkpt lat="45.35329" lon="5.82913">
        <ele>1135.4543457031</ele>
        <time>2011-06-04T12:54:16Z</time>
      </trkpt>
      <trkpt lat="45.35326" lon="5.82912">
        <ele>1136.8962402344</ele>
        <time>2011-06-04T12:54:17Z</time>
      </trkpt>
      <trkpt lat="45.3532" lon="5.82908">
        <ele>1137.8576660156</ele>
        <time>2011-06-04T12:54:19Z</time>
      </trkpt>
      <trkpt lat="45.3531" lon="5.82902">
        <ele>1141.2221679688</ele>
        <time>2011-06-04T12:54:22Z</time>
      </trkpt>
      <trkpt lat="45.35301" lon="5.82899">
        <ele>1142.6643066406</ele>
        <time>2011-06-04T12:54:28Z</time>
      </trkpt>
      <trkpt lat="45.35287" lon="5.8289">
        <ele>1138.3383789062</ele>
        <time>2011-06-04T12:54:32Z</time>
      </trkpt>
      <trkpt lat="45.35272" lon="5.82886">
        <ele>1140.7414550781</ele>
        <time>2011-06-04T12:54:39Z</time>
      </trkpt>
      <trkpt lat="45.3527" lon="5.82886">
        <ele>1142.18359375</ele>
        <time>2011-06-04T12:54:40Z</time>
      </trkpt>
      <trkpt lat="45.35255" lon="5.82884">
        <ele>1144.5866699219</ele>
        <time>2011-06-04T12:54:45Z</time>
      </trkpt>
      <trkpt lat="45.35241" lon="5.82882">
        <ele>1147.9514160156</ele>
        <time>2011-06-04T12:54:49Z</time>
      </trkpt>
      <trkpt lat="45.3523" lon="5.82874">
        <ele>1150.8354492188</ele>
        <time>2011-06-04T12:54:53Z</time>
      </trkpt>
      <trkpt lat="45.35229" lon="5.82867">
        <ele>1148.9128417969</ele>
        <time>2011-06-04T12:54:55Z</time>
      </trkpt>
      <trkpt lat="45.3523" lon="5.82861">
        <ele>1141.2221679688</ele>
        <time>2011-06-04T12:54:59Z</time>
      </trkpt>
      <trkpt lat="45.35222" lon="5.82844">
        <ele>1134.4931640625</ele>
        <time>2011-06-04T12:55:05Z</time>
      </trkpt>
      <trkpt lat="45.35215" lon="5.8283">
        <ele>1130.1669921875</ele>
        <time>2011-06-04T12:55:10Z</time>
      </trkpt>
      <trkpt lat="45.35204" lon="5.82817">
        <ele>1125.8410644531</ele>
        <time>2011-06-04T12:55:15Z</time>
      </trkpt>
      <trkpt lat="45.35189" lon="5.82805">
        <ele>1121.9958496094</ele>
        <time>2011-06-04T12:55:21Z</time>
      </trkpt>
      <trkpt lat="45.35177" lon="5.8279">
        <ele>1120.0732421875</ele>
        <time>2011-06-04T12:55:26Z</time>
      </trkpt>
      <trkpt lat="45.35168" lon="5.8278">
        <ele>1120.5539550781</ele>
        <time>2011-06-04T12:55:30Z</time>
      </trkpt>
      <trkpt lat="45.35157" lon="5.82768">
        <ele>1120.0732421875</ele>
        <time>2011-06-04T12:55:35Z</time>
      </trkpt>
      <trkpt lat="45.35146" lon="5.82756">
        <ele>1119.5927734375</ele>
        <time>2011-06-04T12:55:40Z</time>
      </trkpt>
      <trkpt lat="45.35132" lon="5.82744">
        <ele>1119.5927734375</ele>
        <time>2011-06-04T12:55:46Z</time>
      </trkpt>
      <trkpt lat="45.35119" lon="5.82728">
        <ele>1118.6313476562</ele>
        <time>2011-06-04T12:55:53Z</time>
      </trkpt>
      <trkpt lat="45.35116" lon="5.82724">
        <ele>1120.0732421875</ele>
        <time>2011-06-04T12:55:55Z</time>
      </trkpt>
      <trkpt lat="45.35104" lon="5.82717">
        <ele>1121.9958496094</ele>
        <time>2011-06-04T12:56:02Z</time>
      </trkpt>
      <trkpt lat="45.35096" lon="5.82715">
        <ele>1129.2055664062</ele>
        <time>2011-06-04T12:56:07Z</time>
      </trkpt>
      <trkpt lat="45.35087" lon="5.82713">
        <ele>1134.9738769531</ele>
        <time>2011-06-04T12:56:12Z</time>
      </trkpt>
      <trkpt lat="45.35084" lon="5.82711">
        <ele>1136.4157714844</ele>
        <time>2011-06-04T12:56:14Z</time>
      </trkpt>
      <trkpt lat="45.35074" lon="5.82701">
        <ele>1139.2995605469</ele>
        <time>2011-06-04T12:56:20Z</time>
      </trkpt>
      <trkpt lat="45.35067" lon="5.82688">
        <ele>1132.5705566406</ele>
        <time>2011-06-04T12:56:25Z</time>
      </trkpt>
      <trkpt lat="45.3506" lon="5.82678">
        <ele>1129.6862792969</ele>
        <time>2011-06-04T12:56:29Z</time>
      </trkpt>
      <trkpt lat="45.35049" lon="5.82665">
        <ele>1121.9958496094</ele>
        <time>2011-06-04T12:56:36Z</time>
      </trkpt>
      <trkpt lat="45.35044" lon="5.82651">
        <ele>1121.5151367188</ele>
        <time>2011-06-04T12:56:41Z</time>
      </trkpt>
      <trkpt lat="45.35039" lon="5.82639">
        <ele>1121.5151367188</ele>
        <time>2011-06-04T12:56:46Z</time>
      </trkpt>
      <trkpt lat="45.35032" lon="5.82628">
        <ele>1124.8798828125</ele>
        <time>2011-06-04T12:56:52Z</time>
      </trkpt>
      <trkpt lat="45.35019" lon="5.82618">
        <ele>1124.3991699219</ele>
        <time>2011-06-04T12:56:58Z</time>
      </trkpt>
      <trkpt lat="45.35009" lon="5.8261">
        <ele>1127.283203125</ele>
        <time>2011-06-04T12:57:03Z</time>
      </trkpt>
      <trkpt lat="45.34999" lon="5.82603">
        <ele>1127.283203125</ele>
        <time>2011-06-04T12:57:08Z</time>
      </trkpt>
      <trkpt lat="45.34989" lon="5.82593">
        <ele>1128.2443847656</ele>
        <time>2011-06-04T12:57:13Z</time>
      </trkpt>
      <trkpt lat="45.3498" lon="5.8258">
        <ele>1126.3217773438</ele>
        <time>2011-06-04T12:57:18Z</time>
      </trkpt>
      <trkpt lat="45.3497" lon="5.82565">
        <ele>1122.9572753906</ele>
        <time>2011-06-04T12:57:23Z</time>
      </trkpt>
      <trkpt lat="45.34967" lon="5.82556">
        <ele>1121.9958496094</ele>
        <time>2011-06-04T12:57:26Z</time>
      </trkpt>
      <trkpt lat="45.34962" lon="5.82537">
        <ele>1121.5151367188</ele>
        <time>2011-06-04T12:57:31Z</time>
      </trkpt>
      <trkpt lat="45.34954" lon="5.82512">
        <ele>1119.5927734375</ele>
        <time>2011-06-04T12:57:38Z</time>
      </trkpt>
      <trkpt lat="45.34946" lon="5.82491">
        <ele>1118.1506347656</ele>
        <time>2011-06-04T12:57:44Z</time>
      </trkpt>
      <trkpt lat="45.34937" lon="5.82474">
        <ele>1117.669921875</ele>
        <time>2011-06-04T12:57:49Z</time>
      </trkpt>
      <trkpt lat="45.34927" lon="5.82461">
        <ele>1116.2280273438</ele>
        <time>2011-06-04T12:57:54Z</time>
      </trkpt>
      <trkpt lat="45.34917" lon="5.82451">
        <ele>1116.2280273438</ele>
        <time>2011-06-04T12:57:59Z</time>
      </trkpt>
      <trkpt lat="45.34907" lon="5.82441">
        <ele>1114.7858886719</ele>
        <time>2011-06-04T12:58:04Z</time>
      </trkpt>
      <trkpt lat="45.34895" lon="5.82432">
        <ele>1115.7473144531</ele>
        <time>2011-06-04T12:58:09Z</time>
      </trkpt>
      <trkpt lat="45.34887" lon="5.82425">
        <ele>1116.2280273438</ele>
        <time>2011-06-04T12:58:13Z</time>
      </trkpt>
      <trkpt lat="45.34875" lon="5.82415">
        <ele>1112.86328125</ele>
        <time>2011-06-04T12:58:18Z</time>
      </trkpt>
      <trkpt lat="45.34851" lon="5.82399">
        <ele>1110.9406738281</ele>
        <time>2011-06-04T12:58:26Z</time>
      </trkpt>
      <trkpt lat="45.34835" lon="5.82388">
        <ele>1109.4987792969</ele>
        <time>2011-06-04T12:58:32Z</time>
      </trkpt>
      <trkpt lat="45.34817" lon="5.82374">
        <ele>1108.0568847656</ele>
        <time>2011-06-04T12:58:39Z</time>
      </trkpt>
      <trkpt lat="45.34801" lon="5.82361">
        <ele>1106.6147460938</ele>
        <time>2011-06-04T12:58:45Z</time>
      </trkpt>
      <trkpt lat="45.34784" lon="5.82359">
        <ele>1104.6921386719</ele>
        <time>2011-06-04T12:58:51Z</time>
      </trkpt>
      <trkpt lat="45.34768" lon="5.8236">
        <ele>1101.8083496094</ele>
        <time>2011-06-04T12:58:56Z</time>
      </trkpt>
      <trkpt lat="45.34756" lon="5.82361">
        <ele>1099.8854980469</ele>
        <time>2011-06-04T12:59:00Z</time>
      </trkpt>
      <trkpt lat="45.34742" lon="5.82365">
        <ele>1097.4821777344</ele>
        <time>2011-06-04T12:59:05Z</time>
      </trkpt>
      <trkpt lat="45.34727" lon="5.82372">
        <ele>1096.5209960938</ele>
        <time>2011-06-04T12:59:10Z</time>
      </trkpt>
      <trkpt lat="45.34718" lon="5.82378">
        <ele>1095.5595703125</ele>
        <time>2011-06-04T12:59:14Z</time>
      </trkpt>
      <trkpt lat="45.34703" lon="5.82388">
        <ele>1094.5981445312</ele>
        <time>2011-06-04T12:59:20Z</time>
      </trkpt>
      <trkpt lat="45.3469" lon="5.8239">
        <ele>1098.443359375</ele>
        <time>2011-06-04T12:59:24Z</time>
      </trkpt>
      <trkpt lat="45.34687" lon="5.82389">
        <ele>1098.9240722656</ele>
        <time>2011-06-04T12:59:25Z</time>
      </trkpt>
      <trkpt lat="45.34673" lon="5.82383">
        <ele>1101.3276367188</ele>
        <time>2011-06-04T12:59:32Z</time>
      </trkpt>
      <trkpt lat="45.34657" lon="5.82373">
        <ele>1099.4047851562</ele>
        <time>2011-06-04T12:59:37Z</time>
      </trkpt>
      <trkpt lat="45.34641" lon="5.82367">
        <ele>1098.443359375</ele>
        <time>2011-06-04T12:59:41Z</time>
      </trkpt>
      <trkpt lat="45.34619" lon="5.82362">
        <ele>1097.4821777344</ele>
        <time>2011-06-04T12:59:47Z</time>
      </trkpt>
      <trkpt lat="45.34607" lon="5.82359">
        <ele>1096.5209960938</ele>
        <time>2011-06-04T12:59:50Z</time>
      </trkpt>
      <trkpt lat="45.34591" lon="5.82355">
        <ele>1094.1176757812</ele>
        <time>2011-06-04T12:59:55Z</time>
      </trkpt>
      <trkpt lat="45.34581" lon="5.82349">
        <ele>1093.6369628906</ele>
        <time>2011-06-04T12:59:59Z</time>
      </trkpt>
      <trkpt lat="45.34571" lon="5.8234">
        <ele>1088.8305664062</ele>
        <time>2011-06-04T13:00:03Z</time>
      </trkpt>
      <trkpt lat="45.34567" lon="5.82338">
        <ele>1081.6203613281</ele>
        <time>2011-06-04T13:00:07Z</time>
      </trkpt>
      <trkpt lat="45.34554" lon="5.82337">
        <ele>1078.7365722656</ele>
        <time>2011-06-04T13:00:12Z</time>
      </trkpt>
      <trkpt lat="45.3454" lon="5.82339">
        <ele>1079.6977539062</ele>
        <time>2011-06-04T13:00:18Z</time>
      </trkpt>
      <trkpt lat="45.34526" lon="5.82339">
        <ele>1083.54296875</ele>
        <time>2011-06-04T13:00:24Z</time>
      </trkpt>
      <trkpt lat="45.34515" lon="5.82336">
        <ele>1084.0239257812</ele>
        <time>2011-06-04T13:00:29Z</time>
      </trkpt>
      <trkpt lat="45.34503" lon="5.8233">
        <ele>1082.5817871094</ele>
        <time>2011-06-04T13:00:34Z</time>
      </trkpt>
      <trkpt lat="45.34497" lon="5.82326">
        <ele>1082.1010742188</ele>
        <time>2011-06-04T13:00:37Z</time>
      </trkpt>
      <trkpt lat="45.34493" lon="5.82313">
        <ele>1079.6977539062</ele>
        <time>2011-06-04T13:00:42Z</time>
      </trkpt>
      <trkpt lat="45.3449" lon="5.82298">
        <ele>1074.8913574219</ele>
        <time>2011-06-04T13:00:47Z</time>
      </trkpt>
      <trkpt lat="45.34489" lon="5.82289">
        <ele>1072.4880371094</ele>
        <time>2011-06-04T13:00:50Z</time>
      </trkpt>
      <trkpt lat="45.34489" lon="5.82281">
        <ele>1071.0461425781</ele>
        <time>2011-06-04T13:00:52Z</time>
      </trkpt>
      <trkpt lat="45.34494" lon="5.82261">
        <ele>1066.2392578125</ele>
        <time>2011-06-04T13:00:58Z</time>
      </trkpt>
      <trkpt lat="45.34496" lon="5.82255">
        <ele>1065.2780761719</ele>
        <time>2011-06-04T13:01:00Z</time>
      </trkpt>
      <trkpt lat="45.345" lon="5.8224">
        <ele>1061.9135742188</ele>
        <time>2011-06-04T13:01:05Z</time>
      </trkpt>
      <trkpt lat="45.34497" lon="5.82228">
        <ele>1059.0295410156</ele>
        <time>2011-06-04T13:01:09Z</time>
      </trkpt>
      <trkpt lat="45.34493" lon="5.82214">
        <ele>1056.1455078125</ele>
        <time>2011-06-04T13:01:14Z</time>
      </trkpt>
      <trkpt lat="45.34482" lon="5.82197">
        <ele>1052.3002929688</ele>
        <time>2011-06-04T13:01:20Z</time>
      </trkpt>
      <trkpt lat="45.34476" lon="5.82185">
        <ele>1049.8969726562</ele>
        <time>2011-06-04T13:01:24Z</time>
      </trkpt>
      <trkpt lat="45.34469" lon="5.82173">
        <ele>1047.9743652344</ele>
        <time>2011-06-04T13:01:29Z</time>
      </trkpt>
      <trkpt lat="45.34464" lon="5.82167">
        <ele>1047.4936523438</ele>
        <time>2011-06-04T13:01:32Z</time>
      </trkpt>
      <trkpt lat="45.34454" lon="5.82162">
        <ele>1044.6096191406</ele>
        <time>2011-06-04T13:01:36Z</time>
      </trkpt>
      <trkpt lat="45.34447" lon="5.82159">
        <ele>1042.2065429688</ele>
        <time>2011-06-04T13:01:39Z</time>
      </trkpt>
      <trkpt lat="45.34438" lon="5.82141">
        <ele>1037.8806152344</ele>
        <time>2011-06-04T13:01:46Z</time>
      </trkpt>
      <trkpt lat="45.34432" lon="5.82132">
        <ele>1035.9577636719</ele>
        <time>2011-06-04T13:01:50Z</time>
      </trkpt>
      <trkpt lat="45.34423" lon="5.82121">
        <ele>1034.03515625</ele>
        <time>2011-06-04T13:01:56Z</time>
      </trkpt>
      <trkpt lat="45.34419" lon="5.82109">
        <ele>1032.1125488281</ele>
        <time>2011-06-04T13:02:00Z</time>
      </trkpt>
      <trkpt lat="45.34409" lon="5.821">
        <ele>1029.228515625</ele>
        <time>2011-06-04T13:02:04Z</time>
      </trkpt>
      <trkpt lat="45.34396" lon="5.82086">
        <ele>1028.2673339844</ele>
        <time>2011-06-04T13:02:10Z</time>
      </trkpt>
      <trkpt lat="45.34387" lon="5.82079">
        <ele>1027.7866210938</ele>
        <time>2011-06-04T13:02:14Z</time>
      </trkpt>
      <trkpt lat="45.34377" lon="5.82071">
        <ele>1027.7866210938</ele>
        <time>2011-06-04T13:02:18Z</time>
      </trkpt>
      <trkpt lat="45.34362" lon="5.82059">
        <ele>1024.4221191406</ele>
        <time>2011-06-04T13:02:24Z</time>
      </trkpt>
      <trkpt lat="45.34353" lon="5.8205">
        <ele>1020.0961914062</ele>
        <time>2011-06-04T13:02:28Z</time>
      </trkpt>
      <trkpt lat="45.34337" lon="5.8204">
        <ele>1016.7314453125</ele>
        <time>2011-06-04T13:02:33Z</time>
      </trkpt>
      <trkpt lat="45.34327" lon="5.82031">
        <ele>1016.2507324219</ele>
        <time>2011-06-04T13:02:37Z</time>
      </trkpt>
      <trkpt lat="45.34312" lon="5.82019">
        <ele>1014.328125</ele>
        <time>2011-06-04T13:02:43Z</time>
      </trkpt>
      <trkpt lat="45.34303" lon="5.8201">
        <ele>1012.8862304688</ele>
        <time>2011-06-04T13:02:47Z</time>
      </trkpt>
      <trkpt lat="45.34299" lon="5.82">
        <ele>1011.9250488281</ele>
        <time>2011-06-04T13:02:51Z</time>
      </trkpt>
      <trkpt lat="45.34297" lon="5.81996">
        <ele>1010.9636230469</ele>
        <time>2011-06-04T13:02:54Z</time>
      </trkpt>
      <trkpt lat="45.34298" lon="5.81986">
        <ele>1010.0021972656</ele>
        <time>2011-06-04T13:02:58Z</time>
      </trkpt>
      <trkpt lat="45.34298" lon="5.81985">
        <ele>1009.5217285156</ele>
        <time>2011-06-04T13:02:59Z</time>
      </trkpt>
      <trkpt lat="45.34288" lon="5.81997">
        <ele>1007.1184082031</ele>
        <time>2011-06-04T13:03:05Z</time>
      </trkpt>
      <trkpt lat="45.34278" lon="5.82009">
        <ele>1005.6765136719</ele>
        <time>2011-06-04T13:03:10Z</time>
      </trkpt>
      <trkpt lat="45.34271" lon="5.82015">
        <ele>1003.2729492188</ele>
        <time>2011-06-04T13:03:13Z</time>
      </trkpt>
      <trkpt lat="45.34266" lon="5.8202">
        <ele>1000.8696289062</ele>
        <time>2011-06-04T13:03:16Z</time>
      </trkpt>
      <trkpt lat="45.34265" lon="5.82019">
        <ele>1000.3891601562</ele>
        <time>2011-06-04T13:03:17Z</time>
      </trkpt>
      <trkpt lat="45.34268" lon="5.82009">
        <ele>995.58251953125</ele>
        <time>2011-06-04T13:03:20Z</time>
      </trkpt>
      <trkpt lat="45.34271" lon="5.82001">
        <ele>992.21801757812</ele>
        <time>2011-06-04T13:03:22Z</time>
      </trkpt>
      <trkpt lat="45.3428" lon="5.81982">
        <ele>990.29541015625</ele>
        <time>2011-06-04T13:03:27Z</time>
      </trkpt>
      <trkpt lat="45.34286" lon="5.81967">
        <ele>988.37280273438</ele>
        <time>2011-06-04T13:03:31Z</time>
      </trkpt>
      <trkpt lat="45.34291" lon="5.81952">
        <ele>991.25659179688</ele>
        <time>2011-06-04T13:03:35Z</time>
      </trkpt>
      <trkpt lat="45.34297" lon="5.81939">
        <ele>995.10180664062</ele>
        <time>2011-06-04T13:03:39Z</time>
      </trkpt>
      <trkpt lat="45.34304" lon="5.81931">
        <ele>996.5439453125</ele>
        <time>2011-06-04T13:03:42Z</time>
      </trkpt>
      <trkpt lat="45.34309" lon="5.81929">
        <ele>997.98583984375</ele>
        <time>2011-06-04T13:03:44Z</time>
      </trkpt>
      <trkpt lat="45.34322" lon="5.81925">
        <ele>998.46630859375</ele>
        <time>2011-06-04T13:03:48Z</time>
      </trkpt>
      <trkpt lat="45.34339" lon="5.81929">
        <ele>996.06323242188</ele>
        <time>2011-06-04T13:03:54Z</time>
      </trkpt>
      <trkpt lat="45.34354" lon="5.81931">
        <ele>990.29541015625</ele>
        <time>2011-06-04T13:03:59Z</time>
      </trkpt>
      <trkpt lat="45.34359" lon="5.81932">
        <ele>988.37280273438</ele>
        <time>2011-06-04T13:04:01Z</time>
      </trkpt>
      <trkpt lat="45.3437" lon="5.81931">
        <ele>981.64331054688</ele>
        <time>2011-06-04T13:04:06Z</time>
      </trkpt>
      <trkpt lat="45.34379" lon="5.81926">
        <ele>977.31762695312</ele>
        <time>2011-06-04T13:04:10Z</time>
      </trkpt>
      <trkpt lat="45.34389" lon="5.81921">
        <ele>971.06884765625</ele>
        <time>2011-06-04T13:04:15Z</time>
      </trkpt>
      <trkpt lat="45.34401" lon="5.8192">
        <ele>966.26220703125</ele>
        <time>2011-06-04T13:04:19Z</time>
      </trkpt>
      <trkpt lat="45.34406" lon="5.81916">
        <ele>963.37841796875</ele>
        <time>2011-06-04T13:04:22Z</time>
      </trkpt>
      <trkpt lat="45.34407" lon="5.81899">
        <ele>958.09130859375</ele>
        <time>2011-06-04T13:04:27Z</time>
      </trkpt>
      <trkpt lat="45.34403" lon="5.81886">
        <ele>956.16845703125</ele>
        <time>2011-06-04T13:04:31Z</time>
      </trkpt>
      <trkpt lat="45.34404" lon="5.81882">
        <ele>956.16845703125</ele>
        <time>2011-06-04T13:04:32Z</time>
      </trkpt>
      <trkpt lat="45.34406" lon="5.81868">
        <ele>952.32299804688</ele>
        <time>2011-06-04T13:04:36Z</time>
      </trkpt>
      <trkpt lat="45.3441" lon="5.81854">
        <ele>950.88110351562</ele>
        <time>2011-06-04T13:04:40Z</time>
      </trkpt>
      <trkpt lat="45.34411" lon="5.8183">
        <ele>947.5166015625</ele>
        <time>2011-06-04T13:04:45Z</time>
      </trkpt>
      <trkpt lat="45.34409" lon="5.81812">
        <ele>945.59399414062</ele>
        <time>2011-06-04T13:04:50Z</time>
      </trkpt>
      <trkpt lat="45.34409" lon="5.81804">
        <ele>945.59399414062</ele>
        <time>2011-06-04T13:04:52Z</time>
      </trkpt>
      <trkpt lat="45.34406" lon="5.81787">
        <ele>944.63256835938</ele>
        <time>2011-06-04T13:04:57Z</time>
      </trkpt>
      <trkpt lat="45.34401" lon="5.81775">
        <ele>941.74877929688</ele>
        <time>2011-06-04T13:05:01Z</time>
      </trkpt>
      <trkpt lat="45.34399" lon="5.81765">
        <ele>939.82592773438</ele>
        <time>2011-06-04T13:05:04Z</time>
      </trkpt>
      <trkpt lat="45.34398" lon="5.81748">
        <ele>935.5</ele>
        <time>2011-06-04T13:05:09Z</time>
      </trkpt>
      <trkpt lat="45.34388" lon="5.81728">
        <ele>933.0966796875</ele>
        <time>2011-06-04T13:05:14Z</time>
      </trkpt>
      <trkpt lat="45.34383" lon="5.8172">
        <ele>929.73217773438</ele>
        <time>2011-06-04T13:05:17Z</time>
      </trkpt>
      <trkpt lat="45.34383" lon="5.81704">
        <ele>923.96411132812</ele>
        <time>2011-06-04T13:05:23Z</time>
      </trkpt>
      <trkpt lat="45.34382" lon="5.81696">
        <ele>922.04150390625</ele>
        <time>2011-06-04T13:05:26Z</time>
      </trkpt>
      <trkpt lat="45.34381" lon="5.81694">
        <ele>921.08032226562</ele>
        <time>2011-06-04T13:05:27Z</time>
      </trkpt>
      <trkpt lat="45.34381" lon="5.81679">
        <ele>917.23510742188</ele>
        <time>2011-06-04T13:05:32Z</time>
      </trkpt>
      <trkpt lat="45.34377" lon="5.81661">
        <ele>914.83178710938</ele>
        <time>2011-06-04T13:05:37Z</time>
      </trkpt>
      <trkpt lat="45.34376" lon="5.81656">
        <ele>914.83178710938</ele>
        <time>2011-06-04T13:05:38Z</time>
      </trkpt>
      <trkpt lat="45.34377" lon="5.81639">
        <ele>910.505859375</ele>
        <time>2011-06-04T13:05:43Z</time>
      </trkpt>
      <trkpt lat="45.34375" lon="5.81632">
        <ele>909.06396484375</ele>
        <time>2011-06-04T13:05:45Z</time>
      </trkpt>
      <trkpt lat="45.34356" lon="5.81619">
        <ele>905.69921875</ele>
        <time>2011-06-04T13:05:52Z</time>
      </trkpt>
      <trkpt lat="45.3434" lon="5.81616">
        <ele>906.66040039062</ele>
        <time>2011-06-04T13:05:58Z</time>
      </trkpt>
      <trkpt lat="45.3433" lon="5.81612">
        <ele>908.10278320312</ele>
        <time>2011-06-04T13:06:02Z</time>
      </trkpt>
      <trkpt lat="45.34317" lon="5.81608">
        <ele>909.54467773438</ele>
        <time>2011-06-04T13:06:07Z</time>
      </trkpt>
      <trkpt lat="45.34306" lon="5.81604">
        <ele>910.505859375</ele>
        <time>2011-06-04T13:06:11Z</time>
      </trkpt>
      <trkpt lat="45.34295" lon="5.81603">
        <ele>908.58325195312</ele>
        <time>2011-06-04T13:06:15Z</time>
      </trkpt>
      <trkpt lat="45.3428" lon="5.81605">
        <ele>908.10278320312</ele>
        <time>2011-06-04T13:06:20Z</time>
      </trkpt>
      <trkpt lat="45.34269" lon="5.81611">
        <ele>908.58325195312</ele>
        <time>2011-06-04T13:06:24Z</time>
      </trkpt>
      <trkpt lat="45.34261" lon="5.81615">
        <ele>908.10278320312</ele>
        <time>2011-06-04T13:06:27Z</time>
      </trkpt>
      <trkpt lat="45.34246" lon="5.81617">
        <ele>905.21850585938</ele>
        <time>2011-06-04T13:06:32Z</time>
      </trkpt>
      <trkpt lat="45.34232" lon="5.81616">
        <ele>905.21850585938</ele>
        <time>2011-06-04T13:06:37Z</time>
      </trkpt>
      <trkpt lat="45.34218" lon="5.81611">
        <ele>901.85400390625</ele>
        <time>2011-06-04T13:06:42Z</time>
      </trkpt>
      <trkpt lat="45.34203" lon="5.81603">
        <ele>896.08618164062</ele>
        <time>2011-06-04T13:06:47Z</time>
      </trkpt>
      <trkpt lat="45.34194" lon="5.81593">
        <ele>893.2021484375</ele>
        <time>2011-06-04T13:06:51Z</time>
      </trkpt>
      <trkpt lat="45.34192" lon="5.8159">
        <ele>892.24096679688</ele>
        <time>2011-06-04T13:06:52Z</time>
      </trkpt>
      <trkpt lat="45.34172" lon="5.81589">
        <ele>891.76000976562</ele>
        <time>2011-06-04T13:06:58Z</time>
      </trkpt>
      <trkpt lat="45.34169" lon="5.81589">
        <ele>891.76000976562</ele>
        <time>2011-06-04T13:06:59Z</time>
      </trkpt>
      <trkpt lat="45.34163" lon="5.81574">
        <ele>892.24096679688</ele>
        <time>2011-06-04T13:07:04Z</time>
      </trkpt>
      <trkpt lat="45.34159" lon="5.81562">
        <ele>893.68286132812</ele>
        <time>2011-06-04T13:07:07Z</time>
      </trkpt>
      <trkpt lat="45.3415" lon="5.81546">
        <ele>894.16357421875</ele>
        <time>2011-06-04T13:07:13Z</time>
      </trkpt>
      <trkpt lat="45.34149" lon="5.81543">
        <ele>895.12475585938</ele>
        <time>2011-06-04T13:07:17Z</time>
      </trkpt>
      <trkpt lat="45.34147" lon="5.8154">
        <ele>890.79858398438</ele>
        <time>2011-06-04T13:07:27Z</time>
      </trkpt>
      <trkpt lat="45.34148" lon="5.81538">
        <ele>888.87622070312</ele>
        <time>2011-06-04T13:07:39Z</time>
      </trkpt>
      <trkpt lat="45.34146" lon="5.81534">
        <ele>891.279296875</ele>
        <time>2011-06-04T13:08:00Z</time>
      </trkpt>
      <trkpt lat="45.34143" lon="5.81529">
        <ele>889.83740234375</ele>
        <time>2011-06-04T13:08:06Z</time>
      </trkpt>
      <trkpt lat="45.34142" lon="5.81528">
        <ele>889.83740234375</ele>
        <time>2011-06-04T13:08:07Z</time>
      </trkpt>
      <trkpt lat="45.34142" lon="5.81528">
        <ele>889.83740234375</ele>
        <time>2011-06-04T13:08:08Z</time>
      </trkpt>
      <trkpt lat="45.34142" lon="5.81527">
        <ele>889.83740234375</ele>
        <time>2011-06-04T13:08:09Z</time>
      </trkpt>
      <trkpt lat="45.34142" lon="5.81526">
        <ele>889.83740234375</ele>
        <time>2011-06-04T13:08:11Z</time>
      </trkpt>
      <trkpt lat="45.34144" lon="5.81524">
        <ele>891.279296875</ele>
        <time>2011-06-04T13:08:19Z</time>
      </trkpt>
      <trkpt lat="45.34145" lon="5.81524">
        <ele>891.279296875</ele>
        <time>2011-06-04T13:08:20Z</time>
      </trkpt>
      <trkpt lat="45.34145" lon="5.81523">
        <ele>890.79858398438</ele>
        <time>2011-06-04T13:08:21Z</time>
      </trkpt>
      <trkpt lat="45.34145" lon="5.81522">
        <ele>890.31811523438</ele>
        <time>2011-06-04T13:08:28Z</time>
      </trkpt>
      <trkpt lat="45.34145" lon="5.81523">
        <ele>890.31811523438</ele>
        <time>2011-06-04T13:08:35Z</time>
      </trkpt>
    </trkseg>
  </trk>
</gpx>